<?xml version="1.0" encoding="UTF-8" standalone="no" ?>
<gpx xmlns="http://www.topografix.com/GPX/1/1" xmlns:xsi="http://www.w3.org/2001/XMLSchema-instance" xsi:schemaLocation="http://www.topografix.com/GPX/1/1 http://www.topografix.com/GPX/1/1/gpx.xsd" version="1.1" creator="VisuGPX - https://www.visugpx.com">
  <metadata>
    <name>Pic-Saint-Loup arête du château de Montferrand</name>
    <desc><![CDATA[#enregistré #asptt-jeudi]]></desc>
  </metadata>
  <trk>
    <name><![CDATA[Trace 1779350707999]]></name>
    <trkseg>
      <trkpt lat="43.76885" lon="3.84846">
        <ele>210.9</ele>
        <time>2026-05-21T08:05:07.999Z</time>
      </trkpt>
      <trkpt lat="43.76886" lon="3.84845">
        <ele>210.1</ele>
        <time>2026-05-21T08:05:08.999Z</time>
      </trkpt>
      <trkpt lat="43.76887" lon="3.84845">
        <ele>209.3</ele>
        <time>2026-05-21T08:05:09.999Z</time>
      </trkpt>
      <trkpt lat="43.76887" lon="3.84845">
        <ele>206.5</ele>
        <time>2026-05-21T08:05:10.999Z</time>
      </trkpt>
      <trkpt lat="43.76887" lon="3.84846">
        <ele>207</ele>
        <time>2026-05-21T08:05:11.999Z</time>
      </trkpt>
      <trkpt lat="43.76886" lon="3.84848">
        <ele>207.4</ele>
        <time>2026-05-21T08:05:12.999Z</time>
      </trkpt>
      <trkpt lat="43.76885" lon="3.84849">
        <ele>207.7</ele>
        <time>2026-05-21T08:05:13.999Z</time>
      </trkpt>
      <trkpt lat="43.76884" lon="3.8485">
        <ele>207.8</ele>
        <time>2026-05-21T08:05:14.999Z</time>
      </trkpt>
      <trkpt lat="43.76883" lon="3.84851">
        <ele>208.4</ele>
        <time>2026-05-21T08:05:15.999Z</time>
      </trkpt>
      <trkpt lat="43.76882" lon="3.84852">
        <ele>208.3</ele>
        <time>2026-05-21T08:05:16.999Z</time>
      </trkpt>
      <trkpt lat="43.76883" lon="3.84853">
        <ele>207.5</ele>
        <time>2026-05-21T08:05:17.999Z</time>
      </trkpt>
      <trkpt lat="43.76883" lon="3.84853">
        <ele>206.9</ele>
        <time>2026-05-21T08:05:18.999Z</time>
      </trkpt>
      <trkpt lat="43.76883" lon="3.84854">
        <ele>206.6</ele>
        <time>2026-05-21T08:05:19.999Z</time>
      </trkpt>
      <trkpt lat="43.76883" lon="3.84855">
        <ele>206.3</ele>
        <time>2026-05-21T08:05:20.999Z</time>
      </trkpt>
      <trkpt lat="43.76884" lon="3.84857">
        <ele>206.2</ele>
        <time>2026-05-21T08:05:21.999Z</time>
      </trkpt>
      <trkpt lat="43.76884" lon="3.84857">
        <ele>205.8</ele>
        <time>2026-05-21T08:05:22.999Z</time>
      </trkpt>
      <trkpt lat="43.76884" lon="3.84858">
        <ele>205.6</ele>
        <time>2026-05-21T08:05:23.999Z</time>
      </trkpt>
      <trkpt lat="43.76885" lon="3.84859">
        <ele>205.4</ele>
        <time>2026-05-21T08:05:24.999Z</time>
      </trkpt>
      <trkpt lat="43.76885" lon="3.8486">
        <ele>205.4</ele>
        <time>2026-05-21T08:05:25.999Z</time>
      </trkpt>
      <trkpt lat="43.76885" lon="3.84861">
        <ele>205.4</ele>
        <time>2026-05-21T08:05:26.999Z</time>
      </trkpt>
      <trkpt lat="43.76886" lon="3.84861">
        <ele>205.5</ele>
        <time>2026-05-21T08:05:27.999Z</time>
      </trkpt>
      <trkpt lat="43.76886" lon="3.84862">
        <ele>205.7</ele>
        <time>2026-05-21T08:05:28.999Z</time>
      </trkpt>
      <trkpt lat="43.76886" lon="3.84863">
        <ele>205.9</ele>
        <time>2026-05-21T08:05:29.999Z</time>
      </trkpt>
      <trkpt lat="43.76886" lon="3.84863">
        <ele>206.3</ele>
        <time>2026-05-21T08:05:30.999Z</time>
      </trkpt>
      <trkpt lat="43.76886" lon="3.84864">
        <ele>206.3</ele>
        <time>2026-05-21T08:05:31.999Z</time>
      </trkpt>
      <trkpt lat="43.76887" lon="3.84865">
        <ele>206.4</ele>
        <time>2026-05-21T08:05:32.999Z</time>
      </trkpt>
      <trkpt lat="43.76888" lon="3.84866">
        <ele>206.4</ele>
        <time>2026-05-21T08:05:33.999Z</time>
      </trkpt>
      <trkpt lat="43.76889" lon="3.84867">
        <ele>206.5</ele>
        <time>2026-05-21T08:05:34.999Z</time>
      </trkpt>
      <trkpt lat="43.7689" lon="3.84868">
        <ele>206.4</ele>
        <time>2026-05-21T08:05:35.999Z</time>
      </trkpt>
      <trkpt lat="43.7689" lon="3.84869">
        <ele>206.5</ele>
        <time>2026-05-21T08:05:36.999Z</time>
      </trkpt>
      <trkpt lat="43.7689" lon="3.84869">
        <ele>206.6</ele>
        <time>2026-05-21T08:05:37.999Z</time>
      </trkpt>
      <trkpt lat="43.76891" lon="3.8487">
        <ele>206.8</ele>
        <time>2026-05-21T08:05:38.999Z</time>
      </trkpt>
      <trkpt lat="43.76891" lon="3.84872">
        <ele>206.6</ele>
        <time>2026-05-21T08:05:39.999Z</time>
      </trkpt>
      <trkpt lat="43.76892" lon="3.84873">
        <ele>206.3</ele>
        <time>2026-05-21T08:05:40.999Z</time>
      </trkpt>
      <trkpt lat="43.76892" lon="3.84874">
        <ele>206.2</ele>
        <time>2026-05-21T08:05:41.999Z</time>
      </trkpt>
      <trkpt lat="43.76892" lon="3.84874">
        <ele>206.1</ele>
        <time>2026-05-21T08:05:42.999Z</time>
      </trkpt>
      <trkpt lat="43.76893" lon="3.84875">
        <ele>206.1</ele>
        <time>2026-05-21T08:05:43.999Z</time>
      </trkpt>
      <trkpt lat="43.76894" lon="3.84875">
        <ele>206</ele>
        <time>2026-05-21T08:05:44.999Z</time>
      </trkpt>
      <trkpt lat="43.76894" lon="3.84876">
        <ele>205.8</ele>
        <time>2026-05-21T08:05:45.999Z</time>
      </trkpt>
      <trkpt lat="43.76895" lon="3.84877">
        <ele>205.7</ele>
        <time>2026-05-21T08:05:46.999Z</time>
      </trkpt>
      <trkpt lat="43.76896" lon="3.84878">
        <ele>205.6</ele>
        <time>2026-05-21T08:05:47.999Z</time>
      </trkpt>
      <trkpt lat="43.76897" lon="3.84879">
        <ele>205.3</ele>
        <time>2026-05-21T08:05:48.999Z</time>
      </trkpt>
      <trkpt lat="43.76897" lon="3.84879">
        <ele>205.1</ele>
        <time>2026-05-21T08:05:49.999Z</time>
      </trkpt>
      <trkpt lat="43.76898" lon="3.8488">
        <ele>204.7</ele>
        <time>2026-05-21T08:05:50.999Z</time>
      </trkpt>
      <trkpt lat="43.76898" lon="3.84881">
        <ele>204.5</ele>
        <time>2026-05-21T08:05:51.999Z</time>
      </trkpt>
      <trkpt lat="43.76899" lon="3.84882">
        <ele>204.2</ele>
        <time>2026-05-21T08:05:52.999Z</time>
      </trkpt>
      <trkpt lat="43.76899" lon="3.84883">
        <ele>204.1</ele>
        <time>2026-05-21T08:05:53.999Z</time>
      </trkpt>
      <trkpt lat="43.769" lon="3.84883">
        <ele>204</ele>
        <time>2026-05-21T08:05:54.999Z</time>
      </trkpt>
      <trkpt lat="43.769" lon="3.84884">
        <ele>204.2</ele>
        <time>2026-05-21T08:05:55.999Z</time>
      </trkpt>
      <trkpt lat="43.76901" lon="3.84884">
        <ele>204.3</ele>
        <time>2026-05-21T08:05:56.999Z</time>
      </trkpt>
      <trkpt lat="43.76901" lon="3.84885">
        <ele>204.4</ele>
        <time>2026-05-21T08:05:57.999Z</time>
      </trkpt>
      <trkpt lat="43.76902" lon="3.84885">
        <ele>204.5</ele>
        <time>2026-05-21T08:05:58.999Z</time>
      </trkpt>
      <trkpt lat="43.76903" lon="3.84886">
        <ele>204.1</ele>
        <time>2026-05-21T08:05:59.999Z</time>
      </trkpt>
      <trkpt lat="43.76904" lon="3.84886">
        <ele>203.6</ele>
        <time>2026-05-21T08:06:00.999Z</time>
      </trkpt>
      <trkpt lat="43.76905" lon="3.84887">
        <ele>204.2</ele>
        <time>2026-05-21T08:06:01.999Z</time>
      </trkpt>
      <trkpt lat="43.76905" lon="3.84886">
        <ele>203.9</ele>
        <time>2026-05-21T08:06:02.999Z</time>
      </trkpt>
      <trkpt lat="43.76905" lon="3.84886">
        <ele>203.9</ele>
        <time>2026-05-21T08:06:03.999Z</time>
      </trkpt>
      <trkpt lat="43.76905" lon="3.84886">
        <ele>203.8</ele>
        <time>2026-05-21T08:06:04.999Z</time>
      </trkpt>
      <trkpt lat="43.76905" lon="3.84886">
        <ele>203.5</ele>
        <time>2026-05-21T08:06:05.999Z</time>
      </trkpt>
      <trkpt lat="43.76906" lon="3.84888">
        <ele>202.8</ele>
        <time>2026-05-21T08:06:06.999Z</time>
      </trkpt>
      <trkpt lat="43.76907" lon="3.84889">
        <ele>202.8</ele>
        <time>2026-05-21T08:06:07.999Z</time>
      </trkpt>
      <trkpt lat="43.76907" lon="3.84891">
        <ele>203.1</ele>
        <time>2026-05-21T08:06:08.999Z</time>
      </trkpt>
      <trkpt lat="43.76908" lon="3.84891">
        <ele>202.7</ele>
        <time>2026-05-21T08:06:09.999Z</time>
      </trkpt>
      <trkpt lat="43.76909" lon="3.84891">
        <ele>202.3</ele>
        <time>2026-05-21T08:06:10.999Z</time>
      </trkpt>
      <trkpt lat="43.76909" lon="3.84892">
        <ele>201.6</ele>
        <time>2026-05-21T08:06:11.999Z</time>
      </trkpt>
      <trkpt lat="43.76911" lon="3.84893">
        <ele>200.9</ele>
        <time>2026-05-21T08:06:12.999Z</time>
      </trkpt>
      <trkpt lat="43.76912" lon="3.84894">
        <ele>200.7</ele>
        <time>2026-05-21T08:06:13.999Z</time>
      </trkpt>
      <trkpt lat="43.76913" lon="3.84894">
        <ele>201.2</ele>
        <time>2026-05-21T08:06:14.999Z</time>
      </trkpt>
      <trkpt lat="43.76914" lon="3.84894">
        <ele>201.3</ele>
        <time>2026-05-21T08:06:15.999Z</time>
      </trkpt>
      <trkpt lat="43.76916" lon="3.84895">
        <ele>201.5</ele>
        <time>2026-05-21T08:06:16.999Z</time>
      </trkpt>
      <trkpt lat="43.76917" lon="3.84896">
        <ele>201.7</ele>
        <time>2026-05-21T08:06:17.999Z</time>
      </trkpt>
      <trkpt lat="43.76918" lon="3.84896">
        <ele>202.1</ele>
        <time>2026-05-21T08:06:18.999Z</time>
      </trkpt>
      <trkpt lat="43.76919" lon="3.84897">
        <ele>202.1</ele>
        <time>2026-05-21T08:06:19.999Z</time>
      </trkpt>
      <trkpt lat="43.7692" lon="3.84897">
        <ele>202.3</ele>
        <time>2026-05-21T08:06:20.999Z</time>
      </trkpt>
      <trkpt lat="43.76921" lon="3.84897">
        <ele>201.8</ele>
        <time>2026-05-21T08:06:21.999Z</time>
      </trkpt>
      <trkpt lat="43.76923" lon="3.84897">
        <ele>200.7</ele>
        <time>2026-05-21T08:06:22.999Z</time>
      </trkpt>
      <trkpt lat="43.76923" lon="3.84897">
        <ele>199.4</ele>
        <time>2026-05-21T08:06:23.999Z</time>
      </trkpt>
      <trkpt lat="43.76925" lon="3.84897">
        <ele>199.3</ele>
        <time>2026-05-21T08:06:24.999Z</time>
      </trkpt>
      <trkpt lat="43.76926" lon="3.84898">
        <ele>198.6</ele>
        <time>2026-05-21T08:06:25.999Z</time>
      </trkpt>
      <trkpt lat="43.76928" lon="3.84899">
        <ele>198.1</ele>
        <time>2026-05-21T08:06:26.999Z</time>
      </trkpt>
      <trkpt lat="43.76929" lon="3.84899">
        <ele>197.5</ele>
        <time>2026-05-21T08:06:27.999Z</time>
      </trkpt>
      <trkpt lat="43.7693" lon="3.84899">
        <ele>197.3</ele>
        <time>2026-05-21T08:06:28.999Z</time>
      </trkpt>
      <trkpt lat="43.76931" lon="3.849">
        <ele>197.5</ele>
        <time>2026-05-21T08:06:29.999Z</time>
      </trkpt>
      <trkpt lat="43.76932" lon="3.84899">
        <ele>197.5</ele>
        <time>2026-05-21T08:06:30.999Z</time>
      </trkpt>
      <trkpt lat="43.76933" lon="3.849">
        <ele>197.4</ele>
        <time>2026-05-21T08:06:31.999Z</time>
      </trkpt>
      <trkpt lat="43.76934" lon="3.84901">
        <ele>197</ele>
        <time>2026-05-21T08:06:32.999Z</time>
      </trkpt>
      <trkpt lat="43.76935" lon="3.84902">
        <ele>197.4</ele>
        <time>2026-05-21T08:06:33.999Z</time>
      </trkpt>
      <trkpt lat="43.76936" lon="3.84902">
        <ele>197.6</ele>
        <time>2026-05-21T08:06:34.999Z</time>
      </trkpt>
      <trkpt lat="43.76937" lon="3.84903">
        <ele>197.6</ele>
        <time>2026-05-21T08:06:35.999Z</time>
      </trkpt>
      <trkpt lat="43.76938" lon="3.84903">
        <ele>197.9</ele>
        <time>2026-05-21T08:06:36.999Z</time>
      </trkpt>
      <trkpt lat="43.76939" lon="3.84904">
        <ele>198.1</ele>
        <time>2026-05-21T08:06:37.999Z</time>
      </trkpt>
      <trkpt lat="43.7694" lon="3.84904">
        <ele>198</ele>
        <time>2026-05-21T08:06:38.999Z</time>
      </trkpt>
      <trkpt lat="43.76942" lon="3.84904">
        <ele>197.4</ele>
        <time>2026-05-21T08:06:39.999Z</time>
      </trkpt>
      <trkpt lat="43.76943" lon="3.84905">
        <ele>197.5</ele>
        <time>2026-05-21T08:06:40.999Z</time>
      </trkpt>
      <trkpt lat="43.76944" lon="3.84906">
        <ele>197.8</ele>
        <time>2026-05-21T08:06:41.999Z</time>
      </trkpt>
      <trkpt lat="43.76944" lon="3.84906">
        <ele>197.6</ele>
        <time>2026-05-21T08:06:42.999Z</time>
      </trkpt>
      <trkpt lat="43.76945" lon="3.84907">
        <ele>197.8</ele>
        <time>2026-05-21T08:06:43.999Z</time>
      </trkpt>
      <trkpt lat="43.76945" lon="3.84908">
        <ele>197.8</ele>
        <time>2026-05-21T08:06:44.999Z</time>
      </trkpt>
      <trkpt lat="43.76947" lon="3.84908">
        <ele>197.5</ele>
        <time>2026-05-21T08:06:45.999Z</time>
      </trkpt>
      <trkpt lat="43.76948" lon="3.84909">
        <ele>197.2</ele>
        <time>2026-05-21T08:06:46.999Z</time>
      </trkpt>
      <trkpt lat="43.76949" lon="3.84909">
        <ele>196.5</ele>
        <time>2026-05-21T08:06:47.999Z</time>
      </trkpt>
      <trkpt lat="43.7695" lon="3.8491">
        <ele>196.2</ele>
        <time>2026-05-21T08:06:48.999Z</time>
      </trkpt>
      <trkpt lat="43.76951" lon="3.8491">
        <ele>195.9</ele>
        <time>2026-05-21T08:06:49.999Z</time>
      </trkpt>
      <trkpt lat="43.76952" lon="3.84911">
        <ele>195.8</ele>
        <time>2026-05-21T08:06:50.999Z</time>
      </trkpt>
      <trkpt lat="43.76953" lon="3.84911">
        <ele>195.7</ele>
        <time>2026-05-21T08:06:51.999Z</time>
      </trkpt>
      <trkpt lat="43.76954" lon="3.84913">
        <ele>195.8</ele>
        <time>2026-05-21T08:06:52.999Z</time>
      </trkpt>
      <trkpt lat="43.76956" lon="3.84913">
        <ele>195.6</ele>
        <time>2026-05-21T08:06:53.999Z</time>
      </trkpt>
      <trkpt lat="43.76957" lon="3.84914">
        <ele>195.7</ele>
        <time>2026-05-21T08:06:54.999Z</time>
      </trkpt>
      <trkpt lat="43.76957" lon="3.84915">
        <ele>195.8</ele>
        <time>2026-05-21T08:06:55.999Z</time>
      </trkpt>
      <trkpt lat="43.76958" lon="3.84914">
        <ele>196</ele>
        <time>2026-05-21T08:06:56.999Z</time>
      </trkpt>
      <trkpt lat="43.76959" lon="3.84915">
        <ele>196.1</ele>
        <time>2026-05-21T08:06:57.999Z</time>
      </trkpt>
      <trkpt lat="43.7696" lon="3.84916">
        <ele>195.8</ele>
        <time>2026-05-21T08:06:58.999Z</time>
      </trkpt>
      <trkpt lat="43.76961" lon="3.84917">
        <ele>195.6</ele>
        <time>2026-05-21T08:06:59.999Z</time>
      </trkpt>
      <trkpt lat="43.76962" lon="3.84917">
        <ele>195.5</ele>
        <time>2026-05-21T08:07:00.999Z</time>
      </trkpt>
      <trkpt lat="43.76963" lon="3.84917">
        <ele>195.7</ele>
        <time>2026-05-21T08:07:01.999Z</time>
      </trkpt>
      <trkpt lat="43.76964" lon="3.84917">
        <ele>195.7</ele>
        <time>2026-05-21T08:07:02.999Z</time>
      </trkpt>
      <trkpt lat="43.76965" lon="3.84917">
        <ele>196</ele>
        <time>2026-05-21T08:07:03.999Z</time>
      </trkpt>
      <trkpt lat="43.76966" lon="3.84918">
        <ele>196</ele>
        <time>2026-05-21T08:07:04.999Z</time>
      </trkpt>
      <trkpt lat="43.76968" lon="3.84918">
        <ele>195.9</ele>
        <time>2026-05-21T08:07:05.999Z</time>
      </trkpt>
      <trkpt lat="43.76969" lon="3.84918">
        <ele>196</ele>
        <time>2026-05-21T08:07:06.999Z</time>
      </trkpt>
      <trkpt lat="43.76971" lon="3.84919">
        <ele>195.8</ele>
        <time>2026-05-21T08:07:07.999Z</time>
      </trkpt>
      <trkpt lat="43.76971" lon="3.84919">
        <ele>195.7</ele>
        <time>2026-05-21T08:07:08.999Z</time>
      </trkpt>
      <trkpt lat="43.76972" lon="3.84919">
        <ele>195.7</ele>
        <time>2026-05-21T08:07:09.999Z</time>
      </trkpt>
      <trkpt lat="43.76974" lon="3.84919">
        <ele>195.8</ele>
        <time>2026-05-21T08:07:10.999Z</time>
      </trkpt>
      <trkpt lat="43.76975" lon="3.84918">
        <ele>195.9</ele>
        <time>2026-05-21T08:07:11.999Z</time>
      </trkpt>
      <trkpt lat="43.76977" lon="3.84918">
        <ele>195.6</ele>
        <time>2026-05-21T08:07:12.999Z</time>
      </trkpt>
      <trkpt lat="43.76978" lon="3.84918">
        <ele>195.8</ele>
        <time>2026-05-21T08:07:13.999Z</time>
      </trkpt>
      <trkpt lat="43.7698" lon="3.84918">
        <ele>195.7</ele>
        <time>2026-05-21T08:07:14.999Z</time>
      </trkpt>
      <trkpt lat="43.7698" lon="3.84918">
        <ele>195.6</ele>
        <time>2026-05-21T08:07:15.999Z</time>
      </trkpt>
      <trkpt lat="43.76981" lon="3.84919">
        <ele>195.4</ele>
        <time>2026-05-21T08:07:16.999Z</time>
      </trkpt>
      <trkpt lat="43.76982" lon="3.84919">
        <ele>195.1</ele>
        <time>2026-05-21T08:07:17.999Z</time>
      </trkpt>
      <trkpt lat="43.76982" lon="3.84919">
        <ele>194.9</ele>
        <time>2026-05-21T08:07:18.999Z</time>
      </trkpt>
      <trkpt lat="43.76983" lon="3.84919">
        <ele>194.6</ele>
        <time>2026-05-21T08:07:19.999Z</time>
      </trkpt>
      <trkpt lat="43.76984" lon="3.8492">
        <ele>194.7</ele>
        <time>2026-05-21T08:07:20.999Z</time>
      </trkpt>
      <trkpt lat="43.76986" lon="3.8492">
        <ele>194.7</ele>
        <time>2026-05-21T08:07:21.999Z</time>
      </trkpt>
      <trkpt lat="43.76987" lon="3.8492">
        <ele>194.7</ele>
        <time>2026-05-21T08:07:22.999Z</time>
      </trkpt>
      <trkpt lat="43.76988" lon="3.84921">
        <ele>194.7</ele>
        <time>2026-05-21T08:07:23.999Z</time>
      </trkpt>
      <trkpt lat="43.76989" lon="3.84921">
        <ele>194.7</ele>
        <time>2026-05-21T08:07:24.999Z</time>
      </trkpt>
      <trkpt lat="43.7699" lon="3.84921">
        <ele>194.5</ele>
        <time>2026-05-21T08:07:25.999Z</time>
      </trkpt>
      <trkpt lat="43.76991" lon="3.84921">
        <ele>194.4</ele>
        <time>2026-05-21T08:07:26.999Z</time>
      </trkpt>
      <trkpt lat="43.76992" lon="3.84922">
        <ele>194.4</ele>
        <time>2026-05-21T08:07:27.999Z</time>
      </trkpt>
      <trkpt lat="43.76994" lon="3.84922">
        <ele>194.4</ele>
        <time>2026-05-21T08:07:28.999Z</time>
      </trkpt>
      <trkpt lat="43.76995" lon="3.84921">
        <ele>194.4</ele>
        <time>2026-05-21T08:07:29.999Z</time>
      </trkpt>
      <trkpt lat="43.76997" lon="3.84921">
        <ele>194.3</ele>
        <time>2026-05-21T08:07:30.999Z</time>
      </trkpt>
      <trkpt lat="43.76998" lon="3.8492">
        <ele>194.4</ele>
        <time>2026-05-21T08:07:31.999Z</time>
      </trkpt>
      <trkpt lat="43.77" lon="3.84919">
        <ele>194.7</ele>
        <time>2026-05-21T08:07:32.999Z</time>
      </trkpt>
      <trkpt lat="43.77001" lon="3.84919">
        <ele>194.7</ele>
        <time>2026-05-21T08:07:33.999Z</time>
      </trkpt>
      <trkpt lat="43.77003" lon="3.8492">
        <ele>194.7</ele>
        <time>2026-05-21T08:07:34.999Z</time>
      </trkpt>
      <trkpt lat="43.77004" lon="3.8492">
        <ele>194.6</ele>
        <time>2026-05-21T08:07:35.999Z</time>
      </trkpt>
      <trkpt lat="43.77005" lon="3.84921">
        <ele>194.6</ele>
        <time>2026-05-21T08:07:36.999Z</time>
      </trkpt>
      <trkpt lat="43.77006" lon="3.84921">
        <ele>194.7</ele>
        <time>2026-05-21T08:07:37.999Z</time>
      </trkpt>
      <trkpt lat="43.77006" lon="3.8492">
        <ele>194.9</ele>
        <time>2026-05-21T08:07:38.999Z</time>
      </trkpt>
      <trkpt lat="43.77007" lon="3.8492">
        <ele>194.5</ele>
        <time>2026-05-21T08:07:39.999Z</time>
      </trkpt>
      <trkpt lat="43.77008" lon="3.84919">
        <ele>194.2</ele>
        <time>2026-05-21T08:07:40.999Z</time>
      </trkpt>
      <trkpt lat="43.77009" lon="3.84919">
        <ele>194.4</ele>
        <time>2026-05-21T08:07:41.999Z</time>
      </trkpt>
      <trkpt lat="43.7701" lon="3.84919">
        <ele>194.2</ele>
        <time>2026-05-21T08:07:42.999Z</time>
      </trkpt>
      <trkpt lat="43.77011" lon="3.84919">
        <ele>194.1</ele>
        <time>2026-05-21T08:07:43.999Z</time>
      </trkpt>
      <trkpt lat="43.77012" lon="3.84919">
        <ele>193.7</ele>
        <time>2026-05-21T08:07:44.999Z</time>
      </trkpt>
      <trkpt lat="43.77014" lon="3.84919">
        <ele>193.6</ele>
        <time>2026-05-21T08:07:45.999Z</time>
      </trkpt>
      <trkpt lat="43.77015" lon="3.84918">
        <ele>193.7</ele>
        <time>2026-05-21T08:07:46.999Z</time>
      </trkpt>
      <trkpt lat="43.77016" lon="3.84918">
        <ele>193.6</ele>
        <time>2026-05-21T08:07:47.999Z</time>
      </trkpt>
      <trkpt lat="43.77017" lon="3.84918">
        <ele>193.8</ele>
        <time>2026-05-21T08:07:48.999Z</time>
      </trkpt>
      <trkpt lat="43.77017" lon="3.84917">
        <ele>193.9</ele>
        <time>2026-05-21T08:07:49.999Z</time>
      </trkpt>
      <trkpt lat="43.77019" lon="3.84917">
        <ele>194</ele>
        <time>2026-05-21T08:07:50.999Z</time>
      </trkpt>
      <trkpt lat="43.7702" lon="3.84917">
        <ele>194.1</ele>
        <time>2026-05-21T08:07:51.999Z</time>
      </trkpt>
      <trkpt lat="43.77021" lon="3.84917">
        <ele>193.6</ele>
        <time>2026-05-21T08:07:52.999Z</time>
      </trkpt>
      <trkpt lat="43.77022" lon="3.84917">
        <ele>193.4</ele>
        <time>2026-05-21T08:07:53.999Z</time>
      </trkpt>
      <trkpt lat="43.77023" lon="3.84917">
        <ele>193.1</ele>
        <time>2026-05-21T08:07:54.999Z</time>
      </trkpt>
      <trkpt lat="43.77024" lon="3.84917">
        <ele>192.9</ele>
        <time>2026-05-21T08:07:55.999Z</time>
      </trkpt>
      <trkpt lat="43.77026" lon="3.84918">
        <ele>193</ele>
        <time>2026-05-21T08:07:56.999Z</time>
      </trkpt>
      <trkpt lat="43.77028" lon="3.84919">
        <ele>193</ele>
        <time>2026-05-21T08:07:57.999Z</time>
      </trkpt>
      <trkpt lat="43.77029" lon="3.84919">
        <ele>192.8</ele>
        <time>2026-05-21T08:07:58.999Z</time>
      </trkpt>
      <trkpt lat="43.7703" lon="3.84918">
        <ele>192.7</ele>
        <time>2026-05-21T08:07:59.999Z</time>
      </trkpt>
      <trkpt lat="43.7703" lon="3.84919">
        <ele>192.3</ele>
        <time>2026-05-21T08:08:00.999Z</time>
      </trkpt>
      <trkpt lat="43.77031" lon="3.84918">
        <ele>192.1</ele>
        <time>2026-05-21T08:08:01.999Z</time>
      </trkpt>
      <trkpt lat="43.77033" lon="3.84918">
        <ele>192.1</ele>
        <time>2026-05-21T08:08:02.999Z</time>
      </trkpt>
      <trkpt lat="43.77034" lon="3.84917">
        <ele>191.9</ele>
        <time>2026-05-21T08:08:03.999Z</time>
      </trkpt>
      <trkpt lat="43.77036" lon="3.84917">
        <ele>191.4</ele>
        <time>2026-05-21T08:08:04.999Z</time>
      </trkpt>
      <trkpt lat="43.77037" lon="3.84917">
        <ele>191.1</ele>
        <time>2026-05-21T08:08:05.999Z</time>
      </trkpt>
      <trkpt lat="43.77038" lon="3.84918">
        <ele>191.1</ele>
        <time>2026-05-21T08:08:06.999Z</time>
      </trkpt>
      <trkpt lat="43.77039" lon="3.84918">
        <ele>191.2</ele>
        <time>2026-05-21T08:08:07.999Z</time>
      </trkpt>
      <trkpt lat="43.77041" lon="3.84918">
        <ele>191.5</ele>
        <time>2026-05-21T08:08:08.999Z</time>
      </trkpt>
      <trkpt lat="43.77042" lon="3.84918">
        <ele>191.4</ele>
        <time>2026-05-21T08:08:09.999Z</time>
      </trkpt>
      <trkpt lat="43.77043" lon="3.84919">
        <ele>191.2</ele>
        <time>2026-05-21T08:08:10.999Z</time>
      </trkpt>
      <trkpt lat="43.77043" lon="3.8492">
        <ele>191.3</ele>
        <time>2026-05-21T08:08:11.999Z</time>
      </trkpt>
      <trkpt lat="43.77045" lon="3.84921">
        <ele>191.3</ele>
        <time>2026-05-21T08:08:12.999Z</time>
      </trkpt>
      <trkpt lat="43.77046" lon="3.84921">
        <ele>191.6</ele>
        <time>2026-05-21T08:08:13.999Z</time>
      </trkpt>
      <trkpt lat="43.77046" lon="3.84922">
        <ele>191.7</ele>
        <time>2026-05-21T08:08:14.999Z</time>
      </trkpt>
      <trkpt lat="43.77047" lon="3.84922">
        <ele>191.7</ele>
        <time>2026-05-21T08:08:15.999Z</time>
      </trkpt>
      <trkpt lat="43.77048" lon="3.84923">
        <ele>191.5</ele>
        <time>2026-05-21T08:08:16.999Z</time>
      </trkpt>
      <trkpt lat="43.77049" lon="3.84923">
        <ele>191.3</ele>
        <time>2026-05-21T08:08:17.999Z</time>
      </trkpt>
      <trkpt lat="43.7705" lon="3.84924">
        <ele>191.2</ele>
        <time>2026-05-21T08:08:18.999Z</time>
      </trkpt>
      <trkpt lat="43.7705" lon="3.84924">
        <ele>191.3</ele>
        <time>2026-05-21T08:08:19.999Z</time>
      </trkpt>
      <trkpt lat="43.77051" lon="3.84925">
        <ele>191.3</ele>
        <time>2026-05-21T08:08:20.999Z</time>
      </trkpt>
      <trkpt lat="43.77051" lon="3.84926">
        <ele>191.2</ele>
        <time>2026-05-21T08:08:21.999Z</time>
      </trkpt>
      <trkpt lat="43.77053" lon="3.84927">
        <ele>191.3</ele>
        <time>2026-05-21T08:08:22.999Z</time>
      </trkpt>
      <trkpt lat="43.77054" lon="3.84927">
        <ele>191.2</ele>
        <time>2026-05-21T08:08:23.999Z</time>
      </trkpt>
      <trkpt lat="43.77055" lon="3.84927">
        <ele>191.5</ele>
        <time>2026-05-21T08:08:24.999Z</time>
      </trkpt>
      <trkpt lat="43.77056" lon="3.84927">
        <ele>191.5</ele>
        <time>2026-05-21T08:08:25.999Z</time>
      </trkpt>
      <trkpt lat="43.77056" lon="3.84928">
        <ele>191.6</ele>
        <time>2026-05-21T08:08:26.999Z</time>
      </trkpt>
      <trkpt lat="43.77057" lon="3.84928">
        <ele>191.7</ele>
        <time>2026-05-21T08:08:27.999Z</time>
      </trkpt>
      <trkpt lat="43.77058" lon="3.84928">
        <ele>191.7</ele>
        <time>2026-05-21T08:08:28.999Z</time>
      </trkpt>
      <trkpt lat="43.77059" lon="3.84929">
        <ele>191.8</ele>
        <time>2026-05-21T08:08:29.999Z</time>
      </trkpt>
      <trkpt lat="43.77059" lon="3.8493">
        <ele>191.7</ele>
        <time>2026-05-21T08:08:30.999Z</time>
      </trkpt>
      <trkpt lat="43.77061" lon="3.84931">
        <ele>191.9</ele>
        <time>2026-05-21T08:08:31.999Z</time>
      </trkpt>
      <trkpt lat="43.77062" lon="3.84931">
        <ele>192.3</ele>
        <time>2026-05-21T08:08:32.999Z</time>
      </trkpt>
      <trkpt lat="43.77063" lon="3.84932">
        <ele>192.2</ele>
        <time>2026-05-21T08:08:33.999Z</time>
      </trkpt>
      <trkpt lat="43.77063" lon="3.84932">
        <ele>192.2</ele>
        <time>2026-05-21T08:08:34.999Z</time>
      </trkpt>
      <trkpt lat="43.77065" lon="3.84932">
        <ele>192</ele>
        <time>2026-05-21T08:08:35.999Z</time>
      </trkpt>
      <trkpt lat="43.77066" lon="3.84933">
        <ele>191.8</ele>
        <time>2026-05-21T08:08:36.999Z</time>
      </trkpt>
      <trkpt lat="43.77068" lon="3.84934">
        <ele>191.9</ele>
        <time>2026-05-21T08:08:37.999Z</time>
      </trkpt>
      <trkpt lat="43.77069" lon="3.84935">
        <ele>191.9</ele>
        <time>2026-05-21T08:08:38.999Z</time>
      </trkpt>
      <trkpt lat="43.7707" lon="3.84935">
        <ele>192</ele>
        <time>2026-05-21T08:08:39.999Z</time>
      </trkpt>
      <trkpt lat="43.77071" lon="3.84935">
        <ele>192.2</ele>
        <time>2026-05-21T08:08:40.999Z</time>
      </trkpt>
      <trkpt lat="43.77072" lon="3.84935">
        <ele>192.5</ele>
        <time>2026-05-21T08:08:41.999Z</time>
      </trkpt>
      <trkpt lat="43.77073" lon="3.84934">
        <ele>192.1</ele>
        <time>2026-05-21T08:08:42.999Z</time>
      </trkpt>
      <trkpt lat="43.77074" lon="3.84934">
        <ele>192.1</ele>
        <time>2026-05-21T08:08:43.999Z</time>
      </trkpt>
      <trkpt lat="43.77075" lon="3.84934">
        <ele>192.1</ele>
        <time>2026-05-21T08:08:44.999Z</time>
      </trkpt>
      <trkpt lat="43.77077" lon="3.84934">
        <ele>192.2</ele>
        <time>2026-05-21T08:08:45.999Z</time>
      </trkpt>
      <trkpt lat="43.77078" lon="3.84934">
        <ele>192</ele>
        <time>2026-05-21T08:08:46.999Z</time>
      </trkpt>
      <trkpt lat="43.77079" lon="3.84935">
        <ele>192.1</ele>
        <time>2026-05-21T08:08:47.999Z</time>
      </trkpt>
      <trkpt lat="43.7708" lon="3.84936">
        <ele>192.2</ele>
        <time>2026-05-21T08:08:48.999Z</time>
      </trkpt>
      <trkpt lat="43.77081" lon="3.84936">
        <ele>192.2</ele>
        <time>2026-05-21T08:08:49.999Z</time>
      </trkpt>
      <trkpt lat="43.77082" lon="3.84936">
        <ele>192.2</ele>
        <time>2026-05-21T08:08:50.999Z</time>
      </trkpt>
      <trkpt lat="43.77083" lon="3.84936">
        <ele>191.9</ele>
        <time>2026-05-21T08:08:51.999Z</time>
      </trkpt>
      <trkpt lat="43.77084" lon="3.84936">
        <ele>192.2</ele>
        <time>2026-05-21T08:08:52.999Z</time>
      </trkpt>
      <trkpt lat="43.77085" lon="3.84938">
        <ele>192.3</ele>
        <time>2026-05-21T08:08:53.999Z</time>
      </trkpt>
      <trkpt lat="43.77085" lon="3.84938">
        <ele>192.2</ele>
        <time>2026-05-21T08:08:54.999Z</time>
      </trkpt>
      <trkpt lat="43.77086" lon="3.84938">
        <ele>192.3</ele>
        <time>2026-05-21T08:08:55.999Z</time>
      </trkpt>
      <trkpt lat="43.77087" lon="3.84938">
        <ele>192.7</ele>
        <time>2026-05-21T08:08:56.999Z</time>
      </trkpt>
      <trkpt lat="43.77088" lon="3.84938">
        <ele>193</ele>
        <time>2026-05-21T08:08:57.999Z</time>
      </trkpt>
      <trkpt lat="43.77089" lon="3.84939">
        <ele>193.2</ele>
        <time>2026-05-21T08:08:58.999Z</time>
      </trkpt>
      <trkpt lat="43.7709" lon="3.8494">
        <ele>193.4</ele>
        <time>2026-05-21T08:08:59.999Z</time>
      </trkpt>
      <trkpt lat="43.77091" lon="3.8494">
        <ele>193.7</ele>
        <time>2026-05-21T08:09:00.999Z</time>
      </trkpt>
      <trkpt lat="43.77092" lon="3.84941">
        <ele>193.6</ele>
        <time>2026-05-21T08:09:01.999Z</time>
      </trkpt>
      <trkpt lat="43.77093" lon="3.84942">
        <ele>193.3</ele>
        <time>2026-05-21T08:09:02.999Z</time>
      </trkpt>
      <trkpt lat="43.77095" lon="3.84942">
        <ele>193.1</ele>
        <time>2026-05-21T08:09:03.999Z</time>
      </trkpt>
      <trkpt lat="43.77096" lon="3.84942">
        <ele>193.3</ele>
        <time>2026-05-21T08:09:04.999Z</time>
      </trkpt>
      <trkpt lat="43.77097" lon="3.84942">
        <ele>193.4</ele>
        <time>2026-05-21T08:09:05.999Z</time>
      </trkpt>
      <trkpt lat="43.77099" lon="3.84943">
        <ele>193.4</ele>
        <time>2026-05-21T08:09:06.999Z</time>
      </trkpt>
      <trkpt lat="43.77099" lon="3.84943">
        <ele>193.3</ele>
        <time>2026-05-21T08:09:07.999Z</time>
      </trkpt>
      <trkpt lat="43.771" lon="3.84944">
        <ele>193.1</ele>
        <time>2026-05-21T08:09:08.999Z</time>
      </trkpt>
      <trkpt lat="43.77101" lon="3.84944">
        <ele>193</ele>
        <time>2026-05-21T08:09:09.999Z</time>
      </trkpt>
      <trkpt lat="43.77102" lon="3.84945">
        <ele>192.8</ele>
        <time>2026-05-21T08:09:10.999Z</time>
      </trkpt>
      <trkpt lat="43.77103" lon="3.84946">
        <ele>192.8</ele>
        <time>2026-05-21T08:09:11.999Z</time>
      </trkpt>
      <trkpt lat="43.77105" lon="3.84947">
        <ele>192.8</ele>
        <time>2026-05-21T08:09:12.999Z</time>
      </trkpt>
      <trkpt lat="43.77106" lon="3.84947">
        <ele>192.5</ele>
        <time>2026-05-21T08:09:13.999Z</time>
      </trkpt>
      <trkpt lat="43.77107" lon="3.84947">
        <ele>192.2</ele>
        <time>2026-05-21T08:09:14.999Z</time>
      </trkpt>
      <trkpt lat="43.77107" lon="3.84948">
        <ele>192.2</ele>
        <time>2026-05-21T08:09:15.999Z</time>
      </trkpt>
      <trkpt lat="43.77108" lon="3.84949">
        <ele>192.3</ele>
        <time>2026-05-21T08:09:16.999Z</time>
      </trkpt>
      <trkpt lat="43.77109" lon="3.8495">
        <ele>192.2</ele>
        <time>2026-05-21T08:09:17.999Z</time>
      </trkpt>
      <trkpt lat="43.7711" lon="3.84952">
        <ele>191.9</ele>
        <time>2026-05-21T08:09:18.999Z</time>
      </trkpt>
      <trkpt lat="43.7711" lon="3.84953">
        <ele>191.9</ele>
        <time>2026-05-21T08:09:19.999Z</time>
      </trkpt>
      <trkpt lat="43.77111" lon="3.84954">
        <ele>191.5</ele>
        <time>2026-05-21T08:09:20.999Z</time>
      </trkpt>
      <trkpt lat="43.77112" lon="3.84955">
        <ele>191.4</ele>
        <time>2026-05-21T08:09:21.999Z</time>
      </trkpt>
      <trkpt lat="43.77113" lon="3.84955">
        <ele>191.2</ele>
        <time>2026-05-21T08:09:22.999Z</time>
      </trkpt>
      <trkpt lat="43.77114" lon="3.84956">
        <ele>191.2</ele>
        <time>2026-05-21T08:09:23.999Z</time>
      </trkpt>
      <trkpt lat="43.77116" lon="3.84957">
        <ele>191.2</ele>
        <time>2026-05-21T08:09:24.999Z</time>
      </trkpt>
      <trkpt lat="43.77117" lon="3.84958">
        <ele>191</ele>
        <time>2026-05-21T08:09:25.999Z</time>
      </trkpt>
      <trkpt lat="43.77118" lon="3.84959">
        <ele>190.7</ele>
        <time>2026-05-21T08:09:26.999Z</time>
      </trkpt>
      <trkpt lat="43.77118" lon="3.8496">
        <ele>190.8</ele>
        <time>2026-05-21T08:09:27.999Z</time>
      </trkpt>
      <trkpt lat="43.77119" lon="3.8496">
        <ele>190.7</ele>
        <time>2026-05-21T08:09:28.999Z</time>
      </trkpt>
      <trkpt lat="43.7712" lon="3.8496">
        <ele>190.7</ele>
        <time>2026-05-21T08:09:29.999Z</time>
      </trkpt>
      <trkpt lat="43.77121" lon="3.8496">
        <ele>190.7</ele>
        <time>2026-05-21T08:09:30.999Z</time>
      </trkpt>
      <trkpt lat="43.77123" lon="3.8496">
        <ele>190.8</ele>
        <time>2026-05-21T08:09:31.999Z</time>
      </trkpt>
      <trkpt lat="43.77123" lon="3.84962">
        <ele>190.6</ele>
        <time>2026-05-21T08:09:32.999Z</time>
      </trkpt>
      <trkpt lat="43.77124" lon="3.84963">
        <ele>190.5</ele>
        <time>2026-05-21T08:09:33.999Z</time>
      </trkpt>
      <trkpt lat="43.77124" lon="3.84964">
        <ele>190.6</ele>
        <time>2026-05-21T08:09:34.999Z</time>
      </trkpt>
      <trkpt lat="43.77125" lon="3.84965">
        <ele>190.6</ele>
        <time>2026-05-21T08:09:35.999Z</time>
      </trkpt>
      <trkpt lat="43.77126" lon="3.84966">
        <ele>190.5</ele>
        <time>2026-05-21T08:09:36.999Z</time>
      </trkpt>
      <trkpt lat="43.77127" lon="3.84966">
        <ele>190.3</ele>
        <time>2026-05-21T08:09:37.999Z</time>
      </trkpt>
      <trkpt lat="43.77128" lon="3.84966">
        <ele>190.1</ele>
        <time>2026-05-21T08:09:38.999Z</time>
      </trkpt>
      <trkpt lat="43.77129" lon="3.84967">
        <ele>189.9</ele>
        <time>2026-05-21T08:09:39.999Z</time>
      </trkpt>
      <trkpt lat="43.7713" lon="3.84968">
        <ele>189.8</ele>
        <time>2026-05-21T08:09:40.999Z</time>
      </trkpt>
      <trkpt lat="43.77131" lon="3.84969">
        <ele>189.7</ele>
        <time>2026-05-21T08:09:41.999Z</time>
      </trkpt>
      <trkpt lat="43.77132" lon="3.84969">
        <ele>190</ele>
        <time>2026-05-21T08:09:42.999Z</time>
      </trkpt>
      <trkpt lat="43.77133" lon="3.8497">
        <ele>190.2</ele>
        <time>2026-05-21T08:09:43.999Z</time>
      </trkpt>
      <trkpt lat="43.77134" lon="3.84971">
        <ele>190.2</ele>
        <time>2026-05-21T08:09:44.999Z</time>
      </trkpt>
      <trkpt lat="43.77136" lon="3.84971">
        <ele>190.2</ele>
        <time>2026-05-21T08:09:45.999Z</time>
      </trkpt>
      <trkpt lat="43.77137" lon="3.84972">
        <ele>189.6</ele>
        <time>2026-05-21T08:09:46.999Z</time>
      </trkpt>
      <trkpt lat="43.77138" lon="3.84973">
        <ele>189.3</ele>
        <time>2026-05-21T08:09:47.999Z</time>
      </trkpt>
      <trkpt lat="43.77139" lon="3.84974">
        <ele>189.1</ele>
        <time>2026-05-21T08:09:48.999Z</time>
      </trkpt>
      <trkpt lat="43.7714" lon="3.84975">
        <ele>189</ele>
        <time>2026-05-21T08:09:49.999Z</time>
      </trkpt>
      <trkpt lat="43.77141" lon="3.84976">
        <ele>188.8</ele>
        <time>2026-05-21T08:09:50.999Z</time>
      </trkpt>
      <trkpt lat="43.77142" lon="3.84977">
        <ele>188.9</ele>
        <time>2026-05-21T08:09:51.999Z</time>
      </trkpt>
      <trkpt lat="43.77142" lon="3.84977">
        <ele>188.7</ele>
        <time>2026-05-21T08:09:52.999Z</time>
      </trkpt>
      <trkpt lat="43.77143" lon="3.84978">
        <ele>188.6</ele>
        <time>2026-05-21T08:09:53.999Z</time>
      </trkpt>
      <trkpt lat="43.77144" lon="3.84977">
        <ele>188.1</ele>
        <time>2026-05-21T08:09:54.999Z</time>
      </trkpt>
      <trkpt lat="43.77145" lon="3.84977">
        <ele>188.1</ele>
        <time>2026-05-21T08:09:55.999Z</time>
      </trkpt>
      <trkpt lat="43.77147" lon="3.84977">
        <ele>187.9</ele>
        <time>2026-05-21T08:09:56.999Z</time>
      </trkpt>
      <trkpt lat="43.77147" lon="3.84978">
        <ele>188.3</ele>
        <time>2026-05-21T08:09:57.999Z</time>
      </trkpt>
      <trkpt lat="43.77148" lon="3.84978">
        <ele>188.6</ele>
        <time>2026-05-21T08:09:58.999Z</time>
      </trkpt>
      <trkpt lat="43.77149" lon="3.84979">
        <ele>188.8</ele>
        <time>2026-05-21T08:09:59.999Z</time>
      </trkpt>
      <trkpt lat="43.77151" lon="3.8498">
        <ele>189</ele>
        <time>2026-05-21T08:10:00.999Z</time>
      </trkpt>
      <trkpt lat="43.77152" lon="3.84981">
        <ele>189</ele>
        <time>2026-05-21T08:10:01.999Z</time>
      </trkpt>
      <trkpt lat="43.77153" lon="3.84981">
        <ele>189.1</ele>
        <time>2026-05-21T08:10:02.999Z</time>
      </trkpt>
      <trkpt lat="43.77153" lon="3.84982">
        <ele>189.7</ele>
        <time>2026-05-21T08:10:03.999Z</time>
      </trkpt>
      <trkpt lat="43.77154" lon="3.84982">
        <ele>189.8</ele>
        <time>2026-05-21T08:10:04.999Z</time>
      </trkpt>
      <trkpt lat="43.77155" lon="3.84982">
        <ele>189.9</ele>
        <time>2026-05-21T08:10:05.999Z</time>
      </trkpt>
      <trkpt lat="43.77156" lon="3.84981">
        <ele>190</ele>
        <time>2026-05-21T08:10:06.999Z</time>
      </trkpt>
      <trkpt lat="43.77156" lon="3.8498">
        <ele>189.9</ele>
        <time>2026-05-21T08:10:07.999Z</time>
      </trkpt>
      <trkpt lat="43.77156" lon="3.84979">
        <ele>189.6</ele>
        <time>2026-05-21T08:10:08.999Z</time>
      </trkpt>
      <trkpt lat="43.77156" lon="3.84978">
        <ele>189.5</ele>
        <time>2026-05-21T08:10:09.999Z</time>
      </trkpt>
      <trkpt lat="43.77157" lon="3.84977">
        <ele>189.6</ele>
        <time>2026-05-21T08:10:10.999Z</time>
      </trkpt>
      <trkpt lat="43.77157" lon="3.84976">
        <ele>189.7</ele>
        <time>2026-05-21T08:10:11.999Z</time>
      </trkpt>
      <trkpt lat="43.77157" lon="3.84975">
        <ele>190.2</ele>
        <time>2026-05-21T08:10:12.999Z</time>
      </trkpt>
      <trkpt lat="43.77158" lon="3.84975">
        <ele>190.5</ele>
        <time>2026-05-21T08:10:13.999Z</time>
      </trkpt>
      <trkpt lat="43.77158" lon="3.84974">
        <ele>190.4</ele>
        <time>2026-05-21T08:10:14.999Z</time>
      </trkpt>
      <trkpt lat="43.77159" lon="3.84973">
        <ele>190.3</ele>
        <time>2026-05-21T08:10:15.999Z</time>
      </trkpt>
      <trkpt lat="43.77159" lon="3.84972">
        <ele>190.7</ele>
        <time>2026-05-21T08:10:16.999Z</time>
      </trkpt>
      <trkpt lat="43.7716" lon="3.84971">
        <ele>191.3</ele>
        <time>2026-05-21T08:10:17.999Z</time>
      </trkpt>
      <trkpt lat="43.77161" lon="3.8497">
        <ele>191.3</ele>
        <time>2026-05-21T08:10:18.999Z</time>
      </trkpt>
      <trkpt lat="43.77161" lon="3.84969">
        <ele>191.7</ele>
        <time>2026-05-21T08:10:19.999Z</time>
      </trkpt>
      <trkpt lat="43.77162" lon="3.84969">
        <ele>191.7</ele>
        <time>2026-05-21T08:10:20.999Z</time>
      </trkpt>
      <trkpt lat="43.77162" lon="3.84967">
        <ele>191.4</ele>
        <time>2026-05-21T08:10:21.999Z</time>
      </trkpt>
      <trkpt lat="43.77163" lon="3.84966">
        <ele>191.3</ele>
        <time>2026-05-21T08:10:22.999Z</time>
      </trkpt>
      <trkpt lat="43.77164" lon="3.84965">
        <ele>191.7</ele>
        <time>2026-05-21T08:10:23.999Z</time>
      </trkpt>
      <trkpt lat="43.77164" lon="3.84964">
        <ele>191.6</ele>
        <time>2026-05-21T08:10:24.999Z</time>
      </trkpt>
      <trkpt lat="43.77164" lon="3.84962">
        <ele>191.6</ele>
        <time>2026-05-21T08:10:25.999Z</time>
      </trkpt>
      <trkpt lat="43.77164" lon="3.8496">
        <ele>191.6</ele>
        <time>2026-05-21T08:10:26.999Z</time>
      </trkpt>
      <trkpt lat="43.77163" lon="3.84959">
        <ele>191.9</ele>
        <time>2026-05-21T08:10:27.999Z</time>
      </trkpt>
      <trkpt lat="43.77163" lon="3.84958">
        <ele>192.2</ele>
        <time>2026-05-21T08:10:28.999Z</time>
      </trkpt>
      <trkpt lat="43.77163" lon="3.84956">
        <ele>192.6</ele>
        <time>2026-05-21T08:10:29.999Z</time>
      </trkpt>
      <trkpt lat="43.77163" lon="3.84955">
        <ele>193</ele>
        <time>2026-05-21T08:10:30.999Z</time>
      </trkpt>
      <trkpt lat="43.77163" lon="3.84954">
        <ele>193</ele>
        <time>2026-05-21T08:10:31.999Z</time>
      </trkpt>
      <trkpt lat="43.77163" lon="3.84952">
        <ele>193.2</ele>
        <time>2026-05-21T08:10:32.999Z</time>
      </trkpt>
      <trkpt lat="43.77162" lon="3.84951">
        <ele>193.1</ele>
        <time>2026-05-21T08:10:33.999Z</time>
      </trkpt>
      <trkpt lat="43.77161" lon="3.8495">
        <ele>193.6</ele>
        <time>2026-05-21T08:10:34.999Z</time>
      </trkpt>
      <trkpt lat="43.77161" lon="3.84949">
        <ele>194.1</ele>
        <time>2026-05-21T08:10:35.999Z</time>
      </trkpt>
      <trkpt lat="43.7716" lon="3.84948">
        <ele>194.2</ele>
        <time>2026-05-21T08:10:36.999Z</time>
      </trkpt>
      <trkpt lat="43.7716" lon="3.84946">
        <ele>194.1</ele>
        <time>2026-05-21T08:10:37.999Z</time>
      </trkpt>
      <trkpt lat="43.7716" lon="3.84946">
        <ele>194.1</ele>
        <time>2026-05-21T08:10:38.999Z</time>
      </trkpt>
      <trkpt lat="43.7716" lon="3.84945">
        <ele>194.3</ele>
        <time>2026-05-21T08:10:39.999Z</time>
      </trkpt>
      <trkpt lat="43.7716" lon="3.84944">
        <ele>194.2</ele>
        <time>2026-05-21T08:10:40.999Z</time>
      </trkpt>
      <trkpt lat="43.77159" lon="3.84943">
        <ele>194.4</ele>
        <time>2026-05-21T08:10:41.999Z</time>
      </trkpt>
      <trkpt lat="43.77159" lon="3.84941">
        <ele>194.3</ele>
        <time>2026-05-21T08:10:42.999Z</time>
      </trkpt>
      <trkpt lat="43.77159" lon="3.8494">
        <ele>194.2</ele>
        <time>2026-05-21T08:10:43.999Z</time>
      </trkpt>
      <trkpt lat="43.77159" lon="3.84939">
        <ele>194.3</ele>
        <time>2026-05-21T08:10:44.999Z</time>
      </trkpt>
      <trkpt lat="43.77159" lon="3.84937">
        <ele>194.3</ele>
        <time>2026-05-21T08:10:45.999Z</time>
      </trkpt>
      <trkpt lat="43.77159" lon="3.84936">
        <ele>194.4</ele>
        <time>2026-05-21T08:10:46.999Z</time>
      </trkpt>
      <trkpt lat="43.77159" lon="3.84934">
        <ele>194.4</ele>
        <time>2026-05-21T08:10:47.999Z</time>
      </trkpt>
      <trkpt lat="43.77159" lon="3.84933">
        <ele>194.5</ele>
        <time>2026-05-21T08:10:48.999Z</time>
      </trkpt>
      <trkpt lat="43.77159" lon="3.84931">
        <ele>194.7</ele>
        <time>2026-05-21T08:10:49.999Z</time>
      </trkpt>
      <trkpt lat="43.77159" lon="3.8493">
        <ele>195</ele>
        <time>2026-05-21T08:10:50.999Z</time>
      </trkpt>
      <trkpt lat="43.77159" lon="3.84929">
        <ele>195.2</ele>
        <time>2026-05-21T08:10:51.999Z</time>
      </trkpt>
      <trkpt lat="43.77159" lon="3.84927">
        <ele>195.1</ele>
        <time>2026-05-21T08:10:52.999Z</time>
      </trkpt>
      <trkpt lat="43.77158" lon="3.84926">
        <ele>195.3</ele>
        <time>2026-05-21T08:10:53.999Z</time>
      </trkpt>
      <trkpt lat="43.77157" lon="3.84925">
        <ele>195.6</ele>
        <time>2026-05-21T08:10:54.999Z</time>
      </trkpt>
      <trkpt lat="43.77157" lon="3.84925">
        <ele>195.8</ele>
        <time>2026-05-21T08:10:55.999Z</time>
      </trkpt>
      <trkpt lat="43.77156" lon="3.84923">
        <ele>195.4</ele>
        <time>2026-05-21T08:10:56.999Z</time>
      </trkpt>
      <trkpt lat="43.77157" lon="3.84922">
        <ele>195</ele>
        <time>2026-05-21T08:10:57.999Z</time>
      </trkpt>
      <trkpt lat="43.77157" lon="3.8492">
        <ele>194.7</ele>
        <time>2026-05-21T08:10:58.999Z</time>
      </trkpt>
      <trkpt lat="43.77157" lon="3.84919">
        <ele>194.5</ele>
        <time>2026-05-21T08:10:59.999Z</time>
      </trkpt>
      <trkpt lat="43.77157" lon="3.84918">
        <ele>194.1</ele>
        <time>2026-05-21T08:11:00.999Z</time>
      </trkpt>
      <trkpt lat="43.77156" lon="3.84917">
        <ele>193.8</ele>
        <time>2026-05-21T08:11:01.999Z</time>
      </trkpt>
      <trkpt lat="43.77156" lon="3.84915">
        <ele>193.8</ele>
        <time>2026-05-21T08:11:02.999Z</time>
      </trkpt>
      <trkpt lat="43.77156" lon="3.84913">
        <ele>193.9</ele>
        <time>2026-05-21T08:11:03.999Z</time>
      </trkpt>
      <trkpt lat="43.77156" lon="3.84912">
        <ele>194</ele>
        <time>2026-05-21T08:11:04.999Z</time>
      </trkpt>
      <trkpt lat="43.77156" lon="3.8491">
        <ele>194</ele>
        <time>2026-05-21T08:11:05.999Z</time>
      </trkpt>
      <trkpt lat="43.77156" lon="3.84909">
        <ele>193.6</ele>
        <time>2026-05-21T08:11:06.999Z</time>
      </trkpt>
      <trkpt lat="43.77156" lon="3.84908">
        <ele>193.1</ele>
        <time>2026-05-21T08:11:07.999Z</time>
      </trkpt>
      <trkpt lat="43.77157" lon="3.84906">
        <ele>192.8</ele>
        <time>2026-05-21T08:11:08.999Z</time>
      </trkpt>
      <trkpt lat="43.77157" lon="3.84905">
        <ele>192.7</ele>
        <time>2026-05-21T08:11:09.999Z</time>
      </trkpt>
      <trkpt lat="43.77157" lon="3.84903">
        <ele>192.8</ele>
        <time>2026-05-21T08:11:10.999Z</time>
      </trkpt>
      <trkpt lat="43.77157" lon="3.84902">
        <ele>192.7</ele>
        <time>2026-05-21T08:11:11.999Z</time>
      </trkpt>
      <trkpt lat="43.77156" lon="3.84901">
        <ele>192.7</ele>
        <time>2026-05-21T08:11:12.999Z</time>
      </trkpt>
      <trkpt lat="43.77156" lon="3.84899">
        <ele>192.7</ele>
        <time>2026-05-21T08:11:13.999Z</time>
      </trkpt>
      <trkpt lat="43.77157" lon="3.84898">
        <ele>192.7</ele>
        <time>2026-05-21T08:11:14.999Z</time>
      </trkpt>
      <trkpt lat="43.77157" lon="3.84897">
        <ele>192.5</ele>
        <time>2026-05-21T08:11:15.999Z</time>
      </trkpt>
      <trkpt lat="43.77158" lon="3.84896">
        <ele>192.5</ele>
        <time>2026-05-21T08:11:16.999Z</time>
      </trkpt>
      <trkpt lat="43.77158" lon="3.84895">
        <ele>192.3</ele>
        <time>2026-05-21T08:11:17.999Z</time>
      </trkpt>
      <trkpt lat="43.77159" lon="3.84895">
        <ele>192.2</ele>
        <time>2026-05-21T08:11:18.999Z</time>
      </trkpt>
      <trkpt lat="43.77159" lon="3.84894">
        <ele>192.2</ele>
        <time>2026-05-21T08:11:19.999Z</time>
      </trkpt>
      <trkpt lat="43.7716" lon="3.84894">
        <ele>192.5</ele>
        <time>2026-05-21T08:11:20.999Z</time>
      </trkpt>
      <trkpt lat="43.7716" lon="3.84893">
        <ele>192.7</ele>
        <time>2026-05-21T08:11:21.999Z</time>
      </trkpt>
      <trkpt lat="43.77161" lon="3.84893">
        <ele>192.5</ele>
        <time>2026-05-21T08:11:22.999Z</time>
      </trkpt>
      <trkpt lat="43.77162" lon="3.84893">
        <ele>192.7</ele>
        <time>2026-05-21T08:11:23.999Z</time>
      </trkpt>
      <trkpt lat="43.77162" lon="3.84892">
        <ele>192.8</ele>
        <time>2026-05-21T08:11:24.999Z</time>
      </trkpt>
      <trkpt lat="43.77163" lon="3.84892">
        <ele>193.1</ele>
        <time>2026-05-21T08:11:25.999Z</time>
      </trkpt>
      <trkpt lat="43.77164" lon="3.84891">
        <ele>193.4</ele>
        <time>2026-05-21T08:11:26.999Z</time>
      </trkpt>
      <trkpt lat="43.77166" lon="3.8489">
        <ele>193.3</ele>
        <time>2026-05-21T08:11:27.999Z</time>
      </trkpt>
      <trkpt lat="43.77167" lon="3.84889">
        <ele>193.2</ele>
        <time>2026-05-21T08:11:28.999Z</time>
      </trkpt>
      <trkpt lat="43.77168" lon="3.84888">
        <ele>192.9</ele>
        <time>2026-05-21T08:11:29.999Z</time>
      </trkpt>
      <trkpt lat="43.77169" lon="3.84887">
        <ele>193.1</ele>
        <time>2026-05-21T08:11:30.999Z</time>
      </trkpt>
      <trkpt lat="43.7717" lon="3.84886">
        <ele>193.3</ele>
        <time>2026-05-21T08:11:31.999Z</time>
      </trkpt>
      <trkpt lat="43.7717" lon="3.84885">
        <ele>193.4</ele>
        <time>2026-05-21T08:11:32.999Z</time>
      </trkpt>
      <trkpt lat="43.77171" lon="3.84885">
        <ele>193.3</ele>
        <time>2026-05-21T08:11:33.999Z</time>
      </trkpt>
      <trkpt lat="43.77172" lon="3.84883">
        <ele>193.3</ele>
        <time>2026-05-21T08:11:34.999Z</time>
      </trkpt>
      <trkpt lat="43.77172" lon="3.84883">
        <ele>193.3</ele>
        <time>2026-05-21T08:11:35.999Z</time>
      </trkpt>
      <trkpt lat="43.77173" lon="3.84881">
        <ele>193.2</ele>
        <time>2026-05-21T08:11:36.999Z</time>
      </trkpt>
      <trkpt lat="43.77175" lon="3.8488">
        <ele>193.5</ele>
        <time>2026-05-21T08:11:37.999Z</time>
      </trkpt>
      <trkpt lat="43.77175" lon="3.84879">
        <ele>193.6</ele>
        <time>2026-05-21T08:11:38.999Z</time>
      </trkpt>
      <trkpt lat="43.77176" lon="3.84878">
        <ele>193.7</ele>
        <time>2026-05-21T08:11:39.999Z</time>
      </trkpt>
      <trkpt lat="43.77178" lon="3.84877">
        <ele>194</ele>
        <time>2026-05-21T08:11:40.999Z</time>
      </trkpt>
      <trkpt lat="43.77179" lon="3.84876">
        <ele>194</ele>
        <time>2026-05-21T08:11:41.999Z</time>
      </trkpt>
      <trkpt lat="43.7718" lon="3.84875">
        <ele>193.9</ele>
        <time>2026-05-21T08:11:42.999Z</time>
      </trkpt>
      <trkpt lat="43.7718" lon="3.84874">
        <ele>194.1</ele>
        <time>2026-05-21T08:11:43.999Z</time>
      </trkpt>
      <trkpt lat="43.77181" lon="3.84873">
        <ele>194.3</ele>
        <time>2026-05-21T08:11:44.999Z</time>
      </trkpt>
      <trkpt lat="43.77181" lon="3.84873">
        <ele>194.6</ele>
        <time>2026-05-21T08:11:45.999Z</time>
      </trkpt>
      <trkpt lat="43.77181" lon="3.84872">
        <ele>194.4</ele>
        <time>2026-05-21T08:11:46.999Z</time>
      </trkpt>
      <trkpt lat="43.77182" lon="3.84871">
        <ele>194.3</ele>
        <time>2026-05-21T08:11:47.999Z</time>
      </trkpt>
      <trkpt lat="43.77182" lon="3.8487">
        <ele>194.9</ele>
        <time>2026-05-21T08:11:48.999Z</time>
      </trkpt>
      <trkpt lat="43.77182" lon="3.84869">
        <ele>195.1</ele>
        <time>2026-05-21T08:11:49.999Z</time>
      </trkpt>
      <trkpt lat="43.77181" lon="3.84868">
        <ele>194.8</ele>
        <time>2026-05-21T08:11:50.999Z</time>
      </trkpt>
      <trkpt lat="43.77181" lon="3.84866">
        <ele>194.8</ele>
        <time>2026-05-21T08:11:51.999Z</time>
      </trkpt>
      <trkpt lat="43.77181" lon="3.84864">
        <ele>194.7</ele>
        <time>2026-05-21T08:11:52.999Z</time>
      </trkpt>
      <trkpt lat="43.77182" lon="3.84863">
        <ele>194.6</ele>
        <time>2026-05-21T08:11:53.999Z</time>
      </trkpt>
      <trkpt lat="43.77182" lon="3.84861">
        <ele>194.9</ele>
        <time>2026-05-21T08:11:54.999Z</time>
      </trkpt>
      <trkpt lat="43.77182" lon="3.84861">
        <ele>195.2</ele>
        <time>2026-05-21T08:11:55.999Z</time>
      </trkpt>
      <trkpt lat="43.77182" lon="3.84859">
        <ele>195.4</ele>
        <time>2026-05-21T08:11:56.999Z</time>
      </trkpt>
      <trkpt lat="43.77183" lon="3.84858">
        <ele>196</ele>
        <time>2026-05-21T08:11:57.999Z</time>
      </trkpt>
      <trkpt lat="43.77183" lon="3.84857">
        <ele>196.4</ele>
        <time>2026-05-21T08:11:58.999Z</time>
      </trkpt>
      <trkpt lat="43.77184" lon="3.84856">
        <ele>196.8</ele>
        <time>2026-05-21T08:11:59.999Z</time>
      </trkpt>
      <trkpt lat="43.77184" lon="3.84855">
        <ele>197</ele>
        <time>2026-05-21T08:12:00.999Z</time>
      </trkpt>
      <trkpt lat="43.77183" lon="3.84854">
        <ele>197.3</ele>
        <time>2026-05-21T08:12:01.999Z</time>
      </trkpt>
      <trkpt lat="43.77183" lon="3.84852">
        <ele>197.6</ele>
        <time>2026-05-21T08:12:02.999Z</time>
      </trkpt>
      <trkpt lat="43.77183" lon="3.84851">
        <ele>197.8</ele>
        <time>2026-05-21T08:12:03.999Z</time>
      </trkpt>
      <trkpt lat="43.77183" lon="3.84851">
        <ele>197.9</ele>
        <time>2026-05-21T08:12:04.999Z</time>
      </trkpt>
      <trkpt lat="43.77183" lon="3.84851">
        <ele>198.2</ele>
        <time>2026-05-21T08:12:05.999Z</time>
      </trkpt>
      <trkpt lat="43.77183" lon="3.84851">
        <ele>198.5</ele>
        <time>2026-05-21T08:12:06.999Z</time>
      </trkpt>
      <trkpt lat="43.77184" lon="3.8485">
        <ele>198.8</ele>
        <time>2026-05-21T08:12:07.999Z</time>
      </trkpt>
      <trkpt lat="43.77184" lon="3.84849">
        <ele>198.8</ele>
        <time>2026-05-21T08:12:08.999Z</time>
      </trkpt>
      <trkpt lat="43.77184" lon="3.84848">
        <ele>198.6</ele>
        <time>2026-05-21T08:12:09.999Z</time>
      </trkpt>
      <trkpt lat="43.77184" lon="3.84847">
        <ele>198.5</ele>
        <time>2026-05-21T08:12:10.999Z</time>
      </trkpt>
      <trkpt lat="43.77183" lon="3.84847">
        <ele>198.7</ele>
        <time>2026-05-21T08:12:11.999Z</time>
      </trkpt>
      <trkpt lat="43.77184" lon="3.84846">
        <ele>198.6</ele>
        <time>2026-05-21T08:12:12.999Z</time>
      </trkpt>
      <trkpt lat="43.77184" lon="3.84845">
        <ele>198.5</ele>
        <time>2026-05-21T08:12:13.999Z</time>
      </trkpt>
      <trkpt lat="43.77185" lon="3.84844">
        <ele>198.5</ele>
        <time>2026-05-21T08:12:14.999Z</time>
      </trkpt>
      <trkpt lat="43.77185" lon="3.84841">
        <ele>198.6</ele>
        <time>2026-05-21T08:12:15.999Z</time>
      </trkpt>
      <trkpt lat="43.77185" lon="3.84839">
        <ele>198.6</ele>
        <time>2026-05-21T08:12:16.999Z</time>
      </trkpt>
      <trkpt lat="43.77185" lon="3.84837">
        <ele>199.1</ele>
        <time>2026-05-21T08:12:17.999Z</time>
      </trkpt>
      <trkpt lat="43.77185" lon="3.84836">
        <ele>199.4</ele>
        <time>2026-05-21T08:12:18.999Z</time>
      </trkpt>
      <trkpt lat="43.77185" lon="3.84835">
        <ele>199.9</ele>
        <time>2026-05-21T08:12:19.999Z</time>
      </trkpt>
      <trkpt lat="43.77185" lon="3.84833">
        <ele>199.9</ele>
        <time>2026-05-21T08:12:20.999Z</time>
      </trkpt>
      <trkpt lat="43.77186" lon="3.84832">
        <ele>199.8</ele>
        <time>2026-05-21T08:12:21.999Z</time>
      </trkpt>
      <trkpt lat="43.77186" lon="3.84831">
        <ele>199.7</ele>
        <time>2026-05-21T08:12:22.999Z</time>
      </trkpt>
      <trkpt lat="43.77186" lon="3.8483">
        <ele>199.5</ele>
        <time>2026-05-21T08:12:23.999Z</time>
      </trkpt>
      <trkpt lat="43.77186" lon="3.84828">
        <ele>199.3</ele>
        <time>2026-05-21T08:12:24.999Z</time>
      </trkpt>
      <trkpt lat="43.77187" lon="3.84827">
        <ele>199.1</ele>
        <time>2026-05-21T08:12:25.999Z</time>
      </trkpt>
      <trkpt lat="43.77188" lon="3.84826">
        <ele>199</ele>
        <time>2026-05-21T08:12:26.999Z</time>
      </trkpt>
      <trkpt lat="43.77189" lon="3.84826">
        <ele>198.8</ele>
        <time>2026-05-21T08:12:27.999Z</time>
      </trkpt>
      <trkpt lat="43.77189" lon="3.84825">
        <ele>198.5</ele>
        <time>2026-05-21T08:12:28.999Z</time>
      </trkpt>
      <trkpt lat="43.77189" lon="3.84824">
        <ele>198.2</ele>
        <time>2026-05-21T08:12:29.999Z</time>
      </trkpt>
      <trkpt lat="43.7719" lon="3.84823">
        <ele>198.5</ele>
        <time>2026-05-21T08:12:30.999Z</time>
      </trkpt>
      <trkpt lat="43.7719" lon="3.84822">
        <ele>198.8</ele>
        <time>2026-05-21T08:12:31.999Z</time>
      </trkpt>
      <trkpt lat="43.77189" lon="3.84821">
        <ele>198.9</ele>
        <time>2026-05-21T08:12:32.999Z</time>
      </trkpt>
      <trkpt lat="43.77188" lon="3.84819">
        <ele>199</ele>
        <time>2026-05-21T08:12:33.999Z</time>
      </trkpt>
      <trkpt lat="43.77188" lon="3.84818">
        <ele>199.6</ele>
        <time>2026-05-21T08:12:34.999Z</time>
      </trkpt>
      <trkpt lat="43.77188" lon="3.84817">
        <ele>200</ele>
        <time>2026-05-21T08:12:35.999Z</time>
      </trkpt>
      <trkpt lat="43.77188" lon="3.84814">
        <ele>200.4</ele>
        <time>2026-05-21T08:12:36.999Z</time>
      </trkpt>
      <trkpt lat="43.77188" lon="3.84813">
        <ele>200.5</ele>
        <time>2026-05-21T08:12:37.999Z</time>
      </trkpt>
      <trkpt lat="43.77189" lon="3.84812">
        <ele>200.2</ele>
        <time>2026-05-21T08:12:38.999Z</time>
      </trkpt>
      <trkpt lat="43.77189" lon="3.8481">
        <ele>199.9</ele>
        <time>2026-05-21T08:12:39.999Z</time>
      </trkpt>
      <trkpt lat="43.7719" lon="3.84808">
        <ele>199.6</ele>
        <time>2026-05-21T08:12:40.999Z</time>
      </trkpt>
      <trkpt lat="43.7719" lon="3.84806">
        <ele>199.7</ele>
        <time>2026-05-21T08:12:41.999Z</time>
      </trkpt>
      <trkpt lat="43.7719" lon="3.84805">
        <ele>199.7</ele>
        <time>2026-05-21T08:12:42.999Z</time>
      </trkpt>
      <trkpt lat="43.7719" lon="3.84804">
        <ele>199.5</ele>
        <time>2026-05-21T08:12:43.999Z</time>
      </trkpt>
      <trkpt lat="43.7719" lon="3.84803">
        <ele>199.5</ele>
        <time>2026-05-21T08:12:44.999Z</time>
      </trkpt>
      <trkpt lat="43.77189" lon="3.84802">
        <ele>199.2</ele>
        <time>2026-05-21T08:12:45.999Z</time>
      </trkpt>
      <trkpt lat="43.77189" lon="3.84801">
        <ele>198.9</ele>
        <time>2026-05-21T08:12:46.999Z</time>
      </trkpt>
      <trkpt lat="43.7719" lon="3.84799">
        <ele>198.1</ele>
        <time>2026-05-21T08:12:47.999Z</time>
      </trkpt>
      <trkpt lat="43.77191" lon="3.84797">
        <ele>197.4</ele>
        <time>2026-05-21T08:12:48.999Z</time>
      </trkpt>
      <trkpt lat="43.77192" lon="3.84796">
        <ele>196.7</ele>
        <time>2026-05-21T08:12:49.999Z</time>
      </trkpt>
      <trkpt lat="43.77193" lon="3.84796">
        <ele>196.6</ele>
        <time>2026-05-21T08:12:50.999Z</time>
      </trkpt>
      <trkpt lat="43.77194" lon="3.84795">
        <ele>196.1</ele>
        <time>2026-05-21T08:12:51.999Z</time>
      </trkpt>
      <trkpt lat="43.77195" lon="3.84794">
        <ele>196.2</ele>
        <time>2026-05-21T08:12:52.999Z</time>
      </trkpt>
      <trkpt lat="43.77195" lon="3.84792">
        <ele>196.4</ele>
        <time>2026-05-21T08:12:53.999Z</time>
      </trkpt>
      <trkpt lat="43.77195" lon="3.84791">
        <ele>196.5</ele>
        <time>2026-05-21T08:12:54.999Z</time>
      </trkpt>
      <trkpt lat="43.77195" lon="3.84789">
        <ele>196.6</ele>
        <time>2026-05-21T08:12:55.999Z</time>
      </trkpt>
      <trkpt lat="43.77195" lon="3.84787">
        <ele>196.8</ele>
        <time>2026-05-21T08:12:56.999Z</time>
      </trkpt>
      <trkpt lat="43.77195" lon="3.84786">
        <ele>196.7</ele>
        <time>2026-05-21T08:12:57.999Z</time>
      </trkpt>
      <trkpt lat="43.77195" lon="3.84785">
        <ele>196.9</ele>
        <time>2026-05-21T08:12:58.999Z</time>
      </trkpt>
      <trkpt lat="43.77195" lon="3.84783">
        <ele>197</ele>
        <time>2026-05-21T08:12:59.999Z</time>
      </trkpt>
      <trkpt lat="43.77195" lon="3.84783">
        <ele>197.6</ele>
        <time>2026-05-21T08:13:00.999Z</time>
      </trkpt>
      <trkpt lat="43.77196" lon="3.84782">
        <ele>197.3</ele>
        <time>2026-05-21T08:13:01.999Z</time>
      </trkpt>
      <trkpt lat="43.77196" lon="3.8478">
        <ele>197.6</ele>
        <time>2026-05-21T08:13:02.999Z</time>
      </trkpt>
      <trkpt lat="43.77195" lon="3.84778">
        <ele>197.5</ele>
        <time>2026-05-21T08:13:03.999Z</time>
      </trkpt>
      <trkpt lat="43.77195" lon="3.84777">
        <ele>197.4</ele>
        <time>2026-05-21T08:13:04.999Z</time>
      </trkpt>
      <trkpt lat="43.77195" lon="3.84776">
        <ele>197.7</ele>
        <time>2026-05-21T08:13:05.999Z</time>
      </trkpt>
      <trkpt lat="43.77195" lon="3.84774">
        <ele>198</ele>
        <time>2026-05-21T08:13:06.999Z</time>
      </trkpt>
      <trkpt lat="43.77195" lon="3.84773">
        <ele>197.8</ele>
        <time>2026-05-21T08:13:07.999Z</time>
      </trkpt>
      <trkpt lat="43.77196" lon="3.84771">
        <ele>197.8</ele>
        <time>2026-05-21T08:13:09.000Z</time>
      </trkpt>
      <trkpt lat="43.77196" lon="3.8477">
        <ele>198.2</ele>
        <time>2026-05-21T08:13:10.000Z</time>
      </trkpt>
      <trkpt lat="43.77196" lon="3.84769">
        <ele>198.4</ele>
        <time>2026-05-21T08:13:11.000Z</time>
      </trkpt>
      <trkpt lat="43.77195" lon="3.84768">
        <ele>198.1</ele>
        <time>2026-05-21T08:13:12.000Z</time>
      </trkpt>
      <trkpt lat="43.77194" lon="3.84766">
        <ele>197.9</ele>
        <time>2026-05-21T08:13:13.000Z</time>
      </trkpt>
      <trkpt lat="43.77194" lon="3.84765">
        <ele>197.7</ele>
        <time>2026-05-21T08:13:14.000Z</time>
      </trkpt>
      <trkpt lat="43.77194" lon="3.84765">
        <ele>197.2</ele>
        <time>2026-05-21T08:13:15.000Z</time>
      </trkpt>
      <trkpt lat="43.77194" lon="3.84765">
        <ele>197.3</ele>
        <time>2026-05-21T08:13:16.000Z</time>
      </trkpt>
      <trkpt lat="43.77193" lon="3.84764">
        <ele>197.2</ele>
        <time>2026-05-21T08:13:17.000Z</time>
      </trkpt>
      <trkpt lat="43.77193" lon="3.84763">
        <ele>197.2</ele>
        <time>2026-05-21T08:13:18.000Z</time>
      </trkpt>
      <trkpt lat="43.77193" lon="3.84764">
        <ele>198.1</ele>
        <time>2026-05-21T08:13:19.000Z</time>
      </trkpt>
      <trkpt lat="43.77193" lon="3.84763">
        <ele>198.9</ele>
        <time>2026-05-21T08:13:20.000Z</time>
      </trkpt>
      <trkpt lat="43.77192" lon="3.84763">
        <ele>199.4</ele>
        <time>2026-05-21T08:13:21.000Z</time>
      </trkpt>
      <trkpt lat="43.77192" lon="3.84762">
        <ele>199.4</ele>
        <time>2026-05-21T08:13:22.000Z</time>
      </trkpt>
      <trkpt lat="43.77192" lon="3.8476">
        <ele>199.4</ele>
        <time>2026-05-21T08:13:23.000Z</time>
      </trkpt>
      <trkpt lat="43.77191" lon="3.84759">
        <ele>199.3</ele>
        <time>2026-05-21T08:13:24.000Z</time>
      </trkpt>
      <trkpt lat="43.77191" lon="3.84758">
        <ele>199.5</ele>
        <time>2026-05-21T08:13:25.000Z</time>
      </trkpt>
      <trkpt lat="43.77191" lon="3.84757">
        <ele>199.9</ele>
        <time>2026-05-21T08:13:26.000Z</time>
      </trkpt>
      <trkpt lat="43.77191" lon="3.84755">
        <ele>200.2</ele>
        <time>2026-05-21T08:13:27.000Z</time>
      </trkpt>
      <trkpt lat="43.77191" lon="3.84754">
        <ele>200.4</ele>
        <time>2026-05-21T08:13:28.000Z</time>
      </trkpt>
      <trkpt lat="43.77191" lon="3.84752">
        <ele>200.3</ele>
        <time>2026-05-21T08:13:29.000Z</time>
      </trkpt>
      <trkpt lat="43.77191" lon="3.8475">
        <ele>200.6</ele>
        <time>2026-05-21T08:13:30.000Z</time>
      </trkpt>
      <trkpt lat="43.77191" lon="3.84749">
        <ele>200.5</ele>
        <time>2026-05-21T08:13:31.000Z</time>
      </trkpt>
      <trkpt lat="43.77191" lon="3.84748">
        <ele>200.4</ele>
        <time>2026-05-21T08:13:32.000Z</time>
      </trkpt>
      <trkpt lat="43.77191" lon="3.84747">
        <ele>200.2</ele>
        <time>2026-05-21T08:13:33.000Z</time>
      </trkpt>
      <trkpt lat="43.77191" lon="3.84745">
        <ele>200.2</ele>
        <time>2026-05-21T08:13:34.000Z</time>
      </trkpt>
      <trkpt lat="43.77192" lon="3.84744">
        <ele>200.2</ele>
        <time>2026-05-21T08:13:35.000Z</time>
      </trkpt>
      <trkpt lat="43.77192" lon="3.84742">
        <ele>200.3</ele>
        <time>2026-05-21T08:13:36.000Z</time>
      </trkpt>
      <trkpt lat="43.77193" lon="3.84743">
        <ele>200.4</ele>
        <time>2026-05-21T08:13:37.000Z</time>
      </trkpt>
      <trkpt lat="43.77193" lon="3.84742">
        <ele>200</ele>
        <time>2026-05-21T08:13:38.000Z</time>
      </trkpt>
      <trkpt lat="43.77194" lon="3.84742">
        <ele>200.3</ele>
        <time>2026-05-21T08:13:39.000Z</time>
      </trkpt>
      <trkpt lat="43.77194" lon="3.84742">
        <ele>200.2</ele>
        <time>2026-05-21T08:13:40.000Z</time>
      </trkpt>
      <trkpt lat="43.77194" lon="3.84741">
        <ele>200.1</ele>
        <time>2026-05-21T08:13:41.000Z</time>
      </trkpt>
      <trkpt lat="43.77195" lon="3.84741">
        <ele>199.7</ele>
        <time>2026-05-21T08:13:42.000Z</time>
      </trkpt>
      <trkpt lat="43.77195" lon="3.84741">
        <ele>199.5</ele>
        <time>2026-05-21T08:13:43.000Z</time>
      </trkpt>
      <trkpt lat="43.77196" lon="3.8474">
        <ele>199.4</ele>
        <time>2026-05-21T08:13:44.000Z</time>
      </trkpt>
      <trkpt lat="43.77197" lon="3.84739">
        <ele>199.4</ele>
        <time>2026-05-21T08:13:45.000Z</time>
      </trkpt>
      <trkpt lat="43.77197" lon="3.84737">
        <ele>199.4</ele>
        <time>2026-05-21T08:13:46.000Z</time>
      </trkpt>
      <trkpt lat="43.77197" lon="3.84736">
        <ele>199.6</ele>
        <time>2026-05-21T08:13:47.000Z</time>
      </trkpt>
      <trkpt lat="43.77198" lon="3.84734">
        <ele>199.8</ele>
        <time>2026-05-21T08:13:48.000Z</time>
      </trkpt>
      <trkpt lat="43.77198" lon="3.84733">
        <ele>200</ele>
        <time>2026-05-21T08:13:49.000Z</time>
      </trkpt>
      <trkpt lat="43.77199" lon="3.84732">
        <ele>199.7</ele>
        <time>2026-05-21T08:13:50.000Z</time>
      </trkpt>
      <trkpt lat="43.77199" lon="3.8473">
        <ele>199.6</ele>
        <time>2026-05-21T08:13:51.000Z</time>
      </trkpt>
      <trkpt lat="43.77199" lon="3.84729">
        <ele>199.5</ele>
        <time>2026-05-21T08:13:52.000Z</time>
      </trkpt>
      <trkpt lat="43.772" lon="3.84729">
        <ele>199.5</ele>
        <time>2026-05-21T08:13:53.000Z</time>
      </trkpt>
      <trkpt lat="43.772" lon="3.84728">
        <ele>199.5</ele>
        <time>2026-05-21T08:13:54.000Z</time>
      </trkpt>
      <trkpt lat="43.77201" lon="3.84728">
        <ele>199.5</ele>
        <time>2026-05-21T08:13:55.000Z</time>
      </trkpt>
      <trkpt lat="43.77201" lon="3.84728">
        <ele>199.5</ele>
        <time>2026-05-21T08:13:56.000Z</time>
      </trkpt>
      <trkpt lat="43.77201" lon="3.84727">
        <ele>199.6</ele>
        <time>2026-05-21T08:13:57.000Z</time>
      </trkpt>
      <trkpt lat="43.77201" lon="3.84726">
        <ele>199.7</ele>
        <time>2026-05-21T08:13:58.000Z</time>
      </trkpt>
      <trkpt lat="43.77202" lon="3.84725">
        <ele>200</ele>
        <time>2026-05-21T08:13:59.000Z</time>
      </trkpt>
      <trkpt lat="43.77202" lon="3.84725">
        <ele>199.9</ele>
        <time>2026-05-21T08:14:00.000Z</time>
      </trkpt>
      <trkpt lat="43.77203" lon="3.84724">
        <ele>199.9</ele>
        <time>2026-05-21T08:14:01.000Z</time>
      </trkpt>
      <trkpt lat="43.77203" lon="3.84724">
        <ele>199.9</ele>
        <time>2026-05-21T08:14:02.000Z</time>
      </trkpt>
      <trkpt lat="43.77203" lon="3.84723">
        <ele>200.1</ele>
        <time>2026-05-21T08:14:03.000Z</time>
      </trkpt>
      <trkpt lat="43.77203" lon="3.84721">
        <ele>200.1</ele>
        <time>2026-05-21T08:14:04.000Z</time>
      </trkpt>
      <trkpt lat="43.77203" lon="3.84721">
        <ele>199.9</ele>
        <time>2026-05-21T08:14:05.000Z</time>
      </trkpt>
      <trkpt lat="43.77204" lon="3.8472">
        <ele>199.9</ele>
        <time>2026-05-21T08:14:06.000Z</time>
      </trkpt>
      <trkpt lat="43.77205" lon="3.84719">
        <ele>199.9</ele>
        <time>2026-05-21T08:14:07.000Z</time>
      </trkpt>
      <trkpt lat="43.77206" lon="3.84717">
        <ele>199.7</ele>
        <time>2026-05-21T08:14:08.000Z</time>
      </trkpt>
      <trkpt lat="43.77206" lon="3.84716">
        <ele>199.9</ele>
        <time>2026-05-21T08:14:09.000Z</time>
      </trkpt>
      <trkpt lat="43.77207" lon="3.84714">
        <ele>199.8</ele>
        <time>2026-05-21T08:14:10.000Z</time>
      </trkpt>
      <trkpt lat="43.77207" lon="3.84713">
        <ele>200</ele>
        <time>2026-05-21T08:14:11.000Z</time>
      </trkpt>
      <trkpt lat="43.77207" lon="3.84712">
        <ele>200</ele>
        <time>2026-05-21T08:14:12.000Z</time>
      </trkpt>
      <trkpt lat="43.77208" lon="3.84712">
        <ele>200.1</ele>
        <time>2026-05-21T08:14:13.000Z</time>
      </trkpt>
      <trkpt lat="43.77209" lon="3.84711">
        <ele>200.2</ele>
        <time>2026-05-21T08:14:14.000Z</time>
      </trkpt>
      <trkpt lat="43.77208" lon="3.8471">
        <ele>200.3</ele>
        <time>2026-05-21T08:14:15.000Z</time>
      </trkpt>
      <trkpt lat="43.77208" lon="3.8471">
        <ele>200.6</ele>
        <time>2026-05-21T08:14:16.000Z</time>
      </trkpt>
      <trkpt lat="43.77209" lon="3.84712">
        <ele>201.6</ele>
        <time>2026-05-21T08:14:17.000Z</time>
      </trkpt>
      <trkpt lat="43.77209" lon="3.84712">
        <ele>202.3</ele>
        <time>2026-05-21T08:14:18.000Z</time>
      </trkpt>
      <trkpt lat="43.77208" lon="3.84712">
        <ele>202.8</ele>
        <time>2026-05-21T08:14:19.000Z</time>
      </trkpt>
      <trkpt lat="43.77208" lon="3.84712">
        <ele>203.2</ele>
        <time>2026-05-21T08:14:20.000Z</time>
      </trkpt>
      <trkpt lat="43.77208" lon="3.84712">
        <ele>203.4</ele>
        <time>2026-05-21T08:14:21.000Z</time>
      </trkpt>
      <trkpt lat="43.77208" lon="3.84712">
        <ele>203.6</ele>
        <time>2026-05-21T08:14:22.000Z</time>
      </trkpt>
      <trkpt lat="43.77208" lon="3.84712">
        <ele>203.7</ele>
        <time>2026-05-21T08:14:23.000Z</time>
      </trkpt>
      <trkpt lat="43.77208" lon="3.84712">
        <ele>203.9</ele>
        <time>2026-05-21T08:14:24.000Z</time>
      </trkpt>
      <trkpt lat="43.77208" lon="3.84712">
        <ele>204.4</ele>
        <time>2026-05-21T08:14:25.000Z</time>
      </trkpt>
      <trkpt lat="43.77208" lon="3.84712">
        <ele>204.4</ele>
        <time>2026-05-21T08:14:26.000Z</time>
      </trkpt>
      <trkpt lat="43.77208" lon="3.84712">
        <ele>204.4</ele>
        <time>2026-05-21T08:14:27.000Z</time>
      </trkpt>
      <trkpt lat="43.77208" lon="3.84712">
        <ele>204.5</ele>
        <time>2026-05-21T08:14:28.000Z</time>
      </trkpt>
      <trkpt lat="43.77209" lon="3.84712">
        <ele>204.5</ele>
        <time>2026-05-21T08:14:29.000Z</time>
      </trkpt>
      <trkpt lat="43.77209" lon="3.84711">
        <ele>204.5</ele>
        <time>2026-05-21T08:14:30.000Z</time>
      </trkpt>
      <trkpt lat="43.7721" lon="3.84709">
        <ele>204.8</ele>
        <time>2026-05-21T08:14:31.000Z</time>
      </trkpt>
      <trkpt lat="43.7721" lon="3.84707">
        <ele>205</ele>
        <time>2026-05-21T08:14:32.000Z</time>
      </trkpt>
      <trkpt lat="43.77211" lon="3.84706">
        <ele>204.9</ele>
        <time>2026-05-21T08:14:33.000Z</time>
      </trkpt>
      <trkpt lat="43.77211" lon="3.84704">
        <ele>204.9</ele>
        <time>2026-05-21T08:14:34.000Z</time>
      </trkpt>
      <trkpt lat="43.77212" lon="3.84703">
        <ele>204.9</ele>
        <time>2026-05-21T08:14:35.000Z</time>
      </trkpt>
      <trkpt lat="43.77212" lon="3.84702">
        <ele>205.1</ele>
        <time>2026-05-21T08:14:36.000Z</time>
      </trkpt>
      <trkpt lat="43.77213" lon="3.84701">
        <ele>205.1</ele>
        <time>2026-05-21T08:14:37.000Z</time>
      </trkpt>
      <trkpt lat="43.77214" lon="3.847">
        <ele>205.1</ele>
        <time>2026-05-21T08:14:38.000Z</time>
      </trkpt>
      <trkpt lat="43.77214" lon="3.84699">
        <ele>205</ele>
        <time>2026-05-21T08:14:39.000Z</time>
      </trkpt>
      <trkpt lat="43.77214" lon="3.84698">
        <ele>204.7</ele>
        <time>2026-05-21T08:14:40.000Z</time>
      </trkpt>
      <trkpt lat="43.77215" lon="3.84698">
        <ele>204.7</ele>
        <time>2026-05-21T08:14:41.000Z</time>
      </trkpt>
      <trkpt lat="43.77215" lon="3.84698">
        <ele>205</ele>
        <time>2026-05-21T08:14:42.000Z</time>
      </trkpt>
      <trkpt lat="43.77216" lon="3.84698">
        <ele>205.2</ele>
        <time>2026-05-21T08:14:43.000Z</time>
      </trkpt>
      <trkpt lat="43.77217" lon="3.84697">
        <ele>204.8</ele>
        <time>2026-05-21T08:14:44.000Z</time>
      </trkpt>
      <trkpt lat="43.77217" lon="3.84697">
        <ele>205</ele>
        <time>2026-05-21T08:14:45.000Z</time>
      </trkpt>
      <trkpt lat="43.77218" lon="3.84696">
        <ele>205.1</ele>
        <time>2026-05-21T08:14:46.000Z</time>
      </trkpt>
      <trkpt lat="43.77218" lon="3.84695">
        <ele>205.5</ele>
        <time>2026-05-21T08:14:47.000Z</time>
      </trkpt>
      <trkpt lat="43.77218" lon="3.84695">
        <ele>205.5</ele>
        <time>2026-05-21T08:14:48.000Z</time>
      </trkpt>
      <trkpt lat="43.77219" lon="3.84694">
        <ele>205.6</ele>
        <time>2026-05-21T08:14:49.000Z</time>
      </trkpt>
      <trkpt lat="43.77219" lon="3.84693">
        <ele>205.7</ele>
        <time>2026-05-21T08:14:50.000Z</time>
      </trkpt>
      <trkpt lat="43.7722" lon="3.84693">
        <ele>205.5</ele>
        <time>2026-05-21T08:14:51.000Z</time>
      </trkpt>
      <trkpt lat="43.7722" lon="3.84692">
        <ele>205.6</ele>
        <time>2026-05-21T08:14:52.000Z</time>
      </trkpt>
      <trkpt lat="43.77221" lon="3.84691">
        <ele>205.8</ele>
        <time>2026-05-21T08:14:53.000Z</time>
      </trkpt>
      <trkpt lat="43.77221" lon="3.84691">
        <ele>205.7</ele>
        <time>2026-05-21T08:14:54.000Z</time>
      </trkpt>
      <trkpt lat="43.77222" lon="3.8469">
        <ele>205.8</ele>
        <time>2026-05-21T08:14:55.000Z</time>
      </trkpt>
      <trkpt lat="43.77223" lon="3.8469">
        <ele>206.1</ele>
        <time>2026-05-21T08:14:56.000Z</time>
      </trkpt>
      <trkpt lat="43.77223" lon="3.84689">
        <ele>206.2</ele>
        <time>2026-05-21T08:14:57.000Z</time>
      </trkpt>
      <trkpt lat="43.77224" lon="3.84687">
        <ele>206.3</ele>
        <time>2026-05-21T08:14:58.000Z</time>
      </trkpt>
      <trkpt lat="43.77224" lon="3.84687">
        <ele>206.8</ele>
        <time>2026-05-21T08:14:59.000Z</time>
      </trkpt>
      <trkpt lat="43.77224" lon="3.84686">
        <ele>207</ele>
        <time>2026-05-21T08:15:00.000Z</time>
      </trkpt>
      <trkpt lat="43.77224" lon="3.84686">
        <ele>207.3</ele>
        <time>2026-05-21T08:15:01.000Z</time>
      </trkpt>
      <trkpt lat="43.77225" lon="3.84686">
        <ele>207.3</ele>
        <time>2026-05-21T08:15:02.000Z</time>
      </trkpt>
      <trkpt lat="43.77225" lon="3.84686">
        <ele>206.9</ele>
        <time>2026-05-21T08:15:03.000Z</time>
      </trkpt>
      <trkpt lat="43.77225" lon="3.84686">
        <ele>206.9</ele>
        <time>2026-05-21T08:15:04.000Z</time>
      </trkpt>
      <trkpt lat="43.77225" lon="3.84685">
        <ele>206.9</ele>
        <time>2026-05-21T08:15:05.000Z</time>
      </trkpt>
      <trkpt lat="43.77225" lon="3.84685">
        <ele>207</ele>
        <time>2026-05-21T08:15:06.000Z</time>
      </trkpt>
      <trkpt lat="43.77225" lon="3.84685">
        <ele>207</ele>
        <time>2026-05-21T08:15:07.000Z</time>
      </trkpt>
      <trkpt lat="43.77225" lon="3.84685">
        <ele>207.3</ele>
        <time>2026-05-21T08:15:08.000Z</time>
      </trkpt>
      <trkpt lat="43.77225" lon="3.84685">
        <ele>207.4</ele>
        <time>2026-05-21T08:15:09.000Z</time>
      </trkpt>
      <trkpt lat="43.77225" lon="3.84685">
        <ele>207.5</ele>
        <time>2026-05-21T08:15:10.000Z</time>
      </trkpt>
      <trkpt lat="43.77225" lon="3.84685">
        <ele>207.5</ele>
        <time>2026-05-21T08:15:11.000Z</time>
      </trkpt>
      <trkpt lat="43.77226" lon="3.84684">
        <ele>207.9</ele>
        <time>2026-05-21T08:15:12.000Z</time>
      </trkpt>
      <trkpt lat="43.77226" lon="3.84683">
        <ele>208</ele>
        <time>2026-05-21T08:15:13.000Z</time>
      </trkpt>
      <trkpt lat="43.77227" lon="3.84682">
        <ele>207.8</ele>
        <time>2026-05-21T08:15:14.000Z</time>
      </trkpt>
      <trkpt lat="43.77228" lon="3.84681">
        <ele>208.2</ele>
        <time>2026-05-21T08:15:15.000Z</time>
      </trkpt>
      <trkpt lat="43.77229" lon="3.84679">
        <ele>208.4</ele>
        <time>2026-05-21T08:15:16.000Z</time>
      </trkpt>
      <trkpt lat="43.7723" lon="3.84678">
        <ele>208.5</ele>
        <time>2026-05-21T08:15:17.000Z</time>
      </trkpt>
      <trkpt lat="43.7723" lon="3.84678">
        <ele>208.8</ele>
        <time>2026-05-21T08:15:18.000Z</time>
      </trkpt>
      <trkpt lat="43.77231" lon="3.84677">
        <ele>208.8</ele>
        <time>2026-05-21T08:15:19.000Z</time>
      </trkpt>
      <trkpt lat="43.77232" lon="3.84675">
        <ele>208.9</ele>
        <time>2026-05-21T08:15:20.000Z</time>
      </trkpt>
      <trkpt lat="43.77233" lon="3.84674">
        <ele>209</ele>
        <time>2026-05-21T08:15:21.000Z</time>
      </trkpt>
      <trkpt lat="43.77234" lon="3.84673">
        <ele>208.9</ele>
        <time>2026-05-21T08:15:22.000Z</time>
      </trkpt>
      <trkpt lat="43.77234" lon="3.84672">
        <ele>208.5</ele>
        <time>2026-05-21T08:15:23.000Z</time>
      </trkpt>
      <trkpt lat="43.77235" lon="3.84672">
        <ele>208</ele>
        <time>2026-05-21T08:15:24.000Z</time>
      </trkpt>
      <trkpt lat="43.77236" lon="3.84671">
        <ele>207.9</ele>
        <time>2026-05-21T08:15:25.000Z</time>
      </trkpt>
      <trkpt lat="43.77237" lon="3.84671">
        <ele>207.8</ele>
        <time>2026-05-21T08:15:26.000Z</time>
      </trkpt>
      <trkpt lat="43.77238" lon="3.84672">
        <ele>207.8</ele>
        <time>2026-05-21T08:15:27.000Z</time>
      </trkpt>
      <trkpt lat="43.77239" lon="3.84672">
        <ele>207.6</ele>
        <time>2026-05-21T08:15:28.000Z</time>
      </trkpt>
      <trkpt lat="43.7724" lon="3.84672">
        <ele>207.5</ele>
        <time>2026-05-21T08:15:29.000Z</time>
      </trkpt>
      <trkpt lat="43.7724" lon="3.84672">
        <ele>207.8</ele>
        <time>2026-05-21T08:15:30.000Z</time>
      </trkpt>
      <trkpt lat="43.77241" lon="3.84671">
        <ele>208.1</ele>
        <time>2026-05-21T08:15:31.000Z</time>
      </trkpt>
      <trkpt lat="43.77242" lon="3.8467">
        <ele>208.3</ele>
        <time>2026-05-21T08:15:32.000Z</time>
      </trkpt>
      <trkpt lat="43.77243" lon="3.8467">
        <ele>208.3</ele>
        <time>2026-05-21T08:15:33.000Z</time>
      </trkpt>
      <trkpt lat="43.77243" lon="3.84669">
        <ele>208.5</ele>
        <time>2026-05-21T08:15:34.000Z</time>
      </trkpt>
      <trkpt lat="43.77244" lon="3.84667">
        <ele>208.5</ele>
        <time>2026-05-21T08:15:35.000Z</time>
      </trkpt>
      <trkpt lat="43.77244" lon="3.84666">
        <ele>208.4</ele>
        <time>2026-05-21T08:15:36.000Z</time>
      </trkpt>
      <trkpt lat="43.77244" lon="3.84666">
        <ele>208.4</ele>
        <time>2026-05-21T08:15:37.000Z</time>
      </trkpt>
      <trkpt lat="43.77244" lon="3.84665">
        <ele>208.7</ele>
        <time>2026-05-21T08:15:38.000Z</time>
      </trkpt>
      <trkpt lat="43.77244" lon="3.84664">
        <ele>208.9</ele>
        <time>2026-05-21T08:15:39.000Z</time>
      </trkpt>
      <trkpt lat="43.77244" lon="3.84663">
        <ele>208.8</ele>
        <time>2026-05-21T08:15:40.000Z</time>
      </trkpt>
      <trkpt lat="43.77244" lon="3.84662">
        <ele>208.8</ele>
        <time>2026-05-21T08:15:41.000Z</time>
      </trkpt>
      <trkpt lat="43.77244" lon="3.84661">
        <ele>209</ele>
        <time>2026-05-21T08:15:42.000Z</time>
      </trkpt>
      <trkpt lat="43.77244" lon="3.8466">
        <ele>209.2</ele>
        <time>2026-05-21T08:15:43.000Z</time>
      </trkpt>
      <trkpt lat="43.77245" lon="3.84659">
        <ele>209.1</ele>
        <time>2026-05-21T08:15:44.000Z</time>
      </trkpt>
      <trkpt lat="43.77245" lon="3.84659">
        <ele>209.4</ele>
        <time>2026-05-21T08:15:45.000Z</time>
      </trkpt>
      <trkpt lat="43.77246" lon="3.84658">
        <ele>209.5</ele>
        <time>2026-05-21T08:15:46.000Z</time>
      </trkpt>
      <trkpt lat="43.77247" lon="3.84656">
        <ele>209.7</ele>
        <time>2026-05-21T08:15:47.000Z</time>
      </trkpt>
      <trkpt lat="43.77247" lon="3.84655">
        <ele>209.9</ele>
        <time>2026-05-21T08:15:48.000Z</time>
      </trkpt>
      <trkpt lat="43.77248" lon="3.84654">
        <ele>210.2</ele>
        <time>2026-05-21T08:15:49.000Z</time>
      </trkpt>
      <trkpt lat="43.77248" lon="3.84653">
        <ele>210.2</ele>
        <time>2026-05-21T08:15:50.000Z</time>
      </trkpt>
      <trkpt lat="43.77248" lon="3.84651">
        <ele>210.4</ele>
        <time>2026-05-21T08:15:51.000Z</time>
      </trkpt>
      <trkpt lat="43.77248" lon="3.84651">
        <ele>210.4</ele>
        <time>2026-05-21T08:15:52.000Z</time>
      </trkpt>
      <trkpt lat="43.77248" lon="3.8465">
        <ele>210.5</ele>
        <time>2026-05-21T08:15:53.000Z</time>
      </trkpt>
      <trkpt lat="43.77248" lon="3.8465">
        <ele>210.6</ele>
        <time>2026-05-21T08:15:54.000Z</time>
      </trkpt>
      <trkpt lat="43.77248" lon="3.84648">
        <ele>210.7</ele>
        <time>2026-05-21T08:15:55.000Z</time>
      </trkpt>
      <trkpt lat="43.77249" lon="3.84648">
        <ele>210.7</ele>
        <time>2026-05-21T08:15:56.000Z</time>
      </trkpt>
      <trkpt lat="43.7725" lon="3.84647">
        <ele>211</ele>
        <time>2026-05-21T08:15:57.000Z</time>
      </trkpt>
      <trkpt lat="43.77251" lon="3.84646">
        <ele>211.3</ele>
        <time>2026-05-21T08:15:58.000Z</time>
      </trkpt>
      <trkpt lat="43.7725" lon="3.84645">
        <ele>211.5</ele>
        <time>2026-05-21T08:15:59.000Z</time>
      </trkpt>
      <trkpt lat="43.7725" lon="3.84644">
        <ele>211.6</ele>
        <time>2026-05-21T08:16:00.000Z</time>
      </trkpt>
      <trkpt lat="43.77251" lon="3.84643">
        <ele>212</ele>
        <time>2026-05-21T08:16:01.000Z</time>
      </trkpt>
      <trkpt lat="43.77251" lon="3.84642">
        <ele>212.2</ele>
        <time>2026-05-21T08:16:02.000Z</time>
      </trkpt>
      <trkpt lat="43.77252" lon="3.84641">
        <ele>212.6</ele>
        <time>2026-05-21T08:16:03.000Z</time>
      </trkpt>
      <trkpt lat="43.77252" lon="3.84639">
        <ele>212.6</ele>
        <time>2026-05-21T08:16:04.000Z</time>
      </trkpt>
      <trkpt lat="43.77251" lon="3.84638">
        <ele>212.7</ele>
        <time>2026-05-21T08:16:05.000Z</time>
      </trkpt>
      <trkpt lat="43.77251" lon="3.84638">
        <ele>212.9</ele>
        <time>2026-05-21T08:16:06.000Z</time>
      </trkpt>
      <trkpt lat="43.77252" lon="3.84638">
        <ele>213.1</ele>
        <time>2026-05-21T08:16:07.000Z</time>
      </trkpt>
      <trkpt lat="43.77251" lon="3.84637">
        <ele>213.3</ele>
        <time>2026-05-21T08:16:08.000Z</time>
      </trkpt>
      <trkpt lat="43.77251" lon="3.84637">
        <ele>213.9</ele>
        <time>2026-05-21T08:16:09.000Z</time>
      </trkpt>
      <trkpt lat="43.7725" lon="3.84637">
        <ele>214.5</ele>
        <time>2026-05-21T08:16:10.000Z</time>
      </trkpt>
      <trkpt lat="43.77249" lon="3.84636">
        <ele>215.2</ele>
        <time>2026-05-21T08:16:11.000Z</time>
      </trkpt>
      <trkpt lat="43.77249" lon="3.84635">
        <ele>215.4</ele>
        <time>2026-05-21T08:16:12.000Z</time>
      </trkpt>
      <trkpt lat="43.77249" lon="3.84635">
        <ele>215.8</ele>
        <time>2026-05-21T08:16:13.000Z</time>
      </trkpt>
      <trkpt lat="43.77249" lon="3.84635">
        <ele>216.2</ele>
        <time>2026-05-21T08:16:14.000Z</time>
      </trkpt>
      <trkpt lat="43.77249" lon="3.84634">
        <ele>216.6</ele>
        <time>2026-05-21T08:16:15.000Z</time>
      </trkpt>
      <trkpt lat="43.77249" lon="3.84633">
        <ele>216.7</ele>
        <time>2026-05-21T08:16:16.000Z</time>
      </trkpt>
      <trkpt lat="43.77249" lon="3.84632">
        <ele>216.8</ele>
        <time>2026-05-21T08:16:17.000Z</time>
      </trkpt>
      <trkpt lat="43.77249" lon="3.84631">
        <ele>217</ele>
        <time>2026-05-21T08:16:18.000Z</time>
      </trkpt>
      <trkpt lat="43.77249" lon="3.84631">
        <ele>217.4</ele>
        <time>2026-05-21T08:16:19.000Z</time>
      </trkpt>
      <trkpt lat="43.77249" lon="3.8463">
        <ele>217.7</ele>
        <time>2026-05-21T08:16:20.000Z</time>
      </trkpt>
      <trkpt lat="43.77249" lon="3.84629">
        <ele>217.8</ele>
        <time>2026-05-21T08:16:21.000Z</time>
      </trkpt>
      <trkpt lat="43.77248" lon="3.84629">
        <ele>217.8</ele>
        <time>2026-05-21T08:16:22.000Z</time>
      </trkpt>
      <trkpt lat="43.77249" lon="3.84629">
        <ele>218.1</ele>
        <time>2026-05-21T08:16:23.000Z</time>
      </trkpt>
      <trkpt lat="43.77249" lon="3.84628">
        <ele>217.9</ele>
        <time>2026-05-21T08:16:24.000Z</time>
      </trkpt>
      <trkpt lat="43.77249" lon="3.84628">
        <ele>217.8</ele>
        <time>2026-05-21T08:16:25.000Z</time>
      </trkpt>
      <trkpt lat="43.77249" lon="3.84628">
        <ele>217.9</ele>
        <time>2026-05-21T08:16:26.000Z</time>
      </trkpt>
      <trkpt lat="43.77248" lon="3.84628">
        <ele>218.2</ele>
        <time>2026-05-21T08:16:27.000Z</time>
      </trkpt>
      <trkpt lat="43.77248" lon="3.84627">
        <ele>218.2</ele>
        <time>2026-05-21T08:16:28.000Z</time>
      </trkpt>
      <trkpt lat="43.77248" lon="3.84627">
        <ele>218</ele>
        <time>2026-05-21T08:16:29.000Z</time>
      </trkpt>
      <trkpt lat="43.77248" lon="3.84626">
        <ele>217.9</ele>
        <time>2026-05-21T08:16:30.000Z</time>
      </trkpt>
      <trkpt lat="43.77248" lon="3.84625">
        <ele>217.7</ele>
        <time>2026-05-21T08:16:31.000Z</time>
      </trkpt>
      <trkpt lat="43.77248" lon="3.84624">
        <ele>217.7</ele>
        <time>2026-05-21T08:16:32.000Z</time>
      </trkpt>
      <trkpt lat="43.77249" lon="3.84622">
        <ele>217.6</ele>
        <time>2026-05-21T08:16:33.000Z</time>
      </trkpt>
      <trkpt lat="43.77249" lon="3.84621">
        <ele>217.7</ele>
        <time>2026-05-21T08:16:34.000Z</time>
      </trkpt>
      <trkpt lat="43.77249" lon="3.8462">
        <ele>217.7</ele>
        <time>2026-05-21T08:16:35.000Z</time>
      </trkpt>
      <trkpt lat="43.77249" lon="3.84618">
        <ele>217.8</ele>
        <time>2026-05-21T08:16:36.000Z</time>
      </trkpt>
      <trkpt lat="43.77249" lon="3.84618">
        <ele>218.3</ele>
        <time>2026-05-21T08:16:37.000Z</time>
      </trkpt>
      <trkpt lat="43.77249" lon="3.84618">
        <ele>218.7</ele>
        <time>2026-05-21T08:16:38.000Z</time>
      </trkpt>
      <trkpt lat="43.77249" lon="3.84618">
        <ele>218.6</ele>
        <time>2026-05-21T08:16:39.000Z</time>
      </trkpt>
      <trkpt lat="43.77249" lon="3.84617">
        <ele>218.8</ele>
        <time>2026-05-21T08:16:40.000Z</time>
      </trkpt>
      <trkpt lat="43.77249" lon="3.84617">
        <ele>219.2</ele>
        <time>2026-05-21T08:16:41.000Z</time>
      </trkpt>
      <trkpt lat="43.77249" lon="3.84617">
        <ele>219.2</ele>
        <time>2026-05-21T08:16:42.000Z</time>
      </trkpt>
      <trkpt lat="43.77249" lon="3.84616">
        <ele>219.4</ele>
        <time>2026-05-21T08:16:43.000Z</time>
      </trkpt>
      <trkpt lat="43.77249" lon="3.84616">
        <ele>219.4</ele>
        <time>2026-05-21T08:16:44.000Z</time>
      </trkpt>
      <trkpt lat="43.77249" lon="3.84616">
        <ele>219.6</ele>
        <time>2026-05-21T08:16:45.000Z</time>
      </trkpt>
      <trkpt lat="43.77249" lon="3.84616">
        <ele>219.7</ele>
        <time>2026-05-21T08:16:46.000Z</time>
      </trkpt>
      <trkpt lat="43.77249" lon="3.84616">
        <ele>219.7</ele>
        <time>2026-05-21T08:16:47.000Z</time>
      </trkpt>
      <trkpt lat="43.77249" lon="3.84615">
        <ele>219.5</ele>
        <time>2026-05-21T08:16:48.000Z</time>
      </trkpt>
      <trkpt lat="43.77248" lon="3.84615">
        <ele>219.3</ele>
        <time>2026-05-21T08:16:49.000Z</time>
      </trkpt>
      <trkpt lat="43.77248" lon="3.84615">
        <ele>219.1</ele>
        <time>2026-05-21T08:16:50.000Z</time>
      </trkpt>
      <trkpt lat="43.77248" lon="3.84614">
        <ele>218.9</ele>
        <time>2026-05-21T08:16:51.000Z</time>
      </trkpt>
      <trkpt lat="43.77248" lon="3.84614">
        <ele>218.7</ele>
        <time>2026-05-21T08:16:52.000Z</time>
      </trkpt>
      <trkpt lat="43.77248" lon="3.84614">
        <ele>218.6</ele>
        <time>2026-05-21T08:16:53.000Z</time>
      </trkpt>
      <trkpt lat="43.77248" lon="3.84613">
        <ele>218.8</ele>
        <time>2026-05-21T08:16:54.000Z</time>
      </trkpt>
      <trkpt lat="43.77248" lon="3.84613">
        <ele>218.9</ele>
        <time>2026-05-21T08:16:55.000Z</time>
      </trkpt>
      <trkpt lat="43.77248" lon="3.84613">
        <ele>219.2</ele>
        <time>2026-05-21T08:16:56.000Z</time>
      </trkpt>
      <trkpt lat="43.77248" lon="3.84612">
        <ele>219.3</ele>
        <time>2026-05-21T08:16:57.000Z</time>
      </trkpt>
      <trkpt lat="43.77248" lon="3.84611">
        <ele>219.3</ele>
        <time>2026-05-21T08:16:58.000Z</time>
      </trkpt>
      <trkpt lat="43.77248" lon="3.84609">
        <ele>219.4</ele>
        <time>2026-05-21T08:16:59.000Z</time>
      </trkpt>
      <trkpt lat="43.77247" lon="3.84608">
        <ele>219.7</ele>
        <time>2026-05-21T08:17:00.000Z</time>
      </trkpt>
      <trkpt lat="43.77247" lon="3.84607">
        <ele>220.1</ele>
        <time>2026-05-21T08:17:01.000Z</time>
      </trkpt>
      <trkpt lat="43.77247" lon="3.84607">
        <ele>220.2</ele>
        <time>2026-05-21T08:17:02.000Z</time>
      </trkpt>
      <trkpt lat="43.77247" lon="3.84607">
        <ele>220.5</ele>
        <time>2026-05-21T08:17:03.000Z</time>
      </trkpt>
      <trkpt lat="43.77247" lon="3.84607">
        <ele>220.7</ele>
        <time>2026-05-21T08:17:04.000Z</time>
      </trkpt>
      <trkpt lat="43.77247" lon="3.84607">
        <ele>221</ele>
        <time>2026-05-21T08:17:05.000Z</time>
      </trkpt>
      <trkpt lat="43.77247" lon="3.84607">
        <ele>221.1</ele>
        <time>2026-05-21T08:17:06.000Z</time>
      </trkpt>
      <trkpt lat="43.77247" lon="3.84606">
        <ele>221.3</ele>
        <time>2026-05-21T08:17:07.000Z</time>
      </trkpt>
      <trkpt lat="43.77247" lon="3.84606">
        <ele>221.5</ele>
        <time>2026-05-21T08:17:08.000Z</time>
      </trkpt>
      <trkpt lat="43.77247" lon="3.84606">
        <ele>221.4</ele>
        <time>2026-05-21T08:17:09.000Z</time>
      </trkpt>
      <trkpt lat="43.77247" lon="3.84606">
        <ele>221.2</ele>
        <time>2026-05-21T08:17:10.000Z</time>
      </trkpt>
      <trkpt lat="43.77247" lon="3.84605">
        <ele>221.2</ele>
        <time>2026-05-21T08:17:11.000Z</time>
      </trkpt>
      <trkpt lat="43.77247" lon="3.84605">
        <ele>221.2</ele>
        <time>2026-05-21T08:17:12.000Z</time>
      </trkpt>
      <trkpt lat="43.77247" lon="3.84605">
        <ele>221.4</ele>
        <time>2026-05-21T08:17:13.000Z</time>
      </trkpt>
      <trkpt lat="43.77247" lon="3.84604">
        <ele>221.4</ele>
        <time>2026-05-21T08:17:14.000Z</time>
      </trkpt>
      <trkpt lat="43.77246" lon="3.84604">
        <ele>221.4</ele>
        <time>2026-05-21T08:17:15.000Z</time>
      </trkpt>
      <trkpt lat="43.77246" lon="3.84604">
        <ele>221.6</ele>
        <time>2026-05-21T08:17:16.000Z</time>
      </trkpt>
      <trkpt lat="43.77246" lon="3.84603">
        <ele>221.4</ele>
        <time>2026-05-21T08:17:17.000Z</time>
      </trkpt>
      <trkpt lat="43.77246" lon="3.84603">
        <ele>221.4</ele>
        <time>2026-05-21T08:17:18.000Z</time>
      </trkpt>
      <trkpt lat="43.77246" lon="3.84603">
        <ele>221.3</ele>
        <time>2026-05-21T08:17:19.000Z</time>
      </trkpt>
      <trkpt lat="43.77246" lon="3.84603">
        <ele>221.2</ele>
        <time>2026-05-21T08:17:20.000Z</time>
      </trkpt>
      <trkpt lat="43.77246" lon="3.84602">
        <ele>221.2</ele>
        <time>2026-05-21T08:17:21.000Z</time>
      </trkpt>
      <trkpt lat="43.77245" lon="3.84602">
        <ele>221.3</ele>
        <time>2026-05-21T08:17:22.000Z</time>
      </trkpt>
      <trkpt lat="43.77245" lon="3.84602">
        <ele>221.2</ele>
        <time>2026-05-21T08:17:23.000Z</time>
      </trkpt>
      <trkpt lat="43.77245" lon="3.84602">
        <ele>221.4</ele>
        <time>2026-05-21T08:17:24.000Z</time>
      </trkpt>
      <trkpt lat="43.77245" lon="3.84601">
        <ele>221.6</ele>
        <time>2026-05-21T08:17:25.000Z</time>
      </trkpt>
      <trkpt lat="43.77245" lon="3.84601">
        <ele>221.5</ele>
        <time>2026-05-21T08:17:26.000Z</time>
      </trkpt>
      <trkpt lat="43.77243" lon="3.84598">
        <ele>221.7</ele>
        <time>2026-05-21T08:17:27.000Z</time>
      </trkpt>
      <trkpt lat="43.77242" lon="3.84596">
        <ele>222.1</ele>
        <time>2026-05-21T08:17:28.000Z</time>
      </trkpt>
      <trkpt lat="43.77241" lon="3.84595">
        <ele>222.4</ele>
        <time>2026-05-21T08:17:29.000Z</time>
      </trkpt>
      <trkpt lat="43.77241" lon="3.84595">
        <ele>222.7</ele>
        <time>2026-05-21T08:17:30.000Z</time>
      </trkpt>
      <trkpt lat="43.7724" lon="3.84595">
        <ele>222.7</ele>
        <time>2026-05-21T08:17:31.000Z</time>
      </trkpt>
      <trkpt lat="43.7724" lon="3.84594">
        <ele>222.8</ele>
        <time>2026-05-21T08:17:32.000Z</time>
      </trkpt>
      <trkpt lat="43.7724" lon="3.84594">
        <ele>223.1</ele>
        <time>2026-05-21T08:17:33.000Z</time>
      </trkpt>
      <trkpt lat="43.7724" lon="3.84594">
        <ele>223.3</ele>
        <time>2026-05-21T08:17:34.000Z</time>
      </trkpt>
      <trkpt lat="43.7724" lon="3.84594">
        <ele>223.5</ele>
        <time>2026-05-21T08:17:35.000Z</time>
      </trkpt>
      <trkpt lat="43.7724" lon="3.84594">
        <ele>223.7</ele>
        <time>2026-05-21T08:17:36.000Z</time>
      </trkpt>
      <trkpt lat="43.7724" lon="3.84593">
        <ele>223.9</ele>
        <time>2026-05-21T08:17:37.000Z</time>
      </trkpt>
      <trkpt lat="43.7724" lon="3.84593">
        <ele>224</ele>
        <time>2026-05-21T08:17:38.000Z</time>
      </trkpt>
      <trkpt lat="43.7724" lon="3.84593">
        <ele>224.2</ele>
        <time>2026-05-21T08:17:39.000Z</time>
      </trkpt>
      <trkpt lat="43.77239" lon="3.84593">
        <ele>224</ele>
        <time>2026-05-21T08:17:40.000Z</time>
      </trkpt>
      <trkpt lat="43.77239" lon="3.84593">
        <ele>223.7</ele>
        <time>2026-05-21T08:17:41.000Z</time>
      </trkpt>
      <trkpt lat="43.77239" lon="3.84593">
        <ele>223.5</ele>
        <time>2026-05-21T08:17:42.000Z</time>
      </trkpt>
      <trkpt lat="43.77239" lon="3.84592">
        <ele>223.8</ele>
        <time>2026-05-21T08:17:43.000Z</time>
      </trkpt>
      <trkpt lat="43.77239" lon="3.84592">
        <ele>224.1</ele>
        <time>2026-05-21T08:17:44.000Z</time>
      </trkpt>
      <trkpt lat="43.77239" lon="3.84592">
        <ele>224.3</ele>
        <time>2026-05-21T08:17:45.000Z</time>
      </trkpt>
      <trkpt lat="43.77238" lon="3.84591">
        <ele>224.3</ele>
        <time>2026-05-21T08:17:46.000Z</time>
      </trkpt>
      <trkpt lat="43.77238" lon="3.84591">
        <ele>224.2</ele>
        <time>2026-05-21T08:17:47.000Z</time>
      </trkpt>
      <trkpt lat="43.77237" lon="3.8459">
        <ele>224.2</ele>
        <time>2026-05-21T08:17:48.000Z</time>
      </trkpt>
      <trkpt lat="43.77237" lon="3.8459">
        <ele>223.9</ele>
        <time>2026-05-21T08:17:49.000Z</time>
      </trkpt>
      <trkpt lat="43.77237" lon="3.8459">
        <ele>223.7</ele>
        <time>2026-05-21T08:17:50.000Z</time>
      </trkpt>
      <trkpt lat="43.77236" lon="3.84589">
        <ele>223.5</ele>
        <time>2026-05-21T08:17:51.000Z</time>
      </trkpt>
      <trkpt lat="43.77236" lon="3.84587">
        <ele>223.3</ele>
        <time>2026-05-21T08:17:52.000Z</time>
      </trkpt>
      <trkpt lat="43.77234" lon="3.84585">
        <ele>223.6</ele>
        <time>2026-05-21T08:17:53.000Z</time>
      </trkpt>
      <trkpt lat="43.77233" lon="3.84584">
        <ele>223.9</ele>
        <time>2026-05-21T08:17:54.000Z</time>
      </trkpt>
      <trkpt lat="43.77233" lon="3.84583">
        <ele>224.2</ele>
        <time>2026-05-21T08:17:55.000Z</time>
      </trkpt>
      <trkpt lat="43.77232" lon="3.84582">
        <ele>224.2</ele>
        <time>2026-05-21T08:17:56.000Z</time>
      </trkpt>
      <trkpt lat="43.77231" lon="3.8458">
        <ele>224.4</ele>
        <time>2026-05-21T08:17:57.000Z</time>
      </trkpt>
      <trkpt lat="43.77231" lon="3.84579">
        <ele>224.6</ele>
        <time>2026-05-21T08:17:58.000Z</time>
      </trkpt>
      <trkpt lat="43.7723" lon="3.84577">
        <ele>224.8</ele>
        <time>2026-05-21T08:17:59.000Z</time>
      </trkpt>
      <trkpt lat="43.77229" lon="3.84576">
        <ele>225.1</ele>
        <time>2026-05-21T08:18:00.000Z</time>
      </trkpt>
      <trkpt lat="43.77228" lon="3.84574">
        <ele>225.3</ele>
        <time>2026-05-21T08:18:01.000Z</time>
      </trkpt>
      <trkpt lat="43.77227" lon="3.84573">
        <ele>225.2</ele>
        <time>2026-05-21T08:18:02.000Z</time>
      </trkpt>
      <trkpt lat="43.77227" lon="3.84571">
        <ele>225.1</ele>
        <time>2026-05-21T08:18:03.000Z</time>
      </trkpt>
      <trkpt lat="43.77226" lon="3.8457">
        <ele>225.1</ele>
        <time>2026-05-21T08:18:04.000Z</time>
      </trkpt>
      <trkpt lat="43.77225" lon="3.84569">
        <ele>225.2</ele>
        <time>2026-05-21T08:18:05.000Z</time>
      </trkpt>
      <trkpt lat="43.77225" lon="3.84568">
        <ele>225.2</ele>
        <time>2026-05-21T08:18:06.000Z</time>
      </trkpt>
      <trkpt lat="43.77225" lon="3.84568">
        <ele>225.3</ele>
        <time>2026-05-21T08:18:07.000Z</time>
      </trkpt>
      <trkpt lat="43.77224" lon="3.84567">
        <ele>225.1</ele>
        <time>2026-05-21T08:18:08.000Z</time>
      </trkpt>
      <trkpt lat="43.77224" lon="3.84566">
        <ele>225</ele>
        <time>2026-05-21T08:18:09.000Z</time>
      </trkpt>
      <trkpt lat="43.77223" lon="3.84566">
        <ele>224.8</ele>
        <time>2026-05-21T08:18:10.000Z</time>
      </trkpt>
      <trkpt lat="43.77223" lon="3.84564">
        <ele>224.6</ele>
        <time>2026-05-21T08:18:11.000Z</time>
      </trkpt>
      <trkpt lat="43.77223" lon="3.84563">
        <ele>224.5</ele>
        <time>2026-05-21T08:18:12.000Z</time>
      </trkpt>
      <trkpt lat="43.77222" lon="3.84562">
        <ele>224.4</ele>
        <time>2026-05-21T08:18:13.000Z</time>
      </trkpt>
      <trkpt lat="43.77223" lon="3.84562">
        <ele>224</ele>
        <time>2026-05-21T08:18:14.000Z</time>
      </trkpt>
      <trkpt lat="43.77222" lon="3.84561">
        <ele>224.4</ele>
        <time>2026-05-21T08:18:15.000Z</time>
      </trkpt>
      <trkpt lat="43.77222" lon="3.8456">
        <ele>224.5</ele>
        <time>2026-05-21T08:18:16.000Z</time>
      </trkpt>
      <trkpt lat="43.77222" lon="3.84559">
        <ele>224.6</ele>
        <time>2026-05-21T08:18:17.000Z</time>
      </trkpt>
      <trkpt lat="43.77222" lon="3.84558">
        <ele>224.5</ele>
        <time>2026-05-21T08:18:18.000Z</time>
      </trkpt>
      <trkpt lat="43.77221" lon="3.84557">
        <ele>224.6</ele>
        <time>2026-05-21T08:18:19.000Z</time>
      </trkpt>
      <trkpt lat="43.77221" lon="3.84556">
        <ele>225.1</ele>
        <time>2026-05-21T08:18:20.000Z</time>
      </trkpt>
      <trkpt lat="43.77221" lon="3.84556">
        <ele>225.6</ele>
        <time>2026-05-21T08:18:21.000Z</time>
      </trkpt>
      <trkpt lat="43.77221" lon="3.84556">
        <ele>226</ele>
        <time>2026-05-21T08:18:22.000Z</time>
      </trkpt>
      <trkpt lat="43.77221" lon="3.84556">
        <ele>226.3</ele>
        <time>2026-05-21T08:18:23.000Z</time>
      </trkpt>
      <trkpt lat="43.77221" lon="3.84556">
        <ele>226.7</ele>
        <time>2026-05-21T08:18:24.000Z</time>
      </trkpt>
      <trkpt lat="43.77221" lon="3.84556">
        <ele>227</ele>
        <time>2026-05-21T08:18:25.000Z</time>
      </trkpt>
      <trkpt lat="43.77221" lon="3.84556">
        <ele>227</ele>
        <time>2026-05-21T08:18:26.000Z</time>
      </trkpt>
      <trkpt lat="43.77221" lon="3.84555">
        <ele>227.4</ele>
        <time>2026-05-21T08:18:27.000Z</time>
      </trkpt>
      <trkpt lat="43.77221" lon="3.84554">
        <ele>227.7</ele>
        <time>2026-05-21T08:18:28.000Z</time>
      </trkpt>
      <trkpt lat="43.77221" lon="3.84552">
        <ele>227.9</ele>
        <time>2026-05-21T08:18:29.000Z</time>
      </trkpt>
      <trkpt lat="43.7722" lon="3.84551">
        <ele>228.1</ele>
        <time>2026-05-21T08:18:30.000Z</time>
      </trkpt>
      <trkpt lat="43.7722" lon="3.8455">
        <ele>228.1</ele>
        <time>2026-05-21T08:18:31.000Z</time>
      </trkpt>
      <trkpt lat="43.7722" lon="3.84549">
        <ele>228.2</ele>
        <time>2026-05-21T08:18:32.000Z</time>
      </trkpt>
      <trkpt lat="43.7722" lon="3.84548">
        <ele>228.3</ele>
        <time>2026-05-21T08:18:33.000Z</time>
      </trkpt>
      <trkpt lat="43.77219" lon="3.84548">
        <ele>228.2</ele>
        <time>2026-05-21T08:18:34.000Z</time>
      </trkpt>
      <trkpt lat="43.77219" lon="3.84547">
        <ele>228</ele>
        <time>2026-05-21T08:18:35.000Z</time>
      </trkpt>
      <trkpt lat="43.77219" lon="3.84546">
        <ele>227.9</ele>
        <time>2026-05-21T08:18:36.000Z</time>
      </trkpt>
      <trkpt lat="43.77218" lon="3.84545">
        <ele>227.6</ele>
        <time>2026-05-21T08:18:37.000Z</time>
      </trkpt>
      <trkpt lat="43.77218" lon="3.84543">
        <ele>227.9</ele>
        <time>2026-05-21T08:18:38.000Z</time>
      </trkpt>
      <trkpt lat="43.77218" lon="3.84542">
        <ele>228</ele>
        <time>2026-05-21T08:18:39.000Z</time>
      </trkpt>
      <trkpt lat="43.77218" lon="3.84541">
        <ele>228.2</ele>
        <time>2026-05-21T08:18:40.000Z</time>
      </trkpt>
      <trkpt lat="43.77219" lon="3.84541">
        <ele>228.3</ele>
        <time>2026-05-21T08:18:41.000Z</time>
      </trkpt>
      <trkpt lat="43.77219" lon="3.8454">
        <ele>228.5</ele>
        <time>2026-05-21T08:18:42.000Z</time>
      </trkpt>
      <trkpt lat="43.77219" lon="3.84539">
        <ele>228.7</ele>
        <time>2026-05-21T08:18:43.000Z</time>
      </trkpt>
      <trkpt lat="43.77219" lon="3.84539">
        <ele>229.1</ele>
        <time>2026-05-21T08:18:44.000Z</time>
      </trkpt>
      <trkpt lat="43.7722" lon="3.84538">
        <ele>229.2</ele>
        <time>2026-05-21T08:18:45.000Z</time>
      </trkpt>
      <trkpt lat="43.7722" lon="3.84538">
        <ele>229.1</ele>
        <time>2026-05-21T08:18:46.000Z</time>
      </trkpt>
      <trkpt lat="43.7722" lon="3.84538">
        <ele>229.3</ele>
        <time>2026-05-21T08:18:47.000Z</time>
      </trkpt>
      <trkpt lat="43.7722" lon="3.84537">
        <ele>229.5</ele>
        <time>2026-05-21T08:18:48.000Z</time>
      </trkpt>
      <trkpt lat="43.77219" lon="3.84536">
        <ele>229.5</ele>
        <time>2026-05-21T08:18:49.000Z</time>
      </trkpt>
      <trkpt lat="43.77219" lon="3.84536">
        <ele>229.5</ele>
        <time>2026-05-21T08:18:50.000Z</time>
      </trkpt>
      <trkpt lat="43.77219" lon="3.84535">
        <ele>230.2</ele>
        <time>2026-05-21T08:18:51.000Z</time>
      </trkpt>
      <trkpt lat="43.77219" lon="3.84534">
        <ele>230.7</ele>
        <time>2026-05-21T08:18:52.000Z</time>
      </trkpt>
      <trkpt lat="43.7722" lon="3.84534">
        <ele>230.9</ele>
        <time>2026-05-21T08:18:53.000Z</time>
      </trkpt>
      <trkpt lat="43.7722" lon="3.84534">
        <ele>231.4</ele>
        <time>2026-05-21T08:18:54.000Z</time>
      </trkpt>
      <trkpt lat="43.77219" lon="3.84533">
        <ele>232.2</ele>
        <time>2026-05-21T08:18:55.000Z</time>
      </trkpt>
      <trkpt lat="43.7722" lon="3.84533">
        <ele>232.8</ele>
        <time>2026-05-21T08:18:56.000Z</time>
      </trkpt>
      <trkpt lat="43.7722" lon="3.84532">
        <ele>233.8</ele>
        <time>2026-05-21T08:18:57.000Z</time>
      </trkpt>
      <trkpt lat="43.77221" lon="3.84531">
        <ele>234.3</ele>
        <time>2026-05-21T08:18:58.000Z</time>
      </trkpt>
      <trkpt lat="43.77221" lon="3.8453">
        <ele>235.1</ele>
        <time>2026-05-21T08:18:59.000Z</time>
      </trkpt>
      <trkpt lat="43.77221" lon="3.8453">
        <ele>235.4</ele>
        <time>2026-05-21T08:19:00.000Z</time>
      </trkpt>
      <trkpt lat="43.77222" lon="3.8453">
        <ele>235.5</ele>
        <time>2026-05-21T08:19:01.000Z</time>
      </trkpt>
      <trkpt lat="43.77221" lon="3.84529">
        <ele>235.7</ele>
        <time>2026-05-21T08:19:02.000Z</time>
      </trkpt>
      <trkpt lat="43.77221" lon="3.84529">
        <ele>236.2</ele>
        <time>2026-05-21T08:19:03.000Z</time>
      </trkpt>
      <trkpt lat="43.77221" lon="3.84529">
        <ele>236.5</ele>
        <time>2026-05-21T08:19:04.000Z</time>
      </trkpt>
      <trkpt lat="43.77221" lon="3.84529">
        <ele>236.5</ele>
        <time>2026-05-21T08:19:05.000Z</time>
      </trkpt>
      <trkpt lat="43.77221" lon="3.84529">
        <ele>236.5</ele>
        <time>2026-05-21T08:19:06.000Z</time>
      </trkpt>
      <trkpt lat="43.77222" lon="3.84528">
        <ele>236.6</ele>
        <time>2026-05-21T08:19:07.000Z</time>
      </trkpt>
      <trkpt lat="43.77222" lon="3.84528">
        <ele>236.8</ele>
        <time>2026-05-21T08:19:08.000Z</time>
      </trkpt>
      <trkpt lat="43.77222" lon="3.84528">
        <ele>236.9</ele>
        <time>2026-05-21T08:19:09.000Z</time>
      </trkpt>
      <trkpt lat="43.77222" lon="3.84527">
        <ele>237.4</ele>
        <time>2026-05-21T08:19:10.000Z</time>
      </trkpt>
      <trkpt lat="43.77222" lon="3.84527">
        <ele>237.4</ele>
        <time>2026-05-21T08:19:11.000Z</time>
      </trkpt>
      <trkpt lat="43.77222" lon="3.84527">
        <ele>237.6</ele>
        <time>2026-05-21T08:19:12.000Z</time>
      </trkpt>
      <trkpt lat="43.77222" lon="3.84527">
        <ele>237.3</ele>
        <time>2026-05-21T08:19:13.000Z</time>
      </trkpt>
      <trkpt lat="43.77222" lon="3.84527">
        <ele>237.3</ele>
        <time>2026-05-21T08:19:14.000Z</time>
      </trkpt>
      <trkpt lat="43.77223" lon="3.84525">
        <ele>237.4</ele>
        <time>2026-05-21T08:19:15.000Z</time>
      </trkpt>
      <trkpt lat="43.77222" lon="3.84524">
        <ele>238</ele>
        <time>2026-05-21T08:19:16.000Z</time>
      </trkpt>
      <trkpt lat="43.77222" lon="3.84523">
        <ele>238.1</ele>
        <time>2026-05-21T08:19:17.000Z</time>
      </trkpt>
      <trkpt lat="43.77222" lon="3.84523">
        <ele>238.1</ele>
        <time>2026-05-21T08:19:18.000Z</time>
      </trkpt>
      <trkpt lat="43.77222" lon="3.84523">
        <ele>238.2</ele>
        <time>2026-05-21T08:19:19.000Z</time>
      </trkpt>
      <trkpt lat="43.77222" lon="3.84523">
        <ele>238.2</ele>
        <time>2026-05-21T08:19:20.000Z</time>
      </trkpt>
      <trkpt lat="43.77222" lon="3.84522">
        <ele>238.6</ele>
        <time>2026-05-21T08:19:21.000Z</time>
      </trkpt>
      <trkpt lat="43.77222" lon="3.84522">
        <ele>238.5</ele>
        <time>2026-05-21T08:19:22.000Z</time>
      </trkpt>
      <trkpt lat="43.77222" lon="3.84522">
        <ele>238.4</ele>
        <time>2026-05-21T08:19:23.000Z</time>
      </trkpt>
      <trkpt lat="43.77222" lon="3.84521">
        <ele>238.2</ele>
        <time>2026-05-21T08:19:24.000Z</time>
      </trkpt>
      <trkpt lat="43.77222" lon="3.84521">
        <ele>238</ele>
        <time>2026-05-21T08:19:25.000Z</time>
      </trkpt>
      <trkpt lat="43.77222" lon="3.84521">
        <ele>237.9</ele>
        <time>2026-05-21T08:19:26.000Z</time>
      </trkpt>
      <trkpt lat="43.77222" lon="3.84521">
        <ele>237.8</ele>
        <time>2026-05-21T08:19:27.000Z</time>
      </trkpt>
      <trkpt lat="43.77222" lon="3.8452">
        <ele>237.7</ele>
        <time>2026-05-21T08:19:28.000Z</time>
      </trkpt>
      <trkpt lat="43.77222" lon="3.84519">
        <ele>237.9</ele>
        <time>2026-05-21T08:19:29.000Z</time>
      </trkpt>
      <trkpt lat="43.77222" lon="3.84519">
        <ele>238.6</ele>
        <time>2026-05-21T08:19:30.000Z</time>
      </trkpt>
      <trkpt lat="43.77221" lon="3.84518">
        <ele>239.2</ele>
        <time>2026-05-21T08:19:31.000Z</time>
      </trkpt>
      <trkpt lat="43.77221" lon="3.84518">
        <ele>239.4</ele>
        <time>2026-05-21T08:19:32.000Z</time>
      </trkpt>
      <trkpt lat="43.77221" lon="3.84518">
        <ele>239.7</ele>
        <time>2026-05-21T08:19:33.000Z</time>
      </trkpt>
      <trkpt lat="43.77221" lon="3.84518">
        <ele>239.8</ele>
        <time>2026-05-21T08:19:34.000Z</time>
      </trkpt>
      <trkpt lat="43.77221" lon="3.84517">
        <ele>240</ele>
        <time>2026-05-21T08:19:35.000Z</time>
      </trkpt>
      <trkpt lat="43.77221" lon="3.84517">
        <ele>239.9</ele>
        <time>2026-05-21T08:19:36.000Z</time>
      </trkpt>
      <trkpt lat="43.77221" lon="3.84517">
        <ele>239.8</ele>
        <time>2026-05-21T08:19:37.000Z</time>
      </trkpt>
      <trkpt lat="43.77221" lon="3.84516">
        <ele>240</ele>
        <time>2026-05-21T08:19:38.000Z</time>
      </trkpt>
      <trkpt lat="43.77221" lon="3.84516">
        <ele>240</ele>
        <time>2026-05-21T08:19:39.000Z</time>
      </trkpt>
      <trkpt lat="43.77221" lon="3.84516">
        <ele>240.1</ele>
        <time>2026-05-21T08:19:40.000Z</time>
      </trkpt>
      <trkpt lat="43.77221" lon="3.84516">
        <ele>240.3</ele>
        <time>2026-05-21T08:19:41.000Z</time>
      </trkpt>
      <trkpt lat="43.77221" lon="3.84515">
        <ele>240.8</ele>
        <time>2026-05-21T08:19:42.000Z</time>
      </trkpt>
      <trkpt lat="43.77221" lon="3.84515">
        <ele>240.9</ele>
        <time>2026-05-21T08:19:43.000Z</time>
      </trkpt>
      <trkpt lat="43.77221" lon="3.84515">
        <ele>241</ele>
        <time>2026-05-21T08:19:44.000Z</time>
      </trkpt>
      <trkpt lat="43.77221" lon="3.84514">
        <ele>241.3</ele>
        <time>2026-05-21T08:19:45.000Z</time>
      </trkpt>
      <trkpt lat="43.7722" lon="3.84514">
        <ele>241.5</ele>
        <time>2026-05-21T08:19:46.000Z</time>
      </trkpt>
      <trkpt lat="43.7722" lon="3.84514">
        <ele>241.7</ele>
        <time>2026-05-21T08:19:47.000Z</time>
      </trkpt>
      <trkpt lat="43.7722" lon="3.84513">
        <ele>241.7</ele>
        <time>2026-05-21T08:19:48.000Z</time>
      </trkpt>
      <trkpt lat="43.7722" lon="3.84512">
        <ele>241.9</ele>
        <time>2026-05-21T08:19:49.000Z</time>
      </trkpt>
      <trkpt lat="43.7722" lon="3.84511">
        <ele>241.9</ele>
        <time>2026-05-21T08:19:50.000Z</time>
      </trkpt>
      <trkpt lat="43.7722" lon="3.84511">
        <ele>242</ele>
        <time>2026-05-21T08:19:51.000Z</time>
      </trkpt>
      <trkpt lat="43.7722" lon="3.8451">
        <ele>242</ele>
        <time>2026-05-21T08:19:52.000Z</time>
      </trkpt>
      <trkpt lat="43.7722" lon="3.8451">
        <ele>242.1</ele>
        <time>2026-05-21T08:19:53.000Z</time>
      </trkpt>
      <trkpt lat="43.7722" lon="3.8451">
        <ele>242.4</ele>
        <time>2026-05-21T08:19:54.000Z</time>
      </trkpt>
      <trkpt lat="43.7722" lon="3.84509">
        <ele>242.7</ele>
        <time>2026-05-21T08:19:55.000Z</time>
      </trkpt>
      <trkpt lat="43.7722" lon="3.84508">
        <ele>242.8</ele>
        <time>2026-05-21T08:19:56.000Z</time>
      </trkpt>
      <trkpt lat="43.7722" lon="3.84508">
        <ele>243</ele>
        <time>2026-05-21T08:19:57.000Z</time>
      </trkpt>
      <trkpt lat="43.7722" lon="3.84507">
        <ele>243.1</ele>
        <time>2026-05-21T08:19:58.000Z</time>
      </trkpt>
      <trkpt lat="43.7722" lon="3.84506">
        <ele>243.1</ele>
        <time>2026-05-21T08:19:59.000Z</time>
      </trkpt>
      <trkpt lat="43.7722" lon="3.84505">
        <ele>243.1</ele>
        <time>2026-05-21T08:20:00.000Z</time>
      </trkpt>
      <trkpt lat="43.7722" lon="3.84505">
        <ele>243.4</ele>
        <time>2026-05-21T08:20:01.000Z</time>
      </trkpt>
      <trkpt lat="43.7722" lon="3.84504">
        <ele>243.4</ele>
        <time>2026-05-21T08:20:02.000Z</time>
      </trkpt>
      <trkpt lat="43.7722" lon="3.84504">
        <ele>243.6</ele>
        <time>2026-05-21T08:20:03.000Z</time>
      </trkpt>
      <trkpt lat="43.7722" lon="3.84504">
        <ele>243.6</ele>
        <time>2026-05-21T08:20:04.000Z</time>
      </trkpt>
      <trkpt lat="43.7722" lon="3.84503">
        <ele>243.5</ele>
        <time>2026-05-21T08:20:05.000Z</time>
      </trkpt>
      <trkpt lat="43.7722" lon="3.84503">
        <ele>243.6</ele>
        <time>2026-05-21T08:20:06.000Z</time>
      </trkpt>
      <trkpt lat="43.77221" lon="3.84502">
        <ele>243.3</ele>
        <time>2026-05-21T08:20:07.000Z</time>
      </trkpt>
      <trkpt lat="43.77221" lon="3.84502">
        <ele>243.2</ele>
        <time>2026-05-21T08:20:08.000Z</time>
      </trkpt>
      <trkpt lat="43.77221" lon="3.84501">
        <ele>243</ele>
        <time>2026-05-21T08:20:09.000Z</time>
      </trkpt>
      <trkpt lat="43.77221" lon="3.84501">
        <ele>243.2</ele>
        <time>2026-05-21T08:20:10.000Z</time>
      </trkpt>
      <trkpt lat="43.77221" lon="3.845">
        <ele>243.4</ele>
        <time>2026-05-21T08:20:11.000Z</time>
      </trkpt>
      <trkpt lat="43.7722" lon="3.84499">
        <ele>243.5</ele>
        <time>2026-05-21T08:20:12.000Z</time>
      </trkpt>
      <trkpt lat="43.7722" lon="3.84497">
        <ele>243.9</ele>
        <time>2026-05-21T08:20:13.000Z</time>
      </trkpt>
      <trkpt lat="43.7722" lon="3.84494">
        <ele>244</ele>
        <time>2026-05-21T08:20:14.000Z</time>
      </trkpt>
      <trkpt lat="43.7722" lon="3.84492">
        <ele>244.3</ele>
        <time>2026-05-21T08:20:15.000Z</time>
      </trkpt>
      <trkpt lat="43.77221" lon="3.8449">
        <ele>244.5</ele>
        <time>2026-05-21T08:20:16.000Z</time>
      </trkpt>
      <trkpt lat="43.77221" lon="3.84489">
        <ele>244.7</ele>
        <time>2026-05-21T08:20:17.000Z</time>
      </trkpt>
      <trkpt lat="43.77221" lon="3.84489">
        <ele>244.9</ele>
        <time>2026-05-21T08:20:18.000Z</time>
      </trkpt>
      <trkpt lat="43.77221" lon="3.84489">
        <ele>245.2</ele>
        <time>2026-05-21T08:20:19.000Z</time>
      </trkpt>
      <trkpt lat="43.77221" lon="3.84488">
        <ele>245.2</ele>
        <time>2026-05-21T08:20:20.000Z</time>
      </trkpt>
      <trkpt lat="43.77221" lon="3.84488">
        <ele>245.3</ele>
        <time>2026-05-21T08:20:21.000Z</time>
      </trkpt>
      <trkpt lat="43.77221" lon="3.84488">
        <ele>245.5</ele>
        <time>2026-05-21T08:20:22.000Z</time>
      </trkpt>
      <trkpt lat="43.77221" lon="3.84488">
        <ele>245.6</ele>
        <time>2026-05-21T08:20:23.000Z</time>
      </trkpt>
      <trkpt lat="43.77221" lon="3.84488">
        <ele>246</ele>
        <time>2026-05-21T08:20:24.000Z</time>
      </trkpt>
      <trkpt lat="43.77221" lon="3.84488">
        <ele>246.2</ele>
        <time>2026-05-21T08:20:25.000Z</time>
      </trkpt>
      <trkpt lat="43.77221" lon="3.84487">
        <ele>246.5</ele>
        <time>2026-05-21T08:20:26.000Z</time>
      </trkpt>
      <trkpt lat="43.77221" lon="3.84487">
        <ele>246.8</ele>
        <time>2026-05-21T08:20:27.000Z</time>
      </trkpt>
      <trkpt lat="43.77222" lon="3.84487">
        <ele>247</ele>
        <time>2026-05-21T08:20:28.000Z</time>
      </trkpt>
      <trkpt lat="43.77222" lon="3.84487">
        <ele>247.1</ele>
        <time>2026-05-21T08:20:29.000Z</time>
      </trkpt>
      <trkpt lat="43.77222" lon="3.84487">
        <ele>247.2</ele>
        <time>2026-05-21T08:20:30.000Z</time>
      </trkpt>
      <trkpt lat="43.77222" lon="3.84487">
        <ele>247.2</ele>
        <time>2026-05-21T08:20:31.000Z</time>
      </trkpt>
      <trkpt lat="43.77222" lon="3.84487">
        <ele>247.5</ele>
        <time>2026-05-21T08:20:32.000Z</time>
      </trkpt>
      <trkpt lat="43.77222" lon="3.84487">
        <ele>247.7</ele>
        <time>2026-05-21T08:20:33.000Z</time>
      </trkpt>
      <trkpt lat="43.77222" lon="3.84486">
        <ele>248</ele>
        <time>2026-05-21T08:20:34.000Z</time>
      </trkpt>
      <trkpt lat="43.77222" lon="3.84486">
        <ele>248.2</ele>
        <time>2026-05-21T08:20:35.000Z</time>
      </trkpt>
      <trkpt lat="43.77221" lon="3.84486">
        <ele>248.5</ele>
        <time>2026-05-21T08:20:36.000Z</time>
      </trkpt>
      <trkpt lat="43.77221" lon="3.84485">
        <ele>248.5</ele>
        <time>2026-05-21T08:20:37.000Z</time>
      </trkpt>
      <trkpt lat="43.77221" lon="3.84485">
        <ele>248.5</ele>
        <time>2026-05-21T08:20:38.000Z</time>
      </trkpt>
      <trkpt lat="43.77221" lon="3.84484">
        <ele>248.5</ele>
        <time>2026-05-21T08:20:39.000Z</time>
      </trkpt>
      <trkpt lat="43.77221" lon="3.84485">
        <ele>248.5</ele>
        <time>2026-05-21T08:20:40.000Z</time>
      </trkpt>
      <trkpt lat="43.77221" lon="3.84485">
        <ele>248.6</ele>
        <time>2026-05-21T08:20:41.000Z</time>
      </trkpt>
      <trkpt lat="43.77221" lon="3.84484">
        <ele>248.4</ele>
        <time>2026-05-21T08:20:42.000Z</time>
      </trkpt>
      <trkpt lat="43.7722" lon="3.84484">
        <ele>248.4</ele>
        <time>2026-05-21T08:20:43.000Z</time>
      </trkpt>
      <trkpt lat="43.7722" lon="3.84484">
        <ele>248.5</ele>
        <time>2026-05-21T08:20:44.000Z</time>
      </trkpt>
      <trkpt lat="43.7722" lon="3.84484">
        <ele>248.4</ele>
        <time>2026-05-21T08:20:45.000Z</time>
      </trkpt>
      <trkpt lat="43.7722" lon="3.84484">
        <ele>248.5</ele>
        <time>2026-05-21T08:20:46.000Z</time>
      </trkpt>
      <trkpt lat="43.7722" lon="3.84484">
        <ele>248.7</ele>
        <time>2026-05-21T08:20:47.000Z</time>
      </trkpt>
      <trkpt lat="43.7722" lon="3.84484">
        <ele>248.8</ele>
        <time>2026-05-21T08:20:48.000Z</time>
      </trkpt>
      <trkpt lat="43.7722" lon="3.84484">
        <ele>249</ele>
        <time>2026-05-21T08:20:49.000Z</time>
      </trkpt>
      <trkpt lat="43.7722" lon="3.84484">
        <ele>249.3</ele>
        <time>2026-05-21T08:20:50.000Z</time>
      </trkpt>
      <trkpt lat="43.77219" lon="3.84484">
        <ele>249.3</ele>
        <time>2026-05-21T08:20:51.000Z</time>
      </trkpt>
      <trkpt lat="43.77219" lon="3.84484">
        <ele>249.5</ele>
        <time>2026-05-21T08:20:52.000Z</time>
      </trkpt>
      <trkpt lat="43.77219" lon="3.84483">
        <ele>250.1</ele>
        <time>2026-05-21T08:20:53.000Z</time>
      </trkpt>
      <trkpt lat="43.77219" lon="3.84483">
        <ele>250.5</ele>
        <time>2026-05-21T08:20:54.000Z</time>
      </trkpt>
      <trkpt lat="43.77219" lon="3.84483">
        <ele>251</ele>
        <time>2026-05-21T08:20:55.000Z</time>
      </trkpt>
      <trkpt lat="43.77219" lon="3.84483">
        <ele>251.3</ele>
        <time>2026-05-21T08:20:56.000Z</time>
      </trkpt>
      <trkpt lat="43.77218" lon="3.84482">
        <ele>251.7</ele>
        <time>2026-05-21T08:20:57.000Z</time>
      </trkpt>
      <trkpt lat="43.77218" lon="3.84482">
        <ele>251.7</ele>
        <time>2026-05-21T08:20:58.000Z</time>
      </trkpt>
      <trkpt lat="43.77218" lon="3.84482">
        <ele>251.8</ele>
        <time>2026-05-21T08:20:59.000Z</time>
      </trkpt>
      <trkpt lat="43.77218" lon="3.84482">
        <ele>252.1</ele>
        <time>2026-05-21T08:21:00.000Z</time>
      </trkpt>
      <trkpt lat="43.77218" lon="3.84482">
        <ele>252.3</ele>
        <time>2026-05-21T08:21:01.000Z</time>
      </trkpt>
      <trkpt lat="43.77218" lon="3.84481">
        <ele>252.5</ele>
        <time>2026-05-21T08:21:02.000Z</time>
      </trkpt>
      <trkpt lat="43.77217" lon="3.84481">
        <ele>252.8</ele>
        <time>2026-05-21T08:21:03.000Z</time>
      </trkpt>
      <trkpt lat="43.77217" lon="3.84481">
        <ele>252.8</ele>
        <time>2026-05-21T08:21:04.000Z</time>
      </trkpt>
      <trkpt lat="43.77217" lon="3.84481">
        <ele>252.6</ele>
        <time>2026-05-21T08:21:05.000Z</time>
      </trkpt>
      <trkpt lat="43.77216" lon="3.84481">
        <ele>252.4</ele>
        <time>2026-05-21T08:21:06.000Z</time>
      </trkpt>
      <trkpt lat="43.77216" lon="3.84481">
        <ele>252.4</ele>
        <time>2026-05-21T08:21:07.000Z</time>
      </trkpt>
      <trkpt lat="43.77215" lon="3.84481">
        <ele>252.1</ele>
        <time>2026-05-21T08:21:08.000Z</time>
      </trkpt>
      <trkpt lat="43.77215" lon="3.84481">
        <ele>252.1</ele>
        <time>2026-05-21T08:21:09.000Z</time>
      </trkpt>
      <trkpt lat="43.77215" lon="3.84481">
        <ele>252.2</ele>
        <time>2026-05-21T08:21:10.000Z</time>
      </trkpt>
      <trkpt lat="43.77215" lon="3.84481">
        <ele>252.4</ele>
        <time>2026-05-21T08:21:11.000Z</time>
      </trkpt>
      <trkpt lat="43.77215" lon="3.84481">
        <ele>252.2</ele>
        <time>2026-05-21T08:21:12.000Z</time>
      </trkpt>
      <trkpt lat="43.77214" lon="3.8448">
        <ele>252.4</ele>
        <time>2026-05-21T08:21:13.000Z</time>
      </trkpt>
      <trkpt lat="43.77214" lon="3.8448">
        <ele>252.6</ele>
        <time>2026-05-21T08:21:14.000Z</time>
      </trkpt>
      <trkpt lat="43.77213" lon="3.8448">
        <ele>253</ele>
        <time>2026-05-21T08:21:15.000Z</time>
      </trkpt>
      <trkpt lat="43.77212" lon="3.8448">
        <ele>253.2</ele>
        <time>2026-05-21T08:21:16.000Z</time>
      </trkpt>
      <trkpt lat="43.77212" lon="3.8448">
        <ele>253.1</ele>
        <time>2026-05-21T08:21:17.000Z</time>
      </trkpt>
      <trkpt lat="43.77212" lon="3.8448">
        <ele>253</ele>
        <time>2026-05-21T08:21:18.000Z</time>
      </trkpt>
      <trkpt lat="43.77212" lon="3.8448">
        <ele>252.9</ele>
        <time>2026-05-21T08:21:19.000Z</time>
      </trkpt>
      <trkpt lat="43.77212" lon="3.8448">
        <ele>253</ele>
        <time>2026-05-21T08:21:20.000Z</time>
      </trkpt>
      <trkpt lat="43.77211" lon="3.8448">
        <ele>253.1</ele>
        <time>2026-05-21T08:21:21.000Z</time>
      </trkpt>
      <trkpt lat="43.77211" lon="3.84479">
        <ele>253.2</ele>
        <time>2026-05-21T08:21:22.000Z</time>
      </trkpt>
      <trkpt lat="43.7721" lon="3.84479">
        <ele>253.2</ele>
        <time>2026-05-21T08:21:23.000Z</time>
      </trkpt>
      <trkpt lat="43.7721" lon="3.84479">
        <ele>253.2</ele>
        <time>2026-05-21T08:21:24.000Z</time>
      </trkpt>
      <trkpt lat="43.7721" lon="3.84479">
        <ele>253.8</ele>
        <time>2026-05-21T08:21:25.000Z</time>
      </trkpt>
      <trkpt lat="43.77209" lon="3.84479">
        <ele>254.3</ele>
        <time>2026-05-21T08:21:26.000Z</time>
      </trkpt>
      <trkpt lat="43.77209" lon="3.84479">
        <ele>254.5</ele>
        <time>2026-05-21T08:21:27.000Z</time>
      </trkpt>
      <trkpt lat="43.77209" lon="3.84479">
        <ele>254.7</ele>
        <time>2026-05-21T08:21:28.000Z</time>
      </trkpt>
      <trkpt lat="43.77209" lon="3.84479">
        <ele>254.8</ele>
        <time>2026-05-21T08:21:29.000Z</time>
      </trkpt>
      <trkpt lat="43.77209" lon="3.84478">
        <ele>255.1</ele>
        <time>2026-05-21T08:21:30.000Z</time>
      </trkpt>
      <trkpt lat="43.77209" lon="3.84476">
        <ele>254.9</ele>
        <time>2026-05-21T08:21:31.000Z</time>
      </trkpt>
      <trkpt lat="43.77208" lon="3.84474">
        <ele>255.4</ele>
        <time>2026-05-21T08:21:32.000Z</time>
      </trkpt>
      <trkpt lat="43.77208" lon="3.84472">
        <ele>255.8</ele>
        <time>2026-05-21T08:21:33.000Z</time>
      </trkpt>
      <trkpt lat="43.77208" lon="3.84472">
        <ele>255.9</ele>
        <time>2026-05-21T08:21:34.000Z</time>
      </trkpt>
      <trkpt lat="43.77208" lon="3.84472">
        <ele>255.9</ele>
        <time>2026-05-21T08:21:35.000Z</time>
      </trkpt>
      <trkpt lat="43.77208" lon="3.84471">
        <ele>256</ele>
        <time>2026-05-21T08:21:36.000Z</time>
      </trkpt>
      <trkpt lat="43.77208" lon="3.84471">
        <ele>256</ele>
        <time>2026-05-21T08:21:37.000Z</time>
      </trkpt>
      <trkpt lat="43.77208" lon="3.84471">
        <ele>256.1</ele>
        <time>2026-05-21T08:21:38.000Z</time>
      </trkpt>
      <trkpt lat="43.77207" lon="3.84471">
        <ele>256</ele>
        <time>2026-05-21T08:21:39.000Z</time>
      </trkpt>
      <trkpt lat="43.77207" lon="3.84471">
        <ele>255.7</ele>
        <time>2026-05-21T08:21:40.000Z</time>
      </trkpt>
      <trkpt lat="43.77207" lon="3.8447">
        <ele>255.6</ele>
        <time>2026-05-21T08:21:41.000Z</time>
      </trkpt>
      <trkpt lat="43.77206" lon="3.8447">
        <ele>255.7</ele>
        <time>2026-05-21T08:21:42.000Z</time>
      </trkpt>
      <trkpt lat="43.77206" lon="3.8447">
        <ele>255.7</ele>
        <time>2026-05-21T08:21:43.000Z</time>
      </trkpt>
      <trkpt lat="43.77205" lon="3.8447">
        <ele>255.6</ele>
        <time>2026-05-21T08:21:44.000Z</time>
      </trkpt>
      <trkpt lat="43.77205" lon="3.8447">
        <ele>255.4</ele>
        <time>2026-05-21T08:21:45.000Z</time>
      </trkpt>
      <trkpt lat="43.77205" lon="3.8447">
        <ele>255.4</ele>
        <time>2026-05-21T08:21:46.000Z</time>
      </trkpt>
      <trkpt lat="43.77205" lon="3.8447">
        <ele>255.8</ele>
        <time>2026-05-21T08:21:47.000Z</time>
      </trkpt>
      <trkpt lat="43.77205" lon="3.8447">
        <ele>255.9</ele>
        <time>2026-05-21T08:21:48.000Z</time>
      </trkpt>
      <trkpt lat="43.77205" lon="3.8447">
        <ele>255.9</ele>
        <time>2026-05-21T08:21:49.000Z</time>
      </trkpt>
      <trkpt lat="43.77205" lon="3.8447">
        <ele>256.4</ele>
        <time>2026-05-21T08:21:50.000Z</time>
      </trkpt>
      <trkpt lat="43.77205" lon="3.8447">
        <ele>256.8</ele>
        <time>2026-05-21T08:21:51.000Z</time>
      </trkpt>
      <trkpt lat="43.77204" lon="3.8447">
        <ele>256.9</ele>
        <time>2026-05-21T08:21:52.000Z</time>
      </trkpt>
      <trkpt lat="43.77204" lon="3.8447">
        <ele>257.3</ele>
        <time>2026-05-21T08:21:53.000Z</time>
      </trkpt>
      <trkpt lat="43.77204" lon="3.8447">
        <ele>257.7</ele>
        <time>2026-05-21T08:21:54.000Z</time>
      </trkpt>
      <trkpt lat="43.77204" lon="3.8447">
        <ele>258.5</ele>
        <time>2026-05-21T08:21:55.000Z</time>
      </trkpt>
      <trkpt lat="43.77204" lon="3.8447">
        <ele>259.2</ele>
        <time>2026-05-21T08:21:56.000Z</time>
      </trkpt>
      <trkpt lat="43.77204" lon="3.8447">
        <ele>259.8</ele>
        <time>2026-05-21T08:21:57.000Z</time>
      </trkpt>
      <trkpt lat="43.77204" lon="3.84469">
        <ele>260.3</ele>
        <time>2026-05-21T08:21:58.000Z</time>
      </trkpt>
      <trkpt lat="43.77204" lon="3.8447">
        <ele>260.6</ele>
        <time>2026-05-21T08:21:59.000Z</time>
      </trkpt>
      <trkpt lat="43.77204" lon="3.84469">
        <ele>260.9</ele>
        <time>2026-05-21T08:22:00.000Z</time>
      </trkpt>
      <trkpt lat="43.77204" lon="3.84469">
        <ele>261</ele>
        <time>2026-05-21T08:22:01.000Z</time>
      </trkpt>
      <trkpt lat="43.77203" lon="3.84469">
        <ele>261</ele>
        <time>2026-05-21T08:22:02.000Z</time>
      </trkpt>
      <trkpt lat="43.77203" lon="3.84469">
        <ele>261.1</ele>
        <time>2026-05-21T08:22:03.000Z</time>
      </trkpt>
      <trkpt lat="43.77203" lon="3.84469">
        <ele>261.2</ele>
        <time>2026-05-21T08:22:04.000Z</time>
      </trkpt>
      <trkpt lat="43.77203" lon="3.84469">
        <ele>261.4</ele>
        <time>2026-05-21T08:22:05.000Z</time>
      </trkpt>
      <trkpt lat="43.77203" lon="3.84468">
        <ele>261.5</ele>
        <time>2026-05-21T08:22:06.000Z</time>
      </trkpt>
      <trkpt lat="43.77203" lon="3.84468">
        <ele>261.6</ele>
        <time>2026-05-21T08:22:07.000Z</time>
      </trkpt>
      <trkpt lat="43.77202" lon="3.84468">
        <ele>261.7</ele>
        <time>2026-05-21T08:22:08.000Z</time>
      </trkpt>
      <trkpt lat="43.77202" lon="3.84468">
        <ele>261.8</ele>
        <time>2026-05-21T08:22:09.000Z</time>
      </trkpt>
      <trkpt lat="43.77202" lon="3.84468">
        <ele>262.1</ele>
        <time>2026-05-21T08:22:10.000Z</time>
      </trkpt>
      <trkpt lat="43.77202" lon="3.84468">
        <ele>262.5</ele>
        <time>2026-05-21T08:22:11.000Z</time>
      </trkpt>
      <trkpt lat="43.77201" lon="3.84467">
        <ele>262.8</ele>
        <time>2026-05-21T08:22:12.000Z</time>
      </trkpt>
      <trkpt lat="43.77201" lon="3.84468">
        <ele>262.9</ele>
        <time>2026-05-21T08:22:13.000Z</time>
      </trkpt>
      <trkpt lat="43.772" lon="3.84467">
        <ele>262.8</ele>
        <time>2026-05-21T08:22:14.000Z</time>
      </trkpt>
      <trkpt lat="43.772" lon="3.84466">
        <ele>262.9</ele>
        <time>2026-05-21T08:22:15.000Z</time>
      </trkpt>
      <trkpt lat="43.772" lon="3.84465">
        <ele>262.9</ele>
        <time>2026-05-21T08:22:16.000Z</time>
      </trkpt>
      <trkpt lat="43.77199" lon="3.84464">
        <ele>262.8</ele>
        <time>2026-05-21T08:22:17.000Z</time>
      </trkpt>
      <trkpt lat="43.77198" lon="3.84464">
        <ele>262.9</ele>
        <time>2026-05-21T08:22:18.000Z</time>
      </trkpt>
      <trkpt lat="43.77197" lon="3.84463">
        <ele>262.9</ele>
        <time>2026-05-21T08:22:19.000Z</time>
      </trkpt>
      <trkpt lat="43.77197" lon="3.84463">
        <ele>263.1</ele>
        <time>2026-05-21T08:22:20.000Z</time>
      </trkpt>
      <trkpt lat="43.77197" lon="3.84463">
        <ele>263.4</ele>
        <time>2026-05-21T08:22:21.000Z</time>
      </trkpt>
      <trkpt lat="43.77197" lon="3.84463">
        <ele>263.6</ele>
        <time>2026-05-21T08:22:22.000Z</time>
      </trkpt>
      <trkpt lat="43.77196" lon="3.84463">
        <ele>263.7</ele>
        <time>2026-05-21T08:22:23.000Z</time>
      </trkpt>
      <trkpt lat="43.77195" lon="3.84463">
        <ele>263.8</ele>
        <time>2026-05-21T08:22:24.000Z</time>
      </trkpt>
      <trkpt lat="43.77194" lon="3.84463">
        <ele>264</ele>
        <time>2026-05-21T08:22:25.000Z</time>
      </trkpt>
      <trkpt lat="43.77194" lon="3.84463">
        <ele>264.2</ele>
        <time>2026-05-21T08:22:26.000Z</time>
      </trkpt>
      <trkpt lat="43.77193" lon="3.84463">
        <ele>264.4</ele>
        <time>2026-05-21T08:22:27.000Z</time>
      </trkpt>
      <trkpt lat="43.77193" lon="3.84463">
        <ele>264.6</ele>
        <time>2026-05-21T08:22:28.000Z</time>
      </trkpt>
      <trkpt lat="43.77193" lon="3.84464">
        <ele>264.8</ele>
        <time>2026-05-21T08:22:29.000Z</time>
      </trkpt>
      <trkpt lat="43.77193" lon="3.84464">
        <ele>264.9</ele>
        <time>2026-05-21T08:22:30.000Z</time>
      </trkpt>
      <trkpt lat="43.77193" lon="3.84464">
        <ele>265.2</ele>
        <time>2026-05-21T08:22:31.000Z</time>
      </trkpt>
      <trkpt lat="43.77193" lon="3.84464">
        <ele>265.3</ele>
        <time>2026-05-21T08:22:32.000Z</time>
      </trkpt>
      <trkpt lat="43.77193" lon="3.84464">
        <ele>265.2</ele>
        <time>2026-05-21T08:22:33.000Z</time>
      </trkpt>
      <trkpt lat="43.77192" lon="3.84464">
        <ele>265.5</ele>
        <time>2026-05-21T08:22:34.000Z</time>
      </trkpt>
      <trkpt lat="43.77192" lon="3.84463">
        <ele>265.9</ele>
        <time>2026-05-21T08:22:35.000Z</time>
      </trkpt>
      <trkpt lat="43.77192" lon="3.84462">
        <ele>266.6</ele>
        <time>2026-05-21T08:22:36.000Z</time>
      </trkpt>
      <trkpt lat="43.77192" lon="3.84461">
        <ele>266.9</ele>
        <time>2026-05-21T08:22:37.000Z</time>
      </trkpt>
      <trkpt lat="43.77193" lon="3.84461">
        <ele>267.3</ele>
        <time>2026-05-21T08:22:38.000Z</time>
      </trkpt>
      <trkpt lat="43.77193" lon="3.8446">
        <ele>267.8</ele>
        <time>2026-05-21T08:22:39.000Z</time>
      </trkpt>
      <trkpt lat="43.77193" lon="3.8446">
        <ele>268.2</ele>
        <time>2026-05-21T08:22:40.000Z</time>
      </trkpt>
      <trkpt lat="43.77192" lon="3.8446">
        <ele>268.7</ele>
        <time>2026-05-21T08:22:41.000Z</time>
      </trkpt>
      <trkpt lat="43.77192" lon="3.8446">
        <ele>269.1</ele>
        <time>2026-05-21T08:22:42.000Z</time>
      </trkpt>
      <trkpt lat="43.77192" lon="3.84459">
        <ele>269.3</ele>
        <time>2026-05-21T08:22:43.000Z</time>
      </trkpt>
      <trkpt lat="43.77192" lon="3.84459">
        <ele>269.5</ele>
        <time>2026-05-21T08:22:44.000Z</time>
      </trkpt>
      <trkpt lat="43.77192" lon="3.84459">
        <ele>269.7</ele>
        <time>2026-05-21T08:22:45.000Z</time>
      </trkpt>
      <trkpt lat="43.77192" lon="3.8446">
        <ele>269.9</ele>
        <time>2026-05-21T08:22:46.000Z</time>
      </trkpt>
      <trkpt lat="43.77192" lon="3.8446">
        <ele>270.1</ele>
        <time>2026-05-21T08:22:47.000Z</time>
      </trkpt>
      <trkpt lat="43.77192" lon="3.8446">
        <ele>270.2</ele>
        <time>2026-05-21T08:22:48.000Z</time>
      </trkpt>
      <trkpt lat="43.77192" lon="3.84459">
        <ele>270.3</ele>
        <time>2026-05-21T08:22:49.000Z</time>
      </trkpt>
      <trkpt lat="43.77192" lon="3.84459">
        <ele>270.7</ele>
        <time>2026-05-21T08:22:50.000Z</time>
      </trkpt>
      <trkpt lat="43.77192" lon="3.84459">
        <ele>270.9</ele>
        <time>2026-05-21T08:22:51.000Z</time>
      </trkpt>
      <trkpt lat="43.77192" lon="3.84459">
        <ele>271.1</ele>
        <time>2026-05-21T08:22:52.000Z</time>
      </trkpt>
      <trkpt lat="43.77191" lon="3.84459">
        <ele>271.2</ele>
        <time>2026-05-21T08:22:53.000Z</time>
      </trkpt>
      <trkpt lat="43.77191" lon="3.84459">
        <ele>271.4</ele>
        <time>2026-05-21T08:22:54.000Z</time>
      </trkpt>
      <trkpt lat="43.77191" lon="3.84458">
        <ele>271.7</ele>
        <time>2026-05-21T08:22:55.000Z</time>
      </trkpt>
      <trkpt lat="43.77191" lon="3.84458">
        <ele>271.7</ele>
        <time>2026-05-21T08:22:56.000Z</time>
      </trkpt>
      <trkpt lat="43.77191" lon="3.84458">
        <ele>271.7</ele>
        <time>2026-05-21T08:22:57.000Z</time>
      </trkpt>
      <trkpt lat="43.77191" lon="3.84458">
        <ele>271.9</ele>
        <time>2026-05-21T08:22:58.000Z</time>
      </trkpt>
      <trkpt lat="43.77191" lon="3.84458">
        <ele>272.3</ele>
        <time>2026-05-21T08:22:59.000Z</time>
      </trkpt>
      <trkpt lat="43.77191" lon="3.84457">
        <ele>272.4</ele>
        <time>2026-05-21T08:23:00.000Z</time>
      </trkpt>
      <trkpt lat="43.77191" lon="3.84457">
        <ele>272.8</ele>
        <time>2026-05-21T08:23:01.000Z</time>
      </trkpt>
      <trkpt lat="43.77191" lon="3.84457">
        <ele>273.1</ele>
        <time>2026-05-21T08:23:02.000Z</time>
      </trkpt>
      <trkpt lat="43.77191" lon="3.84457">
        <ele>273.2</ele>
        <time>2026-05-21T08:23:03.000Z</time>
      </trkpt>
      <trkpt lat="43.77191" lon="3.84457">
        <ele>273.1</ele>
        <time>2026-05-21T08:23:04.000Z</time>
      </trkpt>
      <trkpt lat="43.77191" lon="3.84457">
        <ele>273.2</ele>
        <time>2026-05-21T08:23:05.000Z</time>
      </trkpt>
      <trkpt lat="43.7719" lon="3.84457">
        <ele>273.5</ele>
        <time>2026-05-21T08:23:06.000Z</time>
      </trkpt>
      <trkpt lat="43.7719" lon="3.84456">
        <ele>273.6</ele>
        <time>2026-05-21T08:23:07.000Z</time>
      </trkpt>
      <trkpt lat="43.7719" lon="3.84456">
        <ele>273.4</ele>
        <time>2026-05-21T08:23:08.000Z</time>
      </trkpt>
      <trkpt lat="43.7719" lon="3.84456">
        <ele>273.5</ele>
        <time>2026-05-21T08:23:09.000Z</time>
      </trkpt>
      <trkpt lat="43.7719" lon="3.84456">
        <ele>273.4</ele>
        <time>2026-05-21T08:23:10.000Z</time>
      </trkpt>
      <trkpt lat="43.7719" lon="3.84456">
        <ele>273.3</ele>
        <time>2026-05-21T08:23:11.000Z</time>
      </trkpt>
      <trkpt lat="43.77189" lon="3.84455">
        <ele>273.5</ele>
        <time>2026-05-21T08:23:12.000Z</time>
      </trkpt>
      <trkpt lat="43.77189" lon="3.84455">
        <ele>273.5</ele>
        <time>2026-05-21T08:23:13.000Z</time>
      </trkpt>
      <trkpt lat="43.77189" lon="3.84455">
        <ele>273.5</ele>
        <time>2026-05-21T08:23:14.000Z</time>
      </trkpt>
      <trkpt lat="43.77189" lon="3.84454">
        <ele>273.7</ele>
        <time>2026-05-21T08:23:15.000Z</time>
      </trkpt>
      <trkpt lat="43.77189" lon="3.84454">
        <ele>273.7</ele>
        <time>2026-05-21T08:23:16.000Z</time>
      </trkpt>
      <trkpt lat="43.77189" lon="3.84454">
        <ele>273.8</ele>
        <time>2026-05-21T08:23:17.000Z</time>
      </trkpt>
      <trkpt lat="43.77189" lon="3.84454">
        <ele>273.7</ele>
        <time>2026-05-21T08:23:18.000Z</time>
      </trkpt>
      <trkpt lat="43.77189" lon="3.84454">
        <ele>274</ele>
        <time>2026-05-21T08:23:19.000Z</time>
      </trkpt>
      <trkpt lat="43.77189" lon="3.84453">
        <ele>273.9</ele>
        <time>2026-05-21T08:23:20.000Z</time>
      </trkpt>
      <trkpt lat="43.77189" lon="3.84453">
        <ele>274.2</ele>
        <time>2026-05-21T08:23:21.000Z</time>
      </trkpt>
      <trkpt lat="43.77189" lon="3.84452">
        <ele>274.5</ele>
        <time>2026-05-21T08:23:22.000Z</time>
      </trkpt>
      <trkpt lat="43.77189" lon="3.84452">
        <ele>274.6</ele>
        <time>2026-05-21T08:23:23.000Z</time>
      </trkpt>
      <trkpt lat="43.77189" lon="3.84451">
        <ele>274.6</ele>
        <time>2026-05-21T08:23:24.000Z</time>
      </trkpt>
      <trkpt lat="43.77189" lon="3.84451">
        <ele>274.9</ele>
        <time>2026-05-21T08:23:25.000Z</time>
      </trkpt>
      <trkpt lat="43.77189" lon="3.84451">
        <ele>274.9</ele>
        <time>2026-05-21T08:23:26.000Z</time>
      </trkpt>
      <trkpt lat="43.77189" lon="3.8445">
        <ele>275.1</ele>
        <time>2026-05-21T08:23:27.000Z</time>
      </trkpt>
      <trkpt lat="43.77189" lon="3.8445">
        <ele>275.7</ele>
        <time>2026-05-21T08:23:28.000Z</time>
      </trkpt>
      <trkpt lat="43.77189" lon="3.84449">
        <ele>276.4</ele>
        <time>2026-05-21T08:23:29.000Z</time>
      </trkpt>
      <trkpt lat="43.77189" lon="3.84449">
        <ele>277.1</ele>
        <time>2026-05-21T08:23:30.000Z</time>
      </trkpt>
      <trkpt lat="43.77189" lon="3.84448">
        <ele>277.8</ele>
        <time>2026-05-21T08:23:31.000Z</time>
      </trkpt>
      <trkpt lat="43.77189" lon="3.84448">
        <ele>278.2</ele>
        <time>2026-05-21T08:23:32.000Z</time>
      </trkpt>
      <trkpt lat="43.77189" lon="3.84446">
        <ele>278.3</ele>
        <time>2026-05-21T08:23:33.000Z</time>
      </trkpt>
      <trkpt lat="43.7719" lon="3.84444">
        <ele>278.1</ele>
        <time>2026-05-21T08:23:34.000Z</time>
      </trkpt>
      <trkpt lat="43.7719" lon="3.84441">
        <ele>277.8</ele>
        <time>2026-05-21T08:23:35.000Z</time>
      </trkpt>
      <trkpt lat="43.77191" lon="3.84439">
        <ele>277.8</ele>
        <time>2026-05-21T08:23:36.000Z</time>
      </trkpt>
      <trkpt lat="43.77191" lon="3.84437">
        <ele>277.7</ele>
        <time>2026-05-21T08:23:37.000Z</time>
      </trkpt>
      <trkpt lat="43.77191" lon="3.84437">
        <ele>277.7</ele>
        <time>2026-05-21T08:23:38.000Z</time>
      </trkpt>
      <trkpt lat="43.77191" lon="3.84436">
        <ele>277.5</ele>
        <time>2026-05-21T08:23:39.000Z</time>
      </trkpt>
      <trkpt lat="43.77191" lon="3.84436">
        <ele>277.3</ele>
        <time>2026-05-21T08:23:40.000Z</time>
      </trkpt>
      <trkpt lat="43.77191" lon="3.84437">
        <ele>277.5</ele>
        <time>2026-05-21T08:23:41.000Z</time>
      </trkpt>
      <trkpt lat="43.77191" lon="3.84437">
        <ele>277.7</ele>
        <time>2026-05-21T08:23:42.000Z</time>
      </trkpt>
      <trkpt lat="43.77191" lon="3.84437">
        <ele>277.9</ele>
        <time>2026-05-21T08:23:43.000Z</time>
      </trkpt>
      <trkpt lat="43.77191" lon="3.84436">
        <ele>278.2</ele>
        <time>2026-05-21T08:23:44.000Z</time>
      </trkpt>
      <trkpt lat="43.77191" lon="3.84436">
        <ele>278.4</ele>
        <time>2026-05-21T08:23:45.000Z</time>
      </trkpt>
      <trkpt lat="43.77191" lon="3.84436">
        <ele>278.2</ele>
        <time>2026-05-21T08:23:46.000Z</time>
      </trkpt>
      <trkpt lat="43.77191" lon="3.84436">
        <ele>278.3</ele>
        <time>2026-05-21T08:23:47.000Z</time>
      </trkpt>
      <trkpt lat="43.77191" lon="3.84436">
        <ele>278.5</ele>
        <time>2026-05-21T08:23:48.000Z</time>
      </trkpt>
      <trkpt lat="43.77191" lon="3.84436">
        <ele>278.3</ele>
        <time>2026-05-21T08:23:49.000Z</time>
      </trkpt>
      <trkpt lat="43.77191" lon="3.84435">
        <ele>278.2</ele>
        <time>2026-05-21T08:23:50.000Z</time>
      </trkpt>
      <trkpt lat="43.77191" lon="3.84435">
        <ele>278.1</ele>
        <time>2026-05-21T08:23:51.000Z</time>
      </trkpt>
      <trkpt lat="43.77192" lon="3.84435">
        <ele>278.2</ele>
        <time>2026-05-21T08:23:52.000Z</time>
      </trkpt>
      <trkpt lat="43.77191" lon="3.84434">
        <ele>278.5</ele>
        <time>2026-05-21T08:23:53.000Z</time>
      </trkpt>
      <trkpt lat="43.77191" lon="3.84434">
        <ele>278.7</ele>
        <time>2026-05-21T08:23:54.000Z</time>
      </trkpt>
      <trkpt lat="43.77191" lon="3.84434">
        <ele>278.9</ele>
        <time>2026-05-21T08:23:55.000Z</time>
      </trkpt>
      <trkpt lat="43.77191" lon="3.84433">
        <ele>279</ele>
        <time>2026-05-21T08:23:56.000Z</time>
      </trkpt>
      <trkpt lat="43.77192" lon="3.84433">
        <ele>279.3</ele>
        <time>2026-05-21T08:23:57.000Z</time>
      </trkpt>
      <trkpt lat="43.77192" lon="3.84433">
        <ele>279.4</ele>
        <time>2026-05-21T08:23:58.000Z</time>
      </trkpt>
      <trkpt lat="43.77192" lon="3.84433">
        <ele>279.9</ele>
        <time>2026-05-21T08:23:59.000Z</time>
      </trkpt>
      <trkpt lat="43.77192" lon="3.84433">
        <ele>280.2</ele>
        <time>2026-05-21T08:24:00.000Z</time>
      </trkpt>
      <trkpt lat="43.77192" lon="3.84432">
        <ele>280.5</ele>
        <time>2026-05-21T08:24:01.000Z</time>
      </trkpt>
      <trkpt lat="43.77192" lon="3.84432">
        <ele>280.9</ele>
        <time>2026-05-21T08:24:02.000Z</time>
      </trkpt>
      <trkpt lat="43.77192" lon="3.84432">
        <ele>281.4</ele>
        <time>2026-05-21T08:24:03.000Z</time>
      </trkpt>
      <trkpt lat="43.77192" lon="3.84432">
        <ele>281.9</ele>
        <time>2026-05-21T08:24:04.000Z</time>
      </trkpt>
      <trkpt lat="43.77192" lon="3.84432">
        <ele>282</ele>
        <time>2026-05-21T08:24:05.000Z</time>
      </trkpt>
      <trkpt lat="43.77192" lon="3.84432">
        <ele>282.2</ele>
        <time>2026-05-21T08:24:06.000Z</time>
      </trkpt>
      <trkpt lat="43.77192" lon="3.84432">
        <ele>282.3</ele>
        <time>2026-05-21T08:24:07.000Z</time>
      </trkpt>
      <trkpt lat="43.77192" lon="3.84432">
        <ele>282.3</ele>
        <time>2026-05-21T08:24:08.000Z</time>
      </trkpt>
      <trkpt lat="43.77192" lon="3.84432">
        <ele>282.1</ele>
        <time>2026-05-21T08:24:09.000Z</time>
      </trkpt>
      <trkpt lat="43.77192" lon="3.84432">
        <ele>282.1</ele>
        <time>2026-05-21T08:24:10.000Z</time>
      </trkpt>
      <trkpt lat="43.77192" lon="3.84431">
        <ele>282.3</ele>
        <time>2026-05-21T08:24:11.000Z</time>
      </trkpt>
      <trkpt lat="43.77192" lon="3.84431">
        <ele>282.4</ele>
        <time>2026-05-21T08:24:12.000Z</time>
      </trkpt>
      <trkpt lat="43.77192" lon="3.84431">
        <ele>282.3</ele>
        <time>2026-05-21T08:24:13.000Z</time>
      </trkpt>
      <trkpt lat="43.77193" lon="3.84431">
        <ele>282.3</ele>
        <time>2026-05-21T08:24:14.000Z</time>
      </trkpt>
      <trkpt lat="43.77193" lon="3.84431">
        <ele>282.5</ele>
        <time>2026-05-21T08:24:15.000Z</time>
      </trkpt>
      <trkpt lat="43.77193" lon="3.84431">
        <ele>282.9</ele>
        <time>2026-05-21T08:24:16.000Z</time>
      </trkpt>
      <trkpt lat="43.77193" lon="3.8443">
        <ele>283</ele>
        <time>2026-05-21T08:24:17.000Z</time>
      </trkpt>
      <trkpt lat="43.77193" lon="3.8443">
        <ele>283.1</ele>
        <time>2026-05-21T08:24:18.000Z</time>
      </trkpt>
      <trkpt lat="43.77193" lon="3.8443">
        <ele>283.2</ele>
        <time>2026-05-21T08:24:19.000Z</time>
      </trkpt>
      <trkpt lat="43.77193" lon="3.8443">
        <ele>283.4</ele>
        <time>2026-05-21T08:24:20.000Z</time>
      </trkpt>
      <trkpt lat="43.77194" lon="3.84429">
        <ele>283.4</ele>
        <time>2026-05-21T08:24:21.000Z</time>
      </trkpt>
      <trkpt lat="43.77194" lon="3.84429">
        <ele>283.6</ele>
        <time>2026-05-21T08:24:22.000Z</time>
      </trkpt>
      <trkpt lat="43.77194" lon="3.84429">
        <ele>283.6</ele>
        <time>2026-05-21T08:24:23.000Z</time>
      </trkpt>
      <trkpt lat="43.77194" lon="3.84429">
        <ele>283.5</ele>
        <time>2026-05-21T08:24:24.000Z</time>
      </trkpt>
      <trkpt lat="43.77194" lon="3.84428">
        <ele>283.3</ele>
        <time>2026-05-21T08:24:25.000Z</time>
      </trkpt>
      <trkpt lat="43.77194" lon="3.84428">
        <ele>283</ele>
        <time>2026-05-21T08:24:26.000Z</time>
      </trkpt>
      <trkpt lat="43.77194" lon="3.84428">
        <ele>282.7</ele>
        <time>2026-05-21T08:24:27.000Z</time>
      </trkpt>
      <trkpt lat="43.77195" lon="3.84428">
        <ele>282.7</ele>
        <time>2026-05-21T08:24:28.000Z</time>
      </trkpt>
      <trkpt lat="43.77195" lon="3.84427">
        <ele>282.7</ele>
        <time>2026-05-21T08:24:29.000Z</time>
      </trkpt>
      <trkpt lat="43.77197" lon="3.84425">
        <ele>282.5</ele>
        <time>2026-05-21T08:24:30.000Z</time>
      </trkpt>
      <trkpt lat="43.77197" lon="3.84424">
        <ele>282.5</ele>
        <time>2026-05-21T08:24:31.000Z</time>
      </trkpt>
      <trkpt lat="43.77198" lon="3.84422">
        <ele>282.6</ele>
        <time>2026-05-21T08:24:32.000Z</time>
      </trkpt>
      <trkpt lat="43.77199" lon="3.84421">
        <ele>282.5</ele>
        <time>2026-05-21T08:24:33.000Z</time>
      </trkpt>
      <trkpt lat="43.77199" lon="3.84421">
        <ele>282.5</ele>
        <time>2026-05-21T08:24:34.000Z</time>
      </trkpt>
      <trkpt lat="43.772" lon="3.8442">
        <ele>282.6</ele>
        <time>2026-05-21T08:24:35.000Z</time>
      </trkpt>
      <trkpt lat="43.772" lon="3.8442">
        <ele>282.8</ele>
        <time>2026-05-21T08:24:36.000Z</time>
      </trkpt>
      <trkpt lat="43.772" lon="3.8442">
        <ele>282.9</ele>
        <time>2026-05-21T08:24:37.000Z</time>
      </trkpt>
      <trkpt lat="43.772" lon="3.8442">
        <ele>283.3</ele>
        <time>2026-05-21T08:24:38.000Z</time>
      </trkpt>
      <trkpt lat="43.772" lon="3.84419">
        <ele>283.6</ele>
        <time>2026-05-21T08:24:39.000Z</time>
      </trkpt>
      <trkpt lat="43.77201" lon="3.84418">
        <ele>284.3</ele>
        <time>2026-05-21T08:24:40.000Z</time>
      </trkpt>
      <trkpt lat="43.77201" lon="3.84418">
        <ele>284.8</ele>
        <time>2026-05-21T08:24:41.000Z</time>
      </trkpt>
      <trkpt lat="43.77201" lon="3.84418">
        <ele>284.8</ele>
        <time>2026-05-21T08:24:42.000Z</time>
      </trkpt>
      <trkpt lat="43.77201" lon="3.84417">
        <ele>285</ele>
        <time>2026-05-21T08:24:43.000Z</time>
      </trkpt>
      <trkpt lat="43.77201" lon="3.84417">
        <ele>284.8</ele>
        <time>2026-05-21T08:24:44.000Z</time>
      </trkpt>
      <trkpt lat="43.77201" lon="3.84417">
        <ele>284.6</ele>
        <time>2026-05-21T08:24:45.000Z</time>
      </trkpt>
      <trkpt lat="43.77201" lon="3.84416">
        <ele>284.6</ele>
        <time>2026-05-21T08:24:46.000Z</time>
      </trkpt>
      <trkpt lat="43.77202" lon="3.84416">
        <ele>284.6</ele>
        <time>2026-05-21T08:24:47.000Z</time>
      </trkpt>
      <trkpt lat="43.77202" lon="3.84416">
        <ele>284.3</ele>
        <time>2026-05-21T08:24:48.000Z</time>
      </trkpt>
      <trkpt lat="43.77202" lon="3.84416">
        <ele>283.9</ele>
        <time>2026-05-21T08:24:49.000Z</time>
      </trkpt>
      <trkpt lat="43.77202" lon="3.84416">
        <ele>283.8</ele>
        <time>2026-05-21T08:24:50.000Z</time>
      </trkpt>
      <trkpt lat="43.77202" lon="3.84416">
        <ele>283.4</ele>
        <time>2026-05-21T08:24:51.000Z</time>
      </trkpt>
      <trkpt lat="43.77202" lon="3.84415">
        <ele>283.6</ele>
        <time>2026-05-21T08:24:52.000Z</time>
      </trkpt>
      <trkpt lat="43.77202" lon="3.84415">
        <ele>283.5</ele>
        <time>2026-05-21T08:24:53.000Z</time>
      </trkpt>
      <trkpt lat="43.77203" lon="3.84415">
        <ele>283</ele>
        <time>2026-05-21T08:24:54.000Z</time>
      </trkpt>
      <trkpt lat="43.77203" lon="3.84414">
        <ele>282.6</ele>
        <time>2026-05-21T08:24:55.000Z</time>
      </trkpt>
      <trkpt lat="43.77203" lon="3.84414">
        <ele>282.6</ele>
        <time>2026-05-21T08:24:56.000Z</time>
      </trkpt>
      <trkpt lat="43.77203" lon="3.84413">
        <ele>282.7</ele>
        <time>2026-05-21T08:24:57.000Z</time>
      </trkpt>
      <trkpt lat="43.77203" lon="3.84413">
        <ele>282.8</ele>
        <time>2026-05-21T08:24:58.000Z</time>
      </trkpt>
      <trkpt lat="43.77203" lon="3.84413">
        <ele>283.5</ele>
        <time>2026-05-21T08:24:59.000Z</time>
      </trkpt>
      <trkpt lat="43.77203" lon="3.84413">
        <ele>284.4</ele>
        <time>2026-05-21T08:25:00.000Z</time>
      </trkpt>
      <trkpt lat="43.77203" lon="3.84412">
        <ele>284.9</ele>
        <time>2026-05-21T08:25:01.000Z</time>
      </trkpt>
      <trkpt lat="43.77203" lon="3.84411">
        <ele>285.3</ele>
        <time>2026-05-21T08:25:02.000Z</time>
      </trkpt>
      <trkpt lat="43.77204" lon="3.84411">
        <ele>285.3</ele>
        <time>2026-05-21T08:25:03.000Z</time>
      </trkpt>
      <trkpt lat="43.77204" lon="3.84411">
        <ele>285.6</ele>
        <time>2026-05-21T08:25:04.000Z</time>
      </trkpt>
      <trkpt lat="43.77204" lon="3.8441">
        <ele>285.7</ele>
        <time>2026-05-21T08:25:05.000Z</time>
      </trkpt>
      <trkpt lat="43.77204" lon="3.84409">
        <ele>285.6</ele>
        <time>2026-05-21T08:25:06.000Z</time>
      </trkpt>
      <trkpt lat="43.77204" lon="3.84409">
        <ele>285.5</ele>
        <time>2026-05-21T08:25:07.000Z</time>
      </trkpt>
      <trkpt lat="43.77204" lon="3.84409">
        <ele>285.3</ele>
        <time>2026-05-21T08:25:08.000Z</time>
      </trkpt>
      <trkpt lat="43.77204" lon="3.84409">
        <ele>285.1</ele>
        <time>2026-05-21T08:25:09.000Z</time>
      </trkpt>
      <trkpt lat="43.77205" lon="3.84406">
        <ele>285.4</ele>
        <time>2026-05-21T08:25:10.000Z</time>
      </trkpt>
      <trkpt lat="43.77206" lon="3.84403">
        <ele>285.4</ele>
        <time>2026-05-21T08:25:11.000Z</time>
      </trkpt>
      <trkpt lat="43.77207" lon="3.84401">
        <ele>285.7</ele>
        <time>2026-05-21T08:25:12.000Z</time>
      </trkpt>
      <trkpt lat="43.77208" lon="3.844">
        <ele>286.2</ele>
        <time>2026-05-21T08:25:13.000Z</time>
      </trkpt>
      <trkpt lat="43.77208" lon="3.844">
        <ele>286.8</ele>
        <time>2026-05-21T08:25:14.000Z</time>
      </trkpt>
      <trkpt lat="43.77208" lon="3.844">
        <ele>287.1</ele>
        <time>2026-05-21T08:25:15.000Z</time>
      </trkpt>
      <trkpt lat="43.77208" lon="3.844">
        <ele>287.2</ele>
        <time>2026-05-21T08:25:16.000Z</time>
      </trkpt>
      <trkpt lat="43.77208" lon="3.844">
        <ele>286.9</ele>
        <time>2026-05-21T08:25:17.999Z</time>
      </trkpt>
      <trkpt lat="43.77208" lon="3.844">
        <ele>287.1</ele>
        <time>2026-05-21T08:25:18.999Z</time>
      </trkpt>
      <trkpt lat="43.77208" lon="3.84399">
        <ele>287.3</ele>
        <time>2026-05-21T08:25:19.999Z</time>
      </trkpt>
      <trkpt lat="43.77208" lon="3.84399">
        <ele>287.4</ele>
        <time>2026-05-21T08:25:20.999Z</time>
      </trkpt>
      <trkpt lat="43.77208" lon="3.84398">
        <ele>287.2</ele>
        <time>2026-05-21T08:25:21.999Z</time>
      </trkpt>
      <trkpt lat="43.77208" lon="3.84398">
        <ele>287.3</ele>
        <time>2026-05-21T08:25:22.999Z</time>
      </trkpt>
      <trkpt lat="43.77208" lon="3.84397">
        <ele>287.5</ele>
        <time>2026-05-21T08:25:23.999Z</time>
      </trkpt>
      <trkpt lat="43.77208" lon="3.84397">
        <ele>287.7</ele>
        <time>2026-05-21T08:25:24.999Z</time>
      </trkpt>
      <trkpt lat="43.77208" lon="3.84397">
        <ele>288.1</ele>
        <time>2026-05-21T08:25:25.999Z</time>
      </trkpt>
      <trkpt lat="43.77208" lon="3.84396">
        <ele>288.1</ele>
        <time>2026-05-21T08:25:26.999Z</time>
      </trkpt>
      <trkpt lat="43.77208" lon="3.84396">
        <ele>287.8</ele>
        <time>2026-05-21T08:25:27.999Z</time>
      </trkpt>
      <trkpt lat="43.77208" lon="3.84395">
        <ele>287.7</ele>
        <time>2026-05-21T08:25:28.999Z</time>
      </trkpt>
      <trkpt lat="43.77208" lon="3.84395">
        <ele>287.5</ele>
        <time>2026-05-21T08:25:29.999Z</time>
      </trkpt>
      <trkpt lat="43.77208" lon="3.84395">
        <ele>287.4</ele>
        <time>2026-05-21T08:25:30.999Z</time>
      </trkpt>
      <trkpt lat="43.77208" lon="3.84394">
        <ele>287.5</ele>
        <time>2026-05-21T08:25:31.999Z</time>
      </trkpt>
      <trkpt lat="43.77208" lon="3.84394">
        <ele>287.5</ele>
        <time>2026-05-21T08:25:32.999Z</time>
      </trkpt>
      <trkpt lat="43.77208" lon="3.84394">
        <ele>287.4</ele>
        <time>2026-05-21T08:25:33.999Z</time>
      </trkpt>
      <trkpt lat="43.77208" lon="3.84393">
        <ele>287.2</ele>
        <time>2026-05-21T08:25:34.999Z</time>
      </trkpt>
      <trkpt lat="43.77208" lon="3.84393">
        <ele>287.4</ele>
        <time>2026-05-21T08:25:35.999Z</time>
      </trkpt>
      <trkpt lat="43.77208" lon="3.84393">
        <ele>287.9</ele>
        <time>2026-05-21T08:25:36.999Z</time>
      </trkpt>
      <trkpt lat="43.77208" lon="3.84392">
        <ele>288.2</ele>
        <time>2026-05-21T08:25:37.999Z</time>
      </trkpt>
      <trkpt lat="43.77208" lon="3.84392">
        <ele>288.4</ele>
        <time>2026-05-21T08:25:38.999Z</time>
      </trkpt>
      <trkpt lat="43.77208" lon="3.84391">
        <ele>288.5</ele>
        <time>2026-05-21T08:25:39.999Z</time>
      </trkpt>
      <trkpt lat="43.77208" lon="3.8439">
        <ele>288.5</ele>
        <time>2026-05-21T08:25:40.999Z</time>
      </trkpt>
      <trkpt lat="43.77208" lon="3.84389">
        <ele>288.6</ele>
        <time>2026-05-21T08:25:41.999Z</time>
      </trkpt>
      <trkpt lat="43.77208" lon="3.84389">
        <ele>288.5</ele>
        <time>2026-05-21T08:25:42.999Z</time>
      </trkpt>
      <trkpt lat="43.77208" lon="3.84389">
        <ele>288.6</ele>
        <time>2026-05-21T08:25:43.999Z</time>
      </trkpt>
      <trkpt lat="43.77208" lon="3.84388">
        <ele>288.5</ele>
        <time>2026-05-21T08:25:44.999Z</time>
      </trkpt>
      <trkpt lat="43.77208" lon="3.84388">
        <ele>288.4</ele>
        <time>2026-05-21T08:25:45.999Z</time>
      </trkpt>
      <trkpt lat="43.77209" lon="3.84385">
        <ele>288.4</ele>
        <time>2026-05-21T08:25:46.999Z</time>
      </trkpt>
      <trkpt lat="43.77209" lon="3.84382">
        <ele>288.7</ele>
        <time>2026-05-21T08:25:47.999Z</time>
      </trkpt>
      <trkpt lat="43.77209" lon="3.8438">
        <ele>288.8</ele>
        <time>2026-05-21T08:25:48.999Z</time>
      </trkpt>
      <trkpt lat="43.7721" lon="3.84379">
        <ele>289.3</ele>
        <time>2026-05-21T08:25:49.999Z</time>
      </trkpt>
      <trkpt lat="43.7721" lon="3.84379">
        <ele>289.6</ele>
        <time>2026-05-21T08:25:50.999Z</time>
      </trkpt>
      <trkpt lat="43.7721" lon="3.84379">
        <ele>290</ele>
        <time>2026-05-21T08:25:51.999Z</time>
      </trkpt>
      <trkpt lat="43.7721" lon="3.84378">
        <ele>290.4</ele>
        <time>2026-05-21T08:25:52.999Z</time>
      </trkpt>
      <trkpt lat="43.7721" lon="3.84377">
        <ele>290.6</ele>
        <time>2026-05-21T08:25:53.999Z</time>
      </trkpt>
      <trkpt lat="43.77209" lon="3.84376">
        <ele>291</ele>
        <time>2026-05-21T08:25:54.999Z</time>
      </trkpt>
      <trkpt lat="43.77209" lon="3.84374">
        <ele>291.3</ele>
        <time>2026-05-21T08:25:55.999Z</time>
      </trkpt>
      <trkpt lat="43.7721" lon="3.84372">
        <ele>291.7</ele>
        <time>2026-05-21T08:25:56.999Z</time>
      </trkpt>
      <trkpt lat="43.77211" lon="3.8437">
        <ele>292</ele>
        <time>2026-05-21T08:25:57.999Z</time>
      </trkpt>
      <trkpt lat="43.77211" lon="3.84368">
        <ele>292.4</ele>
        <time>2026-05-21T08:25:58.999Z</time>
      </trkpt>
      <trkpt lat="43.77211" lon="3.84367">
        <ele>292.4</ele>
        <time>2026-05-21T08:25:59.999Z</time>
      </trkpt>
      <trkpt lat="43.77211" lon="3.84366">
        <ele>292.4</ele>
        <time>2026-05-21T08:26:00.999Z</time>
      </trkpt>
      <trkpt lat="43.77212" lon="3.84365">
        <ele>292.1</ele>
        <time>2026-05-21T08:26:01.999Z</time>
      </trkpt>
      <trkpt lat="43.77213" lon="3.84364">
        <ele>292</ele>
        <time>2026-05-21T08:26:02.999Z</time>
      </trkpt>
      <trkpt lat="43.77213" lon="3.84363">
        <ele>291.9</ele>
        <time>2026-05-21T08:26:03.999Z</time>
      </trkpt>
      <trkpt lat="43.77214" lon="3.84363">
        <ele>292</ele>
        <time>2026-05-21T08:26:04.999Z</time>
      </trkpt>
      <trkpt lat="43.77215" lon="3.84362">
        <ele>292.2</ele>
        <time>2026-05-21T08:26:05.999Z</time>
      </trkpt>
      <trkpt lat="43.77215" lon="3.84362">
        <ele>292.5</ele>
        <time>2026-05-21T08:26:06.999Z</time>
      </trkpt>
      <trkpt lat="43.77216" lon="3.84362">
        <ele>292.6</ele>
        <time>2026-05-21T08:26:07.999Z</time>
      </trkpt>
      <trkpt lat="43.77216" lon="3.8436">
        <ele>292.9</ele>
        <time>2026-05-21T08:26:08.999Z</time>
      </trkpt>
      <trkpt lat="43.77217" lon="3.84359">
        <ele>293</ele>
        <time>2026-05-21T08:26:09.999Z</time>
      </trkpt>
      <trkpt lat="43.77217" lon="3.84358">
        <ele>293.2</ele>
        <time>2026-05-21T08:26:10.999Z</time>
      </trkpt>
      <trkpt lat="43.77217" lon="3.84358">
        <ele>293.3</ele>
        <time>2026-05-21T08:26:11.999Z</time>
      </trkpt>
      <trkpt lat="43.77218" lon="3.84357">
        <ele>293.4</ele>
        <time>2026-05-21T08:26:12.999Z</time>
      </trkpt>
      <trkpt lat="43.77218" lon="3.84356">
        <ele>293.4</ele>
        <time>2026-05-21T08:26:13.999Z</time>
      </trkpt>
      <trkpt lat="43.77218" lon="3.84357">
        <ele>293.5</ele>
        <time>2026-05-21T08:26:14.999Z</time>
      </trkpt>
      <trkpt lat="43.77218" lon="3.84357">
        <ele>293.8</ele>
        <time>2026-05-21T08:26:15.999Z</time>
      </trkpt>
      <trkpt lat="43.77218" lon="3.84356">
        <ele>294.2</ele>
        <time>2026-05-21T08:26:16.999Z</time>
      </trkpt>
      <trkpt lat="43.77218" lon="3.84357">
        <ele>294.5</ele>
        <time>2026-05-21T08:26:17.999Z</time>
      </trkpt>
      <trkpt lat="43.77218" lon="3.84356">
        <ele>294.6</ele>
        <time>2026-05-21T08:26:18.999Z</time>
      </trkpt>
      <trkpt lat="43.77218" lon="3.84355">
        <ele>294.5</ele>
        <time>2026-05-21T08:26:19.999Z</time>
      </trkpt>
      <trkpt lat="43.77218" lon="3.84354">
        <ele>294.5</ele>
        <time>2026-05-21T08:26:20.999Z</time>
      </trkpt>
      <trkpt lat="43.77218" lon="3.84354">
        <ele>294.6</ele>
        <time>2026-05-21T08:26:21.999Z</time>
      </trkpt>
      <trkpt lat="43.77218" lon="3.84353">
        <ele>294.6</ele>
        <time>2026-05-21T08:26:22.999Z</time>
      </trkpt>
      <trkpt lat="43.77218" lon="3.84353">
        <ele>294.8</ele>
        <time>2026-05-21T08:26:23.999Z</time>
      </trkpt>
      <trkpt lat="43.77218" lon="3.84352">
        <ele>294.9</ele>
        <time>2026-05-21T08:26:24.999Z</time>
      </trkpt>
      <trkpt lat="43.77218" lon="3.84352">
        <ele>294.6</ele>
        <time>2026-05-21T08:26:25.999Z</time>
      </trkpt>
      <trkpt lat="43.77218" lon="3.84352">
        <ele>294.4</ele>
        <time>2026-05-21T08:26:26.999Z</time>
      </trkpt>
      <trkpt lat="43.77218" lon="3.8435">
        <ele>294.3</ele>
        <time>2026-05-21T08:26:27.999Z</time>
      </trkpt>
      <trkpt lat="43.77219" lon="3.84349">
        <ele>294.3</ele>
        <time>2026-05-21T08:26:28.999Z</time>
      </trkpt>
      <trkpt lat="43.77219" lon="3.84348">
        <ele>294.2</ele>
        <time>2026-05-21T08:26:29.999Z</time>
      </trkpt>
      <trkpt lat="43.77219" lon="3.84348">
        <ele>294.1</ele>
        <time>2026-05-21T08:26:30.999Z</time>
      </trkpt>
      <trkpt lat="43.77219" lon="3.84348">
        <ele>293.9</ele>
        <time>2026-05-21T08:26:31.999Z</time>
      </trkpt>
      <trkpt lat="43.77219" lon="3.84348">
        <ele>293.6</ele>
        <time>2026-05-21T08:26:32.999Z</time>
      </trkpt>
      <trkpt lat="43.77219" lon="3.84348">
        <ele>293.2</ele>
        <time>2026-05-21T08:26:33.999Z</time>
      </trkpt>
      <trkpt lat="43.77219" lon="3.84347">
        <ele>292.9</ele>
        <time>2026-05-21T08:26:34.999Z</time>
      </trkpt>
      <trkpt lat="43.7722" lon="3.84347">
        <ele>292.8</ele>
        <time>2026-05-21T08:26:35.999Z</time>
      </trkpt>
      <trkpt lat="43.7722" lon="3.84347">
        <ele>292.8</ele>
        <time>2026-05-21T08:26:36.999Z</time>
      </trkpt>
      <trkpt lat="43.7722" lon="3.84347">
        <ele>292.8</ele>
        <time>2026-05-21T08:26:37.999Z</time>
      </trkpt>
      <trkpt lat="43.7722" lon="3.84347">
        <ele>292.7</ele>
        <time>2026-05-21T08:26:38.999Z</time>
      </trkpt>
      <trkpt lat="43.7722" lon="3.84346">
        <ele>292.9</ele>
        <time>2026-05-21T08:26:39.999Z</time>
      </trkpt>
      <trkpt lat="43.7722" lon="3.84344">
        <ele>292.7</ele>
        <time>2026-05-21T08:26:40.999Z</time>
      </trkpt>
      <trkpt lat="43.7722" lon="3.84343">
        <ele>292.6</ele>
        <time>2026-05-21T08:26:41.999Z</time>
      </trkpt>
      <trkpt lat="43.7722" lon="3.84342">
        <ele>292.6</ele>
        <time>2026-05-21T08:26:42.999Z</time>
      </trkpt>
      <trkpt lat="43.77221" lon="3.84341">
        <ele>292.8</ele>
        <time>2026-05-21T08:26:43.999Z</time>
      </trkpt>
      <trkpt lat="43.77222" lon="3.84339">
        <ele>293</ele>
        <time>2026-05-21T08:26:44.999Z</time>
      </trkpt>
      <trkpt lat="43.77222" lon="3.84339">
        <ele>293.6</ele>
        <time>2026-05-21T08:26:45.999Z</time>
      </trkpt>
      <trkpt lat="43.77223" lon="3.84338">
        <ele>293.8</ele>
        <time>2026-05-21T08:26:46.999Z</time>
      </trkpt>
      <trkpt lat="43.77224" lon="3.84337">
        <ele>294</ele>
        <time>2026-05-21T08:26:47.999Z</time>
      </trkpt>
      <trkpt lat="43.77225" lon="3.84336">
        <ele>294.3</ele>
        <time>2026-05-21T08:26:48.999Z</time>
      </trkpt>
      <trkpt lat="43.77225" lon="3.84335">
        <ele>294.5</ele>
        <time>2026-05-21T08:26:49.999Z</time>
      </trkpt>
      <trkpt lat="43.77225" lon="3.84333">
        <ele>294.6</ele>
        <time>2026-05-21T08:26:50.999Z</time>
      </trkpt>
      <trkpt lat="43.77225" lon="3.84332">
        <ele>294.7</ele>
        <time>2026-05-21T08:26:51.999Z</time>
      </trkpt>
      <trkpt lat="43.77225" lon="3.84331">
        <ele>294.9</ele>
        <time>2026-05-21T08:26:52.999Z</time>
      </trkpt>
      <trkpt lat="43.77225" lon="3.84329">
        <ele>295.1</ele>
        <time>2026-05-21T08:26:53.999Z</time>
      </trkpt>
      <trkpt lat="43.77226" lon="3.84328">
        <ele>295.1</ele>
        <time>2026-05-21T08:26:54.999Z</time>
      </trkpt>
      <trkpt lat="43.77226" lon="3.84327">
        <ele>295.3</ele>
        <time>2026-05-21T08:26:55.999Z</time>
      </trkpt>
      <trkpt lat="43.77226" lon="3.84326">
        <ele>295.5</ele>
        <time>2026-05-21T08:26:56.999Z</time>
      </trkpt>
      <trkpt lat="43.77226" lon="3.84325">
        <ele>295.7</ele>
        <time>2026-05-21T08:26:57.999Z</time>
      </trkpt>
      <trkpt lat="43.77226" lon="3.84325">
        <ele>295.7</ele>
        <time>2026-05-21T08:26:58.999Z</time>
      </trkpt>
      <trkpt lat="43.77226" lon="3.84325">
        <ele>295.7</ele>
        <time>2026-05-21T08:26:59.999Z</time>
      </trkpt>
      <trkpt lat="43.77226" lon="3.84325">
        <ele>295.8</ele>
        <time>2026-05-21T08:27:00.999Z</time>
      </trkpt>
      <trkpt lat="43.77226" lon="3.84325">
        <ele>295.9</ele>
        <time>2026-05-21T08:27:01.999Z</time>
      </trkpt>
      <trkpt lat="43.77226" lon="3.84325">
        <ele>295.9</ele>
        <time>2026-05-21T08:27:02.999Z</time>
      </trkpt>
      <trkpt lat="43.77226" lon="3.84324">
        <ele>295.6</ele>
        <time>2026-05-21T08:27:03.999Z</time>
      </trkpt>
      <trkpt lat="43.77226" lon="3.84324">
        <ele>295.5</ele>
        <time>2026-05-21T08:27:04.999Z</time>
      </trkpt>
      <trkpt lat="43.77226" lon="3.84324">
        <ele>295.5</ele>
        <time>2026-05-21T08:27:05.999Z</time>
      </trkpt>
      <trkpt lat="43.77226" lon="3.84323">
        <ele>295.7</ele>
        <time>2026-05-21T08:27:06.999Z</time>
      </trkpt>
      <trkpt lat="43.77226" lon="3.84323">
        <ele>296.1</ele>
        <time>2026-05-21T08:27:07.999Z</time>
      </trkpt>
      <trkpt lat="43.77227" lon="3.84323">
        <ele>296.3</ele>
        <time>2026-05-21T08:27:08.999Z</time>
      </trkpt>
      <trkpt lat="43.77228" lon="3.84322">
        <ele>296.7</ele>
        <time>2026-05-21T08:27:09.999Z</time>
      </trkpt>
      <trkpt lat="43.77229" lon="3.8432">
        <ele>296.6</ele>
        <time>2026-05-21T08:27:10.999Z</time>
      </trkpt>
      <trkpt lat="43.77229" lon="3.84319">
        <ele>296.7</ele>
        <time>2026-05-21T08:27:11.999Z</time>
      </trkpt>
      <trkpt lat="43.77229" lon="3.84319">
        <ele>296.7</ele>
        <time>2026-05-21T08:27:12.999Z</time>
      </trkpt>
      <trkpt lat="43.77229" lon="3.84319">
        <ele>296.9</ele>
        <time>2026-05-21T08:27:13.999Z</time>
      </trkpt>
      <trkpt lat="43.77229" lon="3.84319">
        <ele>297.1</ele>
        <time>2026-05-21T08:27:14.999Z</time>
      </trkpt>
      <trkpt lat="43.77229" lon="3.84319">
        <ele>297.7</ele>
        <time>2026-05-21T08:27:15.999Z</time>
      </trkpt>
      <trkpt lat="43.77228" lon="3.84318">
        <ele>298.2</ele>
        <time>2026-05-21T08:27:16.999Z</time>
      </trkpt>
      <trkpt lat="43.77227" lon="3.84317">
        <ele>298.3</ele>
        <time>2026-05-21T08:27:17.999Z</time>
      </trkpt>
      <trkpt lat="43.77226" lon="3.84316">
        <ele>298.4</ele>
        <time>2026-05-21T08:27:18.999Z</time>
      </trkpt>
      <trkpt lat="43.77226" lon="3.84316">
        <ele>298.6</ele>
        <time>2026-05-21T08:27:19.999Z</time>
      </trkpt>
      <trkpt lat="43.77226" lon="3.84315">
        <ele>298.6</ele>
        <time>2026-05-21T08:27:20.999Z</time>
      </trkpt>
      <trkpt lat="43.77225" lon="3.84315">
        <ele>298.6</ele>
        <time>2026-05-21T08:27:21.999Z</time>
      </trkpt>
      <trkpt lat="43.77226" lon="3.84315">
        <ele>298.7</ele>
        <time>2026-05-21T08:27:22.999Z</time>
      </trkpt>
      <trkpt lat="43.77225" lon="3.84315">
        <ele>298.6</ele>
        <time>2026-05-21T08:27:23.999Z</time>
      </trkpt>
      <trkpt lat="43.77225" lon="3.84315">
        <ele>298.5</ele>
        <time>2026-05-21T08:27:24.999Z</time>
      </trkpt>
      <trkpt lat="43.77225" lon="3.84315">
        <ele>298.6</ele>
        <time>2026-05-21T08:27:25.999Z</time>
      </trkpt>
      <trkpt lat="43.77225" lon="3.84315">
        <ele>298.5</ele>
        <time>2026-05-21T08:27:26.999Z</time>
      </trkpt>
      <trkpt lat="43.77225" lon="3.84314">
        <ele>298.4</ele>
        <time>2026-05-21T08:27:27.999Z</time>
      </trkpt>
      <trkpt lat="43.77224" lon="3.84314">
        <ele>298.1</ele>
        <time>2026-05-21T08:27:28.999Z</time>
      </trkpt>
      <trkpt lat="43.77224" lon="3.84314">
        <ele>298</ele>
        <time>2026-05-21T08:27:29.999Z</time>
      </trkpt>
      <trkpt lat="43.77224" lon="3.84314">
        <ele>298</ele>
        <time>2026-05-21T08:27:30.999Z</time>
      </trkpt>
      <trkpt lat="43.77224" lon="3.84313">
        <ele>298.1</ele>
        <time>2026-05-21T08:27:31.999Z</time>
      </trkpt>
      <trkpt lat="43.77223" lon="3.84312">
        <ele>298.2</ele>
        <time>2026-05-21T08:27:32.999Z</time>
      </trkpt>
      <trkpt lat="43.77222" lon="3.84312">
        <ele>298.4</ele>
        <time>2026-05-21T08:27:33.999Z</time>
      </trkpt>
      <trkpt lat="43.77222" lon="3.8431">
        <ele>298.7</ele>
        <time>2026-05-21T08:27:34.999Z</time>
      </trkpt>
      <trkpt lat="43.77221" lon="3.84307">
        <ele>298.8</ele>
        <time>2026-05-21T08:27:36.999Z</time>
      </trkpt>
      <trkpt lat="43.77221" lon="3.84305">
        <ele>298.9</ele>
        <time>2026-05-21T08:27:37.999Z</time>
      </trkpt>
      <trkpt lat="43.77221" lon="3.84304">
        <ele>299.4</ele>
        <time>2026-05-21T08:27:38.999Z</time>
      </trkpt>
      <trkpt lat="43.7722" lon="3.84303">
        <ele>299.7</ele>
        <time>2026-05-21T08:27:39.999Z</time>
      </trkpt>
      <trkpt lat="43.77221" lon="3.84301">
        <ele>299.8</ele>
        <time>2026-05-21T08:27:40.999Z</time>
      </trkpt>
      <trkpt lat="43.77222" lon="3.843">
        <ele>299.5</ele>
        <time>2026-05-21T08:27:41.999Z</time>
      </trkpt>
      <trkpt lat="43.77221" lon="3.843">
        <ele>299.6</ele>
        <time>2026-05-21T08:27:42.999Z</time>
      </trkpt>
      <trkpt lat="43.77221" lon="3.843">
        <ele>299.8</ele>
        <time>2026-05-21T08:27:43.999Z</time>
      </trkpt>
      <trkpt lat="43.77221" lon="3.84299">
        <ele>299.9</ele>
        <time>2026-05-21T08:27:44.999Z</time>
      </trkpt>
      <trkpt lat="43.77221" lon="3.84299">
        <ele>300</ele>
        <time>2026-05-21T08:27:45.999Z</time>
      </trkpt>
      <trkpt lat="43.77221" lon="3.84299">
        <ele>299.8</ele>
        <time>2026-05-21T08:27:46.999Z</time>
      </trkpt>
      <trkpt lat="43.77221" lon="3.84299">
        <ele>299.6</ele>
        <time>2026-05-21T08:27:47.999Z</time>
      </trkpt>
      <trkpt lat="43.77221" lon="3.84299">
        <ele>299.5</ele>
        <time>2026-05-21T08:27:48.999Z</time>
      </trkpt>
      <trkpt lat="43.77221" lon="3.84297">
        <ele>299.6</ele>
        <time>2026-05-21T08:27:49.999Z</time>
      </trkpt>
      <trkpt lat="43.77222" lon="3.84295">
        <ele>299.7</ele>
        <time>2026-05-21T08:27:50.999Z</time>
      </trkpt>
      <trkpt lat="43.77223" lon="3.84294">
        <ele>299.4</ele>
        <time>2026-05-21T08:27:51.999Z</time>
      </trkpt>
      <trkpt lat="43.77223" lon="3.84292">
        <ele>299.1</ele>
        <time>2026-05-21T08:27:52.999Z</time>
      </trkpt>
      <trkpt lat="43.77224" lon="3.84292">
        <ele>299.3</ele>
        <time>2026-05-21T08:27:53.999Z</time>
      </trkpt>
      <trkpt lat="43.77223" lon="3.84291">
        <ele>299.4</ele>
        <time>2026-05-21T08:27:54.999Z</time>
      </trkpt>
      <trkpt lat="43.77224" lon="3.84291">
        <ele>299.3</ele>
        <time>2026-05-21T08:27:55.999Z</time>
      </trkpt>
      <trkpt lat="43.77224" lon="3.8429">
        <ele>299.1</ele>
        <time>2026-05-21T08:27:56.999Z</time>
      </trkpt>
      <trkpt lat="43.77224" lon="3.8429">
        <ele>298.9</ele>
        <time>2026-05-21T08:27:57.999Z</time>
      </trkpt>
      <trkpt lat="43.77224" lon="3.8429">
        <ele>299.1</ele>
        <time>2026-05-21T08:27:58.999Z</time>
      </trkpt>
      <trkpt lat="43.77224" lon="3.8429">
        <ele>299</ele>
        <time>2026-05-21T08:27:59.999Z</time>
      </trkpt>
      <trkpt lat="43.77224" lon="3.84289">
        <ele>298.9</ele>
        <time>2026-05-21T08:28:00.999Z</time>
      </trkpt>
      <trkpt lat="43.77224" lon="3.84289">
        <ele>298.8</ele>
        <time>2026-05-21T08:28:01.999Z</time>
      </trkpt>
      <trkpt lat="43.77224" lon="3.84289">
        <ele>298.8</ele>
        <time>2026-05-21T08:28:02.999Z</time>
      </trkpt>
      <trkpt lat="43.77224" lon="3.84289">
        <ele>299.1</ele>
        <time>2026-05-21T08:28:03.999Z</time>
      </trkpt>
      <trkpt lat="43.77224" lon="3.84289">
        <ele>299.2</ele>
        <time>2026-05-21T08:28:04.999Z</time>
      </trkpt>
      <trkpt lat="43.77224" lon="3.84289">
        <ele>299.2</ele>
        <time>2026-05-21T08:28:05.999Z</time>
      </trkpt>
      <trkpt lat="43.77224" lon="3.84289">
        <ele>299.3</ele>
        <time>2026-05-21T08:28:06.999Z</time>
      </trkpt>
      <trkpt lat="43.77224" lon="3.84288">
        <ele>299.1</ele>
        <time>2026-05-21T08:28:07.999Z</time>
      </trkpt>
      <trkpt lat="43.77224" lon="3.84288">
        <ele>299.3</ele>
        <time>2026-05-21T08:28:08.999Z</time>
      </trkpt>
      <trkpt lat="43.77224" lon="3.84288">
        <ele>299.6</ele>
        <time>2026-05-21T08:28:09.999Z</time>
      </trkpt>
      <trkpt lat="43.77223" lon="3.84288">
        <ele>299.5</ele>
        <time>2026-05-21T08:28:10.999Z</time>
      </trkpt>
      <trkpt lat="43.77223" lon="3.84287">
        <ele>299.5</ele>
        <time>2026-05-21T08:28:11.999Z</time>
      </trkpt>
      <trkpt lat="43.77223" lon="3.84287">
        <ele>299.3</ele>
        <time>2026-05-21T08:28:12.999Z</time>
      </trkpt>
      <trkpt lat="43.77223" lon="3.84287">
        <ele>299.3</ele>
        <time>2026-05-21T08:28:13.999Z</time>
      </trkpt>
      <trkpt lat="43.77223" lon="3.84286">
        <ele>299.1</ele>
        <time>2026-05-21T08:28:14.999Z</time>
      </trkpt>
      <trkpt lat="43.77223" lon="3.84286">
        <ele>299.1</ele>
        <time>2026-05-21T08:28:15.999Z</time>
      </trkpt>
      <trkpt lat="43.77223" lon="3.84286">
        <ele>298.8</ele>
        <time>2026-05-21T08:28:16.999Z</time>
      </trkpt>
      <trkpt lat="43.77223" lon="3.84286">
        <ele>298.6</ele>
        <time>2026-05-21T08:28:17.999Z</time>
      </trkpt>
      <trkpt lat="43.77224" lon="3.84285">
        <ele>298.5</ele>
        <time>2026-05-21T08:28:18.999Z</time>
      </trkpt>
      <trkpt lat="43.77224" lon="3.84285">
        <ele>298.4</ele>
        <time>2026-05-21T08:28:19.999Z</time>
      </trkpt>
      <trkpt lat="43.77224" lon="3.84285">
        <ele>298.2</ele>
        <time>2026-05-21T08:28:20.999Z</time>
      </trkpt>
      <trkpt lat="43.77224" lon="3.84284">
        <ele>297.7</ele>
        <time>2026-05-21T08:28:21.999Z</time>
      </trkpt>
      <trkpt lat="43.77224" lon="3.84284">
        <ele>297.5</ele>
        <time>2026-05-21T08:28:22.999Z</time>
      </trkpt>
      <trkpt lat="43.77224" lon="3.84284">
        <ele>297.5</ele>
        <time>2026-05-21T08:28:23.999Z</time>
      </trkpt>
      <trkpt lat="43.77224" lon="3.84284">
        <ele>297.6</ele>
        <time>2026-05-21T08:28:24.999Z</time>
      </trkpt>
      <trkpt lat="43.77224" lon="3.84283">
        <ele>297.5</ele>
        <time>2026-05-21T08:28:25.999Z</time>
      </trkpt>
      <trkpt lat="43.77224" lon="3.8428">
        <ele>297.3</ele>
        <time>2026-05-21T08:28:27.999Z</time>
      </trkpt>
      <trkpt lat="43.77224" lon="3.84279">
        <ele>297.1</ele>
        <time>2026-05-21T08:28:28.999Z</time>
      </trkpt>
      <trkpt lat="43.77224" lon="3.84279">
        <ele>297.2</ele>
        <time>2026-05-21T08:28:29.999Z</time>
      </trkpt>
      <trkpt lat="43.77224" lon="3.84277">
        <ele>297.3</ele>
        <time>2026-05-21T08:28:30.999Z</time>
      </trkpt>
      <trkpt lat="43.77224" lon="3.84276">
        <ele>297.3</ele>
        <time>2026-05-21T08:28:31.999Z</time>
      </trkpt>
      <trkpt lat="43.77223" lon="3.84274">
        <ele>297.4</ele>
        <time>2026-05-21T08:28:32.999Z</time>
      </trkpt>
      <trkpt lat="43.77223" lon="3.84271">
        <ele>297.7</ele>
        <time>2026-05-21T08:28:33.999Z</time>
      </trkpt>
      <trkpt lat="43.77223" lon="3.8427">
        <ele>298.5</ele>
        <time>2026-05-21T08:28:34.999Z</time>
      </trkpt>
      <trkpt lat="43.77223" lon="3.8427">
        <ele>298.7</ele>
        <time>2026-05-21T08:28:35.999Z</time>
      </trkpt>
      <trkpt lat="43.77223" lon="3.84269">
        <ele>299.5</ele>
        <time>2026-05-21T08:28:36.999Z</time>
      </trkpt>
      <trkpt lat="43.77224" lon="3.84266">
        <ele>300</ele>
        <time>2026-05-21T08:28:37.999Z</time>
      </trkpt>
      <trkpt lat="43.77225" lon="3.84264">
        <ele>300.2</ele>
        <time>2026-05-21T08:28:38.999Z</time>
      </trkpt>
      <trkpt lat="43.77227" lon="3.84262">
        <ele>300.6</ele>
        <time>2026-05-21T08:28:39.999Z</time>
      </trkpt>
      <trkpt lat="43.77228" lon="3.8426">
        <ele>300.9</ele>
        <time>2026-05-21T08:28:40.999Z</time>
      </trkpt>
      <trkpt lat="43.77229" lon="3.84257">
        <ele>301.1</ele>
        <time>2026-05-21T08:28:41.999Z</time>
      </trkpt>
      <trkpt lat="43.77229" lon="3.84255">
        <ele>301.7</ele>
        <time>2026-05-21T08:28:42.999Z</time>
      </trkpt>
      <trkpt lat="43.77229" lon="3.84253">
        <ele>302.2</ele>
        <time>2026-05-21T08:28:43.999Z</time>
      </trkpt>
      <trkpt lat="43.77229" lon="3.84253">
        <ele>303.1</ele>
        <time>2026-05-21T08:28:44.999Z</time>
      </trkpt>
      <trkpt lat="43.77229" lon="3.84252">
        <ele>303.4</ele>
        <time>2026-05-21T08:28:45.999Z</time>
      </trkpt>
      <trkpt lat="43.77229" lon="3.84252">
        <ele>303.5</ele>
        <time>2026-05-21T08:28:46.999Z</time>
      </trkpt>
      <trkpt lat="43.7723" lon="3.84251">
        <ele>303.2</ele>
        <time>2026-05-21T08:28:47.999Z</time>
      </trkpt>
      <trkpt lat="43.77231" lon="3.8425">
        <ele>303.2</ele>
        <time>2026-05-21T08:28:48.999Z</time>
      </trkpt>
      <trkpt lat="43.77232" lon="3.84247">
        <ele>303.5</ele>
        <time>2026-05-21T08:28:49.999Z</time>
      </trkpt>
      <trkpt lat="43.77233" lon="3.84245">
        <ele>303.8</ele>
        <time>2026-05-21T08:28:50.999Z</time>
      </trkpt>
      <trkpt lat="43.77234" lon="3.84243">
        <ele>303.7</ele>
        <time>2026-05-21T08:28:51.999Z</time>
      </trkpt>
      <trkpt lat="43.77235" lon="3.84242">
        <ele>304.1</ele>
        <time>2026-05-21T08:28:52.999Z</time>
      </trkpt>
      <trkpt lat="43.77235" lon="3.84241">
        <ele>304.5</ele>
        <time>2026-05-21T08:28:53.999Z</time>
      </trkpt>
      <trkpt lat="43.77235" lon="3.84241">
        <ele>305</ele>
        <time>2026-05-21T08:28:54.999Z</time>
      </trkpt>
      <trkpt lat="43.77235" lon="3.8424">
        <ele>305.4</ele>
        <time>2026-05-21T08:28:55.999Z</time>
      </trkpt>
      <trkpt lat="43.77235" lon="3.8424">
        <ele>305.9</ele>
        <time>2026-05-21T08:28:56.999Z</time>
      </trkpt>
      <trkpt lat="43.77235" lon="3.8424">
        <ele>305.8</ele>
        <time>2026-05-21T08:28:57.999Z</time>
      </trkpt>
      <trkpt lat="43.77235" lon="3.8424">
        <ele>306.6</ele>
        <time>2026-05-21T08:28:58.999Z</time>
      </trkpt>
      <trkpt lat="43.77236" lon="3.84238">
        <ele>307.2</ele>
        <time>2026-05-21T08:28:59.999Z</time>
      </trkpt>
      <trkpt lat="43.77237" lon="3.84238">
        <ele>307.5</ele>
        <time>2026-05-21T08:29:00.999Z</time>
      </trkpt>
      <trkpt lat="43.77238" lon="3.84238">
        <ele>307.8</ele>
        <time>2026-05-21T08:29:01.999Z</time>
      </trkpt>
      <trkpt lat="43.77239" lon="3.84236">
        <ele>308.2</ele>
        <time>2026-05-21T08:29:02.999Z</time>
      </trkpt>
      <trkpt lat="43.77239" lon="3.84235">
        <ele>308.7</ele>
        <time>2026-05-21T08:29:03.999Z</time>
      </trkpt>
      <trkpt lat="43.7724" lon="3.84235">
        <ele>309.1</ele>
        <time>2026-05-21T08:29:04.999Z</time>
      </trkpt>
      <trkpt lat="43.7724" lon="3.84235">
        <ele>309.3</ele>
        <time>2026-05-21T08:29:05.999Z</time>
      </trkpt>
      <trkpt lat="43.77241" lon="3.84234">
        <ele>309.7</ele>
        <time>2026-05-21T08:29:06.999Z</time>
      </trkpt>
      <trkpt lat="43.77241" lon="3.84234">
        <ele>309.9</ele>
        <time>2026-05-21T08:29:07.999Z</time>
      </trkpt>
      <trkpt lat="43.77242" lon="3.84233">
        <ele>310</ele>
        <time>2026-05-21T08:29:08.999Z</time>
      </trkpt>
      <trkpt lat="43.77243" lon="3.84233">
        <ele>309.9</ele>
        <time>2026-05-21T08:29:09.999Z</time>
      </trkpt>
      <trkpt lat="43.77243" lon="3.84233">
        <ele>310</ele>
        <time>2026-05-21T08:29:10.999Z</time>
      </trkpt>
      <trkpt lat="43.77244" lon="3.84233">
        <ele>310.2</ele>
        <time>2026-05-21T08:29:11.999Z</time>
      </trkpt>
      <trkpt lat="43.77245" lon="3.84232">
        <ele>310.4</ele>
        <time>2026-05-21T08:29:12.999Z</time>
      </trkpt>
      <trkpt lat="43.77245" lon="3.84232">
        <ele>310.5</ele>
        <time>2026-05-21T08:29:13.999Z</time>
      </trkpt>
      <trkpt lat="43.77246" lon="3.84231">
        <ele>310.6</ele>
        <time>2026-05-21T08:29:14.999Z</time>
      </trkpt>
      <trkpt lat="43.77246" lon="3.8423">
        <ele>310.7</ele>
        <time>2026-05-21T08:29:15.999Z</time>
      </trkpt>
      <trkpt lat="43.77247" lon="3.84229">
        <ele>310.7</ele>
        <time>2026-05-21T08:29:16.999Z</time>
      </trkpt>
      <trkpt lat="43.77248" lon="3.84228">
        <ele>310.4</ele>
        <time>2026-05-21T08:29:17.999Z</time>
      </trkpt>
      <trkpt lat="43.77248" lon="3.84227">
        <ele>310.5</ele>
        <time>2026-05-21T08:29:18.999Z</time>
      </trkpt>
      <trkpt lat="43.7725" lon="3.84226">
        <ele>310.2</ele>
        <time>2026-05-21T08:29:19.999Z</time>
      </trkpt>
      <trkpt lat="43.77251" lon="3.84225">
        <ele>310.2</ele>
        <time>2026-05-21T08:29:20.999Z</time>
      </trkpt>
      <trkpt lat="43.77251" lon="3.84224">
        <ele>310</ele>
        <time>2026-05-21T08:29:22.999Z</time>
      </trkpt>
      <trkpt lat="43.77251" lon="3.84224">
        <ele>309.7</ele>
        <time>2026-05-21T08:29:23.999Z</time>
      </trkpt>
      <trkpt lat="43.77251" lon="3.84224">
        <ele>309.8</ele>
        <time>2026-05-21T08:29:24.999Z</time>
      </trkpt>
      <trkpt lat="43.77252" lon="3.84223">
        <ele>309.8</ele>
        <time>2026-05-21T08:29:25.999Z</time>
      </trkpt>
      <trkpt lat="43.77252" lon="3.84223">
        <ele>309.4</ele>
        <time>2026-05-21T08:29:26.999Z</time>
      </trkpt>
      <trkpt lat="43.77252" lon="3.84223">
        <ele>309.6</ele>
        <time>2026-05-21T08:29:27.999Z</time>
      </trkpt>
      <trkpt lat="43.77252" lon="3.84223">
        <ele>309.9</ele>
        <time>2026-05-21T08:29:28.999Z</time>
      </trkpt>
      <trkpt lat="43.77252" lon="3.84223">
        <ele>310</ele>
        <time>2026-05-21T08:29:29.999Z</time>
      </trkpt>
      <trkpt lat="43.77252" lon="3.84223">
        <ele>309.8</ele>
        <time>2026-05-21T08:29:30.999Z</time>
      </trkpt>
      <trkpt lat="43.77252" lon="3.84223">
        <ele>309.7</ele>
        <time>2026-05-21T08:29:31.999Z</time>
      </trkpt>
      <trkpt lat="43.77252" lon="3.84223">
        <ele>309.7</ele>
        <time>2026-05-21T08:29:32.999Z</time>
      </trkpt>
      <trkpt lat="43.77252" lon="3.84223">
        <ele>309.4</ele>
        <time>2026-05-21T08:29:33.999Z</time>
      </trkpt>
      <trkpt lat="43.77252" lon="3.84223">
        <ele>309.2</ele>
        <time>2026-05-21T08:29:34.999Z</time>
      </trkpt>
      <trkpt lat="43.77252" lon="3.84222">
        <ele>309.2</ele>
        <time>2026-05-21T08:29:35.999Z</time>
      </trkpt>
      <trkpt lat="43.77252" lon="3.84222">
        <ele>309.5</ele>
        <time>2026-05-21T08:29:36.999Z</time>
      </trkpt>
      <trkpt lat="43.77252" lon="3.84221">
        <ele>310</ele>
        <time>2026-05-21T08:29:37.999Z</time>
      </trkpt>
      <trkpt lat="43.77252" lon="3.84221">
        <ele>310.2</ele>
        <time>2026-05-21T08:29:38.999Z</time>
      </trkpt>
      <trkpt lat="43.77252" lon="3.84221">
        <ele>310.4</ele>
        <time>2026-05-21T08:29:39.999Z</time>
      </trkpt>
      <trkpt lat="43.77252" lon="3.84221">
        <ele>310.5</ele>
        <time>2026-05-21T08:29:40.999Z</time>
      </trkpt>
      <trkpt lat="43.77252" lon="3.8422">
        <ele>310.7</ele>
        <time>2026-05-21T08:29:41.999Z</time>
      </trkpt>
      <trkpt lat="43.77252" lon="3.84218">
        <ele>310.9</ele>
        <time>2026-05-21T08:29:42.999Z</time>
      </trkpt>
      <trkpt lat="43.77253" lon="3.84216">
        <ele>310.9</ele>
        <time>2026-05-21T08:29:43.999Z</time>
      </trkpt>
      <trkpt lat="43.77253" lon="3.84214">
        <ele>310.5</ele>
        <time>2026-05-21T08:29:44.999Z</time>
      </trkpt>
      <trkpt lat="43.77252" lon="3.8421">
        <ele>310.7</ele>
        <time>2026-05-21T08:29:45.999Z</time>
      </trkpt>
      <trkpt lat="43.77251" lon="3.84208">
        <ele>310.5</ele>
        <time>2026-05-21T08:29:46.999Z</time>
      </trkpt>
      <trkpt lat="43.77251" lon="3.84205">
        <ele>310.6</ele>
        <time>2026-05-21T08:29:47.999Z</time>
      </trkpt>
      <trkpt lat="43.77251" lon="3.84204">
        <ele>310.4</ele>
        <time>2026-05-21T08:29:48.999Z</time>
      </trkpt>
      <trkpt lat="43.77251" lon="3.84203">
        <ele>310.8</ele>
        <time>2026-05-21T08:29:49.999Z</time>
      </trkpt>
      <trkpt lat="43.77251" lon="3.84203">
        <ele>311</ele>
        <time>2026-05-21T08:29:50.999Z</time>
      </trkpt>
      <trkpt lat="43.77251" lon="3.84203">
        <ele>311.3</ele>
        <time>2026-05-21T08:29:51.999Z</time>
      </trkpt>
      <trkpt lat="43.77251" lon="3.84202">
        <ele>311.8</ele>
        <time>2026-05-21T08:29:52.999Z</time>
      </trkpt>
      <trkpt lat="43.77251" lon="3.84202">
        <ele>312</ele>
        <time>2026-05-21T08:29:53.999Z</time>
      </trkpt>
      <trkpt lat="43.77251" lon="3.84202">
        <ele>312</ele>
        <time>2026-05-21T08:29:54.999Z</time>
      </trkpt>
      <trkpt lat="43.77252" lon="3.84201">
        <ele>312.1</ele>
        <time>2026-05-21T08:29:55.999Z</time>
      </trkpt>
      <trkpt lat="43.77252" lon="3.842">
        <ele>312</ele>
        <time>2026-05-21T08:29:56.999Z</time>
      </trkpt>
      <trkpt lat="43.77253" lon="3.84199">
        <ele>312.3</ele>
        <time>2026-05-21T08:29:57.999Z</time>
      </trkpt>
      <trkpt lat="43.77253" lon="3.84199">
        <ele>312.9</ele>
        <time>2026-05-21T08:29:58.999Z</time>
      </trkpt>
      <trkpt lat="43.77254" lon="3.84199">
        <ele>313</ele>
        <time>2026-05-21T08:29:59.999Z</time>
      </trkpt>
      <trkpt lat="43.77255" lon="3.84198">
        <ele>313.2</ele>
        <time>2026-05-21T08:30:00.999Z</time>
      </trkpt>
      <trkpt lat="43.77256" lon="3.84199">
        <ele>313.3</ele>
        <time>2026-05-21T08:30:01.999Z</time>
      </trkpt>
      <trkpt lat="43.77256" lon="3.84199">
        <ele>313.8</ele>
        <time>2026-05-21T08:30:02.999Z</time>
      </trkpt>
      <trkpt lat="43.77257" lon="3.84199">
        <ele>314.3</ele>
        <time>2026-05-21T08:30:03.999Z</time>
      </trkpt>
      <trkpt lat="43.77258" lon="3.842">
        <ele>314.5</ele>
        <time>2026-05-21T08:30:04.999Z</time>
      </trkpt>
      <trkpt lat="43.77258" lon="3.842">
        <ele>314.8</ele>
        <time>2026-05-21T08:30:05.999Z</time>
      </trkpt>
      <trkpt lat="43.77259" lon="3.84201">
        <ele>314.8</ele>
        <time>2026-05-21T08:30:06.999Z</time>
      </trkpt>
      <trkpt lat="43.7726" lon="3.84201">
        <ele>315.1</ele>
        <time>2026-05-21T08:30:07.999Z</time>
      </trkpt>
      <trkpt lat="43.77261" lon="3.84201">
        <ele>315.2</ele>
        <time>2026-05-21T08:30:08.999Z</time>
      </trkpt>
      <trkpt lat="43.77261" lon="3.84201">
        <ele>315.2</ele>
        <time>2026-05-21T08:30:09.999Z</time>
      </trkpt>
      <trkpt lat="43.77262" lon="3.84201">
        <ele>315.3</ele>
        <time>2026-05-21T08:30:10.999Z</time>
      </trkpt>
      <trkpt lat="43.77263" lon="3.842">
        <ele>315.4</ele>
        <time>2026-05-21T08:30:11.999Z</time>
      </trkpt>
      <trkpt lat="43.77264" lon="3.842">
        <ele>315.6</ele>
        <time>2026-05-21T08:30:12.999Z</time>
      </trkpt>
      <trkpt lat="43.77265" lon="3.842">
        <ele>315.6</ele>
        <time>2026-05-21T08:30:13.999Z</time>
      </trkpt>
      <trkpt lat="43.77265" lon="3.842">
        <ele>315.9</ele>
        <time>2026-05-21T08:30:14.999Z</time>
      </trkpt>
      <trkpt lat="43.77267" lon="3.842">
        <ele>315.8</ele>
        <time>2026-05-21T08:30:15.999Z</time>
      </trkpt>
      <trkpt lat="43.77268" lon="3.84201">
        <ele>315.9</ele>
        <time>2026-05-21T08:30:16.999Z</time>
      </trkpt>
      <trkpt lat="43.77269" lon="3.84201">
        <ele>315.9</ele>
        <time>2026-05-21T08:30:17.999Z</time>
      </trkpt>
      <trkpt lat="43.7727" lon="3.842">
        <ele>316.3</ele>
        <time>2026-05-21T08:30:18.999Z</time>
      </trkpt>
      <trkpt lat="43.77271" lon="3.842">
        <ele>316.6</ele>
        <time>2026-05-21T08:30:19.999Z</time>
      </trkpt>
      <trkpt lat="43.77272" lon="3.84199">
        <ele>316.6</ele>
        <time>2026-05-21T08:30:20.999Z</time>
      </trkpt>
      <trkpt lat="43.77272" lon="3.84199">
        <ele>316.8</ele>
        <time>2026-05-21T08:30:21.999Z</time>
      </trkpt>
      <trkpt lat="43.77272" lon="3.84199">
        <ele>316.9</ele>
        <time>2026-05-21T08:30:22.999Z</time>
      </trkpt>
      <trkpt lat="43.77273" lon="3.84198">
        <ele>317.4</ele>
        <time>2026-05-21T08:30:23.999Z</time>
      </trkpt>
      <trkpt lat="43.77273" lon="3.84198">
        <ele>317.7</ele>
        <time>2026-05-21T08:30:24.999Z</time>
      </trkpt>
      <trkpt lat="43.77273" lon="3.84198">
        <ele>317.9</ele>
        <time>2026-05-21T08:30:25.999Z</time>
      </trkpt>
      <trkpt lat="43.77274" lon="3.84197">
        <ele>318.1</ele>
        <time>2026-05-21T08:30:26.999Z</time>
      </trkpt>
      <trkpt lat="43.77275" lon="3.84197">
        <ele>318.2</ele>
        <time>2026-05-21T08:30:27.999Z</time>
      </trkpt>
      <trkpt lat="43.77276" lon="3.84197">
        <ele>318.6</ele>
        <time>2026-05-21T08:30:28.999Z</time>
      </trkpt>
      <trkpt lat="43.77276" lon="3.84197">
        <ele>318.5</ele>
        <time>2026-05-21T08:30:29.999Z</time>
      </trkpt>
      <trkpt lat="43.77277" lon="3.84197">
        <ele>318.7</ele>
        <time>2026-05-21T08:30:30.999Z</time>
      </trkpt>
      <trkpt lat="43.77277" lon="3.84197">
        <ele>318.9</ele>
        <time>2026-05-21T08:30:31.999Z</time>
      </trkpt>
      <trkpt lat="43.77278" lon="3.84196">
        <ele>318.5</ele>
        <time>2026-05-21T08:30:32.999Z</time>
      </trkpt>
      <trkpt lat="43.77279" lon="3.84196">
        <ele>318.4</ele>
        <time>2026-05-21T08:30:33.999Z</time>
      </trkpt>
      <trkpt lat="43.77279" lon="3.84196">
        <ele>318.3</ele>
        <time>2026-05-21T08:30:34.999Z</time>
      </trkpt>
      <trkpt lat="43.77279" lon="3.84197">
        <ele>318.7</ele>
        <time>2026-05-21T08:30:35.999Z</time>
      </trkpt>
      <trkpt lat="43.77279" lon="3.84197">
        <ele>318.8</ele>
        <time>2026-05-21T08:30:36.999Z</time>
      </trkpt>
      <trkpt lat="43.77279" lon="3.84197">
        <ele>319.2</ele>
        <time>2026-05-21T08:30:37.999Z</time>
      </trkpt>
      <trkpt lat="43.77279" lon="3.84197">
        <ele>319.4</ele>
        <time>2026-05-21T08:30:38.999Z</time>
      </trkpt>
      <trkpt lat="43.7728" lon="3.84198">
        <ele>319.6</ele>
        <time>2026-05-21T08:30:39.999Z</time>
      </trkpt>
      <trkpt lat="43.7728" lon="3.84198">
        <ele>319.8</ele>
        <time>2026-05-21T08:30:40.999Z</time>
      </trkpt>
      <trkpt lat="43.77281" lon="3.84198">
        <ele>320</ele>
        <time>2026-05-21T08:30:41.999Z</time>
      </trkpt>
      <trkpt lat="43.77282" lon="3.84198">
        <ele>320</ele>
        <time>2026-05-21T08:30:42.999Z</time>
      </trkpt>
      <trkpt lat="43.77283" lon="3.84199">
        <ele>320.1</ele>
        <time>2026-05-21T08:30:43.999Z</time>
      </trkpt>
      <trkpt lat="43.77284" lon="3.842">
        <ele>320.2</ele>
        <time>2026-05-21T08:30:44.999Z</time>
      </trkpt>
      <trkpt lat="43.77285" lon="3.84201">
        <ele>320.2</ele>
        <time>2026-05-21T08:30:45.999Z</time>
      </trkpt>
      <trkpt lat="43.77285" lon="3.84201">
        <ele>320.2</ele>
        <time>2026-05-21T08:30:46.999Z</time>
      </trkpt>
      <trkpt lat="43.77286" lon="3.84201">
        <ele>320</ele>
        <time>2026-05-21T08:30:47.999Z</time>
      </trkpt>
      <trkpt lat="43.77287" lon="3.84201">
        <ele>319.8</ele>
        <time>2026-05-21T08:30:48.999Z</time>
      </trkpt>
      <trkpt lat="43.77288" lon="3.84201">
        <ele>319.2</ele>
        <time>2026-05-21T08:30:49.999Z</time>
      </trkpt>
      <trkpt lat="43.77288" lon="3.84201">
        <ele>319.2</ele>
        <time>2026-05-21T08:30:50.999Z</time>
      </trkpt>
      <trkpt lat="43.77288" lon="3.84201">
        <ele>319</ele>
        <time>2026-05-21T08:30:51.999Z</time>
      </trkpt>
      <trkpt lat="43.77288" lon="3.84201">
        <ele>319.2</ele>
        <time>2026-05-21T08:30:52.999Z</time>
      </trkpt>
      <trkpt lat="43.77288" lon="3.84201">
        <ele>319.2</ele>
        <time>2026-05-21T08:30:53.999Z</time>
      </trkpt>
      <trkpt lat="43.77288" lon="3.84201">
        <ele>319.7</ele>
        <time>2026-05-21T08:30:54.999Z</time>
      </trkpt>
      <trkpt lat="43.77289" lon="3.84201">
        <ele>319.9</ele>
        <time>2026-05-21T08:30:55.999Z</time>
      </trkpt>
      <trkpt lat="43.77289" lon="3.84201">
        <ele>319.9</ele>
        <time>2026-05-21T08:30:56.999Z</time>
      </trkpt>
      <trkpt lat="43.77289" lon="3.84201">
        <ele>319.8</ele>
        <time>2026-05-21T08:30:57.999Z</time>
      </trkpt>
      <trkpt lat="43.77289" lon="3.84201">
        <ele>319.7</ele>
        <time>2026-05-21T08:30:58.999Z</time>
      </trkpt>
      <trkpt lat="43.77289" lon="3.84201">
        <ele>319.5</ele>
        <time>2026-05-21T08:30:59.999Z</time>
      </trkpt>
      <trkpt lat="43.77289" lon="3.842">
        <ele>319.5</ele>
        <time>2026-05-21T08:31:00.999Z</time>
      </trkpt>
      <trkpt lat="43.77289" lon="3.842">
        <ele>319.5</ele>
        <time>2026-05-21T08:31:01.999Z</time>
      </trkpt>
      <trkpt lat="43.77289" lon="3.84199">
        <ele>319.6</ele>
        <time>2026-05-21T08:31:02.999Z</time>
      </trkpt>
      <trkpt lat="43.77289" lon="3.84198">
        <ele>320</ele>
        <time>2026-05-21T08:31:03.999Z</time>
      </trkpt>
      <trkpt lat="43.77289" lon="3.84198">
        <ele>320.5</ele>
        <time>2026-05-21T08:31:04.999Z</time>
      </trkpt>
      <trkpt lat="43.77289" lon="3.84198">
        <ele>320.7</ele>
        <time>2026-05-21T08:31:05.999Z</time>
      </trkpt>
      <trkpt lat="43.77289" lon="3.84198">
        <ele>320.7</ele>
        <time>2026-05-21T08:31:06.999Z</time>
      </trkpt>
      <trkpt lat="43.77289" lon="3.84198">
        <ele>320.5</ele>
        <time>2026-05-21T08:31:07.999Z</time>
      </trkpt>
      <trkpt lat="43.7729" lon="3.84198">
        <ele>320.3</ele>
        <time>2026-05-21T08:31:08.999Z</time>
      </trkpt>
      <trkpt lat="43.7729" lon="3.84198">
        <ele>320.1</ele>
        <time>2026-05-21T08:31:09.999Z</time>
      </trkpt>
      <trkpt lat="43.7729" lon="3.84198">
        <ele>319.8</ele>
        <time>2026-05-21T08:31:10.999Z</time>
      </trkpt>
      <trkpt lat="43.7729" lon="3.84197">
        <ele>319.7</ele>
        <time>2026-05-21T08:31:11.999Z</time>
      </trkpt>
      <trkpt lat="43.77291" lon="3.84197">
        <ele>319.7</ele>
        <time>2026-05-21T08:31:12.999Z</time>
      </trkpt>
      <trkpt lat="43.77291" lon="3.84197">
        <ele>319.6</ele>
        <time>2026-05-21T08:31:13.999Z</time>
      </trkpt>
      <trkpt lat="43.77291" lon="3.84197">
        <ele>319.7</ele>
        <time>2026-05-21T08:31:14.999Z</time>
      </trkpt>
      <trkpt lat="43.77291" lon="3.84196">
        <ele>319.6</ele>
        <time>2026-05-21T08:31:15.999Z</time>
      </trkpt>
      <trkpt lat="43.77291" lon="3.84196">
        <ele>319.5</ele>
        <time>2026-05-21T08:31:16.999Z</time>
      </trkpt>
      <trkpt lat="43.77291" lon="3.84196">
        <ele>319.8</ele>
        <time>2026-05-21T08:31:17.999Z</time>
      </trkpt>
      <trkpt lat="43.77291" lon="3.84195">
        <ele>319.8</ele>
        <time>2026-05-21T08:31:18.999Z</time>
      </trkpt>
      <trkpt lat="43.77291" lon="3.84195">
        <ele>320</ele>
        <time>2026-05-21T08:31:19.999Z</time>
      </trkpt>
      <trkpt lat="43.77291" lon="3.84195">
        <ele>320.2</ele>
        <time>2026-05-21T08:31:20.999Z</time>
      </trkpt>
      <trkpt lat="43.77291" lon="3.84195">
        <ele>320.5</ele>
        <time>2026-05-21T08:31:21.999Z</time>
      </trkpt>
      <trkpt lat="43.77291" lon="3.84194">
        <ele>320.8</ele>
        <time>2026-05-21T08:31:22.999Z</time>
      </trkpt>
      <trkpt lat="43.77291" lon="3.84193">
        <ele>321</ele>
        <time>2026-05-21T08:31:23.999Z</time>
      </trkpt>
      <trkpt lat="43.77291" lon="3.84193">
        <ele>321.2</ele>
        <time>2026-05-21T08:31:24.999Z</time>
      </trkpt>
      <trkpt lat="43.77291" lon="3.84192">
        <ele>321.4</ele>
        <time>2026-05-21T08:31:25.999Z</time>
      </trkpt>
      <trkpt lat="43.77291" lon="3.84192">
        <ele>321.5</ele>
        <time>2026-05-21T08:31:26.999Z</time>
      </trkpt>
      <trkpt lat="43.77291" lon="3.84191">
        <ele>321.8</ele>
        <time>2026-05-21T08:31:27.999Z</time>
      </trkpt>
      <trkpt lat="43.77291" lon="3.84191">
        <ele>322.1</ele>
        <time>2026-05-21T08:31:28.999Z</time>
      </trkpt>
      <trkpt lat="43.77291" lon="3.8419">
        <ele>322.3</ele>
        <time>2026-05-21T08:31:29.999Z</time>
      </trkpt>
      <trkpt lat="43.77291" lon="3.8419">
        <ele>322.3</ele>
        <time>2026-05-21T08:31:30.999Z</time>
      </trkpt>
      <trkpt lat="43.77291" lon="3.8419">
        <ele>322.7</ele>
        <time>2026-05-21T08:31:31.999Z</time>
      </trkpt>
      <trkpt lat="43.77291" lon="3.84189">
        <ele>322.5</ele>
        <time>2026-05-21T08:31:32.999Z</time>
      </trkpt>
      <trkpt lat="43.77291" lon="3.84189">
        <ele>322.5</ele>
        <time>2026-05-21T08:31:33.999Z</time>
      </trkpt>
      <trkpt lat="43.77291" lon="3.84188">
        <ele>322.5</ele>
        <time>2026-05-21T08:31:34.999Z</time>
      </trkpt>
      <trkpt lat="43.77291" lon="3.84188">
        <ele>322.4</ele>
        <time>2026-05-21T08:31:35.999Z</time>
      </trkpt>
      <trkpt lat="43.77291" lon="3.84187">
        <ele>322.2</ele>
        <time>2026-05-21T08:31:36.999Z</time>
      </trkpt>
      <trkpt lat="43.77291" lon="3.84187">
        <ele>322</ele>
        <time>2026-05-21T08:31:37.999Z</time>
      </trkpt>
      <trkpt lat="43.77291" lon="3.84186">
        <ele>321.9</ele>
        <time>2026-05-21T08:31:38.999Z</time>
      </trkpt>
      <trkpt lat="43.77291" lon="3.84186">
        <ele>321.7</ele>
        <time>2026-05-21T08:31:39.999Z</time>
      </trkpt>
      <trkpt lat="43.77291" lon="3.84185">
        <ele>321.3</ele>
        <time>2026-05-21T08:31:40.999Z</time>
      </trkpt>
      <trkpt lat="43.77291" lon="3.84185">
        <ele>321.4</ele>
        <time>2026-05-21T08:31:41.999Z</time>
      </trkpt>
      <trkpt lat="43.77291" lon="3.84185">
        <ele>321.3</ele>
        <time>2026-05-21T08:31:42.999Z</time>
      </trkpt>
      <trkpt lat="43.77292" lon="3.84184">
        <ele>321.1</ele>
        <time>2026-05-21T08:31:43.999Z</time>
      </trkpt>
      <trkpt lat="43.77292" lon="3.84184">
        <ele>321.1</ele>
        <time>2026-05-21T08:31:44.999Z</time>
      </trkpt>
      <trkpt lat="43.77292" lon="3.84183">
        <ele>320.9</ele>
        <time>2026-05-21T08:31:45.999Z</time>
      </trkpt>
      <trkpt lat="43.77292" lon="3.84183">
        <ele>320.9</ele>
        <time>2026-05-21T08:31:47.999Z</time>
      </trkpt>
      <trkpt lat="43.77292" lon="3.84182">
        <ele>320.9</ele>
        <time>2026-05-21T08:31:48.999Z</time>
      </trkpt>
      <trkpt lat="43.77292" lon="3.84181">
        <ele>321.3</ele>
        <time>2026-05-21T08:31:49.999Z</time>
      </trkpt>
      <trkpt lat="43.77292" lon="3.84181">
        <ele>321.5</ele>
        <time>2026-05-21T08:31:50.999Z</time>
      </trkpt>
      <trkpt lat="43.77292" lon="3.84181">
        <ele>321.6</ele>
        <time>2026-05-21T08:31:51.999Z</time>
      </trkpt>
      <trkpt lat="43.77292" lon="3.84181">
        <ele>321.6</ele>
        <time>2026-05-21T08:31:52.999Z</time>
      </trkpt>
      <trkpt lat="43.77292" lon="3.84181">
        <ele>321.7</ele>
        <time>2026-05-21T08:31:53.999Z</time>
      </trkpt>
      <trkpt lat="43.77292" lon="3.8418">
        <ele>321.9</ele>
        <time>2026-05-21T08:31:54.999Z</time>
      </trkpt>
      <trkpt lat="43.77292" lon="3.8418">
        <ele>322.1</ele>
        <time>2026-05-21T08:31:55.999Z</time>
      </trkpt>
      <trkpt lat="43.77292" lon="3.8418">
        <ele>322.6</ele>
        <time>2026-05-21T08:31:56.999Z</time>
      </trkpt>
      <trkpt lat="43.77292" lon="3.84179">
        <ele>323.1</ele>
        <time>2026-05-21T08:31:57.999Z</time>
      </trkpt>
      <trkpt lat="43.77292" lon="3.84179">
        <ele>323.5</ele>
        <time>2026-05-21T08:31:58.999Z</time>
      </trkpt>
      <trkpt lat="43.77292" lon="3.84179">
        <ele>324</ele>
        <time>2026-05-21T08:31:59.999Z</time>
      </trkpt>
      <trkpt lat="43.77292" lon="3.84178">
        <ele>324</ele>
        <time>2026-05-21T08:32:00.999Z</time>
      </trkpt>
      <trkpt lat="43.77293" lon="3.84178">
        <ele>324.3</ele>
        <time>2026-05-21T08:32:01.999Z</time>
      </trkpt>
      <trkpt lat="43.77293" lon="3.84177">
        <ele>324.5</ele>
        <time>2026-05-21T08:32:02.999Z</time>
      </trkpt>
      <trkpt lat="43.77294" lon="3.84175">
        <ele>324.6</ele>
        <time>2026-05-21T08:32:03.999Z</time>
      </trkpt>
      <trkpt lat="43.77295" lon="3.84173">
        <ele>325</ele>
        <time>2026-05-21T08:32:04.999Z</time>
      </trkpt>
      <trkpt lat="43.77296" lon="3.8417">
        <ele>325.5</ele>
        <time>2026-05-21T08:32:05.999Z</time>
      </trkpt>
      <trkpt lat="43.77296" lon="3.84168">
        <ele>326</ele>
        <time>2026-05-21T08:32:06.999Z</time>
      </trkpt>
      <trkpt lat="43.77298" lon="3.84166">
        <ele>326.2</ele>
        <time>2026-05-21T08:32:07.999Z</time>
      </trkpt>
      <trkpt lat="43.77299" lon="3.84165">
        <ele>326.4</ele>
        <time>2026-05-21T08:32:08.999Z</time>
      </trkpt>
      <trkpt lat="43.773" lon="3.84163">
        <ele>326.4</ele>
        <time>2026-05-21T08:32:09.999Z</time>
      </trkpt>
      <trkpt lat="43.77301" lon="3.84162">
        <ele>326.9</ele>
        <time>2026-05-21T08:32:10.999Z</time>
      </trkpt>
      <trkpt lat="43.77302" lon="3.84162">
        <ele>326.9</ele>
        <time>2026-05-21T08:32:11.999Z</time>
      </trkpt>
      <trkpt lat="43.77303" lon="3.84162">
        <ele>327.1</ele>
        <time>2026-05-21T08:32:12.999Z</time>
      </trkpt>
      <trkpt lat="43.77303" lon="3.84161">
        <ele>327</ele>
        <time>2026-05-21T08:32:13.999Z</time>
      </trkpt>
      <trkpt lat="43.77304" lon="3.8416">
        <ele>326.8</ele>
        <time>2026-05-21T08:32:14.999Z</time>
      </trkpt>
      <trkpt lat="43.77304" lon="3.84159">
        <ele>326.6</ele>
        <time>2026-05-21T08:32:15.999Z</time>
      </trkpt>
      <trkpt lat="43.77304" lon="3.84159">
        <ele>326.7</ele>
        <time>2026-05-21T08:32:16.999Z</time>
      </trkpt>
      <trkpt lat="43.77304" lon="3.84159">
        <ele>326.6</ele>
        <time>2026-05-21T08:32:17.999Z</time>
      </trkpt>
      <trkpt lat="43.77304" lon="3.84159">
        <ele>326.6</ele>
        <time>2026-05-21T08:32:18.999Z</time>
      </trkpt>
      <trkpt lat="43.77304" lon="3.84159">
        <ele>326.5</ele>
        <time>2026-05-21T08:32:19.999Z</time>
      </trkpt>
      <trkpt lat="43.77304" lon="3.84159">
        <ele>326.7</ele>
        <time>2026-05-21T08:32:20.999Z</time>
      </trkpt>
      <trkpt lat="43.77304" lon="3.84159">
        <ele>327</ele>
        <time>2026-05-21T08:32:21.999Z</time>
      </trkpt>
      <trkpt lat="43.77304" lon="3.84159">
        <ele>327</ele>
        <time>2026-05-21T08:32:22.999Z</time>
      </trkpt>
      <trkpt lat="43.77304" lon="3.84158">
        <ele>326.5</ele>
        <time>2026-05-21T08:32:23.999Z</time>
      </trkpt>
      <trkpt lat="43.77304" lon="3.84158">
        <ele>326.3</ele>
        <time>2026-05-21T08:32:24.999Z</time>
      </trkpt>
      <trkpt lat="43.77304" lon="3.84158">
        <ele>326.4</ele>
        <time>2026-05-21T08:32:25.999Z</time>
      </trkpt>
      <trkpt lat="43.77304" lon="3.84158">
        <ele>326.5</ele>
        <time>2026-05-21T08:32:26.999Z</time>
      </trkpt>
      <trkpt lat="43.77305" lon="3.84157">
        <ele>326.2</ele>
        <time>2026-05-21T08:32:27.999Z</time>
      </trkpt>
      <trkpt lat="43.77305" lon="3.84157">
        <ele>326</ele>
        <time>2026-05-21T08:32:28.999Z</time>
      </trkpt>
      <trkpt lat="43.77305" lon="3.84157">
        <ele>326</ele>
        <time>2026-05-21T08:32:29.999Z</time>
      </trkpt>
      <trkpt lat="43.77305" lon="3.84157">
        <ele>325.9</ele>
        <time>2026-05-21T08:32:30.999Z</time>
      </trkpt>
      <trkpt lat="43.77305" lon="3.84157">
        <ele>325.9</ele>
        <time>2026-05-21T08:32:31.999Z</time>
      </trkpt>
      <trkpt lat="43.77305" lon="3.84157">
        <ele>326.1</ele>
        <time>2026-05-21T08:32:32.999Z</time>
      </trkpt>
      <trkpt lat="43.77305" lon="3.84156">
        <ele>326.6</ele>
        <time>2026-05-21T08:32:33.999Z</time>
      </trkpt>
      <trkpt lat="43.77305" lon="3.84156">
        <ele>326.9</ele>
        <time>2026-05-21T08:32:34.999Z</time>
      </trkpt>
      <trkpt lat="43.77305" lon="3.84156">
        <ele>327.2</ele>
        <time>2026-05-21T08:32:35.999Z</time>
      </trkpt>
      <trkpt lat="43.77305" lon="3.84155">
        <ele>327.5</ele>
        <time>2026-05-21T08:32:36.999Z</time>
      </trkpt>
      <trkpt lat="43.77305" lon="3.84155">
        <ele>327.7</ele>
        <time>2026-05-21T08:32:37.999Z</time>
      </trkpt>
      <trkpt lat="43.77305" lon="3.84154">
        <ele>327.6</ele>
        <time>2026-05-21T08:32:38.999Z</time>
      </trkpt>
      <trkpt lat="43.77305" lon="3.84154">
        <ele>327.7</ele>
        <time>2026-05-21T08:32:39.999Z</time>
      </trkpt>
      <trkpt lat="43.77305" lon="3.84154">
        <ele>327.8</ele>
        <time>2026-05-21T08:32:40.999Z</time>
      </trkpt>
      <trkpt lat="43.77305" lon="3.84153">
        <ele>327.8</ele>
        <time>2026-05-21T08:32:41.999Z</time>
      </trkpt>
      <trkpt lat="43.77306" lon="3.84153">
        <ele>328.1</ele>
        <time>2026-05-21T08:32:42.999Z</time>
      </trkpt>
      <trkpt lat="43.77306" lon="3.84153">
        <ele>328.3</ele>
        <time>2026-05-21T08:32:43.999Z</time>
      </trkpt>
      <trkpt lat="43.77306" lon="3.84153">
        <ele>328.7</ele>
        <time>2026-05-21T08:32:44.999Z</time>
      </trkpt>
      <trkpt lat="43.77306" lon="3.84152">
        <ele>329.2</ele>
        <time>2026-05-21T08:32:45.999Z</time>
      </trkpt>
      <trkpt lat="43.77306" lon="3.84151">
        <ele>329.5</ele>
        <time>2026-05-21T08:32:46.999Z</time>
      </trkpt>
      <trkpt lat="43.77306" lon="3.84151">
        <ele>329.6</ele>
        <time>2026-05-21T08:32:47.999Z</time>
      </trkpt>
      <trkpt lat="43.77306" lon="3.84151">
        <ele>329.5</ele>
        <time>2026-05-21T08:32:48.999Z</time>
      </trkpt>
      <trkpt lat="43.77307" lon="3.84151">
        <ele>329.7</ele>
        <time>2026-05-21T08:32:49.999Z</time>
      </trkpt>
      <trkpt lat="43.77307" lon="3.84151">
        <ele>330</ele>
        <time>2026-05-21T08:32:50.999Z</time>
      </trkpt>
      <trkpt lat="43.77307" lon="3.8415">
        <ele>330.1</ele>
        <time>2026-05-21T08:32:51.999Z</time>
      </trkpt>
      <trkpt lat="43.77307" lon="3.8415">
        <ele>329.9</ele>
        <time>2026-05-21T08:32:52.999Z</time>
      </trkpt>
      <trkpt lat="43.77307" lon="3.8415">
        <ele>329.8</ele>
        <time>2026-05-21T08:32:53.999Z</time>
      </trkpt>
      <trkpt lat="43.77307" lon="3.8415">
        <ele>330.3</ele>
        <time>2026-05-21T08:32:54.999Z</time>
      </trkpt>
      <trkpt lat="43.77308" lon="3.84149">
        <ele>330.8</ele>
        <time>2026-05-21T08:32:55.999Z</time>
      </trkpt>
      <trkpt lat="43.77309" lon="3.84149">
        <ele>331.1</ele>
        <time>2026-05-21T08:32:56.999Z</time>
      </trkpt>
      <trkpt lat="43.7731" lon="3.84148">
        <ele>331.4</ele>
        <time>2026-05-21T08:32:57.999Z</time>
      </trkpt>
      <trkpt lat="43.77311" lon="3.84147">
        <ele>331.6</ele>
        <time>2026-05-21T08:32:58.999Z</time>
      </trkpt>
      <trkpt lat="43.77313" lon="3.84145">
        <ele>331.8</ele>
        <time>2026-05-21T08:32:59.999Z</time>
      </trkpt>
      <trkpt lat="43.77315" lon="3.84143">
        <ele>331.8</ele>
        <time>2026-05-21T08:33:00.999Z</time>
      </trkpt>
      <trkpt lat="43.77316" lon="3.84142">
        <ele>332.2</ele>
        <time>2026-05-21T08:33:01.999Z</time>
      </trkpt>
      <trkpt lat="43.77316" lon="3.84142">
        <ele>332.5</ele>
        <time>2026-05-21T08:33:02.999Z</time>
      </trkpt>
      <trkpt lat="43.77319" lon="3.84141">
        <ele>332.7</ele>
        <time>2026-05-21T08:33:03.999Z</time>
      </trkpt>
      <trkpt lat="43.7732" lon="3.84141">
        <ele>332.8</ele>
        <time>2026-05-21T08:33:04.999Z</time>
      </trkpt>
      <trkpt lat="43.77322" lon="3.84141">
        <ele>333</ele>
        <time>2026-05-21T08:33:05.999Z</time>
      </trkpt>
      <trkpt lat="43.77322" lon="3.8414">
        <ele>333.3</ele>
        <time>2026-05-21T08:33:06.999Z</time>
      </trkpt>
      <trkpt lat="43.77323" lon="3.84139">
        <ele>334</ele>
        <time>2026-05-21T08:33:07.999Z</time>
      </trkpt>
      <trkpt lat="43.77323" lon="3.84138">
        <ele>333.9</ele>
        <time>2026-05-21T08:33:08.999Z</time>
      </trkpt>
      <trkpt lat="43.77323" lon="3.84138">
        <ele>334</ele>
        <time>2026-05-21T08:33:09.999Z</time>
      </trkpt>
      <trkpt lat="43.77323" lon="3.84138">
        <ele>333.9</ele>
        <time>2026-05-21T08:33:10.999Z</time>
      </trkpt>
      <trkpt lat="43.77323" lon="3.84138">
        <ele>333.7</ele>
        <time>2026-05-21T08:33:11.999Z</time>
      </trkpt>
      <trkpt lat="43.77323" lon="3.84138">
        <ele>333.6</ele>
        <time>2026-05-21T08:33:12.999Z</time>
      </trkpt>
      <trkpt lat="43.77323" lon="3.84138">
        <ele>333.7</ele>
        <time>2026-05-21T08:33:13.999Z</time>
      </trkpt>
      <trkpt lat="43.77322" lon="3.84138">
        <ele>333.7</ele>
        <time>2026-05-21T08:33:14.999Z</time>
      </trkpt>
      <trkpt lat="43.77322" lon="3.84138">
        <ele>333.6</ele>
        <time>2026-05-21T08:33:15.999Z</time>
      </trkpt>
      <trkpt lat="43.77322" lon="3.84138">
        <ele>333.5</ele>
        <time>2026-05-21T08:33:16.999Z</time>
      </trkpt>
      <trkpt lat="43.77322" lon="3.84138">
        <ele>333.5</ele>
        <time>2026-05-21T08:33:17.999Z</time>
      </trkpt>
      <trkpt lat="43.77322" lon="3.84138">
        <ele>333.8</ele>
        <time>2026-05-21T08:33:18.999Z</time>
      </trkpt>
      <trkpt lat="43.77322" lon="3.84138">
        <ele>333.9</ele>
        <time>2026-05-21T08:33:19.999Z</time>
      </trkpt>
      <trkpt lat="43.77322" lon="3.84138">
        <ele>333.9</ele>
        <time>2026-05-21T08:33:20.999Z</time>
      </trkpt>
      <trkpt lat="43.77322" lon="3.84138">
        <ele>333.8</ele>
        <time>2026-05-21T08:33:21.999Z</time>
      </trkpt>
      <trkpt lat="43.77321" lon="3.84138">
        <ele>333.6</ele>
        <time>2026-05-21T08:33:22.999Z</time>
      </trkpt>
      <trkpt lat="43.77321" lon="3.84138">
        <ele>333.6</ele>
        <time>2026-05-21T08:33:23.999Z</time>
      </trkpt>
      <trkpt lat="43.77321" lon="3.84138">
        <ele>333.1</ele>
        <time>2026-05-21T08:33:24.999Z</time>
      </trkpt>
      <trkpt lat="43.77321" lon="3.84138">
        <ele>333.1</ele>
        <time>2026-05-21T08:33:25.999Z</time>
      </trkpt>
      <trkpt lat="43.77321" lon="3.84138">
        <ele>333.1</ele>
        <time>2026-05-21T08:33:26.999Z</time>
      </trkpt>
      <trkpt lat="43.77321" lon="3.84138">
        <ele>333.1</ele>
        <time>2026-05-21T08:33:27.999Z</time>
      </trkpt>
      <trkpt lat="43.77321" lon="3.84138">
        <ele>332.9</ele>
        <time>2026-05-21T08:33:28.999Z</time>
      </trkpt>
      <trkpt lat="43.77321" lon="3.84138">
        <ele>332.9</ele>
        <time>2026-05-21T08:33:29.999Z</time>
      </trkpt>
      <trkpt lat="43.77321" lon="3.84137">
        <ele>332.8</ele>
        <time>2026-05-21T08:33:30.999Z</time>
      </trkpt>
      <trkpt lat="43.77321" lon="3.84138">
        <ele>332.9</ele>
        <time>2026-05-21T08:33:31.999Z</time>
      </trkpt>
      <trkpt lat="43.77321" lon="3.84137">
        <ele>333.1</ele>
        <time>2026-05-21T08:33:32.999Z</time>
      </trkpt>
      <trkpt lat="43.77321" lon="3.84137">
        <ele>333.4</ele>
        <time>2026-05-21T08:33:33.999Z</time>
      </trkpt>
      <trkpt lat="43.77322" lon="3.84137">
        <ele>333.4</ele>
        <time>2026-05-21T08:33:34.999Z</time>
      </trkpt>
      <trkpt lat="43.77322" lon="3.84138">
        <ele>333.4</ele>
        <time>2026-05-21T08:33:35.999Z</time>
      </trkpt>
      <trkpt lat="43.77322" lon="3.84139">
        <ele>333.5</ele>
        <time>2026-05-21T08:33:36.999Z</time>
      </trkpt>
      <trkpt lat="43.77323" lon="3.84139">
        <ele>333.8</ele>
        <time>2026-05-21T08:33:37.999Z</time>
      </trkpt>
      <trkpt lat="43.77323" lon="3.8414">
        <ele>334.5</ele>
        <time>2026-05-21T08:33:38.999Z</time>
      </trkpt>
      <trkpt lat="43.77324" lon="3.84142">
        <ele>334.8</ele>
        <time>2026-05-21T08:33:39.999Z</time>
      </trkpt>
      <trkpt lat="43.77325" lon="3.84142">
        <ele>335.2</ele>
        <time>2026-05-21T08:33:40.999Z</time>
      </trkpt>
      <trkpt lat="43.77326" lon="3.84143">
        <ele>335.7</ele>
        <time>2026-05-21T08:33:41.999Z</time>
      </trkpt>
      <trkpt lat="43.77327" lon="3.84142">
        <ele>336.2</ele>
        <time>2026-05-21T08:33:42.999Z</time>
      </trkpt>
      <trkpt lat="43.77327" lon="3.84142">
        <ele>336.2</ele>
        <time>2026-05-21T08:33:43.999Z</time>
      </trkpt>
      <trkpt lat="43.77327" lon="3.84142">
        <ele>334.2</ele>
        <time>2026-05-21T08:33:44.999Z</time>
      </trkpt>
      <trkpt lat="43.77327" lon="3.84142">
        <ele>334.4</ele>
        <time>2026-05-21T08:33:45.999Z</time>
      </trkpt>
      <trkpt lat="43.77327" lon="3.84142">
        <ele>334.4</ele>
        <time>2026-05-21T08:33:46.999Z</time>
      </trkpt>
      <trkpt lat="43.77329" lon="3.8414">
        <ele>334.4</ele>
        <time>2026-05-21T08:33:47.999Z</time>
      </trkpt>
      <trkpt lat="43.77329" lon="3.84138">
        <ele>334.3</ele>
        <time>2026-05-21T08:33:48.999Z</time>
      </trkpt>
      <trkpt lat="43.77329" lon="3.84137">
        <ele>334.2</ele>
        <time>2026-05-21T08:33:49.999Z</time>
      </trkpt>
      <trkpt lat="43.77329" lon="3.84136">
        <ele>334.3</ele>
        <time>2026-05-21T08:33:50.999Z</time>
      </trkpt>
      <trkpt lat="43.77329" lon="3.84135">
        <ele>334.1</ele>
        <time>2026-05-21T08:33:51.999Z</time>
      </trkpt>
      <trkpt lat="43.7733" lon="3.84133">
        <ele>333.9</ele>
        <time>2026-05-21T08:33:52.999Z</time>
      </trkpt>
      <trkpt lat="43.77329" lon="3.84132">
        <ele>333.8</ele>
        <time>2026-05-21T08:33:53.999Z</time>
      </trkpt>
      <trkpt lat="43.7733" lon="3.84131">
        <ele>334</ele>
        <time>2026-05-21T08:33:54.999Z</time>
      </trkpt>
      <trkpt lat="43.77329" lon="3.84131">
        <ele>333.8</ele>
        <time>2026-05-21T08:33:55.999Z</time>
      </trkpt>
      <trkpt lat="43.7733" lon="3.8413">
        <ele>333.5</ele>
        <time>2026-05-21T08:33:56.999Z</time>
      </trkpt>
      <trkpt lat="43.7733" lon="3.8413">
        <ele>333.4</ele>
        <time>2026-05-21T08:33:57.999Z</time>
      </trkpt>
      <trkpt lat="43.7733" lon="3.8413">
        <ele>333.8</ele>
        <time>2026-05-21T08:33:58.999Z</time>
      </trkpt>
      <trkpt lat="43.77331" lon="3.8413">
        <ele>333.7</ele>
        <time>2026-05-21T08:33:59.999Z</time>
      </trkpt>
      <trkpt lat="43.77332" lon="3.84128">
        <ele>333.7</ele>
        <time>2026-05-21T08:34:00.999Z</time>
      </trkpt>
      <trkpt lat="43.77332" lon="3.84128">
        <ele>333.5</ele>
        <time>2026-05-21T08:34:01.999Z</time>
      </trkpt>
      <trkpt lat="43.77332" lon="3.84127">
        <ele>333.6</ele>
        <time>2026-05-21T08:34:02.999Z</time>
      </trkpt>
      <trkpt lat="43.77332" lon="3.84126">
        <ele>333.7</ele>
        <time>2026-05-21T08:34:03.999Z</time>
      </trkpt>
      <trkpt lat="43.77332" lon="3.84125">
        <ele>333.6</ele>
        <time>2026-05-21T08:34:04.999Z</time>
      </trkpt>
      <trkpt lat="43.77331" lon="3.84124">
        <ele>333.8</ele>
        <time>2026-05-21T08:34:05.999Z</time>
      </trkpt>
      <trkpt lat="43.77331" lon="3.84124">
        <ele>334.1</ele>
        <time>2026-05-21T08:34:06.999Z</time>
      </trkpt>
      <trkpt lat="43.77331" lon="3.84124">
        <ele>334.2</ele>
        <time>2026-05-21T08:34:07.999Z</time>
      </trkpt>
      <trkpt lat="43.77331" lon="3.84124">
        <ele>334.4</ele>
        <time>2026-05-21T08:34:08.999Z</time>
      </trkpt>
      <trkpt lat="43.77331" lon="3.84123">
        <ele>334.4</ele>
        <time>2026-05-21T08:34:09.999Z</time>
      </trkpt>
      <trkpt lat="43.77331" lon="3.84123">
        <ele>334.3</ele>
        <time>2026-05-21T08:34:10.999Z</time>
      </trkpt>
      <trkpt lat="43.77332" lon="3.84123">
        <ele>334.3</ele>
        <time>2026-05-21T08:34:11.999Z</time>
      </trkpt>
      <trkpt lat="43.77332" lon="3.84121">
        <ele>333.5</ele>
        <time>2026-05-21T08:34:12.999Z</time>
      </trkpt>
      <trkpt lat="43.77333" lon="3.8412">
        <ele>333</ele>
        <time>2026-05-21T08:34:13.999Z</time>
      </trkpt>
      <trkpt lat="43.77333" lon="3.84121">
        <ele>332.6</ele>
        <time>2026-05-21T08:34:14.999Z</time>
      </trkpt>
      <trkpt lat="43.77332" lon="3.84119">
        <ele>332.4</ele>
        <time>2026-05-21T08:34:15.999Z</time>
      </trkpt>
      <trkpt lat="43.77332" lon="3.84118">
        <ele>332.2</ele>
        <time>2026-05-21T08:34:16.999Z</time>
      </trkpt>
      <trkpt lat="43.77332" lon="3.84116">
        <ele>331.9</ele>
        <time>2026-05-21T08:34:17.999Z</time>
      </trkpt>
      <trkpt lat="43.77331" lon="3.84114">
        <ele>331.8</ele>
        <time>2026-05-21T08:34:18.999Z</time>
      </trkpt>
      <trkpt lat="43.77331" lon="3.84113">
        <ele>331.6</ele>
        <time>2026-05-21T08:34:19.999Z</time>
      </trkpt>
      <trkpt lat="43.77331" lon="3.8411">
        <ele>331.7</ele>
        <time>2026-05-21T08:34:20.999Z</time>
      </trkpt>
      <trkpt lat="43.77331" lon="3.84108">
        <ele>331.6</ele>
        <time>2026-05-21T08:34:21.999Z</time>
      </trkpt>
      <trkpt lat="43.77331" lon="3.84106">
        <ele>331.3</ele>
        <time>2026-05-21T08:34:22.999Z</time>
      </trkpt>
      <trkpt lat="43.77331" lon="3.84104">
        <ele>331</ele>
        <time>2026-05-21T08:34:23.999Z</time>
      </trkpt>
      <trkpt lat="43.77331" lon="3.84103">
        <ele>331</ele>
        <time>2026-05-21T08:34:24.999Z</time>
      </trkpt>
      <trkpt lat="43.77331" lon="3.84101">
        <ele>330.9</ele>
        <time>2026-05-21T08:34:25.999Z</time>
      </trkpt>
      <trkpt lat="43.77331" lon="3.841">
        <ele>331.1</ele>
        <time>2026-05-21T08:34:26.999Z</time>
      </trkpt>
      <trkpt lat="43.7733" lon="3.84099">
        <ele>331.2</ele>
        <time>2026-05-21T08:34:27.999Z</time>
      </trkpt>
      <trkpt lat="43.7733" lon="3.84098">
        <ele>331.5</ele>
        <time>2026-05-21T08:34:28.999Z</time>
      </trkpt>
      <trkpt lat="43.7733" lon="3.84097">
        <ele>331.2</ele>
        <time>2026-05-21T08:34:29.999Z</time>
      </trkpt>
      <trkpt lat="43.7733" lon="3.84094">
        <ele>331.4</ele>
        <time>2026-05-21T08:34:30.999Z</time>
      </trkpt>
      <trkpt lat="43.77329" lon="3.84093">
        <ele>331.4</ele>
        <time>2026-05-21T08:34:31.999Z</time>
      </trkpt>
      <trkpt lat="43.77329" lon="3.84093">
        <ele>332.1</ele>
        <time>2026-05-21T08:34:32.999Z</time>
      </trkpt>
      <trkpt lat="43.7733" lon="3.84092">
        <ele>332.4</ele>
        <time>2026-05-21T08:34:33.999Z</time>
      </trkpt>
      <trkpt lat="43.77329" lon="3.8409">
        <ele>333.1</ele>
        <time>2026-05-21T08:34:34.999Z</time>
      </trkpt>
      <trkpt lat="43.77329" lon="3.84089">
        <ele>333.5</ele>
        <time>2026-05-21T08:34:35.999Z</time>
      </trkpt>
      <trkpt lat="43.7733" lon="3.84087">
        <ele>333.8</ele>
        <time>2026-05-21T08:34:36.999Z</time>
      </trkpt>
      <trkpt lat="43.77331" lon="3.84086">
        <ele>333.6</ele>
        <time>2026-05-21T08:34:37.999Z</time>
      </trkpt>
      <trkpt lat="43.77332" lon="3.84085">
        <ele>333.6</ele>
        <time>2026-05-21T08:34:38.999Z</time>
      </trkpt>
      <trkpt lat="43.77332" lon="3.84083">
        <ele>334</ele>
        <time>2026-05-21T08:34:39.999Z</time>
      </trkpt>
      <trkpt lat="43.77332" lon="3.84082">
        <ele>334.2</ele>
        <time>2026-05-21T08:34:40.999Z</time>
      </trkpt>
      <trkpt lat="43.77332" lon="3.84081">
        <ele>334.4</ele>
        <time>2026-05-21T08:34:41.999Z</time>
      </trkpt>
      <trkpt lat="43.77332" lon="3.8408">
        <ele>334.5</ele>
        <time>2026-05-21T08:34:42.999Z</time>
      </trkpt>
      <trkpt lat="43.77332" lon="3.84078">
        <ele>334.6</ele>
        <time>2026-05-21T08:34:43.999Z</time>
      </trkpt>
      <trkpt lat="43.77332" lon="3.84078">
        <ele>334.3</ele>
        <time>2026-05-21T08:34:44.999Z</time>
      </trkpt>
      <trkpt lat="43.77331" lon="3.84077">
        <ele>334.2</ele>
        <time>2026-05-21T08:34:45.999Z</time>
      </trkpt>
      <trkpt lat="43.77331" lon="3.84076">
        <ele>334.2</ele>
        <time>2026-05-21T08:34:46.999Z</time>
      </trkpt>
      <trkpt lat="43.77331" lon="3.84076">
        <ele>334.3</ele>
        <time>2026-05-21T08:34:47.999Z</time>
      </trkpt>
      <trkpt lat="43.77331" lon="3.84076">
        <ele>334</ele>
        <time>2026-05-21T08:34:48.999Z</time>
      </trkpt>
      <trkpt lat="43.77332" lon="3.84074">
        <ele>333.7</ele>
        <time>2026-05-21T08:34:49.999Z</time>
      </trkpt>
      <trkpt lat="43.77332" lon="3.84074">
        <ele>334.1</ele>
        <time>2026-05-21T08:34:50.999Z</time>
      </trkpt>
      <trkpt lat="43.77334" lon="3.84073">
        <ele>333.9</ele>
        <time>2026-05-21T08:34:51.999Z</time>
      </trkpt>
      <trkpt lat="43.77334" lon="3.84072">
        <ele>334.1</ele>
        <time>2026-05-21T08:34:52.999Z</time>
      </trkpt>
      <trkpt lat="43.77335" lon="3.84071">
        <ele>334.1</ele>
        <time>2026-05-21T08:34:53.999Z</time>
      </trkpt>
      <trkpt lat="43.77336" lon="3.84072">
        <ele>334.1</ele>
        <time>2026-05-21T08:34:54.999Z</time>
      </trkpt>
      <trkpt lat="43.77336" lon="3.84071">
        <ele>334.1</ele>
        <time>2026-05-21T08:34:55.999Z</time>
      </trkpt>
      <trkpt lat="43.77336" lon="3.8407">
        <ele>334.4</ele>
        <time>2026-05-21T08:34:56.999Z</time>
      </trkpt>
      <trkpt lat="43.77337" lon="3.84069">
        <ele>334.5</ele>
        <time>2026-05-21T08:34:57.999Z</time>
      </trkpt>
      <trkpt lat="43.77336" lon="3.84068">
        <ele>334.5</ele>
        <time>2026-05-21T08:34:58.999Z</time>
      </trkpt>
      <trkpt lat="43.77336" lon="3.84067">
        <ele>334.8</ele>
        <time>2026-05-21T08:34:59.999Z</time>
      </trkpt>
      <trkpt lat="43.77337" lon="3.84065">
        <ele>334.7</ele>
        <time>2026-05-21T08:35:00.999Z</time>
      </trkpt>
      <trkpt lat="43.77337" lon="3.84064">
        <ele>334.9</ele>
        <time>2026-05-21T08:35:01.999Z</time>
      </trkpt>
      <trkpt lat="43.77337" lon="3.84062">
        <ele>335.1</ele>
        <time>2026-05-21T08:35:02.999Z</time>
      </trkpt>
      <trkpt lat="43.77337" lon="3.84062">
        <ele>335.2</ele>
        <time>2026-05-21T08:35:03.999Z</time>
      </trkpt>
      <trkpt lat="43.77338" lon="3.84061">
        <ele>335.1</ele>
        <time>2026-05-21T08:35:04.999Z</time>
      </trkpt>
      <trkpt lat="43.77339" lon="3.84061">
        <ele>335.6</ele>
        <time>2026-05-21T08:35:05.999Z</time>
      </trkpt>
      <trkpt lat="43.77339" lon="3.84059">
        <ele>336.1</ele>
        <time>2026-05-21T08:35:06.999Z</time>
      </trkpt>
      <trkpt lat="43.77339" lon="3.84057">
        <ele>336.7</ele>
        <time>2026-05-21T08:35:07.999Z</time>
      </trkpt>
      <trkpt lat="43.77339" lon="3.84054">
        <ele>337.4</ele>
        <time>2026-05-21T08:35:08.999Z</time>
      </trkpt>
      <trkpt lat="43.77339" lon="3.84053">
        <ele>337.7</ele>
        <time>2026-05-21T08:35:09.999Z</time>
      </trkpt>
      <trkpt lat="43.77339" lon="3.84052">
        <ele>337.7</ele>
        <time>2026-05-21T08:35:10.999Z</time>
      </trkpt>
      <trkpt lat="43.77338" lon="3.8405">
        <ele>337.8</ele>
        <time>2026-05-21T08:35:11.999Z</time>
      </trkpt>
      <trkpt lat="43.77338" lon="3.84048">
        <ele>338.1</ele>
        <time>2026-05-21T08:35:12.999Z</time>
      </trkpt>
      <trkpt lat="43.77338" lon="3.84047">
        <ele>338.1</ele>
        <time>2026-05-21T08:35:13.999Z</time>
      </trkpt>
      <trkpt lat="43.77338" lon="3.84046">
        <ele>338.2</ele>
        <time>2026-05-21T08:35:14.999Z</time>
      </trkpt>
      <trkpt lat="43.77338" lon="3.84046">
        <ele>338.3</ele>
        <time>2026-05-21T08:35:15.999Z</time>
      </trkpt>
      <trkpt lat="43.77337" lon="3.84046">
        <ele>338.6</ele>
        <time>2026-05-21T08:35:16.999Z</time>
      </trkpt>
      <trkpt lat="43.77337" lon="3.84045">
        <ele>338.6</ele>
        <time>2026-05-21T08:35:17.999Z</time>
      </trkpt>
      <trkpt lat="43.77337" lon="3.84044">
        <ele>338.6</ele>
        <time>2026-05-21T08:35:18.999Z</time>
      </trkpt>
      <trkpt lat="43.77337" lon="3.84043">
        <ele>338.5</ele>
        <time>2026-05-21T08:35:19.999Z</time>
      </trkpt>
      <trkpt lat="43.77337" lon="3.84043">
        <ele>338.6</ele>
        <time>2026-05-21T08:35:20.999Z</time>
      </trkpt>
      <trkpt lat="43.77338" lon="3.84042">
        <ele>338.7</ele>
        <time>2026-05-21T08:35:21.999Z</time>
      </trkpt>
      <trkpt lat="43.77338" lon="3.84042">
        <ele>338.5</ele>
        <time>2026-05-21T08:35:22.999Z</time>
      </trkpt>
      <trkpt lat="43.77339" lon="3.84041">
        <ele>338.4</ele>
        <time>2026-05-21T08:35:23.999Z</time>
      </trkpt>
      <trkpt lat="43.77339" lon="3.84041">
        <ele>338.2</ele>
        <time>2026-05-21T08:35:24.999Z</time>
      </trkpt>
      <trkpt lat="43.77339" lon="3.84039">
        <ele>338</ele>
        <time>2026-05-21T08:35:25.999Z</time>
      </trkpt>
      <trkpt lat="43.77339" lon="3.84038">
        <ele>338</ele>
        <time>2026-05-21T08:35:26.999Z</time>
      </trkpt>
      <trkpt lat="43.77339" lon="3.84037">
        <ele>337.8</ele>
        <time>2026-05-21T08:35:27.999Z</time>
      </trkpt>
      <trkpt lat="43.77339" lon="3.84036">
        <ele>337.8</ele>
        <time>2026-05-21T08:35:28.999Z</time>
      </trkpt>
      <trkpt lat="43.77338" lon="3.84034">
        <ele>338.1</ele>
        <time>2026-05-21T08:35:29.999Z</time>
      </trkpt>
      <trkpt lat="43.77338" lon="3.84033">
        <ele>338.1</ele>
        <time>2026-05-21T08:35:30.999Z</time>
      </trkpt>
      <trkpt lat="43.77338" lon="3.84032">
        <ele>338.3</ele>
        <time>2026-05-21T08:35:31.999Z</time>
      </trkpt>
      <trkpt lat="43.77338" lon="3.84032">
        <ele>338.1</ele>
        <time>2026-05-21T08:35:32.999Z</time>
      </trkpt>
      <trkpt lat="43.77338" lon="3.84032">
        <ele>338.3</ele>
        <time>2026-05-21T08:35:33.999Z</time>
      </trkpt>
      <trkpt lat="43.77338" lon="3.84032">
        <ele>338.3</ele>
        <time>2026-05-21T08:35:34.999Z</time>
      </trkpt>
      <trkpt lat="43.77338" lon="3.84032">
        <ele>338.2</ele>
        <time>2026-05-21T08:35:35.999Z</time>
      </trkpt>
      <trkpt lat="43.77339" lon="3.8403">
        <ele>338.3</ele>
        <time>2026-05-21T08:35:36.999Z</time>
      </trkpt>
      <trkpt lat="43.7734" lon="3.84029">
        <ele>338.5</ele>
        <time>2026-05-21T08:35:37.999Z</time>
      </trkpt>
      <trkpt lat="43.7734" lon="3.84028">
        <ele>338.6</ele>
        <time>2026-05-21T08:35:38.999Z</time>
      </trkpt>
      <trkpt lat="43.77341" lon="3.84026">
        <ele>338.6</ele>
        <time>2026-05-21T08:35:39.999Z</time>
      </trkpt>
      <trkpt lat="43.77342" lon="3.84024">
        <ele>338.4</ele>
        <time>2026-05-21T08:35:40.999Z</time>
      </trkpt>
      <trkpt lat="43.77343" lon="3.84023">
        <ele>338.3</ele>
        <time>2026-05-21T08:35:41.999Z</time>
      </trkpt>
      <trkpt lat="43.77344" lon="3.84022">
        <ele>338.1</ele>
        <time>2026-05-21T08:35:42.999Z</time>
      </trkpt>
      <trkpt lat="43.77345" lon="3.84022">
        <ele>337.9</ele>
        <time>2026-05-21T08:35:43.999Z</time>
      </trkpt>
      <trkpt lat="43.77345" lon="3.84022">
        <ele>337.9</ele>
        <time>2026-05-21T08:35:44.999Z</time>
      </trkpt>
      <trkpt lat="43.77344" lon="3.8402">
        <ele>338</ele>
        <time>2026-05-21T08:35:45.999Z</time>
      </trkpt>
      <trkpt lat="43.77344" lon="3.84019">
        <ele>338.6</ele>
        <time>2026-05-21T08:35:46.999Z</time>
      </trkpt>
      <trkpt lat="43.77344" lon="3.84018">
        <ele>338.9</ele>
        <time>2026-05-21T08:35:47.999Z</time>
      </trkpt>
      <trkpt lat="43.77344" lon="3.84017">
        <ele>339.2</ele>
        <time>2026-05-21T08:35:48.999Z</time>
      </trkpt>
      <trkpt lat="43.77344" lon="3.84015">
        <ele>339.8</ele>
        <time>2026-05-21T08:35:49.999Z</time>
      </trkpt>
      <trkpt lat="43.77344" lon="3.84015">
        <ele>340.4</ele>
        <time>2026-05-21T08:35:50.999Z</time>
      </trkpt>
      <trkpt lat="43.77344" lon="3.84013">
        <ele>341</ele>
        <time>2026-05-21T08:35:51.999Z</time>
      </trkpt>
      <trkpt lat="43.77344" lon="3.84012">
        <ele>341.8</ele>
        <time>2026-05-21T08:35:52.999Z</time>
      </trkpt>
      <trkpt lat="43.77344" lon="3.84011">
        <ele>342.1</ele>
        <time>2026-05-21T08:35:53.999Z</time>
      </trkpt>
      <trkpt lat="43.77344" lon="3.8401">
        <ele>342.6</ele>
        <time>2026-05-21T08:35:54.999Z</time>
      </trkpt>
      <trkpt lat="43.77344" lon="3.84008">
        <ele>343.1</ele>
        <time>2026-05-21T08:35:55.999Z</time>
      </trkpt>
      <trkpt lat="43.77345" lon="3.84007">
        <ele>343.5</ele>
        <time>2026-05-21T08:35:56.999Z</time>
      </trkpt>
      <trkpt lat="43.77345" lon="3.84006">
        <ele>343.5</ele>
        <time>2026-05-21T08:35:57.999Z</time>
      </trkpt>
      <trkpt lat="43.77345" lon="3.84006">
        <ele>343.4</ele>
        <time>2026-05-21T08:35:58.999Z</time>
      </trkpt>
      <trkpt lat="43.77345" lon="3.84005">
        <ele>343.6</ele>
        <time>2026-05-21T08:35:59.999Z</time>
      </trkpt>
      <trkpt lat="43.77346" lon="3.84004">
        <ele>343.1</ele>
        <time>2026-05-21T08:36:00.999Z</time>
      </trkpt>
      <trkpt lat="43.77346" lon="3.84003">
        <ele>342.9</ele>
        <time>2026-05-21T08:36:01.999Z</time>
      </trkpt>
      <trkpt lat="43.77346" lon="3.84003">
        <ele>343.1</ele>
        <time>2026-05-21T08:36:02.999Z</time>
      </trkpt>
      <trkpt lat="43.77346" lon="3.84002">
        <ele>343</ele>
        <time>2026-05-21T08:36:03.999Z</time>
      </trkpt>
      <trkpt lat="43.77346" lon="3.84002">
        <ele>343.1</ele>
        <time>2026-05-21T08:36:04.999Z</time>
      </trkpt>
      <trkpt lat="43.77346" lon="3.84002">
        <ele>343.4</ele>
        <time>2026-05-21T08:36:05.999Z</time>
      </trkpt>
      <trkpt lat="43.77345" lon="3.84001">
        <ele>343.6</ele>
        <time>2026-05-21T08:36:06.999Z</time>
      </trkpt>
      <trkpt lat="43.77346" lon="3.84">
        <ele>343.4</ele>
        <time>2026-05-21T08:36:07.999Z</time>
      </trkpt>
      <trkpt lat="43.77345" lon="3.83999">
        <ele>342.9</ele>
        <time>2026-05-21T08:36:08.999Z</time>
      </trkpt>
      <trkpt lat="43.77345" lon="3.83998">
        <ele>342.7</ele>
        <time>2026-05-21T08:36:09.999Z</time>
      </trkpt>
      <trkpt lat="43.77345" lon="3.83997">
        <ele>342.3</ele>
        <time>2026-05-21T08:36:10.999Z</time>
      </trkpt>
      <trkpt lat="43.77345" lon="3.83997">
        <ele>342.5</ele>
        <time>2026-05-21T08:36:11.999Z</time>
      </trkpt>
      <trkpt lat="43.77345" lon="3.83995">
        <ele>342.6</ele>
        <time>2026-05-21T08:36:12.999Z</time>
      </trkpt>
      <trkpt lat="43.77344" lon="3.83994">
        <ele>343.2</ele>
        <time>2026-05-21T08:36:13.999Z</time>
      </trkpt>
      <trkpt lat="43.77344" lon="3.83993">
        <ele>343.5</ele>
        <time>2026-05-21T08:36:14.999Z</time>
      </trkpt>
      <trkpt lat="43.77344" lon="3.83991">
        <ele>343.7</ele>
        <time>2026-05-21T08:36:15.999Z</time>
      </trkpt>
      <trkpt lat="43.77343" lon="3.83991">
        <ele>343.9</ele>
        <time>2026-05-21T08:36:16.999Z</time>
      </trkpt>
      <trkpt lat="43.77343" lon="3.8399">
        <ele>344.1</ele>
        <time>2026-05-21T08:36:17.999Z</time>
      </trkpt>
      <trkpt lat="43.77343" lon="3.83989">
        <ele>344.4</ele>
        <time>2026-05-21T08:36:18.999Z</time>
      </trkpt>
      <trkpt lat="43.77344" lon="3.83988">
        <ele>344.5</ele>
        <time>2026-05-21T08:36:19.999Z</time>
      </trkpt>
      <trkpt lat="43.77344" lon="3.83987">
        <ele>344</ele>
        <time>2026-05-21T08:36:20.999Z</time>
      </trkpt>
      <trkpt lat="43.77345" lon="3.83985">
        <ele>343.3</ele>
        <time>2026-05-21T08:36:21.999Z</time>
      </trkpt>
      <trkpt lat="43.77345" lon="3.83984">
        <ele>343.5</ele>
        <time>2026-05-21T08:36:22.999Z</time>
      </trkpt>
      <trkpt lat="43.77345" lon="3.83983">
        <ele>343.9</ele>
        <time>2026-05-21T08:36:23.999Z</time>
      </trkpt>
      <trkpt lat="43.77345" lon="3.83982">
        <ele>344.2</ele>
        <time>2026-05-21T08:36:24.999Z</time>
      </trkpt>
      <trkpt lat="43.77346" lon="3.8398">
        <ele>344.3</ele>
        <time>2026-05-21T08:36:25.999Z</time>
      </trkpt>
      <trkpt lat="43.77346" lon="3.83979">
        <ele>344.1</ele>
        <time>2026-05-21T08:36:26.999Z</time>
      </trkpt>
      <trkpt lat="43.77346" lon="3.83978">
        <ele>343.8</ele>
        <time>2026-05-21T08:36:27.999Z</time>
      </trkpt>
      <trkpt lat="43.77345" lon="3.83977">
        <ele>343.3</ele>
        <time>2026-05-21T08:36:28.999Z</time>
      </trkpt>
      <trkpt lat="43.77345" lon="3.83975">
        <ele>342.9</ele>
        <time>2026-05-21T08:36:29.999Z</time>
      </trkpt>
      <trkpt lat="43.77345" lon="3.83974">
        <ele>342.5</ele>
        <time>2026-05-21T08:36:30.999Z</time>
      </trkpt>
      <trkpt lat="43.77345" lon="3.83971">
        <ele>342.4</ele>
        <time>2026-05-21T08:36:31.999Z</time>
      </trkpt>
      <trkpt lat="43.77344" lon="3.8397">
        <ele>342.7</ele>
        <time>2026-05-21T08:36:32.999Z</time>
      </trkpt>
      <trkpt lat="43.77344" lon="3.83969">
        <ele>342.9</ele>
        <time>2026-05-21T08:36:33.999Z</time>
      </trkpt>
      <trkpt lat="43.77344" lon="3.83967">
        <ele>342.8</ele>
        <time>2026-05-21T08:36:34.999Z</time>
      </trkpt>
      <trkpt lat="43.77343" lon="3.83966">
        <ele>343</ele>
        <time>2026-05-21T08:36:35.999Z</time>
      </trkpt>
      <trkpt lat="43.77344" lon="3.83965">
        <ele>343.6</ele>
        <time>2026-05-21T08:36:36.999Z</time>
      </trkpt>
      <trkpt lat="43.77344" lon="3.83964">
        <ele>344</ele>
        <time>2026-05-21T08:36:37.999Z</time>
      </trkpt>
      <trkpt lat="43.77345" lon="3.83963">
        <ele>344.3</ele>
        <time>2026-05-21T08:36:38.999Z</time>
      </trkpt>
      <trkpt lat="43.77346" lon="3.83962">
        <ele>345</ele>
        <time>2026-05-21T08:36:39.999Z</time>
      </trkpt>
      <trkpt lat="43.77346" lon="3.83961">
        <ele>345.1</ele>
        <time>2026-05-21T08:36:40.999Z</time>
      </trkpt>
      <trkpt lat="43.77346" lon="3.8396">
        <ele>345.1</ele>
        <time>2026-05-21T08:36:41.999Z</time>
      </trkpt>
      <trkpt lat="43.77346" lon="3.83959">
        <ele>345.6</ele>
        <time>2026-05-21T08:36:42.999Z</time>
      </trkpt>
      <trkpt lat="43.77347" lon="3.8396">
        <ele>345.9</ele>
        <time>2026-05-21T08:36:43.999Z</time>
      </trkpt>
      <trkpt lat="43.77348" lon="3.8396">
        <ele>345.8</ele>
        <time>2026-05-21T08:36:44.999Z</time>
      </trkpt>
      <trkpt lat="43.77348" lon="3.83959">
        <ele>346.3</ele>
        <time>2026-05-21T08:36:45.999Z</time>
      </trkpt>
      <trkpt lat="43.7735" lon="3.83959">
        <ele>346.6</ele>
        <time>2026-05-21T08:36:46.999Z</time>
      </trkpt>
      <trkpt lat="43.7735" lon="3.83959">
        <ele>347.3</ele>
        <time>2026-05-21T08:36:47.999Z</time>
      </trkpt>
      <trkpt lat="43.77351" lon="3.83959">
        <ele>347.3</ele>
        <time>2026-05-21T08:36:48.999Z</time>
      </trkpt>
      <trkpt lat="43.77352" lon="3.8396">
        <ele>347.7</ele>
        <time>2026-05-21T08:36:49.999Z</time>
      </trkpt>
      <trkpt lat="43.77353" lon="3.8396">
        <ele>347.8</ele>
        <time>2026-05-21T08:36:50.999Z</time>
      </trkpt>
      <trkpt lat="43.77354" lon="3.83961">
        <ele>348.3</ele>
        <time>2026-05-21T08:36:51.999Z</time>
      </trkpt>
      <trkpt lat="43.77356" lon="3.83962">
        <ele>348.6</ele>
        <time>2026-05-21T08:36:52.999Z</time>
      </trkpt>
      <trkpt lat="43.77356" lon="3.83963">
        <ele>348.7</ele>
        <time>2026-05-21T08:36:53.999Z</time>
      </trkpt>
      <trkpt lat="43.77357" lon="3.83963">
        <ele>348.6</ele>
        <time>2026-05-21T08:36:54.999Z</time>
      </trkpt>
      <trkpt lat="43.77358" lon="3.83963">
        <ele>348.9</ele>
        <time>2026-05-21T08:36:55.999Z</time>
      </trkpt>
      <trkpt lat="43.77358" lon="3.83964">
        <ele>348.7</ele>
        <time>2026-05-21T08:36:56.999Z</time>
      </trkpt>
      <trkpt lat="43.77358" lon="3.83964">
        <ele>348.9</ele>
        <time>2026-05-21T08:36:57.999Z</time>
      </trkpt>
      <trkpt lat="43.77359" lon="3.83963">
        <ele>349.6</ele>
        <time>2026-05-21T08:36:58.999Z</time>
      </trkpt>
      <trkpt lat="43.77359" lon="3.83963">
        <ele>349.5</ele>
        <time>2026-05-21T08:36:59.999Z</time>
      </trkpt>
      <trkpt lat="43.7736" lon="3.83963">
        <ele>349.4</ele>
        <time>2026-05-21T08:37:00.999Z</time>
      </trkpt>
      <trkpt lat="43.77361" lon="3.83963">
        <ele>349.6</ele>
        <time>2026-05-21T08:37:01.999Z</time>
      </trkpt>
      <trkpt lat="43.77361" lon="3.83963">
        <ele>349.9</ele>
        <time>2026-05-21T08:37:02.999Z</time>
      </trkpt>
      <trkpt lat="43.77362" lon="3.83964">
        <ele>350.2</ele>
        <time>2026-05-21T08:37:03.999Z</time>
      </trkpt>
      <trkpt lat="43.77363" lon="3.83963">
        <ele>350</ele>
        <time>2026-05-21T08:37:04.999Z</time>
      </trkpt>
      <trkpt lat="43.77364" lon="3.83963">
        <ele>350.3</ele>
        <time>2026-05-21T08:37:06.999Z</time>
      </trkpt>
      <trkpt lat="43.77365" lon="3.83963">
        <ele>350.4</ele>
        <time>2026-05-21T08:37:07.999Z</time>
      </trkpt>
      <trkpt lat="43.77366" lon="3.83964">
        <ele>350.2</ele>
        <time>2026-05-21T08:37:08.999Z</time>
      </trkpt>
      <trkpt lat="43.77367" lon="3.83964">
        <ele>350.6</ele>
        <time>2026-05-21T08:37:09.999Z</time>
      </trkpt>
      <trkpt lat="43.77368" lon="3.83965">
        <ele>350.4</ele>
        <time>2026-05-21T08:37:10.999Z</time>
      </trkpt>
      <trkpt lat="43.77368" lon="3.83966">
        <ele>350.8</ele>
        <time>2026-05-21T08:37:11.999Z</time>
      </trkpt>
      <trkpt lat="43.77368" lon="3.83966">
        <ele>351.5</ele>
        <time>2026-05-21T08:37:12.999Z</time>
      </trkpt>
      <trkpt lat="43.77369" lon="3.83966">
        <ele>351.4</ele>
        <time>2026-05-21T08:37:13.999Z</time>
      </trkpt>
      <trkpt lat="43.7737" lon="3.83968">
        <ele>351.9</ele>
        <time>2026-05-21T08:37:14.999Z</time>
      </trkpt>
      <trkpt lat="43.77371" lon="3.83969">
        <ele>352.2</ele>
        <time>2026-05-21T08:37:15.999Z</time>
      </trkpt>
      <trkpt lat="43.77371" lon="3.8397">
        <ele>352.4</ele>
        <time>2026-05-21T08:37:16.999Z</time>
      </trkpt>
      <trkpt lat="43.77372" lon="3.83971">
        <ele>352.7</ele>
        <time>2026-05-21T08:37:17.999Z</time>
      </trkpt>
      <trkpt lat="43.77372" lon="3.83972">
        <ele>352.6</ele>
        <time>2026-05-21T08:37:18.999Z</time>
      </trkpt>
      <trkpt lat="43.77373" lon="3.83973">
        <ele>352.7</ele>
        <time>2026-05-21T08:37:19.999Z</time>
      </trkpt>
      <trkpt lat="43.77374" lon="3.83974">
        <ele>353.1</ele>
        <time>2026-05-21T08:37:20.999Z</time>
      </trkpt>
      <trkpt lat="43.77374" lon="3.83975">
        <ele>353.6</ele>
        <time>2026-05-21T08:37:21.999Z</time>
      </trkpt>
      <trkpt lat="43.77375" lon="3.83975">
        <ele>353.5</ele>
        <time>2026-05-21T08:37:22.999Z</time>
      </trkpt>
      <trkpt lat="43.77375" lon="3.83976">
        <ele>353.2</ele>
        <time>2026-05-21T08:37:23.999Z</time>
      </trkpt>
      <trkpt lat="43.77376" lon="3.83976">
        <ele>352.9</ele>
        <time>2026-05-21T08:37:24.999Z</time>
      </trkpt>
      <trkpt lat="43.77376" lon="3.83977">
        <ele>353.4</ele>
        <time>2026-05-21T08:37:26.000Z</time>
      </trkpt>
      <trkpt lat="43.77377" lon="3.83978">
        <ele>353.1</ele>
        <time>2026-05-21T08:37:27.000Z</time>
      </trkpt>
      <trkpt lat="43.77378" lon="3.83978">
        <ele>352.8</ele>
        <time>2026-05-21T08:37:28.000Z</time>
      </trkpt>
      <trkpt lat="43.77378" lon="3.83979">
        <ele>352.7</ele>
        <time>2026-05-21T08:37:29.000Z</time>
      </trkpt>
      <trkpt lat="43.77379" lon="3.8398">
        <ele>352.6</ele>
        <time>2026-05-21T08:37:30.000Z</time>
      </trkpt>
      <trkpt lat="43.7738" lon="3.8398">
        <ele>352.9</ele>
        <time>2026-05-21T08:37:31.000Z</time>
      </trkpt>
      <trkpt lat="43.77381" lon="3.83981">
        <ele>353.3</ele>
        <time>2026-05-21T08:37:32.000Z</time>
      </trkpt>
      <trkpt lat="43.77382" lon="3.83981">
        <ele>353.5</ele>
        <time>2026-05-21T08:37:33.000Z</time>
      </trkpt>
      <trkpt lat="43.77382" lon="3.83981">
        <ele>353.7</ele>
        <time>2026-05-21T08:37:34.000Z</time>
      </trkpt>
      <trkpt lat="43.77383" lon="3.83981">
        <ele>353.9</ele>
        <time>2026-05-21T08:37:35.000Z</time>
      </trkpt>
      <trkpt lat="43.77384" lon="3.83981">
        <ele>354</ele>
        <time>2026-05-21T08:37:37.000Z</time>
      </trkpt>
      <trkpt lat="43.77385" lon="3.8398">
        <ele>353.8</ele>
        <time>2026-05-21T08:37:38.000Z</time>
      </trkpt>
      <trkpt lat="43.77386" lon="3.83978">
        <ele>353.8</ele>
        <time>2026-05-21T08:37:39.000Z</time>
      </trkpt>
      <trkpt lat="43.77386" lon="3.83979">
        <ele>353.6</ele>
        <time>2026-05-21T08:37:40.000Z</time>
      </trkpt>
      <trkpt lat="43.77387" lon="3.83979">
        <ele>353.5</ele>
        <time>2026-05-21T08:37:41.000Z</time>
      </trkpt>
      <trkpt lat="43.77387" lon="3.83979">
        <ele>353.2</ele>
        <time>2026-05-21T08:37:42.000Z</time>
      </trkpt>
      <trkpt lat="43.77387" lon="3.83979">
        <ele>353.5</ele>
        <time>2026-05-21T08:37:43.000Z</time>
      </trkpt>
      <trkpt lat="43.77387" lon="3.83979">
        <ele>353.8</ele>
        <time>2026-05-21T08:37:44.000Z</time>
      </trkpt>
      <trkpt lat="43.77387" lon="3.8398">
        <ele>354</ele>
        <time>2026-05-21T08:37:45.000Z</time>
      </trkpt>
      <trkpt lat="43.77388" lon="3.83979">
        <ele>354.3</ele>
        <time>2026-05-21T08:37:46.000Z</time>
      </trkpt>
      <trkpt lat="43.77388" lon="3.83978">
        <ele>354.5</ele>
        <time>2026-05-21T08:37:47.000Z</time>
      </trkpt>
      <trkpt lat="43.77388" lon="3.83978">
        <ele>354.6</ele>
        <time>2026-05-21T08:37:48.000Z</time>
      </trkpt>
      <trkpt lat="43.77389" lon="3.83977">
        <ele>354.4</ele>
        <time>2026-05-21T08:37:49.000Z</time>
      </trkpt>
      <trkpt lat="43.77389" lon="3.83977">
        <ele>354.3</ele>
        <time>2026-05-21T08:37:50.000Z</time>
      </trkpt>
      <trkpt lat="43.77389" lon="3.83977">
        <ele>354.3</ele>
        <time>2026-05-21T08:37:51.000Z</time>
      </trkpt>
      <trkpt lat="43.77391" lon="3.83978">
        <ele>354.8</ele>
        <time>2026-05-21T08:37:53.000Z</time>
      </trkpt>
      <trkpt lat="43.77391" lon="3.83979">
        <ele>355</ele>
        <time>2026-05-21T08:37:54.000Z</time>
      </trkpt>
      <trkpt lat="43.77391" lon="3.83979">
        <ele>355.1</ele>
        <time>2026-05-21T08:37:55.000Z</time>
      </trkpt>
      <trkpt lat="43.77392" lon="3.83979">
        <ele>355</ele>
        <time>2026-05-21T08:37:56.000Z</time>
      </trkpt>
      <trkpt lat="43.77392" lon="3.8398">
        <ele>354.7</ele>
        <time>2026-05-21T08:37:57.000Z</time>
      </trkpt>
      <trkpt lat="43.77392" lon="3.8398">
        <ele>354.7</ele>
        <time>2026-05-21T08:37:58.000Z</time>
      </trkpt>
      <trkpt lat="43.77392" lon="3.8398">
        <ele>354.3</ele>
        <time>2026-05-21T08:37:59.000Z</time>
      </trkpt>
      <trkpt lat="43.77392" lon="3.8398">
        <ele>354.3</ele>
        <time>2026-05-21T08:38:00.000Z</time>
      </trkpt>
      <trkpt lat="43.77393" lon="3.8398">
        <ele>354.1</ele>
        <time>2026-05-21T08:38:01.000Z</time>
      </trkpt>
      <trkpt lat="43.77393" lon="3.8398">
        <ele>353.8</ele>
        <time>2026-05-21T08:38:02.000Z</time>
      </trkpt>
      <trkpt lat="43.77394" lon="3.83979">
        <ele>353.7</ele>
        <time>2026-05-21T08:38:03.000Z</time>
      </trkpt>
      <trkpt lat="43.77394" lon="3.83978">
        <ele>353.9</ele>
        <time>2026-05-21T08:38:04.000Z</time>
      </trkpt>
      <trkpt lat="43.77395" lon="3.83978">
        <ele>354.4</ele>
        <time>2026-05-21T08:38:05.000Z</time>
      </trkpt>
      <trkpt lat="43.77395" lon="3.83977">
        <ele>354.3</ele>
        <time>2026-05-21T08:38:06.000Z</time>
      </trkpt>
      <trkpt lat="43.77396" lon="3.83975">
        <ele>353.9</ele>
        <time>2026-05-21T08:38:07.000Z</time>
      </trkpt>
      <trkpt lat="43.77396" lon="3.83974">
        <ele>353.5</ele>
        <time>2026-05-21T08:38:08.000Z</time>
      </trkpt>
      <trkpt lat="43.77396" lon="3.83974">
        <ele>353.4</ele>
        <time>2026-05-21T08:38:09.000Z</time>
      </trkpt>
      <trkpt lat="43.77396" lon="3.83974">
        <ele>353.7</ele>
        <time>2026-05-21T08:38:10.000Z</time>
      </trkpt>
      <trkpt lat="43.77396" lon="3.83974">
        <ele>354</ele>
        <time>2026-05-21T08:38:11.000Z</time>
      </trkpt>
      <trkpt lat="43.77396" lon="3.83975">
        <ele>354.1</ele>
        <time>2026-05-21T08:38:12.000Z</time>
      </trkpt>
      <trkpt lat="43.77396" lon="3.83975">
        <ele>354.1</ele>
        <time>2026-05-21T08:38:13.000Z</time>
      </trkpt>
      <trkpt lat="43.77396" lon="3.83975">
        <ele>354.1</ele>
        <time>2026-05-21T08:38:14.000Z</time>
      </trkpt>
      <trkpt lat="43.77396" lon="3.83975">
        <ele>354.1</ele>
        <time>2026-05-21T08:38:15.000Z</time>
      </trkpt>
      <trkpt lat="43.77396" lon="3.83975">
        <ele>354.2</ele>
        <time>2026-05-21T08:38:16.000Z</time>
      </trkpt>
      <trkpt lat="43.77396" lon="3.83975">
        <ele>354.2</ele>
        <time>2026-05-21T08:38:17.000Z</time>
      </trkpt>
      <trkpt lat="43.77396" lon="3.83975">
        <ele>354.2</ele>
        <time>2026-05-21T08:38:18.000Z</time>
      </trkpt>
      <trkpt lat="43.77396" lon="3.83975">
        <ele>354</ele>
        <time>2026-05-21T08:38:19.000Z</time>
      </trkpt>
      <trkpt lat="43.77396" lon="3.83974">
        <ele>353.7</ele>
        <time>2026-05-21T08:38:20.000Z</time>
      </trkpt>
      <trkpt lat="43.77397" lon="3.83974">
        <ele>353.5</ele>
        <time>2026-05-21T08:38:21.000Z</time>
      </trkpt>
      <trkpt lat="43.77398" lon="3.83973">
        <ele>353.2</ele>
        <time>2026-05-21T08:38:22.000Z</time>
      </trkpt>
      <trkpt lat="43.77399" lon="3.83973">
        <ele>353</ele>
        <time>2026-05-21T08:38:23.000Z</time>
      </trkpt>
      <trkpt lat="43.77399" lon="3.83973">
        <ele>353</ele>
        <time>2026-05-21T08:38:24.000Z</time>
      </trkpt>
      <trkpt lat="43.77399" lon="3.83973">
        <ele>353</ele>
        <time>2026-05-21T08:38:25.000Z</time>
      </trkpt>
      <trkpt lat="43.77399" lon="3.83973">
        <ele>353.1</ele>
        <time>2026-05-21T08:38:26.000Z</time>
      </trkpt>
      <trkpt lat="43.77399" lon="3.83972">
        <ele>352.9</ele>
        <time>2026-05-21T08:38:27.000Z</time>
      </trkpt>
      <trkpt lat="43.774" lon="3.83972">
        <ele>352.9</ele>
        <time>2026-05-21T08:38:28.000Z</time>
      </trkpt>
      <trkpt lat="43.77401" lon="3.83971">
        <ele>352.8</ele>
        <time>2026-05-21T08:38:29.000Z</time>
      </trkpt>
      <trkpt lat="43.77401" lon="3.8397">
        <ele>352.7</ele>
        <time>2026-05-21T08:38:30.000Z</time>
      </trkpt>
      <trkpt lat="43.77401" lon="3.8397">
        <ele>352.3</ele>
        <time>2026-05-21T08:38:31.000Z</time>
      </trkpt>
      <trkpt lat="43.77401" lon="3.8397">
        <ele>352.2</ele>
        <time>2026-05-21T08:38:32.000Z</time>
      </trkpt>
      <trkpt lat="43.77401" lon="3.8397">
        <ele>352.3</ele>
        <time>2026-05-21T08:38:33.000Z</time>
      </trkpt>
      <trkpt lat="43.77401" lon="3.8397">
        <ele>352.5</ele>
        <time>2026-05-21T08:38:35.000Z</time>
      </trkpt>
      <trkpt lat="43.77402" lon="3.83969">
        <ele>352.5</ele>
        <time>2026-05-21T08:38:36.000Z</time>
      </trkpt>
      <trkpt lat="43.77403" lon="3.83969">
        <ele>352.4</ele>
        <time>2026-05-21T08:38:37.000Z</time>
      </trkpt>
      <trkpt lat="43.77404" lon="3.83968">
        <ele>352.5</ele>
        <time>2026-05-21T08:38:38.000Z</time>
      </trkpt>
      <trkpt lat="43.77405" lon="3.83968">
        <ele>352.7</ele>
        <time>2026-05-21T08:38:39.000Z</time>
      </trkpt>
      <trkpt lat="43.77405" lon="3.83967">
        <ele>352.9</ele>
        <time>2026-05-21T08:38:40.000Z</time>
      </trkpt>
      <trkpt lat="43.77406" lon="3.83966">
        <ele>353</ele>
        <time>2026-05-21T08:38:41.000Z</time>
      </trkpt>
      <trkpt lat="43.77407" lon="3.83964">
        <ele>353.3</ele>
        <time>2026-05-21T08:38:42.000Z</time>
      </trkpt>
      <trkpt lat="43.77407" lon="3.83963">
        <ele>353.5</ele>
        <time>2026-05-21T08:38:43.000Z</time>
      </trkpt>
      <trkpt lat="43.77408" lon="3.83963">
        <ele>353.5</ele>
        <time>2026-05-21T08:38:44.000Z</time>
      </trkpt>
      <trkpt lat="43.77409" lon="3.83962">
        <ele>353.5</ele>
        <time>2026-05-21T08:38:45.000Z</time>
      </trkpt>
      <trkpt lat="43.7741" lon="3.83961">
        <ele>353.6</ele>
        <time>2026-05-21T08:38:46.000Z</time>
      </trkpt>
      <trkpt lat="43.77412" lon="3.83961">
        <ele>353.8</ele>
        <time>2026-05-21T08:38:47.000Z</time>
      </trkpt>
      <trkpt lat="43.77412" lon="3.8396">
        <ele>353.9</ele>
        <time>2026-05-21T08:38:48.000Z</time>
      </trkpt>
      <trkpt lat="43.77412" lon="3.8396">
        <ele>354.1</ele>
        <time>2026-05-21T08:38:49.000Z</time>
      </trkpt>
      <trkpt lat="43.77413" lon="3.83959">
        <ele>354.2</ele>
        <time>2026-05-21T08:38:50.000Z</time>
      </trkpt>
      <trkpt lat="43.77413" lon="3.83959">
        <ele>354.2</ele>
        <time>2026-05-21T08:38:51.000Z</time>
      </trkpt>
      <trkpt lat="43.77413" lon="3.83958">
        <ele>354</ele>
        <time>2026-05-21T08:38:52.000Z</time>
      </trkpt>
      <trkpt lat="43.77414" lon="3.83958">
        <ele>354.1</ele>
        <time>2026-05-21T08:38:53.000Z</time>
      </trkpt>
      <trkpt lat="43.77414" lon="3.83958">
        <ele>354.1</ele>
        <time>2026-05-21T08:38:54.000Z</time>
      </trkpt>
      <trkpt lat="43.77414" lon="3.83958">
        <ele>354.2</ele>
        <time>2026-05-21T08:38:55.000Z</time>
      </trkpt>
      <trkpt lat="43.77414" lon="3.83958">
        <ele>354.3</ele>
        <time>2026-05-21T08:38:56.000Z</time>
      </trkpt>
      <trkpt lat="43.77415" lon="3.83958">
        <ele>354.6</ele>
        <time>2026-05-21T08:38:57.000Z</time>
      </trkpt>
      <trkpt lat="43.77415" lon="3.83957">
        <ele>354.9</ele>
        <time>2026-05-21T08:38:58.000Z</time>
      </trkpt>
      <trkpt lat="43.77416" lon="3.83957">
        <ele>355.1</ele>
        <time>2026-05-21T08:38:59.000Z</time>
      </trkpt>
      <trkpt lat="43.77417" lon="3.83956">
        <ele>355.3</ele>
        <time>2026-05-21T08:39:00.000Z</time>
      </trkpt>
      <trkpt lat="43.77417" lon="3.83955">
        <ele>355.3</ele>
        <time>2026-05-21T08:39:01.000Z</time>
      </trkpt>
      <trkpt lat="43.77418" lon="3.83955">
        <ele>355.3</ele>
        <time>2026-05-21T08:39:02.000Z</time>
      </trkpt>
      <trkpt lat="43.77418" lon="3.83955">
        <ele>355.3</ele>
        <time>2026-05-21T08:39:03.000Z</time>
      </trkpt>
      <trkpt lat="43.77419" lon="3.83955">
        <ele>355.4</ele>
        <time>2026-05-21T08:39:04.000Z</time>
      </trkpt>
      <trkpt lat="43.77419" lon="3.83955">
        <ele>355.5</ele>
        <time>2026-05-21T08:39:05.000Z</time>
      </trkpt>
      <trkpt lat="43.77419" lon="3.83955">
        <ele>355.7</ele>
        <time>2026-05-21T08:39:06.000Z</time>
      </trkpt>
      <trkpt lat="43.77419" lon="3.83955">
        <ele>355.9</ele>
        <time>2026-05-21T08:39:07.000Z</time>
      </trkpt>
      <trkpt lat="43.77419" lon="3.83955">
        <ele>356</ele>
        <time>2026-05-21T08:39:08.000Z</time>
      </trkpt>
      <trkpt lat="43.77419" lon="3.83955">
        <ele>356</ele>
        <time>2026-05-21T08:39:09.000Z</time>
      </trkpt>
      <trkpt lat="43.77419" lon="3.83955">
        <ele>356.1</ele>
        <time>2026-05-21T08:39:11.000Z</time>
      </trkpt>
      <trkpt lat="43.77419" lon="3.83955">
        <ele>356.3</ele>
        <time>2026-05-21T08:39:12.000Z</time>
      </trkpt>
      <trkpt lat="43.7742" lon="3.83954">
        <ele>356.4</ele>
        <time>2026-05-21T08:39:13.000Z</time>
      </trkpt>
      <trkpt lat="43.7742" lon="3.83954">
        <ele>356.5</ele>
        <time>2026-05-21T08:39:14.000Z</time>
      </trkpt>
      <trkpt lat="43.7742" lon="3.83954">
        <ele>356.6</ele>
        <time>2026-05-21T08:39:15.000Z</time>
      </trkpt>
      <trkpt lat="43.77421" lon="3.83955">
        <ele>356.6</ele>
        <time>2026-05-21T08:39:16.000Z</time>
      </trkpt>
      <trkpt lat="43.77421" lon="3.83954">
        <ele>356.7</ele>
        <time>2026-05-21T08:39:17.000Z</time>
      </trkpt>
      <trkpt lat="43.77422" lon="3.83954">
        <ele>357</ele>
        <time>2026-05-21T08:39:18.000Z</time>
      </trkpt>
      <trkpt lat="43.77423" lon="3.83954">
        <ele>357.1</ele>
        <time>2026-05-21T08:39:19.000Z</time>
      </trkpt>
      <trkpt lat="43.77423" lon="3.83954">
        <ele>357.3</ele>
        <time>2026-05-21T08:39:20.000Z</time>
      </trkpt>
      <trkpt lat="43.77423" lon="3.83955">
        <ele>357.7</ele>
        <time>2026-05-21T08:39:21.000Z</time>
      </trkpt>
      <trkpt lat="43.77423" lon="3.83955">
        <ele>357.8</ele>
        <time>2026-05-21T08:39:22.000Z</time>
      </trkpt>
      <trkpt lat="43.77424" lon="3.83956">
        <ele>357.8</ele>
        <time>2026-05-21T08:39:23.000Z</time>
      </trkpt>
      <trkpt lat="43.77424" lon="3.83956">
        <ele>357.9</ele>
        <time>2026-05-21T08:39:24.000Z</time>
      </trkpt>
      <trkpt lat="43.77423" lon="3.83957">
        <ele>358.2</ele>
        <time>2026-05-21T08:39:25.000Z</time>
      </trkpt>
      <trkpt lat="43.77423" lon="3.83957">
        <ele>358.3</ele>
        <time>2026-05-21T08:39:26.000Z</time>
      </trkpt>
      <trkpt lat="43.77423" lon="3.83958">
        <ele>358.3</ele>
        <time>2026-05-21T08:39:27.000Z</time>
      </trkpt>
      <trkpt lat="43.77422" lon="3.83958">
        <ele>358.6</ele>
        <time>2026-05-21T08:39:29.000Z</time>
      </trkpt>
      <trkpt lat="43.77422" lon="3.83958">
        <ele>358.7</ele>
        <time>2026-05-21T08:39:30.000Z</time>
      </trkpt>
      <trkpt lat="43.77422" lon="3.83958">
        <ele>358.6</ele>
        <time>2026-05-21T08:39:31.000Z</time>
      </trkpt>
      <trkpt lat="43.77422" lon="3.83958">
        <ele>358.8</ele>
        <time>2026-05-21T08:39:32.000Z</time>
      </trkpt>
      <trkpt lat="43.77423" lon="3.83957">
        <ele>359.3</ele>
        <time>2026-05-21T08:39:33.000Z</time>
      </trkpt>
      <trkpt lat="43.77424" lon="3.83956">
        <ele>359.4</ele>
        <time>2026-05-21T08:39:34.000Z</time>
      </trkpt>
      <trkpt lat="43.77425" lon="3.83956">
        <ele>359.6</ele>
        <time>2026-05-21T08:39:35.000Z</time>
      </trkpt>
      <trkpt lat="43.77426" lon="3.83956">
        <ele>359.7</ele>
        <time>2026-05-21T08:39:36.000Z</time>
      </trkpt>
      <trkpt lat="43.77427" lon="3.83957">
        <ele>360</ele>
        <time>2026-05-21T08:39:37.000Z</time>
      </trkpt>
      <trkpt lat="43.77427" lon="3.83957">
        <ele>360.1</ele>
        <time>2026-05-21T08:39:38.000Z</time>
      </trkpt>
      <trkpt lat="43.77428" lon="3.83956">
        <ele>359.9</ele>
        <time>2026-05-21T08:39:40.000Z</time>
      </trkpt>
      <trkpt lat="43.77428" lon="3.83956">
        <ele>360</ele>
        <time>2026-05-21T08:39:41.000Z</time>
      </trkpt>
      <trkpt lat="43.77428" lon="3.83956">
        <ele>360.1</ele>
        <time>2026-05-21T08:39:42.000Z</time>
      </trkpt>
      <trkpt lat="43.77429" lon="3.83955">
        <ele>360.1</ele>
        <time>2026-05-21T08:39:43.000Z</time>
      </trkpt>
      <trkpt lat="43.77429" lon="3.83955">
        <ele>360.3</ele>
        <time>2026-05-21T08:39:44.000Z</time>
      </trkpt>
      <trkpt lat="43.7743" lon="3.83954">
        <ele>360.6</ele>
        <time>2026-05-21T08:39:45.000Z</time>
      </trkpt>
      <trkpt lat="43.7743" lon="3.83954">
        <ele>360.5</ele>
        <time>2026-05-21T08:39:46.000Z</time>
      </trkpt>
      <trkpt lat="43.7743" lon="3.83954">
        <ele>360.5</ele>
        <time>2026-05-21T08:39:47.000Z</time>
      </trkpt>
      <trkpt lat="43.7743" lon="3.83954">
        <ele>360.4</ele>
        <time>2026-05-21T08:39:48.000Z</time>
      </trkpt>
      <trkpt lat="43.7743" lon="3.83954">
        <ele>360.4</ele>
        <time>2026-05-21T08:39:49.000Z</time>
      </trkpt>
      <trkpt lat="43.7743" lon="3.83954">
        <ele>360.7</ele>
        <time>2026-05-21T08:39:50.000Z</time>
      </trkpt>
      <trkpt lat="43.7743" lon="3.83954">
        <ele>360.7</ele>
        <time>2026-05-21T08:39:51.000Z</time>
      </trkpt>
      <trkpt lat="43.7743" lon="3.83954">
        <ele>361</ele>
        <time>2026-05-21T08:39:52.000Z</time>
      </trkpt>
      <trkpt lat="43.7743" lon="3.83954">
        <ele>361.1</ele>
        <time>2026-05-21T08:39:53.000Z</time>
      </trkpt>
      <trkpt lat="43.7743" lon="3.83953">
        <ele>361.1</ele>
        <time>2026-05-21T08:39:54.000Z</time>
      </trkpt>
      <trkpt lat="43.7743" lon="3.83953">
        <ele>361.1</ele>
        <time>2026-05-21T08:39:55.000Z</time>
      </trkpt>
      <trkpt lat="43.7743" lon="3.83953">
        <ele>361.1</ele>
        <time>2026-05-21T08:39:56.000Z</time>
      </trkpt>
      <trkpt lat="43.7743" lon="3.83953">
        <ele>361.1</ele>
        <time>2026-05-21T08:39:57.000Z</time>
      </trkpt>
      <trkpt lat="43.7743" lon="3.83953">
        <ele>361.2</ele>
        <time>2026-05-21T08:39:58.000Z</time>
      </trkpt>
      <trkpt lat="43.77431" lon="3.83952">
        <ele>361.5</ele>
        <time>2026-05-21T08:39:59.000Z</time>
      </trkpt>
      <trkpt lat="43.77431" lon="3.83951">
        <ele>361.7</ele>
        <time>2026-05-21T08:40:00.000Z</time>
      </trkpt>
      <trkpt lat="43.77431" lon="3.83951">
        <ele>361.7</ele>
        <time>2026-05-21T08:40:01.000Z</time>
      </trkpt>
      <trkpt lat="43.77431" lon="3.83951">
        <ele>361.8</ele>
        <time>2026-05-21T08:40:02.000Z</time>
      </trkpt>
      <trkpt lat="43.77431" lon="3.83951">
        <ele>362</ele>
        <time>2026-05-21T08:40:03.000Z</time>
      </trkpt>
      <trkpt lat="43.77432" lon="3.83951">
        <ele>362.1</ele>
        <time>2026-05-21T08:40:04.000Z</time>
      </trkpt>
      <trkpt lat="43.77432" lon="3.8395">
        <ele>362.3</ele>
        <time>2026-05-21T08:40:05.000Z</time>
      </trkpt>
      <trkpt lat="43.77433" lon="3.83951">
        <ele>362.3</ele>
        <time>2026-05-21T08:40:06.000Z</time>
      </trkpt>
      <trkpt lat="43.77434" lon="3.83952">
        <ele>362.5</ele>
        <time>2026-05-21T08:40:07.000Z</time>
      </trkpt>
      <trkpt lat="43.77434" lon="3.83952">
        <ele>362.6</ele>
        <time>2026-05-21T08:40:08.000Z</time>
      </trkpt>
      <trkpt lat="43.77435" lon="3.83952">
        <ele>362.5</ele>
        <time>2026-05-21T08:40:09.000Z</time>
      </trkpt>
      <trkpt lat="43.77437" lon="3.83953">
        <ele>362.6</ele>
        <time>2026-05-21T08:40:10.000Z</time>
      </trkpt>
      <trkpt lat="43.77438" lon="3.83953">
        <ele>363.2</ele>
        <time>2026-05-21T08:40:11.000Z</time>
      </trkpt>
      <trkpt lat="43.7744" lon="3.83953">
        <ele>363.7</ele>
        <time>2026-05-21T08:40:12.000Z</time>
      </trkpt>
      <trkpt lat="43.77441" lon="3.83953">
        <ele>364</ele>
        <time>2026-05-21T08:40:13.000Z</time>
      </trkpt>
      <trkpt lat="43.77441" lon="3.83953">
        <ele>364</ele>
        <time>2026-05-21T08:40:14.000Z</time>
      </trkpt>
      <trkpt lat="43.77442" lon="3.83952">
        <ele>363.4</ele>
        <time>2026-05-21T08:40:15.000Z</time>
      </trkpt>
      <trkpt lat="43.77444" lon="3.83952">
        <ele>363.5</ele>
        <time>2026-05-21T08:40:17.000Z</time>
      </trkpt>
      <trkpt lat="43.77445" lon="3.83951">
        <ele>363.9</ele>
        <time>2026-05-21T08:40:18.000Z</time>
      </trkpt>
      <trkpt lat="43.77445" lon="3.83951">
        <ele>364.2</ele>
        <time>2026-05-21T08:40:19.000Z</time>
      </trkpt>
      <trkpt lat="43.77445" lon="3.8395">
        <ele>364.3</ele>
        <time>2026-05-21T08:40:20.000Z</time>
      </trkpt>
      <trkpt lat="43.77446" lon="3.83949">
        <ele>364.1</ele>
        <time>2026-05-21T08:40:21.000Z</time>
      </trkpt>
      <trkpt lat="43.77446" lon="3.83949">
        <ele>364.3</ele>
        <time>2026-05-21T08:40:22.000Z</time>
      </trkpt>
      <trkpt lat="43.77446" lon="3.83949">
        <ele>364.5</ele>
        <time>2026-05-21T08:40:23.000Z</time>
      </trkpt>
      <trkpt lat="43.77447" lon="3.8395">
        <ele>365.2</ele>
        <time>2026-05-21T08:40:24.000Z</time>
      </trkpt>
      <trkpt lat="43.77447" lon="3.8395">
        <ele>365.2</ele>
        <time>2026-05-21T08:40:25.000Z</time>
      </trkpt>
      <trkpt lat="43.77447" lon="3.8395">
        <ele>365.7</ele>
        <time>2026-05-21T08:40:26.000Z</time>
      </trkpt>
      <trkpt lat="43.77447" lon="3.8395">
        <ele>366</ele>
        <time>2026-05-21T08:40:27.000Z</time>
      </trkpt>
      <trkpt lat="43.77447" lon="3.8395">
        <ele>366.4</ele>
        <time>2026-05-21T08:40:28.000Z</time>
      </trkpt>
      <trkpt lat="43.77447" lon="3.8395">
        <ele>366.5</ele>
        <time>2026-05-21T08:40:29.000Z</time>
      </trkpt>
      <trkpt lat="43.77447" lon="3.8395">
        <ele>366.3</ele>
        <time>2026-05-21T08:40:30.000Z</time>
      </trkpt>
      <trkpt lat="43.77447" lon="3.8395">
        <ele>366.6</ele>
        <time>2026-05-21T08:40:31.000Z</time>
      </trkpt>
      <trkpt lat="43.77447" lon="3.8395">
        <ele>366.8</ele>
        <time>2026-05-21T08:40:32.000Z</time>
      </trkpt>
      <trkpt lat="43.77447" lon="3.8395">
        <ele>367.1</ele>
        <time>2026-05-21T08:40:33.000Z</time>
      </trkpt>
      <trkpt lat="43.77447" lon="3.8395">
        <ele>367.5</ele>
        <time>2026-05-21T08:40:34.000Z</time>
      </trkpt>
      <trkpt lat="43.77447" lon="3.8395">
        <ele>367.8</ele>
        <time>2026-05-21T08:40:35.000Z</time>
      </trkpt>
      <trkpt lat="43.77447" lon="3.8395">
        <ele>368.1</ele>
        <time>2026-05-21T08:40:36.000Z</time>
      </trkpt>
      <trkpt lat="43.77448" lon="3.83949">
        <ele>368.1</ele>
        <time>2026-05-21T08:40:37.000Z</time>
      </trkpt>
      <trkpt lat="43.77448" lon="3.83949">
        <ele>368</ele>
        <time>2026-05-21T08:40:38.000Z</time>
      </trkpt>
      <trkpt lat="43.77448" lon="3.83948">
        <ele>368.1</ele>
        <time>2026-05-21T08:40:39.000Z</time>
      </trkpt>
      <trkpt lat="43.77448" lon="3.83948">
        <ele>368.3</ele>
        <time>2026-05-21T08:40:40.000Z</time>
      </trkpt>
      <trkpt lat="43.77448" lon="3.83947">
        <ele>368.3</ele>
        <time>2026-05-21T08:40:41.000Z</time>
      </trkpt>
      <trkpt lat="43.77448" lon="3.83947">
        <ele>368.4</ele>
        <time>2026-05-21T08:40:42.000Z</time>
      </trkpt>
      <trkpt lat="43.77449" lon="3.83947">
        <ele>368.7</ele>
        <time>2026-05-21T08:40:43.000Z</time>
      </trkpt>
      <trkpt lat="43.77449" lon="3.83947">
        <ele>369</ele>
        <time>2026-05-21T08:40:44.000Z</time>
      </trkpt>
      <trkpt lat="43.7745" lon="3.83947">
        <ele>369.3</ele>
        <time>2026-05-21T08:40:45.000Z</time>
      </trkpt>
      <trkpt lat="43.77452" lon="3.83946">
        <ele>369.5</ele>
        <time>2026-05-21T08:40:46.000Z</time>
      </trkpt>
      <trkpt lat="43.77452" lon="3.83946">
        <ele>369.7</ele>
        <time>2026-05-21T08:40:47.000Z</time>
      </trkpt>
      <trkpt lat="43.77453" lon="3.83946">
        <ele>369.9</ele>
        <time>2026-05-21T08:40:48.000Z</time>
      </trkpt>
      <trkpt lat="43.77454" lon="3.83945">
        <ele>370.3</ele>
        <time>2026-05-21T08:40:49.000Z</time>
      </trkpt>
      <trkpt lat="43.77454" lon="3.83945">
        <ele>370.6</ele>
        <time>2026-05-21T08:40:50.000Z</time>
      </trkpt>
      <trkpt lat="43.77454" lon="3.83945">
        <ele>370.7</ele>
        <time>2026-05-21T08:40:51.000Z</time>
      </trkpt>
      <trkpt lat="43.77454" lon="3.83945">
        <ele>370.5</ele>
        <time>2026-05-21T08:40:52.000Z</time>
      </trkpt>
      <trkpt lat="43.77454" lon="3.83945">
        <ele>370.7</ele>
        <time>2026-05-21T08:40:53.000Z</time>
      </trkpt>
      <trkpt lat="43.77454" lon="3.83945">
        <ele>371</ele>
        <time>2026-05-21T08:40:54.000Z</time>
      </trkpt>
      <trkpt lat="43.77454" lon="3.83945">
        <ele>371.2</ele>
        <time>2026-05-21T08:40:55.000Z</time>
      </trkpt>
      <trkpt lat="43.77454" lon="3.83945">
        <ele>371.4</ele>
        <time>2026-05-21T08:40:56.000Z</time>
      </trkpt>
      <trkpt lat="43.77454" lon="3.83945">
        <ele>371.5</ele>
        <time>2026-05-21T08:40:58.000Z</time>
      </trkpt>
      <trkpt lat="43.77454" lon="3.83945">
        <ele>371.5</ele>
        <time>2026-05-21T08:40:59.000Z</time>
      </trkpt>
      <trkpt lat="43.77454" lon="3.83945">
        <ele>371.6</ele>
        <time>2026-05-21T08:41:00.000Z</time>
      </trkpt>
      <trkpt lat="43.77454" lon="3.83944">
        <ele>371.6</ele>
        <time>2026-05-21T08:41:01.000Z</time>
      </trkpt>
      <trkpt lat="43.77455" lon="3.83944">
        <ele>371.9</ele>
        <time>2026-05-21T08:41:02.000Z</time>
      </trkpt>
      <trkpt lat="43.77455" lon="3.83944">
        <ele>372.2</ele>
        <time>2026-05-21T08:41:03.000Z</time>
      </trkpt>
      <trkpt lat="43.77456" lon="3.83944">
        <ele>372.1</ele>
        <time>2026-05-21T08:41:04.000Z</time>
      </trkpt>
      <trkpt lat="43.77456" lon="3.83944">
        <ele>372.1</ele>
        <time>2026-05-21T08:41:05.000Z</time>
      </trkpt>
      <trkpt lat="43.77456" lon="3.83944">
        <ele>372</ele>
        <time>2026-05-21T08:41:06.000Z</time>
      </trkpt>
      <trkpt lat="43.77456" lon="3.83944">
        <ele>372.2</ele>
        <time>2026-05-21T08:41:07.000Z</time>
      </trkpt>
      <trkpt lat="43.77457" lon="3.83944">
        <ele>372.4</ele>
        <time>2026-05-21T08:41:08.000Z</time>
      </trkpt>
      <trkpt lat="43.77457" lon="3.83944">
        <ele>372.6</ele>
        <time>2026-05-21T08:41:09.000Z</time>
      </trkpt>
      <trkpt lat="43.77458" lon="3.83944">
        <ele>372.7</ele>
        <time>2026-05-21T08:41:10.000Z</time>
      </trkpt>
      <trkpt lat="43.77458" lon="3.83944">
        <ele>372.7</ele>
        <time>2026-05-21T08:41:11.000Z</time>
      </trkpt>
      <trkpt lat="43.77458" lon="3.83943">
        <ele>372.8</ele>
        <time>2026-05-21T08:41:12.000Z</time>
      </trkpt>
      <trkpt lat="43.77458" lon="3.83943">
        <ele>372.7</ele>
        <time>2026-05-21T08:41:13.000Z</time>
      </trkpt>
      <trkpt lat="43.77458" lon="3.83943">
        <ele>372.8</ele>
        <time>2026-05-21T08:41:14.000Z</time>
      </trkpt>
      <trkpt lat="43.77459" lon="3.83943">
        <ele>372.9</ele>
        <time>2026-05-21T08:41:15.000Z</time>
      </trkpt>
      <trkpt lat="43.77459" lon="3.83942">
        <ele>372.9</ele>
        <time>2026-05-21T08:41:16.000Z</time>
      </trkpt>
      <trkpt lat="43.7746" lon="3.8394">
        <ele>372.7</ele>
        <time>2026-05-21T08:41:17.000Z</time>
      </trkpt>
      <trkpt lat="43.7746" lon="3.83939">
        <ele>372.9</ele>
        <time>2026-05-21T08:41:18.000Z</time>
      </trkpt>
      <trkpt lat="43.77461" lon="3.83939">
        <ele>373.1</ele>
        <time>2026-05-21T08:41:19.000Z</time>
      </trkpt>
      <trkpt lat="43.77461" lon="3.83939">
        <ele>373.3</ele>
        <time>2026-05-21T08:41:20.000Z</time>
      </trkpt>
      <trkpt lat="43.77462" lon="3.83939">
        <ele>373.4</ele>
        <time>2026-05-21T08:41:21.000Z</time>
      </trkpt>
      <trkpt lat="43.77462" lon="3.83938">
        <ele>373.5</ele>
        <time>2026-05-21T08:41:22.000Z</time>
      </trkpt>
      <trkpt lat="43.77462" lon="3.83939">
        <ele>373.5</ele>
        <time>2026-05-21T08:41:23.000Z</time>
      </trkpt>
      <trkpt lat="43.77463" lon="3.83939">
        <ele>373.6</ele>
        <time>2026-05-21T08:41:24.000Z</time>
      </trkpt>
      <trkpt lat="43.77463" lon="3.83938">
        <ele>373.8</ele>
        <time>2026-05-21T08:41:25.000Z</time>
      </trkpt>
      <trkpt lat="43.77464" lon="3.83938">
        <ele>373.9</ele>
        <time>2026-05-21T08:41:26.000Z</time>
      </trkpt>
      <trkpt lat="43.77464" lon="3.83938">
        <ele>374</ele>
        <time>2026-05-21T08:41:27.000Z</time>
      </trkpt>
      <trkpt lat="43.77464" lon="3.83938">
        <ele>374.3</ele>
        <time>2026-05-21T08:41:28.000Z</time>
      </trkpt>
      <trkpt lat="43.77465" lon="3.83939">
        <ele>374.8</ele>
        <time>2026-05-21T08:41:30.000Z</time>
      </trkpt>
      <trkpt lat="43.77465" lon="3.83938">
        <ele>374.9</ele>
        <time>2026-05-21T08:41:31.000Z</time>
      </trkpt>
      <trkpt lat="43.77465" lon="3.83939">
        <ele>375</ele>
        <time>2026-05-21T08:41:32.000Z</time>
      </trkpt>
      <trkpt lat="43.77466" lon="3.83939">
        <ele>375.2</ele>
        <time>2026-05-21T08:41:33.000Z</time>
      </trkpt>
      <trkpt lat="43.77466" lon="3.83938">
        <ele>375.2</ele>
        <time>2026-05-21T08:41:34.000Z</time>
      </trkpt>
      <trkpt lat="43.77466" lon="3.83938">
        <ele>375.4</ele>
        <time>2026-05-21T08:41:35.000Z</time>
      </trkpt>
      <trkpt lat="43.77466" lon="3.83939">
        <ele>375.5</ele>
        <time>2026-05-21T08:41:36.000Z</time>
      </trkpt>
      <trkpt lat="43.77466" lon="3.83939">
        <ele>375.4</ele>
        <time>2026-05-21T08:41:37.000Z</time>
      </trkpt>
      <trkpt lat="43.77466" lon="3.83939">
        <ele>375.5</ele>
        <time>2026-05-21T08:41:38.000Z</time>
      </trkpt>
      <trkpt lat="43.77467" lon="3.83939">
        <ele>375.6</ele>
        <time>2026-05-21T08:41:39.000Z</time>
      </trkpt>
      <trkpt lat="43.77467" lon="3.83939">
        <ele>375.7</ele>
        <time>2026-05-21T08:41:40.000Z</time>
      </trkpt>
      <trkpt lat="43.77468" lon="3.83939">
        <ele>375.8</ele>
        <time>2026-05-21T08:41:41.000Z</time>
      </trkpt>
      <trkpt lat="43.77468" lon="3.8394">
        <ele>375.8</ele>
        <time>2026-05-21T08:41:42.000Z</time>
      </trkpt>
      <trkpt lat="43.77469" lon="3.8394">
        <ele>375.7</ele>
        <time>2026-05-21T08:41:43.000Z</time>
      </trkpt>
      <trkpt lat="43.77469" lon="3.8394">
        <ele>375.9</ele>
        <time>2026-05-21T08:41:44.000Z</time>
      </trkpt>
      <trkpt lat="43.7747" lon="3.8394">
        <ele>376.1</ele>
        <time>2026-05-21T08:41:45.000Z</time>
      </trkpt>
      <trkpt lat="43.7747" lon="3.8394">
        <ele>376.1</ele>
        <time>2026-05-21T08:41:46.000Z</time>
      </trkpt>
      <trkpt lat="43.7747" lon="3.8394">
        <ele>376.2</ele>
        <time>2026-05-21T08:41:47.000Z</time>
      </trkpt>
      <trkpt lat="43.7747" lon="3.83939">
        <ele>376.2</ele>
        <time>2026-05-21T08:41:48.000Z</time>
      </trkpt>
      <trkpt lat="43.7747" lon="3.83941">
        <ele>376.4</ele>
        <time>2026-05-21T08:41:49.000Z</time>
      </trkpt>
      <trkpt lat="43.7747" lon="3.83942">
        <ele>376.7</ele>
        <time>2026-05-21T08:41:50.000Z</time>
      </trkpt>
      <trkpt lat="43.7747" lon="3.83943">
        <ele>377.1</ele>
        <time>2026-05-21T08:41:51.000Z</time>
      </trkpt>
      <trkpt lat="43.7747" lon="3.83944">
        <ele>377.5</ele>
        <time>2026-05-21T08:41:52.000Z</time>
      </trkpt>
      <trkpt lat="43.7747" lon="3.83944">
        <ele>378</ele>
        <time>2026-05-21T08:41:53.000Z</time>
      </trkpt>
      <trkpt lat="43.77471" lon="3.83945">
        <ele>378.1</ele>
        <time>2026-05-21T08:41:54.000Z</time>
      </trkpt>
      <trkpt lat="43.77471" lon="3.83945">
        <ele>378.2</ele>
        <time>2026-05-21T08:41:55.000Z</time>
      </trkpt>
      <trkpt lat="43.77472" lon="3.83946">
        <ele>378.5</ele>
        <time>2026-05-21T08:41:56.000Z</time>
      </trkpt>
      <trkpt lat="43.77473" lon="3.83947">
        <ele>378.5</ele>
        <time>2026-05-21T08:41:57.000Z</time>
      </trkpt>
      <trkpt lat="43.77473" lon="3.83948">
        <ele>378.7</ele>
        <time>2026-05-21T08:41:58.000Z</time>
      </trkpt>
      <trkpt lat="43.77474" lon="3.83948">
        <ele>378.8</ele>
        <time>2026-05-21T08:41:59.000Z</time>
      </trkpt>
      <trkpt lat="43.77474" lon="3.83948">
        <ele>379</ele>
        <time>2026-05-21T08:42:00.000Z</time>
      </trkpt>
      <trkpt lat="43.77474" lon="3.83948">
        <ele>379.2</ele>
        <time>2026-05-21T08:42:01.000Z</time>
      </trkpt>
      <trkpt lat="43.77474" lon="3.83948">
        <ele>379.3</ele>
        <time>2026-05-21T08:42:02.000Z</time>
      </trkpt>
      <trkpt lat="43.77474" lon="3.83948">
        <ele>379.4</ele>
        <time>2026-05-21T08:42:03.000Z</time>
      </trkpt>
      <trkpt lat="43.77474" lon="3.83948">
        <ele>379.8</ele>
        <time>2026-05-21T08:42:04.000Z</time>
      </trkpt>
      <trkpt lat="43.77474" lon="3.83948">
        <ele>380</ele>
        <time>2026-05-21T08:42:05.000Z</time>
      </trkpt>
      <trkpt lat="43.77474" lon="3.83948">
        <ele>380.2</ele>
        <time>2026-05-21T08:42:06.000Z</time>
      </trkpt>
      <trkpt lat="43.77474" lon="3.83948">
        <ele>380.7</ele>
        <time>2026-05-21T08:42:08.000Z</time>
      </trkpt>
      <trkpt lat="43.77475" lon="3.83951">
        <ele>381.3</ele>
        <time>2026-05-21T08:42:09.000Z</time>
      </trkpt>
      <trkpt lat="43.77475" lon="3.83952">
        <ele>381.8</ele>
        <time>2026-05-21T08:42:10.000Z</time>
      </trkpt>
      <trkpt lat="43.77476" lon="3.83953">
        <ele>382.4</ele>
        <time>2026-05-21T08:42:11.000Z</time>
      </trkpt>
      <trkpt lat="43.77477" lon="3.83954">
        <ele>382.6</ele>
        <time>2026-05-21T08:42:12.000Z</time>
      </trkpt>
      <trkpt lat="43.77478" lon="3.83955">
        <ele>382.7</ele>
        <time>2026-05-21T08:42:13.000Z</time>
      </trkpt>
      <trkpt lat="43.77478" lon="3.83955">
        <ele>382.6</ele>
        <time>2026-05-21T08:42:14.000Z</time>
      </trkpt>
      <trkpt lat="43.77479" lon="3.83956">
        <ele>382.8</ele>
        <time>2026-05-21T08:42:15.000Z</time>
      </trkpt>
      <trkpt lat="43.77479" lon="3.83956">
        <ele>382.8</ele>
        <time>2026-05-21T08:42:16.000Z</time>
      </trkpt>
      <trkpt lat="43.77479" lon="3.83956">
        <ele>382.9</ele>
        <time>2026-05-21T08:42:17.000Z</time>
      </trkpt>
      <trkpt lat="43.77479" lon="3.83956">
        <ele>383.1</ele>
        <time>2026-05-21T08:42:18.000Z</time>
      </trkpt>
      <trkpt lat="43.77479" lon="3.83956">
        <ele>383.2</ele>
        <time>2026-05-21T08:42:19.000Z</time>
      </trkpt>
      <trkpt lat="43.77479" lon="3.83956">
        <ele>383.5</ele>
        <time>2026-05-21T08:42:20.000Z</time>
      </trkpt>
      <trkpt lat="43.7748" lon="3.83956">
        <ele>383.9</ele>
        <time>2026-05-21T08:42:21.000Z</time>
      </trkpt>
      <trkpt lat="43.7748" lon="3.83957">
        <ele>384.1</ele>
        <time>2026-05-21T08:42:22.000Z</time>
      </trkpt>
      <trkpt lat="43.77481" lon="3.83957">
        <ele>384.1</ele>
        <time>2026-05-21T08:42:23.000Z</time>
      </trkpt>
      <trkpt lat="43.77481" lon="3.83958">
        <ele>384.3</ele>
        <time>2026-05-21T08:42:24.000Z</time>
      </trkpt>
      <trkpt lat="43.77482" lon="3.83958">
        <ele>384.5</ele>
        <time>2026-05-21T08:42:25.000Z</time>
      </trkpt>
      <trkpt lat="43.77483" lon="3.83959">
        <ele>384.5</ele>
        <time>2026-05-21T08:42:26.000Z</time>
      </trkpt>
      <trkpt lat="43.77483" lon="3.8396">
        <ele>384.3</ele>
        <time>2026-05-21T08:42:27.000Z</time>
      </trkpt>
      <trkpt lat="43.77483" lon="3.8396">
        <ele>384.4</ele>
        <time>2026-05-21T08:42:28.000Z</time>
      </trkpt>
      <trkpt lat="43.77484" lon="3.83961">
        <ele>384.7</ele>
        <time>2026-05-21T08:42:29.000Z</time>
      </trkpt>
      <trkpt lat="43.77484" lon="3.83962">
        <ele>385</ele>
        <time>2026-05-21T08:42:30.000Z</time>
      </trkpt>
      <trkpt lat="43.77484" lon="3.83962">
        <ele>385.3</ele>
        <time>2026-05-21T08:42:31.000Z</time>
      </trkpt>
      <trkpt lat="43.77484" lon="3.83962">
        <ele>385.5</ele>
        <time>2026-05-21T08:42:32.000Z</time>
      </trkpt>
      <trkpt lat="43.77484" lon="3.83962">
        <ele>385.7</ele>
        <time>2026-05-21T08:42:33.000Z</time>
      </trkpt>
      <trkpt lat="43.77484" lon="3.83962">
        <ele>385.8</ele>
        <time>2026-05-21T08:42:34.000Z</time>
      </trkpt>
      <trkpt lat="43.77484" lon="3.83962">
        <ele>386</ele>
        <time>2026-05-21T08:42:35.000Z</time>
      </trkpt>
      <trkpt lat="43.77484" lon="3.83962">
        <ele>386.1</ele>
        <time>2026-05-21T08:42:36.000Z</time>
      </trkpt>
      <trkpt lat="43.77484" lon="3.83963">
        <ele>386.1</ele>
        <time>2026-05-21T08:42:37.000Z</time>
      </trkpt>
      <trkpt lat="43.77484" lon="3.83963">
        <ele>386.2</ele>
        <time>2026-05-21T08:42:38.000Z</time>
      </trkpt>
      <trkpt lat="43.77485" lon="3.83965">
        <ele>386.7</ele>
        <time>2026-05-21T08:42:39.000Z</time>
      </trkpt>
      <trkpt lat="43.77485" lon="3.83965">
        <ele>386.8</ele>
        <time>2026-05-21T08:42:40.000Z</time>
      </trkpt>
      <trkpt lat="43.77485" lon="3.83965">
        <ele>386.8</ele>
        <time>2026-05-21T08:42:41.000Z</time>
      </trkpt>
      <trkpt lat="43.77485" lon="3.83965">
        <ele>386.9</ele>
        <time>2026-05-21T08:42:42.000Z</time>
      </trkpt>
      <trkpt lat="43.77485" lon="3.83965">
        <ele>387.2</ele>
        <time>2026-05-21T08:42:43.000Z</time>
      </trkpt>
      <trkpt lat="43.77485" lon="3.83966">
        <ele>387.6</ele>
        <time>2026-05-21T08:42:44.000Z</time>
      </trkpt>
      <trkpt lat="43.77485" lon="3.83966">
        <ele>387.8</ele>
        <time>2026-05-21T08:42:45.000Z</time>
      </trkpt>
      <trkpt lat="43.77486" lon="3.83966">
        <ele>387.9</ele>
        <time>2026-05-21T08:42:46.000Z</time>
      </trkpt>
      <trkpt lat="43.77486" lon="3.83966">
        <ele>387.9</ele>
        <time>2026-05-21T08:42:47.000Z</time>
      </trkpt>
      <trkpt lat="43.77486" lon="3.83966">
        <ele>387.9</ele>
        <time>2026-05-21T08:42:49.000Z</time>
      </trkpt>
      <trkpt lat="43.77486" lon="3.83966">
        <ele>388</ele>
        <time>2026-05-21T08:42:50.000Z</time>
      </trkpt>
      <trkpt lat="43.77486" lon="3.83966">
        <ele>387.9</ele>
        <time>2026-05-21T08:42:51.000Z</time>
      </trkpt>
      <trkpt lat="43.77486" lon="3.83966">
        <ele>388.1</ele>
        <time>2026-05-21T08:42:52.000Z</time>
      </trkpt>
      <trkpt lat="43.77486" lon="3.83966">
        <ele>388.3</ele>
        <time>2026-05-21T08:42:53.000Z</time>
      </trkpt>
      <trkpt lat="43.77486" lon="3.83966">
        <ele>388.2</ele>
        <time>2026-05-21T08:42:54.000Z</time>
      </trkpt>
      <trkpt lat="43.77486" lon="3.83966">
        <ele>388.3</ele>
        <time>2026-05-21T08:42:55.000Z</time>
      </trkpt>
      <trkpt lat="43.77486" lon="3.83966">
        <ele>388.7</ele>
        <time>2026-05-21T08:42:56.000Z</time>
      </trkpt>
      <trkpt lat="43.77486" lon="3.83966">
        <ele>389.1</ele>
        <time>2026-05-21T08:42:57.000Z</time>
      </trkpt>
      <trkpt lat="43.77486" lon="3.83966">
        <ele>389.2</ele>
        <time>2026-05-21T08:42:58.000Z</time>
      </trkpt>
      <trkpt lat="43.77486" lon="3.83966">
        <ele>389.2</ele>
        <time>2026-05-21T08:42:59.000Z</time>
      </trkpt>
      <trkpt lat="43.77486" lon="3.83966">
        <ele>389.2</ele>
        <time>2026-05-21T08:43:00.000Z</time>
      </trkpt>
      <trkpt lat="43.77486" lon="3.83966">
        <ele>389.2</ele>
        <time>2026-05-21T08:43:01.000Z</time>
      </trkpt>
      <trkpt lat="43.77486" lon="3.83966">
        <ele>389.3</ele>
        <time>2026-05-21T08:43:02.000Z</time>
      </trkpt>
      <trkpt lat="43.77486" lon="3.83966">
        <ele>389.3</ele>
        <time>2026-05-21T08:43:03.000Z</time>
      </trkpt>
      <trkpt lat="43.77486" lon="3.83966">
        <ele>389.3</ele>
        <time>2026-05-21T08:43:04.000Z</time>
      </trkpt>
      <trkpt lat="43.77486" lon="3.83966">
        <ele>389.3</ele>
        <time>2026-05-21T08:43:05.000Z</time>
      </trkpt>
      <trkpt lat="43.77486" lon="3.83966">
        <ele>389.3</ele>
        <time>2026-05-21T08:43:06.000Z</time>
      </trkpt>
      <trkpt lat="43.77487" lon="3.83966">
        <ele>389.3</ele>
        <time>2026-05-21T08:43:07.000Z</time>
      </trkpt>
      <trkpt lat="43.77487" lon="3.83966">
        <ele>389.3</ele>
        <time>2026-05-21T08:43:08.000Z</time>
      </trkpt>
      <trkpt lat="43.77487" lon="3.83966">
        <ele>389.4</ele>
        <time>2026-05-21T08:43:09.000Z</time>
      </trkpt>
      <trkpt lat="43.77487" lon="3.83967">
        <ele>389.6</ele>
        <time>2026-05-21T08:43:10.000Z</time>
      </trkpt>
      <trkpt lat="43.77487" lon="3.83967">
        <ele>389.5</ele>
        <time>2026-05-21T08:43:11.000Z</time>
      </trkpt>
      <trkpt lat="43.77487" lon="3.83967">
        <ele>389.7</ele>
        <time>2026-05-21T08:43:12.000Z</time>
      </trkpt>
      <trkpt lat="43.77487" lon="3.83967">
        <ele>389.9</ele>
        <time>2026-05-21T08:43:13.000Z</time>
      </trkpt>
      <trkpt lat="43.77487" lon="3.83967">
        <ele>390.1</ele>
        <time>2026-05-21T08:43:15.000Z</time>
      </trkpt>
      <trkpt lat="43.77487" lon="3.83967">
        <ele>390.2</ele>
        <time>2026-05-21T08:43:16.000Z</time>
      </trkpt>
      <trkpt lat="43.77487" lon="3.83967">
        <ele>390.2</ele>
        <time>2026-05-21T08:43:17.000Z</time>
      </trkpt>
      <trkpt lat="43.77487" lon="3.83967">
        <ele>390.4</ele>
        <time>2026-05-21T08:43:18.000Z</time>
      </trkpt>
      <trkpt lat="43.77487" lon="3.83967">
        <ele>390.3</ele>
        <time>2026-05-21T08:43:19.000Z</time>
      </trkpt>
      <trkpt lat="43.77487" lon="3.83967">
        <ele>390.8</ele>
        <time>2026-05-21T08:43:20.000Z</time>
      </trkpt>
      <trkpt lat="43.77487" lon="3.83967">
        <ele>391.1</ele>
        <time>2026-05-21T08:43:21.000Z</time>
      </trkpt>
      <trkpt lat="43.77487" lon="3.83967">
        <ele>391.3</ele>
        <time>2026-05-21T08:43:22.000Z</time>
      </trkpt>
      <trkpt lat="43.77488" lon="3.83967">
        <ele>391.4</ele>
        <time>2026-05-21T08:43:23.000Z</time>
      </trkpt>
      <trkpt lat="43.77488" lon="3.83968">
        <ele>391.6</ele>
        <time>2026-05-21T08:43:24.000Z</time>
      </trkpt>
      <trkpt lat="43.77488" lon="3.83968">
        <ele>391.7</ele>
        <time>2026-05-21T08:43:25.000Z</time>
      </trkpt>
      <trkpt lat="43.77488" lon="3.83968">
        <ele>391.6</ele>
        <time>2026-05-21T08:43:26.000Z</time>
      </trkpt>
      <trkpt lat="43.77488" lon="3.83969">
        <ele>391.7</ele>
        <time>2026-05-21T08:43:27.000Z</time>
      </trkpt>
      <trkpt lat="43.77489" lon="3.83969">
        <ele>391.8</ele>
        <time>2026-05-21T08:43:28.000Z</time>
      </trkpt>
      <trkpt lat="43.77489" lon="3.83969">
        <ele>392.1</ele>
        <time>2026-05-21T08:43:29.000Z</time>
      </trkpt>
      <trkpt lat="43.7749" lon="3.83968">
        <ele>392.2</ele>
        <time>2026-05-21T08:43:30.000Z</time>
      </trkpt>
      <trkpt lat="43.77491" lon="3.83967">
        <ele>392</ele>
        <time>2026-05-21T08:43:31.000Z</time>
      </trkpt>
      <trkpt lat="43.77491" lon="3.83967">
        <ele>392.2</ele>
        <time>2026-05-21T08:43:32.000Z</time>
      </trkpt>
      <trkpt lat="43.77491" lon="3.83967">
        <ele>392</ele>
        <time>2026-05-21T08:43:33.000Z</time>
      </trkpt>
      <trkpt lat="43.77491" lon="3.83967">
        <ele>392.1</ele>
        <time>2026-05-21T08:43:34.000Z</time>
      </trkpt>
      <trkpt lat="43.77491" lon="3.83968">
        <ele>392.4</ele>
        <time>2026-05-21T08:43:35.000Z</time>
      </trkpt>
      <trkpt lat="43.77491" lon="3.83968">
        <ele>392.7</ele>
        <time>2026-05-21T08:43:36.000Z</time>
      </trkpt>
      <trkpt lat="43.77491" lon="3.83968">
        <ele>393.1</ele>
        <time>2026-05-21T08:43:37.000Z</time>
      </trkpt>
      <trkpt lat="43.77492" lon="3.83968">
        <ele>393.5</ele>
        <time>2026-05-21T08:43:38.000Z</time>
      </trkpt>
      <trkpt lat="43.77492" lon="3.83968">
        <ele>393.5</ele>
        <time>2026-05-21T08:43:39.000Z</time>
      </trkpt>
      <trkpt lat="43.77493" lon="3.83969">
        <ele>393.8</ele>
        <time>2026-05-21T08:43:40.000Z</time>
      </trkpt>
      <trkpt lat="43.77494" lon="3.83968">
        <ele>393.7</ele>
        <time>2026-05-21T08:43:41.000Z</time>
      </trkpt>
      <trkpt lat="43.77494" lon="3.83969">
        <ele>393.9</ele>
        <time>2026-05-21T08:43:43.000Z</time>
      </trkpt>
      <trkpt lat="43.77495" lon="3.8397">
        <ele>394.1</ele>
        <time>2026-05-21T08:43:44.000Z</time>
      </trkpt>
      <trkpt lat="43.77495" lon="3.83972">
        <ele>394.8</ele>
        <time>2026-05-21T08:43:45.000Z</time>
      </trkpt>
      <trkpt lat="43.77496" lon="3.83972">
        <ele>395.1</ele>
        <time>2026-05-21T08:43:46.000Z</time>
      </trkpt>
      <trkpt lat="43.77496" lon="3.83973">
        <ele>395.4</ele>
        <time>2026-05-21T08:43:47.000Z</time>
      </trkpt>
      <trkpt lat="43.77496" lon="3.83973">
        <ele>395.5</ele>
        <time>2026-05-21T08:43:48.000Z</time>
      </trkpt>
      <trkpt lat="43.77496" lon="3.83973">
        <ele>395.5</ele>
        <time>2026-05-21T08:43:49.000Z</time>
      </trkpt>
      <trkpt lat="43.77496" lon="3.83973">
        <ele>395.6</ele>
        <time>2026-05-21T08:43:50.000Z</time>
      </trkpt>
      <trkpt lat="43.77496" lon="3.83973">
        <ele>395.5</ele>
        <time>2026-05-21T08:43:51.000Z</time>
      </trkpt>
      <trkpt lat="43.77496" lon="3.83973">
        <ele>395.8</ele>
        <time>2026-05-21T08:43:52.000Z</time>
      </trkpt>
      <trkpt lat="43.77497" lon="3.83974">
        <ele>395.9</ele>
        <time>2026-05-21T08:43:53.000Z</time>
      </trkpt>
      <trkpt lat="43.77498" lon="3.83974">
        <ele>396.2</ele>
        <time>2026-05-21T08:43:54.000Z</time>
      </trkpt>
      <trkpt lat="43.77498" lon="3.83974">
        <ele>396.1</ele>
        <time>2026-05-21T08:43:55.000Z</time>
      </trkpt>
      <trkpt lat="43.77499" lon="3.83973">
        <ele>396.2</ele>
        <time>2026-05-21T08:43:56.000Z</time>
      </trkpt>
      <trkpt lat="43.77499" lon="3.83973">
        <ele>396.2</ele>
        <time>2026-05-21T08:43:57.000Z</time>
      </trkpt>
      <trkpt lat="43.77499" lon="3.83972">
        <ele>396</ele>
        <time>2026-05-21T08:43:58.000Z</time>
      </trkpt>
      <trkpt lat="43.775" lon="3.83971">
        <ele>396.1</ele>
        <time>2026-05-21T08:43:59.000Z</time>
      </trkpt>
      <trkpt lat="43.775" lon="3.8397">
        <ele>396.2</ele>
        <time>2026-05-21T08:44:00.000Z</time>
      </trkpt>
      <trkpt lat="43.77501" lon="3.8397">
        <ele>396.3</ele>
        <time>2026-05-21T08:44:01.000Z</time>
      </trkpt>
      <trkpt lat="43.77502" lon="3.8397">
        <ele>396.7</ele>
        <time>2026-05-21T08:44:02.000Z</time>
      </trkpt>
      <trkpt lat="43.77502" lon="3.83969">
        <ele>396.8</ele>
        <time>2026-05-21T08:44:03.000Z</time>
      </trkpt>
      <trkpt lat="43.77503" lon="3.83968">
        <ele>397</ele>
        <time>2026-05-21T08:44:04.000Z</time>
      </trkpt>
      <trkpt lat="43.77503" lon="3.83968">
        <ele>397.1</ele>
        <time>2026-05-21T08:44:05.000Z</time>
      </trkpt>
      <trkpt lat="43.77503" lon="3.83967">
        <ele>397</ele>
        <time>2026-05-21T08:44:06.000Z</time>
      </trkpt>
      <trkpt lat="43.77503" lon="3.83967">
        <ele>396.9</ele>
        <time>2026-05-21T08:44:07.000Z</time>
      </trkpt>
      <trkpt lat="43.77503" lon="3.83966">
        <ele>396.9</ele>
        <time>2026-05-21T08:44:08.000Z</time>
      </trkpt>
      <trkpt lat="43.77504" lon="3.83966">
        <ele>397</ele>
        <time>2026-05-21T08:44:09.000Z</time>
      </trkpt>
      <trkpt lat="43.77504" lon="3.83966">
        <ele>397.1</ele>
        <time>2026-05-21T08:44:10.000Z</time>
      </trkpt>
      <trkpt lat="43.77504" lon="3.83965">
        <ele>397.2</ele>
        <time>2026-05-21T08:44:11.000Z</time>
      </trkpt>
      <trkpt lat="43.77504" lon="3.83964">
        <ele>397.3</ele>
        <time>2026-05-21T08:44:12.000Z</time>
      </trkpt>
      <trkpt lat="43.77505" lon="3.83964">
        <ele>397.6</ele>
        <time>2026-05-21T08:44:13.000Z</time>
      </trkpt>
      <trkpt lat="43.77504" lon="3.83963">
        <ele>397.7</ele>
        <time>2026-05-21T08:44:14.000Z</time>
      </trkpt>
      <trkpt lat="43.77504" lon="3.83963">
        <ele>397.8</ele>
        <time>2026-05-21T08:44:15.000Z</time>
      </trkpt>
      <trkpt lat="43.77505" lon="3.83963">
        <ele>397.6</ele>
        <time>2026-05-21T08:44:16.000Z</time>
      </trkpt>
      <trkpt lat="43.77506" lon="3.83964">
        <ele>397.7</ele>
        <time>2026-05-21T08:44:17.000Z</time>
      </trkpt>
      <trkpt lat="43.77507" lon="3.83964">
        <ele>397.9</ele>
        <time>2026-05-21T08:44:18.000Z</time>
      </trkpt>
      <trkpt lat="43.77508" lon="3.83965">
        <ele>397.9</ele>
        <time>2026-05-21T08:44:19.000Z</time>
      </trkpt>
      <trkpt lat="43.77509" lon="3.83965">
        <ele>397.9</ele>
        <time>2026-05-21T08:44:20.000Z</time>
      </trkpt>
      <trkpt lat="43.7751" lon="3.83965">
        <ele>397.9</ele>
        <time>2026-05-21T08:44:21.000Z</time>
      </trkpt>
      <trkpt lat="43.7751" lon="3.83966">
        <ele>397.7</ele>
        <time>2026-05-21T08:44:22.000Z</time>
      </trkpt>
      <trkpt lat="43.7751" lon="3.83967">
        <ele>397.6</ele>
        <time>2026-05-21T08:44:23.000Z</time>
      </trkpt>
      <trkpt lat="43.7751" lon="3.83967">
        <ele>397.4</ele>
        <time>2026-05-21T08:44:24.000Z</time>
      </trkpt>
      <trkpt lat="43.7751" lon="3.83967">
        <ele>397.5</ele>
        <time>2026-05-21T08:44:25.000Z</time>
      </trkpt>
      <trkpt lat="43.7751" lon="3.83967">
        <ele>397.2</ele>
        <time>2026-05-21T08:44:26.000Z</time>
      </trkpt>
      <trkpt lat="43.7751" lon="3.83967">
        <ele>397.1</ele>
        <time>2026-05-21T08:44:27.000Z</time>
      </trkpt>
      <trkpt lat="43.7751" lon="3.83967">
        <ele>397.9</ele>
        <time>2026-05-21T08:44:28.000Z</time>
      </trkpt>
      <trkpt lat="43.7751" lon="3.83968">
        <ele>397.8</ele>
        <time>2026-05-21T08:44:29.000Z</time>
      </trkpt>
      <trkpt lat="43.77511" lon="3.83968">
        <ele>397.8</ele>
        <time>2026-05-21T08:44:30.000Z</time>
      </trkpt>
      <trkpt lat="43.77511" lon="3.83969">
        <ele>398</ele>
        <time>2026-05-21T08:44:31.000Z</time>
      </trkpt>
      <trkpt lat="43.77511" lon="3.83969">
        <ele>398.2</ele>
        <time>2026-05-21T08:44:32.000Z</time>
      </trkpt>
      <trkpt lat="43.77511" lon="3.83969">
        <ele>398.4</ele>
        <time>2026-05-21T08:44:33.000Z</time>
      </trkpt>
      <trkpt lat="43.77511" lon="3.83969">
        <ele>398.5</ele>
        <time>2026-05-21T08:44:34.000Z</time>
      </trkpt>
      <trkpt lat="43.77511" lon="3.83969">
        <ele>398.6</ele>
        <time>2026-05-21T08:44:35.000Z</time>
      </trkpt>
      <trkpt lat="43.77511" lon="3.83969">
        <ele>398.7</ele>
        <time>2026-05-21T08:44:36.000Z</time>
      </trkpt>
      <trkpt lat="43.77512" lon="3.83969">
        <ele>398.5</ele>
        <time>2026-05-21T08:44:37.000Z</time>
      </trkpt>
      <trkpt lat="43.77512" lon="3.83969">
        <ele>398.5</ele>
        <time>2026-05-21T08:44:38.000Z</time>
      </trkpt>
      <trkpt lat="43.77512" lon="3.83969">
        <ele>398.5</ele>
        <time>2026-05-21T08:44:39.000Z</time>
      </trkpt>
      <trkpt lat="43.77512" lon="3.83969">
        <ele>398.3</ele>
        <time>2026-05-21T08:44:40.000Z</time>
      </trkpt>
      <trkpt lat="43.77512" lon="3.83969">
        <ele>398.2</ele>
        <time>2026-05-21T08:44:41.000Z</time>
      </trkpt>
      <trkpt lat="43.77512" lon="3.83969">
        <ele>398.2</ele>
        <time>2026-05-21T08:44:42.000Z</time>
      </trkpt>
      <trkpt lat="43.77512" lon="3.83969">
        <ele>398.3</ele>
        <time>2026-05-21T08:44:43.000Z</time>
      </trkpt>
      <trkpt lat="43.77512" lon="3.83969">
        <ele>398.5</ele>
        <time>2026-05-21T08:44:44.000Z</time>
      </trkpt>
      <trkpt lat="43.77512" lon="3.83969">
        <ele>398.6</ele>
        <time>2026-05-21T08:44:45.000Z</time>
      </trkpt>
      <trkpt lat="43.77512" lon="3.83969">
        <ele>398.8</ele>
        <time>2026-05-21T08:44:46.000Z</time>
      </trkpt>
      <trkpt lat="43.77512" lon="3.83969">
        <ele>399.1</ele>
        <time>2026-05-21T08:44:47.000Z</time>
      </trkpt>
      <trkpt lat="43.77511" lon="3.83969">
        <ele>399.7</ele>
        <time>2026-05-21T08:44:48.000Z</time>
      </trkpt>
      <trkpt lat="43.77511" lon="3.83969">
        <ele>400.2</ele>
        <time>2026-05-21T08:44:49.000Z</time>
      </trkpt>
      <trkpt lat="43.77511" lon="3.83969">
        <ele>400.5</ele>
        <time>2026-05-21T08:44:50.000Z</time>
      </trkpt>
      <trkpt lat="43.77511" lon="3.83969">
        <ele>400.8</ele>
        <time>2026-05-21T08:44:51.000Z</time>
      </trkpt>
      <trkpt lat="43.77511" lon="3.8397">
        <ele>401.1</ele>
        <time>2026-05-21T08:44:52.000Z</time>
      </trkpt>
      <trkpt lat="43.77512" lon="3.8397">
        <ele>401.5</ele>
        <time>2026-05-21T08:44:53.000Z</time>
      </trkpt>
      <trkpt lat="43.77511" lon="3.83971">
        <ele>401.7</ele>
        <time>2026-05-21T08:44:54.000Z</time>
      </trkpt>
      <trkpt lat="43.77512" lon="3.83972">
        <ele>402</ele>
        <time>2026-05-21T08:44:55.000Z</time>
      </trkpt>
      <trkpt lat="43.77511" lon="3.83973">
        <ele>402.1</ele>
        <time>2026-05-21T08:44:56.000Z</time>
      </trkpt>
      <trkpt lat="43.77509" lon="3.83973">
        <ele>402.2</ele>
        <time>2026-05-21T08:44:57.000Z</time>
      </trkpt>
      <trkpt lat="43.77507" lon="3.83973">
        <ele>402.3</ele>
        <time>2026-05-21T08:44:58.000Z</time>
      </trkpt>
      <trkpt lat="43.77505" lon="3.83973">
        <ele>402.3</ele>
        <time>2026-05-21T08:44:59.000Z</time>
      </trkpt>
      <trkpt lat="43.77503" lon="3.83974">
        <ele>402.6</ele>
        <time>2026-05-21T08:45:00.000Z</time>
      </trkpt>
      <trkpt lat="43.775" lon="3.83973">
        <ele>402.5</ele>
        <time>2026-05-21T08:45:01.000Z</time>
      </trkpt>
      <trkpt lat="43.77499" lon="3.83973">
        <ele>402.3</ele>
        <time>2026-05-21T08:45:02.000Z</time>
      </trkpt>
      <trkpt lat="43.77498" lon="3.83973">
        <ele>402.2</ele>
        <time>2026-05-21T08:45:03.000Z</time>
      </trkpt>
      <trkpt lat="43.77496" lon="3.83972">
        <ele>401.9</ele>
        <time>2026-05-21T08:45:04.000Z</time>
      </trkpt>
      <trkpt lat="43.77494" lon="3.83971">
        <ele>401.8</ele>
        <time>2026-05-21T08:45:05.000Z</time>
      </trkpt>
      <trkpt lat="43.77492" lon="3.83971">
        <ele>401.6</ele>
        <time>2026-05-21T08:45:06.000Z</time>
      </trkpt>
      <trkpt lat="43.77491" lon="3.83968">
        <ele>401.4</ele>
        <time>2026-05-21T08:45:07.000Z</time>
      </trkpt>
      <trkpt lat="43.7749" lon="3.83966">
        <ele>400.9</ele>
        <time>2026-05-21T08:45:08.000Z</time>
      </trkpt>
      <trkpt lat="43.7749" lon="3.83963">
        <ele>400.1</ele>
        <time>2026-05-21T08:45:09.000Z</time>
      </trkpt>
      <trkpt lat="43.77489" lon="3.83961">
        <ele>399.4</ele>
        <time>2026-05-21T08:45:10.000Z</time>
      </trkpt>
      <trkpt lat="43.77489" lon="3.83959">
        <ele>399.1</ele>
        <time>2026-05-21T08:45:11.000Z</time>
      </trkpt>
      <trkpt lat="43.7749" lon="3.83957">
        <ele>398.3</ele>
        <time>2026-05-21T08:45:12.000Z</time>
      </trkpt>
      <trkpt lat="43.77491" lon="3.83955">
        <ele>397.4</ele>
        <time>2026-05-21T08:45:13.000Z</time>
      </trkpt>
      <trkpt lat="43.77493" lon="3.83954">
        <ele>397.3</ele>
        <time>2026-05-21T08:45:14.000Z</time>
      </trkpt>
      <trkpt lat="43.77494" lon="3.83954">
        <ele>397.3</ele>
        <time>2026-05-21T08:45:15.000Z</time>
      </trkpt>
      <trkpt lat="43.77496" lon="3.83953">
        <ele>397</ele>
        <time>2026-05-21T08:45:16.000Z</time>
      </trkpt>
      <trkpt lat="43.77498" lon="3.83953">
        <ele>396.7</ele>
        <time>2026-05-21T08:45:17.000Z</time>
      </trkpt>
      <trkpt lat="43.77499" lon="3.83952">
        <ele>396.2</ele>
        <time>2026-05-21T08:45:18.000Z</time>
      </trkpt>
      <trkpt lat="43.775" lon="3.83953">
        <ele>396.4</ele>
        <time>2026-05-21T08:45:19.000Z</time>
      </trkpt>
      <trkpt lat="43.77501" lon="3.83953">
        <ele>396.7</ele>
        <time>2026-05-21T08:45:20.000Z</time>
      </trkpt>
      <trkpt lat="43.77502" lon="3.83952">
        <ele>396.4</ele>
        <time>2026-05-21T08:45:21.000Z</time>
      </trkpt>
      <trkpt lat="43.77503" lon="3.83952">
        <ele>396</ele>
        <time>2026-05-21T08:45:22.000Z</time>
      </trkpt>
      <trkpt lat="43.77504" lon="3.83952">
        <ele>396.1</ele>
        <time>2026-05-21T08:45:23.000Z</time>
      </trkpt>
      <trkpt lat="43.77505" lon="3.83953">
        <ele>396.4</ele>
        <time>2026-05-21T08:45:24.000Z</time>
      </trkpt>
      <trkpt lat="43.77506" lon="3.83954">
        <ele>396.8</ele>
        <time>2026-05-21T08:45:25.000Z</time>
      </trkpt>
      <trkpt lat="43.77507" lon="3.83955">
        <ele>397</ele>
        <time>2026-05-21T08:45:26.000Z</time>
      </trkpt>
      <trkpt lat="43.77508" lon="3.83955">
        <ele>396.9</ele>
        <time>2026-05-21T08:45:27.000Z</time>
      </trkpt>
      <trkpt lat="43.77508" lon="3.83955">
        <ele>397</ele>
        <time>2026-05-21T08:45:28.000Z</time>
      </trkpt>
      <trkpt lat="43.77508" lon="3.83955">
        <ele>395.9</ele>
        <time>2026-05-21T08:45:29.000Z</time>
      </trkpt>
      <trkpt lat="43.77508" lon="3.83955">
        <ele>395.9</ele>
        <time>2026-05-21T08:45:30.000Z</time>
      </trkpt>
      <trkpt lat="43.77508" lon="3.83955">
        <ele>396.3</ele>
        <time>2026-05-21T08:45:31.000Z</time>
      </trkpt>
      <trkpt lat="43.77508" lon="3.83954">
        <ele>396.5</ele>
        <time>2026-05-21T08:45:32.000Z</time>
      </trkpt>
      <trkpt lat="43.77508" lon="3.83954">
        <ele>396.7</ele>
        <time>2026-05-21T08:45:33.000Z</time>
      </trkpt>
      <trkpt lat="43.77509" lon="3.83954">
        <ele>396.8</ele>
        <time>2026-05-21T08:45:34.000Z</time>
      </trkpt>
      <trkpt lat="43.77509" lon="3.83955">
        <ele>396.9</ele>
        <time>2026-05-21T08:45:35.000Z</time>
      </trkpt>
      <trkpt lat="43.77509" lon="3.83955">
        <ele>396.8</ele>
        <time>2026-05-21T08:45:36.000Z</time>
      </trkpt>
      <trkpt lat="43.77509" lon="3.83954">
        <ele>397.1</ele>
        <time>2026-05-21T08:45:37.000Z</time>
      </trkpt>
      <trkpt lat="43.77509" lon="3.83953">
        <ele>397.4</ele>
        <time>2026-05-21T08:45:38.000Z</time>
      </trkpt>
      <trkpt lat="43.7751" lon="3.83951">
        <ele>397.4</ele>
        <time>2026-05-21T08:45:39.000Z</time>
      </trkpt>
      <trkpt lat="43.77511" lon="3.8395">
        <ele>397.4</ele>
        <time>2026-05-21T08:45:40.000Z</time>
      </trkpt>
      <trkpt lat="43.77512" lon="3.83949">
        <ele>397.3</ele>
        <time>2026-05-21T08:45:41.000Z</time>
      </trkpt>
      <trkpt lat="43.77513" lon="3.83948">
        <ele>397.7</ele>
        <time>2026-05-21T08:45:42.000Z</time>
      </trkpt>
      <trkpt lat="43.77514" lon="3.83947">
        <ele>397.8</ele>
        <time>2026-05-21T08:45:44.000Z</time>
      </trkpt>
      <trkpt lat="43.77514" lon="3.83946">
        <ele>398</ele>
        <time>2026-05-21T08:45:45.000Z</time>
      </trkpt>
      <trkpt lat="43.77514" lon="3.83945">
        <ele>398.1</ele>
        <time>2026-05-21T08:45:46.000Z</time>
      </trkpt>
      <trkpt lat="43.77514" lon="3.83945">
        <ele>398.3</ele>
        <time>2026-05-21T08:45:47.000Z</time>
      </trkpt>
      <trkpt lat="43.77514" lon="3.83945">
        <ele>398</ele>
        <time>2026-05-21T08:45:48.000Z</time>
      </trkpt>
      <trkpt lat="43.77515" lon="3.83945">
        <ele>396.8</ele>
        <time>2026-05-21T08:45:49.000Z</time>
      </trkpt>
      <trkpt lat="43.77515" lon="3.83945">
        <ele>396.9</ele>
        <time>2026-05-21T08:45:50.000Z</time>
      </trkpt>
      <trkpt lat="43.77514" lon="3.83945">
        <ele>396.9</ele>
        <time>2026-05-21T08:45:51.000Z</time>
      </trkpt>
      <trkpt lat="43.77514" lon="3.83944">
        <ele>396.9</ele>
        <time>2026-05-21T08:45:52.000Z</time>
      </trkpt>
      <trkpt lat="43.77515" lon="3.83944">
        <ele>397</ele>
        <time>2026-05-21T08:45:53.000Z</time>
      </trkpt>
      <trkpt lat="43.77515" lon="3.83944">
        <ele>397.4</ele>
        <time>2026-05-21T08:45:54.000Z</time>
      </trkpt>
      <trkpt lat="43.77516" lon="3.83944">
        <ele>397.6</ele>
        <time>2026-05-21T08:45:55.000Z</time>
      </trkpt>
      <trkpt lat="43.77516" lon="3.83944">
        <ele>397.7</ele>
        <time>2026-05-21T08:45:56.000Z</time>
      </trkpt>
      <trkpt lat="43.77517" lon="3.83944">
        <ele>397.9</ele>
        <time>2026-05-21T08:45:57.000Z</time>
      </trkpt>
      <trkpt lat="43.77518" lon="3.83943">
        <ele>398.1</ele>
        <time>2026-05-21T08:45:58.000Z</time>
      </trkpt>
      <trkpt lat="43.77519" lon="3.83943">
        <ele>398.1</ele>
        <time>2026-05-21T08:45:59.000Z</time>
      </trkpt>
      <trkpt lat="43.77521" lon="3.83942">
        <ele>398.1</ele>
        <time>2026-05-21T08:46:00.000Z</time>
      </trkpt>
      <trkpt lat="43.77522" lon="3.83942">
        <ele>398.2</ele>
        <time>2026-05-21T08:46:01.000Z</time>
      </trkpt>
      <trkpt lat="43.77523" lon="3.83942">
        <ele>398.5</ele>
        <time>2026-05-21T08:46:02.000Z</time>
      </trkpt>
      <trkpt lat="43.77523" lon="3.83941">
        <ele>398.6</ele>
        <time>2026-05-21T08:46:03.000Z</time>
      </trkpt>
      <trkpt lat="43.77524" lon="3.83941">
        <ele>398.8</ele>
        <time>2026-05-21T08:46:04.000Z</time>
      </trkpt>
      <trkpt lat="43.77525" lon="3.83941">
        <ele>399.1</ele>
        <time>2026-05-21T08:46:05.000Z</time>
      </trkpt>
      <trkpt lat="43.77527" lon="3.83941">
        <ele>399.2</ele>
        <time>2026-05-21T08:46:06.000Z</time>
      </trkpt>
      <trkpt lat="43.77528" lon="3.83942">
        <ele>399.6</ele>
        <time>2026-05-21T08:46:07.000Z</time>
      </trkpt>
      <trkpt lat="43.7753" lon="3.83943">
        <ele>400</ele>
        <time>2026-05-21T08:46:08.000Z</time>
      </trkpt>
      <trkpt lat="43.7753" lon="3.83944">
        <ele>400.4</ele>
        <time>2026-05-21T08:46:09.000Z</time>
      </trkpt>
      <trkpt lat="43.77531" lon="3.83944">
        <ele>400.7</ele>
        <time>2026-05-21T08:46:10.000Z</time>
      </trkpt>
      <trkpt lat="43.77531" lon="3.83944">
        <ele>400.6</ele>
        <time>2026-05-21T08:46:11.000Z</time>
      </trkpt>
      <trkpt lat="43.77531" lon="3.83944">
        <ele>401.1</ele>
        <time>2026-05-21T08:46:12.000Z</time>
      </trkpt>
      <trkpt lat="43.77531" lon="3.83945">
        <ele>401.3</ele>
        <time>2026-05-21T08:46:13.000Z</time>
      </trkpt>
      <trkpt lat="43.77531" lon="3.83945">
        <ele>401.5</ele>
        <time>2026-05-21T08:46:14.000Z</time>
      </trkpt>
      <trkpt lat="43.77532" lon="3.83944">
        <ele>402</ele>
        <time>2026-05-21T08:46:15.000Z</time>
      </trkpt>
      <trkpt lat="43.77532" lon="3.83944">
        <ele>405.9</ele>
        <time>2026-05-21T08:46:16.000Z</time>
      </trkpt>
      <trkpt lat="43.77532" lon="3.83944">
        <ele>406.5</ele>
        <time>2026-05-21T08:46:17.000Z</time>
      </trkpt>
      <trkpt lat="43.77532" lon="3.83944">
        <ele>406.7</ele>
        <time>2026-05-21T08:46:18.000Z</time>
      </trkpt>
      <trkpt lat="43.77532" lon="3.83944">
        <ele>407</ele>
        <time>2026-05-21T08:46:19.000Z</time>
      </trkpt>
      <trkpt lat="43.77532" lon="3.83944">
        <ele>406.7</ele>
        <time>2026-05-21T08:46:20.000Z</time>
      </trkpt>
      <trkpt lat="43.77533" lon="3.83943">
        <ele>406.8</ele>
        <time>2026-05-21T08:46:21.000Z</time>
      </trkpt>
      <trkpt lat="43.77533" lon="3.83943">
        <ele>406.4</ele>
        <time>2026-05-21T08:46:22.000Z</time>
      </trkpt>
      <trkpt lat="43.77534" lon="3.83942">
        <ele>406</ele>
        <time>2026-05-21T08:46:23.000Z</time>
      </trkpt>
      <trkpt lat="43.77535" lon="3.83942">
        <ele>405.8</ele>
        <time>2026-05-21T08:46:24.000Z</time>
      </trkpt>
      <trkpt lat="43.77535" lon="3.83941">
        <ele>405.9</ele>
        <time>2026-05-21T08:46:25.000Z</time>
      </trkpt>
      <trkpt lat="43.77535" lon="3.83941">
        <ele>406.3</ele>
        <time>2026-05-21T08:46:26.000Z</time>
      </trkpt>
      <trkpt lat="43.77535" lon="3.83941">
        <ele>406.5</ele>
        <time>2026-05-21T08:46:27.000Z</time>
      </trkpt>
      <trkpt lat="43.77535" lon="3.83941">
        <ele>406.7</ele>
        <time>2026-05-21T08:46:28.000Z</time>
      </trkpt>
      <trkpt lat="43.77535" lon="3.83941">
        <ele>406.7</ele>
        <time>2026-05-21T08:46:29.000Z</time>
      </trkpt>
      <trkpt lat="43.77535" lon="3.83941">
        <ele>406.6</ele>
        <time>2026-05-21T08:46:30.000Z</time>
      </trkpt>
      <trkpt lat="43.77536" lon="3.83941">
        <ele>406.6</ele>
        <time>2026-05-21T08:46:31.000Z</time>
      </trkpt>
      <trkpt lat="43.77536" lon="3.83941">
        <ele>406.4</ele>
        <time>2026-05-21T08:46:32.000Z</time>
      </trkpt>
      <trkpt lat="43.77537" lon="3.83942">
        <ele>406.3</ele>
        <time>2026-05-21T08:46:33.000Z</time>
      </trkpt>
      <trkpt lat="43.77538" lon="3.83943">
        <ele>406.3</ele>
        <time>2026-05-21T08:46:34.000Z</time>
      </trkpt>
      <trkpt lat="43.77539" lon="3.83943">
        <ele>406.2</ele>
        <time>2026-05-21T08:46:35.000Z</time>
      </trkpt>
      <trkpt lat="43.77539" lon="3.83943">
        <ele>406.2</ele>
        <time>2026-05-21T08:46:37.000Z</time>
      </trkpt>
      <trkpt lat="43.77539" lon="3.83943">
        <ele>406.1</ele>
        <time>2026-05-21T08:46:38.000Z</time>
      </trkpt>
      <trkpt lat="43.7754" lon="3.83943">
        <ele>406.1</ele>
        <time>2026-05-21T08:46:39.000Z</time>
      </trkpt>
      <trkpt lat="43.7754" lon="3.83943">
        <ele>406.5</ele>
        <time>2026-05-21T08:46:40.000Z</time>
      </trkpt>
      <trkpt lat="43.77541" lon="3.83942">
        <ele>406.2</ele>
        <time>2026-05-21T08:46:41.000Z</time>
      </trkpt>
      <trkpt lat="43.77541" lon="3.83942">
        <ele>406.2</ele>
        <time>2026-05-21T08:46:42.000Z</time>
      </trkpt>
      <trkpt lat="43.77542" lon="3.83942">
        <ele>406</ele>
        <time>2026-05-21T08:46:43.000Z</time>
      </trkpt>
      <trkpt lat="43.77543" lon="3.83941">
        <ele>406</ele>
        <time>2026-05-21T08:46:44.000Z</time>
      </trkpt>
      <trkpt lat="43.77543" lon="3.83941">
        <ele>405.9</ele>
        <time>2026-05-21T08:46:45.000Z</time>
      </trkpt>
      <trkpt lat="43.77544" lon="3.83942">
        <ele>406</ele>
        <time>2026-05-21T08:46:46.000Z</time>
      </trkpt>
      <trkpt lat="43.77544" lon="3.83942">
        <ele>406</ele>
        <time>2026-05-21T08:46:47.000Z</time>
      </trkpt>
      <trkpt lat="43.77544" lon="3.83942">
        <ele>406</ele>
        <time>2026-05-21T08:46:48.000Z</time>
      </trkpt>
      <trkpt lat="43.77545" lon="3.83941">
        <ele>406.6</ele>
        <time>2026-05-21T08:46:49.000Z</time>
      </trkpt>
      <trkpt lat="43.77545" lon="3.83942">
        <ele>406.8</ele>
        <time>2026-05-21T08:46:50.000Z</time>
      </trkpt>
      <trkpt lat="43.77547" lon="3.83941">
        <ele>407.3</ele>
        <time>2026-05-21T08:46:51.000Z</time>
      </trkpt>
      <trkpt lat="43.77547" lon="3.83941">
        <ele>407.5</ele>
        <time>2026-05-21T08:46:52.000Z</time>
      </trkpt>
      <trkpt lat="43.77548" lon="3.83941">
        <ele>407.8</ele>
        <time>2026-05-21T08:46:53.000Z</time>
      </trkpt>
      <trkpt lat="43.77548" lon="3.83941">
        <ele>408.7</ele>
        <time>2026-05-21T08:46:54.000Z</time>
      </trkpt>
      <trkpt lat="43.77548" lon="3.83941">
        <ele>408.7</ele>
        <time>2026-05-21T08:46:55.000Z</time>
      </trkpt>
      <trkpt lat="43.77548" lon="3.83941">
        <ele>408.7</ele>
        <time>2026-05-21T08:46:56.000Z</time>
      </trkpt>
      <trkpt lat="43.77548" lon="3.83941">
        <ele>408.6</ele>
        <time>2026-05-21T08:46:57.000Z</time>
      </trkpt>
      <trkpt lat="43.77548" lon="3.83941">
        <ele>408.6</ele>
        <time>2026-05-21T08:46:58.000Z</time>
      </trkpt>
      <trkpt lat="43.77547" lon="3.83941">
        <ele>408.7</ele>
        <time>2026-05-21T08:46:59.000Z</time>
      </trkpt>
      <trkpt lat="43.77547" lon="3.8394">
        <ele>408.6</ele>
        <time>2026-05-21T08:47:00.000Z</time>
      </trkpt>
      <trkpt lat="43.77547" lon="3.83939">
        <ele>408.6</ele>
        <time>2026-05-21T08:47:01.000Z</time>
      </trkpt>
      <trkpt lat="43.77546" lon="3.83937">
        <ele>408.6</ele>
        <time>2026-05-21T08:47:02.000Z</time>
      </trkpt>
      <trkpt lat="43.77545" lon="3.83935">
        <ele>408.5</ele>
        <time>2026-05-21T08:47:03.000Z</time>
      </trkpt>
      <trkpt lat="43.77545" lon="3.83935">
        <ele>408.8</ele>
        <time>2026-05-21T08:47:04.000Z</time>
      </trkpt>
      <trkpt lat="43.77545" lon="3.83934">
        <ele>408.9</ele>
        <time>2026-05-21T08:47:05.000Z</time>
      </trkpt>
      <trkpt lat="43.77545" lon="3.83934">
        <ele>409.1</ele>
        <time>2026-05-21T08:47:06.000Z</time>
      </trkpt>
      <trkpt lat="43.77545" lon="3.83934">
        <ele>409.1</ele>
        <time>2026-05-21T08:47:07.000Z</time>
      </trkpt>
      <trkpt lat="43.77545" lon="3.83933">
        <ele>408.8</ele>
        <time>2026-05-21T08:47:08.000Z</time>
      </trkpt>
      <trkpt lat="43.77545" lon="3.83933">
        <ele>408.8</ele>
        <time>2026-05-21T08:47:09.000Z</time>
      </trkpt>
      <trkpt lat="43.77545" lon="3.83933">
        <ele>408.7</ele>
        <time>2026-05-21T08:47:10.000Z</time>
      </trkpt>
      <trkpt lat="43.77545" lon="3.83933">
        <ele>408.7</ele>
        <time>2026-05-21T08:47:11.000Z</time>
      </trkpt>
      <trkpt lat="43.77545" lon="3.83933">
        <ele>408.9</ele>
        <time>2026-05-21T08:47:12.000Z</time>
      </trkpt>
      <trkpt lat="43.77545" lon="3.83933">
        <ele>409</ele>
        <time>2026-05-21T08:47:13.000Z</time>
      </trkpt>
      <trkpt lat="43.77545" lon="3.83933">
        <ele>409</ele>
        <time>2026-05-21T08:47:14.000Z</time>
      </trkpt>
      <trkpt lat="43.77545" lon="3.83933">
        <ele>409.6</ele>
        <time>2026-05-21T08:47:15.000Z</time>
      </trkpt>
      <trkpt lat="43.77546" lon="3.83932">
        <ele>409.8</ele>
        <time>2026-05-21T08:47:16.000Z</time>
      </trkpt>
      <trkpt lat="43.77546" lon="3.83932">
        <ele>409.7</ele>
        <time>2026-05-21T08:47:17.000Z</time>
      </trkpt>
      <trkpt lat="43.77546" lon="3.83932">
        <ele>409.6</ele>
        <time>2026-05-21T08:47:18.000Z</time>
      </trkpt>
      <trkpt lat="43.77546" lon="3.83931">
        <ele>409.5</ele>
        <time>2026-05-21T08:47:19.000Z</time>
      </trkpt>
      <trkpt lat="43.77546" lon="3.83931">
        <ele>409.4</ele>
        <time>2026-05-21T08:47:20.000Z</time>
      </trkpt>
      <trkpt lat="43.77546" lon="3.83931">
        <ele>409.7</ele>
        <time>2026-05-21T08:47:21.000Z</time>
      </trkpt>
      <trkpt lat="43.77546" lon="3.83931">
        <ele>410</ele>
        <time>2026-05-21T08:47:22.000Z</time>
      </trkpt>
      <trkpt lat="43.77546" lon="3.8393">
        <ele>410.1</ele>
        <time>2026-05-21T08:47:23.000Z</time>
      </trkpt>
      <trkpt lat="43.77546" lon="3.8393">
        <ele>410.1</ele>
        <time>2026-05-21T08:47:24.000Z</time>
      </trkpt>
      <trkpt lat="43.77546" lon="3.83929">
        <ele>410.1</ele>
        <time>2026-05-21T08:47:25.000Z</time>
      </trkpt>
      <trkpt lat="43.77546" lon="3.83927">
        <ele>410.6</ele>
        <time>2026-05-21T08:47:26.000Z</time>
      </trkpt>
      <trkpt lat="43.77546" lon="3.83926">
        <ele>410.5</ele>
        <time>2026-05-21T08:47:27.000Z</time>
      </trkpt>
      <trkpt lat="43.77546" lon="3.83924">
        <ele>410.4</ele>
        <time>2026-05-21T08:47:28.000Z</time>
      </trkpt>
      <trkpt lat="43.77546" lon="3.83922">
        <ele>410.2</ele>
        <time>2026-05-21T08:47:29.000Z</time>
      </trkpt>
      <trkpt lat="43.77546" lon="3.83921">
        <ele>410.2</ele>
        <time>2026-05-21T08:47:30.000Z</time>
      </trkpt>
      <trkpt lat="43.77546" lon="3.83919">
        <ele>410</ele>
        <time>2026-05-21T08:47:31.000Z</time>
      </trkpt>
      <trkpt lat="43.77546" lon="3.83918">
        <ele>409.4</ele>
        <time>2026-05-21T08:47:32.000Z</time>
      </trkpt>
      <trkpt lat="43.77546" lon="3.83917">
        <ele>409.5</ele>
        <time>2026-05-21T08:47:33.000Z</time>
      </trkpt>
      <trkpt lat="43.77546" lon="3.83917">
        <ele>409.4</ele>
        <time>2026-05-21T08:47:34.000Z</time>
      </trkpt>
      <trkpt lat="43.77547" lon="3.83917">
        <ele>409.5</ele>
        <time>2026-05-21T08:47:35.000Z</time>
      </trkpt>
      <trkpt lat="43.77547" lon="3.83916">
        <ele>409.5</ele>
        <time>2026-05-21T08:47:36.000Z</time>
      </trkpt>
      <trkpt lat="43.77548" lon="3.83914">
        <ele>409.3</ele>
        <time>2026-05-21T08:47:37.000Z</time>
      </trkpt>
      <trkpt lat="43.77548" lon="3.83912">
        <ele>408.9</ele>
        <time>2026-05-21T08:47:38.000Z</time>
      </trkpt>
      <trkpt lat="43.77548" lon="3.83912">
        <ele>409</ele>
        <time>2026-05-21T08:47:39.000Z</time>
      </trkpt>
      <trkpt lat="43.77549" lon="3.83912">
        <ele>409.1</ele>
        <time>2026-05-21T08:47:40.000Z</time>
      </trkpt>
      <trkpt lat="43.77549" lon="3.83912">
        <ele>409.3</ele>
        <time>2026-05-21T08:47:41.000Z</time>
      </trkpt>
      <trkpt lat="43.77549" lon="3.83912">
        <ele>409.3</ele>
        <time>2026-05-21T08:47:42.000Z</time>
      </trkpt>
      <trkpt lat="43.77549" lon="3.83912">
        <ele>409.4</ele>
        <time>2026-05-21T08:47:43.000Z</time>
      </trkpt>
      <trkpt lat="43.77549" lon="3.83912">
        <ele>409.4</ele>
        <time>2026-05-21T08:47:44.000Z</time>
      </trkpt>
      <trkpt lat="43.77549" lon="3.83912">
        <ele>409.3</ele>
        <time>2026-05-21T08:47:45.000Z</time>
      </trkpt>
      <trkpt lat="43.77549" lon="3.83912">
        <ele>409.1</ele>
        <time>2026-05-21T08:47:46.000Z</time>
      </trkpt>
      <trkpt lat="43.77549" lon="3.83912">
        <ele>409.2</ele>
        <time>2026-05-21T08:47:47.000Z</time>
      </trkpt>
      <trkpt lat="43.7755" lon="3.8391">
        <ele>408.9</ele>
        <time>2026-05-21T08:47:48.000Z</time>
      </trkpt>
      <trkpt lat="43.77551" lon="3.83908">
        <ele>408.9</ele>
        <time>2026-05-21T08:47:49.000Z</time>
      </trkpt>
      <trkpt lat="43.77551" lon="3.83906">
        <ele>409</ele>
        <time>2026-05-21T08:47:50.000Z</time>
      </trkpt>
      <trkpt lat="43.77551" lon="3.83905">
        <ele>408.9</ele>
        <time>2026-05-21T08:47:51.000Z</time>
      </trkpt>
      <trkpt lat="43.77551" lon="3.83904">
        <ele>409.1</ele>
        <time>2026-05-21T08:47:52.000Z</time>
      </trkpt>
      <trkpt lat="43.77552" lon="3.83904">
        <ele>409.2</ele>
        <time>2026-05-21T08:47:53.000Z</time>
      </trkpt>
      <trkpt lat="43.77552" lon="3.83904">
        <ele>409</ele>
        <time>2026-05-21T08:47:54.000Z</time>
      </trkpt>
      <trkpt lat="43.77553" lon="3.83905">
        <ele>408.8</ele>
        <time>2026-05-21T08:47:55.000Z</time>
      </trkpt>
      <trkpt lat="43.77554" lon="3.83906">
        <ele>408.9</ele>
        <time>2026-05-21T08:47:56.000Z</time>
      </trkpt>
      <trkpt lat="43.77555" lon="3.83907">
        <ele>409</ele>
        <time>2026-05-21T08:47:57.000Z</time>
      </trkpt>
      <trkpt lat="43.77556" lon="3.83907">
        <ele>409</ele>
        <time>2026-05-21T08:47:58.000Z</time>
      </trkpt>
      <trkpt lat="43.77556" lon="3.83907">
        <ele>409.2</ele>
        <time>2026-05-21T08:47:59.000Z</time>
      </trkpt>
      <trkpt lat="43.77556" lon="3.83907">
        <ele>409.4</ele>
        <time>2026-05-21T08:48:00.000Z</time>
      </trkpt>
      <trkpt lat="43.77556" lon="3.83907">
        <ele>409.5</ele>
        <time>2026-05-21T08:48:01.000Z</time>
      </trkpt>
      <trkpt lat="43.77556" lon="3.83907">
        <ele>409.6</ele>
        <time>2026-05-21T08:48:02.000Z</time>
      </trkpt>
      <trkpt lat="43.77556" lon="3.83907">
        <ele>409.6</ele>
        <time>2026-05-21T08:48:03.000Z</time>
      </trkpt>
      <trkpt lat="43.77556" lon="3.83907">
        <ele>409.6</ele>
        <time>2026-05-21T08:48:04.000Z</time>
      </trkpt>
      <trkpt lat="43.77556" lon="3.83907">
        <ele>409.6</ele>
        <time>2026-05-21T08:48:05.000Z</time>
      </trkpt>
      <trkpt lat="43.77556" lon="3.83907">
        <ele>409.7</ele>
        <time>2026-05-21T08:48:06.000Z</time>
      </trkpt>
      <trkpt lat="43.77556" lon="3.83907">
        <ele>410</ele>
        <time>2026-05-21T08:48:07.000Z</time>
      </trkpt>
      <trkpt lat="43.77556" lon="3.83907">
        <ele>410.6</ele>
        <time>2026-05-21T08:48:08.000Z</time>
      </trkpt>
      <trkpt lat="43.77556" lon="3.83907">
        <ele>410.8</ele>
        <time>2026-05-21T08:48:09.000Z</time>
      </trkpt>
      <trkpt lat="43.77556" lon="3.83906">
        <ele>410.9</ele>
        <time>2026-05-21T08:48:10.000Z</time>
      </trkpt>
      <trkpt lat="43.77556" lon="3.83906">
        <ele>410.9</ele>
        <time>2026-05-21T08:48:11.000Z</time>
      </trkpt>
      <trkpt lat="43.77556" lon="3.83906">
        <ele>411</ele>
        <time>2026-05-21T08:48:12.000Z</time>
      </trkpt>
      <trkpt lat="43.77556" lon="3.83906">
        <ele>411.2</ele>
        <time>2026-05-21T08:48:13.000Z</time>
      </trkpt>
      <trkpt lat="43.77556" lon="3.83906">
        <ele>411.6</ele>
        <time>2026-05-21T08:48:14.000Z</time>
      </trkpt>
      <trkpt lat="43.77556" lon="3.83905">
        <ele>411.4</ele>
        <time>2026-05-21T08:48:15.000Z</time>
      </trkpt>
      <trkpt lat="43.77556" lon="3.83905">
        <ele>411.5</ele>
        <time>2026-05-21T08:48:16.000Z</time>
      </trkpt>
      <trkpt lat="43.77556" lon="3.83905">
        <ele>411.5</ele>
        <time>2026-05-21T08:48:17.000Z</time>
      </trkpt>
      <trkpt lat="43.77556" lon="3.83905">
        <ele>411.6</ele>
        <time>2026-05-21T08:48:18.000Z</time>
      </trkpt>
      <trkpt lat="43.77556" lon="3.83905">
        <ele>411.4</ele>
        <time>2026-05-21T08:48:19.000Z</time>
      </trkpt>
      <trkpt lat="43.77556" lon="3.83905">
        <ele>411.3</ele>
        <time>2026-05-21T08:48:20.000Z</time>
      </trkpt>
      <trkpt lat="43.77556" lon="3.83905">
        <ele>411.4</ele>
        <time>2026-05-21T08:48:21.000Z</time>
      </trkpt>
      <trkpt lat="43.77556" lon="3.83905">
        <ele>411.6</ele>
        <time>2026-05-21T08:48:22.000Z</time>
      </trkpt>
      <trkpt lat="43.77556" lon="3.83905">
        <ele>411.6</ele>
        <time>2026-05-21T08:48:23.000Z</time>
      </trkpt>
      <trkpt lat="43.77556" lon="3.83905">
        <ele>412.6</ele>
        <time>2026-05-21T08:48:24.000Z</time>
      </trkpt>
      <trkpt lat="43.77556" lon="3.83905">
        <ele>413.3</ele>
        <time>2026-05-21T08:48:25.000Z</time>
      </trkpt>
      <trkpt lat="43.77556" lon="3.83905">
        <ele>413.9</ele>
        <time>2026-05-21T08:48:26.000Z</time>
      </trkpt>
      <trkpt lat="43.77556" lon="3.83905">
        <ele>414.3</ele>
        <time>2026-05-21T08:48:27.000Z</time>
      </trkpt>
      <trkpt lat="43.77556" lon="3.83905">
        <ele>414.8</ele>
        <time>2026-05-21T08:48:28.000Z</time>
      </trkpt>
      <trkpt lat="43.77556" lon="3.83905">
        <ele>415</ele>
        <time>2026-05-21T08:48:29.000Z</time>
      </trkpt>
      <trkpt lat="43.77556" lon="3.83905">
        <ele>415.1</ele>
        <time>2026-05-21T08:48:30.000Z</time>
      </trkpt>
      <trkpt lat="43.77556" lon="3.83906">
        <ele>415.1</ele>
        <time>2026-05-21T08:48:31.000Z</time>
      </trkpt>
      <trkpt lat="43.77556" lon="3.83906">
        <ele>415.2</ele>
        <time>2026-05-21T08:48:32.000Z</time>
      </trkpt>
      <trkpt lat="43.77556" lon="3.83906">
        <ele>415.3</ele>
        <time>2026-05-21T08:48:33.000Z</time>
      </trkpt>
      <trkpt lat="43.77556" lon="3.83906">
        <ele>415.6</ele>
        <time>2026-05-21T08:48:34.000Z</time>
      </trkpt>
      <trkpt lat="43.77556" lon="3.83905">
        <ele>415.9</ele>
        <time>2026-05-21T08:48:35.000Z</time>
      </trkpt>
      <trkpt lat="43.77556" lon="3.83906">
        <ele>415.9</ele>
        <time>2026-05-21T08:48:36.000Z</time>
      </trkpt>
      <trkpt lat="43.77556" lon="3.83905">
        <ele>416.1</ele>
        <time>2026-05-21T08:48:37.000Z</time>
      </trkpt>
      <trkpt lat="43.77556" lon="3.83905">
        <ele>416.3</ele>
        <time>2026-05-21T08:48:38.000Z</time>
      </trkpt>
      <trkpt lat="43.77556" lon="3.83905">
        <ele>416.4</ele>
        <time>2026-05-21T08:48:39.000Z</time>
      </trkpt>
      <trkpt lat="43.77556" lon="3.83905">
        <ele>416.6</ele>
        <time>2026-05-21T08:48:40.000Z</time>
      </trkpt>
      <trkpt lat="43.77556" lon="3.83906">
        <ele>417</ele>
        <time>2026-05-21T08:48:41.000Z</time>
      </trkpt>
      <trkpt lat="43.77556" lon="3.83906">
        <ele>417.3</ele>
        <time>2026-05-21T08:48:42.000Z</time>
      </trkpt>
      <trkpt lat="43.77556" lon="3.83906">
        <ele>417.7</ele>
        <time>2026-05-21T08:48:43.000Z</time>
      </trkpt>
      <trkpt lat="43.77556" lon="3.83906">
        <ele>417.8</ele>
        <time>2026-05-21T08:48:44.000Z</time>
      </trkpt>
      <trkpt lat="43.77556" lon="3.83905">
        <ele>418</ele>
        <time>2026-05-21T08:48:45.000Z</time>
      </trkpt>
      <trkpt lat="43.77556" lon="3.83905">
        <ele>418.2</ele>
        <time>2026-05-21T08:48:46.000Z</time>
      </trkpt>
      <trkpt lat="43.77556" lon="3.83905">
        <ele>418.3</ele>
        <time>2026-05-21T08:48:48.000Z</time>
      </trkpt>
      <trkpt lat="43.77556" lon="3.83905">
        <ele>418.3</ele>
        <time>2026-05-21T08:48:49.000Z</time>
      </trkpt>
      <trkpt lat="43.77556" lon="3.83905">
        <ele>418.2</ele>
        <time>2026-05-21T08:48:50.000Z</time>
      </trkpt>
      <trkpt lat="43.77556" lon="3.83905">
        <ele>418</ele>
        <time>2026-05-21T08:48:51.000Z</time>
      </trkpt>
      <trkpt lat="43.77556" lon="3.83905">
        <ele>417.7</ele>
        <time>2026-05-21T08:48:52.000Z</time>
      </trkpt>
      <trkpt lat="43.77556" lon="3.83905">
        <ele>417.6</ele>
        <time>2026-05-21T08:48:53.000Z</time>
      </trkpt>
      <trkpt lat="43.77556" lon="3.83905">
        <ele>417.5</ele>
        <time>2026-05-21T08:48:54.000Z</time>
      </trkpt>
      <trkpt lat="43.77556" lon="3.83906">
        <ele>417.4</ele>
        <time>2026-05-21T08:48:55.000Z</time>
      </trkpt>
      <trkpt lat="43.77556" lon="3.83906">
        <ele>417.6</ele>
        <time>2026-05-21T08:48:56.000Z</time>
      </trkpt>
      <trkpt lat="43.77556" lon="3.83906">
        <ele>417.6</ele>
        <time>2026-05-21T08:48:57.000Z</time>
      </trkpt>
      <trkpt lat="43.77556" lon="3.83906">
        <ele>417.6</ele>
        <time>2026-05-21T08:48:58.000Z</time>
      </trkpt>
      <trkpt lat="43.77556" lon="3.83906">
        <ele>417.7</ele>
        <time>2026-05-21T08:48:59.000Z</time>
      </trkpt>
      <trkpt lat="43.77556" lon="3.83906">
        <ele>417.6</ele>
        <time>2026-05-21T08:49:00.000Z</time>
      </trkpt>
      <trkpt lat="43.77556" lon="3.83906">
        <ele>417.5</ele>
        <time>2026-05-21T08:49:01.000Z</time>
      </trkpt>
      <trkpt lat="43.77556" lon="3.83906">
        <ele>417.2</ele>
        <time>2026-05-21T08:49:02.000Z</time>
      </trkpt>
      <trkpt lat="43.77556" lon="3.83906">
        <ele>416.8</ele>
        <time>2026-05-21T08:49:03.000Z</time>
      </trkpt>
      <trkpt lat="43.77556" lon="3.83906">
        <ele>416.5</ele>
        <time>2026-05-21T08:49:04.000Z</time>
      </trkpt>
      <trkpt lat="43.77556" lon="3.83906">
        <ele>416.2</ele>
        <time>2026-05-21T08:49:05.000Z</time>
      </trkpt>
      <trkpt lat="43.77556" lon="3.83906">
        <ele>416.2</ele>
        <time>2026-05-21T08:49:06.000Z</time>
      </trkpt>
      <trkpt lat="43.77556" lon="3.83905">
        <ele>416.1</ele>
        <time>2026-05-21T08:49:07.000Z</time>
      </trkpt>
      <trkpt lat="43.77556" lon="3.83905">
        <ele>416.1</ele>
        <time>2026-05-21T08:49:08.000Z</time>
      </trkpt>
      <trkpt lat="43.77556" lon="3.83906">
        <ele>416</ele>
        <time>2026-05-21T08:49:09.000Z</time>
      </trkpt>
      <trkpt lat="43.77556" lon="3.83906">
        <ele>415.8</ele>
        <time>2026-05-21T08:49:10.000Z</time>
      </trkpt>
      <trkpt lat="43.77556" lon="3.83906">
        <ele>415.7</ele>
        <time>2026-05-21T08:49:11.000Z</time>
      </trkpt>
      <trkpt lat="43.77556" lon="3.83906">
        <ele>415.7</ele>
        <time>2026-05-21T08:49:12.000Z</time>
      </trkpt>
      <trkpt lat="43.77556" lon="3.83906">
        <ele>415.8</ele>
        <time>2026-05-21T08:49:13.000Z</time>
      </trkpt>
      <trkpt lat="43.77556" lon="3.83906">
        <ele>415.9</ele>
        <time>2026-05-21T08:49:14.000Z</time>
      </trkpt>
      <trkpt lat="43.77556" lon="3.83906">
        <ele>416</ele>
        <time>2026-05-21T08:49:15.000Z</time>
      </trkpt>
      <trkpt lat="43.77556" lon="3.83906">
        <ele>416.3</ele>
        <time>2026-05-21T08:49:16.000Z</time>
      </trkpt>
      <trkpt lat="43.77556" lon="3.83906">
        <ele>416.3</ele>
        <time>2026-05-21T08:49:17.000Z</time>
      </trkpt>
      <trkpt lat="43.77556" lon="3.83906">
        <ele>416.5</ele>
        <time>2026-05-21T08:49:18.000Z</time>
      </trkpt>
      <trkpt lat="43.77556" lon="3.83906">
        <ele>416.8</ele>
        <time>2026-05-21T08:49:19.000Z</time>
      </trkpt>
      <trkpt lat="43.77557" lon="3.83906">
        <ele>416.8</ele>
        <time>2026-05-21T08:49:20.000Z</time>
      </trkpt>
      <trkpt lat="43.77557" lon="3.83906">
        <ele>416.7</ele>
        <time>2026-05-21T08:49:21.000Z</time>
      </trkpt>
      <trkpt lat="43.77557" lon="3.83906">
        <ele>416.5</ele>
        <time>2026-05-21T08:49:22.000Z</time>
      </trkpt>
      <trkpt lat="43.77556" lon="3.83905">
        <ele>416.5</ele>
        <time>2026-05-21T08:49:23.000Z</time>
      </trkpt>
      <trkpt lat="43.77556" lon="3.83906">
        <ele>416</ele>
        <time>2026-05-21T08:49:25.000Z</time>
      </trkpt>
      <trkpt lat="43.77556" lon="3.83906">
        <ele>415.9</ele>
        <time>2026-05-21T08:49:26.000Z</time>
      </trkpt>
      <trkpt lat="43.77556" lon="3.83906">
        <ele>415.9</ele>
        <time>2026-05-21T08:49:27.000Z</time>
      </trkpt>
      <trkpt lat="43.77556" lon="3.83906">
        <ele>415.8</ele>
        <time>2026-05-21T08:49:28.000Z</time>
      </trkpt>
      <trkpt lat="43.77556" lon="3.83906">
        <ele>416</ele>
        <time>2026-05-21T08:49:29.000Z</time>
      </trkpt>
      <trkpt lat="43.77556" lon="3.83906">
        <ele>416</ele>
        <time>2026-05-21T08:49:30.000Z</time>
      </trkpt>
      <trkpt lat="43.77556" lon="3.83906">
        <ele>416.1</ele>
        <time>2026-05-21T08:49:31.000Z</time>
      </trkpt>
      <trkpt lat="43.77556" lon="3.83906">
        <ele>416</ele>
        <time>2026-05-21T08:49:32.000Z</time>
      </trkpt>
      <trkpt lat="43.77556" lon="3.83906">
        <ele>415.6</ele>
        <time>2026-05-21T08:49:33.000Z</time>
      </trkpt>
      <trkpt lat="43.77556" lon="3.83906">
        <ele>415.3</ele>
        <time>2026-05-21T08:49:34.000Z</time>
      </trkpt>
      <trkpt lat="43.77556" lon="3.83906">
        <ele>414.9</ele>
        <time>2026-05-21T08:49:35.000Z</time>
      </trkpt>
      <trkpt lat="43.77556" lon="3.83906">
        <ele>414.9</ele>
        <time>2026-05-21T08:49:36.000Z</time>
      </trkpt>
      <trkpt lat="43.77556" lon="3.83906">
        <ele>415</ele>
        <time>2026-05-21T08:49:37.000Z</time>
      </trkpt>
      <trkpt lat="43.77556" lon="3.83906">
        <ele>414.8</ele>
        <time>2026-05-21T08:49:38.000Z</time>
      </trkpt>
      <trkpt lat="43.77556" lon="3.83906">
        <ele>414.9</ele>
        <time>2026-05-21T08:49:39.000Z</time>
      </trkpt>
      <trkpt lat="43.77556" lon="3.83906">
        <ele>414.8</ele>
        <time>2026-05-21T08:49:40.000Z</time>
      </trkpt>
      <trkpt lat="43.77556" lon="3.83906">
        <ele>414.5</ele>
        <time>2026-05-21T08:49:41.000Z</time>
      </trkpt>
      <trkpt lat="43.77556" lon="3.83906">
        <ele>414.5</ele>
        <time>2026-05-21T08:49:42.000Z</time>
      </trkpt>
      <trkpt lat="43.77556" lon="3.83906">
        <ele>414.4</ele>
        <time>2026-05-21T08:49:43.000Z</time>
      </trkpt>
      <trkpt lat="43.77556" lon="3.83906">
        <ele>414.5</ele>
        <time>2026-05-21T08:49:44.000Z</time>
      </trkpt>
      <trkpt lat="43.77556" lon="3.83906">
        <ele>414.4</ele>
        <time>2026-05-21T08:49:45.000Z</time>
      </trkpt>
      <trkpt lat="43.77556" lon="3.83906">
        <ele>414.3</ele>
        <time>2026-05-21T08:49:46.000Z</time>
      </trkpt>
      <trkpt lat="43.77556" lon="3.83906">
        <ele>414.3</ele>
        <time>2026-05-21T08:49:47.000Z</time>
      </trkpt>
      <trkpt lat="43.77556" lon="3.83905">
        <ele>414.3</ele>
        <time>2026-05-21T08:49:48.000Z</time>
      </trkpt>
      <trkpt lat="43.77556" lon="3.83905">
        <ele>414.7</ele>
        <time>2026-05-21T08:49:49.000Z</time>
      </trkpt>
      <trkpt lat="43.77556" lon="3.83905">
        <ele>414.9</ele>
        <time>2026-05-21T08:49:50.000Z</time>
      </trkpt>
      <trkpt lat="43.77556" lon="3.83905">
        <ele>415.2</ele>
        <time>2026-05-21T08:49:51.000Z</time>
      </trkpt>
      <trkpt lat="43.77556" lon="3.83905">
        <ele>415.6</ele>
        <time>2026-05-21T08:49:52.000Z</time>
      </trkpt>
      <trkpt lat="43.77557" lon="3.83905">
        <ele>415.8</ele>
        <time>2026-05-21T08:49:53.999Z</time>
      </trkpt>
      <trkpt lat="43.77557" lon="3.83905">
        <ele>415.9</ele>
        <time>2026-05-21T08:49:54.999Z</time>
      </trkpt>
      <trkpt lat="43.77557" lon="3.83905">
        <ele>416</ele>
        <time>2026-05-21T08:49:55.999Z</time>
      </trkpt>
      <trkpt lat="43.77557" lon="3.83905">
        <ele>416.2</ele>
        <time>2026-05-21T08:49:56.999Z</time>
      </trkpt>
      <trkpt lat="43.77557" lon="3.83905">
        <ele>416.6</ele>
        <time>2026-05-21T08:49:57.999Z</time>
      </trkpt>
      <trkpt lat="43.77557" lon="3.83905">
        <ele>416.9</ele>
        <time>2026-05-21T08:49:58.999Z</time>
      </trkpt>
      <trkpt lat="43.77557" lon="3.83905">
        <ele>417.2</ele>
        <time>2026-05-21T08:49:59.999Z</time>
      </trkpt>
      <trkpt lat="43.77557" lon="3.83905">
        <ele>417.7</ele>
        <time>2026-05-21T08:50:00.999Z</time>
      </trkpt>
      <trkpt lat="43.77557" lon="3.83905">
        <ele>418</ele>
        <time>2026-05-21T08:50:01.999Z</time>
      </trkpt>
      <trkpt lat="43.77557" lon="3.83905">
        <ele>418.5</ele>
        <time>2026-05-21T08:50:02.999Z</time>
      </trkpt>
      <trkpt lat="43.77557" lon="3.83905">
        <ele>418.6</ele>
        <time>2026-05-21T08:50:03.999Z</time>
      </trkpt>
      <trkpt lat="43.77557" lon="3.83905">
        <ele>418.4</ele>
        <time>2026-05-21T08:50:04.999Z</time>
      </trkpt>
      <trkpt lat="43.77557" lon="3.83905">
        <ele>418.2</ele>
        <time>2026-05-21T08:50:05.999Z</time>
      </trkpt>
      <trkpt lat="43.77557" lon="3.83905">
        <ele>417.7</ele>
        <time>2026-05-21T08:50:06.999Z</time>
      </trkpt>
      <trkpt lat="43.77557" lon="3.83905">
        <ele>417.5</ele>
        <time>2026-05-21T08:50:07.999Z</time>
      </trkpt>
      <trkpt lat="43.77557" lon="3.83905">
        <ele>417.1</ele>
        <time>2026-05-21T08:50:08.999Z</time>
      </trkpt>
      <trkpt lat="43.77557" lon="3.83905">
        <ele>417.1</ele>
        <time>2026-05-21T08:50:09.999Z</time>
      </trkpt>
      <trkpt lat="43.77557" lon="3.83904">
        <ele>417</ele>
        <time>2026-05-21T08:50:10.999Z</time>
      </trkpt>
      <trkpt lat="43.77557" lon="3.83904">
        <ele>417</ele>
        <time>2026-05-21T08:50:11.999Z</time>
      </trkpt>
      <trkpt lat="43.77557" lon="3.83904">
        <ele>417.1</ele>
        <time>2026-05-21T08:50:12.999Z</time>
      </trkpt>
      <trkpt lat="43.77557" lon="3.83904">
        <ele>417</ele>
        <time>2026-05-21T08:50:13.999Z</time>
      </trkpt>
      <trkpt lat="43.77557" lon="3.83904">
        <ele>416.8</ele>
        <time>2026-05-21T08:50:14.999Z</time>
      </trkpt>
      <trkpt lat="43.77557" lon="3.83905">
        <ele>416.8</ele>
        <time>2026-05-21T08:50:15.999Z</time>
      </trkpt>
      <trkpt lat="43.77556" lon="3.83906">
        <ele>416.7</ele>
        <time>2026-05-21T08:50:16.999Z</time>
      </trkpt>
      <trkpt lat="43.77556" lon="3.83905">
        <ele>416.6</ele>
        <time>2026-05-21T08:50:17.999Z</time>
      </trkpt>
      <trkpt lat="43.77556" lon="3.83906">
        <ele>416.5</ele>
        <time>2026-05-21T08:50:18.999Z</time>
      </trkpt>
      <trkpt lat="43.77557" lon="3.83906">
        <ele>416.7</ele>
        <time>2026-05-21T08:50:19.999Z</time>
      </trkpt>
      <trkpt lat="43.77557" lon="3.83905">
        <ele>417.3</ele>
        <time>2026-05-21T08:50:20.999Z</time>
      </trkpt>
      <trkpt lat="43.77557" lon="3.83905">
        <ele>417.4</ele>
        <time>2026-05-21T08:50:21.999Z</time>
      </trkpt>
      <trkpt lat="43.77557" lon="3.83905">
        <ele>417.9</ele>
        <time>2026-05-21T08:50:22.999Z</time>
      </trkpt>
      <trkpt lat="43.77557" lon="3.83905">
        <ele>418.5</ele>
        <time>2026-05-21T08:50:23.999Z</time>
      </trkpt>
      <trkpt lat="43.77557" lon="3.83905">
        <ele>419.2</ele>
        <time>2026-05-21T08:50:24.999Z</time>
      </trkpt>
      <trkpt lat="43.77557" lon="3.83905">
        <ele>419.6</ele>
        <time>2026-05-21T08:50:25.999Z</time>
      </trkpt>
      <trkpt lat="43.77557" lon="3.83905">
        <ele>419.5</ele>
        <time>2026-05-21T08:50:26.999Z</time>
      </trkpt>
      <trkpt lat="43.77557" lon="3.83905">
        <ele>419.2</ele>
        <time>2026-05-21T08:50:27.999Z</time>
      </trkpt>
      <trkpt lat="43.77557" lon="3.83905">
        <ele>419.1</ele>
        <time>2026-05-21T08:50:28.999Z</time>
      </trkpt>
      <trkpt lat="43.77557" lon="3.83905">
        <ele>419.3</ele>
        <time>2026-05-21T08:50:29.999Z</time>
      </trkpt>
      <trkpt lat="43.77557" lon="3.83905">
        <ele>419.5</ele>
        <time>2026-05-21T08:50:30.999Z</time>
      </trkpt>
      <trkpt lat="43.77557" lon="3.83905">
        <ele>419.6</ele>
        <time>2026-05-21T08:50:31.999Z</time>
      </trkpt>
      <trkpt lat="43.77557" lon="3.83905">
        <ele>419.8</ele>
        <time>2026-05-21T08:50:32.999Z</time>
      </trkpt>
      <trkpt lat="43.77557" lon="3.83905">
        <ele>419.7</ele>
        <time>2026-05-21T08:50:33.999Z</time>
      </trkpt>
      <trkpt lat="43.77557" lon="3.83905">
        <ele>419.7</ele>
        <time>2026-05-21T08:50:34.999Z</time>
      </trkpt>
      <trkpt lat="43.77557" lon="3.83905">
        <ele>419.8</ele>
        <time>2026-05-21T08:50:35.999Z</time>
      </trkpt>
      <trkpt lat="43.77558" lon="3.83905">
        <ele>419.9</ele>
        <time>2026-05-21T08:50:36.999Z</time>
      </trkpt>
      <trkpt lat="43.77558" lon="3.83905">
        <ele>420.1</ele>
        <time>2026-05-21T08:50:37.999Z</time>
      </trkpt>
      <trkpt lat="43.77558" lon="3.83906">
        <ele>420.5</ele>
        <time>2026-05-21T08:50:38.999Z</time>
      </trkpt>
      <trkpt lat="43.77558" lon="3.83906">
        <ele>420.9</ele>
        <time>2026-05-21T08:50:39.999Z</time>
      </trkpt>
      <trkpt lat="43.77558" lon="3.83906">
        <ele>421</ele>
        <time>2026-05-21T08:50:40.999Z</time>
      </trkpt>
      <trkpt lat="43.77558" lon="3.83906">
        <ele>421</ele>
        <time>2026-05-21T08:50:41.999Z</time>
      </trkpt>
      <trkpt lat="43.77558" lon="3.83906">
        <ele>420.9</ele>
        <time>2026-05-21T08:50:42.999Z</time>
      </trkpt>
      <trkpt lat="43.77558" lon="3.83906">
        <ele>420.8</ele>
        <time>2026-05-21T08:50:43.999Z</time>
      </trkpt>
      <trkpt lat="43.77558" lon="3.83906">
        <ele>420.9</ele>
        <time>2026-05-21T08:50:44.999Z</time>
      </trkpt>
      <trkpt lat="43.77558" lon="3.83906">
        <ele>420.8</ele>
        <time>2026-05-21T08:50:45.999Z</time>
      </trkpt>
      <trkpt lat="43.77558" lon="3.83906">
        <ele>420.8</ele>
        <time>2026-05-21T08:50:46.999Z</time>
      </trkpt>
      <trkpt lat="43.77558" lon="3.83906">
        <ele>420.8</ele>
        <time>2026-05-21T08:50:47.999Z</time>
      </trkpt>
      <trkpt lat="43.77558" lon="3.83905">
        <ele>420.8</ele>
        <time>2026-05-21T08:50:48.999Z</time>
      </trkpt>
      <trkpt lat="43.77558" lon="3.83905">
        <ele>420.8</ele>
        <time>2026-05-21T08:50:49.999Z</time>
      </trkpt>
      <trkpt lat="43.77558" lon="3.83905">
        <ele>420.6</ele>
        <time>2026-05-21T08:50:50.999Z</time>
      </trkpt>
      <trkpt lat="43.77558" lon="3.83906">
        <ele>420.6</ele>
        <time>2026-05-21T08:50:51.999Z</time>
      </trkpt>
      <trkpt lat="43.77558" lon="3.83906">
        <ele>420.5</ele>
        <time>2026-05-21T08:50:52.999Z</time>
      </trkpt>
      <trkpt lat="43.77558" lon="3.83906">
        <ele>420.3</ele>
        <time>2026-05-21T08:50:53.999Z</time>
      </trkpt>
      <trkpt lat="43.77558" lon="3.83906">
        <ele>420.4</ele>
        <time>2026-05-21T08:50:54.999Z</time>
      </trkpt>
      <trkpt lat="43.77557" lon="3.83906">
        <ele>420.4</ele>
        <time>2026-05-21T08:50:55.999Z</time>
      </trkpt>
      <trkpt lat="43.77556" lon="3.83907">
        <ele>420.6</ele>
        <time>2026-05-21T08:50:56.999Z</time>
      </trkpt>
      <trkpt lat="43.77556" lon="3.83906">
        <ele>420.6</ele>
        <time>2026-05-21T08:50:57.999Z</time>
      </trkpt>
      <trkpt lat="43.77555" lon="3.83906">
        <ele>420.5</ele>
        <time>2026-05-21T08:50:58.999Z</time>
      </trkpt>
      <trkpt lat="43.77554" lon="3.83906">
        <ele>420.4</ele>
        <time>2026-05-21T08:50:59.999Z</time>
      </trkpt>
      <trkpt lat="43.77554" lon="3.83906">
        <ele>420.5</ele>
        <time>2026-05-21T08:51:00.999Z</time>
      </trkpt>
      <trkpt lat="43.77553" lon="3.83907">
        <ele>420.7</ele>
        <time>2026-05-21T08:51:01.999Z</time>
      </trkpt>
      <trkpt lat="43.77553" lon="3.83907">
        <ele>419.7</ele>
        <time>2026-05-21T08:51:02.999Z</time>
      </trkpt>
      <trkpt lat="43.77553" lon="3.83907">
        <ele>419.7</ele>
        <time>2026-05-21T08:51:03.999Z</time>
      </trkpt>
      <trkpt lat="43.77553" lon="3.83907">
        <ele>419.8</ele>
        <time>2026-05-21T08:51:04.999Z</time>
      </trkpt>
      <trkpt lat="43.77553" lon="3.83907">
        <ele>419.9</ele>
        <time>2026-05-21T08:51:05.999Z</time>
      </trkpt>
      <trkpt lat="43.77553" lon="3.83907">
        <ele>420.2</ele>
        <time>2026-05-21T08:51:06.999Z</time>
      </trkpt>
      <trkpt lat="43.77553" lon="3.83907">
        <ele>420.3</ele>
        <time>2026-05-21T08:51:07.999Z</time>
      </trkpt>
      <trkpt lat="43.77554" lon="3.83908">
        <ele>420.2</ele>
        <time>2026-05-21T08:51:08.999Z</time>
      </trkpt>
      <trkpt lat="43.77554" lon="3.83908">
        <ele>420.1</ele>
        <time>2026-05-21T08:51:09.999Z</time>
      </trkpt>
      <trkpt lat="43.77554" lon="3.83908">
        <ele>420</ele>
        <time>2026-05-21T08:51:10.999Z</time>
      </trkpt>
      <trkpt lat="43.77554" lon="3.83908">
        <ele>420.1</ele>
        <time>2026-05-21T08:51:11.999Z</time>
      </trkpt>
      <trkpt lat="43.77554" lon="3.83908">
        <ele>419.9</ele>
        <time>2026-05-21T08:51:12.999Z</time>
      </trkpt>
      <trkpt lat="43.77554" lon="3.83908">
        <ele>419.7</ele>
        <time>2026-05-21T08:51:13.999Z</time>
      </trkpt>
      <trkpt lat="43.77554" lon="3.83908">
        <ele>419.6</ele>
        <time>2026-05-21T08:51:14.999Z</time>
      </trkpt>
      <trkpt lat="43.77554" lon="3.83908">
        <ele>419.5</ele>
        <time>2026-05-21T08:51:15.999Z</time>
      </trkpt>
      <trkpt lat="43.77554" lon="3.83908">
        <ele>419.4</ele>
        <time>2026-05-21T08:51:16.999Z</time>
      </trkpt>
      <trkpt lat="43.77554" lon="3.83909">
        <ele>419.4</ele>
        <time>2026-05-21T08:51:17.999Z</time>
      </trkpt>
      <trkpt lat="43.77554" lon="3.83909">
        <ele>419.4</ele>
        <time>2026-05-21T08:51:18.999Z</time>
      </trkpt>
      <trkpt lat="43.77554" lon="3.83909">
        <ele>419.4</ele>
        <time>2026-05-21T08:51:19.999Z</time>
      </trkpt>
      <trkpt lat="43.77554" lon="3.83909">
        <ele>419.3</ele>
        <time>2026-05-21T08:51:20.999Z</time>
      </trkpt>
      <trkpt lat="43.77554" lon="3.83909">
        <ele>419.2</ele>
        <time>2026-05-21T08:51:21.999Z</time>
      </trkpt>
      <trkpt lat="43.77554" lon="3.83909">
        <ele>419.2</ele>
        <time>2026-05-21T08:51:22.999Z</time>
      </trkpt>
      <trkpt lat="43.77554" lon="3.83909">
        <ele>419.3</ele>
        <time>2026-05-21T08:51:23.999Z</time>
      </trkpt>
      <trkpt lat="43.77554" lon="3.83909">
        <ele>419.4</ele>
        <time>2026-05-21T08:51:24.999Z</time>
      </trkpt>
      <trkpt lat="43.77554" lon="3.83909">
        <ele>419.5</ele>
        <time>2026-05-21T08:51:25.999Z</time>
      </trkpt>
      <trkpt lat="43.77554" lon="3.83909">
        <ele>419.4</ele>
        <time>2026-05-21T08:51:26.999Z</time>
      </trkpt>
      <trkpt lat="43.77554" lon="3.83909">
        <ele>419.3</ele>
        <time>2026-05-21T08:51:27.999Z</time>
      </trkpt>
      <trkpt lat="43.77554" lon="3.83909">
        <ele>418.8</ele>
        <time>2026-05-21T08:51:28.999Z</time>
      </trkpt>
      <trkpt lat="43.77554" lon="3.83909">
        <ele>418.5</ele>
        <time>2026-05-21T08:51:29.999Z</time>
      </trkpt>
      <trkpt lat="43.77554" lon="3.83909">
        <ele>418.3</ele>
        <time>2026-05-21T08:51:30.999Z</time>
      </trkpt>
      <trkpt lat="43.77554" lon="3.83909">
        <ele>418.2</ele>
        <time>2026-05-21T08:51:31.999Z</time>
      </trkpt>
      <trkpt lat="43.77554" lon="3.83909">
        <ele>418.2</ele>
        <time>2026-05-21T08:51:32.999Z</time>
      </trkpt>
      <trkpt lat="43.77554" lon="3.83909">
        <ele>418</ele>
        <time>2026-05-21T08:51:33.999Z</time>
      </trkpt>
      <trkpt lat="43.77554" lon="3.83909">
        <ele>417.8</ele>
        <time>2026-05-21T08:51:34.999Z</time>
      </trkpt>
      <trkpt lat="43.77554" lon="3.83909">
        <ele>417.6</ele>
        <time>2026-05-21T08:51:35.999Z</time>
      </trkpt>
      <trkpt lat="43.77554" lon="3.83909">
        <ele>417.3</ele>
        <time>2026-05-21T08:51:36.999Z</time>
      </trkpt>
      <trkpt lat="43.77555" lon="3.83909">
        <ele>417.2</ele>
        <time>2026-05-21T08:51:37.999Z</time>
      </trkpt>
      <trkpt lat="43.77555" lon="3.83909">
        <ele>417.1</ele>
        <time>2026-05-21T08:51:38.999Z</time>
      </trkpt>
      <trkpt lat="43.77555" lon="3.83909">
        <ele>416.8</ele>
        <time>2026-05-21T08:51:39.999Z</time>
      </trkpt>
      <trkpt lat="43.77555" lon="3.83909">
        <ele>416.6</ele>
        <time>2026-05-21T08:51:40.999Z</time>
      </trkpt>
      <trkpt lat="43.77555" lon="3.83909">
        <ele>416.4</ele>
        <time>2026-05-21T08:51:41.999Z</time>
      </trkpt>
      <trkpt lat="43.77555" lon="3.83909">
        <ele>416.3</ele>
        <time>2026-05-21T08:51:42.999Z</time>
      </trkpt>
      <trkpt lat="43.77555" lon="3.83909">
        <ele>416.3</ele>
        <time>2026-05-21T08:51:43.999Z</time>
      </trkpt>
      <trkpt lat="43.77555" lon="3.83909">
        <ele>416.2</ele>
        <time>2026-05-21T08:51:44.999Z</time>
      </trkpt>
      <trkpt lat="43.77555" lon="3.83909">
        <ele>416</ele>
        <time>2026-05-21T08:51:45.999Z</time>
      </trkpt>
      <trkpt lat="43.77555" lon="3.83909">
        <ele>415.9</ele>
        <time>2026-05-21T08:51:46.999Z</time>
      </trkpt>
      <trkpt lat="43.77555" lon="3.83909">
        <ele>416.1</ele>
        <time>2026-05-21T08:51:47.999Z</time>
      </trkpt>
      <trkpt lat="43.77555" lon="3.83909">
        <ele>416.1</ele>
        <time>2026-05-21T08:51:48.999Z</time>
      </trkpt>
      <trkpt lat="43.77555" lon="3.83909">
        <ele>416.1</ele>
        <time>2026-05-21T08:51:49.999Z</time>
      </trkpt>
      <trkpt lat="43.77555" lon="3.83909">
        <ele>416.1</ele>
        <time>2026-05-21T08:51:50.999Z</time>
      </trkpt>
      <trkpt lat="43.77555" lon="3.83909">
        <ele>416.1</ele>
        <time>2026-05-21T08:51:51.999Z</time>
      </trkpt>
      <trkpt lat="43.77555" lon="3.83909">
        <ele>416.3</ele>
        <time>2026-05-21T08:51:52.999Z</time>
      </trkpt>
      <trkpt lat="43.77555" lon="3.83909">
        <ele>416.3</ele>
        <time>2026-05-21T08:51:53.999Z</time>
      </trkpt>
      <trkpt lat="43.77555" lon="3.83908">
        <ele>416.4</ele>
        <time>2026-05-21T08:51:54.999Z</time>
      </trkpt>
      <trkpt lat="43.77555" lon="3.83908">
        <ele>416.5</ele>
        <time>2026-05-21T08:51:55.999Z</time>
      </trkpt>
      <trkpt lat="43.77555" lon="3.83908">
        <ele>416.5</ele>
        <time>2026-05-21T08:51:56.999Z</time>
      </trkpt>
      <trkpt lat="43.77555" lon="3.83908">
        <ele>416.4</ele>
        <time>2026-05-21T08:51:57.999Z</time>
      </trkpt>
      <trkpt lat="43.77555" lon="3.83908">
        <ele>416.3</ele>
        <time>2026-05-21T08:51:58.999Z</time>
      </trkpt>
      <trkpt lat="43.77555" lon="3.83908">
        <ele>416.3</ele>
        <time>2026-05-21T08:51:59.999Z</time>
      </trkpt>
      <trkpt lat="43.77555" lon="3.83908">
        <ele>416.3</ele>
        <time>2026-05-21T08:52:00.999Z</time>
      </trkpt>
      <trkpt lat="43.77555" lon="3.83908">
        <ele>416.2</ele>
        <time>2026-05-21T08:52:01.999Z</time>
      </trkpt>
      <trkpt lat="43.77556" lon="3.83908">
        <ele>416.4</ele>
        <time>2026-05-21T08:52:02.999Z</time>
      </trkpt>
      <trkpt lat="43.77556" lon="3.83908">
        <ele>416.3</ele>
        <time>2026-05-21T08:52:03.999Z</time>
      </trkpt>
      <trkpt lat="43.77556" lon="3.83908">
        <ele>416.3</ele>
        <time>2026-05-21T08:52:04.999Z</time>
      </trkpt>
      <trkpt lat="43.77556" lon="3.83908">
        <ele>416.3</ele>
        <time>2026-05-21T08:52:05.999Z</time>
      </trkpt>
      <trkpt lat="43.77556" lon="3.83908">
        <ele>416.3</ele>
        <time>2026-05-21T08:52:06.999Z</time>
      </trkpt>
      <trkpt lat="43.77556" lon="3.83908">
        <ele>416.2</ele>
        <time>2026-05-21T08:52:07.999Z</time>
      </trkpt>
      <trkpt lat="43.77556" lon="3.83908">
        <ele>416.3</ele>
        <time>2026-05-21T08:52:08.999Z</time>
      </trkpt>
      <trkpt lat="43.77556" lon="3.83908">
        <ele>416.3</ele>
        <time>2026-05-21T08:52:09.999Z</time>
      </trkpt>
      <trkpt lat="43.77556" lon="3.83908">
        <ele>416.3</ele>
        <time>2026-05-21T08:52:10.999Z</time>
      </trkpt>
      <trkpt lat="43.77556" lon="3.83908">
        <ele>416.4</ele>
        <time>2026-05-21T08:52:11.999Z</time>
      </trkpt>
      <trkpt lat="43.77556" lon="3.83908">
        <ele>416.5</ele>
        <time>2026-05-21T08:52:12.999Z</time>
      </trkpt>
      <trkpt lat="43.77556" lon="3.83908">
        <ele>416.5</ele>
        <time>2026-05-21T08:52:13.999Z</time>
      </trkpt>
      <trkpt lat="43.77556" lon="3.83908">
        <ele>416.5</ele>
        <time>2026-05-21T08:52:14.999Z</time>
      </trkpt>
      <trkpt lat="43.77556" lon="3.83908">
        <ele>416.4</ele>
        <time>2026-05-21T08:52:15.999Z</time>
      </trkpt>
      <trkpt lat="43.77556" lon="3.83908">
        <ele>416.5</ele>
        <time>2026-05-21T08:52:16.999Z</time>
      </trkpt>
      <trkpt lat="43.77556" lon="3.83908">
        <ele>416.7</ele>
        <time>2026-05-21T08:52:17.999Z</time>
      </trkpt>
      <trkpt lat="43.77556" lon="3.83908">
        <ele>416.8</ele>
        <time>2026-05-21T08:52:18.999Z</time>
      </trkpt>
      <trkpt lat="43.77556" lon="3.83908">
        <ele>416.8</ele>
        <time>2026-05-21T08:52:19.999Z</time>
      </trkpt>
      <trkpt lat="43.77556" lon="3.83908">
        <ele>416.6</ele>
        <time>2026-05-21T08:52:20.999Z</time>
      </trkpt>
      <trkpt lat="43.77556" lon="3.83908">
        <ele>416.4</ele>
        <time>2026-05-21T08:52:21.999Z</time>
      </trkpt>
      <trkpt lat="43.77556" lon="3.83908">
        <ele>416.2</ele>
        <time>2026-05-21T08:52:22.999Z</time>
      </trkpt>
      <trkpt lat="43.77556" lon="3.83908">
        <ele>416.2</ele>
        <time>2026-05-21T08:52:23.999Z</time>
      </trkpt>
      <trkpt lat="43.77556" lon="3.83908">
        <ele>416.3</ele>
        <time>2026-05-21T08:52:24.999Z</time>
      </trkpt>
      <trkpt lat="43.77556" lon="3.83909">
        <ele>416.3</ele>
        <time>2026-05-21T08:52:25.999Z</time>
      </trkpt>
      <trkpt lat="43.77556" lon="3.83908">
        <ele>416.2</ele>
        <time>2026-05-21T08:52:26.999Z</time>
      </trkpt>
      <trkpt lat="43.77556" lon="3.83908">
        <ele>416.1</ele>
        <time>2026-05-21T08:52:27.999Z</time>
      </trkpt>
      <trkpt lat="43.77556" lon="3.83908">
        <ele>415.9</ele>
        <time>2026-05-21T08:52:28.999Z</time>
      </trkpt>
      <trkpt lat="43.77556" lon="3.83908">
        <ele>415.8</ele>
        <time>2026-05-21T08:52:29.999Z</time>
      </trkpt>
      <trkpt lat="43.77556" lon="3.83908">
        <ele>415.8</ele>
        <time>2026-05-21T08:52:30.999Z</time>
      </trkpt>
      <trkpt lat="43.77556" lon="3.83908">
        <ele>415.9</ele>
        <time>2026-05-21T08:52:31.999Z</time>
      </trkpt>
      <trkpt lat="43.77557" lon="3.83908">
        <ele>416.3</ele>
        <time>2026-05-21T08:52:32.999Z</time>
      </trkpt>
      <trkpt lat="43.77557" lon="3.83908">
        <ele>416.3</ele>
        <time>2026-05-21T08:52:33.999Z</time>
      </trkpt>
      <trkpt lat="43.77557" lon="3.83908">
        <ele>416.1</ele>
        <time>2026-05-21T08:52:34.999Z</time>
      </trkpt>
      <trkpt lat="43.77557" lon="3.83908">
        <ele>415.8</ele>
        <time>2026-05-21T08:52:36.999Z</time>
      </trkpt>
      <trkpt lat="43.77556" lon="3.83908">
        <ele>415.7</ele>
        <time>2026-05-21T08:52:37.999Z</time>
      </trkpt>
      <trkpt lat="43.77556" lon="3.83908">
        <ele>415.4</ele>
        <time>2026-05-21T08:52:38.999Z</time>
      </trkpt>
      <trkpt lat="43.77556" lon="3.83908">
        <ele>415.5</ele>
        <time>2026-05-21T08:52:39.999Z</time>
      </trkpt>
      <trkpt lat="43.77556" lon="3.83908">
        <ele>415.4</ele>
        <time>2026-05-21T08:52:40.999Z</time>
      </trkpt>
      <trkpt lat="43.77556" lon="3.83908">
        <ele>415.7</ele>
        <time>2026-05-21T08:52:41.999Z</time>
      </trkpt>
      <trkpt lat="43.77556" lon="3.83908">
        <ele>415.8</ele>
        <time>2026-05-21T08:52:42.999Z</time>
      </trkpt>
      <trkpt lat="43.77556" lon="3.83908">
        <ele>415.8</ele>
        <time>2026-05-21T08:52:43.999Z</time>
      </trkpt>
      <trkpt lat="43.77556" lon="3.83908">
        <ele>415.8</ele>
        <time>2026-05-21T08:52:44.999Z</time>
      </trkpt>
      <trkpt lat="43.77556" lon="3.83908">
        <ele>415.8</ele>
        <time>2026-05-21T08:52:45.999Z</time>
      </trkpt>
      <trkpt lat="43.77556" lon="3.83908">
        <ele>415.8</ele>
        <time>2026-05-21T08:52:46.999Z</time>
      </trkpt>
      <trkpt lat="43.77556" lon="3.83908">
        <ele>415.7</ele>
        <time>2026-05-21T08:52:47.999Z</time>
      </trkpt>
      <trkpt lat="43.77556" lon="3.83908">
        <ele>415.6</ele>
        <time>2026-05-21T08:52:48.999Z</time>
      </trkpt>
      <trkpt lat="43.77556" lon="3.83908">
        <ele>415.3</ele>
        <time>2026-05-21T08:52:49.999Z</time>
      </trkpt>
      <trkpt lat="43.77556" lon="3.83908">
        <ele>415.2</ele>
        <time>2026-05-21T08:52:50.999Z</time>
      </trkpt>
      <trkpt lat="43.77556" lon="3.83908">
        <ele>414.9</ele>
        <time>2026-05-21T08:52:51.999Z</time>
      </trkpt>
      <trkpt lat="43.77556" lon="3.83908">
        <ele>414.6</ele>
        <time>2026-05-21T08:52:52.999Z</time>
      </trkpt>
      <trkpt lat="43.77556" lon="3.83908">
        <ele>414.6</ele>
        <time>2026-05-21T08:52:53.999Z</time>
      </trkpt>
      <trkpt lat="43.77556" lon="3.83908">
        <ele>414.4</ele>
        <time>2026-05-21T08:52:54.999Z</time>
      </trkpt>
      <trkpt lat="43.77556" lon="3.83908">
        <ele>414.4</ele>
        <time>2026-05-21T08:52:55.999Z</time>
      </trkpt>
      <trkpt lat="43.77556" lon="3.83908">
        <ele>414.5</ele>
        <time>2026-05-21T08:52:56.999Z</time>
      </trkpt>
      <trkpt lat="43.77556" lon="3.83908">
        <ele>414.5</ele>
        <time>2026-05-21T08:52:57.999Z</time>
      </trkpt>
      <trkpt lat="43.77557" lon="3.83907">
        <ele>414.6</ele>
        <time>2026-05-21T08:52:58.999Z</time>
      </trkpt>
      <trkpt lat="43.77557" lon="3.83908">
        <ele>414.5</ele>
        <time>2026-05-21T08:52:59.999Z</time>
      </trkpt>
      <trkpt lat="43.77557" lon="3.83908">
        <ele>414.4</ele>
        <time>2026-05-21T08:53:00.999Z</time>
      </trkpt>
      <trkpt lat="43.77557" lon="3.83908">
        <ele>414.4</ele>
        <time>2026-05-21T08:53:01.999Z</time>
      </trkpt>
      <trkpt lat="43.77557" lon="3.83908">
        <ele>414.6</ele>
        <time>2026-05-21T08:53:02.999Z</time>
      </trkpt>
      <trkpt lat="43.77557" lon="3.83908">
        <ele>414.6</ele>
        <time>2026-05-21T08:53:03.999Z</time>
      </trkpt>
      <trkpt lat="43.77557" lon="3.83907">
        <ele>414.5</ele>
        <time>2026-05-21T08:53:04.999Z</time>
      </trkpt>
      <trkpt lat="43.77558" lon="3.83906">
        <ele>414.7</ele>
        <time>2026-05-21T08:53:05.999Z</time>
      </trkpt>
      <trkpt lat="43.77558" lon="3.83906">
        <ele>414.5</ele>
        <time>2026-05-21T08:53:06.999Z</time>
      </trkpt>
      <trkpt lat="43.77558" lon="3.83904">
        <ele>414</ele>
        <time>2026-05-21T08:53:08.999Z</time>
      </trkpt>
      <trkpt lat="43.77559" lon="3.83903">
        <ele>414.1</ele>
        <time>2026-05-21T08:53:09.999Z</time>
      </trkpt>
      <trkpt lat="43.77559" lon="3.83903">
        <ele>414.1</ele>
        <time>2026-05-21T08:53:10.999Z</time>
      </trkpt>
      <trkpt lat="43.77559" lon="3.83903">
        <ele>414</ele>
        <time>2026-05-21T08:53:11.999Z</time>
      </trkpt>
      <trkpt lat="43.77559" lon="3.83903">
        <ele>413.8</ele>
        <time>2026-05-21T08:53:12.999Z</time>
      </trkpt>
      <trkpt lat="43.77559" lon="3.83903">
        <ele>413.9</ele>
        <time>2026-05-21T08:53:13.999Z</time>
      </trkpt>
      <trkpt lat="43.77559" lon="3.83903">
        <ele>413.9</ele>
        <time>2026-05-21T08:53:14.999Z</time>
      </trkpt>
      <trkpt lat="43.77559" lon="3.83904">
        <ele>413.8</ele>
        <time>2026-05-21T08:53:15.999Z</time>
      </trkpt>
      <trkpt lat="43.77559" lon="3.83904">
        <ele>413.8</ele>
        <time>2026-05-21T08:53:16.999Z</time>
      </trkpt>
      <trkpt lat="43.77559" lon="3.83904">
        <ele>413.9</ele>
        <time>2026-05-21T08:53:17.999Z</time>
      </trkpt>
      <trkpt lat="43.77559" lon="3.83904">
        <ele>414</ele>
        <time>2026-05-21T08:53:18.999Z</time>
      </trkpt>
      <trkpt lat="43.77559" lon="3.83904">
        <ele>414.2</ele>
        <time>2026-05-21T08:53:19.999Z</time>
      </trkpt>
      <trkpt lat="43.77559" lon="3.83904">
        <ele>414.1</ele>
        <time>2026-05-21T08:53:20.999Z</time>
      </trkpt>
      <trkpt lat="43.77559" lon="3.83904">
        <ele>414.2</ele>
        <time>2026-05-21T08:53:21.999Z</time>
      </trkpt>
      <trkpt lat="43.77559" lon="3.83904">
        <ele>414.2</ele>
        <time>2026-05-21T08:53:22.999Z</time>
      </trkpt>
      <trkpt lat="43.77559" lon="3.83904">
        <ele>414.1</ele>
        <time>2026-05-21T08:53:23.999Z</time>
      </trkpt>
      <trkpt lat="43.77559" lon="3.83904">
        <ele>414.2</ele>
        <time>2026-05-21T08:53:24.999Z</time>
      </trkpt>
      <trkpt lat="43.77559" lon="3.83904">
        <ele>414.1</ele>
        <time>2026-05-21T08:53:25.999Z</time>
      </trkpt>
      <trkpt lat="43.77559" lon="3.83904">
        <ele>414</ele>
        <time>2026-05-21T08:53:26.999Z</time>
      </trkpt>
      <trkpt lat="43.77559" lon="3.83904">
        <ele>413.8</ele>
        <time>2026-05-21T08:53:27.999Z</time>
      </trkpt>
      <trkpt lat="43.77559" lon="3.83904">
        <ele>413.6</ele>
        <time>2026-05-21T08:53:28.999Z</time>
      </trkpt>
      <trkpt lat="43.77559" lon="3.83904">
        <ele>413.6</ele>
        <time>2026-05-21T08:53:29.999Z</time>
      </trkpt>
      <trkpt lat="43.77559" lon="3.83904">
        <ele>413.5</ele>
        <time>2026-05-21T08:53:30.999Z</time>
      </trkpt>
      <trkpt lat="43.77559" lon="3.83904">
        <ele>413.5</ele>
        <time>2026-05-21T08:53:31.999Z</time>
      </trkpt>
      <trkpt lat="43.77559" lon="3.83904">
        <ele>413.4</ele>
        <time>2026-05-21T08:53:32.999Z</time>
      </trkpt>
      <trkpt lat="43.77559" lon="3.83904">
        <ele>413.2</ele>
        <time>2026-05-21T08:53:33.999Z</time>
      </trkpt>
      <trkpt lat="43.77559" lon="3.83904">
        <ele>413</ele>
        <time>2026-05-21T08:53:34.999Z</time>
      </trkpt>
      <trkpt lat="43.77559" lon="3.83904">
        <ele>412.9</ele>
        <time>2026-05-21T08:53:35.999Z</time>
      </trkpt>
      <trkpt lat="43.77559" lon="3.83904">
        <ele>412.7</ele>
        <time>2026-05-21T08:53:36.999Z</time>
      </trkpt>
      <trkpt lat="43.77559" lon="3.83904">
        <ele>412.5</ele>
        <time>2026-05-21T08:53:37.999Z</time>
      </trkpt>
      <trkpt lat="43.77559" lon="3.83904">
        <ele>412.3</ele>
        <time>2026-05-21T08:53:38.999Z</time>
      </trkpt>
      <trkpt lat="43.77559" lon="3.83904">
        <ele>412</ele>
        <time>2026-05-21T08:53:39.999Z</time>
      </trkpt>
      <trkpt lat="43.77559" lon="3.83904">
        <ele>411.8</ele>
        <time>2026-05-21T08:53:40.999Z</time>
      </trkpt>
      <trkpt lat="43.77559" lon="3.83904">
        <ele>411.4</ele>
        <time>2026-05-21T08:53:41.999Z</time>
      </trkpt>
      <trkpt lat="43.77559" lon="3.83904">
        <ele>411.3</ele>
        <time>2026-05-21T08:53:42.999Z</time>
      </trkpt>
      <trkpt lat="43.77559" lon="3.83905">
        <ele>411.1</ele>
        <time>2026-05-21T08:53:43.999Z</time>
      </trkpt>
      <trkpt lat="43.77559" lon="3.83905">
        <ele>411.2</ele>
        <time>2026-05-21T08:53:44.999Z</time>
      </trkpt>
      <trkpt lat="43.77559" lon="3.83905">
        <ele>411.1</ele>
        <time>2026-05-21T08:53:45.999Z</time>
      </trkpt>
      <trkpt lat="43.77559" lon="3.83905">
        <ele>411.4</ele>
        <time>2026-05-21T08:53:46.999Z</time>
      </trkpt>
      <trkpt lat="43.77559" lon="3.83905">
        <ele>411.5</ele>
        <time>2026-05-21T08:53:47.999Z</time>
      </trkpt>
      <trkpt lat="43.77559" lon="3.83905">
        <ele>411.6</ele>
        <time>2026-05-21T08:53:48.999Z</time>
      </trkpt>
      <trkpt lat="43.77559" lon="3.83905">
        <ele>411.9</ele>
        <time>2026-05-21T08:53:50.999Z</time>
      </trkpt>
      <trkpt lat="43.77559" lon="3.83905">
        <ele>412</ele>
        <time>2026-05-21T08:53:51.999Z</time>
      </trkpt>
      <trkpt lat="43.77559" lon="3.83905">
        <ele>412</ele>
        <time>2026-05-21T08:53:52.999Z</time>
      </trkpt>
      <trkpt lat="43.77559" lon="3.83905">
        <ele>412</ele>
        <time>2026-05-21T08:53:53.999Z</time>
      </trkpt>
      <trkpt lat="43.77559" lon="3.83904">
        <ele>412.1</ele>
        <time>2026-05-21T08:53:54.999Z</time>
      </trkpt>
      <trkpt lat="43.77559" lon="3.83904">
        <ele>412.1</ele>
        <time>2026-05-21T08:53:55.999Z</time>
      </trkpt>
      <trkpt lat="43.77559" lon="3.83904">
        <ele>412.3</ele>
        <time>2026-05-21T08:53:56.999Z</time>
      </trkpt>
      <trkpt lat="43.77559" lon="3.83904">
        <ele>412.4</ele>
        <time>2026-05-21T08:53:57.999Z</time>
      </trkpt>
      <trkpt lat="43.77559" lon="3.83904">
        <ele>412.5</ele>
        <time>2026-05-21T08:53:58.999Z</time>
      </trkpt>
      <trkpt lat="43.77559" lon="3.83904">
        <ele>412.6</ele>
        <time>2026-05-21T08:53:59.999Z</time>
      </trkpt>
      <trkpt lat="43.77559" lon="3.83904">
        <ele>412.7</ele>
        <time>2026-05-21T08:54:00.999Z</time>
      </trkpt>
      <trkpt lat="43.77559" lon="3.83904">
        <ele>412.6</ele>
        <time>2026-05-21T08:54:01.999Z</time>
      </trkpt>
      <trkpt lat="43.77559" lon="3.83904">
        <ele>412.5</ele>
        <time>2026-05-21T08:54:02.999Z</time>
      </trkpt>
      <trkpt lat="43.77559" lon="3.83904">
        <ele>412.6</ele>
        <time>2026-05-21T08:54:03.999Z</time>
      </trkpt>
      <trkpt lat="43.77559" lon="3.83904">
        <ele>413</ele>
        <time>2026-05-21T08:54:04.999Z</time>
      </trkpt>
      <trkpt lat="43.77559" lon="3.83904">
        <ele>413.2</ele>
        <time>2026-05-21T08:54:05.999Z</time>
      </trkpt>
      <trkpt lat="43.77559" lon="3.83904">
        <ele>413.5</ele>
        <time>2026-05-21T08:54:06.999Z</time>
      </trkpt>
      <trkpt lat="43.77559" lon="3.83904">
        <ele>413.5</ele>
        <time>2026-05-21T08:54:07.999Z</time>
      </trkpt>
      <trkpt lat="43.77561" lon="3.83904">
        <ele>413.6</ele>
        <time>2026-05-21T08:54:08.999Z</time>
      </trkpt>
      <trkpt lat="43.77561" lon="3.83903">
        <ele>413.9</ele>
        <time>2026-05-21T08:54:09.999Z</time>
      </trkpt>
      <trkpt lat="43.77562" lon="3.83902">
        <ele>414.5</ele>
        <time>2026-05-21T08:54:10.999Z</time>
      </trkpt>
      <trkpt lat="43.77562" lon="3.83901">
        <ele>414.9</ele>
        <time>2026-05-21T08:54:11.999Z</time>
      </trkpt>
      <trkpt lat="43.77562" lon="3.83901">
        <ele>415.4</ele>
        <time>2026-05-21T08:54:12.999Z</time>
      </trkpt>
      <trkpt lat="43.77562" lon="3.839">
        <ele>415.6</ele>
        <time>2026-05-21T08:54:13.999Z</time>
      </trkpt>
      <trkpt lat="43.77562" lon="3.839">
        <ele>415.8</ele>
        <time>2026-05-21T08:54:14.999Z</time>
      </trkpt>
      <trkpt lat="43.77562" lon="3.839">
        <ele>415.8</ele>
        <time>2026-05-21T08:54:15.999Z</time>
      </trkpt>
      <trkpt lat="43.77562" lon="3.839">
        <ele>416</ele>
        <time>2026-05-21T08:54:16.999Z</time>
      </trkpt>
      <trkpt lat="43.77562" lon="3.839">
        <ele>416.1</ele>
        <time>2026-05-21T08:54:17.999Z</time>
      </trkpt>
      <trkpt lat="43.77562" lon="3.83899">
        <ele>416.1</ele>
        <time>2026-05-21T08:54:18.999Z</time>
      </trkpt>
      <trkpt lat="43.77562" lon="3.83898">
        <ele>416.3</ele>
        <time>2026-05-21T08:54:19.999Z</time>
      </trkpt>
      <trkpt lat="43.77562" lon="3.83898">
        <ele>416.4</ele>
        <time>2026-05-21T08:54:20.999Z</time>
      </trkpt>
      <trkpt lat="43.77562" lon="3.83898">
        <ele>416.1</ele>
        <time>2026-05-21T08:54:21.999Z</time>
      </trkpt>
      <trkpt lat="43.77562" lon="3.83898">
        <ele>415.9</ele>
        <time>2026-05-21T08:54:22.999Z</time>
      </trkpt>
      <trkpt lat="43.77562" lon="3.83898">
        <ele>416</ele>
        <time>2026-05-21T08:54:23.999Z</time>
      </trkpt>
      <trkpt lat="43.77562" lon="3.83898">
        <ele>416.1</ele>
        <time>2026-05-21T08:54:24.999Z</time>
      </trkpt>
      <trkpt lat="43.77562" lon="3.83898">
        <ele>416.1</ele>
        <time>2026-05-21T08:54:25.999Z</time>
      </trkpt>
      <trkpt lat="43.77562" lon="3.83898">
        <ele>416.3</ele>
        <time>2026-05-21T08:54:26.999Z</time>
      </trkpt>
      <trkpt lat="43.77562" lon="3.83898">
        <ele>416.5</ele>
        <time>2026-05-21T08:54:27.999Z</time>
      </trkpt>
      <trkpt lat="43.77562" lon="3.83897">
        <ele>417.1</ele>
        <time>2026-05-21T08:54:28.999Z</time>
      </trkpt>
      <trkpt lat="43.77562" lon="3.83897">
        <ele>417.6</ele>
        <time>2026-05-21T08:54:29.999Z</time>
      </trkpt>
      <trkpt lat="43.77563" lon="3.83897">
        <ele>418.4</ele>
        <time>2026-05-21T08:54:30.999Z</time>
      </trkpt>
      <trkpt lat="43.77564" lon="3.83896">
        <ele>418.7</ele>
        <time>2026-05-21T08:54:31.999Z</time>
      </trkpt>
      <trkpt lat="43.77565" lon="3.83896">
        <ele>418.6</ele>
        <time>2026-05-21T08:54:32.999Z</time>
      </trkpt>
      <trkpt lat="43.77566" lon="3.83895">
        <ele>418.5</ele>
        <time>2026-05-21T08:54:33.999Z</time>
      </trkpt>
      <trkpt lat="43.77565" lon="3.83894">
        <ele>418.6</ele>
        <time>2026-05-21T08:54:34.999Z</time>
      </trkpt>
      <trkpt lat="43.77566" lon="3.83893">
        <ele>418.4</ele>
        <time>2026-05-21T08:54:35.999Z</time>
      </trkpt>
      <trkpt lat="43.77566" lon="3.83892">
        <ele>418.3</ele>
        <time>2026-05-21T08:54:36.999Z</time>
      </trkpt>
      <trkpt lat="43.77566" lon="3.83892">
        <ele>418.2</ele>
        <time>2026-05-21T08:54:37.999Z</time>
      </trkpt>
      <trkpt lat="43.77566" lon="3.83892">
        <ele>418.3</ele>
        <time>2026-05-21T08:54:38.999Z</time>
      </trkpt>
      <trkpt lat="43.77566" lon="3.83892">
        <ele>418.2</ele>
        <time>2026-05-21T08:54:39.999Z</time>
      </trkpt>
      <trkpt lat="43.77566" lon="3.83892">
        <ele>418.6</ele>
        <time>2026-05-21T08:54:40.999Z</time>
      </trkpt>
      <trkpt lat="43.77566" lon="3.83892">
        <ele>418.6</ele>
        <time>2026-05-21T08:54:41.999Z</time>
      </trkpt>
      <trkpt lat="43.77566" lon="3.83892">
        <ele>418.7</ele>
        <time>2026-05-21T08:54:42.999Z</time>
      </trkpt>
      <trkpt lat="43.77566" lon="3.83892">
        <ele>418.9</ele>
        <time>2026-05-21T08:54:43.999Z</time>
      </trkpt>
      <trkpt lat="43.77566" lon="3.83892">
        <ele>418.8</ele>
        <time>2026-05-21T08:54:44.999Z</time>
      </trkpt>
      <trkpt lat="43.77566" lon="3.83892">
        <ele>418.7</ele>
        <time>2026-05-21T08:54:45.999Z</time>
      </trkpt>
      <trkpt lat="43.77565" lon="3.83892">
        <ele>418.3</ele>
        <time>2026-05-21T08:54:46.999Z</time>
      </trkpt>
      <trkpt lat="43.77565" lon="3.83892">
        <ele>417.7</ele>
        <time>2026-05-21T08:54:47.999Z</time>
      </trkpt>
      <trkpt lat="43.77565" lon="3.83892">
        <ele>417.6</ele>
        <time>2026-05-21T08:54:48.999Z</time>
      </trkpt>
      <trkpt lat="43.77565" lon="3.83892">
        <ele>417.4</ele>
        <time>2026-05-21T08:54:49.999Z</time>
      </trkpt>
      <trkpt lat="43.77565" lon="3.83892">
        <ele>417.3</ele>
        <time>2026-05-21T08:54:50.999Z</time>
      </trkpt>
      <trkpt lat="43.77565" lon="3.83891">
        <ele>417.1</ele>
        <time>2026-05-21T08:54:51.999Z</time>
      </trkpt>
      <trkpt lat="43.77565" lon="3.83891">
        <ele>416.9</ele>
        <time>2026-05-21T08:54:52.999Z</time>
      </trkpt>
      <trkpt lat="43.77565" lon="3.83891">
        <ele>416.8</ele>
        <time>2026-05-21T08:54:53.999Z</time>
      </trkpt>
      <trkpt lat="43.77563" lon="3.83888">
        <ele>417.2</ele>
        <time>2026-05-21T08:54:55.999Z</time>
      </trkpt>
      <trkpt lat="43.77563" lon="3.83887">
        <ele>417.3</ele>
        <time>2026-05-21T08:54:56.999Z</time>
      </trkpt>
      <trkpt lat="43.77562" lon="3.83886">
        <ele>417.1</ele>
        <time>2026-05-21T08:54:57.999Z</time>
      </trkpt>
      <trkpt lat="43.77562" lon="3.83886">
        <ele>417.1</ele>
        <time>2026-05-21T08:54:58.999Z</time>
      </trkpt>
      <trkpt lat="43.77562" lon="3.83885">
        <ele>417.1</ele>
        <time>2026-05-21T08:54:59.999Z</time>
      </trkpt>
      <trkpt lat="43.77563" lon="3.83884">
        <ele>416.9</ele>
        <time>2026-05-21T08:55:00.999Z</time>
      </trkpt>
      <trkpt lat="43.77563" lon="3.83885">
        <ele>417.1</ele>
        <time>2026-05-21T08:55:01.999Z</time>
      </trkpt>
      <trkpt lat="43.77564" lon="3.83885">
        <ele>417</ele>
        <time>2026-05-21T08:55:02.999Z</time>
      </trkpt>
      <trkpt lat="43.77565" lon="3.83884">
        <ele>417</ele>
        <time>2026-05-21T08:55:03.999Z</time>
      </trkpt>
      <trkpt lat="43.77564" lon="3.83883">
        <ele>416.1</ele>
        <time>2026-05-21T08:55:04.999Z</time>
      </trkpt>
      <trkpt lat="43.77564" lon="3.83882">
        <ele>415.4</ele>
        <time>2026-05-21T08:55:05.999Z</time>
      </trkpt>
      <trkpt lat="43.77563" lon="3.83882">
        <ele>415</ele>
        <time>2026-05-21T08:55:06.999Z</time>
      </trkpt>
      <trkpt lat="43.77563" lon="3.8388">
        <ele>414.4</ele>
        <time>2026-05-21T08:55:07.999Z</time>
      </trkpt>
      <trkpt lat="43.77563" lon="3.83879">
        <ele>413.8</ele>
        <time>2026-05-21T08:55:08.999Z</time>
      </trkpt>
      <trkpt lat="43.77563" lon="3.83879">
        <ele>413.4</ele>
        <time>2026-05-21T08:55:09.999Z</time>
      </trkpt>
      <trkpt lat="43.77562" lon="3.83877">
        <ele>412.8</ele>
        <time>2026-05-21T08:55:10.999Z</time>
      </trkpt>
      <trkpt lat="43.77562" lon="3.83877">
        <ele>412.8</ele>
        <time>2026-05-21T08:55:11.999Z</time>
      </trkpt>
      <trkpt lat="43.77562" lon="3.83875">
        <ele>412.9</ele>
        <time>2026-05-21T08:55:12.999Z</time>
      </trkpt>
      <trkpt lat="43.77561" lon="3.83873">
        <ele>412.8</ele>
        <time>2026-05-21T08:55:13.999Z</time>
      </trkpt>
      <trkpt lat="43.77561" lon="3.83872">
        <ele>412.5</ele>
        <time>2026-05-21T08:55:14.999Z</time>
      </trkpt>
      <trkpt lat="43.77561" lon="3.83871">
        <ele>412.5</ele>
        <time>2026-05-21T08:55:15.999Z</time>
      </trkpt>
      <trkpt lat="43.77561" lon="3.83869">
        <ele>412.1</ele>
        <time>2026-05-21T08:55:16.999Z</time>
      </trkpt>
      <trkpt lat="43.7756" lon="3.83869">
        <ele>411.3</ele>
        <time>2026-05-21T08:55:17.999Z</time>
      </trkpt>
      <trkpt lat="43.7756" lon="3.83868">
        <ele>411.2</ele>
        <time>2026-05-21T08:55:18.999Z</time>
      </trkpt>
      <trkpt lat="43.77559" lon="3.83867">
        <ele>410.8</ele>
        <time>2026-05-21T08:55:19.999Z</time>
      </trkpt>
      <trkpt lat="43.77559" lon="3.83866">
        <ele>410.3</ele>
        <time>2026-05-21T08:55:20.999Z</time>
      </trkpt>
      <trkpt lat="43.77558" lon="3.83865">
        <ele>410.1</ele>
        <time>2026-05-21T08:55:21.999Z</time>
      </trkpt>
      <trkpt lat="43.77558" lon="3.83865">
        <ele>409.7</ele>
        <time>2026-05-21T08:55:22.999Z</time>
      </trkpt>
      <trkpt lat="43.77558" lon="3.83864">
        <ele>409.6</ele>
        <time>2026-05-21T08:55:23.999Z</time>
      </trkpt>
      <trkpt lat="43.77558" lon="3.83863">
        <ele>409.7</ele>
        <time>2026-05-21T08:55:24.999Z</time>
      </trkpt>
      <trkpt lat="43.77557" lon="3.83862">
        <ele>409.4</ele>
        <time>2026-05-21T08:55:25.999Z</time>
      </trkpt>
      <trkpt lat="43.77556" lon="3.83861">
        <ele>409.2</ele>
        <time>2026-05-21T08:55:26.999Z</time>
      </trkpt>
      <trkpt lat="43.77557" lon="3.83861">
        <ele>409.6</ele>
        <time>2026-05-21T08:55:27.999Z</time>
      </trkpt>
      <trkpt lat="43.77557" lon="3.83861">
        <ele>409.8</ele>
        <time>2026-05-21T08:55:28.999Z</time>
      </trkpt>
      <trkpt lat="43.77556" lon="3.8386">
        <ele>409.5</ele>
        <time>2026-05-21T08:55:29.999Z</time>
      </trkpt>
      <trkpt lat="43.77557" lon="3.8386">
        <ele>409.6</ele>
        <time>2026-05-21T08:55:30.999Z</time>
      </trkpt>
      <trkpt lat="43.77556" lon="3.8386">
        <ele>409.4</ele>
        <time>2026-05-21T08:55:31.999Z</time>
      </trkpt>
      <trkpt lat="43.77556" lon="3.8386">
        <ele>409.4</ele>
        <time>2026-05-21T08:55:32.999Z</time>
      </trkpt>
      <trkpt lat="43.77555" lon="3.83859">
        <ele>409.5</ele>
        <time>2026-05-21T08:55:33.999Z</time>
      </trkpt>
      <trkpt lat="43.77556" lon="3.83858">
        <ele>409.5</ele>
        <time>2026-05-21T08:55:34.999Z</time>
      </trkpt>
      <trkpt lat="43.77556" lon="3.83858">
        <ele>409.7</ele>
        <time>2026-05-21T08:55:35.999Z</time>
      </trkpt>
      <trkpt lat="43.77557" lon="3.83857">
        <ele>413.7</ele>
        <time>2026-05-21T08:55:36.999Z</time>
      </trkpt>
      <trkpt lat="43.77559" lon="3.83856">
        <ele>415.9</ele>
        <time>2026-05-21T08:55:37.999Z</time>
      </trkpt>
      <trkpt lat="43.7756" lon="3.83856">
        <ele>417.3</ele>
        <time>2026-05-21T08:55:38.999Z</time>
      </trkpt>
      <trkpt lat="43.7756" lon="3.83856">
        <ele>417.8</ele>
        <time>2026-05-21T08:55:39.999Z</time>
      </trkpt>
      <trkpt lat="43.77561" lon="3.83855">
        <ele>418</ele>
        <time>2026-05-21T08:55:40.999Z</time>
      </trkpt>
      <trkpt lat="43.77561" lon="3.83853">
        <ele>417.7</ele>
        <time>2026-05-21T08:55:41.999Z</time>
      </trkpt>
      <trkpt lat="43.77562" lon="3.83852">
        <ele>417.8</ele>
        <time>2026-05-21T08:55:42.999Z</time>
      </trkpt>
      <trkpt lat="43.77562" lon="3.8385">
        <ele>418.2</ele>
        <time>2026-05-21T08:55:43.999Z</time>
      </trkpt>
      <trkpt lat="43.77563" lon="3.8385">
        <ele>418.4</ele>
        <time>2026-05-21T08:55:44.999Z</time>
      </trkpt>
      <trkpt lat="43.77563" lon="3.83849">
        <ele>418.4</ele>
        <time>2026-05-21T08:55:45.999Z</time>
      </trkpt>
      <trkpt lat="43.77564" lon="3.83849">
        <ele>419.1</ele>
        <time>2026-05-21T08:55:46.999Z</time>
      </trkpt>
      <trkpt lat="43.77564" lon="3.83848">
        <ele>419.4</ele>
        <time>2026-05-21T08:55:47.999Z</time>
      </trkpt>
      <trkpt lat="43.77564" lon="3.83848">
        <ele>419.7</ele>
        <time>2026-05-21T08:55:48.999Z</time>
      </trkpt>
      <trkpt lat="43.77563" lon="3.83848">
        <ele>420.2</ele>
        <time>2026-05-21T08:55:49.999Z</time>
      </trkpt>
      <trkpt lat="43.77563" lon="3.83847">
        <ele>420.7</ele>
        <time>2026-05-21T08:55:50.999Z</time>
      </trkpt>
      <trkpt lat="43.77563" lon="3.83846">
        <ele>420.8</ele>
        <time>2026-05-21T08:55:51.999Z</time>
      </trkpt>
      <trkpt lat="43.77563" lon="3.83846">
        <ele>420.8</ele>
        <time>2026-05-21T08:55:52.999Z</time>
      </trkpt>
      <trkpt lat="43.77563" lon="3.83845">
        <ele>420.6</ele>
        <time>2026-05-21T08:55:53.999Z</time>
      </trkpt>
      <trkpt lat="43.77563" lon="3.83845">
        <ele>420.7</ele>
        <time>2026-05-21T08:55:54.999Z</time>
      </trkpt>
      <trkpt lat="43.77564" lon="3.83845">
        <ele>421.4</ele>
        <time>2026-05-21T08:55:55.999Z</time>
      </trkpt>
      <trkpt lat="43.77564" lon="3.83845">
        <ele>422.2</ele>
        <time>2026-05-21T08:55:56.999Z</time>
      </trkpt>
      <trkpt lat="43.77564" lon="3.83844">
        <ele>422.9</ele>
        <time>2026-05-21T08:55:57.999Z</time>
      </trkpt>
      <trkpt lat="43.77566" lon="3.83843">
        <ele>424</ele>
        <time>2026-05-21T08:55:58.999Z</time>
      </trkpt>
      <trkpt lat="43.77568" lon="3.83843">
        <ele>425.2</ele>
        <time>2026-05-21T08:55:59.999Z</time>
      </trkpt>
      <trkpt lat="43.77569" lon="3.83842">
        <ele>426.1</ele>
        <time>2026-05-21T08:56:00.999Z</time>
      </trkpt>
      <trkpt lat="43.7757" lon="3.83842">
        <ele>426.7</ele>
        <time>2026-05-21T08:56:01.999Z</time>
      </trkpt>
      <trkpt lat="43.77571" lon="3.83841">
        <ele>426.9</ele>
        <time>2026-05-21T08:56:02.999Z</time>
      </trkpt>
      <trkpt lat="43.77571" lon="3.83842">
        <ele>427.2</ele>
        <time>2026-05-21T08:56:03.999Z</time>
      </trkpt>
      <trkpt lat="43.77571" lon="3.83841">
        <ele>427.4</ele>
        <time>2026-05-21T08:56:04.999Z</time>
      </trkpt>
      <trkpt lat="43.77571" lon="3.83841">
        <ele>427.7</ele>
        <time>2026-05-21T08:56:05.999Z</time>
      </trkpt>
      <trkpt lat="43.7757" lon="3.83842">
        <ele>427.3</ele>
        <time>2026-05-21T08:56:06.999Z</time>
      </trkpt>
      <trkpt lat="43.7757" lon="3.83842">
        <ele>427.6</ele>
        <time>2026-05-21T08:56:07.999Z</time>
      </trkpt>
      <trkpt lat="43.7757" lon="3.83842">
        <ele>427.5</ele>
        <time>2026-05-21T08:56:08.999Z</time>
      </trkpt>
      <trkpt lat="43.7757" lon="3.83842">
        <ele>427.5</ele>
        <time>2026-05-21T08:56:09.999Z</time>
      </trkpt>
      <trkpt lat="43.7757" lon="3.83842">
        <ele>427.7</ele>
        <time>2026-05-21T08:56:10.999Z</time>
      </trkpt>
      <trkpt lat="43.7757" lon="3.83842">
        <ele>428</ele>
        <time>2026-05-21T08:56:11.999Z</time>
      </trkpt>
      <trkpt lat="43.7757" lon="3.83842">
        <ele>427.7</ele>
        <time>2026-05-21T08:56:12.999Z</time>
      </trkpt>
      <trkpt lat="43.7757" lon="3.83842">
        <ele>427.4</ele>
        <time>2026-05-21T08:56:13.999Z</time>
      </trkpt>
      <trkpt lat="43.7757" lon="3.83842">
        <ele>427.4</ele>
        <time>2026-05-21T08:56:14.999Z</time>
      </trkpt>
      <trkpt lat="43.7757" lon="3.83842">
        <ele>427.6</ele>
        <time>2026-05-21T08:56:15.999Z</time>
      </trkpt>
      <trkpt lat="43.7757" lon="3.83842">
        <ele>427.4</ele>
        <time>2026-05-21T08:56:16.999Z</time>
      </trkpt>
      <trkpt lat="43.7757" lon="3.83842">
        <ele>427.1</ele>
        <time>2026-05-21T08:56:17.999Z</time>
      </trkpt>
      <trkpt lat="43.7757" lon="3.83842">
        <ele>427.2</ele>
        <time>2026-05-21T08:56:18.999Z</time>
      </trkpt>
      <trkpt lat="43.77571" lon="3.83842">
        <ele>427.4</ele>
        <time>2026-05-21T08:56:19.999Z</time>
      </trkpt>
      <trkpt lat="43.77571" lon="3.83842">
        <ele>427.5</ele>
        <time>2026-05-21T08:56:20.999Z</time>
      </trkpt>
      <trkpt lat="43.77571" lon="3.83842">
        <ele>427.4</ele>
        <time>2026-05-21T08:56:21.999Z</time>
      </trkpt>
      <trkpt lat="43.77571" lon="3.83841">
        <ele>427.5</ele>
        <time>2026-05-21T08:56:22.999Z</time>
      </trkpt>
      <trkpt lat="43.77571" lon="3.83841">
        <ele>427.6</ele>
        <time>2026-05-21T08:56:23.999Z</time>
      </trkpt>
      <trkpt lat="43.77571" lon="3.83841">
        <ele>428</ele>
        <time>2026-05-21T08:56:24.999Z</time>
      </trkpt>
      <trkpt lat="43.77571" lon="3.83842">
        <ele>428.2</ele>
        <time>2026-05-21T08:56:25.999Z</time>
      </trkpt>
      <trkpt lat="43.77571" lon="3.83842">
        <ele>428.3</ele>
        <time>2026-05-21T08:56:26.999Z</time>
      </trkpt>
      <trkpt lat="43.77571" lon="3.83842">
        <ele>428.1</ele>
        <time>2026-05-21T08:56:27.999Z</time>
      </trkpt>
      <trkpt lat="43.77571" lon="3.83842">
        <ele>427.9</ele>
        <time>2026-05-21T08:56:29.999Z</time>
      </trkpt>
      <trkpt lat="43.77571" lon="3.83842">
        <ele>427.8</ele>
        <time>2026-05-21T08:56:30.999Z</time>
      </trkpt>
      <trkpt lat="43.77571" lon="3.83842">
        <ele>427.7</ele>
        <time>2026-05-21T08:56:31.999Z</time>
      </trkpt>
      <trkpt lat="43.77571" lon="3.83842">
        <ele>427.6</ele>
        <time>2026-05-21T08:56:32.999Z</time>
      </trkpt>
      <trkpt lat="43.77571" lon="3.83842">
        <ele>427.7</ele>
        <time>2026-05-21T08:56:33.999Z</time>
      </trkpt>
      <trkpt lat="43.77571" lon="3.83842">
        <ele>427.8</ele>
        <time>2026-05-21T08:56:34.999Z</time>
      </trkpt>
      <trkpt lat="43.77571" lon="3.83842">
        <ele>427.7</ele>
        <time>2026-05-21T08:56:35.999Z</time>
      </trkpt>
      <trkpt lat="43.77571" lon="3.83842">
        <ele>427.5</ele>
        <time>2026-05-21T08:56:36.999Z</time>
      </trkpt>
      <trkpt lat="43.77571" lon="3.83842">
        <ele>427.4</ele>
        <time>2026-05-21T08:56:37.999Z</time>
      </trkpt>
      <trkpt lat="43.77571" lon="3.83842">
        <ele>427.2</ele>
        <time>2026-05-21T08:56:38.999Z</time>
      </trkpt>
      <trkpt lat="43.77571" lon="3.83841">
        <ele>427</ele>
        <time>2026-05-21T08:56:39.999Z</time>
      </trkpt>
      <trkpt lat="43.77571" lon="3.8384">
        <ele>427</ele>
        <time>2026-05-21T08:56:40.999Z</time>
      </trkpt>
      <trkpt lat="43.77571" lon="3.83839">
        <ele>426.9</ele>
        <time>2026-05-21T08:56:41.999Z</time>
      </trkpt>
      <trkpt lat="43.7757" lon="3.83839">
        <ele>426.9</ele>
        <time>2026-05-21T08:56:42.999Z</time>
      </trkpt>
      <trkpt lat="43.7757" lon="3.83838">
        <ele>426.9</ele>
        <time>2026-05-21T08:56:43.999Z</time>
      </trkpt>
      <trkpt lat="43.77569" lon="3.83838">
        <ele>426.7</ele>
        <time>2026-05-21T08:56:44.999Z</time>
      </trkpt>
      <trkpt lat="43.77568" lon="3.83837">
        <ele>426.7</ele>
        <time>2026-05-21T08:56:45.999Z</time>
      </trkpt>
      <trkpt lat="43.77568" lon="3.83836">
        <ele>426.1</ele>
        <time>2026-05-21T08:56:46.999Z</time>
      </trkpt>
      <trkpt lat="43.77568" lon="3.83836">
        <ele>426</ele>
        <time>2026-05-21T08:56:47.999Z</time>
      </trkpt>
      <trkpt lat="43.77569" lon="3.83837">
        <ele>425.8</ele>
        <time>2026-05-21T08:56:48.999Z</time>
      </trkpt>
      <trkpt lat="43.77569" lon="3.83837">
        <ele>426.2</ele>
        <time>2026-05-21T08:56:49.999Z</time>
      </trkpt>
      <trkpt lat="43.77569" lon="3.83837">
        <ele>426.1</ele>
        <time>2026-05-21T08:56:50.999Z</time>
      </trkpt>
      <trkpt lat="43.77569" lon="3.83837">
        <ele>426.1</ele>
        <time>2026-05-21T08:56:51.999Z</time>
      </trkpt>
      <trkpt lat="43.77569" lon="3.83837">
        <ele>425.9</ele>
        <time>2026-05-21T08:56:52.999Z</time>
      </trkpt>
      <trkpt lat="43.77569" lon="3.83836">
        <ele>425.7</ele>
        <time>2026-05-21T08:56:53.999Z</time>
      </trkpt>
      <trkpt lat="43.77569" lon="3.83836">
        <ele>425.6</ele>
        <time>2026-05-21T08:56:54.999Z</time>
      </trkpt>
      <trkpt lat="43.77569" lon="3.83836">
        <ele>425.5</ele>
        <time>2026-05-21T08:56:55.999Z</time>
      </trkpt>
      <trkpt lat="43.77569" lon="3.83836">
        <ele>425.3</ele>
        <time>2026-05-21T08:56:56.999Z</time>
      </trkpt>
      <trkpt lat="43.77569" lon="3.83836">
        <ele>425.3</ele>
        <time>2026-05-21T08:56:57.999Z</time>
      </trkpt>
      <trkpt lat="43.77569" lon="3.83836">
        <ele>425.4</ele>
        <time>2026-05-21T08:56:58.999Z</time>
      </trkpt>
      <trkpt lat="43.77569" lon="3.83836">
        <ele>425.4</ele>
        <time>2026-05-21T08:56:59.999Z</time>
      </trkpt>
      <trkpt lat="43.77569" lon="3.83836">
        <ele>425.4</ele>
        <time>2026-05-21T08:57:00.999Z</time>
      </trkpt>
      <trkpt lat="43.77569" lon="3.83836">
        <ele>425.5</ele>
        <time>2026-05-21T08:57:01.999Z</time>
      </trkpt>
      <trkpt lat="43.77569" lon="3.83836">
        <ele>425.4</ele>
        <time>2026-05-21T08:57:02.999Z</time>
      </trkpt>
      <trkpt lat="43.77569" lon="3.83836">
        <ele>425.5</ele>
        <time>2026-05-21T08:57:03.999Z</time>
      </trkpt>
      <trkpt lat="43.77569" lon="3.83836">
        <ele>425.6</ele>
        <time>2026-05-21T08:57:04.999Z</time>
      </trkpt>
      <trkpt lat="43.77569" lon="3.83836">
        <ele>425.4</ele>
        <time>2026-05-21T08:57:05.999Z</time>
      </trkpt>
      <trkpt lat="43.77569" lon="3.83836">
        <ele>425.4</ele>
        <time>2026-05-21T08:57:06.999Z</time>
      </trkpt>
      <trkpt lat="43.77569" lon="3.83836">
        <ele>425.2</ele>
        <time>2026-05-21T08:57:07.999Z</time>
      </trkpt>
      <trkpt lat="43.77569" lon="3.83836">
        <ele>425.1</ele>
        <time>2026-05-21T08:57:08.999Z</time>
      </trkpt>
      <trkpt lat="43.77569" lon="3.83836">
        <ele>424.9</ele>
        <time>2026-05-21T08:57:09.999Z</time>
      </trkpt>
      <trkpt lat="43.77569" lon="3.83836">
        <ele>424.7</ele>
        <time>2026-05-21T08:57:10.999Z</time>
      </trkpt>
      <trkpt lat="43.77569" lon="3.83836">
        <ele>424.5</ele>
        <time>2026-05-21T08:57:11.999Z</time>
      </trkpt>
      <trkpt lat="43.77569" lon="3.83836">
        <ele>424.4</ele>
        <time>2026-05-21T08:57:12.999Z</time>
      </trkpt>
      <trkpt lat="43.77569" lon="3.83836">
        <ele>424.5</ele>
        <time>2026-05-21T08:57:13.999Z</time>
      </trkpt>
      <trkpt lat="43.77569" lon="3.83836">
        <ele>424.6</ele>
        <time>2026-05-21T08:57:14.999Z</time>
      </trkpt>
      <trkpt lat="43.77569" lon="3.83836">
        <ele>424.7</ele>
        <time>2026-05-21T08:57:15.999Z</time>
      </trkpt>
      <trkpt lat="43.77569" lon="3.83836">
        <ele>424.7</ele>
        <time>2026-05-21T08:57:16.999Z</time>
      </trkpt>
      <trkpt lat="43.77569" lon="3.83836">
        <ele>424.7</ele>
        <time>2026-05-21T08:57:17.999Z</time>
      </trkpt>
      <trkpt lat="43.77569" lon="3.83836">
        <ele>424.8</ele>
        <time>2026-05-21T08:57:18.999Z</time>
      </trkpt>
      <trkpt lat="43.77569" lon="3.83836">
        <ele>424.8</ele>
        <time>2026-05-21T08:57:19.999Z</time>
      </trkpt>
      <trkpt lat="43.77569" lon="3.83836">
        <ele>424.8</ele>
        <time>2026-05-21T08:57:20.999Z</time>
      </trkpt>
      <trkpt lat="43.77569" lon="3.83836">
        <ele>424.8</ele>
        <time>2026-05-21T08:57:21.999Z</time>
      </trkpt>
      <trkpt lat="43.77569" lon="3.83836">
        <ele>424.9</ele>
        <time>2026-05-21T08:57:22.999Z</time>
      </trkpt>
      <trkpt lat="43.77569" lon="3.83836">
        <ele>424.9</ele>
        <time>2026-05-21T08:57:23.999Z</time>
      </trkpt>
      <trkpt lat="43.77569" lon="3.83836">
        <ele>424.9</ele>
        <time>2026-05-21T08:57:24.999Z</time>
      </trkpt>
      <trkpt lat="43.77569" lon="3.83835">
        <ele>424.9</ele>
        <time>2026-05-21T08:57:25.999Z</time>
      </trkpt>
      <trkpt lat="43.77569" lon="3.83835">
        <ele>425.1</ele>
        <time>2026-05-21T08:57:26.999Z</time>
      </trkpt>
      <trkpt lat="43.77569" lon="3.83835">
        <ele>425</ele>
        <time>2026-05-21T08:57:27.999Z</time>
      </trkpt>
      <trkpt lat="43.77569" lon="3.83835">
        <ele>424.9</ele>
        <time>2026-05-21T08:57:28.999Z</time>
      </trkpt>
      <trkpt lat="43.77569" lon="3.83835">
        <ele>424.7</ele>
        <time>2026-05-21T08:57:29.999Z</time>
      </trkpt>
      <trkpt lat="43.77569" lon="3.83835">
        <ele>424.5</ele>
        <time>2026-05-21T08:57:30.999Z</time>
      </trkpt>
      <trkpt lat="43.77569" lon="3.83835">
        <ele>424.2</ele>
        <time>2026-05-21T08:57:31.999Z</time>
      </trkpt>
      <trkpt lat="43.77569" lon="3.83835">
        <ele>423.9</ele>
        <time>2026-05-21T08:57:32.999Z</time>
      </trkpt>
      <trkpt lat="43.77569" lon="3.83835">
        <ele>423.7</ele>
        <time>2026-05-21T08:57:33.999Z</time>
      </trkpt>
      <trkpt lat="43.77569" lon="3.83835">
        <ele>423.5</ele>
        <time>2026-05-21T08:57:34.999Z</time>
      </trkpt>
      <trkpt lat="43.77569" lon="3.83835">
        <ele>423.5</ele>
        <time>2026-05-21T08:57:35.999Z</time>
      </trkpt>
      <trkpt lat="43.77569" lon="3.83835">
        <ele>423.8</ele>
        <time>2026-05-21T08:57:36.999Z</time>
      </trkpt>
      <trkpt lat="43.77569" lon="3.83834">
        <ele>423.8</ele>
        <time>2026-05-21T08:57:37.999Z</time>
      </trkpt>
      <trkpt lat="43.77569" lon="3.83834">
        <ele>423.8</ele>
        <time>2026-05-21T08:57:38.999Z</time>
      </trkpt>
      <trkpt lat="43.77569" lon="3.83833">
        <ele>423.7</ele>
        <time>2026-05-21T08:57:39.999Z</time>
      </trkpt>
      <trkpt lat="43.77568" lon="3.83832">
        <ele>423.3</ele>
        <time>2026-05-21T08:57:40.999Z</time>
      </trkpt>
      <trkpt lat="43.77568" lon="3.83831">
        <ele>423.2</ele>
        <time>2026-05-21T08:57:41.999Z</time>
      </trkpt>
      <trkpt lat="43.77568" lon="3.8383">
        <ele>423</ele>
        <time>2026-05-21T08:57:42.999Z</time>
      </trkpt>
      <trkpt lat="43.77568" lon="3.83829">
        <ele>423</ele>
        <time>2026-05-21T08:57:43.999Z</time>
      </trkpt>
      <trkpt lat="43.77569" lon="3.83829">
        <ele>423.4</ele>
        <time>2026-05-21T08:57:44.999Z</time>
      </trkpt>
      <trkpt lat="43.7757" lon="3.83829">
        <ele>423.3</ele>
        <time>2026-05-21T08:57:45.999Z</time>
      </trkpt>
      <trkpt lat="43.77572" lon="3.83829">
        <ele>424.8</ele>
        <time>2026-05-21T08:57:47.999Z</time>
      </trkpt>
      <trkpt lat="43.77574" lon="3.8383">
        <ele>424.9</ele>
        <time>2026-05-21T08:57:48.999Z</time>
      </trkpt>
      <trkpt lat="43.77575" lon="3.83831">
        <ele>425.2</ele>
        <time>2026-05-21T08:57:49.999Z</time>
      </trkpt>
      <trkpt lat="43.77576" lon="3.83832">
        <ele>425.9</ele>
        <time>2026-05-21T08:57:50.999Z</time>
      </trkpt>
      <trkpt lat="43.77577" lon="3.83833">
        <ele>426.3</ele>
        <time>2026-05-21T08:57:51.999Z</time>
      </trkpt>
      <trkpt lat="43.77577" lon="3.83832">
        <ele>426.8</ele>
        <time>2026-05-21T08:57:52.999Z</time>
      </trkpt>
      <trkpt lat="43.77577" lon="3.83832">
        <ele>425.6</ele>
        <time>2026-05-21T08:57:53.999Z</time>
      </trkpt>
      <trkpt lat="43.77577" lon="3.83832">
        <ele>425.5</ele>
        <time>2026-05-21T08:57:54.999Z</time>
      </trkpt>
      <trkpt lat="43.77577" lon="3.83832">
        <ele>425.7</ele>
        <time>2026-05-21T08:57:55.999Z</time>
      </trkpt>
      <trkpt lat="43.77577" lon="3.83832">
        <ele>425.5</ele>
        <time>2026-05-21T08:57:56.999Z</time>
      </trkpt>
      <trkpt lat="43.77577" lon="3.83832">
        <ele>425.3</ele>
        <time>2026-05-21T08:57:57.999Z</time>
      </trkpt>
      <trkpt lat="43.77577" lon="3.83832">
        <ele>425.3</ele>
        <time>2026-05-21T08:57:58.999Z</time>
      </trkpt>
      <trkpt lat="43.77577" lon="3.83832">
        <ele>425.3</ele>
        <time>2026-05-21T08:57:59.999Z</time>
      </trkpt>
      <trkpt lat="43.77577" lon="3.83832">
        <ele>424.9</ele>
        <time>2026-05-21T08:58:00.999Z</time>
      </trkpt>
      <trkpt lat="43.77577" lon="3.83832">
        <ele>424.8</ele>
        <time>2026-05-21T08:58:01.999Z</time>
      </trkpt>
      <trkpt lat="43.77577" lon="3.83832">
        <ele>424.6</ele>
        <time>2026-05-21T08:58:02.999Z</time>
      </trkpt>
      <trkpt lat="43.77577" lon="3.83832">
        <ele>424.3</ele>
        <time>2026-05-21T08:58:03.999Z</time>
      </trkpt>
      <trkpt lat="43.77577" lon="3.83832">
        <ele>424.1</ele>
        <time>2026-05-21T08:58:04.999Z</time>
      </trkpt>
      <trkpt lat="43.77577" lon="3.83832">
        <ele>423.9</ele>
        <time>2026-05-21T08:58:05.999Z</time>
      </trkpt>
      <trkpt lat="43.77577" lon="3.83832">
        <ele>423.7</ele>
        <time>2026-05-21T08:58:06.999Z</time>
      </trkpt>
      <trkpt lat="43.77577" lon="3.83832">
        <ele>423.7</ele>
        <time>2026-05-21T08:58:07.999Z</time>
      </trkpt>
      <trkpt lat="43.77576" lon="3.83832">
        <ele>423.7</ele>
        <time>2026-05-21T08:58:08.999Z</time>
      </trkpt>
      <trkpt lat="43.77576" lon="3.83832">
        <ele>423.5</ele>
        <time>2026-05-21T08:58:09.999Z</time>
      </trkpt>
      <trkpt lat="43.77576" lon="3.83832">
        <ele>423.7</ele>
        <time>2026-05-21T08:58:10.999Z</time>
      </trkpt>
      <trkpt lat="43.77576" lon="3.83833">
        <ele>423.8</ele>
        <time>2026-05-21T08:58:11.999Z</time>
      </trkpt>
      <trkpt lat="43.77577" lon="3.83834">
        <ele>423.7</ele>
        <time>2026-05-21T08:58:12.999Z</time>
      </trkpt>
      <trkpt lat="43.77577" lon="3.83834">
        <ele>423.6</ele>
        <time>2026-05-21T08:58:13.999Z</time>
      </trkpt>
      <trkpt lat="43.77578" lon="3.83833">
        <ele>423.3</ele>
        <time>2026-05-21T08:58:14.999Z</time>
      </trkpt>
      <trkpt lat="43.77579" lon="3.83832">
        <ele>423.1</ele>
        <time>2026-05-21T08:58:15.999Z</time>
      </trkpt>
      <trkpt lat="43.77579" lon="3.83831">
        <ele>423</ele>
        <time>2026-05-21T08:58:16.999Z</time>
      </trkpt>
      <trkpt lat="43.77579" lon="3.8383">
        <ele>422.8</ele>
        <time>2026-05-21T08:58:17.999Z</time>
      </trkpt>
      <trkpt lat="43.77579" lon="3.8383">
        <ele>422.6</ele>
        <time>2026-05-21T08:58:18.999Z</time>
      </trkpt>
      <trkpt lat="43.77578" lon="3.83829">
        <ele>422.8</ele>
        <time>2026-05-21T08:58:19.999Z</time>
      </trkpt>
      <trkpt lat="43.77578" lon="3.83829">
        <ele>423.2</ele>
        <time>2026-05-21T08:58:20.999Z</time>
      </trkpt>
      <trkpt lat="43.77578" lon="3.83829">
        <ele>422.2</ele>
        <time>2026-05-21T08:58:21.999Z</time>
      </trkpt>
      <trkpt lat="43.77578" lon="3.83829">
        <ele>422.3</ele>
        <time>2026-05-21T08:58:22.999Z</time>
      </trkpt>
      <trkpt lat="43.77578" lon="3.83829">
        <ele>422.1</ele>
        <time>2026-05-21T08:58:23.999Z</time>
      </trkpt>
      <trkpt lat="43.77578" lon="3.83829">
        <ele>421.9</ele>
        <time>2026-05-21T08:58:24.999Z</time>
      </trkpt>
      <trkpt lat="43.77578" lon="3.83829">
        <ele>421.8</ele>
        <time>2026-05-21T08:58:25.999Z</time>
      </trkpt>
      <trkpt lat="43.77578" lon="3.83829">
        <ele>421.6</ele>
        <time>2026-05-21T08:58:26.999Z</time>
      </trkpt>
      <trkpt lat="43.77578" lon="3.83829">
        <ele>421.6</ele>
        <time>2026-05-21T08:58:27.999Z</time>
      </trkpt>
      <trkpt lat="43.77578" lon="3.83828">
        <ele>421.5</ele>
        <time>2026-05-21T08:58:28.999Z</time>
      </trkpt>
      <trkpt lat="43.77578" lon="3.83828">
        <ele>421.6</ele>
        <time>2026-05-21T08:58:29.999Z</time>
      </trkpt>
      <trkpt lat="43.77578" lon="3.83828">
        <ele>421.4</ele>
        <time>2026-05-21T08:58:30.999Z</time>
      </trkpt>
      <trkpt lat="43.77578" lon="3.83829">
        <ele>421.4</ele>
        <time>2026-05-21T08:58:31.999Z</time>
      </trkpt>
      <trkpt lat="43.77578" lon="3.83829">
        <ele>421.4</ele>
        <time>2026-05-21T08:58:32.999Z</time>
      </trkpt>
      <trkpt lat="43.77578" lon="3.83828">
        <ele>422.2</ele>
        <time>2026-05-21T08:58:33.999Z</time>
      </trkpt>
      <trkpt lat="43.77577" lon="3.83828">
        <ele>423.6</ele>
        <time>2026-05-21T08:58:34.999Z</time>
      </trkpt>
      <trkpt lat="43.77577" lon="3.83828">
        <ele>424.5</ele>
        <time>2026-05-21T08:58:35.999Z</time>
      </trkpt>
      <trkpt lat="43.77577" lon="3.83828">
        <ele>425</ele>
        <time>2026-05-21T08:58:36.999Z</time>
      </trkpt>
      <trkpt lat="43.77577" lon="3.83828">
        <ele>425.5</ele>
        <time>2026-05-21T08:58:37.999Z</time>
      </trkpt>
      <trkpt lat="43.77577" lon="3.83828">
        <ele>425.8</ele>
        <time>2026-05-21T08:58:38.999Z</time>
      </trkpt>
      <trkpt lat="43.77577" lon="3.83828">
        <ele>426.5</ele>
        <time>2026-05-21T08:58:39.999Z</time>
      </trkpt>
      <trkpt lat="43.77577" lon="3.83828">
        <ele>426.9</ele>
        <time>2026-05-21T08:58:40.999Z</time>
      </trkpt>
      <trkpt lat="43.77577" lon="3.83827">
        <ele>427.3</ele>
        <time>2026-05-21T08:58:41.999Z</time>
      </trkpt>
      <trkpt lat="43.77577" lon="3.83827">
        <ele>427.8</ele>
        <time>2026-05-21T08:58:42.999Z</time>
      </trkpt>
      <trkpt lat="43.77577" lon="3.83827">
        <ele>428.3</ele>
        <time>2026-05-21T08:58:43.999Z</time>
      </trkpt>
      <trkpt lat="43.77577" lon="3.83827">
        <ele>428.6</ele>
        <time>2026-05-21T08:58:44.999Z</time>
      </trkpt>
      <trkpt lat="43.77577" lon="3.83827">
        <ele>428.9</ele>
        <time>2026-05-21T08:58:45.999Z</time>
      </trkpt>
      <trkpt lat="43.77577" lon="3.83827">
        <ele>429</ele>
        <time>2026-05-21T08:58:46.999Z</time>
      </trkpt>
      <trkpt lat="43.77577" lon="3.83827">
        <ele>429</ele>
        <time>2026-05-21T08:58:47.999Z</time>
      </trkpt>
      <trkpt lat="43.77578" lon="3.83826">
        <ele>429.1</ele>
        <time>2026-05-21T08:58:48.999Z</time>
      </trkpt>
      <trkpt lat="43.77577" lon="3.83826">
        <ele>429.3</ele>
        <time>2026-05-21T08:58:49.999Z</time>
      </trkpt>
      <trkpt lat="43.77578" lon="3.83826">
        <ele>429.1</ele>
        <time>2026-05-21T08:58:50.999Z</time>
      </trkpt>
      <trkpt lat="43.77578" lon="3.83826">
        <ele>429</ele>
        <time>2026-05-21T08:58:51.999Z</time>
      </trkpt>
      <trkpt lat="43.77577" lon="3.83826">
        <ele>429</ele>
        <time>2026-05-21T08:58:52.999Z</time>
      </trkpt>
      <trkpt lat="43.77577" lon="3.83826">
        <ele>428.9</ele>
        <time>2026-05-21T08:58:53.999Z</time>
      </trkpt>
      <trkpt lat="43.77578" lon="3.83825">
        <ele>428.8</ele>
        <time>2026-05-21T08:58:54.999Z</time>
      </trkpt>
      <trkpt lat="43.77578" lon="3.83825">
        <ele>428.6</ele>
        <time>2026-05-21T08:58:55.999Z</time>
      </trkpt>
      <trkpt lat="43.77578" lon="3.83825">
        <ele>428.6</ele>
        <time>2026-05-21T08:58:56.999Z</time>
      </trkpt>
      <trkpt lat="43.77578" lon="3.83825">
        <ele>428.9</ele>
        <time>2026-05-21T08:58:57.999Z</time>
      </trkpt>
      <trkpt lat="43.77578" lon="3.83825">
        <ele>428.9</ele>
        <time>2026-05-21T08:58:58.999Z</time>
      </trkpt>
      <trkpt lat="43.77578" lon="3.83825">
        <ele>428.8</ele>
        <time>2026-05-21T08:58:59.999Z</time>
      </trkpt>
      <trkpt lat="43.77578" lon="3.83824">
        <ele>428.7</ele>
        <time>2026-05-21T08:59:00.999Z</time>
      </trkpt>
      <trkpt lat="43.77578" lon="3.83824">
        <ele>428.7</ele>
        <time>2026-05-21T08:59:01.999Z</time>
      </trkpt>
      <trkpt lat="43.77578" lon="3.83824">
        <ele>428.5</ele>
        <time>2026-05-21T08:59:02.999Z</time>
      </trkpt>
      <trkpt lat="43.77578" lon="3.83823">
        <ele>428.9</ele>
        <time>2026-05-21T08:59:03.999Z</time>
      </trkpt>
      <trkpt lat="43.77578" lon="3.83823">
        <ele>429.1</ele>
        <time>2026-05-21T08:59:04.999Z</time>
      </trkpt>
      <trkpt lat="43.77578" lon="3.83821">
        <ele>429.1</ele>
        <time>2026-05-21T08:59:05.999Z</time>
      </trkpt>
      <trkpt lat="43.77577" lon="3.83819">
        <ele>428.9</ele>
        <time>2026-05-21T08:59:06.999Z</time>
      </trkpt>
      <trkpt lat="43.77578" lon="3.83818">
        <ele>429.2</ele>
        <time>2026-05-21T08:59:07.999Z</time>
      </trkpt>
      <trkpt lat="43.77578" lon="3.83818">
        <ele>429.5</ele>
        <time>2026-05-21T08:59:08.999Z</time>
      </trkpt>
      <trkpt lat="43.77577" lon="3.83818">
        <ele>429.8</ele>
        <time>2026-05-21T08:59:09.999Z</time>
      </trkpt>
      <trkpt lat="43.77577" lon="3.83817">
        <ele>430.1</ele>
        <time>2026-05-21T08:59:10.999Z</time>
      </trkpt>
      <trkpt lat="43.77577" lon="3.83817">
        <ele>430.4</ele>
        <time>2026-05-21T08:59:11.999Z</time>
      </trkpt>
      <trkpt lat="43.77576" lon="3.83816">
        <ele>430.7</ele>
        <time>2026-05-21T08:59:13.999Z</time>
      </trkpt>
      <trkpt lat="43.77576" lon="3.83816">
        <ele>430.7</ele>
        <time>2026-05-21T08:59:14.999Z</time>
      </trkpt>
      <trkpt lat="43.77576" lon="3.83816">
        <ele>430.8</ele>
        <time>2026-05-21T08:59:15.999Z</time>
      </trkpt>
      <trkpt lat="43.77576" lon="3.83816">
        <ele>430.9</ele>
        <time>2026-05-21T08:59:16.999Z</time>
      </trkpt>
      <trkpt lat="43.77576" lon="3.83816">
        <ele>431</ele>
        <time>2026-05-21T08:59:17.999Z</time>
      </trkpt>
      <trkpt lat="43.77576" lon="3.83816">
        <ele>431.1</ele>
        <time>2026-05-21T08:59:18.999Z</time>
      </trkpt>
      <trkpt lat="43.77576" lon="3.83816">
        <ele>431.1</ele>
        <time>2026-05-21T08:59:19.999Z</time>
      </trkpt>
      <trkpt lat="43.77576" lon="3.83816">
        <ele>431.1</ele>
        <time>2026-05-21T08:59:20.999Z</time>
      </trkpt>
      <trkpt lat="43.77576" lon="3.83816">
        <ele>431.1</ele>
        <time>2026-05-21T08:59:21.999Z</time>
      </trkpt>
      <trkpt lat="43.77576" lon="3.83816">
        <ele>430.9</ele>
        <time>2026-05-21T08:59:22.999Z</time>
      </trkpt>
      <trkpt lat="43.77576" lon="3.83816">
        <ele>430.8</ele>
        <time>2026-05-21T08:59:23.999Z</time>
      </trkpt>
      <trkpt lat="43.77576" lon="3.83816">
        <ele>430.6</ele>
        <time>2026-05-21T08:59:24.999Z</time>
      </trkpt>
      <trkpt lat="43.77576" lon="3.83816">
        <ele>430.6</ele>
        <time>2026-05-21T08:59:25.999Z</time>
      </trkpt>
      <trkpt lat="43.77576" lon="3.83816">
        <ele>430.6</ele>
        <time>2026-05-21T08:59:26.999Z</time>
      </trkpt>
      <trkpt lat="43.77576" lon="3.83816">
        <ele>430.5</ele>
        <time>2026-05-21T08:59:27.999Z</time>
      </trkpt>
      <trkpt lat="43.77576" lon="3.83815">
        <ele>430.3</ele>
        <time>2026-05-21T08:59:28.999Z</time>
      </trkpt>
      <trkpt lat="43.77575" lon="3.83815">
        <ele>430.1</ele>
        <time>2026-05-21T08:59:29.999Z</time>
      </trkpt>
      <trkpt lat="43.77575" lon="3.83815">
        <ele>429.9</ele>
        <time>2026-05-21T08:59:30.999Z</time>
      </trkpt>
      <trkpt lat="43.77576" lon="3.83815">
        <ele>429.8</ele>
        <time>2026-05-21T08:59:31.999Z</time>
      </trkpt>
      <trkpt lat="43.77576" lon="3.83816">
        <ele>429.5</ele>
        <time>2026-05-21T08:59:32.999Z</time>
      </trkpt>
      <trkpt lat="43.77576" lon="3.83816">
        <ele>429.3</ele>
        <time>2026-05-21T08:59:33.999Z</time>
      </trkpt>
      <trkpt lat="43.77576" lon="3.83816">
        <ele>429.5</ele>
        <time>2026-05-21T08:59:34.999Z</time>
      </trkpt>
      <trkpt lat="43.77576" lon="3.83816">
        <ele>429.5</ele>
        <time>2026-05-21T08:59:35.999Z</time>
      </trkpt>
      <trkpt lat="43.77576" lon="3.83816">
        <ele>429.4</ele>
        <time>2026-05-21T08:59:36.999Z</time>
      </trkpt>
      <trkpt lat="43.77576" lon="3.83816">
        <ele>429.1</ele>
        <time>2026-05-21T08:59:38.999Z</time>
      </trkpt>
      <trkpt lat="43.77576" lon="3.83816">
        <ele>429</ele>
        <time>2026-05-21T08:59:39.999Z</time>
      </trkpt>
      <trkpt lat="43.77576" lon="3.83816">
        <ele>428.8</ele>
        <time>2026-05-21T08:59:40.999Z</time>
      </trkpt>
      <trkpt lat="43.77576" lon="3.83816">
        <ele>428.8</ele>
        <time>2026-05-21T08:59:41.999Z</time>
      </trkpt>
      <trkpt lat="43.77576" lon="3.83816">
        <ele>428.8</ele>
        <time>2026-05-21T08:59:42.999Z</time>
      </trkpt>
      <trkpt lat="43.77576" lon="3.83816">
        <ele>428.7</ele>
        <time>2026-05-21T08:59:43.999Z</time>
      </trkpt>
      <trkpt lat="43.77576" lon="3.83816">
        <ele>428.6</ele>
        <time>2026-05-21T08:59:44.999Z</time>
      </trkpt>
      <trkpt lat="43.77576" lon="3.83816">
        <ele>428.5</ele>
        <time>2026-05-21T08:59:45.999Z</time>
      </trkpt>
      <trkpt lat="43.77576" lon="3.83816">
        <ele>428.1</ele>
        <time>2026-05-21T08:59:46.999Z</time>
      </trkpt>
      <trkpt lat="43.77576" lon="3.83816">
        <ele>427.9</ele>
        <time>2026-05-21T08:59:47.999Z</time>
      </trkpt>
      <trkpt lat="43.77576" lon="3.83816">
        <ele>427.8</ele>
        <time>2026-05-21T08:59:48.999Z</time>
      </trkpt>
      <trkpt lat="43.77576" lon="3.83816">
        <ele>427.8</ele>
        <time>2026-05-21T08:59:49.999Z</time>
      </trkpt>
      <trkpt lat="43.77576" lon="3.83816">
        <ele>427.7</ele>
        <time>2026-05-21T08:59:50.999Z</time>
      </trkpt>
      <trkpt lat="43.77576" lon="3.83816">
        <ele>427.5</ele>
        <time>2026-05-21T08:59:51.999Z</time>
      </trkpt>
      <trkpt lat="43.77576" lon="3.83815">
        <ele>427.6</ele>
        <time>2026-05-21T08:59:52.999Z</time>
      </trkpt>
      <trkpt lat="43.77576" lon="3.83815">
        <ele>427.5</ele>
        <time>2026-05-21T08:59:53.999Z</time>
      </trkpt>
      <trkpt lat="43.77576" lon="3.83815">
        <ele>427.6</ele>
        <time>2026-05-21T08:59:54.999Z</time>
      </trkpt>
      <trkpt lat="43.77576" lon="3.83815">
        <ele>427.7</ele>
        <time>2026-05-21T08:59:55.999Z</time>
      </trkpt>
      <trkpt lat="43.77576" lon="3.83815">
        <ele>427.6</ele>
        <time>2026-05-21T08:59:56.999Z</time>
      </trkpt>
      <trkpt lat="43.77576" lon="3.83815">
        <ele>427.5</ele>
        <time>2026-05-21T08:59:57.999Z</time>
      </trkpt>
      <trkpt lat="43.77576" lon="3.83815">
        <ele>427.3</ele>
        <time>2026-05-21T08:59:58.999Z</time>
      </trkpt>
      <trkpt lat="43.77576" lon="3.83815">
        <ele>427.3</ele>
        <time>2026-05-21T08:59:59.999Z</time>
      </trkpt>
      <trkpt lat="43.77576" lon="3.83815">
        <ele>427.3</ele>
        <time>2026-05-21T09:00:00.999Z</time>
      </trkpt>
      <trkpt lat="43.77576" lon="3.83814">
        <ele>427.3</ele>
        <time>2026-05-21T09:00:01.999Z</time>
      </trkpt>
      <trkpt lat="43.77576" lon="3.83814">
        <ele>427.3</ele>
        <time>2026-05-21T09:00:02.999Z</time>
      </trkpt>
      <trkpt lat="43.77576" lon="3.83814">
        <ele>427.4</ele>
        <time>2026-05-21T09:00:03.999Z</time>
      </trkpt>
      <trkpt lat="43.77576" lon="3.83814">
        <ele>427.4</ele>
        <time>2026-05-21T09:00:04.999Z</time>
      </trkpt>
      <trkpt lat="43.77576" lon="3.83814">
        <ele>427.3</ele>
        <time>2026-05-21T09:00:05.999Z</time>
      </trkpt>
      <trkpt lat="43.77576" lon="3.83814">
        <ele>427</ele>
        <time>2026-05-21T09:00:07.999Z</time>
      </trkpt>
      <trkpt lat="43.77576" lon="3.83813">
        <ele>427</ele>
        <time>2026-05-21T09:00:08.999Z</time>
      </trkpt>
      <trkpt lat="43.77576" lon="3.83812">
        <ele>426.8</ele>
        <time>2026-05-21T09:00:09.999Z</time>
      </trkpt>
      <trkpt lat="43.77576" lon="3.83811">
        <ele>426.8</ele>
        <time>2026-05-21T09:00:10.999Z</time>
      </trkpt>
      <trkpt lat="43.77576" lon="3.83811">
        <ele>426.8</ele>
        <time>2026-05-21T09:00:11.999Z</time>
      </trkpt>
      <trkpt lat="43.77576" lon="3.83811">
        <ele>426.7</ele>
        <time>2026-05-21T09:00:12.999Z</time>
      </trkpt>
      <trkpt lat="43.77576" lon="3.8381">
        <ele>426.8</ele>
        <time>2026-05-21T09:00:13.999Z</time>
      </trkpt>
      <trkpt lat="43.77576" lon="3.8381">
        <ele>426.8</ele>
        <time>2026-05-21T09:00:14.999Z</time>
      </trkpt>
      <trkpt lat="43.77576" lon="3.8381">
        <ele>426.8</ele>
        <time>2026-05-21T09:00:15.999Z</time>
      </trkpt>
      <trkpt lat="43.77576" lon="3.8381">
        <ele>427.5</ele>
        <time>2026-05-21T09:00:16.999Z</time>
      </trkpt>
      <trkpt lat="43.77576" lon="3.8381">
        <ele>427.4</ele>
        <time>2026-05-21T09:00:17.999Z</time>
      </trkpt>
      <trkpt lat="43.77576" lon="3.8381">
        <ele>427.3</ele>
        <time>2026-05-21T09:00:18.999Z</time>
      </trkpt>
      <trkpt lat="43.77576" lon="3.8381">
        <ele>427.3</ele>
        <time>2026-05-21T09:00:19.999Z</time>
      </trkpt>
      <trkpt lat="43.77575" lon="3.8381">
        <ele>427.1</ele>
        <time>2026-05-21T09:00:20.999Z</time>
      </trkpt>
      <trkpt lat="43.77575" lon="3.8381">
        <ele>427.1</ele>
        <time>2026-05-21T09:00:21.999Z</time>
      </trkpt>
      <trkpt lat="43.77575" lon="3.83809">
        <ele>427.1</ele>
        <time>2026-05-21T09:00:22.999Z</time>
      </trkpt>
      <trkpt lat="43.77575" lon="3.83808">
        <ele>426.9</ele>
        <time>2026-05-21T09:00:23.999Z</time>
      </trkpt>
      <trkpt lat="43.77575" lon="3.83807">
        <ele>426.7</ele>
        <time>2026-05-21T09:00:24.999Z</time>
      </trkpt>
      <trkpt lat="43.77574" lon="3.83807">
        <ele>426.6</ele>
        <time>2026-05-21T09:00:25.999Z</time>
      </trkpt>
      <trkpt lat="43.77574" lon="3.83807">
        <ele>426.9</ele>
        <time>2026-05-21T09:00:26.999Z</time>
      </trkpt>
      <trkpt lat="43.77574" lon="3.83807">
        <ele>427</ele>
        <time>2026-05-21T09:00:27.999Z</time>
      </trkpt>
      <trkpt lat="43.77574" lon="3.83807">
        <ele>426.8</ele>
        <time>2026-05-21T09:00:28.999Z</time>
      </trkpt>
      <trkpt lat="43.77574" lon="3.83806">
        <ele>426.6</ele>
        <time>2026-05-21T09:00:29.999Z</time>
      </trkpt>
      <trkpt lat="43.77574" lon="3.83805">
        <ele>426.3</ele>
        <time>2026-05-21T09:00:30.999Z</time>
      </trkpt>
      <trkpt lat="43.77574" lon="3.83804">
        <ele>426.3</ele>
        <time>2026-05-21T09:00:31.999Z</time>
      </trkpt>
      <trkpt lat="43.77574" lon="3.83804">
        <ele>426.3</ele>
        <time>2026-05-21T09:00:32.999Z</time>
      </trkpt>
      <trkpt lat="43.77574" lon="3.83804">
        <ele>426.2</ele>
        <time>2026-05-21T09:00:33.999Z</time>
      </trkpt>
      <trkpt lat="43.77574" lon="3.83804">
        <ele>426.4</ele>
        <time>2026-05-21T09:00:34.999Z</time>
      </trkpt>
      <trkpt lat="43.77574" lon="3.83804">
        <ele>426.5</ele>
        <time>2026-05-21T09:00:35.999Z</time>
      </trkpt>
      <trkpt lat="43.77574" lon="3.83804">
        <ele>426.5</ele>
        <time>2026-05-21T09:00:36.999Z</time>
      </trkpt>
      <trkpt lat="43.77574" lon="3.83804">
        <ele>427</ele>
        <time>2026-05-21T09:00:37.999Z</time>
      </trkpt>
      <trkpt lat="43.77574" lon="3.83804">
        <ele>427</ele>
        <time>2026-05-21T09:00:38.999Z</time>
      </trkpt>
      <trkpt lat="43.77574" lon="3.83804">
        <ele>427</ele>
        <time>2026-05-21T09:00:39.999Z</time>
      </trkpt>
      <trkpt lat="43.77574" lon="3.83804">
        <ele>427</ele>
        <time>2026-05-21T09:00:40.999Z</time>
      </trkpt>
      <trkpt lat="43.77574" lon="3.83804">
        <ele>427.2</ele>
        <time>2026-05-21T09:00:41.999Z</time>
      </trkpt>
      <trkpt lat="43.77574" lon="3.83804">
        <ele>427.4</ele>
        <time>2026-05-21T09:00:42.999Z</time>
      </trkpt>
      <trkpt lat="43.77574" lon="3.83804">
        <ele>427.5</ele>
        <time>2026-05-21T09:00:43.999Z</time>
      </trkpt>
      <trkpt lat="43.77574" lon="3.83804">
        <ele>427.5</ele>
        <time>2026-05-21T09:00:44.999Z</time>
      </trkpt>
      <trkpt lat="43.77574" lon="3.83804">
        <ele>427.5</ele>
        <time>2026-05-21T09:00:45.999Z</time>
      </trkpt>
      <trkpt lat="43.77574" lon="3.83804">
        <ele>427.7</ele>
        <time>2026-05-21T09:00:46.999Z</time>
      </trkpt>
      <trkpt lat="43.77574" lon="3.83804">
        <ele>427.9</ele>
        <time>2026-05-21T09:00:47.999Z</time>
      </trkpt>
      <trkpt lat="43.77574" lon="3.83803">
        <ele>428.2</ele>
        <time>2026-05-21T09:00:48.999Z</time>
      </trkpt>
      <trkpt lat="43.77574" lon="3.83803">
        <ele>428.3</ele>
        <time>2026-05-21T09:00:49.999Z</time>
      </trkpt>
      <trkpt lat="43.77574" lon="3.83803">
        <ele>428.2</ele>
        <time>2026-05-21T09:00:51.999Z</time>
      </trkpt>
      <trkpt lat="43.77574" lon="3.83802">
        <ele>428.3</ele>
        <time>2026-05-21T09:00:52.999Z</time>
      </trkpt>
      <trkpt lat="43.77574" lon="3.83802">
        <ele>428.2</ele>
        <time>2026-05-21T09:00:53.999Z</time>
      </trkpt>
      <trkpt lat="43.77574" lon="3.83802">
        <ele>428.2</ele>
        <time>2026-05-21T09:00:54.999Z</time>
      </trkpt>
      <trkpt lat="43.77574" lon="3.83801">
        <ele>428.2</ele>
        <time>2026-05-21T09:00:55.999Z</time>
      </trkpt>
      <trkpt lat="43.77574" lon="3.83801">
        <ele>428</ele>
        <time>2026-05-21T09:00:56.999Z</time>
      </trkpt>
      <trkpt lat="43.77574" lon="3.83801">
        <ele>427.8</ele>
        <time>2026-05-21T09:00:57.999Z</time>
      </trkpt>
      <trkpt lat="43.77574" lon="3.83801">
        <ele>427.7</ele>
        <time>2026-05-21T09:00:58.999Z</time>
      </trkpt>
      <trkpt lat="43.77574" lon="3.83801">
        <ele>427.8</ele>
        <time>2026-05-21T09:00:59.999Z</time>
      </trkpt>
      <trkpt lat="43.77574" lon="3.83801">
        <ele>427.7</ele>
        <time>2026-05-21T09:01:00.999Z</time>
      </trkpt>
      <trkpt lat="43.77574" lon="3.83801">
        <ele>427.6</ele>
        <time>2026-05-21T09:01:01.999Z</time>
      </trkpt>
      <trkpt lat="43.77574" lon="3.83801">
        <ele>427.6</ele>
        <time>2026-05-21T09:01:02.999Z</time>
      </trkpt>
      <trkpt lat="43.77574" lon="3.838">
        <ele>427.6</ele>
        <time>2026-05-21T09:01:03.999Z</time>
      </trkpt>
      <trkpt lat="43.77574" lon="3.838">
        <ele>427.5</ele>
        <time>2026-05-21T09:01:04.999Z</time>
      </trkpt>
      <trkpt lat="43.77574" lon="3.838">
        <ele>427.5</ele>
        <time>2026-05-21T09:01:05.999Z</time>
      </trkpt>
      <trkpt lat="43.77574" lon="3.838">
        <ele>427.5</ele>
        <time>2026-05-21T09:01:06.999Z</time>
      </trkpt>
      <trkpt lat="43.77574" lon="3.838">
        <ele>427.4</ele>
        <time>2026-05-21T09:01:07.999Z</time>
      </trkpt>
      <trkpt lat="43.77573" lon="3.838">
        <ele>427.2</ele>
        <time>2026-05-21T09:01:08.999Z</time>
      </trkpt>
      <trkpt lat="43.77573" lon="3.838">
        <ele>427.1</ele>
        <time>2026-05-21T09:01:09.999Z</time>
      </trkpt>
      <trkpt lat="43.77573" lon="3.838">
        <ele>427</ele>
        <time>2026-05-21T09:01:10.999Z</time>
      </trkpt>
      <trkpt lat="43.77573" lon="3.838">
        <ele>426.8</ele>
        <time>2026-05-21T09:01:11.999Z</time>
      </trkpt>
      <trkpt lat="43.77573" lon="3.838">
        <ele>426.9</ele>
        <time>2026-05-21T09:01:12.999Z</time>
      </trkpt>
      <trkpt lat="43.77573" lon="3.838">
        <ele>426.9</ele>
        <time>2026-05-21T09:01:13.999Z</time>
      </trkpt>
      <trkpt lat="43.77573" lon="3.838">
        <ele>426.9</ele>
        <time>2026-05-21T09:01:14.999Z</time>
      </trkpt>
      <trkpt lat="43.77573" lon="3.838">
        <ele>426.9</ele>
        <time>2026-05-21T09:01:15.999Z</time>
      </trkpt>
      <trkpt lat="43.77573" lon="3.838">
        <ele>426.9</ele>
        <time>2026-05-21T09:01:16.999Z</time>
      </trkpt>
      <trkpt lat="43.77573" lon="3.838">
        <ele>426.8</ele>
        <time>2026-05-21T09:01:17.999Z</time>
      </trkpt>
      <trkpt lat="43.77573" lon="3.83799">
        <ele>426.7</ele>
        <time>2026-05-21T09:01:18.999Z</time>
      </trkpt>
      <trkpt lat="43.77573" lon="3.83799">
        <ele>426.8</ele>
        <time>2026-05-21T09:01:19.999Z</time>
      </trkpt>
      <trkpt lat="43.77573" lon="3.83799">
        <ele>427</ele>
        <time>2026-05-21T09:01:20.999Z</time>
      </trkpt>
      <trkpt lat="43.77573" lon="3.83799">
        <ele>426.8</ele>
        <time>2026-05-21T09:01:21.999Z</time>
      </trkpt>
      <trkpt lat="43.77573" lon="3.83799">
        <ele>426.7</ele>
        <time>2026-05-21T09:01:22.999Z</time>
      </trkpt>
      <trkpt lat="43.77573" lon="3.83799">
        <ele>426.5</ele>
        <time>2026-05-21T09:01:23.999Z</time>
      </trkpt>
      <trkpt lat="43.77573" lon="3.83799">
        <ele>426.4</ele>
        <time>2026-05-21T09:01:24.999Z</time>
      </trkpt>
      <trkpt lat="43.77573" lon="3.83799">
        <ele>426.4</ele>
        <time>2026-05-21T09:01:25.999Z</time>
      </trkpt>
      <trkpt lat="43.77573" lon="3.83799">
        <ele>426.6</ele>
        <time>2026-05-21T09:01:26.999Z</time>
      </trkpt>
      <trkpt lat="43.77573" lon="3.83799">
        <ele>426.9</ele>
        <time>2026-05-21T09:01:27.999Z</time>
      </trkpt>
      <trkpt lat="43.77573" lon="3.83799">
        <ele>427</ele>
        <time>2026-05-21T09:01:28.999Z</time>
      </trkpt>
      <trkpt lat="43.77573" lon="3.83799">
        <ele>427</ele>
        <time>2026-05-21T09:01:29.999Z</time>
      </trkpt>
      <trkpt lat="43.77573" lon="3.83799">
        <ele>427.1</ele>
        <time>2026-05-21T09:01:30.999Z</time>
      </trkpt>
      <trkpt lat="43.77573" lon="3.83798">
        <ele>427.3</ele>
        <time>2026-05-21T09:01:31.999Z</time>
      </trkpt>
      <trkpt lat="43.77572" lon="3.83798">
        <ele>427.4</ele>
        <time>2026-05-21T09:01:32.999Z</time>
      </trkpt>
      <trkpt lat="43.77572" lon="3.83798">
        <ele>427.7</ele>
        <time>2026-05-21T09:01:33.999Z</time>
      </trkpt>
      <trkpt lat="43.77571" lon="3.83797">
        <ele>427.7</ele>
        <time>2026-05-21T09:01:34.999Z</time>
      </trkpt>
      <trkpt lat="43.7757" lon="3.83797">
        <ele>427.7</ele>
        <time>2026-05-21T09:01:35.999Z</time>
      </trkpt>
      <trkpt lat="43.7757" lon="3.83796">
        <ele>428</ele>
        <time>2026-05-21T09:01:36.999Z</time>
      </trkpt>
      <trkpt lat="43.7757" lon="3.83795">
        <ele>428.2</ele>
        <time>2026-05-21T09:01:37.999Z</time>
      </trkpt>
      <trkpt lat="43.7757" lon="3.83795">
        <ele>428.2</ele>
        <time>2026-05-21T09:01:38.999Z</time>
      </trkpt>
      <trkpt lat="43.7757" lon="3.83794">
        <ele>428.3</ele>
        <time>2026-05-21T09:01:39.999Z</time>
      </trkpt>
      <trkpt lat="43.7757" lon="3.83794">
        <ele>427.2</ele>
        <time>2026-05-21T09:01:40.999Z</time>
      </trkpt>
      <trkpt lat="43.7757" lon="3.83794">
        <ele>427.2</ele>
        <time>2026-05-21T09:01:41.999Z</time>
      </trkpt>
      <trkpt lat="43.7757" lon="3.83794">
        <ele>427.7</ele>
        <time>2026-05-21T09:01:42.999Z</time>
      </trkpt>
      <trkpt lat="43.7757" lon="3.83794">
        <ele>428</ele>
        <time>2026-05-21T09:01:43.999Z</time>
      </trkpt>
      <trkpt lat="43.7757" lon="3.83795">
        <ele>428.2</ele>
        <time>2026-05-21T09:01:44.999Z</time>
      </trkpt>
      <trkpt lat="43.7757" lon="3.83795">
        <ele>428.5</ele>
        <time>2026-05-21T09:01:45.999Z</time>
      </trkpt>
      <trkpt lat="43.7757" lon="3.83795">
        <ele>428.6</ele>
        <time>2026-05-21T09:01:46.999Z</time>
      </trkpt>
      <trkpt lat="43.7757" lon="3.83795">
        <ele>428.5</ele>
        <time>2026-05-21T09:01:47.999Z</time>
      </trkpt>
      <trkpt lat="43.77571" lon="3.83795">
        <ele>428.4</ele>
        <time>2026-05-21T09:01:48.999Z</time>
      </trkpt>
      <trkpt lat="43.77571" lon="3.83795">
        <ele>428.4</ele>
        <time>2026-05-21T09:01:49.999Z</time>
      </trkpt>
      <trkpt lat="43.77571" lon="3.83795">
        <ele>428.4</ele>
        <time>2026-05-21T09:01:50.999Z</time>
      </trkpt>
      <trkpt lat="43.77571" lon="3.83795">
        <ele>428.3</ele>
        <time>2026-05-21T09:01:51.999Z</time>
      </trkpt>
      <trkpt lat="43.77571" lon="3.83795">
        <ele>428.6</ele>
        <time>2026-05-21T09:01:52.999Z</time>
      </trkpt>
      <trkpt lat="43.77571" lon="3.83795">
        <ele>428.6</ele>
        <time>2026-05-21T09:01:53.999Z</time>
      </trkpt>
      <trkpt lat="43.7757" lon="3.83796">
        <ele>428.7</ele>
        <time>2026-05-21T09:01:55.999Z</time>
      </trkpt>
      <trkpt lat="43.7757" lon="3.83796">
        <ele>428.9</ele>
        <time>2026-05-21T09:01:56.999Z</time>
      </trkpt>
      <trkpt lat="43.7757" lon="3.83796">
        <ele>429</ele>
        <time>2026-05-21T09:01:57.999Z</time>
      </trkpt>
      <trkpt lat="43.7757" lon="3.83796">
        <ele>429.1</ele>
        <time>2026-05-21T09:01:58.999Z</time>
      </trkpt>
      <trkpt lat="43.77571" lon="3.83796">
        <ele>428.6</ele>
        <time>2026-05-21T09:01:59.999Z</time>
      </trkpt>
      <trkpt lat="43.77572" lon="3.83796">
        <ele>428.7</ele>
        <time>2026-05-21T09:02:00.999Z</time>
      </trkpt>
      <trkpt lat="43.77572" lon="3.83796">
        <ele>428.6</ele>
        <time>2026-05-21T09:02:01.999Z</time>
      </trkpt>
      <trkpt lat="43.77572" lon="3.83796">
        <ele>428.5</ele>
        <time>2026-05-21T09:02:02.999Z</time>
      </trkpt>
      <trkpt lat="43.77572" lon="3.83796">
        <ele>428.4</ele>
        <time>2026-05-21T09:02:03.999Z</time>
      </trkpt>
      <trkpt lat="43.77572" lon="3.83796">
        <ele>428.5</ele>
        <time>2026-05-21T09:02:04.999Z</time>
      </trkpt>
      <trkpt lat="43.77572" lon="3.83796">
        <ele>428.5</ele>
        <time>2026-05-21T09:02:06.000Z</time>
      </trkpt>
      <trkpt lat="43.77572" lon="3.83796">
        <ele>428.6</ele>
        <time>2026-05-21T09:02:07.000Z</time>
      </trkpt>
      <trkpt lat="43.77572" lon="3.83796">
        <ele>428.4</ele>
        <time>2026-05-21T09:02:08.000Z</time>
      </trkpt>
      <trkpt lat="43.77572" lon="3.83796">
        <ele>428.2</ele>
        <time>2026-05-21T09:02:09.000Z</time>
      </trkpt>
      <trkpt lat="43.77572" lon="3.83796">
        <ele>428.2</ele>
        <time>2026-05-21T09:02:10.000Z</time>
      </trkpt>
      <trkpt lat="43.77572" lon="3.83796">
        <ele>428.1</ele>
        <time>2026-05-21T09:02:11.000Z</time>
      </trkpt>
      <trkpt lat="43.77572" lon="3.83796">
        <ele>428.2</ele>
        <time>2026-05-21T09:02:12.000Z</time>
      </trkpt>
      <trkpt lat="43.77572" lon="3.83796">
        <ele>428.3</ele>
        <time>2026-05-21T09:02:13.000Z</time>
      </trkpt>
      <trkpt lat="43.77572" lon="3.83797">
        <ele>428.3</ele>
        <time>2026-05-21T09:02:14.000Z</time>
      </trkpt>
      <trkpt lat="43.77572" lon="3.83796">
        <ele>428.2</ele>
        <time>2026-05-21T09:02:15.000Z</time>
      </trkpt>
      <trkpt lat="43.77572" lon="3.83796">
        <ele>428.1</ele>
        <time>2026-05-21T09:02:16.000Z</time>
      </trkpt>
      <trkpt lat="43.77572" lon="3.83797">
        <ele>428</ele>
        <time>2026-05-21T09:02:17.000Z</time>
      </trkpt>
      <trkpt lat="43.77572" lon="3.83797">
        <ele>428.1</ele>
        <time>2026-05-21T09:02:18.000Z</time>
      </trkpt>
      <trkpt lat="43.77572" lon="3.83797">
        <ele>428.1</ele>
        <time>2026-05-21T09:02:19.000Z</time>
      </trkpt>
      <trkpt lat="43.77572" lon="3.83797">
        <ele>428.2</ele>
        <time>2026-05-21T09:02:20.000Z</time>
      </trkpt>
      <trkpt lat="43.77572" lon="3.83797">
        <ele>428</ele>
        <time>2026-05-21T09:02:21.000Z</time>
      </trkpt>
      <trkpt lat="43.77572" lon="3.83797">
        <ele>427.8</ele>
        <time>2026-05-21T09:02:22.000Z</time>
      </trkpt>
      <trkpt lat="43.77573" lon="3.83797">
        <ele>427.9</ele>
        <time>2026-05-21T09:02:23.000Z</time>
      </trkpt>
      <trkpt lat="43.77573" lon="3.83797">
        <ele>427.7</ele>
        <time>2026-05-21T09:02:24.000Z</time>
      </trkpt>
      <trkpt lat="43.77573" lon="3.83797">
        <ele>427.7</ele>
        <time>2026-05-21T09:02:25.000Z</time>
      </trkpt>
      <trkpt lat="43.77573" lon="3.83797">
        <ele>427.8</ele>
        <time>2026-05-21T09:02:26.000Z</time>
      </trkpt>
      <trkpt lat="43.77573" lon="3.83797">
        <ele>427.8</ele>
        <time>2026-05-21T09:02:27.000Z</time>
      </trkpt>
      <trkpt lat="43.77573" lon="3.83797">
        <ele>427.9</ele>
        <time>2026-05-21T09:02:28.000Z</time>
      </trkpt>
      <trkpt lat="43.77573" lon="3.83797">
        <ele>428</ele>
        <time>2026-05-21T09:02:29.000Z</time>
      </trkpt>
      <trkpt lat="43.77573" lon="3.83797">
        <ele>428</ele>
        <time>2026-05-21T09:02:30.000Z</time>
      </trkpt>
      <trkpt lat="43.77573" lon="3.83797">
        <ele>427.9</ele>
        <time>2026-05-21T09:02:31.000Z</time>
      </trkpt>
      <trkpt lat="43.77573" lon="3.83797">
        <ele>427.8</ele>
        <time>2026-05-21T09:02:32.000Z</time>
      </trkpt>
      <trkpt lat="43.77573" lon="3.83797">
        <ele>427.8</ele>
        <time>2026-05-21T09:02:33.000Z</time>
      </trkpt>
      <trkpt lat="43.77573" lon="3.83797">
        <ele>427.8</ele>
        <time>2026-05-21T09:02:34.000Z</time>
      </trkpt>
      <trkpt lat="43.77573" lon="3.83797">
        <ele>427.8</ele>
        <time>2026-05-21T09:02:35.000Z</time>
      </trkpt>
      <trkpt lat="43.77573" lon="3.83797">
        <ele>427.8</ele>
        <time>2026-05-21T09:02:36.000Z</time>
      </trkpt>
      <trkpt lat="43.77573" lon="3.83797">
        <ele>428</ele>
        <time>2026-05-21T09:02:37.000Z</time>
      </trkpt>
      <trkpt lat="43.77573" lon="3.83797">
        <ele>428</ele>
        <time>2026-05-21T09:02:38.000Z</time>
      </trkpt>
      <trkpt lat="43.77573" lon="3.83797">
        <ele>428.2</ele>
        <time>2026-05-21T09:02:39.000Z</time>
      </trkpt>
      <trkpt lat="43.77573" lon="3.83797">
        <ele>428.3</ele>
        <time>2026-05-21T09:02:40.000Z</time>
      </trkpt>
      <trkpt lat="43.77573" lon="3.83797">
        <ele>428.5</ele>
        <time>2026-05-21T09:02:41.000Z</time>
      </trkpt>
      <trkpt lat="43.77573" lon="3.83797">
        <ele>428.5</ele>
        <time>2026-05-21T09:02:42.000Z</time>
      </trkpt>
      <trkpt lat="43.77573" lon="3.83797">
        <ele>428.4</ele>
        <time>2026-05-21T09:02:43.000Z</time>
      </trkpt>
      <trkpt lat="43.77573" lon="3.83797">
        <ele>428.4</ele>
        <time>2026-05-21T09:02:44.000Z</time>
      </trkpt>
      <trkpt lat="43.77573" lon="3.83796">
        <ele>428.6</ele>
        <time>2026-05-21T09:02:45.000Z</time>
      </trkpt>
      <trkpt lat="43.77573" lon="3.83796">
        <ele>428.8</ele>
        <time>2026-05-21T09:02:46.000Z</time>
      </trkpt>
      <trkpt lat="43.77573" lon="3.83796">
        <ele>429</ele>
        <time>2026-05-21T09:02:47.000Z</time>
      </trkpt>
      <trkpt lat="43.77573" lon="3.83796">
        <ele>429.1</ele>
        <time>2026-05-21T09:02:48.000Z</time>
      </trkpt>
      <trkpt lat="43.77573" lon="3.83796">
        <ele>429.3</ele>
        <time>2026-05-21T09:02:49.000Z</time>
      </trkpt>
      <trkpt lat="43.77573" lon="3.83796">
        <ele>429.5</ele>
        <time>2026-05-21T09:02:50.000Z</time>
      </trkpt>
      <trkpt lat="43.77573" lon="3.83796">
        <ele>429.6</ele>
        <time>2026-05-21T09:02:51.000Z</time>
      </trkpt>
      <trkpt lat="43.77573" lon="3.83796">
        <ele>429.6</ele>
        <time>2026-05-21T09:02:52.000Z</time>
      </trkpt>
      <trkpt lat="43.77573" lon="3.83797">
        <ele>429.3</ele>
        <time>2026-05-21T09:02:54.000Z</time>
      </trkpt>
      <trkpt lat="43.77573" lon="3.83797">
        <ele>429.4</ele>
        <time>2026-05-21T09:02:55.000Z</time>
      </trkpt>
      <trkpt lat="43.77573" lon="3.83796">
        <ele>429.5</ele>
        <time>2026-05-21T09:02:56.000Z</time>
      </trkpt>
      <trkpt lat="43.77573" lon="3.83796">
        <ele>429.7</ele>
        <time>2026-05-21T09:02:57.000Z</time>
      </trkpt>
      <trkpt lat="43.77573" lon="3.83796">
        <ele>429.7</ele>
        <time>2026-05-21T09:02:58.000Z</time>
      </trkpt>
      <trkpt lat="43.77573" lon="3.83796">
        <ele>429.6</ele>
        <time>2026-05-21T09:02:59.000Z</time>
      </trkpt>
      <trkpt lat="43.77573" lon="3.83796">
        <ele>429.6</ele>
        <time>2026-05-21T09:03:00.000Z</time>
      </trkpt>
      <trkpt lat="43.77573" lon="3.83796">
        <ele>429.6</ele>
        <time>2026-05-21T09:03:01.000Z</time>
      </trkpt>
      <trkpt lat="43.77573" lon="3.83796">
        <ele>429.6</ele>
        <time>2026-05-21T09:03:02.000Z</time>
      </trkpt>
      <trkpt lat="43.77573" lon="3.83797">
        <ele>430</ele>
        <time>2026-05-21T09:03:03.000Z</time>
      </trkpt>
      <trkpt lat="43.77573" lon="3.83797">
        <ele>430.3</ele>
        <time>2026-05-21T09:03:04.000Z</time>
      </trkpt>
      <trkpt lat="43.77573" lon="3.83797">
        <ele>430.3</ele>
        <time>2026-05-21T09:03:05.000Z</time>
      </trkpt>
      <trkpt lat="43.77573" lon="3.83797">
        <ele>430.3</ele>
        <time>2026-05-21T09:03:06.000Z</time>
      </trkpt>
      <trkpt lat="43.77573" lon="3.83797">
        <ele>430.3</ele>
        <time>2026-05-21T09:03:07.000Z</time>
      </trkpt>
      <trkpt lat="43.77573" lon="3.83797">
        <ele>430.2</ele>
        <time>2026-05-21T09:03:08.000Z</time>
      </trkpt>
      <trkpt lat="43.77573" lon="3.83797">
        <ele>430.2</ele>
        <time>2026-05-21T09:03:09.000Z</time>
      </trkpt>
      <trkpt lat="43.77574" lon="3.83797">
        <ele>430.1</ele>
        <time>2026-05-21T09:03:10.000Z</time>
      </trkpt>
      <trkpt lat="43.77574" lon="3.83797">
        <ele>430.1</ele>
        <time>2026-05-21T09:03:11.000Z</time>
      </trkpt>
      <trkpt lat="43.77574" lon="3.83797">
        <ele>430.2</ele>
        <time>2026-05-21T09:03:12.000Z</time>
      </trkpt>
      <trkpt lat="43.77574" lon="3.83797">
        <ele>430.2</ele>
        <time>2026-05-21T09:03:13.000Z</time>
      </trkpt>
      <trkpt lat="43.77574" lon="3.83797">
        <ele>430.3</ele>
        <time>2026-05-21T09:03:14.000Z</time>
      </trkpt>
      <trkpt lat="43.77574" lon="3.83797">
        <ele>430.1</ele>
        <time>2026-05-21T09:03:15.000Z</time>
      </trkpt>
      <trkpt lat="43.77574" lon="3.83797">
        <ele>429.8</ele>
        <time>2026-05-21T09:03:16.000Z</time>
      </trkpt>
      <trkpt lat="43.77574" lon="3.83797">
        <ele>429.8</ele>
        <time>2026-05-21T09:03:17.000Z</time>
      </trkpt>
      <trkpt lat="43.77574" lon="3.83797">
        <ele>430</ele>
        <time>2026-05-21T09:03:18.000Z</time>
      </trkpt>
      <trkpt lat="43.77574" lon="3.83797">
        <ele>430.2</ele>
        <time>2026-05-21T09:03:19.000Z</time>
      </trkpt>
      <trkpt lat="43.77574" lon="3.83797">
        <ele>430.4</ele>
        <time>2026-05-21T09:03:20.000Z</time>
      </trkpt>
      <trkpt lat="43.77574" lon="3.83797">
        <ele>430.6</ele>
        <time>2026-05-21T09:03:21.000Z</time>
      </trkpt>
      <trkpt lat="43.77574" lon="3.83797">
        <ele>430.9</ele>
        <time>2026-05-21T09:03:22.000Z</time>
      </trkpt>
      <trkpt lat="43.77574" lon="3.83797">
        <ele>431.2</ele>
        <time>2026-05-21T09:03:23.000Z</time>
      </trkpt>
      <trkpt lat="43.77574" lon="3.83797">
        <ele>431.4</ele>
        <time>2026-05-21T09:03:24.000Z</time>
      </trkpt>
      <trkpt lat="43.77574" lon="3.83797">
        <ele>431.5</ele>
        <time>2026-05-21T09:03:25.000Z</time>
      </trkpt>
      <trkpt lat="43.77574" lon="3.83797">
        <ele>431.6</ele>
        <time>2026-05-21T09:03:26.000Z</time>
      </trkpt>
      <trkpt lat="43.77574" lon="3.83797">
        <ele>431.7</ele>
        <time>2026-05-21T09:03:27.000Z</time>
      </trkpt>
      <trkpt lat="43.77574" lon="3.83797">
        <ele>431.8</ele>
        <time>2026-05-21T09:03:28.000Z</time>
      </trkpt>
      <trkpt lat="43.77574" lon="3.83797">
        <ele>431.9</ele>
        <time>2026-05-21T09:03:29.000Z</time>
      </trkpt>
      <trkpt lat="43.77574" lon="3.83797">
        <ele>432.5</ele>
        <time>2026-05-21T09:03:30.000Z</time>
      </trkpt>
      <trkpt lat="43.77574" lon="3.83797">
        <ele>432.7</ele>
        <time>2026-05-21T09:03:31.000Z</time>
      </trkpt>
      <trkpt lat="43.77574" lon="3.83797">
        <ele>432.6</ele>
        <time>2026-05-21T09:03:32.000Z</time>
      </trkpt>
      <trkpt lat="43.77574" lon="3.83797">
        <ele>432.7</ele>
        <time>2026-05-21T09:03:33.000Z</time>
      </trkpt>
      <trkpt lat="43.77574" lon="3.83797">
        <ele>432.7</ele>
        <time>2026-05-21T09:03:34.000Z</time>
      </trkpt>
      <trkpt lat="43.77574" lon="3.83797">
        <ele>432.8</ele>
        <time>2026-05-21T09:03:35.000Z</time>
      </trkpt>
      <trkpt lat="43.77574" lon="3.83796">
        <ele>432.8</ele>
        <time>2026-05-21T09:03:36.000Z</time>
      </trkpt>
      <trkpt lat="43.77574" lon="3.83796">
        <ele>432.7</ele>
        <time>2026-05-21T09:03:37.000Z</time>
      </trkpt>
      <trkpt lat="43.77574" lon="3.83796">
        <ele>432.7</ele>
        <time>2026-05-21T09:03:38.000Z</time>
      </trkpt>
      <trkpt lat="43.77574" lon="3.83796">
        <ele>432.7</ele>
        <time>2026-05-21T09:03:39.000Z</time>
      </trkpt>
      <trkpt lat="43.77574" lon="3.83796">
        <ele>432.7</ele>
        <time>2026-05-21T09:03:40.000Z</time>
      </trkpt>
      <trkpt lat="43.77574" lon="3.83796">
        <ele>432.6</ele>
        <time>2026-05-21T09:03:41.000Z</time>
      </trkpt>
      <trkpt lat="43.77574" lon="3.83795">
        <ele>432.8</ele>
        <time>2026-05-21T09:03:42.000Z</time>
      </trkpt>
      <trkpt lat="43.77574" lon="3.83795">
        <ele>432.9</ele>
        <time>2026-05-21T09:03:43.000Z</time>
      </trkpt>
      <trkpt lat="43.77574" lon="3.83795">
        <ele>432.9</ele>
        <time>2026-05-21T09:03:44.000Z</time>
      </trkpt>
      <trkpt lat="43.77574" lon="3.83795">
        <ele>433.2</ele>
        <time>2026-05-21T09:03:45.000Z</time>
      </trkpt>
      <trkpt lat="43.77574" lon="3.83795">
        <ele>433.5</ele>
        <time>2026-05-21T09:03:46.000Z</time>
      </trkpt>
      <trkpt lat="43.77574" lon="3.83795">
        <ele>433.9</ele>
        <time>2026-05-21T09:03:47.000Z</time>
      </trkpt>
      <trkpt lat="43.77574" lon="3.83795">
        <ele>434.2</ele>
        <time>2026-05-21T09:03:48.000Z</time>
      </trkpt>
      <trkpt lat="43.77574" lon="3.83794">
        <ele>434.8</ele>
        <time>2026-05-21T09:03:49.000Z</time>
      </trkpt>
      <trkpt lat="43.77574" lon="3.83794">
        <ele>435.1</ele>
        <time>2026-05-21T09:03:50.000Z</time>
      </trkpt>
      <trkpt lat="43.77574" lon="3.83794">
        <ele>435.3</ele>
        <time>2026-05-21T09:03:51.000Z</time>
      </trkpt>
      <trkpt lat="43.77574" lon="3.83794">
        <ele>435.8</ele>
        <time>2026-05-21T09:03:52.000Z</time>
      </trkpt>
      <trkpt lat="43.77574" lon="3.83794">
        <ele>436</ele>
        <time>2026-05-21T09:03:53.000Z</time>
      </trkpt>
      <trkpt lat="43.77574" lon="3.83794">
        <ele>436</ele>
        <time>2026-05-21T09:03:54.000Z</time>
      </trkpt>
      <trkpt lat="43.77574" lon="3.83794">
        <ele>435.9</ele>
        <time>2026-05-21T09:03:55.000Z</time>
      </trkpt>
      <trkpt lat="43.77574" lon="3.83794">
        <ele>435.5</ele>
        <time>2026-05-21T09:03:56.000Z</time>
      </trkpt>
      <trkpt lat="43.77574" lon="3.83794">
        <ele>435.4</ele>
        <time>2026-05-21T09:03:57.000Z</time>
      </trkpt>
      <trkpt lat="43.77574" lon="3.83793">
        <ele>435.2</ele>
        <time>2026-05-21T09:03:58.000Z</time>
      </trkpt>
      <trkpt lat="43.77574" lon="3.83793">
        <ele>435.2</ele>
        <time>2026-05-21T09:03:59.000Z</time>
      </trkpt>
      <trkpt lat="43.77574" lon="3.83793">
        <ele>435.2</ele>
        <time>2026-05-21T09:04:00.000Z</time>
      </trkpt>
      <trkpt lat="43.77574" lon="3.83793">
        <ele>435.1</ele>
        <time>2026-05-21T09:04:01.000Z</time>
      </trkpt>
      <trkpt lat="43.77574" lon="3.83793">
        <ele>435.3</ele>
        <time>2026-05-21T09:04:02.000Z</time>
      </trkpt>
      <trkpt lat="43.77574" lon="3.83793">
        <ele>435.6</ele>
        <time>2026-05-21T09:04:03.000Z</time>
      </trkpt>
      <trkpt lat="43.77574" lon="3.83793">
        <ele>435.7</ele>
        <time>2026-05-21T09:04:04.000Z</time>
      </trkpt>
      <trkpt lat="43.77574" lon="3.83793">
        <ele>435.6</ele>
        <time>2026-05-21T09:04:05.000Z</time>
      </trkpt>
      <trkpt lat="43.77574" lon="3.83791">
        <ele>435.5</ele>
        <time>2026-05-21T09:04:06.000Z</time>
      </trkpt>
      <trkpt lat="43.77574" lon="3.8379">
        <ele>435.7</ele>
        <time>2026-05-21T09:04:07.000Z</time>
      </trkpt>
      <trkpt lat="43.77575" lon="3.83789">
        <ele>435.8</ele>
        <time>2026-05-21T09:04:08.000Z</time>
      </trkpt>
      <trkpt lat="43.77575" lon="3.83788">
        <ele>436.1</ele>
        <time>2026-05-21T09:04:09.000Z</time>
      </trkpt>
      <trkpt lat="43.77575" lon="3.83788">
        <ele>436.4</ele>
        <time>2026-05-21T09:04:10.000Z</time>
      </trkpt>
      <trkpt lat="43.77575" lon="3.83788">
        <ele>436.5</ele>
        <time>2026-05-21T09:04:11.000Z</time>
      </trkpt>
      <trkpt lat="43.77575" lon="3.83788">
        <ele>436.5</ele>
        <time>2026-05-21T09:04:12.000Z</time>
      </trkpt>
      <trkpt lat="43.77575" lon="3.83788">
        <ele>436.2</ele>
        <time>2026-05-21T09:04:13.000Z</time>
      </trkpt>
      <trkpt lat="43.77576" lon="3.83788">
        <ele>436.1</ele>
        <time>2026-05-21T09:04:14.000Z</time>
      </trkpt>
      <trkpt lat="43.77576" lon="3.83788">
        <ele>436.5</ele>
        <time>2026-05-21T09:04:15.000Z</time>
      </trkpt>
      <trkpt lat="43.77576" lon="3.83788">
        <ele>436.6</ele>
        <time>2026-05-21T09:04:16.000Z</time>
      </trkpt>
      <trkpt lat="43.77576" lon="3.83788">
        <ele>436.7</ele>
        <time>2026-05-21T09:04:17.000Z</time>
      </trkpt>
      <trkpt lat="43.77576" lon="3.83788">
        <ele>436.5</ele>
        <time>2026-05-21T09:04:18.000Z</time>
      </trkpt>
      <trkpt lat="43.77576" lon="3.83788">
        <ele>436.4</ele>
        <time>2026-05-21T09:04:19.000Z</time>
      </trkpt>
      <trkpt lat="43.77576" lon="3.83788">
        <ele>436.4</ele>
        <time>2026-05-21T09:04:20.000Z</time>
      </trkpt>
      <trkpt lat="43.77576" lon="3.83788">
        <ele>436.4</ele>
        <time>2026-05-21T09:04:21.000Z</time>
      </trkpt>
      <trkpt lat="43.77576" lon="3.83788">
        <ele>436.4</ele>
        <time>2026-05-21T09:04:22.000Z</time>
      </trkpt>
      <trkpt lat="43.77576" lon="3.83787">
        <ele>436.3</ele>
        <time>2026-05-21T09:04:23.000Z</time>
      </trkpt>
      <trkpt lat="43.77576" lon="3.83787">
        <ele>436.3</ele>
        <time>2026-05-21T09:04:24.000Z</time>
      </trkpt>
      <trkpt lat="43.77576" lon="3.83787">
        <ele>436.2</ele>
        <time>2026-05-21T09:04:25.000Z</time>
      </trkpt>
      <trkpt lat="43.77576" lon="3.83787">
        <ele>436.2</ele>
        <time>2026-05-21T09:04:26.000Z</time>
      </trkpt>
      <trkpt lat="43.77576" lon="3.83787">
        <ele>436.3</ele>
        <time>2026-05-21T09:04:27.000Z</time>
      </trkpt>
      <trkpt lat="43.77576" lon="3.83787">
        <ele>436.2</ele>
        <time>2026-05-21T09:04:28.000Z</time>
      </trkpt>
      <trkpt lat="43.77576" lon="3.83787">
        <ele>436.2</ele>
        <time>2026-05-21T09:04:29.000Z</time>
      </trkpt>
      <trkpt lat="43.77576" lon="3.83787">
        <ele>436.2</ele>
        <time>2026-05-21T09:04:30.000Z</time>
      </trkpt>
      <trkpt lat="43.77576" lon="3.83787">
        <ele>436.3</ele>
        <time>2026-05-21T09:04:31.000Z</time>
      </trkpt>
      <trkpt lat="43.77576" lon="3.83787">
        <ele>436.5</ele>
        <time>2026-05-21T09:04:32.000Z</time>
      </trkpt>
      <trkpt lat="43.77576" lon="3.83787">
        <ele>436.7</ele>
        <time>2026-05-21T09:04:33.000Z</time>
      </trkpt>
      <trkpt lat="43.77576" lon="3.83787">
        <ele>436.8</ele>
        <time>2026-05-21T09:04:34.000Z</time>
      </trkpt>
      <trkpt lat="43.77576" lon="3.83787">
        <ele>436.6</ele>
        <time>2026-05-21T09:04:35.000Z</time>
      </trkpt>
      <trkpt lat="43.77576" lon="3.83787">
        <ele>436.6</ele>
        <time>2026-05-21T09:04:36.000Z</time>
      </trkpt>
      <trkpt lat="43.77576" lon="3.83787">
        <ele>436.6</ele>
        <time>2026-05-21T09:04:37.000Z</time>
      </trkpt>
      <trkpt lat="43.77576" lon="3.83787">
        <ele>436.5</ele>
        <time>2026-05-21T09:04:38.000Z</time>
      </trkpt>
      <trkpt lat="43.77576" lon="3.83787">
        <ele>436.4</ele>
        <time>2026-05-21T09:04:39.000Z</time>
      </trkpt>
      <trkpt lat="43.77576" lon="3.83787">
        <ele>436.2</ele>
        <time>2026-05-21T09:04:40.000Z</time>
      </trkpt>
      <trkpt lat="43.77576" lon="3.83787">
        <ele>436.1</ele>
        <time>2026-05-21T09:04:41.000Z</time>
      </trkpt>
      <trkpt lat="43.77576" lon="3.83787">
        <ele>436.1</ele>
        <time>2026-05-21T09:04:42.000Z</time>
      </trkpt>
      <trkpt lat="43.77576" lon="3.83787">
        <ele>436.1</ele>
        <time>2026-05-21T09:04:43.000Z</time>
      </trkpt>
      <trkpt lat="43.77576" lon="3.83787">
        <ele>436.1</ele>
        <time>2026-05-21T09:04:44.000Z</time>
      </trkpt>
      <trkpt lat="43.77576" lon="3.83787">
        <ele>436.2</ele>
        <time>2026-05-21T09:04:45.000Z</time>
      </trkpt>
      <trkpt lat="43.77576" lon="3.83787">
        <ele>436</ele>
        <time>2026-05-21T09:04:46.000Z</time>
      </trkpt>
      <trkpt lat="43.77576" lon="3.83787">
        <ele>435.9</ele>
        <time>2026-05-21T09:04:47.000Z</time>
      </trkpt>
      <trkpt lat="43.77576" lon="3.83787">
        <ele>435.8</ele>
        <time>2026-05-21T09:04:48.000Z</time>
      </trkpt>
      <trkpt lat="43.77576" lon="3.83787">
        <ele>435.8</ele>
        <time>2026-05-21T09:04:49.000Z</time>
      </trkpt>
      <trkpt lat="43.77576" lon="3.83786">
        <ele>436.1</ele>
        <time>2026-05-21T09:04:51.000Z</time>
      </trkpt>
      <trkpt lat="43.77576" lon="3.83786">
        <ele>436.1</ele>
        <time>2026-05-21T09:04:52.000Z</time>
      </trkpt>
      <trkpt lat="43.77576" lon="3.83786">
        <ele>435.8</ele>
        <time>2026-05-21T09:04:53.000Z</time>
      </trkpt>
      <trkpt lat="43.77576" lon="3.83786">
        <ele>435.8</ele>
        <time>2026-05-21T09:04:54.000Z</time>
      </trkpt>
      <trkpt lat="43.77576" lon="3.83786">
        <ele>435.7</ele>
        <time>2026-05-21T09:04:55.000Z</time>
      </trkpt>
      <trkpt lat="43.77576" lon="3.83786">
        <ele>435.6</ele>
        <time>2026-05-21T09:04:56.000Z</time>
      </trkpt>
      <trkpt lat="43.77577" lon="3.83786">
        <ele>435.6</ele>
        <time>2026-05-21T09:04:57.000Z</time>
      </trkpt>
      <trkpt lat="43.77577" lon="3.83785">
        <ele>435.7</ele>
        <time>2026-05-21T09:04:58.000Z</time>
      </trkpt>
      <trkpt lat="43.77577" lon="3.83785">
        <ele>435.6</ele>
        <time>2026-05-21T09:04:59.000Z</time>
      </trkpt>
      <trkpt lat="43.77577" lon="3.83785">
        <ele>435.5</ele>
        <time>2026-05-21T09:05:00.000Z</time>
      </trkpt>
      <trkpt lat="43.77577" lon="3.83785">
        <ele>435.6</ele>
        <time>2026-05-21T09:05:01.000Z</time>
      </trkpt>
      <trkpt lat="43.77577" lon="3.83785">
        <ele>435.7</ele>
        <time>2026-05-21T09:05:02.000Z</time>
      </trkpt>
      <trkpt lat="43.77577" lon="3.83785">
        <ele>435.8</ele>
        <time>2026-05-21T09:05:03.000Z</time>
      </trkpt>
      <trkpt lat="43.77577" lon="3.83786">
        <ele>435.8</ele>
        <time>2026-05-21T09:05:04.000Z</time>
      </trkpt>
      <trkpt lat="43.77577" lon="3.83785">
        <ele>436</ele>
        <time>2026-05-21T09:05:05.000Z</time>
      </trkpt>
      <trkpt lat="43.77577" lon="3.83785">
        <ele>436</ele>
        <time>2026-05-21T09:05:06.000Z</time>
      </trkpt>
      <trkpt lat="43.77577" lon="3.83785">
        <ele>435.9</ele>
        <time>2026-05-21T09:05:07.000Z</time>
      </trkpt>
      <trkpt lat="43.77577" lon="3.83785">
        <ele>436</ele>
        <time>2026-05-21T09:05:08.000Z</time>
      </trkpt>
      <trkpt lat="43.77577" lon="3.83785">
        <ele>436</ele>
        <time>2026-05-21T09:05:09.000Z</time>
      </trkpt>
      <trkpt lat="43.77577" lon="3.83785">
        <ele>435.9</ele>
        <time>2026-05-21T09:05:10.000Z</time>
      </trkpt>
      <trkpt lat="43.77577" lon="3.83785">
        <ele>435.8</ele>
        <time>2026-05-21T09:05:11.000Z</time>
      </trkpt>
      <trkpt lat="43.77577" lon="3.83785">
        <ele>435.9</ele>
        <time>2026-05-21T09:05:12.000Z</time>
      </trkpt>
      <trkpt lat="43.77578" lon="3.83784">
        <ele>435.8</ele>
        <time>2026-05-21T09:05:13.000Z</time>
      </trkpt>
      <trkpt lat="43.77578" lon="3.83784">
        <ele>435.9</ele>
        <time>2026-05-21T09:05:14.000Z</time>
      </trkpt>
      <trkpt lat="43.77578" lon="3.83784">
        <ele>436</ele>
        <time>2026-05-21T09:05:15.000Z</time>
      </trkpt>
      <trkpt lat="43.77578" lon="3.83784">
        <ele>435.9</ele>
        <time>2026-05-21T09:05:16.000Z</time>
      </trkpt>
      <trkpt lat="43.77578" lon="3.83784">
        <ele>435.9</ele>
        <time>2026-05-21T09:05:17.000Z</time>
      </trkpt>
      <trkpt lat="43.77578" lon="3.83784">
        <ele>435.6</ele>
        <time>2026-05-21T09:05:18.000Z</time>
      </trkpt>
      <trkpt lat="43.77577" lon="3.83784">
        <ele>435.4</ele>
        <time>2026-05-21T09:05:19.000Z</time>
      </trkpt>
      <trkpt lat="43.77577" lon="3.83784">
        <ele>435.2</ele>
        <time>2026-05-21T09:05:20.000Z</time>
      </trkpt>
      <trkpt lat="43.77578" lon="3.83783">
        <ele>435</ele>
        <time>2026-05-21T09:05:21.000Z</time>
      </trkpt>
      <trkpt lat="43.77578" lon="3.83782">
        <ele>435</ele>
        <time>2026-05-21T09:05:22.000Z</time>
      </trkpt>
      <trkpt lat="43.77578" lon="3.83781">
        <ele>434.8</ele>
        <time>2026-05-21T09:05:23.000Z</time>
      </trkpt>
      <trkpt lat="43.77578" lon="3.83781">
        <ele>434.5</ele>
        <time>2026-05-21T09:05:24.000Z</time>
      </trkpt>
      <trkpt lat="43.77578" lon="3.83781">
        <ele>434.2</ele>
        <time>2026-05-21T09:05:25.000Z</time>
      </trkpt>
      <trkpt lat="43.77578" lon="3.83781">
        <ele>433.8</ele>
        <time>2026-05-21T09:05:26.000Z</time>
      </trkpt>
      <trkpt lat="43.77578" lon="3.8378">
        <ele>433.7</ele>
        <time>2026-05-21T09:05:27.000Z</time>
      </trkpt>
      <trkpt lat="43.77578" lon="3.8378">
        <ele>433.8</ele>
        <time>2026-05-21T09:05:28.000Z</time>
      </trkpt>
      <trkpt lat="43.77578" lon="3.8378">
        <ele>433.7</ele>
        <time>2026-05-21T09:05:29.000Z</time>
      </trkpt>
      <trkpt lat="43.77578" lon="3.8378">
        <ele>433.6</ele>
        <time>2026-05-21T09:05:30.000Z</time>
      </trkpt>
      <trkpt lat="43.77578" lon="3.8378">
        <ele>433.3</ele>
        <time>2026-05-21T09:05:31.000Z</time>
      </trkpt>
      <trkpt lat="43.77578" lon="3.83779">
        <ele>433.1</ele>
        <time>2026-05-21T09:05:32.000Z</time>
      </trkpt>
      <trkpt lat="43.77578" lon="3.83779">
        <ele>432.9</ele>
        <time>2026-05-21T09:05:33.000Z</time>
      </trkpt>
      <trkpt lat="43.77578" lon="3.83779">
        <ele>432.8</ele>
        <time>2026-05-21T09:05:34.000Z</time>
      </trkpt>
      <trkpt lat="43.77578" lon="3.83779">
        <ele>432.7</ele>
        <time>2026-05-21T09:05:35.000Z</time>
      </trkpt>
      <trkpt lat="43.77578" lon="3.83779">
        <ele>432.6</ele>
        <time>2026-05-21T09:05:36.000Z</time>
      </trkpt>
      <trkpt lat="43.77578" lon="3.83779">
        <ele>432.3</ele>
        <time>2026-05-21T09:05:37.000Z</time>
      </trkpt>
      <trkpt lat="43.77578" lon="3.83779">
        <ele>432</ele>
        <time>2026-05-21T09:05:38.000Z</time>
      </trkpt>
      <trkpt lat="43.77578" lon="3.83778">
        <ele>432</ele>
        <time>2026-05-21T09:05:39.000Z</time>
      </trkpt>
      <trkpt lat="43.77578" lon="3.83778">
        <ele>431.9</ele>
        <time>2026-05-21T09:05:40.000Z</time>
      </trkpt>
      <trkpt lat="43.77579" lon="3.83778">
        <ele>431.7</ele>
        <time>2026-05-21T09:05:41.000Z</time>
      </trkpt>
      <trkpt lat="43.77578" lon="3.83778">
        <ele>431.7</ele>
        <time>2026-05-21T09:05:42.000Z</time>
      </trkpt>
      <trkpt lat="43.77578" lon="3.83778">
        <ele>431.7</ele>
        <time>2026-05-21T09:05:43.000Z</time>
      </trkpt>
      <trkpt lat="43.77578" lon="3.83778">
        <ele>431.6</ele>
        <time>2026-05-21T09:05:44.000Z</time>
      </trkpt>
      <trkpt lat="43.77578" lon="3.83778">
        <ele>431.7</ele>
        <time>2026-05-21T09:05:45.000Z</time>
      </trkpt>
      <trkpt lat="43.77578" lon="3.83778">
        <ele>431.8</ele>
        <time>2026-05-21T09:05:46.000Z</time>
      </trkpt>
      <trkpt lat="43.77579" lon="3.83778">
        <ele>431.8</ele>
        <time>2026-05-21T09:05:47.000Z</time>
      </trkpt>
      <trkpt lat="43.77579" lon="3.83778">
        <ele>431.7</ele>
        <time>2026-05-21T09:05:48.000Z</time>
      </trkpt>
      <trkpt lat="43.77579" lon="3.83778">
        <ele>431.8</ele>
        <time>2026-05-21T09:05:49.000Z</time>
      </trkpt>
      <trkpt lat="43.77579" lon="3.83777">
        <ele>431.7</ele>
        <time>2026-05-21T09:05:50.000Z</time>
      </trkpt>
      <trkpt lat="43.77579" lon="3.83777">
        <ele>431.8</ele>
        <time>2026-05-21T09:05:51.000Z</time>
      </trkpt>
      <trkpt lat="43.77579" lon="3.83777">
        <ele>431.8</ele>
        <time>2026-05-21T09:05:52.000Z</time>
      </trkpt>
      <trkpt lat="43.77579" lon="3.83777">
        <ele>431.8</ele>
        <time>2026-05-21T09:05:53.000Z</time>
      </trkpt>
      <trkpt lat="43.77579" lon="3.83777">
        <ele>432.1</ele>
        <time>2026-05-21T09:05:54.000Z</time>
      </trkpt>
      <trkpt lat="43.77579" lon="3.83777">
        <ele>432.5</ele>
        <time>2026-05-21T09:05:55.000Z</time>
      </trkpt>
      <trkpt lat="43.77579" lon="3.83777">
        <ele>432.8</ele>
        <time>2026-05-21T09:05:56.000Z</time>
      </trkpt>
      <trkpt lat="43.77579" lon="3.83777">
        <ele>433.1</ele>
        <time>2026-05-21T09:05:57.000Z</time>
      </trkpt>
      <trkpt lat="43.77579" lon="3.83777">
        <ele>433.1</ele>
        <time>2026-05-21T09:05:58.000Z</time>
      </trkpt>
      <trkpt lat="43.77579" lon="3.83777">
        <ele>433</ele>
        <time>2026-05-21T09:05:59.000Z</time>
      </trkpt>
      <trkpt lat="43.77579" lon="3.83777">
        <ele>433</ele>
        <time>2026-05-21T09:06:00.000Z</time>
      </trkpt>
      <trkpt lat="43.77579" lon="3.83777">
        <ele>433.1</ele>
        <time>2026-05-21T09:06:01.000Z</time>
      </trkpt>
      <trkpt lat="43.77579" lon="3.83777">
        <ele>433.3</ele>
        <time>2026-05-21T09:06:02.000Z</time>
      </trkpt>
      <trkpt lat="43.77579" lon="3.83777">
        <ele>433.7</ele>
        <time>2026-05-21T09:06:03.000Z</time>
      </trkpt>
      <trkpt lat="43.77579" lon="3.83777">
        <ele>434</ele>
        <time>2026-05-21T09:06:04.000Z</time>
      </trkpt>
      <trkpt lat="43.77579" lon="3.83777">
        <ele>434.1</ele>
        <time>2026-05-21T09:06:05.000Z</time>
      </trkpt>
      <trkpt lat="43.77579" lon="3.83777">
        <ele>434.2</ele>
        <time>2026-05-21T09:06:06.000Z</time>
      </trkpt>
      <trkpt lat="43.77579" lon="3.83777">
        <ele>434.2</ele>
        <time>2026-05-21T09:06:07.000Z</time>
      </trkpt>
      <trkpt lat="43.77579" lon="3.83776">
        <ele>434.4</ele>
        <time>2026-05-21T09:06:08.000Z</time>
      </trkpt>
      <trkpt lat="43.77579" lon="3.83776">
        <ele>434.4</ele>
        <time>2026-05-21T09:06:09.000Z</time>
      </trkpt>
      <trkpt lat="43.77579" lon="3.83776">
        <ele>434.4</ele>
        <time>2026-05-21T09:06:10.000Z</time>
      </trkpt>
      <trkpt lat="43.77579" lon="3.83776">
        <ele>434.5</ele>
        <time>2026-05-21T09:06:11.000Z</time>
      </trkpt>
      <trkpt lat="43.77579" lon="3.83776">
        <ele>434.5</ele>
        <time>2026-05-21T09:06:12.000Z</time>
      </trkpt>
      <trkpt lat="43.77579" lon="3.83776">
        <ele>434.4</ele>
        <time>2026-05-21T09:06:13.000Z</time>
      </trkpt>
      <trkpt lat="43.77579" lon="3.83776">
        <ele>434.5</ele>
        <time>2026-05-21T09:06:14.000Z</time>
      </trkpt>
      <trkpt lat="43.77579" lon="3.83776">
        <ele>434.6</ele>
        <time>2026-05-21T09:06:15.000Z</time>
      </trkpt>
      <trkpt lat="43.77579" lon="3.83776">
        <ele>434.4</ele>
        <time>2026-05-21T09:06:16.000Z</time>
      </trkpt>
      <trkpt lat="43.77579" lon="3.83776">
        <ele>434.5</ele>
        <time>2026-05-21T09:06:17.000Z</time>
      </trkpt>
      <trkpt lat="43.77579" lon="3.83776">
        <ele>434.9</ele>
        <time>2026-05-21T09:06:18.000Z</time>
      </trkpt>
      <trkpt lat="43.77579" lon="3.83776">
        <ele>435.2</ele>
        <time>2026-05-21T09:06:19.000Z</time>
      </trkpt>
      <trkpt lat="43.77579" lon="3.83776">
        <ele>435.2</ele>
        <time>2026-05-21T09:06:20.000Z</time>
      </trkpt>
      <trkpt lat="43.77579" lon="3.83776">
        <ele>435.3</ele>
        <time>2026-05-21T09:06:21.000Z</time>
      </trkpt>
      <trkpt lat="43.77579" lon="3.83776">
        <ele>435.4</ele>
        <time>2026-05-21T09:06:22.000Z</time>
      </trkpt>
      <trkpt lat="43.77579" lon="3.83776">
        <ele>435.3</ele>
        <time>2026-05-21T09:06:23.000Z</time>
      </trkpt>
      <trkpt lat="43.77578" lon="3.83776">
        <ele>435.2</ele>
        <time>2026-05-21T09:06:24.000Z</time>
      </trkpt>
      <trkpt lat="43.77578" lon="3.83776">
        <ele>435.1</ele>
        <time>2026-05-21T09:06:25.000Z</time>
      </trkpt>
      <trkpt lat="43.77578" lon="3.83776">
        <ele>435.1</ele>
        <time>2026-05-21T09:06:26.000Z</time>
      </trkpt>
      <trkpt lat="43.77578" lon="3.83776">
        <ele>435.1</ele>
        <time>2026-05-21T09:06:27.000Z</time>
      </trkpt>
      <trkpt lat="43.77578" lon="3.83776">
        <ele>435.1</ele>
        <time>2026-05-21T09:06:28.000Z</time>
      </trkpt>
      <trkpt lat="43.77578" lon="3.83776">
        <ele>435.1</ele>
        <time>2026-05-21T09:06:29.000Z</time>
      </trkpt>
      <trkpt lat="43.77578" lon="3.83776">
        <ele>435.1</ele>
        <time>2026-05-21T09:06:30.000Z</time>
      </trkpt>
      <trkpt lat="43.77578" lon="3.83776">
        <ele>435.1</ele>
        <time>2026-05-21T09:06:31.000Z</time>
      </trkpt>
      <trkpt lat="43.77578" lon="3.83776">
        <ele>435.1</ele>
        <time>2026-05-21T09:06:32.000Z</time>
      </trkpt>
      <trkpt lat="43.77578" lon="3.83776">
        <ele>435</ele>
        <time>2026-05-21T09:06:33.000Z</time>
      </trkpt>
      <trkpt lat="43.77578" lon="3.83776">
        <ele>434.9</ele>
        <time>2026-05-21T09:06:34.000Z</time>
      </trkpt>
      <trkpt lat="43.77578" lon="3.83776">
        <ele>435</ele>
        <time>2026-05-21T09:06:35.000Z</time>
      </trkpt>
      <trkpt lat="43.77578" lon="3.83776">
        <ele>435</ele>
        <time>2026-05-21T09:06:36.000Z</time>
      </trkpt>
      <trkpt lat="43.77577" lon="3.83776">
        <ele>435.1</ele>
        <time>2026-05-21T09:06:37.000Z</time>
      </trkpt>
      <trkpt lat="43.77577" lon="3.83776">
        <ele>435</ele>
        <time>2026-05-21T09:06:38.000Z</time>
      </trkpt>
      <trkpt lat="43.77577" lon="3.83776">
        <ele>434.8</ele>
        <time>2026-05-21T09:06:39.000Z</time>
      </trkpt>
      <trkpt lat="43.77577" lon="3.83776">
        <ele>434.6</ele>
        <time>2026-05-21T09:06:40.000Z</time>
      </trkpt>
      <trkpt lat="43.77577" lon="3.83776">
        <ele>434.5</ele>
        <time>2026-05-21T09:06:41.000Z</time>
      </trkpt>
      <trkpt lat="43.77577" lon="3.83776">
        <ele>434.4</ele>
        <time>2026-05-21T09:06:42.000Z</time>
      </trkpt>
      <trkpt lat="43.77577" lon="3.83776">
        <ele>434.3</ele>
        <time>2026-05-21T09:06:43.000Z</time>
      </trkpt>
      <trkpt lat="43.77577" lon="3.83776">
        <ele>434.1</ele>
        <time>2026-05-21T09:06:44.000Z</time>
      </trkpt>
      <trkpt lat="43.77577" lon="3.83776">
        <ele>434</ele>
        <time>2026-05-21T09:06:45.000Z</time>
      </trkpt>
      <trkpt lat="43.77577" lon="3.83776">
        <ele>434</ele>
        <time>2026-05-21T09:06:46.000Z</time>
      </trkpt>
      <trkpt lat="43.77577" lon="3.83776">
        <ele>434</ele>
        <time>2026-05-21T09:06:47.000Z</time>
      </trkpt>
      <trkpt lat="43.77577" lon="3.83776">
        <ele>434</ele>
        <time>2026-05-21T09:06:48.000Z</time>
      </trkpt>
      <trkpt lat="43.77577" lon="3.83776">
        <ele>434.1</ele>
        <time>2026-05-21T09:06:49.000Z</time>
      </trkpt>
      <trkpt lat="43.77577" lon="3.83776">
        <ele>434.2</ele>
        <time>2026-05-21T09:06:50.000Z</time>
      </trkpt>
      <trkpt lat="43.77577" lon="3.83776">
        <ele>434.2</ele>
        <time>2026-05-21T09:06:51.000Z</time>
      </trkpt>
      <trkpt lat="43.77576" lon="3.83776">
        <ele>434.2</ele>
        <time>2026-05-21T09:06:52.000Z</time>
      </trkpt>
      <trkpt lat="43.77576" lon="3.83776">
        <ele>434.4</ele>
        <time>2026-05-21T09:06:53.000Z</time>
      </trkpt>
      <trkpt lat="43.77576" lon="3.83776">
        <ele>434.3</ele>
        <time>2026-05-21T09:06:54.000Z</time>
      </trkpt>
      <trkpt lat="43.77577" lon="3.83776">
        <ele>434.4</ele>
        <time>2026-05-21T09:06:55.000Z</time>
      </trkpt>
      <trkpt lat="43.77577" lon="3.83776">
        <ele>434.5</ele>
        <time>2026-05-21T09:06:56.000Z</time>
      </trkpt>
      <trkpt lat="43.77576" lon="3.83776">
        <ele>434.3</ele>
        <time>2026-05-21T09:06:57.000Z</time>
      </trkpt>
      <trkpt lat="43.77576" lon="3.83775">
        <ele>433.9</ele>
        <time>2026-05-21T09:06:58.000Z</time>
      </trkpt>
      <trkpt lat="43.77576" lon="3.83775">
        <ele>433.7</ele>
        <time>2026-05-21T09:06:59.000Z</time>
      </trkpt>
      <trkpt lat="43.77576" lon="3.83775">
        <ele>433.4</ele>
        <time>2026-05-21T09:07:00.000Z</time>
      </trkpt>
      <trkpt lat="43.77576" lon="3.83775">
        <ele>433.4</ele>
        <time>2026-05-21T09:07:01.000Z</time>
      </trkpt>
      <trkpt lat="43.77576" lon="3.83775">
        <ele>433.2</ele>
        <time>2026-05-21T09:07:02.000Z</time>
      </trkpt>
      <trkpt lat="43.77576" lon="3.83775">
        <ele>432.9</ele>
        <time>2026-05-21T09:07:03.000Z</time>
      </trkpt>
      <trkpt lat="43.77576" lon="3.83775">
        <ele>432.8</ele>
        <time>2026-05-21T09:07:04.000Z</time>
      </trkpt>
      <trkpt lat="43.77576" lon="3.83775">
        <ele>432.6</ele>
        <time>2026-05-21T09:07:05.000Z</time>
      </trkpt>
      <trkpt lat="43.77576" lon="3.83774">
        <ele>432.4</ele>
        <time>2026-05-21T09:07:06.000Z</time>
      </trkpt>
      <trkpt lat="43.77577" lon="3.83772">
        <ele>432.3</ele>
        <time>2026-05-21T09:07:07.000Z</time>
      </trkpt>
      <trkpt lat="43.77577" lon="3.83771">
        <ele>432.3</ele>
        <time>2026-05-21T09:07:08.000Z</time>
      </trkpt>
      <trkpt lat="43.77577" lon="3.83771">
        <ele>432.2</ele>
        <time>2026-05-21T09:07:09.000Z</time>
      </trkpt>
      <trkpt lat="43.77577" lon="3.8377">
        <ele>432.3</ele>
        <time>2026-05-21T09:07:10.000Z</time>
      </trkpt>
      <trkpt lat="43.77577" lon="3.8377">
        <ele>432.4</ele>
        <time>2026-05-21T09:07:11.000Z</time>
      </trkpt>
      <trkpt lat="43.77577" lon="3.8377">
        <ele>432.4</ele>
        <time>2026-05-21T09:07:12.000Z</time>
      </trkpt>
      <trkpt lat="43.77577" lon="3.8377">
        <ele>432.2</ele>
        <time>2026-05-21T09:07:13.000Z</time>
      </trkpt>
      <trkpt lat="43.77577" lon="3.8377">
        <ele>432</ele>
        <time>2026-05-21T09:07:14.000Z</time>
      </trkpt>
      <trkpt lat="43.77577" lon="3.8377">
        <ele>431.8</ele>
        <time>2026-05-21T09:07:15.000Z</time>
      </trkpt>
      <trkpt lat="43.77577" lon="3.8377">
        <ele>431.6</ele>
        <time>2026-05-21T09:07:16.000Z</time>
      </trkpt>
      <trkpt lat="43.77577" lon="3.8377">
        <ele>431.4</ele>
        <time>2026-05-21T09:07:17.000Z</time>
      </trkpt>
      <trkpt lat="43.77577" lon="3.8377">
        <ele>431.4</ele>
        <time>2026-05-21T09:07:18.000Z</time>
      </trkpt>
      <trkpt lat="43.77577" lon="3.8377">
        <ele>431.5</ele>
        <time>2026-05-21T09:07:19.000Z</time>
      </trkpt>
      <trkpt lat="43.77577" lon="3.8377">
        <ele>431.3</ele>
        <time>2026-05-21T09:07:20.000Z</time>
      </trkpt>
      <trkpt lat="43.77576" lon="3.83769">
        <ele>431.2</ele>
        <time>2026-05-21T09:07:21.000Z</time>
      </trkpt>
      <trkpt lat="43.77576" lon="3.83768">
        <ele>431</ele>
        <time>2026-05-21T09:07:22.000Z</time>
      </trkpt>
      <trkpt lat="43.77575" lon="3.83768">
        <ele>431.1</ele>
        <time>2026-05-21T09:07:23.000Z</time>
      </trkpt>
      <trkpt lat="43.77575" lon="3.83768">
        <ele>431.2</ele>
        <time>2026-05-21T09:07:24.000Z</time>
      </trkpt>
      <trkpt lat="43.77575" lon="3.83768">
        <ele>431.1</ele>
        <time>2026-05-21T09:07:25.000Z</time>
      </trkpt>
      <trkpt lat="43.77575" lon="3.83768">
        <ele>430.9</ele>
        <time>2026-05-21T09:07:26.000Z</time>
      </trkpt>
      <trkpt lat="43.77575" lon="3.83768">
        <ele>430.8</ele>
        <time>2026-05-21T09:07:27.000Z</time>
      </trkpt>
      <trkpt lat="43.77575" lon="3.83768">
        <ele>430.7</ele>
        <time>2026-05-21T09:07:28.000Z</time>
      </trkpt>
      <trkpt lat="43.77575" lon="3.83768">
        <ele>430.8</ele>
        <time>2026-05-21T09:07:29.000Z</time>
      </trkpt>
      <trkpt lat="43.77575" lon="3.83768">
        <ele>430.7</ele>
        <time>2026-05-21T09:07:30.000Z</time>
      </trkpt>
      <trkpt lat="43.77575" lon="3.83768">
        <ele>430.7</ele>
        <time>2026-05-21T09:07:31.000Z</time>
      </trkpt>
      <trkpt lat="43.77575" lon="3.83768">
        <ele>430.7</ele>
        <time>2026-05-21T09:07:32.000Z</time>
      </trkpt>
      <trkpt lat="43.77575" lon="3.83767">
        <ele>430.5</ele>
        <time>2026-05-21T09:07:33.000Z</time>
      </trkpt>
      <trkpt lat="43.77574" lon="3.83766">
        <ele>430.2</ele>
        <time>2026-05-21T09:07:34.000Z</time>
      </trkpt>
      <trkpt lat="43.77574" lon="3.83766">
        <ele>430</ele>
        <time>2026-05-21T09:07:35.000Z</time>
      </trkpt>
      <trkpt lat="43.77574" lon="3.83766">
        <ele>429.9</ele>
        <time>2026-05-21T09:07:36.000Z</time>
      </trkpt>
      <trkpt lat="43.77574" lon="3.83766">
        <ele>429.6</ele>
        <time>2026-05-21T09:07:37.000Z</time>
      </trkpt>
      <trkpt lat="43.77574" lon="3.83766">
        <ele>429.4</ele>
        <time>2026-05-21T09:07:38.000Z</time>
      </trkpt>
      <trkpt lat="43.77574" lon="3.83766">
        <ele>429.3</ele>
        <time>2026-05-21T09:07:39.000Z</time>
      </trkpt>
      <trkpt lat="43.77574" lon="3.83766">
        <ele>429.3</ele>
        <time>2026-05-21T09:07:40.000Z</time>
      </trkpt>
      <trkpt lat="43.77574" lon="3.83766">
        <ele>429.2</ele>
        <time>2026-05-21T09:07:41.000Z</time>
      </trkpt>
      <trkpt lat="43.77574" lon="3.83765">
        <ele>429.2</ele>
        <time>2026-05-21T09:07:42.000Z</time>
      </trkpt>
      <trkpt lat="43.77574" lon="3.83764">
        <ele>429.1</ele>
        <time>2026-05-21T09:07:43.000Z</time>
      </trkpt>
      <trkpt lat="43.77574" lon="3.83764">
        <ele>429</ele>
        <time>2026-05-21T09:07:44.000Z</time>
      </trkpt>
      <trkpt lat="43.77574" lon="3.83764">
        <ele>428.9</ele>
        <time>2026-05-21T09:07:45.000Z</time>
      </trkpt>
      <trkpt lat="43.77574" lon="3.83764">
        <ele>429.1</ele>
        <time>2026-05-21T09:07:46.000Z</time>
      </trkpt>
      <trkpt lat="43.77574" lon="3.83763">
        <ele>429.2</ele>
        <time>2026-05-21T09:07:47.000Z</time>
      </trkpt>
      <trkpt lat="43.77574" lon="3.83763">
        <ele>429.3</ele>
        <time>2026-05-21T09:07:48.000Z</time>
      </trkpt>
      <trkpt lat="43.77574" lon="3.83763">
        <ele>429.1</ele>
        <time>2026-05-21T09:07:49.000Z</time>
      </trkpt>
      <trkpt lat="43.77574" lon="3.83763">
        <ele>428.9</ele>
        <time>2026-05-21T09:07:50.000Z</time>
      </trkpt>
      <trkpt lat="43.77574" lon="3.83763">
        <ele>428.9</ele>
        <time>2026-05-21T09:07:51.000Z</time>
      </trkpt>
      <trkpt lat="43.77574" lon="3.83763">
        <ele>429</ele>
        <time>2026-05-21T09:07:52.000Z</time>
      </trkpt>
      <trkpt lat="43.77574" lon="3.83763">
        <ele>429.1</ele>
        <time>2026-05-21T09:07:53.000Z</time>
      </trkpt>
      <trkpt lat="43.77574" lon="3.83763">
        <ele>429</ele>
        <time>2026-05-21T09:07:54.000Z</time>
      </trkpt>
      <trkpt lat="43.77574" lon="3.83762">
        <ele>428.8</ele>
        <time>2026-05-21T09:07:55.000Z</time>
      </trkpt>
      <trkpt lat="43.77574" lon="3.83762">
        <ele>428.6</ele>
        <time>2026-05-21T09:07:56.000Z</time>
      </trkpt>
      <trkpt lat="43.77574" lon="3.83762">
        <ele>428.5</ele>
        <time>2026-05-21T09:07:57.000Z</time>
      </trkpt>
      <trkpt lat="43.77574" lon="3.83762">
        <ele>428.4</ele>
        <time>2026-05-21T09:07:58.000Z</time>
      </trkpt>
      <trkpt lat="43.77574" lon="3.83762">
        <ele>428.2</ele>
        <time>2026-05-21T09:07:59.000Z</time>
      </trkpt>
      <trkpt lat="43.77575" lon="3.83761">
        <ele>428.3</ele>
        <time>2026-05-21T09:08:00.000Z</time>
      </trkpt>
      <trkpt lat="43.77575" lon="3.83761">
        <ele>428.4</ele>
        <time>2026-05-21T09:08:01.000Z</time>
      </trkpt>
      <trkpt lat="43.77575" lon="3.83761">
        <ele>428.4</ele>
        <time>2026-05-21T09:08:02.000Z</time>
      </trkpt>
      <trkpt lat="43.77575" lon="3.83761">
        <ele>428.5</ele>
        <time>2026-05-21T09:08:03.000Z</time>
      </trkpt>
      <trkpt lat="43.77575" lon="3.8376">
        <ele>428.4</ele>
        <time>2026-05-21T09:08:04.000Z</time>
      </trkpt>
      <trkpt lat="43.77575" lon="3.83759">
        <ele>428.4</ele>
        <time>2026-05-21T09:08:05.000Z</time>
      </trkpt>
      <trkpt lat="43.77575" lon="3.83758">
        <ele>428.2</ele>
        <time>2026-05-21T09:08:06.000Z</time>
      </trkpt>
      <trkpt lat="43.77575" lon="3.83757">
        <ele>428.1</ele>
        <time>2026-05-21T09:08:07.000Z</time>
      </trkpt>
      <trkpt lat="43.77575" lon="3.83757">
        <ele>428</ele>
        <time>2026-05-21T09:08:08.000Z</time>
      </trkpt>
      <trkpt lat="43.77575" lon="3.83757">
        <ele>428</ele>
        <time>2026-05-21T09:08:09.000Z</time>
      </trkpt>
      <trkpt lat="43.77575" lon="3.83757">
        <ele>428.3</ele>
        <time>2026-05-21T09:08:10.000Z</time>
      </trkpt>
      <trkpt lat="43.77575" lon="3.83756">
        <ele>428.4</ele>
        <time>2026-05-21T09:08:11.000Z</time>
      </trkpt>
      <trkpt lat="43.77575" lon="3.83756">
        <ele>428.7</ele>
        <time>2026-05-21T09:08:12.000Z</time>
      </trkpt>
      <trkpt lat="43.77575" lon="3.83756">
        <ele>428.7</ele>
        <time>2026-05-21T09:08:13.000Z</time>
      </trkpt>
      <trkpt lat="43.77575" lon="3.83756">
        <ele>428.7</ele>
        <time>2026-05-21T09:08:14.000Z</time>
      </trkpt>
      <trkpt lat="43.77575" lon="3.83756">
        <ele>428.8</ele>
        <time>2026-05-21T09:08:15.000Z</time>
      </trkpt>
      <trkpt lat="43.77575" lon="3.83756">
        <ele>428.8</ele>
        <time>2026-05-21T09:08:16.000Z</time>
      </trkpt>
      <trkpt lat="43.77575" lon="3.83756">
        <ele>428.8</ele>
        <time>2026-05-21T09:08:17.000Z</time>
      </trkpt>
      <trkpt lat="43.77575" lon="3.83756">
        <ele>428.8</ele>
        <time>2026-05-21T09:08:18.000Z</time>
      </trkpt>
      <trkpt lat="43.77575" lon="3.83756">
        <ele>428.9</ele>
        <time>2026-05-21T09:08:19.000Z</time>
      </trkpt>
      <trkpt lat="43.77575" lon="3.83756">
        <ele>428.8</ele>
        <time>2026-05-21T09:08:20.000Z</time>
      </trkpt>
      <trkpt lat="43.77575" lon="3.83756">
        <ele>429.1</ele>
        <time>2026-05-21T09:08:21.000Z</time>
      </trkpt>
      <trkpt lat="43.77575" lon="3.83756">
        <ele>429.3</ele>
        <time>2026-05-21T09:08:22.000Z</time>
      </trkpt>
      <trkpt lat="43.77575" lon="3.83756">
        <ele>429.5</ele>
        <time>2026-05-21T09:08:23.000Z</time>
      </trkpt>
      <trkpt lat="43.77575" lon="3.83756">
        <ele>429.6</ele>
        <time>2026-05-21T09:08:24.000Z</time>
      </trkpt>
      <trkpt lat="43.77576" lon="3.83756">
        <ele>429.7</ele>
        <time>2026-05-21T09:08:25.000Z</time>
      </trkpt>
      <trkpt lat="43.77575" lon="3.83754">
        <ele>429.7</ele>
        <time>2026-05-21T09:08:26.000Z</time>
      </trkpt>
      <trkpt lat="43.77575" lon="3.83752">
        <ele>429.5</ele>
        <time>2026-05-21T09:08:27.000Z</time>
      </trkpt>
      <trkpt lat="43.77575" lon="3.83751">
        <ele>429.4</ele>
        <time>2026-05-21T09:08:28.000Z</time>
      </trkpt>
      <trkpt lat="43.77575" lon="3.8375">
        <ele>429.3</ele>
        <time>2026-05-21T09:08:29.000Z</time>
      </trkpt>
      <trkpt lat="43.77575" lon="3.8375">
        <ele>429.1</ele>
        <time>2026-05-21T09:08:30.000Z</time>
      </trkpt>
      <trkpt lat="43.77575" lon="3.8375">
        <ele>429</ele>
        <time>2026-05-21T09:08:31.000Z</time>
      </trkpt>
      <trkpt lat="43.77575" lon="3.8375">
        <ele>429</ele>
        <time>2026-05-21T09:08:32.000Z</time>
      </trkpt>
      <trkpt lat="43.77575" lon="3.83749">
        <ele>428.9</ele>
        <time>2026-05-21T09:08:33.000Z</time>
      </trkpt>
      <trkpt lat="43.77575" lon="3.83749">
        <ele>428.7</ele>
        <time>2026-05-21T09:08:34.000Z</time>
      </trkpt>
      <trkpt lat="43.77575" lon="3.83749">
        <ele>428.6</ele>
        <time>2026-05-21T09:08:35.000Z</time>
      </trkpt>
      <trkpt lat="43.77575" lon="3.83749">
        <ele>428.6</ele>
        <time>2026-05-21T09:08:36.000Z</time>
      </trkpt>
      <trkpt lat="43.77575" lon="3.83749">
        <ele>428.6</ele>
        <time>2026-05-21T09:08:37.000Z</time>
      </trkpt>
      <trkpt lat="43.77575" lon="3.83749">
        <ele>428.6</ele>
        <time>2026-05-21T09:08:38.000Z</time>
      </trkpt>
      <trkpt lat="43.77575" lon="3.83749">
        <ele>428.6</ele>
        <time>2026-05-21T09:08:39.000Z</time>
      </trkpt>
      <trkpt lat="43.77575" lon="3.83749">
        <ele>428.6</ele>
        <time>2026-05-21T09:08:40.000Z</time>
      </trkpt>
      <trkpt lat="43.77575" lon="3.83749">
        <ele>428.5</ele>
        <time>2026-05-21T09:08:41.000Z</time>
      </trkpt>
      <trkpt lat="43.77575" lon="3.83749">
        <ele>428.5</ele>
        <time>2026-05-21T09:08:42.000Z</time>
      </trkpt>
      <trkpt lat="43.77575" lon="3.83749">
        <ele>428.4</ele>
        <time>2026-05-21T09:08:44.000Z</time>
      </trkpt>
      <trkpt lat="43.77575" lon="3.83749">
        <ele>428.4</ele>
        <time>2026-05-21T09:08:45.000Z</time>
      </trkpt>
      <trkpt lat="43.77575" lon="3.83749">
        <ele>428.4</ele>
        <time>2026-05-21T09:08:46.000Z</time>
      </trkpt>
      <trkpt lat="43.77575" lon="3.83749">
        <ele>428.3</ele>
        <time>2026-05-21T09:08:47.000Z</time>
      </trkpt>
      <trkpt lat="43.77575" lon="3.83749">
        <ele>428.2</ele>
        <time>2026-05-21T09:08:48.000Z</time>
      </trkpt>
      <trkpt lat="43.77575" lon="3.83749">
        <ele>428.1</ele>
        <time>2026-05-21T09:08:49.000Z</time>
      </trkpt>
      <trkpt lat="43.77575" lon="3.83749">
        <ele>428.1</ele>
        <time>2026-05-21T09:08:50.000Z</time>
      </trkpt>
      <trkpt lat="43.77575" lon="3.83749">
        <ele>428.1</ele>
        <time>2026-05-21T09:08:51.000Z</time>
      </trkpt>
      <trkpt lat="43.77575" lon="3.83749">
        <ele>428.1</ele>
        <time>2026-05-21T09:08:52.000Z</time>
      </trkpt>
      <trkpt lat="43.77575" lon="3.83749">
        <ele>428</ele>
        <time>2026-05-21T09:08:53.000Z</time>
      </trkpt>
      <trkpt lat="43.77575" lon="3.83749">
        <ele>428</ele>
        <time>2026-05-21T09:08:54.000Z</time>
      </trkpt>
      <trkpt lat="43.77575" lon="3.83749">
        <ele>428</ele>
        <time>2026-05-21T09:08:55.000Z</time>
      </trkpt>
      <trkpt lat="43.77576" lon="3.83749">
        <ele>427.8</ele>
        <time>2026-05-21T09:08:56.000Z</time>
      </trkpt>
      <trkpt lat="43.77576" lon="3.83749">
        <ele>427.6</ele>
        <time>2026-05-21T09:08:57.000Z</time>
      </trkpt>
      <trkpt lat="43.77576" lon="3.83749">
        <ele>427.7</ele>
        <time>2026-05-21T09:08:58.000Z</time>
      </trkpt>
      <trkpt lat="43.77577" lon="3.83749">
        <ele>427.7</ele>
        <time>2026-05-21T09:08:59.000Z</time>
      </trkpt>
      <trkpt lat="43.77578" lon="3.83749">
        <ele>427.7</ele>
        <time>2026-05-21T09:09:00.000Z</time>
      </trkpt>
      <trkpt lat="43.77579" lon="3.83748">
        <ele>427.9</ele>
        <time>2026-05-21T09:09:01.000Z</time>
      </trkpt>
      <trkpt lat="43.7758" lon="3.83747">
        <ele>427.8</ele>
        <time>2026-05-21T09:09:02.000Z</time>
      </trkpt>
      <trkpt lat="43.77581" lon="3.83746">
        <ele>427.8</ele>
        <time>2026-05-21T09:09:03.000Z</time>
      </trkpt>
      <trkpt lat="43.77581" lon="3.83746">
        <ele>428.4</ele>
        <time>2026-05-21T09:09:04.000Z</time>
      </trkpt>
      <trkpt lat="43.77582" lon="3.83746">
        <ele>428.6</ele>
        <time>2026-05-21T09:09:05.000Z</time>
      </trkpt>
      <trkpt lat="43.77582" lon="3.83745">
        <ele>428.9</ele>
        <time>2026-05-21T09:09:06.000Z</time>
      </trkpt>
      <trkpt lat="43.77582" lon="3.83745">
        <ele>428.9</ele>
        <time>2026-05-21T09:09:07.000Z</time>
      </trkpt>
      <trkpt lat="43.77582" lon="3.83745">
        <ele>428.8</ele>
        <time>2026-05-21T09:09:08.000Z</time>
      </trkpt>
      <trkpt lat="43.77582" lon="3.83745">
        <ele>428.6</ele>
        <time>2026-05-21T09:09:09.000Z</time>
      </trkpt>
      <trkpt lat="43.77582" lon="3.83745">
        <ele>428.5</ele>
        <time>2026-05-21T09:09:10.000Z</time>
      </trkpt>
      <trkpt lat="43.77582" lon="3.83745">
        <ele>428.4</ele>
        <time>2026-05-21T09:09:11.000Z</time>
      </trkpt>
      <trkpt lat="43.77582" lon="3.83745">
        <ele>428.5</ele>
        <time>2026-05-21T09:09:12.000Z</time>
      </trkpt>
      <trkpt lat="43.77582" lon="3.83745">
        <ele>428.4</ele>
        <time>2026-05-21T09:09:13.000Z</time>
      </trkpt>
      <trkpt lat="43.77582" lon="3.83745">
        <ele>428.3</ele>
        <time>2026-05-21T09:09:14.000Z</time>
      </trkpt>
      <trkpt lat="43.77582" lon="3.83745">
        <ele>428.2</ele>
        <time>2026-05-21T09:09:15.000Z</time>
      </trkpt>
      <trkpt lat="43.77582" lon="3.83745">
        <ele>428.4</ele>
        <time>2026-05-21T09:09:16.000Z</time>
      </trkpt>
      <trkpt lat="43.77582" lon="3.83745">
        <ele>428.5</ele>
        <time>2026-05-21T09:09:17.000Z</time>
      </trkpt>
      <trkpt lat="43.77582" lon="3.83745">
        <ele>428.6</ele>
        <time>2026-05-21T09:09:18.000Z</time>
      </trkpt>
      <trkpt lat="43.77582" lon="3.83745">
        <ele>428.7</ele>
        <time>2026-05-21T09:09:19.000Z</time>
      </trkpt>
      <trkpt lat="43.77583" lon="3.83745">
        <ele>428.9</ele>
        <time>2026-05-21T09:09:20.000Z</time>
      </trkpt>
      <trkpt lat="43.77584" lon="3.83745">
        <ele>428.8</ele>
        <time>2026-05-21T09:09:21.000Z</time>
      </trkpt>
      <trkpt lat="43.77585" lon="3.83745">
        <ele>428.8</ele>
        <time>2026-05-21T09:09:22.000Z</time>
      </trkpt>
      <trkpt lat="43.77586" lon="3.83744">
        <ele>428.8</ele>
        <time>2026-05-21T09:09:23.000Z</time>
      </trkpt>
      <trkpt lat="43.77588" lon="3.83744">
        <ele>428.5</ele>
        <time>2026-05-21T09:09:24.000Z</time>
      </trkpt>
      <trkpt lat="43.77589" lon="3.83743">
        <ele>428.1</ele>
        <time>2026-05-21T09:09:25.000Z</time>
      </trkpt>
      <trkpt lat="43.7759" lon="3.83742">
        <ele>427.8</ele>
        <time>2026-05-21T09:09:26.000Z</time>
      </trkpt>
      <trkpt lat="43.77591" lon="3.83742">
        <ele>427.8</ele>
        <time>2026-05-21T09:09:27.000Z</time>
      </trkpt>
      <trkpt lat="43.77591" lon="3.83741">
        <ele>427.6</ele>
        <time>2026-05-21T09:09:28.000Z</time>
      </trkpt>
      <trkpt lat="43.77591" lon="3.83741">
        <ele>427.6</ele>
        <time>2026-05-21T09:09:29.000Z</time>
      </trkpt>
      <trkpt lat="43.77592" lon="3.83741">
        <ele>427.8</ele>
        <time>2026-05-21T09:09:30.000Z</time>
      </trkpt>
      <trkpt lat="43.77592" lon="3.8374">
        <ele>427.9</ele>
        <time>2026-05-21T09:09:31.000Z</time>
      </trkpt>
      <trkpt lat="43.77592" lon="3.8374">
        <ele>428.1</ele>
        <time>2026-05-21T09:09:32.000Z</time>
      </trkpt>
      <trkpt lat="43.77592" lon="3.8374">
        <ele>427.3</ele>
        <time>2026-05-21T09:09:33.000Z</time>
      </trkpt>
      <trkpt lat="43.77592" lon="3.8374">
        <ele>427.4</ele>
        <time>2026-05-21T09:09:34.000Z</time>
      </trkpt>
      <trkpt lat="43.77592" lon="3.8374">
        <ele>427.4</ele>
        <time>2026-05-21T09:09:35.000Z</time>
      </trkpt>
      <trkpt lat="43.77592" lon="3.8374">
        <ele>427.5</ele>
        <time>2026-05-21T09:09:36.000Z</time>
      </trkpt>
      <trkpt lat="43.77592" lon="3.8374">
        <ele>427.5</ele>
        <time>2026-05-21T09:09:37.000Z</time>
      </trkpt>
      <trkpt lat="43.77591" lon="3.8374">
        <ele>427.3</ele>
        <time>2026-05-21T09:09:38.000Z</time>
      </trkpt>
      <trkpt lat="43.77591" lon="3.83739">
        <ele>427.3</ele>
        <time>2026-05-21T09:09:39.000Z</time>
      </trkpt>
      <trkpt lat="43.77591" lon="3.83739">
        <ele>427.1</ele>
        <time>2026-05-21T09:09:40.000Z</time>
      </trkpt>
      <trkpt lat="43.77591" lon="3.83739">
        <ele>427</ele>
        <time>2026-05-21T09:09:41.000Z</time>
      </trkpt>
      <trkpt lat="43.77591" lon="3.83739">
        <ele>427</ele>
        <time>2026-05-21T09:09:42.000Z</time>
      </trkpt>
      <trkpt lat="43.77591" lon="3.83739">
        <ele>427</ele>
        <time>2026-05-21T09:09:43.000Z</time>
      </trkpt>
      <trkpt lat="43.77591" lon="3.83739">
        <ele>427.1</ele>
        <time>2026-05-21T09:09:44.000Z</time>
      </trkpt>
      <trkpt lat="43.77591" lon="3.83739">
        <ele>427</ele>
        <time>2026-05-21T09:09:45.000Z</time>
      </trkpt>
      <trkpt lat="43.77591" lon="3.83739">
        <ele>427.1</ele>
        <time>2026-05-21T09:09:46.000Z</time>
      </trkpt>
      <trkpt lat="43.77591" lon="3.83739">
        <ele>427.4</ele>
        <time>2026-05-21T09:09:47.000Z</time>
      </trkpt>
      <trkpt lat="43.77591" lon="3.83739">
        <ele>427.4</ele>
        <time>2026-05-21T09:09:48.000Z</time>
      </trkpt>
      <trkpt lat="43.77591" lon="3.83739">
        <ele>427.3</ele>
        <time>2026-05-21T09:09:49.000Z</time>
      </trkpt>
      <trkpt lat="43.77591" lon="3.83738">
        <ele>427</ele>
        <time>2026-05-21T09:09:50.000Z</time>
      </trkpt>
      <trkpt lat="43.77591" lon="3.83738">
        <ele>426.9</ele>
        <time>2026-05-21T09:09:51.000Z</time>
      </trkpt>
      <trkpt lat="43.7759" lon="3.83738">
        <ele>426.8</ele>
        <time>2026-05-21T09:09:52.000Z</time>
      </trkpt>
      <trkpt lat="43.7759" lon="3.83738">
        <ele>426.5</ele>
        <time>2026-05-21T09:09:53.000Z</time>
      </trkpt>
      <trkpt lat="43.7759" lon="3.83738">
        <ele>426.3</ele>
        <time>2026-05-21T09:09:54.000Z</time>
      </trkpt>
      <trkpt lat="43.7759" lon="3.83738">
        <ele>426.2</ele>
        <time>2026-05-21T09:09:55.000Z</time>
      </trkpt>
      <trkpt lat="43.7759" lon="3.83738">
        <ele>426</ele>
        <time>2026-05-21T09:09:56.000Z</time>
      </trkpt>
      <trkpt lat="43.7759" lon="3.83738">
        <ele>425.9</ele>
        <time>2026-05-21T09:09:57.000Z</time>
      </trkpt>
      <trkpt lat="43.7759" lon="3.83738">
        <ele>426</ele>
        <time>2026-05-21T09:09:58.000Z</time>
      </trkpt>
      <trkpt lat="43.7759" lon="3.83738">
        <ele>426.4</ele>
        <time>2026-05-21T09:09:59.000Z</time>
      </trkpt>
      <trkpt lat="43.7759" lon="3.83738">
        <ele>426.6</ele>
        <time>2026-05-21T09:10:00.000Z</time>
      </trkpt>
      <trkpt lat="43.7759" lon="3.83738">
        <ele>426.6</ele>
        <time>2026-05-21T09:10:01.000Z</time>
      </trkpt>
      <trkpt lat="43.7759" lon="3.83738">
        <ele>426.4</ele>
        <time>2026-05-21T09:10:02.000Z</time>
      </trkpt>
      <trkpt lat="43.7759" lon="3.83737">
        <ele>426.5</ele>
        <time>2026-05-21T09:10:03.000Z</time>
      </trkpt>
      <trkpt lat="43.7759" lon="3.83737">
        <ele>426.6</ele>
        <time>2026-05-21T09:10:04.000Z</time>
      </trkpt>
      <trkpt lat="43.7759" lon="3.83737">
        <ele>427</ele>
        <time>2026-05-21T09:10:05.000Z</time>
      </trkpt>
      <trkpt lat="43.7759" lon="3.83737">
        <ele>427.1</ele>
        <time>2026-05-21T09:10:06.000Z</time>
      </trkpt>
      <trkpt lat="43.7759" lon="3.83737">
        <ele>427.1</ele>
        <time>2026-05-21T09:10:07.000Z</time>
      </trkpt>
      <trkpt lat="43.7759" lon="3.83737">
        <ele>427.1</ele>
        <time>2026-05-21T09:10:08.000Z</time>
      </trkpt>
      <trkpt lat="43.7759" lon="3.83737">
        <ele>427</ele>
        <time>2026-05-21T09:10:09.000Z</time>
      </trkpt>
      <trkpt lat="43.7759" lon="3.83737">
        <ele>426.8</ele>
        <time>2026-05-21T09:10:10.000Z</time>
      </trkpt>
      <trkpt lat="43.7759" lon="3.83737">
        <ele>426.9</ele>
        <time>2026-05-21T09:10:11.000Z</time>
      </trkpt>
      <trkpt lat="43.7759" lon="3.83736">
        <ele>427.1</ele>
        <time>2026-05-21T09:10:12.000Z</time>
      </trkpt>
      <trkpt lat="43.7759" lon="3.83736">
        <ele>427.3</ele>
        <time>2026-05-21T09:10:13.000Z</time>
      </trkpt>
      <trkpt lat="43.7759" lon="3.83736">
        <ele>427.4</ele>
        <time>2026-05-21T09:10:14.000Z</time>
      </trkpt>
      <trkpt lat="43.7759" lon="3.83736">
        <ele>427.4</ele>
        <time>2026-05-21T09:10:15.000Z</time>
      </trkpt>
      <trkpt lat="43.7759" lon="3.83736">
        <ele>427.5</ele>
        <time>2026-05-21T09:10:16.000Z</time>
      </trkpt>
      <trkpt lat="43.7759" lon="3.83736">
        <ele>427.7</ele>
        <time>2026-05-21T09:10:17.000Z</time>
      </trkpt>
      <trkpt lat="43.7759" lon="3.83736">
        <ele>427.7</ele>
        <time>2026-05-21T09:10:18.000Z</time>
      </trkpt>
      <trkpt lat="43.7759" lon="3.83735">
        <ele>427.8</ele>
        <time>2026-05-21T09:10:19.000Z</time>
      </trkpt>
      <trkpt lat="43.77589" lon="3.83735">
        <ele>427.9</ele>
        <time>2026-05-21T09:10:20.000Z</time>
      </trkpt>
      <trkpt lat="43.77589" lon="3.83734">
        <ele>427.8</ele>
        <time>2026-05-21T09:10:21.000Z</time>
      </trkpt>
      <trkpt lat="43.77589" lon="3.83733">
        <ele>427.9</ele>
        <time>2026-05-21T09:10:22.000Z</time>
      </trkpt>
      <trkpt lat="43.77588" lon="3.83733">
        <ele>427.8</ele>
        <time>2026-05-21T09:10:23.000Z</time>
      </trkpt>
      <trkpt lat="43.77589" lon="3.83733">
        <ele>427.9</ele>
        <time>2026-05-21T09:10:24.000Z</time>
      </trkpt>
      <trkpt lat="43.77589" lon="3.83731">
        <ele>427.9</ele>
        <time>2026-05-21T09:10:26.000Z</time>
      </trkpt>
      <trkpt lat="43.77589" lon="3.8373">
        <ele>427.8</ele>
        <time>2026-05-21T09:10:27.000Z</time>
      </trkpt>
      <trkpt lat="43.77589" lon="3.83729">
        <ele>427.6</ele>
        <time>2026-05-21T09:10:28.000Z</time>
      </trkpt>
      <trkpt lat="43.77589" lon="3.83729">
        <ele>427.6</ele>
        <time>2026-05-21T09:10:29.000Z</time>
      </trkpt>
      <trkpt lat="43.77589" lon="3.83729">
        <ele>427.6</ele>
        <time>2026-05-21T09:10:30.000Z</time>
      </trkpt>
      <trkpt lat="43.77589" lon="3.83729">
        <ele>427.4</ele>
        <time>2026-05-21T09:10:31.000Z</time>
      </trkpt>
      <trkpt lat="43.77589" lon="3.83729">
        <ele>427</ele>
        <time>2026-05-21T09:10:32.000Z</time>
      </trkpt>
      <trkpt lat="43.77589" lon="3.83729">
        <ele>426.7</ele>
        <time>2026-05-21T09:10:33.000Z</time>
      </trkpt>
      <trkpt lat="43.7759" lon="3.83728">
        <ele>426.4</ele>
        <time>2026-05-21T09:10:34.000Z</time>
      </trkpt>
      <trkpt lat="43.7759" lon="3.83728">
        <ele>426</ele>
        <time>2026-05-21T09:10:35.000Z</time>
      </trkpt>
      <trkpt lat="43.7759" lon="3.83727">
        <ele>425.9</ele>
        <time>2026-05-21T09:10:36.000Z</time>
      </trkpt>
      <trkpt lat="43.77591" lon="3.83726">
        <ele>425.7</ele>
        <time>2026-05-21T09:10:37.000Z</time>
      </trkpt>
      <trkpt lat="43.77591" lon="3.83725">
        <ele>425.5</ele>
        <time>2026-05-21T09:10:38.000Z</time>
      </trkpt>
      <trkpt lat="43.77592" lon="3.83724">
        <ele>425.4</ele>
        <time>2026-05-21T09:10:39.000Z</time>
      </trkpt>
      <trkpt lat="43.77592" lon="3.83723">
        <ele>425.2</ele>
        <time>2026-05-21T09:10:40.000Z</time>
      </trkpt>
      <trkpt lat="43.77593" lon="3.83722">
        <ele>425.2</ele>
        <time>2026-05-21T09:10:41.000Z</time>
      </trkpt>
      <trkpt lat="43.77593" lon="3.83722">
        <ele>425.4</ele>
        <time>2026-05-21T09:10:42.000Z</time>
      </trkpt>
      <trkpt lat="43.77593" lon="3.83722">
        <ele>425.5</ele>
        <time>2026-05-21T09:10:43.000Z</time>
      </trkpt>
      <trkpt lat="43.77593" lon="3.83722">
        <ele>425.5</ele>
        <time>2026-05-21T09:10:44.000Z</time>
      </trkpt>
      <trkpt lat="43.77593" lon="3.83721">
        <ele>425.5</ele>
        <time>2026-05-21T09:10:45.000Z</time>
      </trkpt>
      <trkpt lat="43.77593" lon="3.83721">
        <ele>425.6</ele>
        <time>2026-05-21T09:10:46.000Z</time>
      </trkpt>
      <trkpt lat="43.77593" lon="3.83721">
        <ele>425.6</ele>
        <time>2026-05-21T09:10:47.000Z</time>
      </trkpt>
      <trkpt lat="43.77593" lon="3.83721">
        <ele>425.6</ele>
        <time>2026-05-21T09:10:48.000Z</time>
      </trkpt>
      <trkpt lat="43.77593" lon="3.83721">
        <ele>425.4</ele>
        <time>2026-05-21T09:10:49.000Z</time>
      </trkpt>
      <trkpt lat="43.77593" lon="3.83721">
        <ele>425.3</ele>
        <time>2026-05-21T09:10:50.000Z</time>
      </trkpt>
      <trkpt lat="43.77593" lon="3.83721">
        <ele>425.2</ele>
        <time>2026-05-21T09:10:51.000Z</time>
      </trkpt>
      <trkpt lat="43.77593" lon="3.83721">
        <ele>425</ele>
        <time>2026-05-21T09:10:52.000Z</time>
      </trkpt>
      <trkpt lat="43.77593" lon="3.83721">
        <ele>424.8</ele>
        <time>2026-05-21T09:10:53.000Z</time>
      </trkpt>
      <trkpt lat="43.77593" lon="3.83721">
        <ele>424.6</ele>
        <time>2026-05-21T09:10:54.000Z</time>
      </trkpt>
      <trkpt lat="43.77593" lon="3.83721">
        <ele>424.5</ele>
        <time>2026-05-21T09:10:55.000Z</time>
      </trkpt>
      <trkpt lat="43.77593" lon="3.83721">
        <ele>424.5</ele>
        <time>2026-05-21T09:10:56.000Z</time>
      </trkpt>
      <trkpt lat="43.77593" lon="3.83721">
        <ele>424.4</ele>
        <time>2026-05-21T09:10:57.000Z</time>
      </trkpt>
      <trkpt lat="43.77593" lon="3.8372">
        <ele>424.2</ele>
        <time>2026-05-21T09:10:58.000Z</time>
      </trkpt>
      <trkpt lat="43.77594" lon="3.8372">
        <ele>424.1</ele>
        <time>2026-05-21T09:10:59.000Z</time>
      </trkpt>
      <trkpt lat="43.77594" lon="3.8372">
        <ele>424</ele>
        <time>2026-05-21T09:11:00.000Z</time>
      </trkpt>
      <trkpt lat="43.77594" lon="3.8372">
        <ele>424.1</ele>
        <time>2026-05-21T09:11:01.000Z</time>
      </trkpt>
      <trkpt lat="43.77594" lon="3.8372">
        <ele>424.2</ele>
        <time>2026-05-21T09:11:02.000Z</time>
      </trkpt>
      <trkpt lat="43.77594" lon="3.8372">
        <ele>424.1</ele>
        <time>2026-05-21T09:11:03.000Z</time>
      </trkpt>
      <trkpt lat="43.77594" lon="3.8372">
        <ele>424</ele>
        <time>2026-05-21T09:11:04.000Z</time>
      </trkpt>
      <trkpt lat="43.77594" lon="3.8372">
        <ele>423.8</ele>
        <time>2026-05-21T09:11:05.000Z</time>
      </trkpt>
      <trkpt lat="43.77594" lon="3.8372">
        <ele>423.7</ele>
        <time>2026-05-21T09:11:06.000Z</time>
      </trkpt>
      <trkpt lat="43.77594" lon="3.8372">
        <ele>423.6</ele>
        <time>2026-05-21T09:11:07.000Z</time>
      </trkpt>
      <trkpt lat="43.77594" lon="3.8372">
        <ele>423.6</ele>
        <time>2026-05-21T09:11:08.000Z</time>
      </trkpt>
      <trkpt lat="43.77594" lon="3.83719">
        <ele>423.7</ele>
        <time>2026-05-21T09:11:09.000Z</time>
      </trkpt>
      <trkpt lat="43.77594" lon="3.83719">
        <ele>423.8</ele>
        <time>2026-05-21T09:11:10.000Z</time>
      </trkpt>
      <trkpt lat="43.77594" lon="3.83719">
        <ele>423.6</ele>
        <time>2026-05-21T09:11:11.000Z</time>
      </trkpt>
      <trkpt lat="43.77594" lon="3.83719">
        <ele>423.7</ele>
        <time>2026-05-21T09:11:12.000Z</time>
      </trkpt>
      <trkpt lat="43.77594" lon="3.83719">
        <ele>423.7</ele>
        <time>2026-05-21T09:11:13.000Z</time>
      </trkpt>
      <trkpt lat="43.77594" lon="3.83719">
        <ele>423.5</ele>
        <time>2026-05-21T09:11:14.000Z</time>
      </trkpt>
      <trkpt lat="43.77595" lon="3.83718">
        <ele>423.3</ele>
        <time>2026-05-21T09:11:15.000Z</time>
      </trkpt>
      <trkpt lat="43.77595" lon="3.83717">
        <ele>423.3</ele>
        <time>2026-05-21T09:11:16.000Z</time>
      </trkpt>
      <trkpt lat="43.77595" lon="3.83717">
        <ele>423.4</ele>
        <time>2026-05-21T09:11:17.000Z</time>
      </trkpt>
      <trkpt lat="43.77594" lon="3.83716">
        <ele>423.5</ele>
        <time>2026-05-21T09:11:18.000Z</time>
      </trkpt>
      <trkpt lat="43.77595" lon="3.83715">
        <ele>423.5</ele>
        <time>2026-05-21T09:11:19.000Z</time>
      </trkpt>
      <trkpt lat="43.77595" lon="3.83714">
        <ele>423.3</ele>
        <time>2026-05-21T09:11:20.000Z</time>
      </trkpt>
      <trkpt lat="43.77595" lon="3.83713">
        <ele>423.2</ele>
        <time>2026-05-21T09:11:21.000Z</time>
      </trkpt>
      <trkpt lat="43.77594" lon="3.83712">
        <ele>423.3</ele>
        <time>2026-05-21T09:11:22.000Z</time>
      </trkpt>
      <trkpt lat="43.77594" lon="3.83712">
        <ele>423.5</ele>
        <time>2026-05-21T09:11:23.000Z</time>
      </trkpt>
      <trkpt lat="43.77594" lon="3.83711">
        <ele>423.5</ele>
        <time>2026-05-21T09:11:24.000Z</time>
      </trkpt>
      <trkpt lat="43.77595" lon="3.83711">
        <ele>423.9</ele>
        <time>2026-05-21T09:11:25.000Z</time>
      </trkpt>
      <trkpt lat="43.77595" lon="3.8371">
        <ele>424.2</ele>
        <time>2026-05-21T09:11:26.000Z</time>
      </trkpt>
      <trkpt lat="43.77595" lon="3.8371">
        <ele>424.1</ele>
        <time>2026-05-21T09:11:27.000Z</time>
      </trkpt>
      <trkpt lat="43.77595" lon="3.8371">
        <ele>424.5</ele>
        <time>2026-05-21T09:11:28.000Z</time>
      </trkpt>
      <trkpt lat="43.77595" lon="3.8371">
        <ele>425</ele>
        <time>2026-05-21T09:11:29.000Z</time>
      </trkpt>
      <trkpt lat="43.77595" lon="3.8371">
        <ele>425.1</ele>
        <time>2026-05-21T09:11:30.000Z</time>
      </trkpt>
      <trkpt lat="43.77595" lon="3.8371">
        <ele>425.1</ele>
        <time>2026-05-21T09:11:31.000Z</time>
      </trkpt>
      <trkpt lat="43.77595" lon="3.8371">
        <ele>425.1</ele>
        <time>2026-05-21T09:11:32.000Z</time>
      </trkpt>
      <trkpt lat="43.77595" lon="3.8371">
        <ele>424.7</ele>
        <time>2026-05-21T09:11:33.000Z</time>
      </trkpt>
      <trkpt lat="43.77595" lon="3.8371">
        <ele>424.5</ele>
        <time>2026-05-21T09:11:34.000Z</time>
      </trkpt>
      <trkpt lat="43.77595" lon="3.8371">
        <ele>424.3</ele>
        <time>2026-05-21T09:11:35.000Z</time>
      </trkpt>
      <trkpt lat="43.77595" lon="3.8371">
        <ele>424.4</ele>
        <time>2026-05-21T09:11:36.000Z</time>
      </trkpt>
      <trkpt lat="43.77595" lon="3.8371">
        <ele>424.4</ele>
        <time>2026-05-21T09:11:37.000Z</time>
      </trkpt>
      <trkpt lat="43.77595" lon="3.8371">
        <ele>424.6</ele>
        <time>2026-05-21T09:11:38.000Z</time>
      </trkpt>
      <trkpt lat="43.77595" lon="3.8371">
        <ele>424.8</ele>
        <time>2026-05-21T09:11:39.000Z</time>
      </trkpt>
      <trkpt lat="43.77595" lon="3.8371">
        <ele>425</ele>
        <time>2026-05-21T09:11:40.000Z</time>
      </trkpt>
      <trkpt lat="43.77595" lon="3.8371">
        <ele>425.1</ele>
        <time>2026-05-21T09:11:41.000Z</time>
      </trkpt>
      <trkpt lat="43.77595" lon="3.8371">
        <ele>425</ele>
        <time>2026-05-21T09:11:42.000Z</time>
      </trkpt>
      <trkpt lat="43.77595" lon="3.8371">
        <ele>424.8</ele>
        <time>2026-05-21T09:11:43.000Z</time>
      </trkpt>
      <trkpt lat="43.77595" lon="3.8371">
        <ele>424.5</ele>
        <time>2026-05-21T09:11:44.000Z</time>
      </trkpt>
      <trkpt lat="43.77595" lon="3.8371">
        <ele>424.5</ele>
        <time>2026-05-21T09:11:45.000Z</time>
      </trkpt>
      <trkpt lat="43.77595" lon="3.83709">
        <ele>424.6</ele>
        <time>2026-05-21T09:11:46.000Z</time>
      </trkpt>
      <trkpt lat="43.77595" lon="3.83709">
        <ele>424.8</ele>
        <time>2026-05-21T09:11:47.000Z</time>
      </trkpt>
      <trkpt lat="43.77595" lon="3.83709">
        <ele>424.7</ele>
        <time>2026-05-21T09:11:48.000Z</time>
      </trkpt>
      <trkpt lat="43.77595" lon="3.83709">
        <ele>424.8</ele>
        <time>2026-05-21T09:11:49.000Z</time>
      </trkpt>
      <trkpt lat="43.77595" lon="3.83709">
        <ele>424.9</ele>
        <time>2026-05-21T09:11:50.000Z</time>
      </trkpt>
      <trkpt lat="43.77595" lon="3.83709">
        <ele>425.1</ele>
        <time>2026-05-21T09:11:51.000Z</time>
      </trkpt>
      <trkpt lat="43.77595" lon="3.83709">
        <ele>425.1</ele>
        <time>2026-05-21T09:11:52.000Z</time>
      </trkpt>
      <trkpt lat="43.77595" lon="3.83709">
        <ele>425.2</ele>
        <time>2026-05-21T09:11:53.000Z</time>
      </trkpt>
      <trkpt lat="43.77595" lon="3.83709">
        <ele>425.5</ele>
        <time>2026-05-21T09:11:54.000Z</time>
      </trkpt>
      <trkpt lat="43.77595" lon="3.83709">
        <ele>425.7</ele>
        <time>2026-05-21T09:11:55.000Z</time>
      </trkpt>
      <trkpt lat="43.77595" lon="3.83709">
        <ele>425.8</ele>
        <time>2026-05-21T09:11:56.000Z</time>
      </trkpt>
      <trkpt lat="43.77595" lon="3.83709">
        <ele>426</ele>
        <time>2026-05-21T09:11:57.000Z</time>
      </trkpt>
      <trkpt lat="43.77595" lon="3.83709">
        <ele>426.3</ele>
        <time>2026-05-21T09:11:58.000Z</time>
      </trkpt>
      <trkpt lat="43.77595" lon="3.83709">
        <ele>426.3</ele>
        <time>2026-05-21T09:11:59.000Z</time>
      </trkpt>
      <trkpt lat="43.77595" lon="3.83709">
        <ele>426.4</ele>
        <time>2026-05-21T09:12:00.000Z</time>
      </trkpt>
      <trkpt lat="43.77595" lon="3.83708">
        <ele>426.5</ele>
        <time>2026-05-21T09:12:01.000Z</time>
      </trkpt>
      <trkpt lat="43.77595" lon="3.83708">
        <ele>426.6</ele>
        <time>2026-05-21T09:12:02.000Z</time>
      </trkpt>
      <trkpt lat="43.77595" lon="3.83708">
        <ele>426.7</ele>
        <time>2026-05-21T09:12:03.000Z</time>
      </trkpt>
      <trkpt lat="43.77595" lon="3.83708">
        <ele>426.9</ele>
        <time>2026-05-21T09:12:04.000Z</time>
      </trkpt>
      <trkpt lat="43.77595" lon="3.83708">
        <ele>427</ele>
        <time>2026-05-21T09:12:05.000Z</time>
      </trkpt>
      <trkpt lat="43.77595" lon="3.83708">
        <ele>427</ele>
        <time>2026-05-21T09:12:06.000Z</time>
      </trkpt>
      <trkpt lat="43.77595" lon="3.83708">
        <ele>426.9</ele>
        <time>2026-05-21T09:12:07.000Z</time>
      </trkpt>
      <trkpt lat="43.77595" lon="3.83708">
        <ele>426.7</ele>
        <time>2026-05-21T09:12:08.000Z</time>
      </trkpt>
      <trkpt lat="43.77595" lon="3.83708">
        <ele>426.7</ele>
        <time>2026-05-21T09:12:09.000Z</time>
      </trkpt>
      <trkpt lat="43.77595" lon="3.83708">
        <ele>426.7</ele>
        <time>2026-05-21T09:12:10.000Z</time>
      </trkpt>
      <trkpt lat="43.77595" lon="3.83708">
        <ele>426.8</ele>
        <time>2026-05-21T09:12:11.000Z</time>
      </trkpt>
      <trkpt lat="43.77595" lon="3.83708">
        <ele>427</ele>
        <time>2026-05-21T09:12:12.000Z</time>
      </trkpt>
      <trkpt lat="43.77595" lon="3.83707">
        <ele>427.3</ele>
        <time>2026-05-21T09:12:13.000Z</time>
      </trkpt>
      <trkpt lat="43.77595" lon="3.83707">
        <ele>427.5</ele>
        <time>2026-05-21T09:12:14.000Z</time>
      </trkpt>
      <trkpt lat="43.77595" lon="3.83707">
        <ele>427.6</ele>
        <time>2026-05-21T09:12:15.000Z</time>
      </trkpt>
      <trkpt lat="43.77595" lon="3.83707">
        <ele>427.7</ele>
        <time>2026-05-21T09:12:16.000Z</time>
      </trkpt>
      <trkpt lat="43.77595" lon="3.83707">
        <ele>427.9</ele>
        <time>2026-05-21T09:12:17.000Z</time>
      </trkpt>
      <trkpt lat="43.77595" lon="3.83707">
        <ele>427.9</ele>
        <time>2026-05-21T09:12:19.000Z</time>
      </trkpt>
      <trkpt lat="43.77595" lon="3.83707">
        <ele>427.9</ele>
        <time>2026-05-21T09:12:20.000Z</time>
      </trkpt>
      <trkpt lat="43.77596" lon="3.83706">
        <ele>428.1</ele>
        <time>2026-05-21T09:12:21.000Z</time>
      </trkpt>
      <trkpt lat="43.77596" lon="3.83706">
        <ele>428.3</ele>
        <time>2026-05-21T09:12:22.000Z</time>
      </trkpt>
      <trkpt lat="43.77596" lon="3.83705">
        <ele>428.3</ele>
        <time>2026-05-21T09:12:23.000Z</time>
      </trkpt>
      <trkpt lat="43.77596" lon="3.83705">
        <ele>428.4</ele>
        <time>2026-05-21T09:12:24.000Z</time>
      </trkpt>
      <trkpt lat="43.77596" lon="3.83704">
        <ele>428.9</ele>
        <time>2026-05-21T09:12:25.000Z</time>
      </trkpt>
      <trkpt lat="43.77596" lon="3.83704">
        <ele>429.3</ele>
        <time>2026-05-21T09:12:26.000Z</time>
      </trkpt>
      <trkpt lat="43.77596" lon="3.83704">
        <ele>430.7</ele>
        <time>2026-05-21T09:12:27.000Z</time>
      </trkpt>
      <trkpt lat="43.77595" lon="3.83704">
        <ele>431</ele>
        <time>2026-05-21T09:12:28.000Z</time>
      </trkpt>
      <trkpt lat="43.77595" lon="3.83703">
        <ele>430.9</ele>
        <time>2026-05-21T09:12:29.000Z</time>
      </trkpt>
      <trkpt lat="43.77596" lon="3.83702">
        <ele>430.8</ele>
        <time>2026-05-21T09:12:30.000Z</time>
      </trkpt>
      <trkpt lat="43.77596" lon="3.83702">
        <ele>430.7</ele>
        <time>2026-05-21T09:12:31.000Z</time>
      </trkpt>
      <trkpt lat="43.77596" lon="3.83701">
        <ele>428.3</ele>
        <time>2026-05-21T09:12:32.000Z</time>
      </trkpt>
      <trkpt lat="43.77596" lon="3.83701">
        <ele>428.3</ele>
        <time>2026-05-21T09:12:33.000Z</time>
      </trkpt>
      <trkpt lat="43.77596" lon="3.83701">
        <ele>428.3</ele>
        <time>2026-05-21T09:12:34.000Z</time>
      </trkpt>
      <trkpt lat="43.77596" lon="3.83701">
        <ele>428.4</ele>
        <time>2026-05-21T09:12:35.000Z</time>
      </trkpt>
      <trkpt lat="43.77596" lon="3.83701">
        <ele>428.3</ele>
        <time>2026-05-21T09:12:36.000Z</time>
      </trkpt>
      <trkpt lat="43.77596" lon="3.83701">
        <ele>428.4</ele>
        <time>2026-05-21T09:12:37.000Z</time>
      </trkpt>
      <trkpt lat="43.77596" lon="3.83701">
        <ele>428.5</ele>
        <time>2026-05-21T09:12:38.000Z</time>
      </trkpt>
      <trkpt lat="43.77596" lon="3.83701">
        <ele>428.7</ele>
        <time>2026-05-21T09:12:39.000Z</time>
      </trkpt>
      <trkpt lat="43.77596" lon="3.83701">
        <ele>428.6</ele>
        <time>2026-05-21T09:12:40.000Z</time>
      </trkpt>
      <trkpt lat="43.77597" lon="3.837">
        <ele>428.4</ele>
        <time>2026-05-21T09:12:41.000Z</time>
      </trkpt>
      <trkpt lat="43.77597" lon="3.837">
        <ele>428.3</ele>
        <time>2026-05-21T09:12:42.000Z</time>
      </trkpt>
      <trkpt lat="43.77597" lon="3.83699">
        <ele>428.1</ele>
        <time>2026-05-21T09:12:43.000Z</time>
      </trkpt>
      <trkpt lat="43.77596" lon="3.83699">
        <ele>428.2</ele>
        <time>2026-05-21T09:12:44.000Z</time>
      </trkpt>
      <trkpt lat="43.77597" lon="3.83699">
        <ele>428.2</ele>
        <time>2026-05-21T09:12:45.000Z</time>
      </trkpt>
      <trkpt lat="43.77597" lon="3.83698">
        <ele>428.2</ele>
        <time>2026-05-21T09:12:46.000Z</time>
      </trkpt>
      <trkpt lat="43.77597" lon="3.83698">
        <ele>428.2</ele>
        <time>2026-05-21T09:12:47.000Z</time>
      </trkpt>
      <trkpt lat="43.77597" lon="3.83698">
        <ele>427.9</ele>
        <time>2026-05-21T09:12:48.000Z</time>
      </trkpt>
      <trkpt lat="43.77597" lon="3.83697">
        <ele>427.8</ele>
        <time>2026-05-21T09:12:49.000Z</time>
      </trkpt>
      <trkpt lat="43.77598" lon="3.83696">
        <ele>427.7</ele>
        <time>2026-05-21T09:12:50.000Z</time>
      </trkpt>
      <trkpt lat="43.77598" lon="3.83695">
        <ele>427.7</ele>
        <time>2026-05-21T09:12:51.000Z</time>
      </trkpt>
      <trkpt lat="43.77598" lon="3.83695">
        <ele>427.7</ele>
        <time>2026-05-21T09:12:52.000Z</time>
      </trkpt>
      <trkpt lat="43.77598" lon="3.83695">
        <ele>427.8</ele>
        <time>2026-05-21T09:12:53.000Z</time>
      </trkpt>
      <trkpt lat="43.77598" lon="3.83695">
        <ele>427.9</ele>
        <time>2026-05-21T09:12:54.000Z</time>
      </trkpt>
      <trkpt lat="43.77598" lon="3.83695">
        <ele>427.9</ele>
        <time>2026-05-21T09:12:55.000Z</time>
      </trkpt>
      <trkpt lat="43.77598" lon="3.83695">
        <ele>428</ele>
        <time>2026-05-21T09:12:56.000Z</time>
      </trkpt>
      <trkpt lat="43.77598" lon="3.83695">
        <ele>428</ele>
        <time>2026-05-21T09:12:57.000Z</time>
      </trkpt>
      <trkpt lat="43.77598" lon="3.83695">
        <ele>428</ele>
        <time>2026-05-21T09:12:58.000Z</time>
      </trkpt>
      <trkpt lat="43.77598" lon="3.83695">
        <ele>428</ele>
        <time>2026-05-21T09:12:59.000Z</time>
      </trkpt>
      <trkpt lat="43.77598" lon="3.83695">
        <ele>427.8</ele>
        <time>2026-05-21T09:13:00.000Z</time>
      </trkpt>
      <trkpt lat="43.77598" lon="3.83695">
        <ele>427.7</ele>
        <time>2026-05-21T09:13:01.000Z</time>
      </trkpt>
      <trkpt lat="43.77598" lon="3.83695">
        <ele>427.7</ele>
        <time>2026-05-21T09:13:02.000Z</time>
      </trkpt>
      <trkpt lat="43.77598" lon="3.83695">
        <ele>427.6</ele>
        <time>2026-05-21T09:13:03.000Z</time>
      </trkpt>
      <trkpt lat="43.77598" lon="3.83694">
        <ele>427.6</ele>
        <time>2026-05-21T09:13:04.000Z</time>
      </trkpt>
      <trkpt lat="43.77598" lon="3.83694">
        <ele>427.8</ele>
        <time>2026-05-21T09:13:05.000Z</time>
      </trkpt>
      <trkpt lat="43.77598" lon="3.83694">
        <ele>427.8</ele>
        <time>2026-05-21T09:13:06.000Z</time>
      </trkpt>
      <trkpt lat="43.77598" lon="3.83694">
        <ele>427.7</ele>
        <time>2026-05-21T09:13:07.000Z</time>
      </trkpt>
      <trkpt lat="43.77598" lon="3.83694">
        <ele>427.7</ele>
        <time>2026-05-21T09:13:08.000Z</time>
      </trkpt>
      <trkpt lat="43.77598" lon="3.83694">
        <ele>427.6</ele>
        <time>2026-05-21T09:13:09.000Z</time>
      </trkpt>
      <trkpt lat="43.77598" lon="3.83694">
        <ele>427.4</ele>
        <time>2026-05-21T09:13:10.000Z</time>
      </trkpt>
      <trkpt lat="43.77598" lon="3.83694">
        <ele>427.4</ele>
        <time>2026-05-21T09:13:11.000Z</time>
      </trkpt>
      <trkpt lat="43.77598" lon="3.83694">
        <ele>427.6</ele>
        <time>2026-05-21T09:13:12.000Z</time>
      </trkpt>
      <trkpt lat="43.77598" lon="3.83694">
        <ele>427.9</ele>
        <time>2026-05-21T09:13:13.000Z</time>
      </trkpt>
      <trkpt lat="43.77598" lon="3.83693">
        <ele>427.9</ele>
        <time>2026-05-21T09:13:14.000Z</time>
      </trkpt>
      <trkpt lat="43.77598" lon="3.83693">
        <ele>427.9</ele>
        <time>2026-05-21T09:13:15.000Z</time>
      </trkpt>
      <trkpt lat="43.77598" lon="3.83693">
        <ele>427.9</ele>
        <time>2026-05-21T09:13:16.000Z</time>
      </trkpt>
      <trkpt lat="43.77598" lon="3.83693">
        <ele>427.7</ele>
        <time>2026-05-21T09:13:17.000Z</time>
      </trkpt>
      <trkpt lat="43.77598" lon="3.83693">
        <ele>427.5</ele>
        <time>2026-05-21T09:13:18.000Z</time>
      </trkpt>
      <trkpt lat="43.77598" lon="3.83693">
        <ele>427.4</ele>
        <time>2026-05-21T09:13:19.000Z</time>
      </trkpt>
      <trkpt lat="43.77598" lon="3.83693">
        <ele>427.6</ele>
        <time>2026-05-21T09:13:20.000Z</time>
      </trkpt>
      <trkpt lat="43.77598" lon="3.83693">
        <ele>427.7</ele>
        <time>2026-05-21T09:13:21.000Z</time>
      </trkpt>
      <trkpt lat="43.77598" lon="3.83693">
        <ele>427.6</ele>
        <time>2026-05-21T09:13:22.000Z</time>
      </trkpt>
      <trkpt lat="43.77598" lon="3.83692">
        <ele>427.5</ele>
        <time>2026-05-21T09:13:23.000Z</time>
      </trkpt>
      <trkpt lat="43.77598" lon="3.83692">
        <ele>427.5</ele>
        <time>2026-05-21T09:13:24.000Z</time>
      </trkpt>
      <trkpt lat="43.77598" lon="3.83692">
        <ele>427.4</ele>
        <time>2026-05-21T09:13:25.000Z</time>
      </trkpt>
      <trkpt lat="43.77598" lon="3.83692">
        <ele>427.3</ele>
        <time>2026-05-21T09:13:26.000Z</time>
      </trkpt>
      <trkpt lat="43.77598" lon="3.83692">
        <ele>427.2</ele>
        <time>2026-05-21T09:13:27.000Z</time>
      </trkpt>
      <trkpt lat="43.77599" lon="3.83691">
        <ele>427.1</ele>
        <time>2026-05-21T09:13:28.000Z</time>
      </trkpt>
      <trkpt lat="43.77599" lon="3.83691">
        <ele>427.4</ele>
        <time>2026-05-21T09:13:29.000Z</time>
      </trkpt>
      <trkpt lat="43.77599" lon="3.83691">
        <ele>427.7</ele>
        <time>2026-05-21T09:13:30.000Z</time>
      </trkpt>
      <trkpt lat="43.77599" lon="3.83691">
        <ele>428</ele>
        <time>2026-05-21T09:13:31.000Z</time>
      </trkpt>
      <trkpt lat="43.77599" lon="3.8369">
        <ele>428.3</ele>
        <time>2026-05-21T09:13:32.000Z</time>
      </trkpt>
      <trkpt lat="43.77599" lon="3.8369">
        <ele>428.4</ele>
        <time>2026-05-21T09:13:33.000Z</time>
      </trkpt>
      <trkpt lat="43.77599" lon="3.8369">
        <ele>428.6</ele>
        <time>2026-05-21T09:13:34.000Z</time>
      </trkpt>
      <trkpt lat="43.77599" lon="3.8369">
        <ele>428.8</ele>
        <time>2026-05-21T09:13:35.000Z</time>
      </trkpt>
      <trkpt lat="43.77599" lon="3.83689">
        <ele>429</ele>
        <time>2026-05-21T09:13:36.000Z</time>
      </trkpt>
      <trkpt lat="43.77599" lon="3.83689">
        <ele>429</ele>
        <time>2026-05-21T09:13:37.000Z</time>
      </trkpt>
      <trkpt lat="43.77599" lon="3.83689">
        <ele>429.2</ele>
        <time>2026-05-21T09:13:38.000Z</time>
      </trkpt>
      <trkpt lat="43.77599" lon="3.83689">
        <ele>429.3</ele>
        <time>2026-05-21T09:13:39.000Z</time>
      </trkpt>
      <trkpt lat="43.77599" lon="3.83689">
        <ele>429.3</ele>
        <time>2026-05-21T09:13:40.000Z</time>
      </trkpt>
      <trkpt lat="43.77599" lon="3.83688">
        <ele>429.4</ele>
        <time>2026-05-21T09:13:41.000Z</time>
      </trkpt>
      <trkpt lat="43.77599" lon="3.83688">
        <ele>429.5</ele>
        <time>2026-05-21T09:13:42.000Z</time>
      </trkpt>
      <trkpt lat="43.77599" lon="3.83688">
        <ele>429.5</ele>
        <time>2026-05-21T09:13:43.000Z</time>
      </trkpt>
      <trkpt lat="43.77599" lon="3.83688">
        <ele>429.6</ele>
        <time>2026-05-21T09:13:44.000Z</time>
      </trkpt>
      <trkpt lat="43.77599" lon="3.83688">
        <ele>429.7</ele>
        <time>2026-05-21T09:13:45.000Z</time>
      </trkpt>
      <trkpt lat="43.77599" lon="3.83688">
        <ele>429.7</ele>
        <time>2026-05-21T09:13:46.000Z</time>
      </trkpt>
      <trkpt lat="43.77599" lon="3.83687">
        <ele>429.6</ele>
        <time>2026-05-21T09:13:47.000Z</time>
      </trkpt>
      <trkpt lat="43.77599" lon="3.83687">
        <ele>429.5</ele>
        <time>2026-05-21T09:13:48.000Z</time>
      </trkpt>
      <trkpt lat="43.77599" lon="3.83687">
        <ele>429.3</ele>
        <time>2026-05-21T09:13:49.000Z</time>
      </trkpt>
      <trkpt lat="43.77599" lon="3.83687">
        <ele>429.2</ele>
        <time>2026-05-21T09:13:50.000Z</time>
      </trkpt>
      <trkpt lat="43.77599" lon="3.83687">
        <ele>429.4</ele>
        <time>2026-05-21T09:13:51.000Z</time>
      </trkpt>
      <trkpt lat="43.77599" lon="3.83687">
        <ele>429.5</ele>
        <time>2026-05-21T09:13:52.000Z</time>
      </trkpt>
      <trkpt lat="43.77599" lon="3.83687">
        <ele>429.7</ele>
        <time>2026-05-21T09:13:53.000Z</time>
      </trkpt>
      <trkpt lat="43.77599" lon="3.83687">
        <ele>429.8</ele>
        <time>2026-05-21T09:13:54.000Z</time>
      </trkpt>
      <trkpt lat="43.77599" lon="3.83686">
        <ele>429.8</ele>
        <time>2026-05-21T09:13:55.999Z</time>
      </trkpt>
      <trkpt lat="43.77599" lon="3.83686">
        <ele>429.6</ele>
        <time>2026-05-21T09:13:56.999Z</time>
      </trkpt>
      <trkpt lat="43.77599" lon="3.83686">
        <ele>429.5</ele>
        <time>2026-05-21T09:13:57.999Z</time>
      </trkpt>
      <trkpt lat="43.77599" lon="3.83686">
        <ele>429.6</ele>
        <time>2026-05-21T09:13:58.999Z</time>
      </trkpt>
      <trkpt lat="43.77599" lon="3.83686">
        <ele>429.6</ele>
        <time>2026-05-21T09:13:59.999Z</time>
      </trkpt>
      <trkpt lat="43.77599" lon="3.83686">
        <ele>429.8</ele>
        <time>2026-05-21T09:14:00.999Z</time>
      </trkpt>
      <trkpt lat="43.77599" lon="3.83685">
        <ele>429.8</ele>
        <time>2026-05-21T09:14:01.999Z</time>
      </trkpt>
      <trkpt lat="43.77599" lon="3.83685">
        <ele>429.4</ele>
        <time>2026-05-21T09:14:02.999Z</time>
      </trkpt>
      <trkpt lat="43.77599" lon="3.83685">
        <ele>429.2</ele>
        <time>2026-05-21T09:14:03.999Z</time>
      </trkpt>
      <trkpt lat="43.77599" lon="3.83685">
        <ele>429.1</ele>
        <time>2026-05-21T09:14:04.999Z</time>
      </trkpt>
      <trkpt lat="43.77599" lon="3.83684">
        <ele>429.1</ele>
        <time>2026-05-21T09:14:05.999Z</time>
      </trkpt>
      <trkpt lat="43.77599" lon="3.83684">
        <ele>429.4</ele>
        <time>2026-05-21T09:14:06.999Z</time>
      </trkpt>
      <trkpt lat="43.77599" lon="3.83684">
        <ele>429.7</ele>
        <time>2026-05-21T09:14:07.999Z</time>
      </trkpt>
      <trkpt lat="43.77599" lon="3.83684">
        <ele>429.9</ele>
        <time>2026-05-21T09:14:08.999Z</time>
      </trkpt>
      <trkpt lat="43.77599" lon="3.83684">
        <ele>430.4</ele>
        <time>2026-05-21T09:14:09.999Z</time>
      </trkpt>
      <trkpt lat="43.77599" lon="3.83684">
        <ele>431</ele>
        <time>2026-05-21T09:14:10.999Z</time>
      </trkpt>
      <trkpt lat="43.77599" lon="3.83683">
        <ele>431.1</ele>
        <time>2026-05-21T09:14:11.999Z</time>
      </trkpt>
      <trkpt lat="43.77599" lon="3.83683">
        <ele>431.4</ele>
        <time>2026-05-21T09:14:12.999Z</time>
      </trkpt>
      <trkpt lat="43.77599" lon="3.83683">
        <ele>431.3</ele>
        <time>2026-05-21T09:14:13.999Z</time>
      </trkpt>
      <trkpt lat="43.77599" lon="3.83683">
        <ele>431.3</ele>
        <time>2026-05-21T09:14:14.999Z</time>
      </trkpt>
      <trkpt lat="43.77599" lon="3.83683">
        <ele>431.2</ele>
        <time>2026-05-21T09:14:15.999Z</time>
      </trkpt>
      <trkpt lat="43.77599" lon="3.83683">
        <ele>431.2</ele>
        <time>2026-05-21T09:14:16.999Z</time>
      </trkpt>
      <trkpt lat="43.77599" lon="3.83682">
        <ele>431.3</ele>
        <time>2026-05-21T09:14:17.999Z</time>
      </trkpt>
      <trkpt lat="43.77599" lon="3.83681">
        <ele>431.3</ele>
        <time>2026-05-21T09:14:18.999Z</time>
      </trkpt>
      <trkpt lat="43.77598" lon="3.83681">
        <ele>431.3</ele>
        <time>2026-05-21T09:14:19.999Z</time>
      </trkpt>
      <trkpt lat="43.77598" lon="3.83681">
        <ele>431.2</ele>
        <time>2026-05-21T09:14:20.999Z</time>
      </trkpt>
      <trkpt lat="43.77598" lon="3.83681">
        <ele>431.1</ele>
        <time>2026-05-21T09:14:21.999Z</time>
      </trkpt>
      <trkpt lat="43.77598" lon="3.8368">
        <ele>431.1</ele>
        <time>2026-05-21T09:14:22.999Z</time>
      </trkpt>
      <trkpt lat="43.77598" lon="3.8368">
        <ele>431.1</ele>
        <time>2026-05-21T09:14:23.999Z</time>
      </trkpt>
      <trkpt lat="43.77598" lon="3.8368">
        <ele>431.1</ele>
        <time>2026-05-21T09:14:24.999Z</time>
      </trkpt>
      <trkpt lat="43.77598" lon="3.8368">
        <ele>431.1</ele>
        <time>2026-05-21T09:14:25.999Z</time>
      </trkpt>
      <trkpt lat="43.77598" lon="3.8368">
        <ele>431.2</ele>
        <time>2026-05-21T09:14:26.999Z</time>
      </trkpt>
      <trkpt lat="43.77598" lon="3.8368">
        <ele>431.3</ele>
        <time>2026-05-21T09:14:27.999Z</time>
      </trkpt>
      <trkpt lat="43.77598" lon="3.8368">
        <ele>431.7</ele>
        <time>2026-05-21T09:14:28.999Z</time>
      </trkpt>
      <trkpt lat="43.77598" lon="3.83679">
        <ele>432.3</ele>
        <time>2026-05-21T09:14:29.999Z</time>
      </trkpt>
      <trkpt lat="43.77598" lon="3.83679">
        <ele>432.4</ele>
        <time>2026-05-21T09:14:30.999Z</time>
      </trkpt>
      <trkpt lat="43.77598" lon="3.83679">
        <ele>432.6</ele>
        <time>2026-05-21T09:14:31.999Z</time>
      </trkpt>
      <trkpt lat="43.77599" lon="3.83679">
        <ele>432.4</ele>
        <time>2026-05-21T09:14:32.999Z</time>
      </trkpt>
      <trkpt lat="43.77599" lon="3.83679">
        <ele>432.3</ele>
        <time>2026-05-21T09:14:33.999Z</time>
      </trkpt>
      <trkpt lat="43.77599" lon="3.83678">
        <ele>432.5</ele>
        <time>2026-05-21T09:14:34.999Z</time>
      </trkpt>
      <trkpt lat="43.77599" lon="3.83678">
        <ele>432.6</ele>
        <time>2026-05-21T09:14:35.999Z</time>
      </trkpt>
      <trkpt lat="43.77599" lon="3.83678">
        <ele>432.6</ele>
        <time>2026-05-21T09:14:36.999Z</time>
      </trkpt>
      <trkpt lat="43.77599" lon="3.83678">
        <ele>432.7</ele>
        <time>2026-05-21T09:14:37.999Z</time>
      </trkpt>
      <trkpt lat="43.77599" lon="3.83678">
        <ele>432.7</ele>
        <time>2026-05-21T09:14:38.999Z</time>
      </trkpt>
      <trkpt lat="43.77599" lon="3.83678">
        <ele>432.6</ele>
        <time>2026-05-21T09:14:39.999Z</time>
      </trkpt>
      <trkpt lat="43.77599" lon="3.83678">
        <ele>432.8</ele>
        <time>2026-05-21T09:14:40.999Z</time>
      </trkpt>
      <trkpt lat="43.77599" lon="3.83678">
        <ele>432.9</ele>
        <time>2026-05-21T09:14:41.999Z</time>
      </trkpt>
      <trkpt lat="43.77599" lon="3.83677">
        <ele>433</ele>
        <time>2026-05-21T09:14:42.999Z</time>
      </trkpt>
      <trkpt lat="43.77599" lon="3.83677">
        <ele>433.1</ele>
        <time>2026-05-21T09:14:43.999Z</time>
      </trkpt>
      <trkpt lat="43.77599" lon="3.83677">
        <ele>433.3</ele>
        <time>2026-05-21T09:14:44.999Z</time>
      </trkpt>
      <trkpt lat="43.77599" lon="3.83677">
        <ele>433.4</ele>
        <time>2026-05-21T09:14:45.999Z</time>
      </trkpt>
      <trkpt lat="43.77599" lon="3.83677">
        <ele>433.1</ele>
        <time>2026-05-21T09:14:46.999Z</time>
      </trkpt>
      <trkpt lat="43.77599" lon="3.83677">
        <ele>433.1</ele>
        <time>2026-05-21T09:14:47.999Z</time>
      </trkpt>
      <trkpt lat="43.77599" lon="3.83677">
        <ele>433.1</ele>
        <time>2026-05-21T09:14:48.999Z</time>
      </trkpt>
      <trkpt lat="43.77599" lon="3.83677">
        <ele>433</ele>
        <time>2026-05-21T09:14:49.999Z</time>
      </trkpt>
      <trkpt lat="43.77599" lon="3.83677">
        <ele>433.1</ele>
        <time>2026-05-21T09:14:50.999Z</time>
      </trkpt>
      <trkpt lat="43.77599" lon="3.83676">
        <ele>433.1</ele>
        <time>2026-05-21T09:14:51.999Z</time>
      </trkpt>
      <trkpt lat="43.77599" lon="3.83676">
        <ele>433.2</ele>
        <time>2026-05-21T09:14:52.999Z</time>
      </trkpt>
      <trkpt lat="43.77599" lon="3.83676">
        <ele>433.4</ele>
        <time>2026-05-21T09:14:53.999Z</time>
      </trkpt>
      <trkpt lat="43.77599" lon="3.83676">
        <ele>433.8</ele>
        <time>2026-05-21T09:14:54.999Z</time>
      </trkpt>
      <trkpt lat="43.77599" lon="3.83676">
        <ele>434</ele>
        <time>2026-05-21T09:14:55.999Z</time>
      </trkpt>
      <trkpt lat="43.77599" lon="3.83676">
        <ele>434.4</ele>
        <time>2026-05-21T09:14:56.999Z</time>
      </trkpt>
      <trkpt lat="43.77599" lon="3.83676">
        <ele>434.8</ele>
        <time>2026-05-21T09:14:57.999Z</time>
      </trkpt>
      <trkpt lat="43.77599" lon="3.83676">
        <ele>434.8</ele>
        <time>2026-05-21T09:14:58.999Z</time>
      </trkpt>
      <trkpt lat="43.77599" lon="3.83676">
        <ele>434.5</ele>
        <time>2026-05-21T09:14:59.999Z</time>
      </trkpt>
      <trkpt lat="43.77599" lon="3.83676">
        <ele>434.5</ele>
        <time>2026-05-21T09:15:00.999Z</time>
      </trkpt>
      <trkpt lat="43.77599" lon="3.83675">
        <ele>434.4</ele>
        <time>2026-05-21T09:15:01.999Z</time>
      </trkpt>
      <trkpt lat="43.77599" lon="3.83675">
        <ele>434.3</ele>
        <time>2026-05-21T09:15:02.999Z</time>
      </trkpt>
      <trkpt lat="43.77599" lon="3.83675">
        <ele>434.3</ele>
        <time>2026-05-21T09:15:03.999Z</time>
      </trkpt>
      <trkpt lat="43.77599" lon="3.83675">
        <ele>434.5</ele>
        <time>2026-05-21T09:15:04.999Z</time>
      </trkpt>
      <trkpt lat="43.77599" lon="3.83675">
        <ele>435</ele>
        <time>2026-05-21T09:15:05.999Z</time>
      </trkpt>
      <trkpt lat="43.77599" lon="3.83674">
        <ele>435.3</ele>
        <time>2026-05-21T09:15:06.999Z</time>
      </trkpt>
      <trkpt lat="43.77599" lon="3.83674">
        <ele>435.6</ele>
        <time>2026-05-21T09:15:07.999Z</time>
      </trkpt>
      <trkpt lat="43.77598" lon="3.83673">
        <ele>435.9</ele>
        <time>2026-05-21T09:15:08.999Z</time>
      </trkpt>
      <trkpt lat="43.77598" lon="3.83672">
        <ele>436</ele>
        <time>2026-05-21T09:15:09.999Z</time>
      </trkpt>
      <trkpt lat="43.77598" lon="3.83672">
        <ele>436.2</ele>
        <time>2026-05-21T09:15:10.999Z</time>
      </trkpt>
      <trkpt lat="43.77598" lon="3.83672">
        <ele>436.4</ele>
        <time>2026-05-21T09:15:11.999Z</time>
      </trkpt>
      <trkpt lat="43.77598" lon="3.83672">
        <ele>436.8</ele>
        <time>2026-05-21T09:15:12.999Z</time>
      </trkpt>
      <trkpt lat="43.77598" lon="3.83672">
        <ele>437.2</ele>
        <time>2026-05-21T09:15:13.999Z</time>
      </trkpt>
      <trkpt lat="43.77598" lon="3.83672">
        <ele>437.3</ele>
        <time>2026-05-21T09:15:14.999Z</time>
      </trkpt>
      <trkpt lat="43.77598" lon="3.83672">
        <ele>437.4</ele>
        <time>2026-05-21T09:15:15.999Z</time>
      </trkpt>
      <trkpt lat="43.77598" lon="3.83672">
        <ele>437.4</ele>
        <time>2026-05-21T09:15:16.999Z</time>
      </trkpt>
      <trkpt lat="43.77598" lon="3.83672">
        <ele>437.6</ele>
        <time>2026-05-21T09:15:17.999Z</time>
      </trkpt>
      <trkpt lat="43.77598" lon="3.83672">
        <ele>437.6</ele>
        <time>2026-05-21T09:15:18.999Z</time>
      </trkpt>
      <trkpt lat="43.77598" lon="3.83672">
        <ele>437.7</ele>
        <time>2026-05-21T09:15:19.999Z</time>
      </trkpt>
      <trkpt lat="43.77598" lon="3.83672">
        <ele>437.7</ele>
        <time>2026-05-21T09:15:20.999Z</time>
      </trkpt>
      <trkpt lat="43.77598" lon="3.83672">
        <ele>437.9</ele>
        <time>2026-05-21T09:15:21.999Z</time>
      </trkpt>
      <trkpt lat="43.77598" lon="3.83672">
        <ele>438</ele>
        <time>2026-05-21T09:15:22.999Z</time>
      </trkpt>
      <trkpt lat="43.77598" lon="3.83672">
        <ele>438</ele>
        <time>2026-05-21T09:15:23.999Z</time>
      </trkpt>
      <trkpt lat="43.77598" lon="3.83672">
        <ele>438.1</ele>
        <time>2026-05-21T09:15:24.999Z</time>
      </trkpt>
      <trkpt lat="43.77598" lon="3.83672">
        <ele>438.3</ele>
        <time>2026-05-21T09:15:25.999Z</time>
      </trkpt>
      <trkpt lat="43.77598" lon="3.83672">
        <ele>438.3</ele>
        <time>2026-05-21T09:15:26.999Z</time>
      </trkpt>
      <trkpt lat="43.77598" lon="3.83671">
        <ele>438.3</ele>
        <time>2026-05-21T09:15:27.999Z</time>
      </trkpt>
      <trkpt lat="43.77598" lon="3.83671">
        <ele>438.1</ele>
        <time>2026-05-21T09:15:28.999Z</time>
      </trkpt>
      <trkpt lat="43.77598" lon="3.83671">
        <ele>438</ele>
        <time>2026-05-21T09:15:29.999Z</time>
      </trkpt>
      <trkpt lat="43.77598" lon="3.83671">
        <ele>438.1</ele>
        <time>2026-05-21T09:15:30.999Z</time>
      </trkpt>
      <trkpt lat="43.77598" lon="3.83671">
        <ele>438</ele>
        <time>2026-05-21T09:15:31.999Z</time>
      </trkpt>
      <trkpt lat="43.77598" lon="3.83671">
        <ele>437.9</ele>
        <time>2026-05-21T09:15:32.999Z</time>
      </trkpt>
      <trkpt lat="43.77598" lon="3.83671">
        <ele>437.8</ele>
        <time>2026-05-21T09:15:33.999Z</time>
      </trkpt>
      <trkpt lat="43.77598" lon="3.83671">
        <ele>437.7</ele>
        <time>2026-05-21T09:15:34.999Z</time>
      </trkpt>
      <trkpt lat="43.77598" lon="3.83671">
        <ele>437.8</ele>
        <time>2026-05-21T09:15:35.999Z</time>
      </trkpt>
      <trkpt lat="43.77598" lon="3.8367">
        <ele>437.9</ele>
        <time>2026-05-21T09:15:36.999Z</time>
      </trkpt>
      <trkpt lat="43.77598" lon="3.8367">
        <ele>437.7</ele>
        <time>2026-05-21T09:15:37.999Z</time>
      </trkpt>
      <trkpt lat="43.77598" lon="3.8367">
        <ele>437.8</ele>
        <time>2026-05-21T09:15:38.999Z</time>
      </trkpt>
      <trkpt lat="43.77598" lon="3.8367">
        <ele>437.5</ele>
        <time>2026-05-21T09:15:39.999Z</time>
      </trkpt>
      <trkpt lat="43.77598" lon="3.8367">
        <ele>437.5</ele>
        <time>2026-05-21T09:15:40.999Z</time>
      </trkpt>
      <trkpt lat="43.77598" lon="3.8367">
        <ele>437.3</ele>
        <time>2026-05-21T09:15:41.999Z</time>
      </trkpt>
      <trkpt lat="43.77598" lon="3.8367">
        <ele>437.1</ele>
        <time>2026-05-21T09:15:42.999Z</time>
      </trkpt>
      <trkpt lat="43.77598" lon="3.83669">
        <ele>437.1</ele>
        <time>2026-05-21T09:15:43.999Z</time>
      </trkpt>
      <trkpt lat="43.77598" lon="3.83669">
        <ele>436.8</ele>
        <time>2026-05-21T09:15:44.999Z</time>
      </trkpt>
      <trkpt lat="43.77598" lon="3.83669">
        <ele>436.5</ele>
        <time>2026-05-21T09:15:45.999Z</time>
      </trkpt>
      <trkpt lat="43.77598" lon="3.83669">
        <ele>436.2</ele>
        <time>2026-05-21T09:15:46.999Z</time>
      </trkpt>
      <trkpt lat="43.77598" lon="3.83669">
        <ele>436.2</ele>
        <time>2026-05-21T09:15:47.999Z</time>
      </trkpt>
      <trkpt lat="43.77598" lon="3.83668">
        <ele>436.1</ele>
        <time>2026-05-21T09:15:48.999Z</time>
      </trkpt>
      <trkpt lat="43.77598" lon="3.83668">
        <ele>436</ele>
        <time>2026-05-21T09:15:49.999Z</time>
      </trkpt>
      <trkpt lat="43.77598" lon="3.83668">
        <ele>435.8</ele>
        <time>2026-05-21T09:15:50.999Z</time>
      </trkpt>
      <trkpt lat="43.77599" lon="3.83668">
        <ele>435.8</ele>
        <time>2026-05-21T09:15:51.999Z</time>
      </trkpt>
      <trkpt lat="43.77598" lon="3.83668">
        <ele>435.8</ele>
        <time>2026-05-21T09:15:52.999Z</time>
      </trkpt>
      <trkpt lat="43.77598" lon="3.83667">
        <ele>435.7</ele>
        <time>2026-05-21T09:15:53.999Z</time>
      </trkpt>
      <trkpt lat="43.77598" lon="3.83667">
        <ele>435.8</ele>
        <time>2026-05-21T09:15:54.999Z</time>
      </trkpt>
      <trkpt lat="43.77598" lon="3.83667">
        <ele>435.7</ele>
        <time>2026-05-21T09:15:55.999Z</time>
      </trkpt>
      <trkpt lat="43.77599" lon="3.83667">
        <ele>435.7</ele>
        <time>2026-05-21T09:15:56.999Z</time>
      </trkpt>
      <trkpt lat="43.77599" lon="3.83667">
        <ele>435.6</ele>
        <time>2026-05-21T09:15:57.999Z</time>
      </trkpt>
      <trkpt lat="43.77599" lon="3.83667">
        <ele>435.5</ele>
        <time>2026-05-21T09:15:58.999Z</time>
      </trkpt>
      <trkpt lat="43.77599" lon="3.83667">
        <ele>435.3</ele>
        <time>2026-05-21T09:15:59.999Z</time>
      </trkpt>
      <trkpt lat="43.77598" lon="3.83667">
        <ele>435.3</ele>
        <time>2026-05-21T09:16:00.999Z</time>
      </trkpt>
      <trkpt lat="43.77599" lon="3.83667">
        <ele>435.3</ele>
        <time>2026-05-21T09:16:01.999Z</time>
      </trkpt>
      <trkpt lat="43.77599" lon="3.83667">
        <ele>435.2</ele>
        <time>2026-05-21T09:16:02.999Z</time>
      </trkpt>
      <trkpt lat="43.77599" lon="3.83667">
        <ele>435</ele>
        <time>2026-05-21T09:16:03.999Z</time>
      </trkpt>
      <trkpt lat="43.77599" lon="3.83666">
        <ele>434.9</ele>
        <time>2026-05-21T09:16:04.999Z</time>
      </trkpt>
      <trkpt lat="43.77599" lon="3.83665">
        <ele>434.9</ele>
        <time>2026-05-21T09:16:05.999Z</time>
      </trkpt>
      <trkpt lat="43.77599" lon="3.83665">
        <ele>434.6</ele>
        <time>2026-05-21T09:16:06.999Z</time>
      </trkpt>
      <trkpt lat="43.77599" lon="3.83664">
        <ele>434.5</ele>
        <time>2026-05-21T09:16:07.999Z</time>
      </trkpt>
      <trkpt lat="43.77599" lon="3.83664">
        <ele>434.5</ele>
        <time>2026-05-21T09:16:08.999Z</time>
      </trkpt>
      <trkpt lat="43.77599" lon="3.83663">
        <ele>434.6</ele>
        <time>2026-05-21T09:16:09.999Z</time>
      </trkpt>
      <trkpt lat="43.77598" lon="3.83662">
        <ele>434.6</ele>
        <time>2026-05-21T09:16:10.999Z</time>
      </trkpt>
      <trkpt lat="43.77598" lon="3.83662">
        <ele>434.3</ele>
        <time>2026-05-21T09:16:11.999Z</time>
      </trkpt>
      <trkpt lat="43.77597" lon="3.83662">
        <ele>434.3</ele>
        <time>2026-05-21T09:16:12.999Z</time>
      </trkpt>
      <trkpt lat="43.77597" lon="3.83661">
        <ele>434.3</ele>
        <time>2026-05-21T09:16:13.999Z</time>
      </trkpt>
      <trkpt lat="43.77597" lon="3.83661">
        <ele>434.1</ele>
        <time>2026-05-21T09:16:14.999Z</time>
      </trkpt>
      <trkpt lat="43.77597" lon="3.83661">
        <ele>435</ele>
        <time>2026-05-21T09:16:15.999Z</time>
      </trkpt>
      <trkpt lat="43.77597" lon="3.83661">
        <ele>434.8</ele>
        <time>2026-05-21T09:16:16.999Z</time>
      </trkpt>
      <trkpt lat="43.77597" lon="3.83661">
        <ele>434.7</ele>
        <time>2026-05-21T09:16:17.999Z</time>
      </trkpt>
      <trkpt lat="43.77597" lon="3.83661">
        <ele>434.7</ele>
        <time>2026-05-21T09:16:18.999Z</time>
      </trkpt>
      <trkpt lat="43.77597" lon="3.83661">
        <ele>434.6</ele>
        <time>2026-05-21T09:16:19.999Z</time>
      </trkpt>
      <trkpt lat="43.77597" lon="3.83661">
        <ele>434.5</ele>
        <time>2026-05-21T09:16:20.999Z</time>
      </trkpt>
      <trkpt lat="43.77598" lon="3.8366">
        <ele>434.3</ele>
        <time>2026-05-21T09:16:21.999Z</time>
      </trkpt>
      <trkpt lat="43.77598" lon="3.83659">
        <ele>434</ele>
        <time>2026-05-21T09:16:22.999Z</time>
      </trkpt>
      <trkpt lat="43.77598" lon="3.83659">
        <ele>433.7</ele>
        <time>2026-05-21T09:16:23.999Z</time>
      </trkpt>
      <trkpt lat="43.77598" lon="3.83659">
        <ele>433.7</ele>
        <time>2026-05-21T09:16:24.999Z</time>
      </trkpt>
      <trkpt lat="43.77598" lon="3.83659">
        <ele>433.5</ele>
        <time>2026-05-21T09:16:25.999Z</time>
      </trkpt>
      <trkpt lat="43.77598" lon="3.83659">
        <ele>433.9</ele>
        <time>2026-05-21T09:16:26.999Z</time>
      </trkpt>
      <trkpt lat="43.77598" lon="3.83659">
        <ele>434.2</ele>
        <time>2026-05-21T09:16:27.999Z</time>
      </trkpt>
      <trkpt lat="43.77598" lon="3.83659">
        <ele>434.2</ele>
        <time>2026-05-21T09:16:28.999Z</time>
      </trkpt>
      <trkpt lat="43.77598" lon="3.83659">
        <ele>434.3</ele>
        <time>2026-05-21T09:16:29.999Z</time>
      </trkpt>
      <trkpt lat="43.77598" lon="3.83659">
        <ele>434.4</ele>
        <time>2026-05-21T09:16:30.999Z</time>
      </trkpt>
      <trkpt lat="43.77598" lon="3.83659">
        <ele>434.5</ele>
        <time>2026-05-21T09:16:31.999Z</time>
      </trkpt>
      <trkpt lat="43.77598" lon="3.83659">
        <ele>434.5</ele>
        <time>2026-05-21T09:16:32.999Z</time>
      </trkpt>
      <trkpt lat="43.77598" lon="3.83659">
        <ele>434.5</ele>
        <time>2026-05-21T09:16:33.999Z</time>
      </trkpt>
      <trkpt lat="43.77598" lon="3.83659">
        <ele>434.6</ele>
        <time>2026-05-21T09:16:34.999Z</time>
      </trkpt>
      <trkpt lat="43.77598" lon="3.83659">
        <ele>434.9</ele>
        <time>2026-05-21T09:16:35.999Z</time>
      </trkpt>
      <trkpt lat="43.77598" lon="3.83659">
        <ele>435.1</ele>
        <time>2026-05-21T09:16:36.999Z</time>
      </trkpt>
      <trkpt lat="43.77598" lon="3.83659">
        <ele>435.2</ele>
        <time>2026-05-21T09:16:37.999Z</time>
      </trkpt>
      <trkpt lat="43.77598" lon="3.83659">
        <ele>435.3</ele>
        <time>2026-05-21T09:16:38.999Z</time>
      </trkpt>
      <trkpt lat="43.77598" lon="3.83659">
        <ele>435.2</ele>
        <time>2026-05-21T09:16:39.999Z</time>
      </trkpt>
      <trkpt lat="43.77599" lon="3.83659">
        <ele>435.2</ele>
        <time>2026-05-21T09:16:40.999Z</time>
      </trkpt>
      <trkpt lat="43.77599" lon="3.83659">
        <ele>435</ele>
        <time>2026-05-21T09:16:41.999Z</time>
      </trkpt>
      <trkpt lat="43.77601" lon="3.83658">
        <ele>434.8</ele>
        <time>2026-05-21T09:16:43.999Z</time>
      </trkpt>
      <trkpt lat="43.77602" lon="3.83658">
        <ele>434.8</ele>
        <time>2026-05-21T09:16:44.999Z</time>
      </trkpt>
      <trkpt lat="43.77602" lon="3.83657">
        <ele>435</ele>
        <time>2026-05-21T09:16:45.999Z</time>
      </trkpt>
      <trkpt lat="43.77602" lon="3.83656">
        <ele>435.2</ele>
        <time>2026-05-21T09:16:46.999Z</time>
      </trkpt>
      <trkpt lat="43.77603" lon="3.83655">
        <ele>435.2</ele>
        <time>2026-05-21T09:16:47.999Z</time>
      </trkpt>
      <trkpt lat="43.77604" lon="3.83654">
        <ele>435.4</ele>
        <time>2026-05-21T09:16:48.999Z</time>
      </trkpt>
      <trkpt lat="43.77604" lon="3.83654">
        <ele>434.3</ele>
        <time>2026-05-21T09:16:49.999Z</time>
      </trkpt>
      <trkpt lat="43.77604" lon="3.83654">
        <ele>434.3</ele>
        <time>2026-05-21T09:16:50.999Z</time>
      </trkpt>
      <trkpt lat="43.77604" lon="3.83654">
        <ele>434.1</ele>
        <time>2026-05-21T09:16:51.999Z</time>
      </trkpt>
      <trkpt lat="43.77604" lon="3.83654">
        <ele>434.3</ele>
        <time>2026-05-21T09:16:52.999Z</time>
      </trkpt>
      <trkpt lat="43.77604" lon="3.83654">
        <ele>434.4</ele>
        <time>2026-05-21T09:16:53.999Z</time>
      </trkpt>
      <trkpt lat="43.77604" lon="3.83654">
        <ele>434.5</ele>
        <time>2026-05-21T09:16:54.999Z</time>
      </trkpt>
      <trkpt lat="43.77603" lon="3.83655">
        <ele>434.4</ele>
        <time>2026-05-21T09:16:55.999Z</time>
      </trkpt>
      <trkpt lat="43.77603" lon="3.83655">
        <ele>434.5</ele>
        <time>2026-05-21T09:16:56.999Z</time>
      </trkpt>
      <trkpt lat="43.77604" lon="3.83655">
        <ele>434.8</ele>
        <time>2026-05-21T09:16:57.999Z</time>
      </trkpt>
      <trkpt lat="43.77603" lon="3.83654">
        <ele>434.9</ele>
        <time>2026-05-21T09:16:58.999Z</time>
      </trkpt>
      <trkpt lat="43.77603" lon="3.83654">
        <ele>435.2</ele>
        <time>2026-05-21T09:16:59.999Z</time>
      </trkpt>
      <trkpt lat="43.77602" lon="3.83655">
        <ele>435.4</ele>
        <time>2026-05-21T09:17:00.999Z</time>
      </trkpt>
      <trkpt lat="43.77602" lon="3.83655">
        <ele>435.4</ele>
        <time>2026-05-21T09:17:01.999Z</time>
      </trkpt>
      <trkpt lat="43.77601" lon="3.83655">
        <ele>435.6</ele>
        <time>2026-05-21T09:17:02.999Z</time>
      </trkpt>
      <trkpt lat="43.77601" lon="3.83655">
        <ele>435.7</ele>
        <time>2026-05-21T09:17:03.999Z</time>
      </trkpt>
      <trkpt lat="43.77601" lon="3.83655">
        <ele>435.7</ele>
        <time>2026-05-21T09:17:04.999Z</time>
      </trkpt>
      <trkpt lat="43.77601" lon="3.83654">
        <ele>435.9</ele>
        <time>2026-05-21T09:17:05.999Z</time>
      </trkpt>
      <trkpt lat="43.77601" lon="3.83654">
        <ele>436</ele>
        <time>2026-05-21T09:17:06.999Z</time>
      </trkpt>
      <trkpt lat="43.77601" lon="3.83654">
        <ele>435.9</ele>
        <time>2026-05-21T09:17:07.999Z</time>
      </trkpt>
      <trkpt lat="43.77601" lon="3.83654">
        <ele>436</ele>
        <time>2026-05-21T09:17:08.999Z</time>
      </trkpt>
      <trkpt lat="43.77601" lon="3.83654">
        <ele>436.1</ele>
        <time>2026-05-21T09:17:09.999Z</time>
      </trkpt>
      <trkpt lat="43.77601" lon="3.83654">
        <ele>436.2</ele>
        <time>2026-05-21T09:17:10.999Z</time>
      </trkpt>
      <trkpt lat="43.77601" lon="3.83654">
        <ele>436.3</ele>
        <time>2026-05-21T09:17:11.999Z</time>
      </trkpt>
      <trkpt lat="43.77601" lon="3.83654">
        <ele>436.4</ele>
        <time>2026-05-21T09:17:12.999Z</time>
      </trkpt>
      <trkpt lat="43.77601" lon="3.83654">
        <ele>436.4</ele>
        <time>2026-05-21T09:17:13.999Z</time>
      </trkpt>
      <trkpt lat="43.77601" lon="3.83654">
        <ele>436.6</ele>
        <time>2026-05-21T09:17:14.999Z</time>
      </trkpt>
      <trkpt lat="43.77601" lon="3.83654">
        <ele>436.8</ele>
        <time>2026-05-21T09:17:15.999Z</time>
      </trkpt>
      <trkpt lat="43.77601" lon="3.83654">
        <ele>436.7</ele>
        <time>2026-05-21T09:17:16.999Z</time>
      </trkpt>
      <trkpt lat="43.77601" lon="3.83654">
        <ele>436.7</ele>
        <time>2026-05-21T09:17:17.999Z</time>
      </trkpt>
      <trkpt lat="43.77601" lon="3.83654">
        <ele>436.7</ele>
        <time>2026-05-21T09:17:18.999Z</time>
      </trkpt>
      <trkpt lat="43.77601" lon="3.83654">
        <ele>436.5</ele>
        <time>2026-05-21T09:17:19.999Z</time>
      </trkpt>
      <trkpt lat="43.77601" lon="3.83654">
        <ele>436.8</ele>
        <time>2026-05-21T09:17:20.999Z</time>
      </trkpt>
      <trkpt lat="43.77601" lon="3.83654">
        <ele>437.1</ele>
        <time>2026-05-21T09:17:21.999Z</time>
      </trkpt>
      <trkpt lat="43.77601" lon="3.83654">
        <ele>437.3</ele>
        <time>2026-05-21T09:17:22.999Z</time>
      </trkpt>
      <trkpt lat="43.77601" lon="3.83653">
        <ele>437.5</ele>
        <time>2026-05-21T09:17:23.999Z</time>
      </trkpt>
      <trkpt lat="43.77601" lon="3.83653">
        <ele>437.7</ele>
        <time>2026-05-21T09:17:24.999Z</time>
      </trkpt>
      <trkpt lat="43.77601" lon="3.83652">
        <ele>437.5</ele>
        <time>2026-05-21T09:17:25.999Z</time>
      </trkpt>
      <trkpt lat="43.77601" lon="3.83652">
        <ele>437.6</ele>
        <time>2026-05-21T09:17:26.999Z</time>
      </trkpt>
      <trkpt lat="43.77601" lon="3.83652">
        <ele>437.9</ele>
        <time>2026-05-21T09:17:27.999Z</time>
      </trkpt>
      <trkpt lat="43.77601" lon="3.83652">
        <ele>438</ele>
        <time>2026-05-21T09:17:28.999Z</time>
      </trkpt>
      <trkpt lat="43.77601" lon="3.83652">
        <ele>438.5</ele>
        <time>2026-05-21T09:17:29.999Z</time>
      </trkpt>
      <trkpt lat="43.77601" lon="3.83652">
        <ele>438.6</ele>
        <time>2026-05-21T09:17:30.999Z</time>
      </trkpt>
      <trkpt lat="43.77601" lon="3.83652">
        <ele>438.6</ele>
        <time>2026-05-21T09:17:31.999Z</time>
      </trkpt>
      <trkpt lat="43.77601" lon="3.83653">
        <ele>438.8</ele>
        <time>2026-05-21T09:17:32.999Z</time>
      </trkpt>
      <trkpt lat="43.77601" lon="3.83653">
        <ele>438.9</ele>
        <time>2026-05-21T09:17:33.999Z</time>
      </trkpt>
      <trkpt lat="43.77601" lon="3.83653">
        <ele>439.3</ele>
        <time>2026-05-21T09:17:34.999Z</time>
      </trkpt>
      <trkpt lat="43.77601" lon="3.83653">
        <ele>439.3</ele>
        <time>2026-05-21T09:17:35.999Z</time>
      </trkpt>
      <trkpt lat="43.77601" lon="3.83653">
        <ele>439.3</ele>
        <time>2026-05-21T09:17:36.999Z</time>
      </trkpt>
      <trkpt lat="43.77601" lon="3.83653">
        <ele>439.2</ele>
        <time>2026-05-21T09:17:37.999Z</time>
      </trkpt>
      <trkpt lat="43.77601" lon="3.83653">
        <ele>439.3</ele>
        <time>2026-05-21T09:17:38.999Z</time>
      </trkpt>
      <trkpt lat="43.77601" lon="3.83652">
        <ele>439.4</ele>
        <time>2026-05-21T09:17:39.999Z</time>
      </trkpt>
      <trkpt lat="43.77601" lon="3.83652">
        <ele>439.4</ele>
        <time>2026-05-21T09:17:40.999Z</time>
      </trkpt>
      <trkpt lat="43.77601" lon="3.83652">
        <ele>439.5</ele>
        <time>2026-05-21T09:17:41.999Z</time>
      </trkpt>
      <trkpt lat="43.77601" lon="3.83652">
        <ele>439.7</ele>
        <time>2026-05-21T09:17:42.999Z</time>
      </trkpt>
      <trkpt lat="43.77601" lon="3.83652">
        <ele>439.8</ele>
        <time>2026-05-21T09:17:43.999Z</time>
      </trkpt>
      <trkpt lat="43.77601" lon="3.83652">
        <ele>439.7</ele>
        <time>2026-05-21T09:17:44.999Z</time>
      </trkpt>
      <trkpt lat="43.77601" lon="3.83652">
        <ele>439.7</ele>
        <time>2026-05-21T09:17:45.999Z</time>
      </trkpt>
      <trkpt lat="43.77601" lon="3.83652">
        <ele>439.4</ele>
        <time>2026-05-21T09:17:46.999Z</time>
      </trkpt>
      <trkpt lat="43.77601" lon="3.83652">
        <ele>439.4</ele>
        <time>2026-05-21T09:17:47.999Z</time>
      </trkpt>
      <trkpt lat="43.77601" lon="3.83652">
        <ele>439.5</ele>
        <time>2026-05-21T09:17:48.999Z</time>
      </trkpt>
      <trkpt lat="43.776" lon="3.83652">
        <ele>439.2</ele>
        <time>2026-05-21T09:17:49.999Z</time>
      </trkpt>
      <trkpt lat="43.776" lon="3.83652">
        <ele>439.1</ele>
        <time>2026-05-21T09:17:50.999Z</time>
      </trkpt>
      <trkpt lat="43.776" lon="3.83652">
        <ele>439.2</ele>
        <time>2026-05-21T09:17:51.999Z</time>
      </trkpt>
      <trkpt lat="43.776" lon="3.83653">
        <ele>439.3</ele>
        <time>2026-05-21T09:17:52.999Z</time>
      </trkpt>
      <trkpt lat="43.776" lon="3.83653">
        <ele>439.2</ele>
        <time>2026-05-21T09:17:53.999Z</time>
      </trkpt>
      <trkpt lat="43.776" lon="3.83652">
        <ele>439.1</ele>
        <time>2026-05-21T09:17:54.999Z</time>
      </trkpt>
      <trkpt lat="43.776" lon="3.83653">
        <ele>439.2</ele>
        <time>2026-05-21T09:17:55.999Z</time>
      </trkpt>
      <trkpt lat="43.776" lon="3.83652">
        <ele>439.2</ele>
        <time>2026-05-21T09:17:56.999Z</time>
      </trkpt>
      <trkpt lat="43.776" lon="3.83652">
        <ele>439.3</ele>
        <time>2026-05-21T09:17:57.999Z</time>
      </trkpt>
      <trkpt lat="43.776" lon="3.83652">
        <ele>439.3</ele>
        <time>2026-05-21T09:17:58.999Z</time>
      </trkpt>
      <trkpt lat="43.776" lon="3.83652">
        <ele>439.3</ele>
        <time>2026-05-21T09:17:59.999Z</time>
      </trkpt>
      <trkpt lat="43.776" lon="3.83652">
        <ele>439.3</ele>
        <time>2026-05-21T09:18:00.999Z</time>
      </trkpt>
      <trkpt lat="43.776" lon="3.83652">
        <ele>439</ele>
        <time>2026-05-21T09:18:01.999Z</time>
      </trkpt>
      <trkpt lat="43.776" lon="3.83652">
        <ele>438.8</ele>
        <time>2026-05-21T09:18:02.999Z</time>
      </trkpt>
      <trkpt lat="43.776" lon="3.83652">
        <ele>438.7</ele>
        <time>2026-05-21T09:18:03.999Z</time>
      </trkpt>
      <trkpt lat="43.776" lon="3.83652">
        <ele>438.6</ele>
        <time>2026-05-21T09:18:04.999Z</time>
      </trkpt>
      <trkpt lat="43.776" lon="3.83652">
        <ele>438.5</ele>
        <time>2026-05-21T09:18:05.999Z</time>
      </trkpt>
      <trkpt lat="43.776" lon="3.83652">
        <ele>438.3</ele>
        <time>2026-05-21T09:18:06.999Z</time>
      </trkpt>
      <trkpt lat="43.776" lon="3.83652">
        <ele>438.2</ele>
        <time>2026-05-21T09:18:07.999Z</time>
      </trkpt>
      <trkpt lat="43.776" lon="3.83652">
        <ele>438</ele>
        <time>2026-05-21T09:18:08.999Z</time>
      </trkpt>
      <trkpt lat="43.776" lon="3.83652">
        <ele>437.7</ele>
        <time>2026-05-21T09:18:09.999Z</time>
      </trkpt>
      <trkpt lat="43.776" lon="3.83652">
        <ele>437.6</ele>
        <time>2026-05-21T09:18:10.999Z</time>
      </trkpt>
      <trkpt lat="43.776" lon="3.83652">
        <ele>437.8</ele>
        <time>2026-05-21T09:18:11.999Z</time>
      </trkpt>
      <trkpt lat="43.776" lon="3.83652">
        <ele>438.1</ele>
        <time>2026-05-21T09:18:12.999Z</time>
      </trkpt>
      <trkpt lat="43.776" lon="3.83652">
        <ele>438.3</ele>
        <time>2026-05-21T09:18:13.999Z</time>
      </trkpt>
      <trkpt lat="43.776" lon="3.83652">
        <ele>438.2</ele>
        <time>2026-05-21T09:18:14.999Z</time>
      </trkpt>
      <trkpt lat="43.776" lon="3.83652">
        <ele>438</ele>
        <time>2026-05-21T09:18:15.999Z</time>
      </trkpt>
      <trkpt lat="43.776" lon="3.83652">
        <ele>438.1</ele>
        <time>2026-05-21T09:18:16.999Z</time>
      </trkpt>
      <trkpt lat="43.776" lon="3.83651">
        <ele>438.1</ele>
        <time>2026-05-21T09:18:17.999Z</time>
      </trkpt>
      <trkpt lat="43.776" lon="3.83651">
        <ele>438.1</ele>
        <time>2026-05-21T09:18:18.999Z</time>
      </trkpt>
      <trkpt lat="43.776" lon="3.83651">
        <ele>438</ele>
        <time>2026-05-21T09:18:19.999Z</time>
      </trkpt>
      <trkpt lat="43.77599" lon="3.83651">
        <ele>438</ele>
        <time>2026-05-21T09:18:20.999Z</time>
      </trkpt>
      <trkpt lat="43.77599" lon="3.83651">
        <ele>437.9</ele>
        <time>2026-05-21T09:18:21.999Z</time>
      </trkpt>
      <trkpt lat="43.77599" lon="3.83651">
        <ele>437.6</ele>
        <time>2026-05-21T09:18:22.999Z</time>
      </trkpt>
      <trkpt lat="43.77599" lon="3.83651">
        <ele>437.5</ele>
        <time>2026-05-21T09:18:23.999Z</time>
      </trkpt>
      <trkpt lat="43.77599" lon="3.83651">
        <ele>437.4</ele>
        <time>2026-05-21T09:18:24.999Z</time>
      </trkpt>
      <trkpt lat="43.77599" lon="3.83651">
        <ele>437.3</ele>
        <time>2026-05-21T09:18:25.999Z</time>
      </trkpt>
      <trkpt lat="43.77599" lon="3.83651">
        <ele>437.1</ele>
        <time>2026-05-21T09:18:26.999Z</time>
      </trkpt>
      <trkpt lat="43.77599" lon="3.83651">
        <ele>437</ele>
        <time>2026-05-21T09:18:27.999Z</time>
      </trkpt>
      <trkpt lat="43.77599" lon="3.83651">
        <ele>437</ele>
        <time>2026-05-21T09:18:28.999Z</time>
      </trkpt>
      <trkpt lat="43.77599" lon="3.83651">
        <ele>437</ele>
        <time>2026-05-21T09:18:29.999Z</time>
      </trkpt>
      <trkpt lat="43.77599" lon="3.83651">
        <ele>436.9</ele>
        <time>2026-05-21T09:18:30.999Z</time>
      </trkpt>
      <trkpt lat="43.77599" lon="3.83651">
        <ele>436.9</ele>
        <time>2026-05-21T09:18:31.999Z</time>
      </trkpt>
      <trkpt lat="43.77599" lon="3.83651">
        <ele>437</ele>
        <time>2026-05-21T09:18:32.999Z</time>
      </trkpt>
      <trkpt lat="43.77599" lon="3.83651">
        <ele>437</ele>
        <time>2026-05-21T09:18:33.999Z</time>
      </trkpt>
      <trkpt lat="43.77599" lon="3.83651">
        <ele>437.1</ele>
        <time>2026-05-21T09:18:34.999Z</time>
      </trkpt>
      <trkpt lat="43.77599" lon="3.83651">
        <ele>437.3</ele>
        <time>2026-05-21T09:18:35.999Z</time>
      </trkpt>
      <trkpt lat="43.77599" lon="3.83651">
        <ele>437.4</ele>
        <time>2026-05-21T09:18:36.999Z</time>
      </trkpt>
      <trkpt lat="43.77599" lon="3.83651">
        <ele>437.2</ele>
        <time>2026-05-21T09:18:37.999Z</time>
      </trkpt>
      <trkpt lat="43.77598" lon="3.83651">
        <ele>437</ele>
        <time>2026-05-21T09:18:38.999Z</time>
      </trkpt>
      <trkpt lat="43.77598" lon="3.83651">
        <ele>436.8</ele>
        <time>2026-05-21T09:18:39.999Z</time>
      </trkpt>
      <trkpt lat="43.77598" lon="3.83651">
        <ele>437</ele>
        <time>2026-05-21T09:18:40.999Z</time>
      </trkpt>
      <trkpt lat="43.77598" lon="3.8365">
        <ele>437.1</ele>
        <time>2026-05-21T09:18:41.999Z</time>
      </trkpt>
      <trkpt lat="43.77598" lon="3.8365">
        <ele>437.1</ele>
        <time>2026-05-21T09:18:42.999Z</time>
      </trkpt>
      <trkpt lat="43.77598" lon="3.8365">
        <ele>437.1</ele>
        <time>2026-05-21T09:18:43.999Z</time>
      </trkpt>
      <trkpt lat="43.77598" lon="3.8365">
        <ele>437.1</ele>
        <time>2026-05-21T09:18:44.999Z</time>
      </trkpt>
      <trkpt lat="43.77598" lon="3.8365">
        <ele>436.9</ele>
        <time>2026-05-21T09:18:45.999Z</time>
      </trkpt>
      <trkpt lat="43.77598" lon="3.8365">
        <ele>437</ele>
        <time>2026-05-21T09:18:46.999Z</time>
      </trkpt>
      <trkpt lat="43.77598" lon="3.8365">
        <ele>437</ele>
        <time>2026-05-21T09:18:47.999Z</time>
      </trkpt>
      <trkpt lat="43.77598" lon="3.8365">
        <ele>436.8</ele>
        <time>2026-05-21T09:18:48.999Z</time>
      </trkpt>
      <trkpt lat="43.77598" lon="3.8365">
        <ele>436.7</ele>
        <time>2026-05-21T09:18:49.999Z</time>
      </trkpt>
      <trkpt lat="43.77598" lon="3.8365">
        <ele>436.6</ele>
        <time>2026-05-21T09:18:50.999Z</time>
      </trkpt>
      <trkpt lat="43.77598" lon="3.8365">
        <ele>436.4</ele>
        <time>2026-05-21T09:18:51.999Z</time>
      </trkpt>
      <trkpt lat="43.77598" lon="3.8365">
        <ele>436.3</ele>
        <time>2026-05-21T09:18:52.999Z</time>
      </trkpt>
      <trkpt lat="43.77598" lon="3.8365">
        <ele>436</ele>
        <time>2026-05-21T09:18:53.999Z</time>
      </trkpt>
      <trkpt lat="43.77598" lon="3.83649">
        <ele>435.7</ele>
        <time>2026-05-21T09:18:54.999Z</time>
      </trkpt>
      <trkpt lat="43.77598" lon="3.83649">
        <ele>435.4</ele>
        <time>2026-05-21T09:18:55.999Z</time>
      </trkpt>
      <trkpt lat="43.77598" lon="3.83648">
        <ele>435.2</ele>
        <time>2026-05-21T09:18:56.999Z</time>
      </trkpt>
      <trkpt lat="43.77598" lon="3.83648">
        <ele>434.9</ele>
        <time>2026-05-21T09:18:57.999Z</time>
      </trkpt>
      <trkpt lat="43.77598" lon="3.83648">
        <ele>434.7</ele>
        <time>2026-05-21T09:18:58.999Z</time>
      </trkpt>
      <trkpt lat="43.77597" lon="3.83648">
        <ele>435</ele>
        <time>2026-05-21T09:18:59.999Z</time>
      </trkpt>
      <trkpt lat="43.77597" lon="3.83648">
        <ele>434.9</ele>
        <time>2026-05-21T09:19:00.999Z</time>
      </trkpt>
      <trkpt lat="43.77597" lon="3.83648">
        <ele>434.7</ele>
        <time>2026-05-21T09:19:01.999Z</time>
      </trkpt>
      <trkpt lat="43.77597" lon="3.83648">
        <ele>434.6</ele>
        <time>2026-05-21T09:19:02.999Z</time>
      </trkpt>
      <trkpt lat="43.77597" lon="3.83648">
        <ele>434.4</ele>
        <time>2026-05-21T09:19:03.999Z</time>
      </trkpt>
      <trkpt lat="43.77597" lon="3.83647">
        <ele>434.2</ele>
        <time>2026-05-21T09:19:04.999Z</time>
      </trkpt>
      <trkpt lat="43.77598" lon="3.83647">
        <ele>434.1</ele>
        <time>2026-05-21T09:19:05.999Z</time>
      </trkpt>
      <trkpt lat="43.77598" lon="3.83646">
        <ele>434.2</ele>
        <time>2026-05-21T09:19:06.999Z</time>
      </trkpt>
      <trkpt lat="43.77598" lon="3.83646">
        <ele>434.2</ele>
        <time>2026-05-21T09:19:07.999Z</time>
      </trkpt>
      <trkpt lat="43.77598" lon="3.83646">
        <ele>434.2</ele>
        <time>2026-05-21T09:19:08.999Z</time>
      </trkpt>
      <trkpt lat="43.77598" lon="3.83646">
        <ele>434</ele>
        <time>2026-05-21T09:19:09.999Z</time>
      </trkpt>
      <trkpt lat="43.77598" lon="3.83646">
        <ele>433.9</ele>
        <time>2026-05-21T09:19:10.999Z</time>
      </trkpt>
      <trkpt lat="43.77598" lon="3.83646">
        <ele>433.8</ele>
        <time>2026-05-21T09:19:11.999Z</time>
      </trkpt>
      <trkpt lat="43.77598" lon="3.83646">
        <ele>433.5</ele>
        <time>2026-05-21T09:19:12.999Z</time>
      </trkpt>
      <trkpt lat="43.77598" lon="3.83646">
        <ele>433.5</ele>
        <time>2026-05-21T09:19:13.999Z</time>
      </trkpt>
      <trkpt lat="43.77598" lon="3.83646">
        <ele>433.5</ele>
        <time>2026-05-21T09:19:14.999Z</time>
      </trkpt>
      <trkpt lat="43.77598" lon="3.83646">
        <ele>433.6</ele>
        <time>2026-05-21T09:19:15.999Z</time>
      </trkpt>
      <trkpt lat="43.77598" lon="3.83646">
        <ele>433.9</ele>
        <time>2026-05-21T09:19:16.999Z</time>
      </trkpt>
      <trkpt lat="43.77598" lon="3.83646">
        <ele>434.1</ele>
        <time>2026-05-21T09:19:17.999Z</time>
      </trkpt>
      <trkpt lat="43.77598" lon="3.83646">
        <ele>434.1</ele>
        <time>2026-05-21T09:19:18.999Z</time>
      </trkpt>
      <trkpt lat="43.77598" lon="3.83646">
        <ele>434.2</ele>
        <time>2026-05-21T09:19:19.999Z</time>
      </trkpt>
      <trkpt lat="43.77598" lon="3.83646">
        <ele>434.2</ele>
        <time>2026-05-21T09:19:20.999Z</time>
      </trkpt>
      <trkpt lat="43.77598" lon="3.83646">
        <ele>434.3</ele>
        <time>2026-05-21T09:19:21.999Z</time>
      </trkpt>
      <trkpt lat="43.77598" lon="3.83646">
        <ele>434.2</ele>
        <time>2026-05-21T09:19:22.999Z</time>
      </trkpt>
      <trkpt lat="43.77598" lon="3.83646">
        <ele>434</ele>
        <time>2026-05-21T09:19:23.999Z</time>
      </trkpt>
      <trkpt lat="43.77598" lon="3.83646">
        <ele>434</ele>
        <time>2026-05-21T09:19:24.999Z</time>
      </trkpt>
      <trkpt lat="43.77598" lon="3.83646">
        <ele>434.1</ele>
        <time>2026-05-21T09:19:25.999Z</time>
      </trkpt>
      <trkpt lat="43.77598" lon="3.83646">
        <ele>434.1</ele>
        <time>2026-05-21T09:19:26.999Z</time>
      </trkpt>
      <trkpt lat="43.77598" lon="3.83646">
        <ele>434.1</ele>
        <time>2026-05-21T09:19:27.999Z</time>
      </trkpt>
      <trkpt lat="43.77598" lon="3.83645">
        <ele>434.1</ele>
        <time>2026-05-21T09:19:28.999Z</time>
      </trkpt>
      <trkpt lat="43.77598" lon="3.83645">
        <ele>434.1</ele>
        <time>2026-05-21T09:19:29.999Z</time>
      </trkpt>
      <trkpt lat="43.77598" lon="3.83645">
        <ele>433.9</ele>
        <time>2026-05-21T09:19:30.999Z</time>
      </trkpt>
      <trkpt lat="43.77598" lon="3.83645">
        <ele>433.7</ele>
        <time>2026-05-21T09:19:31.999Z</time>
      </trkpt>
      <trkpt lat="43.77598" lon="3.83645">
        <ele>433.7</ele>
        <time>2026-05-21T09:19:32.999Z</time>
      </trkpt>
      <trkpt lat="43.77598" lon="3.83645">
        <ele>433.6</ele>
        <time>2026-05-21T09:19:33.999Z</time>
      </trkpt>
      <trkpt lat="43.77599" lon="3.83645">
        <ele>433.6</ele>
        <time>2026-05-21T09:19:34.999Z</time>
      </trkpt>
      <trkpt lat="43.77599" lon="3.83645">
        <ele>433.5</ele>
        <time>2026-05-21T09:19:35.999Z</time>
      </trkpt>
      <trkpt lat="43.77598" lon="3.83645">
        <ele>433.3</ele>
        <time>2026-05-21T09:19:36.999Z</time>
      </trkpt>
      <trkpt lat="43.77598" lon="3.83645">
        <ele>433.3</ele>
        <time>2026-05-21T09:19:37.999Z</time>
      </trkpt>
      <trkpt lat="43.77598" lon="3.83645">
        <ele>433.3</ele>
        <time>2026-05-21T09:19:38.999Z</time>
      </trkpt>
      <trkpt lat="43.77598" lon="3.83645">
        <ele>433.3</ele>
        <time>2026-05-21T09:19:39.999Z</time>
      </trkpt>
      <trkpt lat="43.77598" lon="3.83645">
        <ele>433.3</ele>
        <time>2026-05-21T09:19:40.999Z</time>
      </trkpt>
      <trkpt lat="43.77598" lon="3.83645">
        <ele>433.2</ele>
        <time>2026-05-21T09:19:41.999Z</time>
      </trkpt>
      <trkpt lat="43.77598" lon="3.83645">
        <ele>433.1</ele>
        <time>2026-05-21T09:19:42.999Z</time>
      </trkpt>
      <trkpt lat="43.77598" lon="3.83645">
        <ele>432.9</ele>
        <time>2026-05-21T09:19:43.999Z</time>
      </trkpt>
      <trkpt lat="43.77598" lon="3.83645">
        <ele>432.8</ele>
        <time>2026-05-21T09:19:44.999Z</time>
      </trkpt>
      <trkpt lat="43.77598" lon="3.83645">
        <ele>432.6</ele>
        <time>2026-05-21T09:19:45.999Z</time>
      </trkpt>
      <trkpt lat="43.77598" lon="3.83645">
        <ele>432.4</ele>
        <time>2026-05-21T09:19:46.999Z</time>
      </trkpt>
      <trkpt lat="43.77598" lon="3.83645">
        <ele>432.3</ele>
        <time>2026-05-21T09:19:47.999Z</time>
      </trkpt>
      <trkpt lat="43.77598" lon="3.83645">
        <ele>432.2</ele>
        <time>2026-05-21T09:19:48.999Z</time>
      </trkpt>
      <trkpt lat="43.77598" lon="3.83644">
        <ele>432.1</ele>
        <time>2026-05-21T09:19:49.999Z</time>
      </trkpt>
      <trkpt lat="43.77598" lon="3.83644">
        <ele>432.2</ele>
        <time>2026-05-21T09:19:50.999Z</time>
      </trkpt>
      <trkpt lat="43.77598" lon="3.83644">
        <ele>432.7</ele>
        <time>2026-05-21T09:19:51.999Z</time>
      </trkpt>
      <trkpt lat="43.77598" lon="3.83644">
        <ele>433.1</ele>
        <time>2026-05-21T09:19:52.999Z</time>
      </trkpt>
      <trkpt lat="43.77598" lon="3.83644">
        <ele>433.3</ele>
        <time>2026-05-21T09:19:53.999Z</time>
      </trkpt>
      <trkpt lat="43.77598" lon="3.83644">
        <ele>433.6</ele>
        <time>2026-05-21T09:19:54.999Z</time>
      </trkpt>
      <trkpt lat="43.77598" lon="3.83644">
        <ele>434.1</ele>
        <time>2026-05-21T09:19:55.999Z</time>
      </trkpt>
      <trkpt lat="43.77598" lon="3.83644">
        <ele>434.4</ele>
        <time>2026-05-21T09:19:56.999Z</time>
      </trkpt>
      <trkpt lat="43.77598" lon="3.83644">
        <ele>434.8</ele>
        <time>2026-05-21T09:19:57.999Z</time>
      </trkpt>
      <trkpt lat="43.77598" lon="3.83644">
        <ele>435</ele>
        <time>2026-05-21T09:19:58.999Z</time>
      </trkpt>
      <trkpt lat="43.77597" lon="3.83644">
        <ele>435.2</ele>
        <time>2026-05-21T09:19:59.999Z</time>
      </trkpt>
      <trkpt lat="43.77597" lon="3.83644">
        <ele>434.9</ele>
        <time>2026-05-21T09:20:00.999Z</time>
      </trkpt>
      <trkpt lat="43.77597" lon="3.83644">
        <ele>434.7</ele>
        <time>2026-05-21T09:20:01.999Z</time>
      </trkpt>
      <trkpt lat="43.77596" lon="3.83642">
        <ele>434.3</ele>
        <time>2026-05-21T09:20:03.999Z</time>
      </trkpt>
      <trkpt lat="43.77596" lon="3.83641">
        <ele>434.1</ele>
        <time>2026-05-21T09:20:04.999Z</time>
      </trkpt>
      <trkpt lat="43.77596" lon="3.83641">
        <ele>434</ele>
        <time>2026-05-21T09:20:05.999Z</time>
      </trkpt>
      <trkpt lat="43.77596" lon="3.83641">
        <ele>433.9</ele>
        <time>2026-05-21T09:20:06.999Z</time>
      </trkpt>
      <trkpt lat="43.77596" lon="3.83641">
        <ele>434.3</ele>
        <time>2026-05-21T09:20:07.999Z</time>
      </trkpt>
      <trkpt lat="43.77596" lon="3.83641">
        <ele>434.3</ele>
        <time>2026-05-21T09:20:08.999Z</time>
      </trkpt>
      <trkpt lat="43.77596" lon="3.83641">
        <ele>434.4</ele>
        <time>2026-05-21T09:20:09.999Z</time>
      </trkpt>
      <trkpt lat="43.77596" lon="3.83641">
        <ele>434.4</ele>
        <time>2026-05-21T09:20:10.999Z</time>
      </trkpt>
      <trkpt lat="43.77596" lon="3.83641">
        <ele>434.5</ele>
        <time>2026-05-21T09:20:11.999Z</time>
      </trkpt>
      <trkpt lat="43.77596" lon="3.83641">
        <ele>434.6</ele>
        <time>2026-05-21T09:20:12.999Z</time>
      </trkpt>
      <trkpt lat="43.77596" lon="3.83641">
        <ele>434.6</ele>
        <time>2026-05-21T09:20:13.999Z</time>
      </trkpt>
      <trkpt lat="43.77596" lon="3.83641">
        <ele>434.4</ele>
        <time>2026-05-21T09:20:14.999Z</time>
      </trkpt>
      <trkpt lat="43.77596" lon="3.83641">
        <ele>434.2</ele>
        <time>2026-05-21T09:20:15.999Z</time>
      </trkpt>
      <trkpt lat="43.77596" lon="3.83641">
        <ele>434.1</ele>
        <time>2026-05-21T09:20:16.999Z</time>
      </trkpt>
      <trkpt lat="43.77596" lon="3.83641">
        <ele>434.2</ele>
        <time>2026-05-21T09:20:17.999Z</time>
      </trkpt>
      <trkpt lat="43.77596" lon="3.83641">
        <ele>434.3</ele>
        <time>2026-05-21T09:20:18.999Z</time>
      </trkpt>
      <trkpt lat="43.77596" lon="3.83641">
        <ele>434.3</ele>
        <time>2026-05-21T09:20:19.999Z</time>
      </trkpt>
      <trkpt lat="43.77596" lon="3.83641">
        <ele>434.2</ele>
        <time>2026-05-21T09:20:20.999Z</time>
      </trkpt>
      <trkpt lat="43.77596" lon="3.83641">
        <ele>434.1</ele>
        <time>2026-05-21T09:20:21.999Z</time>
      </trkpt>
      <trkpt lat="43.77596" lon="3.83641">
        <ele>434.1</ele>
        <time>2026-05-21T09:20:22.999Z</time>
      </trkpt>
      <trkpt lat="43.77596" lon="3.83642">
        <ele>434.2</ele>
        <time>2026-05-21T09:20:23.999Z</time>
      </trkpt>
      <trkpt lat="43.77596" lon="3.83642">
        <ele>434.3</ele>
        <time>2026-05-21T09:20:24.999Z</time>
      </trkpt>
      <trkpt lat="43.77596" lon="3.83642">
        <ele>434.4</ele>
        <time>2026-05-21T09:20:25.999Z</time>
      </trkpt>
      <trkpt lat="43.77596" lon="3.83642">
        <ele>434.6</ele>
        <time>2026-05-21T09:20:26.999Z</time>
      </trkpt>
      <trkpt lat="43.77596" lon="3.83642">
        <ele>434.6</ele>
        <time>2026-05-21T09:20:27.999Z</time>
      </trkpt>
      <trkpt lat="43.77596" lon="3.83642">
        <ele>434.6</ele>
        <time>2026-05-21T09:20:28.999Z</time>
      </trkpt>
      <trkpt lat="43.77596" lon="3.83642">
        <ele>434.7</ele>
        <time>2026-05-21T09:20:29.999Z</time>
      </trkpt>
      <trkpt lat="43.77596" lon="3.83642">
        <ele>434.8</ele>
        <time>2026-05-21T09:20:30.999Z</time>
      </trkpt>
      <trkpt lat="43.77596" lon="3.83642">
        <ele>434.8</ele>
        <time>2026-05-21T09:20:31.999Z</time>
      </trkpt>
      <trkpt lat="43.77596" lon="3.83642">
        <ele>434.8</ele>
        <time>2026-05-21T09:20:32.999Z</time>
      </trkpt>
      <trkpt lat="43.77596" lon="3.83642">
        <ele>434.8</ele>
        <time>2026-05-21T09:20:33.999Z</time>
      </trkpt>
      <trkpt lat="43.77596" lon="3.83642">
        <ele>434.8</ele>
        <time>2026-05-21T09:20:34.999Z</time>
      </trkpt>
      <trkpt lat="43.77596" lon="3.83642">
        <ele>434.8</ele>
        <time>2026-05-21T09:20:35.999Z</time>
      </trkpt>
      <trkpt lat="43.77596" lon="3.83642">
        <ele>434.7</ele>
        <time>2026-05-21T09:20:36.999Z</time>
      </trkpt>
      <trkpt lat="43.77596" lon="3.83641">
        <ele>434.5</ele>
        <time>2026-05-21T09:20:37.999Z</time>
      </trkpt>
      <trkpt lat="43.77596" lon="3.83641">
        <ele>434.2</ele>
        <time>2026-05-21T09:20:38.999Z</time>
      </trkpt>
      <trkpt lat="43.77596" lon="3.83641">
        <ele>434.1</ele>
        <time>2026-05-21T09:20:39.999Z</time>
      </trkpt>
      <trkpt lat="43.77596" lon="3.83642">
        <ele>434.1</ele>
        <time>2026-05-21T09:20:40.999Z</time>
      </trkpt>
      <trkpt lat="43.77596" lon="3.83642">
        <ele>434.2</ele>
        <time>2026-05-21T09:20:41.999Z</time>
      </trkpt>
      <trkpt lat="43.77596" lon="3.83642">
        <ele>434.4</ele>
        <time>2026-05-21T09:20:42.999Z</time>
      </trkpt>
      <trkpt lat="43.77596" lon="3.83641">
        <ele>434.6</ele>
        <time>2026-05-21T09:20:43.999Z</time>
      </trkpt>
      <trkpt lat="43.77596" lon="3.83641">
        <ele>434.5</ele>
        <time>2026-05-21T09:20:44.999Z</time>
      </trkpt>
      <trkpt lat="43.77596" lon="3.83639">
        <ele>434.6</ele>
        <time>2026-05-21T09:20:46.999Z</time>
      </trkpt>
      <trkpt lat="43.77596" lon="3.83638">
        <ele>434.5</ele>
        <time>2026-05-21T09:20:47.999Z</time>
      </trkpt>
      <trkpt lat="43.77596" lon="3.83638">
        <ele>434.5</ele>
        <time>2026-05-21T09:20:48.999Z</time>
      </trkpt>
      <trkpt lat="43.77597" lon="3.83639">
        <ele>434.7</ele>
        <time>2026-05-21T09:20:49.999Z</time>
      </trkpt>
      <trkpt lat="43.77598" lon="3.83639">
        <ele>434.3</ele>
        <time>2026-05-21T09:20:50.999Z</time>
      </trkpt>
      <trkpt lat="43.77598" lon="3.83639">
        <ele>434.1</ele>
        <time>2026-05-21T09:20:51.999Z</time>
      </trkpt>
      <trkpt lat="43.77598" lon="3.83639">
        <ele>434.1</ele>
        <time>2026-05-21T09:20:52.999Z</time>
      </trkpt>
      <trkpt lat="43.77598" lon="3.83639">
        <ele>434</ele>
        <time>2026-05-21T09:20:53.999Z</time>
      </trkpt>
      <trkpt lat="43.77598" lon="3.83639">
        <ele>434.1</ele>
        <time>2026-05-21T09:20:54.999Z</time>
      </trkpt>
      <trkpt lat="43.77598" lon="3.83639">
        <ele>434.1</ele>
        <time>2026-05-21T09:20:55.999Z</time>
      </trkpt>
      <trkpt lat="43.77598" lon="3.83639">
        <ele>434.1</ele>
        <time>2026-05-21T09:20:56.999Z</time>
      </trkpt>
      <trkpt lat="43.77598" lon="3.83639">
        <ele>434</ele>
        <time>2026-05-21T09:20:57.999Z</time>
      </trkpt>
      <trkpt lat="43.77598" lon="3.83639">
        <ele>434</ele>
        <time>2026-05-21T09:20:58.999Z</time>
      </trkpt>
      <trkpt lat="43.77598" lon="3.83639">
        <ele>434.2</ele>
        <time>2026-05-21T09:20:59.999Z</time>
      </trkpt>
      <trkpt lat="43.77598" lon="3.83639">
        <ele>434.3</ele>
        <time>2026-05-21T09:21:00.999Z</time>
      </trkpt>
      <trkpt lat="43.77598" lon="3.83639">
        <ele>434.3</ele>
        <time>2026-05-21T09:21:01.999Z</time>
      </trkpt>
      <trkpt lat="43.77598" lon="3.83639">
        <ele>434.4</ele>
        <time>2026-05-21T09:21:02.999Z</time>
      </trkpt>
      <trkpt lat="43.77598" lon="3.83639">
        <ele>434.4</ele>
        <time>2026-05-21T09:21:03.999Z</time>
      </trkpt>
      <trkpt lat="43.77598" lon="3.83639">
        <ele>434.2</ele>
        <time>2026-05-21T09:21:04.999Z</time>
      </trkpt>
      <trkpt lat="43.77598" lon="3.83639">
        <ele>434.2</ele>
        <time>2026-05-21T09:21:05.999Z</time>
      </trkpt>
      <trkpt lat="43.77598" lon="3.83639">
        <ele>434.1</ele>
        <time>2026-05-21T09:21:06.999Z</time>
      </trkpt>
      <trkpt lat="43.77598" lon="3.8364">
        <ele>434.1</ele>
        <time>2026-05-21T09:21:07.999Z</time>
      </trkpt>
      <trkpt lat="43.77598" lon="3.8364">
        <ele>434.1</ele>
        <time>2026-05-21T09:21:08.999Z</time>
      </trkpt>
      <trkpt lat="43.77599" lon="3.83641">
        <ele>434</ele>
        <time>2026-05-21T09:21:09.999Z</time>
      </trkpt>
      <trkpt lat="43.77599" lon="3.83642">
        <ele>433.9</ele>
        <time>2026-05-21T09:21:10.999Z</time>
      </trkpt>
      <trkpt lat="43.776" lon="3.83642">
        <ele>434</ele>
        <time>2026-05-21T09:21:11.999Z</time>
      </trkpt>
      <trkpt lat="43.776" lon="3.83643">
        <ele>433.7</ele>
        <time>2026-05-21T09:21:12.999Z</time>
      </trkpt>
      <trkpt lat="43.77601" lon="3.83643">
        <ele>433.6</ele>
        <time>2026-05-21T09:21:13.999Z</time>
      </trkpt>
      <trkpt lat="43.77603" lon="3.83645">
        <ele>433.6</ele>
        <time>2026-05-21T09:21:15.999Z</time>
      </trkpt>
      <trkpt lat="43.77603" lon="3.83646">
        <ele>433.8</ele>
        <time>2026-05-21T09:21:16.999Z</time>
      </trkpt>
      <trkpt lat="43.77603" lon="3.83647">
        <ele>433.9</ele>
        <time>2026-05-21T09:21:17.999Z</time>
      </trkpt>
      <trkpt lat="43.77603" lon="3.83647">
        <ele>433.9</ele>
        <time>2026-05-21T09:21:18.999Z</time>
      </trkpt>
      <trkpt lat="43.77603" lon="3.83647">
        <ele>436.2</ele>
        <time>2026-05-21T09:21:19.999Z</time>
      </trkpt>
      <trkpt lat="43.77602" lon="3.83647">
        <ele>436.2</ele>
        <time>2026-05-21T09:21:20.999Z</time>
      </trkpt>
      <trkpt lat="43.77602" lon="3.83647">
        <ele>435.8</ele>
        <time>2026-05-21T09:21:21.999Z</time>
      </trkpt>
      <trkpt lat="43.77602" lon="3.83648">
        <ele>435.5</ele>
        <time>2026-05-21T09:21:22.999Z</time>
      </trkpt>
      <trkpt lat="43.77602" lon="3.83647">
        <ele>435.3</ele>
        <time>2026-05-21T09:21:23.999Z</time>
      </trkpt>
      <trkpt lat="43.77602" lon="3.83647">
        <ele>435.1</ele>
        <time>2026-05-21T09:21:24.999Z</time>
      </trkpt>
      <trkpt lat="43.77601" lon="3.83647">
        <ele>435.2</ele>
        <time>2026-05-21T09:21:25.999Z</time>
      </trkpt>
      <trkpt lat="43.77601" lon="3.83647">
        <ele>435</ele>
        <time>2026-05-21T09:21:26.999Z</time>
      </trkpt>
      <trkpt lat="43.77601" lon="3.83647">
        <ele>434.7</ele>
        <time>2026-05-21T09:21:27.999Z</time>
      </trkpt>
      <trkpt lat="43.77601" lon="3.83646">
        <ele>434.2</ele>
        <time>2026-05-21T09:21:28.999Z</time>
      </trkpt>
      <trkpt lat="43.77601" lon="3.83646">
        <ele>433.9</ele>
        <time>2026-05-21T09:21:29.999Z</time>
      </trkpt>
      <trkpt lat="43.77601" lon="3.83646">
        <ele>433.8</ele>
        <time>2026-05-21T09:21:30.999Z</time>
      </trkpt>
      <trkpt lat="43.77601" lon="3.83646">
        <ele>433.2</ele>
        <time>2026-05-21T09:21:31.999Z</time>
      </trkpt>
      <trkpt lat="43.77601" lon="3.83645">
        <ele>432.7</ele>
        <time>2026-05-21T09:21:32.999Z</time>
      </trkpt>
      <trkpt lat="43.77601" lon="3.83645">
        <ele>432.7</ele>
        <time>2026-05-21T09:21:33.999Z</time>
      </trkpt>
      <trkpt lat="43.77601" lon="3.83645">
        <ele>432.4</ele>
        <time>2026-05-21T09:21:34.999Z</time>
      </trkpt>
      <trkpt lat="43.77601" lon="3.83645">
        <ele>432.3</ele>
        <time>2026-05-21T09:21:35.999Z</time>
      </trkpt>
      <trkpt lat="43.77601" lon="3.83645">
        <ele>431.9</ele>
        <time>2026-05-21T09:21:36.999Z</time>
      </trkpt>
      <trkpt lat="43.77601" lon="3.83645">
        <ele>431.8</ele>
        <time>2026-05-21T09:21:37.999Z</time>
      </trkpt>
      <trkpt lat="43.77601" lon="3.83645">
        <ele>431.5</ele>
        <time>2026-05-21T09:21:38.999Z</time>
      </trkpt>
      <trkpt lat="43.77601" lon="3.83645">
        <ele>431.6</ele>
        <time>2026-05-21T09:21:39.999Z</time>
      </trkpt>
      <trkpt lat="43.77601" lon="3.83645">
        <ele>431.6</ele>
        <time>2026-05-21T09:21:40.999Z</time>
      </trkpt>
      <trkpt lat="43.776" lon="3.83644">
        <ele>431.7</ele>
        <time>2026-05-21T09:21:41.999Z</time>
      </trkpt>
      <trkpt lat="43.776" lon="3.83644">
        <ele>431.8</ele>
        <time>2026-05-21T09:21:42.999Z</time>
      </trkpt>
      <trkpt lat="43.77599" lon="3.83642">
        <ele>431.4</ele>
        <time>2026-05-21T09:21:43.999Z</time>
      </trkpt>
      <trkpt lat="43.77598" lon="3.83642">
        <ele>431.3</ele>
        <time>2026-05-21T09:21:44.999Z</time>
      </trkpt>
      <trkpt lat="43.77598" lon="3.83641">
        <ele>431.1</ele>
        <time>2026-05-21T09:21:45.999Z</time>
      </trkpt>
      <trkpt lat="43.77597" lon="3.8364">
        <ele>431</ele>
        <time>2026-05-21T09:21:46.999Z</time>
      </trkpt>
      <trkpt lat="43.77596" lon="3.8364">
        <ele>430.9</ele>
        <time>2026-05-21T09:21:47.999Z</time>
      </trkpt>
      <trkpt lat="43.77596" lon="3.8364">
        <ele>430.7</ele>
        <time>2026-05-21T09:21:48.999Z</time>
      </trkpt>
      <trkpt lat="43.77596" lon="3.8364">
        <ele>431.3</ele>
        <time>2026-05-21T09:21:49.999Z</time>
      </trkpt>
      <trkpt lat="43.77596" lon="3.8364">
        <ele>431.1</ele>
        <time>2026-05-21T09:21:50.999Z</time>
      </trkpt>
      <trkpt lat="43.77596" lon="3.83639">
        <ele>431</ele>
        <time>2026-05-21T09:21:51.999Z</time>
      </trkpt>
      <trkpt lat="43.77596" lon="3.83639">
        <ele>430.8</ele>
        <time>2026-05-21T09:21:52.999Z</time>
      </trkpt>
      <trkpt lat="43.77596" lon="3.83639">
        <ele>430.8</ele>
        <time>2026-05-21T09:21:53.999Z</time>
      </trkpt>
      <trkpt lat="43.77596" lon="3.83639">
        <ele>430.9</ele>
        <time>2026-05-21T09:21:54.999Z</time>
      </trkpt>
      <trkpt lat="43.77595" lon="3.83639">
        <ele>431</ele>
        <time>2026-05-21T09:21:56.999Z</time>
      </trkpt>
      <trkpt lat="43.77595" lon="3.83638">
        <ele>431.2</ele>
        <time>2026-05-21T09:21:57.999Z</time>
      </trkpt>
      <trkpt lat="43.77596" lon="3.83637">
        <ele>431.4</ele>
        <time>2026-05-21T09:21:58.999Z</time>
      </trkpt>
      <trkpt lat="43.77596" lon="3.83636">
        <ele>431.4</ele>
        <time>2026-05-21T09:21:59.999Z</time>
      </trkpt>
      <trkpt lat="43.77597" lon="3.83635">
        <ele>431.5</ele>
        <time>2026-05-21T09:22:00.999Z</time>
      </trkpt>
      <trkpt lat="43.77597" lon="3.83635">
        <ele>431.3</ele>
        <time>2026-05-21T09:22:01.999Z</time>
      </trkpt>
      <trkpt lat="43.77598" lon="3.83635">
        <ele>431.1</ele>
        <time>2026-05-21T09:22:02.999Z</time>
      </trkpt>
      <trkpt lat="43.77598" lon="3.83635">
        <ele>431</ele>
        <time>2026-05-21T09:22:03.999Z</time>
      </trkpt>
      <trkpt lat="43.77599" lon="3.83635">
        <ele>430.9</ele>
        <time>2026-05-21T09:22:04.999Z</time>
      </trkpt>
      <trkpt lat="43.776" lon="3.83635">
        <ele>431.2</ele>
        <time>2026-05-21T09:22:05.999Z</time>
      </trkpt>
      <trkpt lat="43.77601" lon="3.83635">
        <ele>431.4</ele>
        <time>2026-05-21T09:22:06.999Z</time>
      </trkpt>
      <trkpt lat="43.77601" lon="3.83634">
        <ele>431.8</ele>
        <time>2026-05-21T09:22:07.999Z</time>
      </trkpt>
      <trkpt lat="43.77601" lon="3.83634">
        <ele>432</ele>
        <time>2026-05-21T09:22:08.999Z</time>
      </trkpt>
      <trkpt lat="43.77601" lon="3.83634">
        <ele>432</ele>
        <time>2026-05-21T09:22:09.999Z</time>
      </trkpt>
      <trkpt lat="43.77601" lon="3.83633">
        <ele>429.1</ele>
        <time>2026-05-21T09:22:10.999Z</time>
      </trkpt>
      <trkpt lat="43.77601" lon="3.83633">
        <ele>429</ele>
        <time>2026-05-21T09:22:11.999Z</time>
      </trkpt>
      <trkpt lat="43.776" lon="3.83633">
        <ele>428.8</ele>
        <time>2026-05-21T09:22:12.999Z</time>
      </trkpt>
      <trkpt lat="43.776" lon="3.83633">
        <ele>428.6</ele>
        <time>2026-05-21T09:22:13.999Z</time>
      </trkpt>
      <trkpt lat="43.776" lon="3.83633">
        <ele>428.7</ele>
        <time>2026-05-21T09:22:14.999Z</time>
      </trkpt>
      <trkpt lat="43.776" lon="3.83633">
        <ele>428.9</ele>
        <time>2026-05-21T09:22:15.999Z</time>
      </trkpt>
      <trkpt lat="43.776" lon="3.83633">
        <ele>429.1</ele>
        <time>2026-05-21T09:22:16.999Z</time>
      </trkpt>
      <trkpt lat="43.776" lon="3.83633">
        <ele>429.2</ele>
        <time>2026-05-21T09:22:18.999Z</time>
      </trkpt>
      <trkpt lat="43.77599" lon="3.83632">
        <ele>429.3</ele>
        <time>2026-05-21T09:22:19.999Z</time>
      </trkpt>
      <trkpt lat="43.77599" lon="3.83632">
        <ele>429.6</ele>
        <time>2026-05-21T09:22:20.999Z</time>
      </trkpt>
      <trkpt lat="43.77599" lon="3.83632">
        <ele>429.7</ele>
        <time>2026-05-21T09:22:21.999Z</time>
      </trkpt>
      <trkpt lat="43.77599" lon="3.83632">
        <ele>429.8</ele>
        <time>2026-05-21T09:22:22.999Z</time>
      </trkpt>
      <trkpt lat="43.77599" lon="3.83632">
        <ele>429.9</ele>
        <time>2026-05-21T09:22:23.999Z</time>
      </trkpt>
      <trkpt lat="43.77599" lon="3.83631">
        <ele>429.9</ele>
        <time>2026-05-21T09:22:24.999Z</time>
      </trkpt>
      <trkpt lat="43.77599" lon="3.83631">
        <ele>430</ele>
        <time>2026-05-21T09:22:25.999Z</time>
      </trkpt>
      <trkpt lat="43.77599" lon="3.83631">
        <ele>430.1</ele>
        <time>2026-05-21T09:22:26.999Z</time>
      </trkpt>
      <trkpt lat="43.77599" lon="3.83631">
        <ele>430.3</ele>
        <time>2026-05-21T09:22:27.999Z</time>
      </trkpt>
      <trkpt lat="43.77599" lon="3.83631">
        <ele>430.4</ele>
        <time>2026-05-21T09:22:28.999Z</time>
      </trkpt>
      <trkpt lat="43.77599" lon="3.83631">
        <ele>430.5</ele>
        <time>2026-05-21T09:22:29.999Z</time>
      </trkpt>
      <trkpt lat="43.77599" lon="3.83631">
        <ele>430.4</ele>
        <time>2026-05-21T09:22:30.999Z</time>
      </trkpt>
      <trkpt lat="43.77599" lon="3.83632">
        <ele>430.6</ele>
        <time>2026-05-21T09:22:31.999Z</time>
      </trkpt>
      <trkpt lat="43.77599" lon="3.83632">
        <ele>430.7</ele>
        <time>2026-05-21T09:22:32.999Z</time>
      </trkpt>
      <trkpt lat="43.77599" lon="3.83632">
        <ele>430.6</ele>
        <time>2026-05-21T09:22:33.999Z</time>
      </trkpt>
      <trkpt lat="43.77599" lon="3.83632">
        <ele>430.6</ele>
        <time>2026-05-21T09:22:34.999Z</time>
      </trkpt>
      <trkpt lat="43.77599" lon="3.83632">
        <ele>430.5</ele>
        <time>2026-05-21T09:22:35.999Z</time>
      </trkpt>
      <trkpt lat="43.77599" lon="3.83632">
        <ele>430.4</ele>
        <time>2026-05-21T09:22:36.999Z</time>
      </trkpt>
      <trkpt lat="43.77599" lon="3.83632">
        <ele>430.4</ele>
        <time>2026-05-21T09:22:37.999Z</time>
      </trkpt>
      <trkpt lat="43.77599" lon="3.83632">
        <ele>430.3</ele>
        <time>2026-05-21T09:22:38.999Z</time>
      </trkpt>
      <trkpt lat="43.77599" lon="3.83632">
        <ele>430.3</ele>
        <time>2026-05-21T09:22:39.999Z</time>
      </trkpt>
      <trkpt lat="43.77599" lon="3.83632">
        <ele>430.3</ele>
        <time>2026-05-21T09:22:40.999Z</time>
      </trkpt>
      <trkpt lat="43.77599" lon="3.83632">
        <ele>430.3</ele>
        <time>2026-05-21T09:22:41.999Z</time>
      </trkpt>
      <trkpt lat="43.77599" lon="3.83632">
        <ele>430.2</ele>
        <time>2026-05-21T09:22:42.999Z</time>
      </trkpt>
      <trkpt lat="43.77599" lon="3.83632">
        <ele>430</ele>
        <time>2026-05-21T09:22:43.999Z</time>
      </trkpt>
      <trkpt lat="43.77598" lon="3.83632">
        <ele>430</ele>
        <time>2026-05-21T09:22:44.999Z</time>
      </trkpt>
      <trkpt lat="43.77597" lon="3.83632">
        <ele>430.1</ele>
        <time>2026-05-21T09:22:45.999Z</time>
      </trkpt>
      <trkpt lat="43.77597" lon="3.83633">
        <ele>430.1</ele>
        <time>2026-05-21T09:22:46.999Z</time>
      </trkpt>
      <trkpt lat="43.77596" lon="3.83633">
        <ele>430</ele>
        <time>2026-05-21T09:22:47.999Z</time>
      </trkpt>
      <trkpt lat="43.77596" lon="3.83633">
        <ele>430.2</ele>
        <time>2026-05-21T09:22:48.999Z</time>
      </trkpt>
      <trkpt lat="43.77596" lon="3.83633">
        <ele>430.3</ele>
        <time>2026-05-21T09:22:49.999Z</time>
      </trkpt>
      <trkpt lat="43.77596" lon="3.83633">
        <ele>430.3</ele>
        <time>2026-05-21T09:22:50.999Z</time>
      </trkpt>
      <trkpt lat="43.77596" lon="3.83633">
        <ele>430.4</ele>
        <time>2026-05-21T09:22:51.999Z</time>
      </trkpt>
      <trkpt lat="43.77596" lon="3.83633">
        <ele>430.6</ele>
        <time>2026-05-21T09:22:52.999Z</time>
      </trkpt>
      <trkpt lat="43.77596" lon="3.83633">
        <ele>430.6</ele>
        <time>2026-05-21T09:22:53.999Z</time>
      </trkpt>
      <trkpt lat="43.77597" lon="3.83633">
        <ele>430.6</ele>
        <time>2026-05-21T09:22:54.999Z</time>
      </trkpt>
      <trkpt lat="43.77597" lon="3.83633">
        <ele>430.6</ele>
        <time>2026-05-21T09:22:55.999Z</time>
      </trkpt>
      <trkpt lat="43.77596" lon="3.83633">
        <ele>430.6</ele>
        <time>2026-05-21T09:22:56.999Z</time>
      </trkpt>
      <trkpt lat="43.77596" lon="3.83633">
        <ele>430.6</ele>
        <time>2026-05-21T09:22:57.999Z</time>
      </trkpt>
      <trkpt lat="43.77597" lon="3.83633">
        <ele>430.6</ele>
        <time>2026-05-21T09:22:58.999Z</time>
      </trkpt>
      <trkpt lat="43.77597" lon="3.83633">
        <ele>430.9</ele>
        <time>2026-05-21T09:22:59.999Z</time>
      </trkpt>
      <trkpt lat="43.77598" lon="3.83632">
        <ele>430.9</ele>
        <time>2026-05-21T09:23:00.999Z</time>
      </trkpt>
      <trkpt lat="43.77599" lon="3.83632">
        <ele>430.9</ele>
        <time>2026-05-21T09:23:01.999Z</time>
      </trkpt>
      <trkpt lat="43.77599" lon="3.83632">
        <ele>431.2</ele>
        <time>2026-05-21T09:23:02.999Z</time>
      </trkpt>
      <trkpt lat="43.776" lon="3.83631">
        <ele>431.2</ele>
        <time>2026-05-21T09:23:03.999Z</time>
      </trkpt>
      <trkpt lat="43.776" lon="3.83631">
        <ele>431.4</ele>
        <time>2026-05-21T09:23:04.999Z</time>
      </trkpt>
      <trkpt lat="43.776" lon="3.83631">
        <ele>431.5</ele>
        <time>2026-05-21T09:23:05.999Z</time>
      </trkpt>
      <trkpt lat="43.776" lon="3.83631">
        <ele>431.5</ele>
        <time>2026-05-21T09:23:06.999Z</time>
      </trkpt>
      <trkpt lat="43.77599" lon="3.8363">
        <ele>431.3</ele>
        <time>2026-05-21T09:23:07.999Z</time>
      </trkpt>
      <trkpt lat="43.77599" lon="3.8363">
        <ele>431</ele>
        <time>2026-05-21T09:23:08.999Z</time>
      </trkpt>
      <trkpt lat="43.77598" lon="3.8363">
        <ele>430.9</ele>
        <time>2026-05-21T09:23:09.999Z</time>
      </trkpt>
      <trkpt lat="43.77598" lon="3.8363">
        <ele>430.5</ele>
        <time>2026-05-21T09:23:10.999Z</time>
      </trkpt>
      <trkpt lat="43.77598" lon="3.8363">
        <ele>430.5</ele>
        <time>2026-05-21T09:23:11.999Z</time>
      </trkpt>
      <trkpt lat="43.77598" lon="3.8363">
        <ele>430.7</ele>
        <time>2026-05-21T09:23:12.999Z</time>
      </trkpt>
      <trkpt lat="43.77598" lon="3.8363">
        <ele>430.7</ele>
        <time>2026-05-21T09:23:13.999Z</time>
      </trkpt>
      <trkpt lat="43.77598" lon="3.8363">
        <ele>431</ele>
        <time>2026-05-21T09:23:14.999Z</time>
      </trkpt>
      <trkpt lat="43.77598" lon="3.8363">
        <ele>431.2</ele>
        <time>2026-05-21T09:23:15.999Z</time>
      </trkpt>
      <trkpt lat="43.77598" lon="3.8363">
        <ele>431.3</ele>
        <time>2026-05-21T09:23:16.999Z</time>
      </trkpt>
      <trkpt lat="43.77598" lon="3.8363">
        <ele>431.1</ele>
        <time>2026-05-21T09:23:17.999Z</time>
      </trkpt>
      <trkpt lat="43.77598" lon="3.8363">
        <ele>431.1</ele>
        <time>2026-05-21T09:23:18.999Z</time>
      </trkpt>
      <trkpt lat="43.77598" lon="3.8363">
        <ele>431.2</ele>
        <time>2026-05-21T09:23:19.999Z</time>
      </trkpt>
      <trkpt lat="43.77598" lon="3.8363">
        <ele>431.2</ele>
        <time>2026-05-21T09:23:20.999Z</time>
      </trkpt>
      <trkpt lat="43.77598" lon="3.8363">
        <ele>431.2</ele>
        <time>2026-05-21T09:23:21.999Z</time>
      </trkpt>
      <trkpt lat="43.77598" lon="3.8363">
        <ele>431.1</ele>
        <time>2026-05-21T09:23:22.999Z</time>
      </trkpt>
      <trkpt lat="43.77598" lon="3.83631">
        <ele>431.2</ele>
        <time>2026-05-21T09:23:23.999Z</time>
      </trkpt>
      <trkpt lat="43.77598" lon="3.83631">
        <ele>431.3</ele>
        <time>2026-05-21T09:23:24.999Z</time>
      </trkpt>
      <trkpt lat="43.77598" lon="3.83631">
        <ele>431.3</ele>
        <time>2026-05-21T09:23:25.999Z</time>
      </trkpt>
      <trkpt lat="43.77598" lon="3.83631">
        <ele>431.2</ele>
        <time>2026-05-21T09:23:26.999Z</time>
      </trkpt>
      <trkpt lat="43.77597" lon="3.83631">
        <ele>431.3</ele>
        <time>2026-05-21T09:23:27.999Z</time>
      </trkpt>
      <trkpt lat="43.77596" lon="3.83632">
        <ele>431.6</ele>
        <time>2026-05-21T09:23:28.999Z</time>
      </trkpt>
      <trkpt lat="43.77596" lon="3.83632">
        <ele>432</ele>
        <time>2026-05-21T09:23:29.999Z</time>
      </trkpt>
      <trkpt lat="43.77596" lon="3.83632">
        <ele>432</ele>
        <time>2026-05-21T09:23:30.999Z</time>
      </trkpt>
      <trkpt lat="43.77596" lon="3.83632">
        <ele>432.1</ele>
        <time>2026-05-21T09:23:31.999Z</time>
      </trkpt>
      <trkpt lat="43.77596" lon="3.83632">
        <ele>432.2</ele>
        <time>2026-05-21T09:23:32.999Z</time>
      </trkpt>
      <trkpt lat="43.77596" lon="3.83632">
        <ele>432.2</ele>
        <time>2026-05-21T09:23:33.999Z</time>
      </trkpt>
      <trkpt lat="43.77596" lon="3.83632">
        <ele>432.2</ele>
        <time>2026-05-21T09:23:34.999Z</time>
      </trkpt>
      <trkpt lat="43.77596" lon="3.83632">
        <ele>432.2</ele>
        <time>2026-05-21T09:23:35.999Z</time>
      </trkpt>
      <trkpt lat="43.77596" lon="3.83632">
        <ele>432.1</ele>
        <time>2026-05-21T09:23:36.999Z</time>
      </trkpt>
      <trkpt lat="43.77596" lon="3.83632">
        <ele>432</ele>
        <time>2026-05-21T09:23:37.999Z</time>
      </trkpt>
      <trkpt lat="43.77596" lon="3.83632">
        <ele>431.8</ele>
        <time>2026-05-21T09:23:38.999Z</time>
      </trkpt>
      <trkpt lat="43.77596" lon="3.83632">
        <ele>431.8</ele>
        <time>2026-05-21T09:23:39.999Z</time>
      </trkpt>
      <trkpt lat="43.77596" lon="3.83632">
        <ele>431.7</ele>
        <time>2026-05-21T09:23:40.999Z</time>
      </trkpt>
      <trkpt lat="43.77596" lon="3.83632">
        <ele>431.9</ele>
        <time>2026-05-21T09:23:41.999Z</time>
      </trkpt>
      <trkpt lat="43.77596" lon="3.83632">
        <ele>432.2</ele>
        <time>2026-05-21T09:23:42.999Z</time>
      </trkpt>
      <trkpt lat="43.77596" lon="3.83632">
        <ele>432.5</ele>
        <time>2026-05-21T09:23:43.999Z</time>
      </trkpt>
      <trkpt lat="43.77596" lon="3.83632">
        <ele>432.8</ele>
        <time>2026-05-21T09:23:44.999Z</time>
      </trkpt>
      <trkpt lat="43.77596" lon="3.83632">
        <ele>432.9</ele>
        <time>2026-05-21T09:23:45.999Z</time>
      </trkpt>
      <trkpt lat="43.77596" lon="3.83632">
        <ele>433.3</ele>
        <time>2026-05-21T09:23:46.999Z</time>
      </trkpt>
      <trkpt lat="43.77596" lon="3.83632">
        <ele>433.7</ele>
        <time>2026-05-21T09:23:47.999Z</time>
      </trkpt>
      <trkpt lat="43.77596" lon="3.83632">
        <ele>433.9</ele>
        <time>2026-05-21T09:23:48.999Z</time>
      </trkpt>
      <trkpt lat="43.77596" lon="3.83632">
        <ele>434.1</ele>
        <time>2026-05-21T09:23:49.999Z</time>
      </trkpt>
      <trkpt lat="43.77596" lon="3.83632">
        <ele>434.2</ele>
        <time>2026-05-21T09:23:50.999Z</time>
      </trkpt>
      <trkpt lat="43.77596" lon="3.83632">
        <ele>434.5</ele>
        <time>2026-05-21T09:23:51.999Z</time>
      </trkpt>
      <trkpt lat="43.77596" lon="3.83632">
        <ele>434.8</ele>
        <time>2026-05-21T09:23:52.999Z</time>
      </trkpt>
      <trkpt lat="43.77596" lon="3.83632">
        <ele>435</ele>
        <time>2026-05-21T09:23:53.999Z</time>
      </trkpt>
      <trkpt lat="43.77596" lon="3.83632">
        <ele>435</ele>
        <time>2026-05-21T09:23:54.999Z</time>
      </trkpt>
      <trkpt lat="43.77596" lon="3.83632">
        <ele>435</ele>
        <time>2026-05-21T09:23:55.999Z</time>
      </trkpt>
      <trkpt lat="43.77596" lon="3.83632">
        <ele>434.9</ele>
        <time>2026-05-21T09:23:56.999Z</time>
      </trkpt>
      <trkpt lat="43.77596" lon="3.83632">
        <ele>434.9</ele>
        <time>2026-05-21T09:23:57.999Z</time>
      </trkpt>
      <trkpt lat="43.77596" lon="3.83632">
        <ele>434.8</ele>
        <time>2026-05-21T09:23:58.999Z</time>
      </trkpt>
      <trkpt lat="43.77597" lon="3.83632">
        <ele>434.7</ele>
        <time>2026-05-21T09:23:59.999Z</time>
      </trkpt>
      <trkpt lat="43.77598" lon="3.83632">
        <ele>434.6</ele>
        <time>2026-05-21T09:24:00.999Z</time>
      </trkpt>
      <trkpt lat="43.77599" lon="3.83632">
        <ele>435</ele>
        <time>2026-05-21T09:24:01.999Z</time>
      </trkpt>
      <trkpt lat="43.77599" lon="3.83632">
        <ele>435.1</ele>
        <time>2026-05-21T09:24:02.999Z</time>
      </trkpt>
      <trkpt lat="43.77599" lon="3.83632">
        <ele>435.2</ele>
        <time>2026-05-21T09:24:03.999Z</time>
      </trkpt>
      <trkpt lat="43.77599" lon="3.83632">
        <ele>435</ele>
        <time>2026-05-21T09:24:04.999Z</time>
      </trkpt>
      <trkpt lat="43.77599" lon="3.83632">
        <ele>435</ele>
        <time>2026-05-21T09:24:05.999Z</time>
      </trkpt>
      <trkpt lat="43.77599" lon="3.83632">
        <ele>435.1</ele>
        <time>2026-05-21T09:24:06.999Z</time>
      </trkpt>
      <trkpt lat="43.77599" lon="3.83632">
        <ele>435.2</ele>
        <time>2026-05-21T09:24:07.999Z</time>
      </trkpt>
      <trkpt lat="43.77599" lon="3.83632">
        <ele>435.1</ele>
        <time>2026-05-21T09:24:08.999Z</time>
      </trkpt>
      <trkpt lat="43.77599" lon="3.83632">
        <ele>435.1</ele>
        <time>2026-05-21T09:24:09.999Z</time>
      </trkpt>
      <trkpt lat="43.77599" lon="3.83632">
        <ele>435</ele>
        <time>2026-05-21T09:24:10.999Z</time>
      </trkpt>
      <trkpt lat="43.77599" lon="3.83631">
        <ele>434.8</ele>
        <time>2026-05-21T09:24:11.999Z</time>
      </trkpt>
      <trkpt lat="43.77599" lon="3.83631">
        <ele>434.8</ele>
        <time>2026-05-21T09:24:12.999Z</time>
      </trkpt>
      <trkpt lat="43.77599" lon="3.83631">
        <ele>434.8</ele>
        <time>2026-05-21T09:24:13.999Z</time>
      </trkpt>
      <trkpt lat="43.77599" lon="3.83631">
        <ele>434.7</ele>
        <time>2026-05-21T09:24:14.999Z</time>
      </trkpt>
      <trkpt lat="43.77599" lon="3.83631">
        <ele>434.8</ele>
        <time>2026-05-21T09:24:15.999Z</time>
      </trkpt>
      <trkpt lat="43.77599" lon="3.83631">
        <ele>434.9</ele>
        <time>2026-05-21T09:24:16.999Z</time>
      </trkpt>
      <trkpt lat="43.77599" lon="3.83631">
        <ele>434.7</ele>
        <time>2026-05-21T09:24:17.999Z</time>
      </trkpt>
      <trkpt lat="43.77599" lon="3.83631">
        <ele>434.6</ele>
        <time>2026-05-21T09:24:18.999Z</time>
      </trkpt>
      <trkpt lat="43.77599" lon="3.83631">
        <ele>434.5</ele>
        <time>2026-05-21T09:24:19.999Z</time>
      </trkpt>
      <trkpt lat="43.77599" lon="3.83631">
        <ele>434.5</ele>
        <time>2026-05-21T09:24:20.999Z</time>
      </trkpt>
      <trkpt lat="43.77599" lon="3.83631">
        <ele>434.6</ele>
        <time>2026-05-21T09:24:21.999Z</time>
      </trkpt>
      <trkpt lat="43.77599" lon="3.83631">
        <ele>434.7</ele>
        <time>2026-05-21T09:24:22.999Z</time>
      </trkpt>
      <trkpt lat="43.77598" lon="3.83631">
        <ele>434.6</ele>
        <time>2026-05-21T09:24:23.999Z</time>
      </trkpt>
      <trkpt lat="43.77598" lon="3.83631">
        <ele>434.7</ele>
        <time>2026-05-21T09:24:24.999Z</time>
      </trkpt>
      <trkpt lat="43.77599" lon="3.83631">
        <ele>434.2</ele>
        <time>2026-05-21T09:24:25.999Z</time>
      </trkpt>
      <trkpt lat="43.77599" lon="3.83631">
        <ele>433.8</ele>
        <time>2026-05-21T09:24:26.999Z</time>
      </trkpt>
      <trkpt lat="43.77599" lon="3.83631">
        <ele>433.5</ele>
        <time>2026-05-21T09:24:27.999Z</time>
      </trkpt>
      <trkpt lat="43.77599" lon="3.83631">
        <ele>433.8</ele>
        <time>2026-05-21T09:24:28.999Z</time>
      </trkpt>
      <trkpt lat="43.77599" lon="3.83631">
        <ele>434.1</ele>
        <time>2026-05-21T09:24:29.999Z</time>
      </trkpt>
      <trkpt lat="43.77599" lon="3.83631">
        <ele>434.2</ele>
        <time>2026-05-21T09:24:30.999Z</time>
      </trkpt>
      <trkpt lat="43.77599" lon="3.83631">
        <ele>434.2</ele>
        <time>2026-05-21T09:24:31.999Z</time>
      </trkpt>
      <trkpt lat="43.77599" lon="3.83631">
        <ele>434.3</ele>
        <time>2026-05-21T09:24:32.999Z</time>
      </trkpt>
      <trkpt lat="43.77598" lon="3.83631">
        <ele>434.3</ele>
        <time>2026-05-21T09:24:33.999Z</time>
      </trkpt>
      <trkpt lat="43.77599" lon="3.8363">
        <ele>434.4</ele>
        <time>2026-05-21T09:24:34.999Z</time>
      </trkpt>
      <trkpt lat="43.776" lon="3.8363">
        <ele>434.4</ele>
        <time>2026-05-21T09:24:35.999Z</time>
      </trkpt>
      <trkpt lat="43.77601" lon="3.83629">
        <ele>434.5</ele>
        <time>2026-05-21T09:24:36.999Z</time>
      </trkpt>
      <trkpt lat="43.77601" lon="3.83629">
        <ele>434.7</ele>
        <time>2026-05-21T09:24:37.999Z</time>
      </trkpt>
      <trkpt lat="43.77601" lon="3.83629">
        <ele>434.6</ele>
        <time>2026-05-21T09:24:38.999Z</time>
      </trkpt>
      <trkpt lat="43.77601" lon="3.83629">
        <ele>434.6</ele>
        <time>2026-05-21T09:24:39.999Z</time>
      </trkpt>
      <trkpt lat="43.77601" lon="3.83629">
        <ele>434.6</ele>
        <time>2026-05-21T09:24:40.999Z</time>
      </trkpt>
      <trkpt lat="43.77601" lon="3.83629">
        <ele>434.6</ele>
        <time>2026-05-21T09:24:41.999Z</time>
      </trkpt>
      <trkpt lat="43.77601" lon="3.83629">
        <ele>434.8</ele>
        <time>2026-05-21T09:24:42.999Z</time>
      </trkpt>
      <trkpt lat="43.77601" lon="3.83629">
        <ele>434.7</ele>
        <time>2026-05-21T09:24:43.999Z</time>
      </trkpt>
      <trkpt lat="43.77601" lon="3.83629">
        <ele>434.5</ele>
        <time>2026-05-21T09:24:45.999Z</time>
      </trkpt>
      <trkpt lat="43.77601" lon="3.83629">
        <ele>434.8</ele>
        <time>2026-05-21T09:24:46.999Z</time>
      </trkpt>
      <trkpt lat="43.77601" lon="3.83629">
        <ele>435</ele>
        <time>2026-05-21T09:24:47.999Z</time>
      </trkpt>
      <trkpt lat="43.77601" lon="3.83629">
        <ele>434.9</ele>
        <time>2026-05-21T09:24:48.999Z</time>
      </trkpt>
      <trkpt lat="43.77601" lon="3.83629">
        <ele>434.9</ele>
        <time>2026-05-21T09:24:49.999Z</time>
      </trkpt>
      <trkpt lat="43.77601" lon="3.83629">
        <ele>435.1</ele>
        <time>2026-05-21T09:24:50.999Z</time>
      </trkpt>
      <trkpt lat="43.77601" lon="3.83629">
        <ele>435.1</ele>
        <time>2026-05-21T09:24:51.999Z</time>
      </trkpt>
      <trkpt lat="43.77601" lon="3.83629">
        <ele>435.1</ele>
        <time>2026-05-21T09:24:52.999Z</time>
      </trkpt>
      <trkpt lat="43.77601" lon="3.83629">
        <ele>435.1</ele>
        <time>2026-05-21T09:24:54.999Z</time>
      </trkpt>
      <trkpt lat="43.77601" lon="3.83629">
        <ele>435.1</ele>
        <time>2026-05-21T09:24:55.999Z</time>
      </trkpt>
      <trkpt lat="43.77601" lon="3.83629">
        <ele>435.2</ele>
        <time>2026-05-21T09:24:56.999Z</time>
      </trkpt>
      <trkpt lat="43.77601" lon="3.83629">
        <ele>435.4</ele>
        <time>2026-05-21T09:24:57.999Z</time>
      </trkpt>
      <trkpt lat="43.77601" lon="3.83629">
        <ele>435.6</ele>
        <time>2026-05-21T09:24:58.999Z</time>
      </trkpt>
      <trkpt lat="43.77602" lon="3.83628">
        <ele>435.9</ele>
        <time>2026-05-21T09:24:59.999Z</time>
      </trkpt>
      <trkpt lat="43.77602" lon="3.83627">
        <ele>436.1</ele>
        <time>2026-05-21T09:25:00.999Z</time>
      </trkpt>
      <trkpt lat="43.77602" lon="3.83628">
        <ele>436.1</ele>
        <time>2026-05-21T09:25:01.999Z</time>
      </trkpt>
      <trkpt lat="43.77602" lon="3.83627">
        <ele>436.3</ele>
        <time>2026-05-21T09:25:02.999Z</time>
      </trkpt>
      <trkpt lat="43.77601" lon="3.83628">
        <ele>436.4</ele>
        <time>2026-05-21T09:25:03.999Z</time>
      </trkpt>
      <trkpt lat="43.77601" lon="3.83628">
        <ele>436.6</ele>
        <time>2026-05-21T09:25:04.999Z</time>
      </trkpt>
      <trkpt lat="43.77601" lon="3.83628">
        <ele>436.7</ele>
        <time>2026-05-21T09:25:05.999Z</time>
      </trkpt>
      <trkpt lat="43.776" lon="3.83627">
        <ele>436.8</ele>
        <time>2026-05-21T09:25:06.999Z</time>
      </trkpt>
      <trkpt lat="43.77601" lon="3.83627">
        <ele>436.8</ele>
        <time>2026-05-21T09:25:07.999Z</time>
      </trkpt>
      <trkpt lat="43.776" lon="3.83627">
        <ele>436.8</ele>
        <time>2026-05-21T09:25:08.999Z</time>
      </trkpt>
      <trkpt lat="43.776" lon="3.83627">
        <ele>436.7</ele>
        <time>2026-05-21T09:25:09.999Z</time>
      </trkpt>
      <trkpt lat="43.77599" lon="3.83627">
        <ele>436.6</ele>
        <time>2026-05-21T09:25:10.999Z</time>
      </trkpt>
      <trkpt lat="43.77598" lon="3.83627">
        <ele>436.4</ele>
        <time>2026-05-21T09:25:11.999Z</time>
      </trkpt>
      <trkpt lat="43.77598" lon="3.83627">
        <ele>436.4</ele>
        <time>2026-05-21T09:25:12.999Z</time>
      </trkpt>
      <trkpt lat="43.77597" lon="3.83626">
        <ele>436.2</ele>
        <time>2026-05-21T09:25:13.999Z</time>
      </trkpt>
      <trkpt lat="43.77598" lon="3.83625">
        <ele>436.2</ele>
        <time>2026-05-21T09:25:14.999Z</time>
      </trkpt>
      <trkpt lat="43.77598" lon="3.83625">
        <ele>436</ele>
        <time>2026-05-21T09:25:15.999Z</time>
      </trkpt>
      <trkpt lat="43.77598" lon="3.83624">
        <ele>435.9</ele>
        <time>2026-05-21T09:25:16.999Z</time>
      </trkpt>
      <trkpt lat="43.77598" lon="3.83623">
        <ele>436.1</ele>
        <time>2026-05-21T09:25:17.999Z</time>
      </trkpt>
      <trkpt lat="43.77599" lon="3.83623">
        <ele>436.3</ele>
        <time>2026-05-21T09:25:18.999Z</time>
      </trkpt>
      <trkpt lat="43.77599" lon="3.83622">
        <ele>437.2</ele>
        <time>2026-05-21T09:25:19.999Z</time>
      </trkpt>
      <trkpt lat="43.77599" lon="3.83622">
        <ele>437.1</ele>
        <time>2026-05-21T09:25:20.999Z</time>
      </trkpt>
      <trkpt lat="43.77599" lon="3.83622">
        <ele>437.2</ele>
        <time>2026-05-21T09:25:21.999Z</time>
      </trkpt>
      <trkpt lat="43.77598" lon="3.83623">
        <ele>437.3</ele>
        <time>2026-05-21T09:25:22.999Z</time>
      </trkpt>
      <trkpt lat="43.77598" lon="3.83624">
        <ele>437.4</ele>
        <time>2026-05-21T09:25:23.999Z</time>
      </trkpt>
      <trkpt lat="43.77598" lon="3.83625">
        <ele>437.4</ele>
        <time>2026-05-21T09:25:24.999Z</time>
      </trkpt>
      <trkpt lat="43.77598" lon="3.83625">
        <ele>437.4</ele>
        <time>2026-05-21T09:25:25.999Z</time>
      </trkpt>
      <trkpt lat="43.77598" lon="3.83626">
        <ele>437.3</ele>
        <time>2026-05-21T09:25:26.999Z</time>
      </trkpt>
      <trkpt lat="43.77598" lon="3.83626">
        <ele>437.4</ele>
        <time>2026-05-21T09:25:27.999Z</time>
      </trkpt>
      <trkpt lat="43.77599" lon="3.83627">
        <ele>437.5</ele>
        <time>2026-05-21T09:25:29.000Z</time>
      </trkpt>
      <trkpt lat="43.77599" lon="3.83627">
        <ele>437.5</ele>
        <time>2026-05-21T09:25:30.000Z</time>
      </trkpt>
      <trkpt lat="43.77599" lon="3.83627">
        <ele>437.5</ele>
        <time>2026-05-21T09:25:31.000Z</time>
      </trkpt>
      <trkpt lat="43.77599" lon="3.83627">
        <ele>437.4</ele>
        <time>2026-05-21T09:25:32.000Z</time>
      </trkpt>
      <trkpt lat="43.77599" lon="3.83627">
        <ele>437.3</ele>
        <time>2026-05-21T09:25:33.000Z</time>
      </trkpt>
      <trkpt lat="43.77599" lon="3.83627">
        <ele>437.2</ele>
        <time>2026-05-21T09:25:34.000Z</time>
      </trkpt>
      <trkpt lat="43.77599" lon="3.83627">
        <ele>437</ele>
        <time>2026-05-21T09:25:35.000Z</time>
      </trkpt>
      <trkpt lat="43.77599" lon="3.83627">
        <ele>436.9</ele>
        <time>2026-05-21T09:25:36.000Z</time>
      </trkpt>
      <trkpt lat="43.77599" lon="3.83627">
        <ele>437.1</ele>
        <time>2026-05-21T09:25:37.000Z</time>
      </trkpt>
      <trkpt lat="43.77599" lon="3.83627">
        <ele>437</ele>
        <time>2026-05-21T09:25:38.000Z</time>
      </trkpt>
      <trkpt lat="43.776" lon="3.83627">
        <ele>437.1</ele>
        <time>2026-05-21T09:25:39.000Z</time>
      </trkpt>
      <trkpt lat="43.77599" lon="3.83627">
        <ele>437</ele>
        <time>2026-05-21T09:25:40.000Z</time>
      </trkpt>
      <trkpt lat="43.77599" lon="3.83627">
        <ele>436.7</ele>
        <time>2026-05-21T09:25:41.000Z</time>
      </trkpt>
      <trkpt lat="43.77599" lon="3.83627">
        <ele>436.6</ele>
        <time>2026-05-21T09:25:42.000Z</time>
      </trkpt>
      <trkpt lat="43.776" lon="3.83627">
        <ele>436.6</ele>
        <time>2026-05-21T09:25:43.000Z</time>
      </trkpt>
      <trkpt lat="43.776" lon="3.83627">
        <ele>436.6</ele>
        <time>2026-05-21T09:25:44.000Z</time>
      </trkpt>
      <trkpt lat="43.776" lon="3.83627">
        <ele>436.7</ele>
        <time>2026-05-21T09:25:45.000Z</time>
      </trkpt>
      <trkpt lat="43.776" lon="3.83627">
        <ele>436.8</ele>
        <time>2026-05-21T09:25:46.000Z</time>
      </trkpt>
      <trkpt lat="43.776" lon="3.83627">
        <ele>437</ele>
        <time>2026-05-21T09:25:47.000Z</time>
      </trkpt>
      <trkpt lat="43.776" lon="3.83627">
        <ele>436.9</ele>
        <time>2026-05-21T09:25:48.000Z</time>
      </trkpt>
      <trkpt lat="43.776" lon="3.83626">
        <ele>437.2</ele>
        <time>2026-05-21T09:25:49.000Z</time>
      </trkpt>
      <trkpt lat="43.776" lon="3.83626">
        <ele>437.3</ele>
        <time>2026-05-21T09:25:50.000Z</time>
      </trkpt>
      <trkpt lat="43.776" lon="3.83626">
        <ele>437.7</ele>
        <time>2026-05-21T09:25:51.000Z</time>
      </trkpt>
      <trkpt lat="43.776" lon="3.83626">
        <ele>437.9</ele>
        <time>2026-05-21T09:25:52.000Z</time>
      </trkpt>
      <trkpt lat="43.776" lon="3.83626">
        <ele>437.9</ele>
        <time>2026-05-21T09:25:53.000Z</time>
      </trkpt>
      <trkpt lat="43.776" lon="3.83626">
        <ele>437</ele>
        <time>2026-05-21T09:25:54.000Z</time>
      </trkpt>
      <trkpt lat="43.776" lon="3.83626">
        <ele>436.9</ele>
        <time>2026-05-21T09:25:55.000Z</time>
      </trkpt>
      <trkpt lat="43.776" lon="3.83626">
        <ele>436.9</ele>
        <time>2026-05-21T09:25:56.000Z</time>
      </trkpt>
      <trkpt lat="43.776" lon="3.83626">
        <ele>437</ele>
        <time>2026-05-21T09:25:57.000Z</time>
      </trkpt>
      <trkpt lat="43.776" lon="3.83626">
        <ele>437.1</ele>
        <time>2026-05-21T09:25:58.000Z</time>
      </trkpt>
      <trkpt lat="43.776" lon="3.83626">
        <ele>437.2</ele>
        <time>2026-05-21T09:25:59.000Z</time>
      </trkpt>
      <trkpt lat="43.776" lon="3.83626">
        <ele>437.2</ele>
        <time>2026-05-21T09:26:00.000Z</time>
      </trkpt>
      <trkpt lat="43.776" lon="3.83626">
        <ele>437.1</ele>
        <time>2026-05-21T09:26:01.000Z</time>
      </trkpt>
      <trkpt lat="43.776" lon="3.83626">
        <ele>437.2</ele>
        <time>2026-05-21T09:26:02.000Z</time>
      </trkpt>
      <trkpt lat="43.776" lon="3.83626">
        <ele>437.2</ele>
        <time>2026-05-21T09:26:03.000Z</time>
      </trkpt>
      <trkpt lat="43.776" lon="3.83626">
        <ele>437.2</ele>
        <time>2026-05-21T09:26:04.000Z</time>
      </trkpt>
      <trkpt lat="43.776" lon="3.83626">
        <ele>437.1</ele>
        <time>2026-05-21T09:26:05.000Z</time>
      </trkpt>
      <trkpt lat="43.776" lon="3.83626">
        <ele>437</ele>
        <time>2026-05-21T09:26:06.000Z</time>
      </trkpt>
      <trkpt lat="43.776" lon="3.83626">
        <ele>437.1</ele>
        <time>2026-05-21T09:26:07.000Z</time>
      </trkpt>
      <trkpt lat="43.776" lon="3.83626">
        <ele>437.1</ele>
        <time>2026-05-21T09:26:08.000Z</time>
      </trkpt>
      <trkpt lat="43.776" lon="3.83626">
        <ele>437.2</ele>
        <time>2026-05-21T09:26:09.000Z</time>
      </trkpt>
      <trkpt lat="43.776" lon="3.83626">
        <ele>437.3</ele>
        <time>2026-05-21T09:26:10.000Z</time>
      </trkpt>
      <trkpt lat="43.776" lon="3.83626">
        <ele>437.3</ele>
        <time>2026-05-21T09:26:11.000Z</time>
      </trkpt>
      <trkpt lat="43.776" lon="3.83626">
        <ele>437.3</ele>
        <time>2026-05-21T09:26:12.000Z</time>
      </trkpt>
      <trkpt lat="43.776" lon="3.83626">
        <ele>437.3</ele>
        <time>2026-05-21T09:26:13.000Z</time>
      </trkpt>
      <trkpt lat="43.776" lon="3.83626">
        <ele>437.3</ele>
        <time>2026-05-21T09:26:14.000Z</time>
      </trkpt>
      <trkpt lat="43.776" lon="3.83626">
        <ele>437.2</ele>
        <time>2026-05-21T09:26:16.000Z</time>
      </trkpt>
      <trkpt lat="43.776" lon="3.83626">
        <ele>437.3</ele>
        <time>2026-05-21T09:26:17.000Z</time>
      </trkpt>
      <trkpt lat="43.776" lon="3.83626">
        <ele>437.2</ele>
        <time>2026-05-21T09:26:18.000Z</time>
      </trkpt>
      <trkpt lat="43.776" lon="3.83626">
        <ele>437.2</ele>
        <time>2026-05-21T09:26:19.000Z</time>
      </trkpt>
      <trkpt lat="43.776" lon="3.83626">
        <ele>437.3</ele>
        <time>2026-05-21T09:26:20.000Z</time>
      </trkpt>
      <trkpt lat="43.776" lon="3.83626">
        <ele>437.2</ele>
        <time>2026-05-21T09:26:21.000Z</time>
      </trkpt>
      <trkpt lat="43.77601" lon="3.83626">
        <ele>437.2</ele>
        <time>2026-05-21T09:26:22.000Z</time>
      </trkpt>
      <trkpt lat="43.77601" lon="3.83626">
        <ele>437.2</ele>
        <time>2026-05-21T09:26:23.000Z</time>
      </trkpt>
      <trkpt lat="43.776" lon="3.83626">
        <ele>437.2</ele>
        <time>2026-05-21T09:26:24.000Z</time>
      </trkpt>
      <trkpt lat="43.776" lon="3.83626">
        <ele>437</ele>
        <time>2026-05-21T09:26:25.000Z</time>
      </trkpt>
      <trkpt lat="43.77599" lon="3.83626">
        <ele>436.8</ele>
        <time>2026-05-21T09:26:26.000Z</time>
      </trkpt>
      <trkpt lat="43.77599" lon="3.83625">
        <ele>436.7</ele>
        <time>2026-05-21T09:26:27.000Z</time>
      </trkpt>
      <trkpt lat="43.77599" lon="3.83625">
        <ele>436.8</ele>
        <time>2026-05-21T09:26:28.000Z</time>
      </trkpt>
      <trkpt lat="43.77599" lon="3.83625">
        <ele>437.1</ele>
        <time>2026-05-21T09:26:29.000Z</time>
      </trkpt>
      <trkpt lat="43.77599" lon="3.83625">
        <ele>437.2</ele>
        <time>2026-05-21T09:26:30.000Z</time>
      </trkpt>
      <trkpt lat="43.77599" lon="3.83624">
        <ele>437.3</ele>
        <time>2026-05-21T09:26:31.000Z</time>
      </trkpt>
      <trkpt lat="43.776" lon="3.83624">
        <ele>437.2</ele>
        <time>2026-05-21T09:26:32.000Z</time>
      </trkpt>
      <trkpt lat="43.776" lon="3.83624">
        <ele>437.3</ele>
        <time>2026-05-21T09:26:33.000Z</time>
      </trkpt>
      <trkpt lat="43.77601" lon="3.83624">
        <ele>437</ele>
        <time>2026-05-21T09:26:34.000Z</time>
      </trkpt>
      <trkpt lat="43.77601" lon="3.83624">
        <ele>436.8</ele>
        <time>2026-05-21T09:26:35.000Z</time>
      </trkpt>
      <trkpt lat="43.77601" lon="3.83625">
        <ele>437</ele>
        <time>2026-05-21T09:26:36.000Z</time>
      </trkpt>
      <trkpt lat="43.77601" lon="3.83626">
        <ele>437</ele>
        <time>2026-05-21T09:26:37.000Z</time>
      </trkpt>
      <trkpt lat="43.77601" lon="3.83623">
        <ele>436.9</ele>
        <time>2026-05-21T09:26:38.000Z</time>
      </trkpt>
      <trkpt lat="43.77601" lon="3.83623">
        <ele>438</ele>
        <time>2026-05-21T09:26:39.000Z</time>
      </trkpt>
      <trkpt lat="43.77601" lon="3.83622">
        <ele>438.2</ele>
        <time>2026-05-21T09:26:40.000Z</time>
      </trkpt>
      <trkpt lat="43.77601" lon="3.83622">
        <ele>437.9</ele>
        <time>2026-05-21T09:26:41.000Z</time>
      </trkpt>
      <trkpt lat="43.77601" lon="3.83621">
        <ele>437.9</ele>
        <time>2026-05-21T09:26:42.000Z</time>
      </trkpt>
      <trkpt lat="43.77601" lon="3.83621">
        <ele>437.6</ele>
        <time>2026-05-21T09:26:43.000Z</time>
      </trkpt>
      <trkpt lat="43.77601" lon="3.8362">
        <ele>437.1</ele>
        <time>2026-05-21T09:26:44.000Z</time>
      </trkpt>
      <trkpt lat="43.77601" lon="3.83618">
        <ele>437.5</ele>
        <time>2026-05-21T09:26:45.000Z</time>
      </trkpt>
      <trkpt lat="43.77601" lon="3.83617">
        <ele>436.9</ele>
        <time>2026-05-21T09:26:46.000Z</time>
      </trkpt>
      <trkpt lat="43.77601" lon="3.83617">
        <ele>437.1</ele>
        <time>2026-05-21T09:26:47.000Z</time>
      </trkpt>
      <trkpt lat="43.77601" lon="3.83617">
        <ele>437.2</ele>
        <time>2026-05-21T09:26:48.000Z</time>
      </trkpt>
      <trkpt lat="43.77601" lon="3.83617">
        <ele>437.4</ele>
        <time>2026-05-21T09:26:49.000Z</time>
      </trkpt>
      <trkpt lat="43.77601" lon="3.83617">
        <ele>437.5</ele>
        <time>2026-05-21T09:26:50.000Z</time>
      </trkpt>
      <trkpt lat="43.77603" lon="3.83619">
        <ele>437.6</ele>
        <time>2026-05-21T09:26:51.000Z</time>
      </trkpt>
      <trkpt lat="43.77605" lon="3.83619">
        <ele>438.4</ele>
        <time>2026-05-21T09:26:52.000Z</time>
      </trkpt>
      <trkpt lat="43.77605" lon="3.8362">
        <ele>439.8</ele>
        <time>2026-05-21T09:26:53.000Z</time>
      </trkpt>
      <trkpt lat="43.77605" lon="3.83619">
        <ele>440.2</ele>
        <time>2026-05-21T09:26:54.000Z</time>
      </trkpt>
      <trkpt lat="43.77605" lon="3.83619">
        <ele>440.4</ele>
        <time>2026-05-21T09:26:55.000Z</time>
      </trkpt>
      <trkpt lat="43.77605" lon="3.83619">
        <ele>440.5</ele>
        <time>2026-05-21T09:26:56.000Z</time>
      </trkpt>
      <trkpt lat="43.77605" lon="3.83619">
        <ele>440.9</ele>
        <time>2026-05-21T09:26:57.000Z</time>
      </trkpt>
      <trkpt lat="43.77605" lon="3.83619">
        <ele>441.1</ele>
        <time>2026-05-21T09:26:58.000Z</time>
      </trkpt>
      <trkpt lat="43.77605" lon="3.83619">
        <ele>441.2</ele>
        <time>2026-05-21T09:26:59.000Z</time>
      </trkpt>
      <trkpt lat="43.77605" lon="3.83619">
        <ele>440.9</ele>
        <time>2026-05-21T09:27:00.000Z</time>
      </trkpt>
      <trkpt lat="43.77605" lon="3.83619">
        <ele>440.6</ele>
        <time>2026-05-21T09:27:01.000Z</time>
      </trkpt>
      <trkpt lat="43.77605" lon="3.83619">
        <ele>440.7</ele>
        <time>2026-05-21T09:27:02.000Z</time>
      </trkpt>
      <trkpt lat="43.77605" lon="3.83619">
        <ele>441</ele>
        <time>2026-05-21T09:27:03.000Z</time>
      </trkpt>
      <trkpt lat="43.77605" lon="3.83619">
        <ele>440.9</ele>
        <time>2026-05-21T09:27:04.000Z</time>
      </trkpt>
      <trkpt lat="43.77606" lon="3.83619">
        <ele>441.1</ele>
        <time>2026-05-21T09:27:05.000Z</time>
      </trkpt>
      <trkpt lat="43.77606" lon="3.8362">
        <ele>441</ele>
        <time>2026-05-21T09:27:06.000Z</time>
      </trkpt>
      <trkpt lat="43.77607" lon="3.83619">
        <ele>440.9</ele>
        <time>2026-05-21T09:27:07.000Z</time>
      </trkpt>
      <trkpt lat="43.77607" lon="3.83618">
        <ele>440.7</ele>
        <time>2026-05-21T09:27:08.000Z</time>
      </trkpt>
      <trkpt lat="43.77607" lon="3.83618">
        <ele>440.8</ele>
        <time>2026-05-21T09:27:09.000Z</time>
      </trkpt>
      <trkpt lat="43.77607" lon="3.83617">
        <ele>440.9</ele>
        <time>2026-05-21T09:27:10.000Z</time>
      </trkpt>
      <trkpt lat="43.77607" lon="3.83616">
        <ele>441</ele>
        <time>2026-05-21T09:27:11.000Z</time>
      </trkpt>
      <trkpt lat="43.77607" lon="3.83617">
        <ele>440.7</ele>
        <time>2026-05-21T09:27:12.000Z</time>
      </trkpt>
      <trkpt lat="43.77606" lon="3.83617">
        <ele>440.5</ele>
        <time>2026-05-21T09:27:13.000Z</time>
      </trkpt>
      <trkpt lat="43.77606" lon="3.83616">
        <ele>440.4</ele>
        <time>2026-05-21T09:27:14.000Z</time>
      </trkpt>
      <trkpt lat="43.77606" lon="3.83616">
        <ele>440</ele>
        <time>2026-05-21T09:27:15.000Z</time>
      </trkpt>
      <trkpt lat="43.77606" lon="3.83616">
        <ele>440</ele>
        <time>2026-05-21T09:27:16.000Z</time>
      </trkpt>
      <trkpt lat="43.77606" lon="3.83616">
        <ele>439.9</ele>
        <time>2026-05-21T09:27:17.000Z</time>
      </trkpt>
      <trkpt lat="43.77606" lon="3.83616">
        <ele>439.9</ele>
        <time>2026-05-21T09:27:18.000Z</time>
      </trkpt>
      <trkpt lat="43.77606" lon="3.83616">
        <ele>439.6</ele>
        <time>2026-05-21T09:27:19.000Z</time>
      </trkpt>
      <trkpt lat="43.77606" lon="3.83616">
        <ele>439.1</ele>
        <time>2026-05-21T09:27:20.000Z</time>
      </trkpt>
      <trkpt lat="43.77606" lon="3.83616">
        <ele>438.7</ele>
        <time>2026-05-21T09:27:21.000Z</time>
      </trkpt>
      <trkpt lat="43.77606" lon="3.83616">
        <ele>438.5</ele>
        <time>2026-05-21T09:27:22.000Z</time>
      </trkpt>
      <trkpt lat="43.77606" lon="3.83616">
        <ele>438.3</ele>
        <time>2026-05-21T09:27:23.000Z</time>
      </trkpt>
      <trkpt lat="43.77606" lon="3.83616">
        <ele>438.2</ele>
        <time>2026-05-21T09:27:24.000Z</time>
      </trkpt>
      <trkpt lat="43.77606" lon="3.83616">
        <ele>438.2</ele>
        <time>2026-05-21T09:27:25.000Z</time>
      </trkpt>
      <trkpt lat="43.77606" lon="3.83616">
        <ele>438.3</ele>
        <time>2026-05-21T09:27:26.000Z</time>
      </trkpt>
      <trkpt lat="43.77606" lon="3.83616">
        <ele>438.3</ele>
        <time>2026-05-21T09:27:27.000Z</time>
      </trkpt>
      <trkpt lat="43.77606" lon="3.83616">
        <ele>438.2</ele>
        <time>2026-05-21T09:27:28.000Z</time>
      </trkpt>
      <trkpt lat="43.77606" lon="3.83616">
        <ele>438.2</ele>
        <time>2026-05-21T09:27:29.000Z</time>
      </trkpt>
      <trkpt lat="43.77606" lon="3.83616">
        <ele>438.2</ele>
        <time>2026-05-21T09:27:30.000Z</time>
      </trkpt>
      <trkpt lat="43.77606" lon="3.83616">
        <ele>438.4</ele>
        <time>2026-05-21T09:27:31.000Z</time>
      </trkpt>
      <trkpt lat="43.77606" lon="3.83616">
        <ele>438.6</ele>
        <time>2026-05-21T09:27:32.000Z</time>
      </trkpt>
      <trkpt lat="43.77606" lon="3.83616">
        <ele>438.9</ele>
        <time>2026-05-21T09:27:33.000Z</time>
      </trkpt>
      <trkpt lat="43.77606" lon="3.83616">
        <ele>438.9</ele>
        <time>2026-05-21T09:27:34.000Z</time>
      </trkpt>
      <trkpt lat="43.77606" lon="3.83616">
        <ele>438.8</ele>
        <time>2026-05-21T09:27:35.000Z</time>
      </trkpt>
      <trkpt lat="43.77606" lon="3.83616">
        <ele>438.8</ele>
        <time>2026-05-21T09:27:36.000Z</time>
      </trkpt>
      <trkpt lat="43.77606" lon="3.83616">
        <ele>439</ele>
        <time>2026-05-21T09:27:37.000Z</time>
      </trkpt>
      <trkpt lat="43.77606" lon="3.83616">
        <ele>439</ele>
        <time>2026-05-21T09:27:38.000Z</time>
      </trkpt>
      <trkpt lat="43.77606" lon="3.83616">
        <ele>439</ele>
        <time>2026-05-21T09:27:39.000Z</time>
      </trkpt>
      <trkpt lat="43.77606" lon="3.83616">
        <ele>439.1</ele>
        <time>2026-05-21T09:27:40.000Z</time>
      </trkpt>
      <trkpt lat="43.77606" lon="3.83616">
        <ele>439</ele>
        <time>2026-05-21T09:27:41.000Z</time>
      </trkpt>
      <trkpt lat="43.77606" lon="3.83616">
        <ele>438.8</ele>
        <time>2026-05-21T09:27:42.000Z</time>
      </trkpt>
      <trkpt lat="43.77606" lon="3.83616">
        <ele>438.6</ele>
        <time>2026-05-21T09:27:43.000Z</time>
      </trkpt>
      <trkpt lat="43.77607" lon="3.83616">
        <ele>438.7</ele>
        <time>2026-05-21T09:27:44.000Z</time>
      </trkpt>
      <trkpt lat="43.77607" lon="3.83616">
        <ele>438.7</ele>
        <time>2026-05-21T09:27:45.000Z</time>
      </trkpt>
      <trkpt lat="43.77607" lon="3.83616">
        <ele>438.6</ele>
        <time>2026-05-21T09:27:46.000Z</time>
      </trkpt>
      <trkpt lat="43.77608" lon="3.83616">
        <ele>438.7</ele>
        <time>2026-05-21T09:27:47.000Z</time>
      </trkpt>
      <trkpt lat="43.77608" lon="3.83615">
        <ele>438.7</ele>
        <time>2026-05-21T09:27:48.000Z</time>
      </trkpt>
      <trkpt lat="43.77607" lon="3.83615">
        <ele>438.9</ele>
        <time>2026-05-21T09:27:49.000Z</time>
      </trkpt>
      <trkpt lat="43.77607" lon="3.83615">
        <ele>439</ele>
        <time>2026-05-21T09:27:50.000Z</time>
      </trkpt>
      <trkpt lat="43.77607" lon="3.83615">
        <ele>439</ele>
        <time>2026-05-21T09:27:51.000Z</time>
      </trkpt>
      <trkpt lat="43.77607" lon="3.83615">
        <ele>438.9</ele>
        <time>2026-05-21T09:27:52.000Z</time>
      </trkpt>
      <trkpt lat="43.77607" lon="3.83615">
        <ele>438.8</ele>
        <time>2026-05-21T09:27:53.000Z</time>
      </trkpt>
      <trkpt lat="43.77607" lon="3.83614">
        <ele>439</ele>
        <time>2026-05-21T09:27:54.000Z</time>
      </trkpt>
      <trkpt lat="43.77607" lon="3.83614">
        <ele>439</ele>
        <time>2026-05-21T09:27:55.000Z</time>
      </trkpt>
      <trkpt lat="43.77607" lon="3.83614">
        <ele>439.1</ele>
        <time>2026-05-21T09:27:56.000Z</time>
      </trkpt>
      <trkpt lat="43.77607" lon="3.83613">
        <ele>439.2</ele>
        <time>2026-05-21T09:27:57.000Z</time>
      </trkpt>
      <trkpt lat="43.77607" lon="3.83612">
        <ele>439</ele>
        <time>2026-05-21T09:27:58.000Z</time>
      </trkpt>
      <trkpt lat="43.77606" lon="3.8361">
        <ele>438.9</ele>
        <time>2026-05-21T09:27:59.000Z</time>
      </trkpt>
      <trkpt lat="43.77606" lon="3.8361">
        <ele>439</ele>
        <time>2026-05-21T09:28:00.000Z</time>
      </trkpt>
      <trkpt lat="43.77606" lon="3.83609">
        <ele>438.9</ele>
        <time>2026-05-21T09:28:01.000Z</time>
      </trkpt>
      <trkpt lat="43.77606" lon="3.83608">
        <ele>438.8</ele>
        <time>2026-05-21T09:28:02.000Z</time>
      </trkpt>
      <trkpt lat="43.77605" lon="3.83608">
        <ele>438.7</ele>
        <time>2026-05-21T09:28:03.000Z</time>
      </trkpt>
      <trkpt lat="43.77604" lon="3.83607">
        <ele>438.8</ele>
        <time>2026-05-21T09:28:04.000Z</time>
      </trkpt>
      <trkpt lat="43.77604" lon="3.83606">
        <ele>438.9</ele>
        <time>2026-05-21T09:28:05.000Z</time>
      </trkpt>
      <trkpt lat="43.77603" lon="3.83605">
        <ele>438.8</ele>
        <time>2026-05-21T09:28:06.000Z</time>
      </trkpt>
      <trkpt lat="43.77603" lon="3.83605">
        <ele>438.8</ele>
        <time>2026-05-21T09:28:07.000Z</time>
      </trkpt>
      <trkpt lat="43.77602" lon="3.83605">
        <ele>439</ele>
        <time>2026-05-21T09:28:08.000Z</time>
      </trkpt>
      <trkpt lat="43.77601" lon="3.83604">
        <ele>438.6</ele>
        <time>2026-05-21T09:28:09.000Z</time>
      </trkpt>
      <trkpt lat="43.77601" lon="3.83603">
        <ele>438.3</ele>
        <time>2026-05-21T09:28:10.000Z</time>
      </trkpt>
      <trkpt lat="43.77601" lon="3.83603">
        <ele>438.1</ele>
        <time>2026-05-21T09:28:11.000Z</time>
      </trkpt>
      <trkpt lat="43.77601" lon="3.83603">
        <ele>438</ele>
        <time>2026-05-21T09:28:12.000Z</time>
      </trkpt>
      <trkpt lat="43.77601" lon="3.83602">
        <ele>437.9</ele>
        <time>2026-05-21T09:28:13.000Z</time>
      </trkpt>
      <trkpt lat="43.77601" lon="3.83602">
        <ele>437.7</ele>
        <time>2026-05-21T09:28:14.000Z</time>
      </trkpt>
      <trkpt lat="43.77601" lon="3.83601">
        <ele>437.5</ele>
        <time>2026-05-21T09:28:15.000Z</time>
      </trkpt>
      <trkpt lat="43.77601" lon="3.83601">
        <ele>437.8</ele>
        <time>2026-05-21T09:28:16.000Z</time>
      </trkpt>
      <trkpt lat="43.77601" lon="3.83601">
        <ele>437.6</ele>
        <time>2026-05-21T09:28:17.000Z</time>
      </trkpt>
      <trkpt lat="43.776" lon="3.83601">
        <ele>437.8</ele>
        <time>2026-05-21T09:28:18.000Z</time>
      </trkpt>
      <trkpt lat="43.776" lon="3.83601">
        <ele>437.8</ele>
        <time>2026-05-21T09:28:19.000Z</time>
      </trkpt>
      <trkpt lat="43.776" lon="3.83601">
        <ele>438.1</ele>
        <time>2026-05-21T09:28:20.000Z</time>
      </trkpt>
      <trkpt lat="43.776" lon="3.83601">
        <ele>437.8</ele>
        <time>2026-05-21T09:28:21.000Z</time>
      </trkpt>
      <trkpt lat="43.77599" lon="3.83601">
        <ele>437.9</ele>
        <time>2026-05-21T09:28:22.000Z</time>
      </trkpt>
      <trkpt lat="43.77599" lon="3.83603">
        <ele>437.8</ele>
        <time>2026-05-21T09:28:23.000Z</time>
      </trkpt>
      <trkpt lat="43.77599" lon="3.83603">
        <ele>437.5</ele>
        <time>2026-05-21T09:28:24.000Z</time>
      </trkpt>
      <trkpt lat="43.776" lon="3.83604">
        <ele>437.5</ele>
        <time>2026-05-21T09:28:25.000Z</time>
      </trkpt>
      <trkpt lat="43.77601" lon="3.83604">
        <ele>438.3</ele>
        <time>2026-05-21T09:28:26.000Z</time>
      </trkpt>
      <trkpt lat="43.77601" lon="3.83605">
        <ele>439.7</ele>
        <time>2026-05-21T09:28:27.000Z</time>
      </trkpt>
      <trkpt lat="43.77601" lon="3.83605">
        <ele>440</ele>
        <time>2026-05-21T09:28:28.000Z</time>
      </trkpt>
      <trkpt lat="43.77602" lon="3.83605">
        <ele>440.5</ele>
        <time>2026-05-21T09:28:29.000Z</time>
      </trkpt>
      <trkpt lat="43.77602" lon="3.83605">
        <ele>440.6</ele>
        <time>2026-05-21T09:28:30.000Z</time>
      </trkpt>
      <trkpt lat="43.77602" lon="3.83605">
        <ele>440.7</ele>
        <time>2026-05-21T09:28:31.000Z</time>
      </trkpt>
      <trkpt lat="43.77602" lon="3.83605">
        <ele>440.8</ele>
        <time>2026-05-21T09:28:32.000Z</time>
      </trkpt>
      <trkpt lat="43.77602" lon="3.83604">
        <ele>441.1</ele>
        <time>2026-05-21T09:28:33.000Z</time>
      </trkpt>
      <trkpt lat="43.77602" lon="3.83604">
        <ele>441</ele>
        <time>2026-05-21T09:28:34.000Z</time>
      </trkpt>
      <trkpt lat="43.77602" lon="3.83604">
        <ele>440.9</ele>
        <time>2026-05-21T09:28:35.000Z</time>
      </trkpt>
      <trkpt lat="43.77602" lon="3.83604">
        <ele>440.8</ele>
        <time>2026-05-21T09:28:36.000Z</time>
      </trkpt>
      <trkpt lat="43.77602" lon="3.83604">
        <ele>440.8</ele>
        <time>2026-05-21T09:28:37.000Z</time>
      </trkpt>
      <trkpt lat="43.77602" lon="3.83604">
        <ele>441</ele>
        <time>2026-05-21T09:28:38.000Z</time>
      </trkpt>
      <trkpt lat="43.77602" lon="3.83604">
        <ele>441.2</ele>
        <time>2026-05-21T09:28:39.000Z</time>
      </trkpt>
      <trkpt lat="43.77602" lon="3.83604">
        <ele>441.5</ele>
        <time>2026-05-21T09:28:40.000Z</time>
      </trkpt>
      <trkpt lat="43.77602" lon="3.83604">
        <ele>441.7</ele>
        <time>2026-05-21T09:28:41.000Z</time>
      </trkpt>
      <trkpt lat="43.77602" lon="3.83604">
        <ele>441.8</ele>
        <time>2026-05-21T09:28:42.000Z</time>
      </trkpt>
      <trkpt lat="43.77602" lon="3.83604">
        <ele>441.8</ele>
        <time>2026-05-21T09:28:43.000Z</time>
      </trkpt>
      <trkpt lat="43.77602" lon="3.83604">
        <ele>442</ele>
        <time>2026-05-21T09:28:44.000Z</time>
      </trkpt>
      <trkpt lat="43.77602" lon="3.83604">
        <ele>442</ele>
        <time>2026-05-21T09:28:45.000Z</time>
      </trkpt>
      <trkpt lat="43.77602" lon="3.83604">
        <ele>442.1</ele>
        <time>2026-05-21T09:28:46.000Z</time>
      </trkpt>
      <trkpt lat="43.77602" lon="3.83604">
        <ele>442.1</ele>
        <time>2026-05-21T09:28:47.000Z</time>
      </trkpt>
      <trkpt lat="43.77602" lon="3.83604">
        <ele>442.1</ele>
        <time>2026-05-21T09:28:48.000Z</time>
      </trkpt>
      <trkpt lat="43.77602" lon="3.83604">
        <ele>442.2</ele>
        <time>2026-05-21T09:28:49.000Z</time>
      </trkpt>
      <trkpt lat="43.77603" lon="3.83604">
        <ele>442.2</ele>
        <time>2026-05-21T09:28:50.000Z</time>
      </trkpt>
      <trkpt lat="43.77603" lon="3.83604">
        <ele>442.5</ele>
        <time>2026-05-21T09:28:51.000Z</time>
      </trkpt>
      <trkpt lat="43.77603" lon="3.83604">
        <ele>442.7</ele>
        <time>2026-05-21T09:28:52.000Z</time>
      </trkpt>
      <trkpt lat="43.77603" lon="3.83604">
        <ele>443</ele>
        <time>2026-05-21T09:28:53.000Z</time>
      </trkpt>
      <trkpt lat="43.77603" lon="3.83605">
        <ele>443.3</ele>
        <time>2026-05-21T09:28:54.000Z</time>
      </trkpt>
      <trkpt lat="43.77603" lon="3.83605">
        <ele>443.5</ele>
        <time>2026-05-21T09:28:55.000Z</time>
      </trkpt>
      <trkpt lat="43.77603" lon="3.83605">
        <ele>443.7</ele>
        <time>2026-05-21T09:28:56.000Z</time>
      </trkpt>
      <trkpt lat="43.77603" lon="3.83604">
        <ele>444.1</ele>
        <time>2026-05-21T09:28:57.000Z</time>
      </trkpt>
      <trkpt lat="43.77603" lon="3.83604">
        <ele>444.4</ele>
        <time>2026-05-21T09:28:58.000Z</time>
      </trkpt>
      <trkpt lat="43.77603" lon="3.83604">
        <ele>444.9</ele>
        <time>2026-05-21T09:28:59.000Z</time>
      </trkpt>
      <trkpt lat="43.77603" lon="3.83604">
        <ele>445.4</ele>
        <time>2026-05-21T09:29:00.000Z</time>
      </trkpt>
      <trkpt lat="43.77604" lon="3.83604">
        <ele>445.8</ele>
        <time>2026-05-21T09:29:01.000Z</time>
      </trkpt>
      <trkpt lat="43.77604" lon="3.83604">
        <ele>446.2</ele>
        <time>2026-05-21T09:29:02.000Z</time>
      </trkpt>
      <trkpt lat="43.77604" lon="3.83604">
        <ele>446.6</ele>
        <time>2026-05-21T09:29:03.000Z</time>
      </trkpt>
      <trkpt lat="43.77604" lon="3.83604">
        <ele>446.9</ele>
        <time>2026-05-21T09:29:04.000Z</time>
      </trkpt>
      <trkpt lat="43.77604" lon="3.83604">
        <ele>447.2</ele>
        <time>2026-05-21T09:29:05.000Z</time>
      </trkpt>
      <trkpt lat="43.77604" lon="3.83604">
        <ele>447.4</ele>
        <time>2026-05-21T09:29:06.000Z</time>
      </trkpt>
      <trkpt lat="43.77604" lon="3.83604">
        <ele>447.4</ele>
        <time>2026-05-21T09:29:07.000Z</time>
      </trkpt>
      <trkpt lat="43.77604" lon="3.83604">
        <ele>447.4</ele>
        <time>2026-05-21T09:29:08.000Z</time>
      </trkpt>
      <trkpt lat="43.77604" lon="3.83603">
        <ele>447.4</ele>
        <time>2026-05-21T09:29:09.000Z</time>
      </trkpt>
      <trkpt lat="43.77604" lon="3.83603">
        <ele>447.5</ele>
        <time>2026-05-21T09:29:10.000Z</time>
      </trkpt>
      <trkpt lat="43.77604" lon="3.83603">
        <ele>447.8</ele>
        <time>2026-05-21T09:29:11.000Z</time>
      </trkpt>
      <trkpt lat="43.77604" lon="3.83603">
        <ele>447.9</ele>
        <time>2026-05-21T09:29:12.000Z</time>
      </trkpt>
      <trkpt lat="43.77604" lon="3.83603">
        <ele>448.3</ele>
        <time>2026-05-21T09:29:13.000Z</time>
      </trkpt>
      <trkpt lat="43.77604" lon="3.83603">
        <ele>448.2</ele>
        <time>2026-05-21T09:29:14.000Z</time>
      </trkpt>
      <trkpt lat="43.77604" lon="3.83603">
        <ele>448.4</ele>
        <time>2026-05-21T09:29:15.000Z</time>
      </trkpt>
      <trkpt lat="43.77604" lon="3.83603">
        <ele>448.3</ele>
        <time>2026-05-21T09:29:16.000Z</time>
      </trkpt>
      <trkpt lat="43.77604" lon="3.83603">
        <ele>448.1</ele>
        <time>2026-05-21T09:29:17.000Z</time>
      </trkpt>
      <trkpt lat="43.77604" lon="3.83603">
        <ele>448</ele>
        <time>2026-05-21T09:29:18.000Z</time>
      </trkpt>
      <trkpt lat="43.77604" lon="3.83603">
        <ele>447.6</ele>
        <time>2026-05-21T09:29:20.000Z</time>
      </trkpt>
      <trkpt lat="43.77604" lon="3.83602">
        <ele>447.6</ele>
        <time>2026-05-21T09:29:21.000Z</time>
      </trkpt>
      <trkpt lat="43.77604" lon="3.83602">
        <ele>447.3</ele>
        <time>2026-05-21T09:29:22.000Z</time>
      </trkpt>
      <trkpt lat="43.77604" lon="3.83602">
        <ele>447.1</ele>
        <time>2026-05-21T09:29:23.000Z</time>
      </trkpt>
      <trkpt lat="43.77604" lon="3.83602">
        <ele>447.2</ele>
        <time>2026-05-21T09:29:24.000Z</time>
      </trkpt>
      <trkpt lat="43.77604" lon="3.83602">
        <ele>447.1</ele>
        <time>2026-05-21T09:29:25.000Z</time>
      </trkpt>
      <trkpt lat="43.77604" lon="3.83602">
        <ele>447.1</ele>
        <time>2026-05-21T09:29:26.000Z</time>
      </trkpt>
      <trkpt lat="43.77604" lon="3.83602">
        <ele>447.1</ele>
        <time>2026-05-21T09:29:27.000Z</time>
      </trkpt>
      <trkpt lat="43.77605" lon="3.83602">
        <ele>447</ele>
        <time>2026-05-21T09:29:28.000Z</time>
      </trkpt>
      <trkpt lat="43.77605" lon="3.83602">
        <ele>447.1</ele>
        <time>2026-05-21T09:29:29.000Z</time>
      </trkpt>
      <trkpt lat="43.77605" lon="3.83602">
        <ele>447.2</ele>
        <time>2026-05-21T09:29:30.000Z</time>
      </trkpt>
      <trkpt lat="43.77605" lon="3.83602">
        <ele>447.2</ele>
        <time>2026-05-21T09:29:31.000Z</time>
      </trkpt>
      <trkpt lat="43.77605" lon="3.83602">
        <ele>447.2</ele>
        <time>2026-05-21T09:29:32.000Z</time>
      </trkpt>
      <trkpt lat="43.77605" lon="3.83601">
        <ele>447</ele>
        <time>2026-05-21T09:29:33.000Z</time>
      </trkpt>
      <trkpt lat="43.77605" lon="3.83601">
        <ele>447</ele>
        <time>2026-05-21T09:29:34.000Z</time>
      </trkpt>
      <trkpt lat="43.77605" lon="3.83601">
        <ele>446.9</ele>
        <time>2026-05-21T09:29:35.000Z</time>
      </trkpt>
      <trkpt lat="43.77605" lon="3.83601">
        <ele>446.8</ele>
        <time>2026-05-21T09:29:36.000Z</time>
      </trkpt>
      <trkpt lat="43.77605" lon="3.83601">
        <ele>446.7</ele>
        <time>2026-05-21T09:29:37.000Z</time>
      </trkpt>
      <trkpt lat="43.77605" lon="3.83601">
        <ele>446.7</ele>
        <time>2026-05-21T09:29:38.000Z</time>
      </trkpt>
      <trkpt lat="43.77605" lon="3.83601">
        <ele>446.8</ele>
        <time>2026-05-21T09:29:39.000Z</time>
      </trkpt>
      <trkpt lat="43.77605" lon="3.83601">
        <ele>446.7</ele>
        <time>2026-05-21T09:29:40.000Z</time>
      </trkpt>
      <trkpt lat="43.77605" lon="3.83601">
        <ele>446.7</ele>
        <time>2026-05-21T09:29:41.000Z</time>
      </trkpt>
      <trkpt lat="43.77605" lon="3.83601">
        <ele>446.5</ele>
        <time>2026-05-21T09:29:42.000Z</time>
      </trkpt>
      <trkpt lat="43.77605" lon="3.83601">
        <ele>446.6</ele>
        <time>2026-05-21T09:29:43.000Z</time>
      </trkpt>
      <trkpt lat="43.77605" lon="3.83601">
        <ele>446.4</ele>
        <time>2026-05-21T09:29:44.000Z</time>
      </trkpt>
      <trkpt lat="43.77605" lon="3.83601">
        <ele>446.4</ele>
        <time>2026-05-21T09:29:45.000Z</time>
      </trkpt>
      <trkpt lat="43.77605" lon="3.83601">
        <ele>446.4</ele>
        <time>2026-05-21T09:29:46.000Z</time>
      </trkpt>
      <trkpt lat="43.77605" lon="3.83601">
        <ele>446.4</ele>
        <time>2026-05-21T09:29:47.000Z</time>
      </trkpt>
      <trkpt lat="43.77605" lon="3.83601">
        <ele>446.5</ele>
        <time>2026-05-21T09:29:48.000Z</time>
      </trkpt>
      <trkpt lat="43.77605" lon="3.836">
        <ele>446.6</ele>
        <time>2026-05-21T09:29:49.000Z</time>
      </trkpt>
      <trkpt lat="43.77605" lon="3.836">
        <ele>446.6</ele>
        <time>2026-05-21T09:29:50.000Z</time>
      </trkpt>
      <trkpt lat="43.77605" lon="3.836">
        <ele>446.7</ele>
        <time>2026-05-21T09:29:51.000Z</time>
      </trkpt>
      <trkpt lat="43.77605" lon="3.836">
        <ele>446.6</ele>
        <time>2026-05-21T09:29:52.000Z</time>
      </trkpt>
      <trkpt lat="43.77605" lon="3.836">
        <ele>446.4</ele>
        <time>2026-05-21T09:29:53.000Z</time>
      </trkpt>
      <trkpt lat="43.77605" lon="3.836">
        <ele>446.3</ele>
        <time>2026-05-21T09:29:54.000Z</time>
      </trkpt>
      <trkpt lat="43.77605" lon="3.836">
        <ele>446.4</ele>
        <time>2026-05-21T09:29:55.000Z</time>
      </trkpt>
      <trkpt lat="43.77605" lon="3.836">
        <ele>446.4</ele>
        <time>2026-05-21T09:29:56.000Z</time>
      </trkpt>
      <trkpt lat="43.77605" lon="3.836">
        <ele>446.2</ele>
        <time>2026-05-21T09:29:57.000Z</time>
      </trkpt>
      <trkpt lat="43.77605" lon="3.836">
        <ele>446.2</ele>
        <time>2026-05-21T09:29:58.000Z</time>
      </trkpt>
      <trkpt lat="43.77605" lon="3.836">
        <ele>446.1</ele>
        <time>2026-05-21T09:29:59.000Z</time>
      </trkpt>
      <trkpt lat="43.77605" lon="3.836">
        <ele>446.1</ele>
        <time>2026-05-21T09:30:00.000Z</time>
      </trkpt>
      <trkpt lat="43.77605" lon="3.836">
        <ele>446</ele>
        <time>2026-05-21T09:30:01.000Z</time>
      </trkpt>
      <trkpt lat="43.77605" lon="3.836">
        <ele>446.2</ele>
        <time>2026-05-21T09:30:02.000Z</time>
      </trkpt>
      <trkpt lat="43.77605" lon="3.836">
        <ele>446.3</ele>
        <time>2026-05-21T09:30:03.000Z</time>
      </trkpt>
      <trkpt lat="43.77605" lon="3.836">
        <ele>446.3</ele>
        <time>2026-05-21T09:30:04.000Z</time>
      </trkpt>
      <trkpt lat="43.77605" lon="3.836">
        <ele>446.3</ele>
        <time>2026-05-21T09:30:05.000Z</time>
      </trkpt>
      <trkpt lat="43.77605" lon="3.836">
        <ele>446.1</ele>
        <time>2026-05-21T09:30:06.000Z</time>
      </trkpt>
      <trkpt lat="43.77606" lon="3.83599">
        <ele>445.8</ele>
        <time>2026-05-21T09:30:07.000Z</time>
      </trkpt>
      <trkpt lat="43.77606" lon="3.83599">
        <ele>445.6</ele>
        <time>2026-05-21T09:30:08.000Z</time>
      </trkpt>
      <trkpt lat="43.77606" lon="3.83599">
        <ele>445.5</ele>
        <time>2026-05-21T09:30:09.000Z</time>
      </trkpt>
      <trkpt lat="43.77606" lon="3.83599">
        <ele>445.5</ele>
        <time>2026-05-21T09:30:10.000Z</time>
      </trkpt>
      <trkpt lat="43.77606" lon="3.83599">
        <ele>445.6</ele>
        <time>2026-05-21T09:30:11.000Z</time>
      </trkpt>
      <trkpt lat="43.77606" lon="3.83599">
        <ele>445.6</ele>
        <time>2026-05-21T09:30:12.000Z</time>
      </trkpt>
      <trkpt lat="43.77606" lon="3.83599">
        <ele>445.6</ele>
        <time>2026-05-21T09:30:13.000Z</time>
      </trkpt>
      <trkpt lat="43.77606" lon="3.83599">
        <ele>445.5</ele>
        <time>2026-05-21T09:30:14.000Z</time>
      </trkpt>
      <trkpt lat="43.77606" lon="3.83599">
        <ele>445.7</ele>
        <time>2026-05-21T09:30:15.000Z</time>
      </trkpt>
      <trkpt lat="43.77606" lon="3.83599">
        <ele>445.6</ele>
        <time>2026-05-21T09:30:16.000Z</time>
      </trkpt>
      <trkpt lat="43.77606" lon="3.83599">
        <ele>445.7</ele>
        <time>2026-05-21T09:30:17.000Z</time>
      </trkpt>
      <trkpt lat="43.77606" lon="3.83599">
        <ele>445.7</ele>
        <time>2026-05-21T09:30:18.000Z</time>
      </trkpt>
      <trkpt lat="43.77606" lon="3.83599">
        <ele>445.6</ele>
        <time>2026-05-21T09:30:19.000Z</time>
      </trkpt>
      <trkpt lat="43.77606" lon="3.83598">
        <ele>445.5</ele>
        <time>2026-05-21T09:30:20.000Z</time>
      </trkpt>
      <trkpt lat="43.77606" lon="3.83598">
        <ele>445.5</ele>
        <time>2026-05-21T09:30:21.000Z</time>
      </trkpt>
      <trkpt lat="43.77606" lon="3.83598">
        <ele>445.4</ele>
        <time>2026-05-21T09:30:22.000Z</time>
      </trkpt>
      <trkpt lat="43.77606" lon="3.83598">
        <ele>445.3</ele>
        <time>2026-05-21T09:30:23.000Z</time>
      </trkpt>
      <trkpt lat="43.77606" lon="3.83598">
        <ele>445.1</ele>
        <time>2026-05-21T09:30:24.000Z</time>
      </trkpt>
      <trkpt lat="43.77606" lon="3.83598">
        <ele>445</ele>
        <time>2026-05-21T09:30:25.000Z</time>
      </trkpt>
      <trkpt lat="43.77606" lon="3.83598">
        <ele>444.9</ele>
        <time>2026-05-21T09:30:26.000Z</time>
      </trkpt>
      <trkpt lat="43.77606" lon="3.83598">
        <ele>445</ele>
        <time>2026-05-21T09:30:27.000Z</time>
      </trkpt>
      <trkpt lat="43.77606" lon="3.83598">
        <ele>444.9</ele>
        <time>2026-05-21T09:30:28.000Z</time>
      </trkpt>
      <trkpt lat="43.77606" lon="3.83598">
        <ele>444.7</ele>
        <time>2026-05-21T09:30:29.000Z</time>
      </trkpt>
      <trkpt lat="43.77606" lon="3.83598">
        <ele>444.7</ele>
        <time>2026-05-21T09:30:30.000Z</time>
      </trkpt>
      <trkpt lat="43.77606" lon="3.83598">
        <ele>444.5</ele>
        <time>2026-05-21T09:30:31.000Z</time>
      </trkpt>
      <trkpt lat="43.77606" lon="3.83598">
        <ele>444.4</ele>
        <time>2026-05-21T09:30:32.000Z</time>
      </trkpt>
      <trkpt lat="43.77606" lon="3.83598">
        <ele>444.4</ele>
        <time>2026-05-21T09:30:33.000Z</time>
      </trkpt>
      <trkpt lat="43.77606" lon="3.83598">
        <ele>444.3</ele>
        <time>2026-05-21T09:30:34.000Z</time>
      </trkpt>
      <trkpt lat="43.77606" lon="3.83598">
        <ele>444.1</ele>
        <time>2026-05-21T09:30:35.000Z</time>
      </trkpt>
      <trkpt lat="43.77606" lon="3.83598">
        <ele>444.1</ele>
        <time>2026-05-21T09:30:36.000Z</time>
      </trkpt>
      <trkpt lat="43.77606" lon="3.83598">
        <ele>444.2</ele>
        <time>2026-05-21T09:30:37.000Z</time>
      </trkpt>
      <trkpt lat="43.77606" lon="3.83598">
        <ele>444.2</ele>
        <time>2026-05-21T09:30:38.000Z</time>
      </trkpt>
      <trkpt lat="43.77606" lon="3.83598">
        <ele>444.2</ele>
        <time>2026-05-21T09:30:39.000Z</time>
      </trkpt>
      <trkpt lat="43.77606" lon="3.83598">
        <ele>444.2</ele>
        <time>2026-05-21T09:30:40.000Z</time>
      </trkpt>
      <trkpt lat="43.77606" lon="3.83598">
        <ele>444.3</ele>
        <time>2026-05-21T09:30:41.000Z</time>
      </trkpt>
      <trkpt lat="43.77606" lon="3.83598">
        <ele>444.2</ele>
        <time>2026-05-21T09:30:42.000Z</time>
      </trkpt>
      <trkpt lat="43.77606" lon="3.83598">
        <ele>444.3</ele>
        <time>2026-05-21T09:30:43.000Z</time>
      </trkpt>
      <trkpt lat="43.77606" lon="3.83598">
        <ele>444.3</ele>
        <time>2026-05-21T09:30:44.000Z</time>
      </trkpt>
      <trkpt lat="43.77606" lon="3.83598">
        <ele>444.3</ele>
        <time>2026-05-21T09:30:45.000Z</time>
      </trkpt>
      <trkpt lat="43.77606" lon="3.83598">
        <ele>444.3</ele>
        <time>2026-05-21T09:30:46.000Z</time>
      </trkpt>
      <trkpt lat="43.77606" lon="3.83598">
        <ele>444.3</ele>
        <time>2026-05-21T09:30:47.000Z</time>
      </trkpt>
      <trkpt lat="43.77606" lon="3.83598">
        <ele>444.3</ele>
        <time>2026-05-21T09:30:48.000Z</time>
      </trkpt>
      <trkpt lat="43.77606" lon="3.83598">
        <ele>444.4</ele>
        <time>2026-05-21T09:30:49.000Z</time>
      </trkpt>
      <trkpt lat="43.77606" lon="3.83598">
        <ele>444.7</ele>
        <time>2026-05-21T09:30:50.000Z</time>
      </trkpt>
      <trkpt lat="43.77606" lon="3.83598">
        <ele>444.7</ele>
        <time>2026-05-21T09:30:51.000Z</time>
      </trkpt>
      <trkpt lat="43.77606" lon="3.83598">
        <ele>444.7</ele>
        <time>2026-05-21T09:30:52.000Z</time>
      </trkpt>
      <trkpt lat="43.77606" lon="3.83598">
        <ele>444.7</ele>
        <time>2026-05-21T09:30:53.000Z</time>
      </trkpt>
      <trkpt lat="43.77606" lon="3.83598">
        <ele>444.7</ele>
        <time>2026-05-21T09:30:54.000Z</time>
      </trkpt>
      <trkpt lat="43.77606" lon="3.83598">
        <ele>444.6</ele>
        <time>2026-05-21T09:30:55.000Z</time>
      </trkpt>
      <trkpt lat="43.77606" lon="3.83598">
        <ele>444.5</ele>
        <time>2026-05-21T09:30:56.000Z</time>
      </trkpt>
      <trkpt lat="43.77606" lon="3.83598">
        <ele>444.4</ele>
        <time>2026-05-21T09:30:57.000Z</time>
      </trkpt>
      <trkpt lat="43.77606" lon="3.83598">
        <ele>444.2</ele>
        <time>2026-05-21T09:30:58.000Z</time>
      </trkpt>
      <trkpt lat="43.77606" lon="3.83598">
        <ele>444.1</ele>
        <time>2026-05-21T09:30:59.000Z</time>
      </trkpt>
      <trkpt lat="43.77606" lon="3.83598">
        <ele>444</ele>
        <time>2026-05-21T09:31:00.000Z</time>
      </trkpt>
      <trkpt lat="43.77606" lon="3.83598">
        <ele>443.9</ele>
        <time>2026-05-21T09:31:01.000Z</time>
      </trkpt>
      <trkpt lat="43.77606" lon="3.83598">
        <ele>443.8</ele>
        <time>2026-05-21T09:31:02.000Z</time>
      </trkpt>
      <trkpt lat="43.77606" lon="3.83598">
        <ele>443.8</ele>
        <time>2026-05-21T09:31:03.000Z</time>
      </trkpt>
      <trkpt lat="43.77606" lon="3.83598">
        <ele>443.7</ele>
        <time>2026-05-21T09:31:04.000Z</time>
      </trkpt>
      <trkpt lat="43.77606" lon="3.83598">
        <ele>443.6</ele>
        <time>2026-05-21T09:31:05.000Z</time>
      </trkpt>
      <trkpt lat="43.77606" lon="3.83598">
        <ele>443.7</ele>
        <time>2026-05-21T09:31:06.000Z</time>
      </trkpt>
      <trkpt lat="43.77606" lon="3.83598">
        <ele>443.6</ele>
        <time>2026-05-21T09:31:07.000Z</time>
      </trkpt>
      <trkpt lat="43.77606" lon="3.83598">
        <ele>443.5</ele>
        <time>2026-05-21T09:31:08.000Z</time>
      </trkpt>
      <trkpt lat="43.77606" lon="3.83598">
        <ele>443.4</ele>
        <time>2026-05-21T09:31:09.000Z</time>
      </trkpt>
      <trkpt lat="43.77606" lon="3.83598">
        <ele>443.3</ele>
        <time>2026-05-21T09:31:10.000Z</time>
      </trkpt>
      <trkpt lat="43.77606" lon="3.83598">
        <ele>443.1</ele>
        <time>2026-05-21T09:31:11.000Z</time>
      </trkpt>
      <trkpt lat="43.77606" lon="3.83598">
        <ele>443.2</ele>
        <time>2026-05-21T09:31:12.000Z</time>
      </trkpt>
      <trkpt lat="43.77606" lon="3.83598">
        <ele>443.1</ele>
        <time>2026-05-21T09:31:13.000Z</time>
      </trkpt>
      <trkpt lat="43.77606" lon="3.83598">
        <ele>443.1</ele>
        <time>2026-05-21T09:31:14.000Z</time>
      </trkpt>
      <trkpt lat="43.77606" lon="3.83598">
        <ele>443.1</ele>
        <time>2026-05-21T09:31:15.000Z</time>
      </trkpt>
      <trkpt lat="43.77606" lon="3.83598">
        <ele>443</ele>
        <time>2026-05-21T09:31:16.000Z</time>
      </trkpt>
      <trkpt lat="43.77606" lon="3.83598">
        <ele>443</ele>
        <time>2026-05-21T09:31:17.000Z</time>
      </trkpt>
      <trkpt lat="43.77606" lon="3.83598">
        <ele>443.1</ele>
        <time>2026-05-21T09:31:18.000Z</time>
      </trkpt>
      <trkpt lat="43.77606" lon="3.83598">
        <ele>443</ele>
        <time>2026-05-21T09:31:19.000Z</time>
      </trkpt>
      <trkpt lat="43.77606" lon="3.83598">
        <ele>443</ele>
        <time>2026-05-21T09:31:20.000Z</time>
      </trkpt>
      <trkpt lat="43.77606" lon="3.83598">
        <ele>443</ele>
        <time>2026-05-21T09:31:21.000Z</time>
      </trkpt>
      <trkpt lat="43.77606" lon="3.83598">
        <ele>442.9</ele>
        <time>2026-05-21T09:31:22.000Z</time>
      </trkpt>
      <trkpt lat="43.77606" lon="3.83598">
        <ele>442.7</ele>
        <time>2026-05-21T09:31:23.000Z</time>
      </trkpt>
      <trkpt lat="43.77606" lon="3.83598">
        <ele>442.6</ele>
        <time>2026-05-21T09:31:24.000Z</time>
      </trkpt>
      <trkpt lat="43.77606" lon="3.83598">
        <ele>442.6</ele>
        <time>2026-05-21T09:31:25.000Z</time>
      </trkpt>
      <trkpt lat="43.77606" lon="3.83598">
        <ele>442.6</ele>
        <time>2026-05-21T09:31:26.000Z</time>
      </trkpt>
      <trkpt lat="43.77606" lon="3.83598">
        <ele>442.7</ele>
        <time>2026-05-21T09:31:27.000Z</time>
      </trkpt>
      <trkpt lat="43.77607" lon="3.83598">
        <ele>442.9</ele>
        <time>2026-05-21T09:31:28.000Z</time>
      </trkpt>
      <trkpt lat="43.77607" lon="3.83598">
        <ele>443.2</ele>
        <time>2026-05-21T09:31:29.000Z</time>
      </trkpt>
      <trkpt lat="43.77607" lon="3.83598">
        <ele>443.5</ele>
        <time>2026-05-21T09:31:30.000Z</time>
      </trkpt>
      <trkpt lat="43.77607" lon="3.83598">
        <ele>443.8</ele>
        <time>2026-05-21T09:31:31.000Z</time>
      </trkpt>
      <trkpt lat="43.77607" lon="3.83598">
        <ele>444</ele>
        <time>2026-05-21T09:31:32.000Z</time>
      </trkpt>
      <trkpt lat="43.77607" lon="3.83598">
        <ele>444.1</ele>
        <time>2026-05-21T09:31:33.000Z</time>
      </trkpt>
      <trkpt lat="43.77607" lon="3.83598">
        <ele>444.3</ele>
        <time>2026-05-21T09:31:34.000Z</time>
      </trkpt>
      <trkpt lat="43.77607" lon="3.83598">
        <ele>444.3</ele>
        <time>2026-05-21T09:31:35.000Z</time>
      </trkpt>
      <trkpt lat="43.77607" lon="3.83598">
        <ele>444.2</ele>
        <time>2026-05-21T09:31:36.000Z</time>
      </trkpt>
      <trkpt lat="43.77607" lon="3.83598">
        <ele>444.1</ele>
        <time>2026-05-21T09:31:37.000Z</time>
      </trkpt>
      <trkpt lat="43.77607" lon="3.83598">
        <ele>444.1</ele>
        <time>2026-05-21T09:31:38.000Z</time>
      </trkpt>
      <trkpt lat="43.77607" lon="3.83598">
        <ele>444</ele>
        <time>2026-05-21T09:31:39.000Z</time>
      </trkpt>
      <trkpt lat="43.77607" lon="3.83598">
        <ele>443.7</ele>
        <time>2026-05-21T09:31:40.000Z</time>
      </trkpt>
      <trkpt lat="43.77607" lon="3.83598">
        <ele>443.7</ele>
        <time>2026-05-21T09:31:41.000Z</time>
      </trkpt>
      <trkpt lat="43.77607" lon="3.83598">
        <ele>443.6</ele>
        <time>2026-05-21T09:31:42.000Z</time>
      </trkpt>
      <trkpt lat="43.77607" lon="3.83598">
        <ele>443.6</ele>
        <time>2026-05-21T09:31:43.000Z</time>
      </trkpt>
      <trkpt lat="43.77607" lon="3.83598">
        <ele>443.6</ele>
        <time>2026-05-21T09:31:44.000Z</time>
      </trkpt>
      <trkpt lat="43.77607" lon="3.83598">
        <ele>443.6</ele>
        <time>2026-05-21T09:31:45.000Z</time>
      </trkpt>
      <trkpt lat="43.77607" lon="3.83598">
        <ele>443.7</ele>
        <time>2026-05-21T09:31:46.000Z</time>
      </trkpt>
      <trkpt lat="43.77607" lon="3.83598">
        <ele>443.7</ele>
        <time>2026-05-21T09:31:47.000Z</time>
      </trkpt>
      <trkpt lat="43.77607" lon="3.83598">
        <ele>443.8</ele>
        <time>2026-05-21T09:31:48.000Z</time>
      </trkpt>
      <trkpt lat="43.77607" lon="3.83598">
        <ele>443.7</ele>
        <time>2026-05-21T09:31:49.000Z</time>
      </trkpt>
      <trkpt lat="43.77607" lon="3.83598">
        <ele>443.6</ele>
        <time>2026-05-21T09:31:50.000Z</time>
      </trkpt>
      <trkpt lat="43.77607" lon="3.83598">
        <ele>443.6</ele>
        <time>2026-05-21T09:31:51.000Z</time>
      </trkpt>
      <trkpt lat="43.77607" lon="3.83598">
        <ele>443.9</ele>
        <time>2026-05-21T09:31:52.000Z</time>
      </trkpt>
      <trkpt lat="43.77607" lon="3.83598">
        <ele>444.1</ele>
        <time>2026-05-21T09:31:53.000Z</time>
      </trkpt>
      <trkpt lat="43.77607" lon="3.83598">
        <ele>443.7</ele>
        <time>2026-05-21T09:31:54.000Z</time>
      </trkpt>
      <trkpt lat="43.77607" lon="3.83598">
        <ele>443.4</ele>
        <time>2026-05-21T09:31:55.000Z</time>
      </trkpt>
      <trkpt lat="43.77607" lon="3.83598">
        <ele>443.3</ele>
        <time>2026-05-21T09:31:56.000Z</time>
      </trkpt>
      <trkpt lat="43.77607" lon="3.83598">
        <ele>443.3</ele>
        <time>2026-05-21T09:31:57.000Z</time>
      </trkpt>
      <trkpt lat="43.77607" lon="3.83598">
        <ele>443.4</ele>
        <time>2026-05-21T09:31:58.000Z</time>
      </trkpt>
      <trkpt lat="43.77607" lon="3.83598">
        <ele>443.3</ele>
        <time>2026-05-21T09:31:59.000Z</time>
      </trkpt>
      <trkpt lat="43.77607" lon="3.83598">
        <ele>443.2</ele>
        <time>2026-05-21T09:32:00.000Z</time>
      </trkpt>
      <trkpt lat="43.77607" lon="3.83599">
        <ele>443</ele>
        <time>2026-05-21T09:32:01.000Z</time>
      </trkpt>
      <trkpt lat="43.77607" lon="3.83599">
        <ele>442.8</ele>
        <time>2026-05-21T09:32:02.000Z</time>
      </trkpt>
      <trkpt lat="43.77607" lon="3.83599">
        <ele>442.5</ele>
        <time>2026-05-21T09:32:03.000Z</time>
      </trkpt>
      <trkpt lat="43.77607" lon="3.83599">
        <ele>442.5</ele>
        <time>2026-05-21T09:32:04.000Z</time>
      </trkpt>
      <trkpt lat="43.77607" lon="3.83599">
        <ele>442.3</ele>
        <time>2026-05-21T09:32:05.000Z</time>
      </trkpt>
      <trkpt lat="43.77607" lon="3.83599">
        <ele>442.5</ele>
        <time>2026-05-21T09:32:06.000Z</time>
      </trkpt>
      <trkpt lat="43.77607" lon="3.83599">
        <ele>442.3</ele>
        <time>2026-05-21T09:32:07.000Z</time>
      </trkpt>
      <trkpt lat="43.77607" lon="3.83599">
        <ele>442.3</ele>
        <time>2026-05-21T09:32:08.000Z</time>
      </trkpt>
      <trkpt lat="43.77607" lon="3.83599">
        <ele>442.3</ele>
        <time>2026-05-21T09:32:09.000Z</time>
      </trkpt>
      <trkpt lat="43.77607" lon="3.83599">
        <ele>442.4</ele>
        <time>2026-05-21T09:32:10.000Z</time>
      </trkpt>
      <trkpt lat="43.77607" lon="3.83599">
        <ele>442.4</ele>
        <time>2026-05-21T09:32:11.000Z</time>
      </trkpt>
      <trkpt lat="43.77607" lon="3.83599">
        <ele>442.3</ele>
        <time>2026-05-21T09:32:12.000Z</time>
      </trkpt>
      <trkpt lat="43.77607" lon="3.83599">
        <ele>442.3</ele>
        <time>2026-05-21T09:32:13.000Z</time>
      </trkpt>
      <trkpt lat="43.77607" lon="3.83599">
        <ele>442.3</ele>
        <time>2026-05-21T09:32:14.000Z</time>
      </trkpt>
      <trkpt lat="43.77607" lon="3.83599">
        <ele>442.4</ele>
        <time>2026-05-21T09:32:15.000Z</time>
      </trkpt>
      <trkpt lat="43.77607" lon="3.83599">
        <ele>442.6</ele>
        <time>2026-05-21T09:32:16.000Z</time>
      </trkpt>
      <trkpt lat="43.77607" lon="3.83599">
        <ele>442.7</ele>
        <time>2026-05-21T09:32:17.000Z</time>
      </trkpt>
      <trkpt lat="43.77607" lon="3.83599">
        <ele>443</ele>
        <time>2026-05-21T09:32:18.000Z</time>
      </trkpt>
      <trkpt lat="43.77607" lon="3.83599">
        <ele>443.1</ele>
        <time>2026-05-21T09:32:19.000Z</time>
      </trkpt>
      <trkpt lat="43.77607" lon="3.83599">
        <ele>443.2</ele>
        <time>2026-05-21T09:32:20.000Z</time>
      </trkpt>
      <trkpt lat="43.77607" lon="3.83599">
        <ele>443.4</ele>
        <time>2026-05-21T09:32:21.000Z</time>
      </trkpt>
      <trkpt lat="43.77607" lon="3.83599">
        <ele>443.5</ele>
        <time>2026-05-21T09:32:22.000Z</time>
      </trkpt>
      <trkpt lat="43.77607" lon="3.83599">
        <ele>443.7</ele>
        <time>2026-05-21T09:32:23.000Z</time>
      </trkpt>
      <trkpt lat="43.77607" lon="3.83599">
        <ele>443.8</ele>
        <time>2026-05-21T09:32:24.000Z</time>
      </trkpt>
      <trkpt lat="43.77607" lon="3.83599">
        <ele>444</ele>
        <time>2026-05-21T09:32:25.000Z</time>
      </trkpt>
      <trkpt lat="43.77607" lon="3.83599">
        <ele>444.3</ele>
        <time>2026-05-21T09:32:26.000Z</time>
      </trkpt>
      <trkpt lat="43.77607" lon="3.83599">
        <ele>444.4</ele>
        <time>2026-05-21T09:32:27.000Z</time>
      </trkpt>
      <trkpt lat="43.77607" lon="3.83599">
        <ele>444.6</ele>
        <time>2026-05-21T09:32:28.000Z</time>
      </trkpt>
      <trkpt lat="43.77607" lon="3.83599">
        <ele>444.9</ele>
        <time>2026-05-21T09:32:29.000Z</time>
      </trkpt>
      <trkpt lat="43.77607" lon="3.83599">
        <ele>445.1</ele>
        <time>2026-05-21T09:32:30.000Z</time>
      </trkpt>
      <trkpt lat="43.77607" lon="3.83599">
        <ele>445.3</ele>
        <time>2026-05-21T09:32:31.000Z</time>
      </trkpt>
      <trkpt lat="43.77607" lon="3.83599">
        <ele>445.5</ele>
        <time>2026-05-21T09:32:32.000Z</time>
      </trkpt>
      <trkpt lat="43.77607" lon="3.83598">
        <ele>445.6</ele>
        <time>2026-05-21T09:32:33.000Z</time>
      </trkpt>
      <trkpt lat="43.77608" lon="3.83598">
        <ele>445.8</ele>
        <time>2026-05-21T09:32:34.000Z</time>
      </trkpt>
      <trkpt lat="43.77607" lon="3.83598">
        <ele>446</ele>
        <time>2026-05-21T09:32:35.000Z</time>
      </trkpt>
      <trkpt lat="43.77607" lon="3.83598">
        <ele>446.2</ele>
        <time>2026-05-21T09:32:36.000Z</time>
      </trkpt>
      <trkpt lat="43.77608" lon="3.83598">
        <ele>446.4</ele>
        <time>2026-05-21T09:32:37.000Z</time>
      </trkpt>
      <trkpt lat="43.77607" lon="3.83598">
        <ele>446.5</ele>
        <time>2026-05-21T09:32:38.000Z</time>
      </trkpt>
      <trkpt lat="43.77607" lon="3.83598">
        <ele>446.5</ele>
        <time>2026-05-21T09:32:39.000Z</time>
      </trkpt>
      <trkpt lat="43.77607" lon="3.83598">
        <ele>446.7</ele>
        <time>2026-05-21T09:32:40.000Z</time>
      </trkpt>
      <trkpt lat="43.77607" lon="3.83598">
        <ele>446.6</ele>
        <time>2026-05-21T09:32:41.000Z</time>
      </trkpt>
      <trkpt lat="43.77607" lon="3.83598">
        <ele>446.3</ele>
        <time>2026-05-21T09:32:42.000Z</time>
      </trkpt>
      <trkpt lat="43.77607" lon="3.83598">
        <ele>446.2</ele>
        <time>2026-05-21T09:32:43.000Z</time>
      </trkpt>
      <trkpt lat="43.77607" lon="3.83598">
        <ele>446.2</ele>
        <time>2026-05-21T09:32:44.000Z</time>
      </trkpt>
      <trkpt lat="43.77607" lon="3.83598">
        <ele>446.1</ele>
        <time>2026-05-21T09:32:45.000Z</time>
      </trkpt>
      <trkpt lat="43.77607" lon="3.83598">
        <ele>445.9</ele>
        <time>2026-05-21T09:32:46.000Z</time>
      </trkpt>
      <trkpt lat="43.77607" lon="3.83598">
        <ele>445.8</ele>
        <time>2026-05-21T09:32:47.000Z</time>
      </trkpt>
      <trkpt lat="43.77607" lon="3.83598">
        <ele>445.8</ele>
        <time>2026-05-21T09:32:48.000Z</time>
      </trkpt>
      <trkpt lat="43.77608" lon="3.83598">
        <ele>445.9</ele>
        <time>2026-05-21T09:32:49.000Z</time>
      </trkpt>
      <trkpt lat="43.77608" lon="3.83598">
        <ele>445.7</ele>
        <time>2026-05-21T09:32:50.000Z</time>
      </trkpt>
      <trkpt lat="43.77608" lon="3.83598">
        <ele>445.5</ele>
        <time>2026-05-21T09:32:51.000Z</time>
      </trkpt>
      <trkpt lat="43.77608" lon="3.83598">
        <ele>445.4</ele>
        <time>2026-05-21T09:32:52.000Z</time>
      </trkpt>
      <trkpt lat="43.77608" lon="3.83598">
        <ele>445.5</ele>
        <time>2026-05-21T09:32:53.000Z</time>
      </trkpt>
      <trkpt lat="43.77608" lon="3.83598">
        <ele>445.6</ele>
        <time>2026-05-21T09:32:54.000Z</time>
      </trkpt>
      <trkpt lat="43.77608" lon="3.83598">
        <ele>445.6</ele>
        <time>2026-05-21T09:32:55.000Z</time>
      </trkpt>
      <trkpt lat="43.77608" lon="3.83598">
        <ele>445.4</ele>
        <time>2026-05-21T09:32:56.000Z</time>
      </trkpt>
      <trkpt lat="43.77608" lon="3.83598">
        <ele>445.5</ele>
        <time>2026-05-21T09:32:57.000Z</time>
      </trkpt>
      <trkpt lat="43.77608" lon="3.83598">
        <ele>445.6</ele>
        <time>2026-05-21T09:32:58.000Z</time>
      </trkpt>
      <trkpt lat="43.77608" lon="3.83598">
        <ele>445.6</ele>
        <time>2026-05-21T09:32:59.000Z</time>
      </trkpt>
      <trkpt lat="43.77608" lon="3.83598">
        <ele>445.6</ele>
        <time>2026-05-21T09:33:00.000Z</time>
      </trkpt>
      <trkpt lat="43.77608" lon="3.83598">
        <ele>445.4</ele>
        <time>2026-05-21T09:33:01.000Z</time>
      </trkpt>
      <trkpt lat="43.77608" lon="3.83598">
        <ele>445.2</ele>
        <time>2026-05-21T09:33:02.000Z</time>
      </trkpt>
      <trkpt lat="43.77608" lon="3.83598">
        <ele>444.9</ele>
        <time>2026-05-21T09:33:03.000Z</time>
      </trkpt>
      <trkpt lat="43.77608" lon="3.83598">
        <ele>445</ele>
        <time>2026-05-21T09:33:04.000Z</time>
      </trkpt>
      <trkpt lat="43.77608" lon="3.83598">
        <ele>444.9</ele>
        <time>2026-05-21T09:33:05.000Z</time>
      </trkpt>
      <trkpt lat="43.77608" lon="3.83598">
        <ele>445</ele>
        <time>2026-05-21T09:33:06.000Z</time>
      </trkpt>
      <trkpt lat="43.77608" lon="3.83598">
        <ele>445</ele>
        <time>2026-05-21T09:33:07.000Z</time>
      </trkpt>
      <trkpt lat="43.77608" lon="3.83598">
        <ele>445.1</ele>
        <time>2026-05-21T09:33:08.000Z</time>
      </trkpt>
      <trkpt lat="43.77608" lon="3.83598">
        <ele>445.2</ele>
        <time>2026-05-21T09:33:09.000Z</time>
      </trkpt>
      <trkpt lat="43.77608" lon="3.83598">
        <ele>445.3</ele>
        <time>2026-05-21T09:33:10.000Z</time>
      </trkpt>
      <trkpt lat="43.77608" lon="3.83598">
        <ele>445.2</ele>
        <time>2026-05-21T09:33:11.000Z</time>
      </trkpt>
      <trkpt lat="43.77608" lon="3.83598">
        <ele>445.2</ele>
        <time>2026-05-21T09:33:12.000Z</time>
      </trkpt>
      <trkpt lat="43.77608" lon="3.83598">
        <ele>445.1</ele>
        <time>2026-05-21T09:33:13.000Z</time>
      </trkpt>
      <trkpt lat="43.77608" lon="3.83598">
        <ele>444.9</ele>
        <time>2026-05-21T09:33:14.000Z</time>
      </trkpt>
      <trkpt lat="43.77608" lon="3.83598">
        <ele>444.9</ele>
        <time>2026-05-21T09:33:15.000Z</time>
      </trkpt>
      <trkpt lat="43.77608" lon="3.83598">
        <ele>445</ele>
        <time>2026-05-21T09:33:16.000Z</time>
      </trkpt>
      <trkpt lat="43.77608" lon="3.83598">
        <ele>445</ele>
        <time>2026-05-21T09:33:17.000Z</time>
      </trkpt>
      <trkpt lat="43.77608" lon="3.83598">
        <ele>445.3</ele>
        <time>2026-05-21T09:33:18.000Z</time>
      </trkpt>
      <trkpt lat="43.77608" lon="3.83598">
        <ele>445.5</ele>
        <time>2026-05-21T09:33:19.000Z</time>
      </trkpt>
      <trkpt lat="43.77608" lon="3.83598">
        <ele>445.6</ele>
        <time>2026-05-21T09:33:20.000Z</time>
      </trkpt>
      <trkpt lat="43.77608" lon="3.83598">
        <ele>445.5</ele>
        <time>2026-05-21T09:33:21.000Z</time>
      </trkpt>
      <trkpt lat="43.77608" lon="3.83598">
        <ele>445.4</ele>
        <time>2026-05-21T09:33:22.000Z</time>
      </trkpt>
      <trkpt lat="43.77608" lon="3.83598">
        <ele>445.3</ele>
        <time>2026-05-21T09:33:23.000Z</time>
      </trkpt>
      <trkpt lat="43.77608" lon="3.83598">
        <ele>445.1</ele>
        <time>2026-05-21T09:33:24.000Z</time>
      </trkpt>
      <trkpt lat="43.77608" lon="3.83598">
        <ele>445</ele>
        <time>2026-05-21T09:33:25.000Z</time>
      </trkpt>
      <trkpt lat="43.77608" lon="3.83598">
        <ele>444.9</ele>
        <time>2026-05-21T09:33:26.000Z</time>
      </trkpt>
      <trkpt lat="43.77608" lon="3.83598">
        <ele>444.6</ele>
        <time>2026-05-21T09:33:27.000Z</time>
      </trkpt>
      <trkpt lat="43.77608" lon="3.83598">
        <ele>444.4</ele>
        <time>2026-05-21T09:33:28.000Z</time>
      </trkpt>
      <trkpt lat="43.77608" lon="3.83598">
        <ele>444.1</ele>
        <time>2026-05-21T09:33:29.000Z</time>
      </trkpt>
      <trkpt lat="43.77608" lon="3.83598">
        <ele>443.9</ele>
        <time>2026-05-21T09:33:30.000Z</time>
      </trkpt>
      <trkpt lat="43.77608" lon="3.83598">
        <ele>443.8</ele>
        <time>2026-05-21T09:33:31.000Z</time>
      </trkpt>
      <trkpt lat="43.77608" lon="3.83598">
        <ele>443.8</ele>
        <time>2026-05-21T09:33:32.000Z</time>
      </trkpt>
      <trkpt lat="43.77608" lon="3.83598">
        <ele>443.6</ele>
        <time>2026-05-21T09:33:33.000Z</time>
      </trkpt>
      <trkpt lat="43.77608" lon="3.83598">
        <ele>443.6</ele>
        <time>2026-05-21T09:33:34.000Z</time>
      </trkpt>
      <trkpt lat="43.77608" lon="3.83598">
        <ele>443.5</ele>
        <time>2026-05-21T09:33:35.000Z</time>
      </trkpt>
      <trkpt lat="43.77608" lon="3.83597">
        <ele>443.8</ele>
        <time>2026-05-21T09:33:36.000Z</time>
      </trkpt>
      <trkpt lat="43.77608" lon="3.83597">
        <ele>443.9</ele>
        <time>2026-05-21T09:33:37.000Z</time>
      </trkpt>
      <trkpt lat="43.77608" lon="3.83597">
        <ele>444</ele>
        <time>2026-05-21T09:33:38.000Z</time>
      </trkpt>
      <trkpt lat="43.77608" lon="3.83597">
        <ele>444</ele>
        <time>2026-05-21T09:33:39.000Z</time>
      </trkpt>
      <trkpt lat="43.77608" lon="3.83598">
        <ele>443.9</ele>
        <time>2026-05-21T09:33:40.000Z</time>
      </trkpt>
      <trkpt lat="43.77608" lon="3.83598">
        <ele>444</ele>
        <time>2026-05-21T09:33:41.000Z</time>
      </trkpt>
      <trkpt lat="43.77608" lon="3.83598">
        <ele>444.2</ele>
        <time>2026-05-21T09:33:42.000Z</time>
      </trkpt>
      <trkpt lat="43.77608" lon="3.83598">
        <ele>444.3</ele>
        <time>2026-05-21T09:33:43.000Z</time>
      </trkpt>
      <trkpt lat="43.77608" lon="3.83598">
        <ele>444.4</ele>
        <time>2026-05-21T09:33:44.000Z</time>
      </trkpt>
      <trkpt lat="43.77608" lon="3.83598">
        <ele>444.5</ele>
        <time>2026-05-21T09:33:45.000Z</time>
      </trkpt>
      <trkpt lat="43.77608" lon="3.83598">
        <ele>444.8</ele>
        <time>2026-05-21T09:33:46.000Z</time>
      </trkpt>
      <trkpt lat="43.77608" lon="3.83598">
        <ele>444.9</ele>
        <time>2026-05-21T09:33:47.000Z</time>
      </trkpt>
      <trkpt lat="43.77608" lon="3.83598">
        <ele>444.8</ele>
        <time>2026-05-21T09:33:48.000Z</time>
      </trkpt>
      <trkpt lat="43.77608" lon="3.83598">
        <ele>444.6</ele>
        <time>2026-05-21T09:33:49.000Z</time>
      </trkpt>
      <trkpt lat="43.77608" lon="3.83598">
        <ele>444.6</ele>
        <time>2026-05-21T09:33:50.000Z</time>
      </trkpt>
      <trkpt lat="43.77608" lon="3.83598">
        <ele>444.7</ele>
        <time>2026-05-21T09:33:51.000Z</time>
      </trkpt>
      <trkpt lat="43.77608" lon="3.83598">
        <ele>444.7</ele>
        <time>2026-05-21T09:33:52.000Z</time>
      </trkpt>
      <trkpt lat="43.77608" lon="3.83598">
        <ele>444.6</ele>
        <time>2026-05-21T09:33:53.000Z</time>
      </trkpt>
      <trkpt lat="43.77608" lon="3.83598">
        <ele>444.7</ele>
        <time>2026-05-21T09:33:54.000Z</time>
      </trkpt>
      <trkpt lat="43.77608" lon="3.83598">
        <ele>444.9</ele>
        <time>2026-05-21T09:33:55.000Z</time>
      </trkpt>
      <trkpt lat="43.77608" lon="3.83598">
        <ele>445</ele>
        <time>2026-05-21T09:33:56.000Z</time>
      </trkpt>
      <trkpt lat="43.77608" lon="3.83598">
        <ele>445.1</ele>
        <time>2026-05-21T09:33:57.000Z</time>
      </trkpt>
      <trkpt lat="43.77608" lon="3.83598">
        <ele>445.2</ele>
        <time>2026-05-21T09:33:58.000Z</time>
      </trkpt>
      <trkpt lat="43.77608" lon="3.83598">
        <ele>445.3</ele>
        <time>2026-05-21T09:33:59.000Z</time>
      </trkpt>
      <trkpt lat="43.77608" lon="3.83598">
        <ele>445.5</ele>
        <time>2026-05-21T09:34:00.000Z</time>
      </trkpt>
      <trkpt lat="43.77608" lon="3.83598">
        <ele>445.5</ele>
        <time>2026-05-21T09:34:01.000Z</time>
      </trkpt>
      <trkpt lat="43.77608" lon="3.83598">
        <ele>445.5</ele>
        <time>2026-05-21T09:34:02.000Z</time>
      </trkpt>
      <trkpt lat="43.77608" lon="3.83598">
        <ele>445.3</ele>
        <time>2026-05-21T09:34:03.000Z</time>
      </trkpt>
      <trkpt lat="43.77608" lon="3.83598">
        <ele>445</ele>
        <time>2026-05-21T09:34:04.000Z</time>
      </trkpt>
      <trkpt lat="43.77608" lon="3.83598">
        <ele>444.9</ele>
        <time>2026-05-21T09:34:05.000Z</time>
      </trkpt>
      <trkpt lat="43.77608" lon="3.83598">
        <ele>445.1</ele>
        <time>2026-05-21T09:34:06.000Z</time>
      </trkpt>
      <trkpt lat="43.77608" lon="3.83598">
        <ele>445.1</ele>
        <time>2026-05-21T09:34:07.000Z</time>
      </trkpt>
      <trkpt lat="43.77608" lon="3.83598">
        <ele>445</ele>
        <time>2026-05-21T09:34:08.000Z</time>
      </trkpt>
      <trkpt lat="43.77608" lon="3.83598">
        <ele>444.9</ele>
        <time>2026-05-21T09:34:09.000Z</time>
      </trkpt>
      <trkpt lat="43.77608" lon="3.83598">
        <ele>444.8</ele>
        <time>2026-05-21T09:34:10.000Z</time>
      </trkpt>
      <trkpt lat="43.77608" lon="3.83598">
        <ele>444.7</ele>
        <time>2026-05-21T09:34:11.000Z</time>
      </trkpt>
      <trkpt lat="43.77608" lon="3.83598">
        <ele>444.6</ele>
        <time>2026-05-21T09:34:12.000Z</time>
      </trkpt>
      <trkpt lat="43.77608" lon="3.83598">
        <ele>444.6</ele>
        <time>2026-05-21T09:34:13.000Z</time>
      </trkpt>
      <trkpt lat="43.77608" lon="3.83598">
        <ele>444.5</ele>
        <time>2026-05-21T09:34:14.000Z</time>
      </trkpt>
      <trkpt lat="43.77608" lon="3.83598">
        <ele>444.3</ele>
        <time>2026-05-21T09:34:15.000Z</time>
      </trkpt>
      <trkpt lat="43.77608" lon="3.83598">
        <ele>444.1</ele>
        <time>2026-05-21T09:34:16.000Z</time>
      </trkpt>
      <trkpt lat="43.77608" lon="3.83598">
        <ele>443.8</ele>
        <time>2026-05-21T09:34:17.000Z</time>
      </trkpt>
      <trkpt lat="43.77608" lon="3.83598">
        <ele>443.6</ele>
        <time>2026-05-21T09:34:18.000Z</time>
      </trkpt>
      <trkpt lat="43.77608" lon="3.83598">
        <ele>443.5</ele>
        <time>2026-05-21T09:34:19.000Z</time>
      </trkpt>
      <trkpt lat="43.77608" lon="3.83598">
        <ele>443.3</ele>
        <time>2026-05-21T09:34:20.000Z</time>
      </trkpt>
      <trkpt lat="43.77608" lon="3.83598">
        <ele>443.2</ele>
        <time>2026-05-21T09:34:21.000Z</time>
      </trkpt>
      <trkpt lat="43.77608" lon="3.83598">
        <ele>442.9</ele>
        <time>2026-05-21T09:34:22.000Z</time>
      </trkpt>
      <trkpt lat="43.77608" lon="3.83598">
        <ele>442.8</ele>
        <time>2026-05-21T09:34:23.000Z</time>
      </trkpt>
      <trkpt lat="43.77608" lon="3.83598">
        <ele>442.7</ele>
        <time>2026-05-21T09:34:24.000Z</time>
      </trkpt>
      <trkpt lat="43.77608" lon="3.83598">
        <ele>442.6</ele>
        <time>2026-05-21T09:34:25.000Z</time>
      </trkpt>
      <trkpt lat="43.77608" lon="3.83598">
        <ele>442.6</ele>
        <time>2026-05-21T09:34:26.000Z</time>
      </trkpt>
      <trkpt lat="43.77608" lon="3.83598">
        <ele>442.7</ele>
        <time>2026-05-21T09:34:27.000Z</time>
      </trkpt>
      <trkpt lat="43.77608" lon="3.83598">
        <ele>442.8</ele>
        <time>2026-05-21T09:34:28.000Z</time>
      </trkpt>
      <trkpt lat="43.77608" lon="3.83598">
        <ele>442.9</ele>
        <time>2026-05-21T09:34:29.000Z</time>
      </trkpt>
      <trkpt lat="43.77608" lon="3.83597">
        <ele>442.8</ele>
        <time>2026-05-21T09:34:30.000Z</time>
      </trkpt>
      <trkpt lat="43.77608" lon="3.83597">
        <ele>442.7</ele>
        <time>2026-05-21T09:34:31.000Z</time>
      </trkpt>
      <trkpt lat="43.77608" lon="3.83597">
        <ele>442.6</ele>
        <time>2026-05-21T09:34:32.000Z</time>
      </trkpt>
      <trkpt lat="43.77608" lon="3.83597">
        <ele>442.7</ele>
        <time>2026-05-21T09:34:33.000Z</time>
      </trkpt>
      <trkpt lat="43.77608" lon="3.83597">
        <ele>442.9</ele>
        <time>2026-05-21T09:34:34.000Z</time>
      </trkpt>
      <trkpt lat="43.77608" lon="3.83597">
        <ele>443.1</ele>
        <time>2026-05-21T09:34:35.000Z</time>
      </trkpt>
      <trkpt lat="43.77608" lon="3.83597">
        <ele>443.2</ele>
        <time>2026-05-21T09:34:36.000Z</time>
      </trkpt>
      <trkpt lat="43.77608" lon="3.83597">
        <ele>443.4</ele>
        <time>2026-05-21T09:34:37.000Z</time>
      </trkpt>
      <trkpt lat="43.77608" lon="3.83597">
        <ele>443.8</ele>
        <time>2026-05-21T09:34:38.000Z</time>
      </trkpt>
      <trkpt lat="43.77608" lon="3.83597">
        <ele>444</ele>
        <time>2026-05-21T09:34:39.000Z</time>
      </trkpt>
      <trkpt lat="43.77608" lon="3.83597">
        <ele>443.8</ele>
        <time>2026-05-21T09:34:40.000Z</time>
      </trkpt>
      <trkpt lat="43.77608" lon="3.83597">
        <ele>443.8</ele>
        <time>2026-05-21T09:34:41.000Z</time>
      </trkpt>
      <trkpt lat="43.77608" lon="3.83597">
        <ele>443.8</ele>
        <time>2026-05-21T09:34:42.000Z</time>
      </trkpt>
      <trkpt lat="43.77608" lon="3.83597">
        <ele>443.8</ele>
        <time>2026-05-21T09:34:43.000Z</time>
      </trkpt>
      <trkpt lat="43.77608" lon="3.83597">
        <ele>443.7</ele>
        <time>2026-05-21T09:34:44.000Z</time>
      </trkpt>
      <trkpt lat="43.77608" lon="3.83597">
        <ele>443.6</ele>
        <time>2026-05-21T09:34:45.000Z</time>
      </trkpt>
      <trkpt lat="43.77608" lon="3.83597">
        <ele>443.9</ele>
        <time>2026-05-21T09:34:46.000Z</time>
      </trkpt>
      <trkpt lat="43.77608" lon="3.83597">
        <ele>444.1</ele>
        <time>2026-05-21T09:34:47.000Z</time>
      </trkpt>
      <trkpt lat="43.77608" lon="3.83597">
        <ele>444.1</ele>
        <time>2026-05-21T09:34:48.000Z</time>
      </trkpt>
      <trkpt lat="43.77608" lon="3.83597">
        <ele>444.1</ele>
        <time>2026-05-21T09:34:49.000Z</time>
      </trkpt>
      <trkpt lat="43.77608" lon="3.83597">
        <ele>444.2</ele>
        <time>2026-05-21T09:34:50.000Z</time>
      </trkpt>
      <trkpt lat="43.77608" lon="3.83597">
        <ele>444.4</ele>
        <time>2026-05-21T09:34:51.000Z</time>
      </trkpt>
      <trkpt lat="43.77608" lon="3.83597">
        <ele>444.4</ele>
        <time>2026-05-21T09:34:52.000Z</time>
      </trkpt>
      <trkpt lat="43.77608" lon="3.83597">
        <ele>444.4</ele>
        <time>2026-05-21T09:34:53.000Z</time>
      </trkpt>
      <trkpt lat="43.77608" lon="3.83597">
        <ele>444.4</ele>
        <time>2026-05-21T09:34:54.000Z</time>
      </trkpt>
      <trkpt lat="43.77608" lon="3.83597">
        <ele>444.5</ele>
        <time>2026-05-21T09:34:55.000Z</time>
      </trkpt>
      <trkpt lat="43.77608" lon="3.83597">
        <ele>444.7</ele>
        <time>2026-05-21T09:34:56.000Z</time>
      </trkpt>
      <trkpt lat="43.77608" lon="3.83597">
        <ele>444.8</ele>
        <time>2026-05-21T09:34:57.000Z</time>
      </trkpt>
      <trkpt lat="43.77608" lon="3.83597">
        <ele>444.8</ele>
        <time>2026-05-21T09:34:58.000Z</time>
      </trkpt>
      <trkpt lat="43.77608" lon="3.83597">
        <ele>444.9</ele>
        <time>2026-05-21T09:34:59.000Z</time>
      </trkpt>
      <trkpt lat="43.77608" lon="3.83597">
        <ele>444.7</ele>
        <time>2026-05-21T09:35:00.000Z</time>
      </trkpt>
      <trkpt lat="43.77608" lon="3.83597">
        <ele>444.7</ele>
        <time>2026-05-21T09:35:01.000Z</time>
      </trkpt>
      <trkpt lat="43.77608" lon="3.83597">
        <ele>444.7</ele>
        <time>2026-05-21T09:35:02.000Z</time>
      </trkpt>
      <trkpt lat="43.77608" lon="3.83597">
        <ele>444.9</ele>
        <time>2026-05-21T09:35:03.000Z</time>
      </trkpt>
      <trkpt lat="43.77608" lon="3.83597">
        <ele>445</ele>
        <time>2026-05-21T09:35:04.000Z</time>
      </trkpt>
      <trkpt lat="43.77608" lon="3.83597">
        <ele>445</ele>
        <time>2026-05-21T09:35:05.000Z</time>
      </trkpt>
      <trkpt lat="43.77608" lon="3.83597">
        <ele>445.1</ele>
        <time>2026-05-21T09:35:06.000Z</time>
      </trkpt>
      <trkpt lat="43.77608" lon="3.83597">
        <ele>445.1</ele>
        <time>2026-05-21T09:35:07.000Z</time>
      </trkpt>
      <trkpt lat="43.77608" lon="3.83597">
        <ele>445.3</ele>
        <time>2026-05-21T09:35:08.000Z</time>
      </trkpt>
      <trkpt lat="43.77608" lon="3.83597">
        <ele>445.4</ele>
        <time>2026-05-21T09:35:09.000Z</time>
      </trkpt>
      <trkpt lat="43.77608" lon="3.83597">
        <ele>445.5</ele>
        <time>2026-05-21T09:35:10.000Z</time>
      </trkpt>
      <trkpt lat="43.77608" lon="3.83597">
        <ele>445.5</ele>
        <time>2026-05-21T09:35:11.000Z</time>
      </trkpt>
      <trkpt lat="43.77608" lon="3.83597">
        <ele>445.6</ele>
        <time>2026-05-21T09:35:12.000Z</time>
      </trkpt>
      <trkpt lat="43.77608" lon="3.83597">
        <ele>445.5</ele>
        <time>2026-05-21T09:35:13.000Z</time>
      </trkpt>
      <trkpt lat="43.77608" lon="3.83597">
        <ele>445.4</ele>
        <time>2026-05-21T09:35:14.000Z</time>
      </trkpt>
      <trkpt lat="43.77608" lon="3.83597">
        <ele>445.3</ele>
        <time>2026-05-21T09:35:15.000Z</time>
      </trkpt>
      <trkpt lat="43.77608" lon="3.83597">
        <ele>445.6</ele>
        <time>2026-05-21T09:35:16.000Z</time>
      </trkpt>
      <trkpt lat="43.77608" lon="3.83597">
        <ele>445.9</ele>
        <time>2026-05-21T09:35:17.000Z</time>
      </trkpt>
      <trkpt lat="43.77608" lon="3.83597">
        <ele>446</ele>
        <time>2026-05-21T09:35:18.000Z</time>
      </trkpt>
      <trkpt lat="43.77608" lon="3.83597">
        <ele>445.9</ele>
        <time>2026-05-21T09:35:19.000Z</time>
      </trkpt>
      <trkpt lat="43.77608" lon="3.83597">
        <ele>445.8</ele>
        <time>2026-05-21T09:35:20.000Z</time>
      </trkpt>
      <trkpt lat="43.77608" lon="3.83597">
        <ele>445.6</ele>
        <time>2026-05-21T09:35:21.000Z</time>
      </trkpt>
      <trkpt lat="43.77608" lon="3.83597">
        <ele>445.6</ele>
        <time>2026-05-21T09:35:22.000Z</time>
      </trkpt>
      <trkpt lat="43.77608" lon="3.83597">
        <ele>445.7</ele>
        <time>2026-05-21T09:35:23.000Z</time>
      </trkpt>
      <trkpt lat="43.77608" lon="3.83597">
        <ele>445.7</ele>
        <time>2026-05-21T09:35:24.000Z</time>
      </trkpt>
      <trkpt lat="43.77608" lon="3.83597">
        <ele>445.9</ele>
        <time>2026-05-21T09:35:25.000Z</time>
      </trkpt>
      <trkpt lat="43.77608" lon="3.83597">
        <ele>446</ele>
        <time>2026-05-21T09:35:26.000Z</time>
      </trkpt>
      <trkpt lat="43.77608" lon="3.83597">
        <ele>445.9</ele>
        <time>2026-05-21T09:35:27.000Z</time>
      </trkpt>
      <trkpt lat="43.77608" lon="3.83597">
        <ele>445.7</ele>
        <time>2026-05-21T09:35:28.000Z</time>
      </trkpt>
      <trkpt lat="43.77608" lon="3.83597">
        <ele>445.7</ele>
        <time>2026-05-21T09:35:29.000Z</time>
      </trkpt>
      <trkpt lat="43.77608" lon="3.83597">
        <ele>445.6</ele>
        <time>2026-05-21T09:35:30.000Z</time>
      </trkpt>
      <trkpt lat="43.77608" lon="3.83597">
        <ele>445.7</ele>
        <time>2026-05-21T09:35:31.000Z</time>
      </trkpt>
      <trkpt lat="43.77608" lon="3.83597">
        <ele>445.7</ele>
        <time>2026-05-21T09:35:32.000Z</time>
      </trkpt>
      <trkpt lat="43.77608" lon="3.83597">
        <ele>445.8</ele>
        <time>2026-05-21T09:35:33.000Z</time>
      </trkpt>
      <trkpt lat="43.77608" lon="3.83597">
        <ele>445.9</ele>
        <time>2026-05-21T09:35:34.000Z</time>
      </trkpt>
      <trkpt lat="43.77608" lon="3.83597">
        <ele>445.7</ele>
        <time>2026-05-21T09:35:35.000Z</time>
      </trkpt>
      <trkpt lat="43.77608" lon="3.83597">
        <ele>445.7</ele>
        <time>2026-05-21T09:35:36.000Z</time>
      </trkpt>
      <trkpt lat="43.77608" lon="3.83597">
        <ele>445.6</ele>
        <time>2026-05-21T09:35:37.000Z</time>
      </trkpt>
      <trkpt lat="43.77608" lon="3.83597">
        <ele>445.5</ele>
        <time>2026-05-21T09:35:38.000Z</time>
      </trkpt>
      <trkpt lat="43.77608" lon="3.83597">
        <ele>445.3</ele>
        <time>2026-05-21T09:35:39.000Z</time>
      </trkpt>
      <trkpt lat="43.77608" lon="3.83597">
        <ele>445.2</ele>
        <time>2026-05-21T09:35:40.000Z</time>
      </trkpt>
      <trkpt lat="43.77608" lon="3.83597">
        <ele>444.9</ele>
        <time>2026-05-21T09:35:41.000Z</time>
      </trkpt>
      <trkpt lat="43.77608" lon="3.83597">
        <ele>444.8</ele>
        <time>2026-05-21T09:35:42.000Z</time>
      </trkpt>
      <trkpt lat="43.77608" lon="3.83597">
        <ele>444.7</ele>
        <time>2026-05-21T09:35:43.000Z</time>
      </trkpt>
      <trkpt lat="43.77608" lon="3.83597">
        <ele>444.6</ele>
        <time>2026-05-21T09:35:44.000Z</time>
      </trkpt>
      <trkpt lat="43.77608" lon="3.83597">
        <ele>444.5</ele>
        <time>2026-05-21T09:35:45.000Z</time>
      </trkpt>
      <trkpt lat="43.77608" lon="3.83597">
        <ele>444.3</ele>
        <time>2026-05-21T09:35:46.000Z</time>
      </trkpt>
      <trkpt lat="43.77608" lon="3.83597">
        <ele>444.2</ele>
        <time>2026-05-21T09:35:47.000Z</time>
      </trkpt>
      <trkpt lat="43.77608" lon="3.83597">
        <ele>444</ele>
        <time>2026-05-21T09:35:48.000Z</time>
      </trkpt>
      <trkpt lat="43.77608" lon="3.83597">
        <ele>444.1</ele>
        <time>2026-05-21T09:35:49.000Z</time>
      </trkpt>
      <trkpt lat="43.77608" lon="3.83597">
        <ele>444.3</ele>
        <time>2026-05-21T09:35:50.000Z</time>
      </trkpt>
      <trkpt lat="43.77608" lon="3.83597">
        <ele>444.6</ele>
        <time>2026-05-21T09:35:51.000Z</time>
      </trkpt>
      <trkpt lat="43.77608" lon="3.83597">
        <ele>444.7</ele>
        <time>2026-05-21T09:35:52.000Z</time>
      </trkpt>
      <trkpt lat="43.77608" lon="3.83597">
        <ele>444.7</ele>
        <time>2026-05-21T09:35:53.000Z</time>
      </trkpt>
      <trkpt lat="43.77608" lon="3.83597">
        <ele>444.5</ele>
        <time>2026-05-21T09:35:54.000Z</time>
      </trkpt>
      <trkpt lat="43.77608" lon="3.83597">
        <ele>444.5</ele>
        <time>2026-05-21T09:35:55.000Z</time>
      </trkpt>
      <trkpt lat="43.77608" lon="3.83597">
        <ele>444.5</ele>
        <time>2026-05-21T09:35:56.000Z</time>
      </trkpt>
      <trkpt lat="43.77608" lon="3.83597">
        <ele>444.7</ele>
        <time>2026-05-21T09:35:57.000Z</time>
      </trkpt>
      <trkpt lat="43.77608" lon="3.83597">
        <ele>444.9</ele>
        <time>2026-05-21T09:35:58.000Z</time>
      </trkpt>
      <trkpt lat="43.77608" lon="3.83597">
        <ele>444.7</ele>
        <time>2026-05-21T09:35:59.000Z</time>
      </trkpt>
      <trkpt lat="43.77608" lon="3.83597">
        <ele>444.5</ele>
        <time>2026-05-21T09:36:00.000Z</time>
      </trkpt>
      <trkpt lat="43.77608" lon="3.83597">
        <ele>444.4</ele>
        <time>2026-05-21T09:36:01.000Z</time>
      </trkpt>
      <trkpt lat="43.77608" lon="3.83597">
        <ele>444.2</ele>
        <time>2026-05-21T09:36:02.000Z</time>
      </trkpt>
      <trkpt lat="43.77608" lon="3.83597">
        <ele>444.2</ele>
        <time>2026-05-21T09:36:03.000Z</time>
      </trkpt>
      <trkpt lat="43.77608" lon="3.83597">
        <ele>444.1</ele>
        <time>2026-05-21T09:36:04.000Z</time>
      </trkpt>
      <trkpt lat="43.77608" lon="3.83597">
        <ele>444.1</ele>
        <time>2026-05-21T09:36:05.000Z</time>
      </trkpt>
      <trkpt lat="43.77608" lon="3.83597">
        <ele>444</ele>
        <time>2026-05-21T09:36:06.000Z</time>
      </trkpt>
      <trkpt lat="43.77608" lon="3.83597">
        <ele>444</ele>
        <time>2026-05-21T09:36:07.000Z</time>
      </trkpt>
      <trkpt lat="43.77608" lon="3.83597">
        <ele>444.1</ele>
        <time>2026-05-21T09:36:08.000Z</time>
      </trkpt>
      <trkpt lat="43.77608" lon="3.83597">
        <ele>444.3</ele>
        <time>2026-05-21T09:36:09.000Z</time>
      </trkpt>
      <trkpt lat="43.77608" lon="3.83597">
        <ele>444.5</ele>
        <time>2026-05-21T09:36:10.000Z</time>
      </trkpt>
      <trkpt lat="43.77608" lon="3.83597">
        <ele>444.6</ele>
        <time>2026-05-21T09:36:11.000Z</time>
      </trkpt>
      <trkpt lat="43.77608" lon="3.83597">
        <ele>444.6</ele>
        <time>2026-05-21T09:36:12.000Z</time>
      </trkpt>
      <trkpt lat="43.77608" lon="3.83597">
        <ele>444.7</ele>
        <time>2026-05-21T09:36:13.000Z</time>
      </trkpt>
      <trkpt lat="43.77608" lon="3.83597">
        <ele>444.8</ele>
        <time>2026-05-21T09:36:14.000Z</time>
      </trkpt>
      <trkpt lat="43.77608" lon="3.83597">
        <ele>444.9</ele>
        <time>2026-05-21T09:36:15.000Z</time>
      </trkpt>
      <trkpt lat="43.77608" lon="3.83597">
        <ele>445</ele>
        <time>2026-05-21T09:36:16.000Z</time>
      </trkpt>
      <trkpt lat="43.77608" lon="3.83597">
        <ele>445</ele>
        <time>2026-05-21T09:36:17.000Z</time>
      </trkpt>
      <trkpt lat="43.77608" lon="3.83597">
        <ele>445.1</ele>
        <time>2026-05-21T09:36:18.000Z</time>
      </trkpt>
      <trkpt lat="43.77608" lon="3.83597">
        <ele>445.1</ele>
        <time>2026-05-21T09:36:19.000Z</time>
      </trkpt>
      <trkpt lat="43.77608" lon="3.83597">
        <ele>445</ele>
        <time>2026-05-21T09:36:20.000Z</time>
      </trkpt>
      <trkpt lat="43.77608" lon="3.83597">
        <ele>444.9</ele>
        <time>2026-05-21T09:36:21.000Z</time>
      </trkpt>
      <trkpt lat="43.77608" lon="3.83597">
        <ele>444.9</ele>
        <time>2026-05-21T09:36:22.000Z</time>
      </trkpt>
      <trkpt lat="43.77608" lon="3.83597">
        <ele>444.8</ele>
        <time>2026-05-21T09:36:23.000Z</time>
      </trkpt>
      <trkpt lat="43.77608" lon="3.83597">
        <ele>444.8</ele>
        <time>2026-05-21T09:36:24.000Z</time>
      </trkpt>
      <trkpt lat="43.77608" lon="3.83597">
        <ele>444.8</ele>
        <time>2026-05-21T09:36:25.000Z</time>
      </trkpt>
      <trkpt lat="43.77608" lon="3.83597">
        <ele>444.9</ele>
        <time>2026-05-21T09:36:26.000Z</time>
      </trkpt>
      <trkpt lat="43.77608" lon="3.83597">
        <ele>444.9</ele>
        <time>2026-05-21T09:36:27.000Z</time>
      </trkpt>
      <trkpt lat="43.77608" lon="3.83597">
        <ele>445</ele>
        <time>2026-05-21T09:36:28.000Z</time>
      </trkpt>
      <trkpt lat="43.77608" lon="3.83597">
        <ele>445</ele>
        <time>2026-05-21T09:36:29.000Z</time>
      </trkpt>
      <trkpt lat="43.77608" lon="3.83597">
        <ele>445.1</ele>
        <time>2026-05-21T09:36:30.000Z</time>
      </trkpt>
      <trkpt lat="43.77608" lon="3.83597">
        <ele>445.6</ele>
        <time>2026-05-21T09:36:31.000Z</time>
      </trkpt>
      <trkpt lat="43.77608" lon="3.83597">
        <ele>445.8</ele>
        <time>2026-05-21T09:36:32.000Z</time>
      </trkpt>
      <trkpt lat="43.77608" lon="3.83597">
        <ele>446</ele>
        <time>2026-05-21T09:36:33.000Z</time>
      </trkpt>
      <trkpt lat="43.77608" lon="3.83597">
        <ele>446</ele>
        <time>2026-05-21T09:36:34.000Z</time>
      </trkpt>
      <trkpt lat="43.77608" lon="3.83597">
        <ele>445.9</ele>
        <time>2026-05-21T09:36:35.000Z</time>
      </trkpt>
      <trkpt lat="43.77608" lon="3.83597">
        <ele>445.7</ele>
        <time>2026-05-21T09:36:36.000Z</time>
      </trkpt>
      <trkpt lat="43.77608" lon="3.83597">
        <ele>445.5</ele>
        <time>2026-05-21T09:36:37.000Z</time>
      </trkpt>
      <trkpt lat="43.77608" lon="3.83597">
        <ele>445.4</ele>
        <time>2026-05-21T09:36:38.000Z</time>
      </trkpt>
      <trkpt lat="43.77608" lon="3.83597">
        <ele>445.3</ele>
        <time>2026-05-21T09:36:39.000Z</time>
      </trkpt>
      <trkpt lat="43.77608" lon="3.83597">
        <ele>445.4</ele>
        <time>2026-05-21T09:36:40.000Z</time>
      </trkpt>
      <trkpt lat="43.77608" lon="3.83597">
        <ele>445.4</ele>
        <time>2026-05-21T09:36:41.000Z</time>
      </trkpt>
      <trkpt lat="43.77608" lon="3.83597">
        <ele>445.4</ele>
        <time>2026-05-21T09:36:42.000Z</time>
      </trkpt>
      <trkpt lat="43.77608" lon="3.83597">
        <ele>445.2</ele>
        <time>2026-05-21T09:36:43.000Z</time>
      </trkpt>
      <trkpt lat="43.77608" lon="3.83597">
        <ele>445.2</ele>
        <time>2026-05-21T09:36:44.000Z</time>
      </trkpt>
      <trkpt lat="43.77608" lon="3.83597">
        <ele>445</ele>
        <time>2026-05-21T09:36:45.000Z</time>
      </trkpt>
      <trkpt lat="43.77608" lon="3.83597">
        <ele>444.9</ele>
        <time>2026-05-21T09:36:46.000Z</time>
      </trkpt>
      <trkpt lat="43.77608" lon="3.83597">
        <ele>444.7</ele>
        <time>2026-05-21T09:36:47.000Z</time>
      </trkpt>
      <trkpt lat="43.77608" lon="3.83597">
        <ele>444.5</ele>
        <time>2026-05-21T09:36:48.000Z</time>
      </trkpt>
      <trkpt lat="43.77608" lon="3.83597">
        <ele>444.3</ele>
        <time>2026-05-21T09:36:49.000Z</time>
      </trkpt>
      <trkpt lat="43.77608" lon="3.83597">
        <ele>444.2</ele>
        <time>2026-05-21T09:36:50.000Z</time>
      </trkpt>
      <trkpt lat="43.77608" lon="3.83597">
        <ele>444.1</ele>
        <time>2026-05-21T09:36:51.000Z</time>
      </trkpt>
      <trkpt lat="43.77608" lon="3.83597">
        <ele>444.1</ele>
        <time>2026-05-21T09:36:52.000Z</time>
      </trkpt>
      <trkpt lat="43.77608" lon="3.83598">
        <ele>444.1</ele>
        <time>2026-05-21T09:36:53.000Z</time>
      </trkpt>
      <trkpt lat="43.77608" lon="3.83598">
        <ele>444</ele>
        <time>2026-05-21T09:36:54.000Z</time>
      </trkpt>
      <trkpt lat="43.77608" lon="3.83598">
        <ele>443.9</ele>
        <time>2026-05-21T09:36:55.000Z</time>
      </trkpt>
      <trkpt lat="43.77608" lon="3.83597">
        <ele>443.9</ele>
        <time>2026-05-21T09:36:56.000Z</time>
      </trkpt>
      <trkpt lat="43.77608" lon="3.83597">
        <ele>444</ele>
        <time>2026-05-21T09:36:57.000Z</time>
      </trkpt>
      <trkpt lat="43.77608" lon="3.83597">
        <ele>444</ele>
        <time>2026-05-21T09:36:58.000Z</time>
      </trkpt>
      <trkpt lat="43.77608" lon="3.83597">
        <ele>444</ele>
        <time>2026-05-21T09:36:59.000Z</time>
      </trkpt>
      <trkpt lat="43.77608" lon="3.83597">
        <ele>444</ele>
        <time>2026-05-21T09:37:00.000Z</time>
      </trkpt>
      <trkpt lat="43.77608" lon="3.83597">
        <ele>444</ele>
        <time>2026-05-21T09:37:01.999Z</time>
      </trkpt>
      <trkpt lat="43.77608" lon="3.83597">
        <ele>444.1</ele>
        <time>2026-05-21T09:37:02.999Z</time>
      </trkpt>
      <trkpt lat="43.77608" lon="3.83597">
        <ele>444.1</ele>
        <time>2026-05-21T09:37:03.999Z</time>
      </trkpt>
      <trkpt lat="43.77608" lon="3.83597">
        <ele>444.1</ele>
        <time>2026-05-21T09:37:04.999Z</time>
      </trkpt>
      <trkpt lat="43.77608" lon="3.83597">
        <ele>444.2</ele>
        <time>2026-05-21T09:37:05.999Z</time>
      </trkpt>
      <trkpt lat="43.77608" lon="3.83597">
        <ele>444.1</ele>
        <time>2026-05-21T09:37:06.999Z</time>
      </trkpt>
      <trkpt lat="43.77608" lon="3.83597">
        <ele>444.3</ele>
        <time>2026-05-21T09:37:07.999Z</time>
      </trkpt>
      <trkpt lat="43.77608" lon="3.83597">
        <ele>444.2</ele>
        <time>2026-05-21T09:37:08.999Z</time>
      </trkpt>
      <trkpt lat="43.77608" lon="3.83597">
        <ele>444.2</ele>
        <time>2026-05-21T09:37:09.999Z</time>
      </trkpt>
      <trkpt lat="43.77608" lon="3.83597">
        <ele>444.2</ele>
        <time>2026-05-21T09:37:10.999Z</time>
      </trkpt>
      <trkpt lat="43.77608" lon="3.83597">
        <ele>444.1</ele>
        <time>2026-05-21T09:37:11.999Z</time>
      </trkpt>
      <trkpt lat="43.77608" lon="3.83597">
        <ele>444.2</ele>
        <time>2026-05-21T09:37:12.999Z</time>
      </trkpt>
      <trkpt lat="43.77608" lon="3.83597">
        <ele>444.2</ele>
        <time>2026-05-21T09:37:13.999Z</time>
      </trkpt>
      <trkpt lat="43.77608" lon="3.83597">
        <ele>444.5</ele>
        <time>2026-05-21T09:37:14.999Z</time>
      </trkpt>
      <trkpt lat="43.77608" lon="3.83597">
        <ele>444.6</ele>
        <time>2026-05-21T09:37:15.999Z</time>
      </trkpt>
      <trkpt lat="43.77608" lon="3.83597">
        <ele>444.7</ele>
        <time>2026-05-21T09:37:16.999Z</time>
      </trkpt>
      <trkpt lat="43.77608" lon="3.83597">
        <ele>444.7</ele>
        <time>2026-05-21T09:37:17.999Z</time>
      </trkpt>
      <trkpt lat="43.77608" lon="3.83597">
        <ele>444.6</ele>
        <time>2026-05-21T09:37:18.999Z</time>
      </trkpt>
      <trkpt lat="43.77608" lon="3.83597">
        <ele>444.7</ele>
        <time>2026-05-21T09:37:19.999Z</time>
      </trkpt>
      <trkpt lat="43.77608" lon="3.83597">
        <ele>444.7</ele>
        <time>2026-05-21T09:37:20.999Z</time>
      </trkpt>
      <trkpt lat="43.77608" lon="3.83597">
        <ele>444.8</ele>
        <time>2026-05-21T09:37:21.999Z</time>
      </trkpt>
      <trkpt lat="43.77608" lon="3.83597">
        <ele>444.7</ele>
        <time>2026-05-21T09:37:22.999Z</time>
      </trkpt>
      <trkpt lat="43.77608" lon="3.83597">
        <ele>444.6</ele>
        <time>2026-05-21T09:37:23.999Z</time>
      </trkpt>
      <trkpt lat="43.77608" lon="3.83597">
        <ele>444.7</ele>
        <time>2026-05-21T09:37:24.999Z</time>
      </trkpt>
      <trkpt lat="43.77608" lon="3.83597">
        <ele>444.7</ele>
        <time>2026-05-21T09:37:25.999Z</time>
      </trkpt>
      <trkpt lat="43.77608" lon="3.83597">
        <ele>444.7</ele>
        <time>2026-05-21T09:37:26.999Z</time>
      </trkpt>
      <trkpt lat="43.77608" lon="3.83597">
        <ele>444.9</ele>
        <time>2026-05-21T09:37:27.999Z</time>
      </trkpt>
      <trkpt lat="43.77608" lon="3.83597">
        <ele>445</ele>
        <time>2026-05-21T09:37:28.999Z</time>
      </trkpt>
      <trkpt lat="43.77608" lon="3.83597">
        <ele>444.9</ele>
        <time>2026-05-21T09:37:29.999Z</time>
      </trkpt>
      <trkpt lat="43.77608" lon="3.83597">
        <ele>445</ele>
        <time>2026-05-21T09:37:30.999Z</time>
      </trkpt>
      <trkpt lat="43.77608" lon="3.83597">
        <ele>445.1</ele>
        <time>2026-05-21T09:37:31.999Z</time>
      </trkpt>
      <trkpt lat="43.77608" lon="3.83597">
        <ele>445.2</ele>
        <time>2026-05-21T09:37:32.999Z</time>
      </trkpt>
      <trkpt lat="43.77608" lon="3.83597">
        <ele>445.2</ele>
        <time>2026-05-21T09:37:33.999Z</time>
      </trkpt>
      <trkpt lat="43.77608" lon="3.83597">
        <ele>445.2</ele>
        <time>2026-05-21T09:37:34.999Z</time>
      </trkpt>
      <trkpt lat="43.77608" lon="3.83597">
        <ele>445.3</ele>
        <time>2026-05-21T09:37:35.999Z</time>
      </trkpt>
      <trkpt lat="43.77608" lon="3.83597">
        <ele>445.4</ele>
        <time>2026-05-21T09:37:36.999Z</time>
      </trkpt>
      <trkpt lat="43.77608" lon="3.83597">
        <ele>445.5</ele>
        <time>2026-05-21T09:37:37.999Z</time>
      </trkpt>
      <trkpt lat="43.77608" lon="3.83597">
        <ele>445.3</ele>
        <time>2026-05-21T09:37:38.999Z</time>
      </trkpt>
      <trkpt lat="43.77608" lon="3.83598">
        <ele>445</ele>
        <time>2026-05-21T09:37:39.999Z</time>
      </trkpt>
      <trkpt lat="43.77608" lon="3.83598">
        <ele>444.8</ele>
        <time>2026-05-21T09:37:40.999Z</time>
      </trkpt>
      <trkpt lat="43.77608" lon="3.83598">
        <ele>444.7</ele>
        <time>2026-05-21T09:37:41.999Z</time>
      </trkpt>
      <trkpt lat="43.77608" lon="3.83597">
        <ele>444.6</ele>
        <time>2026-05-21T09:37:42.999Z</time>
      </trkpt>
      <trkpt lat="43.77608" lon="3.83597">
        <ele>444.5</ele>
        <time>2026-05-21T09:37:43.999Z</time>
      </trkpt>
      <trkpt lat="43.77608" lon="3.83597">
        <ele>444.3</ele>
        <time>2026-05-21T09:37:44.999Z</time>
      </trkpt>
      <trkpt lat="43.77608" lon="3.83597">
        <ele>444.3</ele>
        <time>2026-05-21T09:37:45.999Z</time>
      </trkpt>
      <trkpt lat="43.77608" lon="3.83597">
        <ele>444.5</ele>
        <time>2026-05-21T09:37:46.999Z</time>
      </trkpt>
      <trkpt lat="43.77608" lon="3.83597">
        <ele>444.7</ele>
        <time>2026-05-21T09:37:47.999Z</time>
      </trkpt>
      <trkpt lat="43.77608" lon="3.83597">
        <ele>444.9</ele>
        <time>2026-05-21T09:37:48.999Z</time>
      </trkpt>
      <trkpt lat="43.77608" lon="3.83597">
        <ele>444.8</ele>
        <time>2026-05-21T09:37:49.999Z</time>
      </trkpt>
      <trkpt lat="43.77608" lon="3.83597">
        <ele>444.8</ele>
        <time>2026-05-21T09:37:50.999Z</time>
      </trkpt>
      <trkpt lat="43.77608" lon="3.83597">
        <ele>444.9</ele>
        <time>2026-05-21T09:37:51.999Z</time>
      </trkpt>
      <trkpt lat="43.77608" lon="3.83597">
        <ele>444.8</ele>
        <time>2026-05-21T09:37:52.999Z</time>
      </trkpt>
      <trkpt lat="43.77608" lon="3.83597">
        <ele>444.8</ele>
        <time>2026-05-21T09:37:53.999Z</time>
      </trkpt>
      <trkpt lat="43.77608" lon="3.83597">
        <ele>444.8</ele>
        <time>2026-05-21T09:37:54.999Z</time>
      </trkpt>
      <trkpt lat="43.77608" lon="3.83597">
        <ele>444.7</ele>
        <time>2026-05-21T09:37:55.999Z</time>
      </trkpt>
      <trkpt lat="43.77608" lon="3.83597">
        <ele>444.7</ele>
        <time>2026-05-21T09:37:56.999Z</time>
      </trkpt>
      <trkpt lat="43.77608" lon="3.83597">
        <ele>444.7</ele>
        <time>2026-05-21T09:37:57.999Z</time>
      </trkpt>
      <trkpt lat="43.77608" lon="3.83597">
        <ele>444.4</ele>
        <time>2026-05-21T09:37:58.999Z</time>
      </trkpt>
      <trkpt lat="43.77608" lon="3.83597">
        <ele>444.3</ele>
        <time>2026-05-21T09:37:59.999Z</time>
      </trkpt>
      <trkpt lat="43.77608" lon="3.83597">
        <ele>444.2</ele>
        <time>2026-05-21T09:38:00.999Z</time>
      </trkpt>
      <trkpt lat="43.77608" lon="3.83597">
        <ele>444.3</ele>
        <time>2026-05-21T09:38:01.999Z</time>
      </trkpt>
      <trkpt lat="43.77608" lon="3.83597">
        <ele>444.3</ele>
        <time>2026-05-21T09:38:02.999Z</time>
      </trkpt>
      <trkpt lat="43.77608" lon="3.83597">
        <ele>444.3</ele>
        <time>2026-05-21T09:38:03.999Z</time>
      </trkpt>
      <trkpt lat="43.77608" lon="3.83597">
        <ele>444.4</ele>
        <time>2026-05-21T09:38:04.999Z</time>
      </trkpt>
      <trkpt lat="43.77608" lon="3.83597">
        <ele>444.3</ele>
        <time>2026-05-21T09:38:05.999Z</time>
      </trkpt>
      <trkpt lat="43.77608" lon="3.83597">
        <ele>444.4</ele>
        <time>2026-05-21T09:38:06.999Z</time>
      </trkpt>
      <trkpt lat="43.77608" lon="3.83597">
        <ele>444.4</ele>
        <time>2026-05-21T09:38:07.999Z</time>
      </trkpt>
      <trkpt lat="43.77608" lon="3.83597">
        <ele>444.4</ele>
        <time>2026-05-21T09:38:08.999Z</time>
      </trkpt>
      <trkpt lat="43.77608" lon="3.83597">
        <ele>444.4</ele>
        <time>2026-05-21T09:38:09.999Z</time>
      </trkpt>
      <trkpt lat="43.77608" lon="3.83597">
        <ele>444.1</ele>
        <time>2026-05-21T09:38:10.999Z</time>
      </trkpt>
      <trkpt lat="43.77608" lon="3.83597">
        <ele>443.9</ele>
        <time>2026-05-21T09:38:11.999Z</time>
      </trkpt>
      <trkpt lat="43.77608" lon="3.83597">
        <ele>443.7</ele>
        <time>2026-05-21T09:38:12.999Z</time>
      </trkpt>
      <trkpt lat="43.77608" lon="3.83597">
        <ele>443.5</ele>
        <time>2026-05-21T09:38:13.999Z</time>
      </trkpt>
      <trkpt lat="43.77608" lon="3.83597">
        <ele>443.4</ele>
        <time>2026-05-21T09:38:14.999Z</time>
      </trkpt>
      <trkpt lat="43.77608" lon="3.83597">
        <ele>443.3</ele>
        <time>2026-05-21T09:38:15.999Z</time>
      </trkpt>
      <trkpt lat="43.77608" lon="3.83597">
        <ele>443.3</ele>
        <time>2026-05-21T09:38:16.999Z</time>
      </trkpt>
      <trkpt lat="43.77608" lon="3.83597">
        <ele>443.3</ele>
        <time>2026-05-21T09:38:17.999Z</time>
      </trkpt>
      <trkpt lat="43.77608" lon="3.83597">
        <ele>443.5</ele>
        <time>2026-05-21T09:38:18.999Z</time>
      </trkpt>
      <trkpt lat="43.77608" lon="3.83597">
        <ele>443.3</ele>
        <time>2026-05-21T09:38:19.999Z</time>
      </trkpt>
      <trkpt lat="43.77608" lon="3.83597">
        <ele>443.3</ele>
        <time>2026-05-21T09:38:20.999Z</time>
      </trkpt>
      <trkpt lat="43.77608" lon="3.83597">
        <ele>443.7</ele>
        <time>2026-05-21T09:38:21.999Z</time>
      </trkpt>
      <trkpt lat="43.77608" lon="3.83597">
        <ele>444</ele>
        <time>2026-05-21T09:38:22.999Z</time>
      </trkpt>
      <trkpt lat="43.77608" lon="3.83597">
        <ele>443.7</ele>
        <time>2026-05-21T09:38:23.999Z</time>
      </trkpt>
      <trkpt lat="43.77608" lon="3.83597">
        <ele>444</ele>
        <time>2026-05-21T09:38:24.999Z</time>
      </trkpt>
      <trkpt lat="43.77608" lon="3.83597">
        <ele>444.2</ele>
        <time>2026-05-21T09:38:25.999Z</time>
      </trkpt>
      <trkpt lat="43.77608" lon="3.83597">
        <ele>444.3</ele>
        <time>2026-05-21T09:38:26.999Z</time>
      </trkpt>
      <trkpt lat="43.77608" lon="3.83597">
        <ele>444.3</ele>
        <time>2026-05-21T09:38:27.999Z</time>
      </trkpt>
      <trkpt lat="43.77608" lon="3.83597">
        <ele>444.3</ele>
        <time>2026-05-21T09:38:28.999Z</time>
      </trkpt>
      <trkpt lat="43.77608" lon="3.83597">
        <ele>444.2</ele>
        <time>2026-05-21T09:38:29.999Z</time>
      </trkpt>
      <trkpt lat="43.77608" lon="3.83597">
        <ele>444.5</ele>
        <time>2026-05-21T09:38:30.999Z</time>
      </trkpt>
      <trkpt lat="43.77608" lon="3.83597">
        <ele>444.7</ele>
        <time>2026-05-21T09:38:31.999Z</time>
      </trkpt>
      <trkpt lat="43.77608" lon="3.83597">
        <ele>445</ele>
        <time>2026-05-21T09:38:32.999Z</time>
      </trkpt>
      <trkpt lat="43.77608" lon="3.83597">
        <ele>445</ele>
        <time>2026-05-21T09:38:33.999Z</time>
      </trkpt>
      <trkpt lat="43.77608" lon="3.83598">
        <ele>445</ele>
        <time>2026-05-21T09:38:34.999Z</time>
      </trkpt>
      <trkpt lat="43.77608" lon="3.83598">
        <ele>445.2</ele>
        <time>2026-05-21T09:38:35.999Z</time>
      </trkpt>
      <trkpt lat="43.77608" lon="3.83598">
        <ele>445.2</ele>
        <time>2026-05-21T09:38:36.999Z</time>
      </trkpt>
      <trkpt lat="43.77608" lon="3.83598">
        <ele>445</ele>
        <time>2026-05-21T09:38:37.999Z</time>
      </trkpt>
      <trkpt lat="43.77608" lon="3.83598">
        <ele>444.9</ele>
        <time>2026-05-21T09:38:38.999Z</time>
      </trkpt>
      <trkpt lat="43.77608" lon="3.83598">
        <ele>444.7</ele>
        <time>2026-05-21T09:38:39.999Z</time>
      </trkpt>
      <trkpt lat="43.77608" lon="3.83598">
        <ele>444.8</ele>
        <time>2026-05-21T09:38:40.999Z</time>
      </trkpt>
      <trkpt lat="43.77608" lon="3.83598">
        <ele>444.7</ele>
        <time>2026-05-21T09:38:41.999Z</time>
      </trkpt>
      <trkpt lat="43.77608" lon="3.83598">
        <ele>444.8</ele>
        <time>2026-05-21T09:38:42.999Z</time>
      </trkpt>
      <trkpt lat="43.77608" lon="3.83598">
        <ele>444.9</ele>
        <time>2026-05-21T09:38:43.999Z</time>
      </trkpt>
      <trkpt lat="43.77608" lon="3.83598">
        <ele>444.7</ele>
        <time>2026-05-21T09:38:44.999Z</time>
      </trkpt>
      <trkpt lat="43.77608" lon="3.83598">
        <ele>444.5</ele>
        <time>2026-05-21T09:38:45.999Z</time>
      </trkpt>
      <trkpt lat="43.77608" lon="3.83598">
        <ele>444.5</ele>
        <time>2026-05-21T09:38:46.999Z</time>
      </trkpt>
      <trkpt lat="43.77608" lon="3.83598">
        <ele>444.6</ele>
        <time>2026-05-21T09:38:47.999Z</time>
      </trkpt>
      <trkpt lat="43.77608" lon="3.83598">
        <ele>444.7</ele>
        <time>2026-05-21T09:38:48.999Z</time>
      </trkpt>
      <trkpt lat="43.77608" lon="3.83598">
        <ele>444.7</ele>
        <time>2026-05-21T09:38:49.999Z</time>
      </trkpt>
      <trkpt lat="43.77608" lon="3.83598">
        <ele>444.6</ele>
        <time>2026-05-21T09:38:50.999Z</time>
      </trkpt>
      <trkpt lat="43.77608" lon="3.83598">
        <ele>444.6</ele>
        <time>2026-05-21T09:38:51.999Z</time>
      </trkpt>
      <trkpt lat="43.77608" lon="3.83598">
        <ele>444.5</ele>
        <time>2026-05-21T09:38:52.999Z</time>
      </trkpt>
      <trkpt lat="43.77608" lon="3.83598">
        <ele>444.3</ele>
        <time>2026-05-21T09:38:53.999Z</time>
      </trkpt>
      <trkpt lat="43.77608" lon="3.83598">
        <ele>444.1</ele>
        <time>2026-05-21T09:38:54.999Z</time>
      </trkpt>
      <trkpt lat="43.77608" lon="3.83598">
        <ele>444</ele>
        <time>2026-05-21T09:38:55.999Z</time>
      </trkpt>
      <trkpt lat="43.77608" lon="3.83598">
        <ele>443.9</ele>
        <time>2026-05-21T09:38:56.999Z</time>
      </trkpt>
      <trkpt lat="43.77608" lon="3.83598">
        <ele>443.7</ele>
        <time>2026-05-21T09:38:57.999Z</time>
      </trkpt>
      <trkpt lat="43.77608" lon="3.83598">
        <ele>443.9</ele>
        <time>2026-05-21T09:38:58.999Z</time>
      </trkpt>
      <trkpt lat="43.77608" lon="3.83598">
        <ele>444.1</ele>
        <time>2026-05-21T09:38:59.999Z</time>
      </trkpt>
      <trkpt lat="43.77608" lon="3.83598">
        <ele>444.4</ele>
        <time>2026-05-21T09:39:00.999Z</time>
      </trkpt>
      <trkpt lat="43.77608" lon="3.83598">
        <ele>444.4</ele>
        <time>2026-05-21T09:39:01.999Z</time>
      </trkpt>
      <trkpt lat="43.77608" lon="3.83598">
        <ele>444.3</ele>
        <time>2026-05-21T09:39:02.999Z</time>
      </trkpt>
      <trkpt lat="43.77608" lon="3.83598">
        <ele>444.3</ele>
        <time>2026-05-21T09:39:03.999Z</time>
      </trkpt>
      <trkpt lat="43.77608" lon="3.83598">
        <ele>444.2</ele>
        <time>2026-05-21T09:39:04.999Z</time>
      </trkpt>
      <trkpt lat="43.77608" lon="3.83598">
        <ele>444.2</ele>
        <time>2026-05-21T09:39:05.999Z</time>
      </trkpt>
      <trkpt lat="43.77608" lon="3.83598">
        <ele>444.2</ele>
        <time>2026-05-21T09:39:06.999Z</time>
      </trkpt>
      <trkpt lat="43.77608" lon="3.83598">
        <ele>444</ele>
        <time>2026-05-21T09:39:07.999Z</time>
      </trkpt>
      <trkpt lat="43.77608" lon="3.83598">
        <ele>443.9</ele>
        <time>2026-05-21T09:39:08.999Z</time>
      </trkpt>
      <trkpt lat="43.77608" lon="3.83598">
        <ele>443.7</ele>
        <time>2026-05-21T09:39:09.999Z</time>
      </trkpt>
      <trkpt lat="43.77608" lon="3.83598">
        <ele>443.5</ele>
        <time>2026-05-21T09:39:10.999Z</time>
      </trkpt>
      <trkpt lat="43.77608" lon="3.83598">
        <ele>443.4</ele>
        <time>2026-05-21T09:39:11.999Z</time>
      </trkpt>
      <trkpt lat="43.77608" lon="3.83598">
        <ele>443.3</ele>
        <time>2026-05-21T09:39:12.999Z</time>
      </trkpt>
      <trkpt lat="43.77608" lon="3.83598">
        <ele>443.3</ele>
        <time>2026-05-21T09:39:13.999Z</time>
      </trkpt>
      <trkpt lat="43.77608" lon="3.83598">
        <ele>443.2</ele>
        <time>2026-05-21T09:39:14.999Z</time>
      </trkpt>
      <trkpt lat="43.77608" lon="3.83598">
        <ele>443.4</ele>
        <time>2026-05-21T09:39:15.999Z</time>
      </trkpt>
      <trkpt lat="43.77608" lon="3.83598">
        <ele>443.3</ele>
        <time>2026-05-21T09:39:16.999Z</time>
      </trkpt>
      <trkpt lat="43.77608" lon="3.83597">
        <ele>443.3</ele>
        <time>2026-05-21T09:39:17.999Z</time>
      </trkpt>
      <trkpt lat="43.77608" lon="3.83597">
        <ele>443</ele>
        <time>2026-05-21T09:39:18.999Z</time>
      </trkpt>
      <trkpt lat="43.77608" lon="3.83597">
        <ele>443.2</ele>
        <time>2026-05-21T09:39:19.999Z</time>
      </trkpt>
      <trkpt lat="43.77608" lon="3.83597">
        <ele>443.3</ele>
        <time>2026-05-21T09:39:20.999Z</time>
      </trkpt>
      <trkpt lat="43.77608" lon="3.83597">
        <ele>443.4</ele>
        <time>2026-05-21T09:39:21.999Z</time>
      </trkpt>
      <trkpt lat="43.77608" lon="3.83597">
        <ele>443.3</ele>
        <time>2026-05-21T09:39:22.999Z</time>
      </trkpt>
      <trkpt lat="43.77608" lon="3.83597">
        <ele>443.5</ele>
        <time>2026-05-21T09:39:23.999Z</time>
      </trkpt>
      <trkpt lat="43.77608" lon="3.83597">
        <ele>443.7</ele>
        <time>2026-05-21T09:39:24.999Z</time>
      </trkpt>
      <trkpt lat="43.77608" lon="3.83597">
        <ele>443.9</ele>
        <time>2026-05-21T09:39:25.999Z</time>
      </trkpt>
      <trkpt lat="43.77608" lon="3.83597">
        <ele>444</ele>
        <time>2026-05-21T09:39:26.999Z</time>
      </trkpt>
      <trkpt lat="43.77608" lon="3.83597">
        <ele>444.2</ele>
        <time>2026-05-21T09:39:27.999Z</time>
      </trkpt>
      <trkpt lat="43.77608" lon="3.83597">
        <ele>444.4</ele>
        <time>2026-05-21T09:39:28.999Z</time>
      </trkpt>
      <trkpt lat="43.77608" lon="3.83597">
        <ele>444.4</ele>
        <time>2026-05-21T09:39:29.999Z</time>
      </trkpt>
      <trkpt lat="43.77608" lon="3.83597">
        <ele>444.3</ele>
        <time>2026-05-21T09:39:30.999Z</time>
      </trkpt>
      <trkpt lat="43.77608" lon="3.83597">
        <ele>444.2</ele>
        <time>2026-05-21T09:39:31.999Z</time>
      </trkpt>
      <trkpt lat="43.77608" lon="3.83597">
        <ele>444.3</ele>
        <time>2026-05-21T09:39:32.999Z</time>
      </trkpt>
      <trkpt lat="43.77608" lon="3.83597">
        <ele>444.5</ele>
        <time>2026-05-21T09:39:33.999Z</time>
      </trkpt>
      <trkpt lat="43.77608" lon="3.83597">
        <ele>444.4</ele>
        <time>2026-05-21T09:39:34.999Z</time>
      </trkpt>
      <trkpt lat="43.77608" lon="3.83597">
        <ele>444.4</ele>
        <time>2026-05-21T09:39:35.999Z</time>
      </trkpt>
      <trkpt lat="43.77608" lon="3.83597">
        <ele>444.2</ele>
        <time>2026-05-21T09:39:36.999Z</time>
      </trkpt>
      <trkpt lat="43.77608" lon="3.83597">
        <ele>444.1</ele>
        <time>2026-05-21T09:39:37.999Z</time>
      </trkpt>
      <trkpt lat="43.77608" lon="3.83597">
        <ele>444</ele>
        <time>2026-05-21T09:39:38.999Z</time>
      </trkpt>
      <trkpt lat="43.77608" lon="3.83597">
        <ele>444</ele>
        <time>2026-05-21T09:39:39.999Z</time>
      </trkpt>
      <trkpt lat="43.77608" lon="3.83597">
        <ele>443.9</ele>
        <time>2026-05-21T09:39:40.999Z</time>
      </trkpt>
      <trkpt lat="43.77608" lon="3.83597">
        <ele>444</ele>
        <time>2026-05-21T09:39:41.999Z</time>
      </trkpt>
      <trkpt lat="43.77608" lon="3.83597">
        <ele>444.1</ele>
        <time>2026-05-21T09:39:42.999Z</time>
      </trkpt>
      <trkpt lat="43.77608" lon="3.83597">
        <ele>444.2</ele>
        <time>2026-05-21T09:39:43.999Z</time>
      </trkpt>
      <trkpt lat="43.77608" lon="3.83597">
        <ele>444.4</ele>
        <time>2026-05-21T09:39:45.999Z</time>
      </trkpt>
      <trkpt lat="43.77608" lon="3.83597">
        <ele>444.5</ele>
        <time>2026-05-21T09:39:46.999Z</time>
      </trkpt>
      <trkpt lat="43.77608" lon="3.83597">
        <ele>444.5</ele>
        <time>2026-05-21T09:39:47.999Z</time>
      </trkpt>
      <trkpt lat="43.77608" lon="3.83597">
        <ele>444.4</ele>
        <time>2026-05-21T09:39:48.999Z</time>
      </trkpt>
      <trkpt lat="43.77608" lon="3.83597">
        <ele>444.4</ele>
        <time>2026-05-21T09:39:49.999Z</time>
      </trkpt>
      <trkpt lat="43.77608" lon="3.83597">
        <ele>444.4</ele>
        <time>2026-05-21T09:39:50.999Z</time>
      </trkpt>
      <trkpt lat="43.77608" lon="3.83597">
        <ele>444.3</ele>
        <time>2026-05-21T09:39:51.999Z</time>
      </trkpt>
      <trkpt lat="43.77608" lon="3.83597">
        <ele>444.5</ele>
        <time>2026-05-21T09:39:52.999Z</time>
      </trkpt>
      <trkpt lat="43.77608" lon="3.83597">
        <ele>444.6</ele>
        <time>2026-05-21T09:39:53.999Z</time>
      </trkpt>
      <trkpt lat="43.77608" lon="3.83597">
        <ele>444.5</ele>
        <time>2026-05-21T09:39:54.999Z</time>
      </trkpt>
      <trkpt lat="43.77608" lon="3.83597">
        <ele>444.4</ele>
        <time>2026-05-21T09:39:55.999Z</time>
      </trkpt>
      <trkpt lat="43.77608" lon="3.83597">
        <ele>444.1</ele>
        <time>2026-05-21T09:39:56.999Z</time>
      </trkpt>
      <trkpt lat="43.77608" lon="3.83597">
        <ele>444</ele>
        <time>2026-05-21T09:39:57.999Z</time>
      </trkpt>
      <trkpt lat="43.77608" lon="3.83597">
        <ele>444.1</ele>
        <time>2026-05-21T09:39:58.999Z</time>
      </trkpt>
      <trkpt lat="43.77608" lon="3.83597">
        <ele>444.3</ele>
        <time>2026-05-21T09:39:59.999Z</time>
      </trkpt>
      <trkpt lat="43.77608" lon="3.83597">
        <ele>444.4</ele>
        <time>2026-05-21T09:40:00.999Z</time>
      </trkpt>
      <trkpt lat="43.77608" lon="3.83597">
        <ele>444.4</ele>
        <time>2026-05-21T09:40:01.999Z</time>
      </trkpt>
      <trkpt lat="43.77608" lon="3.83597">
        <ele>444.4</ele>
        <time>2026-05-21T09:40:02.999Z</time>
      </trkpt>
      <trkpt lat="43.77608" lon="3.83597">
        <ele>444.2</ele>
        <time>2026-05-21T09:40:03.999Z</time>
      </trkpt>
      <trkpt lat="43.77608" lon="3.83597">
        <ele>444.2</ele>
        <time>2026-05-21T09:40:04.999Z</time>
      </trkpt>
      <trkpt lat="43.77608" lon="3.83597">
        <ele>444</ele>
        <time>2026-05-21T09:40:05.999Z</time>
      </trkpt>
      <trkpt lat="43.77608" lon="3.83597">
        <ele>443.8</ele>
        <time>2026-05-21T09:40:06.999Z</time>
      </trkpt>
      <trkpt lat="43.77608" lon="3.83597">
        <ele>443.9</ele>
        <time>2026-05-21T09:40:07.999Z</time>
      </trkpt>
      <trkpt lat="43.77608" lon="3.83597">
        <ele>443.8</ele>
        <time>2026-05-21T09:40:08.999Z</time>
      </trkpt>
      <trkpt lat="43.77608" lon="3.83597">
        <ele>443.8</ele>
        <time>2026-05-21T09:40:09.999Z</time>
      </trkpt>
      <trkpt lat="43.77608" lon="3.83597">
        <ele>443.9</ele>
        <time>2026-05-21T09:40:10.999Z</time>
      </trkpt>
      <trkpt lat="43.77608" lon="3.83597">
        <ele>444</ele>
        <time>2026-05-21T09:40:11.999Z</time>
      </trkpt>
      <trkpt lat="43.77608" lon="3.83597">
        <ele>444.3</ele>
        <time>2026-05-21T09:40:12.999Z</time>
      </trkpt>
      <trkpt lat="43.77608" lon="3.83597">
        <ele>444.5</ele>
        <time>2026-05-21T09:40:13.999Z</time>
      </trkpt>
      <trkpt lat="43.77608" lon="3.83597">
        <ele>444.8</ele>
        <time>2026-05-21T09:40:14.999Z</time>
      </trkpt>
      <trkpt lat="43.77608" lon="3.83597">
        <ele>445.2</ele>
        <time>2026-05-21T09:40:15.999Z</time>
      </trkpt>
      <trkpt lat="43.77608" lon="3.83597">
        <ele>445.3</ele>
        <time>2026-05-21T09:40:16.999Z</time>
      </trkpt>
      <trkpt lat="43.77608" lon="3.83597">
        <ele>445.2</ele>
        <time>2026-05-21T09:40:17.999Z</time>
      </trkpt>
      <trkpt lat="43.77608" lon="3.83597">
        <ele>445.2</ele>
        <time>2026-05-21T09:40:18.999Z</time>
      </trkpt>
      <trkpt lat="43.77608" lon="3.83597">
        <ele>445.2</ele>
        <time>2026-05-21T09:40:19.999Z</time>
      </trkpt>
      <trkpt lat="43.77608" lon="3.83597">
        <ele>445.1</ele>
        <time>2026-05-21T09:40:20.999Z</time>
      </trkpt>
      <trkpt lat="43.77608" lon="3.83597">
        <ele>445.1</ele>
        <time>2026-05-21T09:40:21.999Z</time>
      </trkpt>
      <trkpt lat="43.77608" lon="3.83597">
        <ele>445.2</ele>
        <time>2026-05-21T09:40:22.999Z</time>
      </trkpt>
      <trkpt lat="43.77608" lon="3.83597">
        <ele>445.1</ele>
        <time>2026-05-21T09:40:23.999Z</time>
      </trkpt>
      <trkpt lat="43.77608" lon="3.83597">
        <ele>445.2</ele>
        <time>2026-05-21T09:40:24.999Z</time>
      </trkpt>
      <trkpt lat="43.77608" lon="3.83597">
        <ele>445.2</ele>
        <time>2026-05-21T09:40:25.999Z</time>
      </trkpt>
      <trkpt lat="43.77608" lon="3.83597">
        <ele>445.1</ele>
        <time>2026-05-21T09:40:26.999Z</time>
      </trkpt>
      <trkpt lat="43.77608" lon="3.83597">
        <ele>445.2</ele>
        <time>2026-05-21T09:40:27.999Z</time>
      </trkpt>
      <trkpt lat="43.77608" lon="3.83597">
        <ele>445.2</ele>
        <time>2026-05-21T09:40:28.999Z</time>
      </trkpt>
      <trkpt lat="43.77608" lon="3.83597">
        <ele>445.3</ele>
        <time>2026-05-21T09:40:29.999Z</time>
      </trkpt>
      <trkpt lat="43.77608" lon="3.83597">
        <ele>445.4</ele>
        <time>2026-05-21T09:40:30.999Z</time>
      </trkpt>
      <trkpt lat="43.77608" lon="3.83597">
        <ele>445.5</ele>
        <time>2026-05-21T09:40:31.999Z</time>
      </trkpt>
      <trkpt lat="43.77608" lon="3.83597">
        <ele>445.6</ele>
        <time>2026-05-21T09:40:32.999Z</time>
      </trkpt>
      <trkpt lat="43.77608" lon="3.83597">
        <ele>445.7</ele>
        <time>2026-05-21T09:40:33.999Z</time>
      </trkpt>
      <trkpt lat="43.77608" lon="3.83597">
        <ele>445.9</ele>
        <time>2026-05-21T09:40:34.999Z</time>
      </trkpt>
      <trkpt lat="43.77608" lon="3.83597">
        <ele>445.8</ele>
        <time>2026-05-21T09:40:35.999Z</time>
      </trkpt>
      <trkpt lat="43.77608" lon="3.83597">
        <ele>446</ele>
        <time>2026-05-21T09:40:36.999Z</time>
      </trkpt>
      <trkpt lat="43.77608" lon="3.83597">
        <ele>446.1</ele>
        <time>2026-05-21T09:40:37.999Z</time>
      </trkpt>
      <trkpt lat="43.77608" lon="3.83597">
        <ele>446</ele>
        <time>2026-05-21T09:40:38.999Z</time>
      </trkpt>
      <trkpt lat="43.77608" lon="3.83597">
        <ele>445.9</ele>
        <time>2026-05-21T09:40:39.999Z</time>
      </trkpt>
      <trkpt lat="43.77608" lon="3.83597">
        <ele>445.8</ele>
        <time>2026-05-21T09:40:40.999Z</time>
      </trkpt>
      <trkpt lat="43.77608" lon="3.83597">
        <ele>445.7</ele>
        <time>2026-05-21T09:40:41.999Z</time>
      </trkpt>
      <trkpt lat="43.77608" lon="3.83597">
        <ele>445.8</ele>
        <time>2026-05-21T09:40:42.999Z</time>
      </trkpt>
      <trkpt lat="43.77608" lon="3.83597">
        <ele>445.8</ele>
        <time>2026-05-21T09:40:43.999Z</time>
      </trkpt>
      <trkpt lat="43.77608" lon="3.83597">
        <ele>446</ele>
        <time>2026-05-21T09:40:44.999Z</time>
      </trkpt>
      <trkpt lat="43.77608" lon="3.83597">
        <ele>446</ele>
        <time>2026-05-21T09:40:45.999Z</time>
      </trkpt>
      <trkpt lat="43.77608" lon="3.83597">
        <ele>446.1</ele>
        <time>2026-05-21T09:40:46.999Z</time>
      </trkpt>
      <trkpt lat="43.77608" lon="3.83597">
        <ele>446.1</ele>
        <time>2026-05-21T09:40:47.999Z</time>
      </trkpt>
      <trkpt lat="43.77608" lon="3.83597">
        <ele>446</ele>
        <time>2026-05-21T09:40:48.999Z</time>
      </trkpt>
      <trkpt lat="43.77608" lon="3.83597">
        <ele>445.8</ele>
        <time>2026-05-21T09:40:49.999Z</time>
      </trkpt>
      <trkpt lat="43.77608" lon="3.83597">
        <ele>445.6</ele>
        <time>2026-05-21T09:40:50.999Z</time>
      </trkpt>
      <trkpt lat="43.77608" lon="3.83597">
        <ele>445.4</ele>
        <time>2026-05-21T09:40:51.999Z</time>
      </trkpt>
      <trkpt lat="43.77608" lon="3.83597">
        <ele>445.3</ele>
        <time>2026-05-21T09:40:52.999Z</time>
      </trkpt>
      <trkpt lat="43.77608" lon="3.83597">
        <ele>445.3</ele>
        <time>2026-05-21T09:40:53.999Z</time>
      </trkpt>
      <trkpt lat="43.77608" lon="3.83597">
        <ele>445.3</ele>
        <time>2026-05-21T09:40:54.999Z</time>
      </trkpt>
      <trkpt lat="43.77608" lon="3.83597">
        <ele>445.3</ele>
        <time>2026-05-21T09:40:55.999Z</time>
      </trkpt>
      <trkpt lat="43.77608" lon="3.83597">
        <ele>445.4</ele>
        <time>2026-05-21T09:40:56.999Z</time>
      </trkpt>
      <trkpt lat="43.77608" lon="3.83597">
        <ele>445.6</ele>
        <time>2026-05-21T09:40:57.999Z</time>
      </trkpt>
      <trkpt lat="43.77608" lon="3.83597">
        <ele>445.5</ele>
        <time>2026-05-21T09:40:58.999Z</time>
      </trkpt>
      <trkpt lat="43.77608" lon="3.83597">
        <ele>445.5</ele>
        <time>2026-05-21T09:40:59.999Z</time>
      </trkpt>
      <trkpt lat="43.77608" lon="3.83597">
        <ele>445.5</ele>
        <time>2026-05-21T09:41:00.999Z</time>
      </trkpt>
      <trkpt lat="43.77608" lon="3.83597">
        <ele>445.5</ele>
        <time>2026-05-21T09:41:01.999Z</time>
      </trkpt>
      <trkpt lat="43.77608" lon="3.83597">
        <ele>445.3</ele>
        <time>2026-05-21T09:41:02.999Z</time>
      </trkpt>
      <trkpt lat="43.77608" lon="3.83597">
        <ele>445.1</ele>
        <time>2026-05-21T09:41:03.999Z</time>
      </trkpt>
      <trkpt lat="43.77608" lon="3.83597">
        <ele>445.1</ele>
        <time>2026-05-21T09:41:04.999Z</time>
      </trkpt>
      <trkpt lat="43.77608" lon="3.83597">
        <ele>445.2</ele>
        <time>2026-05-21T09:41:05.999Z</time>
      </trkpt>
      <trkpt lat="43.77608" lon="3.83597">
        <ele>445.2</ele>
        <time>2026-05-21T09:41:06.999Z</time>
      </trkpt>
      <trkpt lat="43.77608" lon="3.83597">
        <ele>445.1</ele>
        <time>2026-05-21T09:41:07.999Z</time>
      </trkpt>
      <trkpt lat="43.77608" lon="3.83597">
        <ele>445.1</ele>
        <time>2026-05-21T09:41:08.999Z</time>
      </trkpt>
      <trkpt lat="43.77608" lon="3.83597">
        <ele>444.7</ele>
        <time>2026-05-21T09:41:09.999Z</time>
      </trkpt>
      <trkpt lat="43.77608" lon="3.83597">
        <ele>444.6</ele>
        <time>2026-05-21T09:41:10.999Z</time>
      </trkpt>
      <trkpt lat="43.77608" lon="3.83597">
        <ele>444.5</ele>
        <time>2026-05-21T09:41:11.999Z</time>
      </trkpt>
      <trkpt lat="43.77608" lon="3.83597">
        <ele>444.3</ele>
        <time>2026-05-21T09:41:12.999Z</time>
      </trkpt>
      <trkpt lat="43.77608" lon="3.83597">
        <ele>444.2</ele>
        <time>2026-05-21T09:41:13.999Z</time>
      </trkpt>
      <trkpt lat="43.77608" lon="3.83597">
        <ele>444.3</ele>
        <time>2026-05-21T09:41:14.999Z</time>
      </trkpt>
      <trkpt lat="43.77608" lon="3.83597">
        <ele>444.6</ele>
        <time>2026-05-21T09:41:15.999Z</time>
      </trkpt>
      <trkpt lat="43.77608" lon="3.83597">
        <ele>444.7</ele>
        <time>2026-05-21T09:41:16.999Z</time>
      </trkpt>
      <trkpt lat="43.77608" lon="3.83597">
        <ele>444.8</ele>
        <time>2026-05-21T09:41:17.999Z</time>
      </trkpt>
      <trkpt lat="43.77608" lon="3.83597">
        <ele>445</ele>
        <time>2026-05-21T09:41:18.999Z</time>
      </trkpt>
      <trkpt lat="43.77608" lon="3.83597">
        <ele>445.1</ele>
        <time>2026-05-21T09:41:19.999Z</time>
      </trkpt>
      <trkpt lat="43.77608" lon="3.83597">
        <ele>445</ele>
        <time>2026-05-21T09:41:20.999Z</time>
      </trkpt>
      <trkpt lat="43.77608" lon="3.83597">
        <ele>444.9</ele>
        <time>2026-05-21T09:41:21.999Z</time>
      </trkpt>
      <trkpt lat="43.77608" lon="3.83597">
        <ele>444.9</ele>
        <time>2026-05-21T09:41:22.999Z</time>
      </trkpt>
      <trkpt lat="43.77608" lon="3.83597">
        <ele>444.9</ele>
        <time>2026-05-21T09:41:23.999Z</time>
      </trkpt>
      <trkpt lat="43.77608" lon="3.83597">
        <ele>444.8</ele>
        <time>2026-05-21T09:41:24.999Z</time>
      </trkpt>
      <trkpt lat="43.77608" lon="3.83597">
        <ele>444.6</ele>
        <time>2026-05-21T09:41:25.999Z</time>
      </trkpt>
      <trkpt lat="43.77608" lon="3.83597">
        <ele>444.2</ele>
        <time>2026-05-21T09:41:26.999Z</time>
      </trkpt>
      <trkpt lat="43.77608" lon="3.83597">
        <ele>444</ele>
        <time>2026-05-21T09:41:27.999Z</time>
      </trkpt>
      <trkpt lat="43.77608" lon="3.83597">
        <ele>444</ele>
        <time>2026-05-21T09:41:28.999Z</time>
      </trkpt>
      <trkpt lat="43.77608" lon="3.83597">
        <ele>444</ele>
        <time>2026-05-21T09:41:29.999Z</time>
      </trkpt>
      <trkpt lat="43.77608" lon="3.83597">
        <ele>444.1</ele>
        <time>2026-05-21T09:41:30.999Z</time>
      </trkpt>
      <trkpt lat="43.77608" lon="3.83597">
        <ele>444.2</ele>
        <time>2026-05-21T09:41:31.999Z</time>
      </trkpt>
      <trkpt lat="43.77608" lon="3.83597">
        <ele>444.3</ele>
        <time>2026-05-21T09:41:32.999Z</time>
      </trkpt>
      <trkpt lat="43.77608" lon="3.83597">
        <ele>444.3</ele>
        <time>2026-05-21T09:41:33.999Z</time>
      </trkpt>
      <trkpt lat="43.77608" lon="3.83597">
        <ele>444.1</ele>
        <time>2026-05-21T09:41:34.999Z</time>
      </trkpt>
      <trkpt lat="43.77608" lon="3.83597">
        <ele>443.8</ele>
        <time>2026-05-21T09:41:35.999Z</time>
      </trkpt>
      <trkpt lat="43.77608" lon="3.83597">
        <ele>443.6</ele>
        <time>2026-05-21T09:41:36.999Z</time>
      </trkpt>
      <trkpt lat="43.77608" lon="3.83597">
        <ele>443.5</ele>
        <time>2026-05-21T09:41:37.999Z</time>
      </trkpt>
      <trkpt lat="43.77608" lon="3.83597">
        <ele>443.6</ele>
        <time>2026-05-21T09:41:38.999Z</time>
      </trkpt>
      <trkpt lat="43.77608" lon="3.83597">
        <ele>443.6</ele>
        <time>2026-05-21T09:41:39.999Z</time>
      </trkpt>
      <trkpt lat="43.77608" lon="3.83597">
        <ele>443.6</ele>
        <time>2026-05-21T09:41:40.999Z</time>
      </trkpt>
      <trkpt lat="43.77608" lon="3.83597">
        <ele>443.4</ele>
        <time>2026-05-21T09:41:41.999Z</time>
      </trkpt>
      <trkpt lat="43.77608" lon="3.83597">
        <ele>443.3</ele>
        <time>2026-05-21T09:41:42.999Z</time>
      </trkpt>
      <trkpt lat="43.77608" lon="3.83597">
        <ele>443.4</ele>
        <time>2026-05-21T09:41:43.999Z</time>
      </trkpt>
      <trkpt lat="43.77608" lon="3.83597">
        <ele>443.2</ele>
        <time>2026-05-21T09:41:44.999Z</time>
      </trkpt>
      <trkpt lat="43.77608" lon="3.83597">
        <ele>443.1</ele>
        <time>2026-05-21T09:41:45.999Z</time>
      </trkpt>
      <trkpt lat="43.77608" lon="3.83597">
        <ele>443.1</ele>
        <time>2026-05-21T09:41:46.999Z</time>
      </trkpt>
      <trkpt lat="43.77608" lon="3.83597">
        <ele>443.2</ele>
        <time>2026-05-21T09:41:47.999Z</time>
      </trkpt>
      <trkpt lat="43.77608" lon="3.83597">
        <ele>443.2</ele>
        <time>2026-05-21T09:41:48.999Z</time>
      </trkpt>
      <trkpt lat="43.77609" lon="3.83597">
        <ele>443.1</ele>
        <time>2026-05-21T09:41:49.999Z</time>
      </trkpt>
      <trkpt lat="43.77609" lon="3.83597">
        <ele>443.2</ele>
        <time>2026-05-21T09:41:50.999Z</time>
      </trkpt>
      <trkpt lat="43.77609" lon="3.83597">
        <ele>443.2</ele>
        <time>2026-05-21T09:41:51.999Z</time>
      </trkpt>
      <trkpt lat="43.77609" lon="3.83597">
        <ele>443.1</ele>
        <time>2026-05-21T09:41:52.999Z</time>
      </trkpt>
      <trkpt lat="43.77609" lon="3.83597">
        <ele>443.1</ele>
        <time>2026-05-21T09:41:53.999Z</time>
      </trkpt>
      <trkpt lat="43.77609" lon="3.83597">
        <ele>443.3</ele>
        <time>2026-05-21T09:41:54.999Z</time>
      </trkpt>
      <trkpt lat="43.77609" lon="3.83597">
        <ele>443.4</ele>
        <time>2026-05-21T09:41:55.999Z</time>
      </trkpt>
      <trkpt lat="43.77609" lon="3.83597">
        <ele>443.5</ele>
        <time>2026-05-21T09:41:56.999Z</time>
      </trkpt>
      <trkpt lat="43.77609" lon="3.83597">
        <ele>443.7</ele>
        <time>2026-05-21T09:41:57.999Z</time>
      </trkpt>
      <trkpt lat="43.77609" lon="3.83597">
        <ele>443.7</ele>
        <time>2026-05-21T09:41:58.999Z</time>
      </trkpt>
      <trkpt lat="43.77609" lon="3.83597">
        <ele>443.8</ele>
        <time>2026-05-21T09:41:59.999Z</time>
      </trkpt>
      <trkpt lat="43.77609" lon="3.83597">
        <ele>443.9</ele>
        <time>2026-05-21T09:42:00.999Z</time>
      </trkpt>
      <trkpt lat="43.77609" lon="3.83597">
        <ele>443.9</ele>
        <time>2026-05-21T09:42:01.999Z</time>
      </trkpt>
      <trkpt lat="43.77609" lon="3.83597">
        <ele>443.8</ele>
        <time>2026-05-21T09:42:02.999Z</time>
      </trkpt>
      <trkpt lat="43.77609" lon="3.83597">
        <ele>444</ele>
        <time>2026-05-21T09:42:03.999Z</time>
      </trkpt>
      <trkpt lat="43.77609" lon="3.83597">
        <ele>444.1</ele>
        <time>2026-05-21T09:42:04.999Z</time>
      </trkpt>
      <trkpt lat="43.77609" lon="3.83597">
        <ele>444.2</ele>
        <time>2026-05-21T09:42:05.999Z</time>
      </trkpt>
      <trkpt lat="43.77609" lon="3.83597">
        <ele>444</ele>
        <time>2026-05-21T09:42:06.999Z</time>
      </trkpt>
      <trkpt lat="43.77609" lon="3.83597">
        <ele>444</ele>
        <time>2026-05-21T09:42:07.999Z</time>
      </trkpt>
      <trkpt lat="43.77609" lon="3.83597">
        <ele>444</ele>
        <time>2026-05-21T09:42:08.999Z</time>
      </trkpt>
      <trkpt lat="43.77609" lon="3.83597">
        <ele>444.1</ele>
        <time>2026-05-21T09:42:09.999Z</time>
      </trkpt>
      <trkpt lat="43.77609" lon="3.83597">
        <ele>444.1</ele>
        <time>2026-05-21T09:42:10.999Z</time>
      </trkpt>
      <trkpt lat="43.77609" lon="3.83597">
        <ele>444.2</ele>
        <time>2026-05-21T09:42:11.999Z</time>
      </trkpt>
      <trkpt lat="43.77609" lon="3.83597">
        <ele>444.3</ele>
        <time>2026-05-21T09:42:12.999Z</time>
      </trkpt>
      <trkpt lat="43.77609" lon="3.83597">
        <ele>444.1</ele>
        <time>2026-05-21T09:42:13.999Z</time>
      </trkpt>
      <trkpt lat="43.77609" lon="3.83597">
        <ele>444</ele>
        <time>2026-05-21T09:42:14.999Z</time>
      </trkpt>
      <trkpt lat="43.77609" lon="3.83597">
        <ele>443.9</ele>
        <time>2026-05-21T09:42:15.999Z</time>
      </trkpt>
      <trkpt lat="43.77609" lon="3.83597">
        <ele>444</ele>
        <time>2026-05-21T09:42:16.999Z</time>
      </trkpt>
      <trkpt lat="43.77609" lon="3.83597">
        <ele>444</ele>
        <time>2026-05-21T09:42:17.999Z</time>
      </trkpt>
      <trkpt lat="43.77609" lon="3.83597">
        <ele>444</ele>
        <time>2026-05-21T09:42:18.999Z</time>
      </trkpt>
      <trkpt lat="43.77609" lon="3.83597">
        <ele>444.1</ele>
        <time>2026-05-21T09:42:19.999Z</time>
      </trkpt>
      <trkpt lat="43.77609" lon="3.83597">
        <ele>444.3</ele>
        <time>2026-05-21T09:42:20.999Z</time>
      </trkpt>
      <trkpt lat="43.77609" lon="3.83597">
        <ele>444.6</ele>
        <time>2026-05-21T09:42:21.999Z</time>
      </trkpt>
      <trkpt lat="43.77609" lon="3.83597">
        <ele>444.4</ele>
        <time>2026-05-21T09:42:22.999Z</time>
      </trkpt>
      <trkpt lat="43.77609" lon="3.83597">
        <ele>444.3</ele>
        <time>2026-05-21T09:42:23.999Z</time>
      </trkpt>
      <trkpt lat="43.77609" lon="3.83597">
        <ele>444.4</ele>
        <time>2026-05-21T09:42:24.999Z</time>
      </trkpt>
      <trkpt lat="43.77609" lon="3.83597">
        <ele>444.4</ele>
        <time>2026-05-21T09:42:25.999Z</time>
      </trkpt>
      <trkpt lat="43.77609" lon="3.83597">
        <ele>444.6</ele>
        <time>2026-05-21T09:42:26.999Z</time>
      </trkpt>
      <trkpt lat="43.77609" lon="3.83597">
        <ele>444.6</ele>
        <time>2026-05-21T09:42:27.999Z</time>
      </trkpt>
      <trkpt lat="43.77609" lon="3.83597">
        <ele>444.9</ele>
        <time>2026-05-21T09:42:28.999Z</time>
      </trkpt>
      <trkpt lat="43.77609" lon="3.83597">
        <ele>445.1</ele>
        <time>2026-05-21T09:42:29.999Z</time>
      </trkpt>
      <trkpt lat="43.77609" lon="3.83597">
        <ele>445.3</ele>
        <time>2026-05-21T09:42:30.999Z</time>
      </trkpt>
      <trkpt lat="43.77609" lon="3.83597">
        <ele>445.5</ele>
        <time>2026-05-21T09:42:31.999Z</time>
      </trkpt>
      <trkpt lat="43.77609" lon="3.83597">
        <ele>445.7</ele>
        <time>2026-05-21T09:42:32.999Z</time>
      </trkpt>
      <trkpt lat="43.77609" lon="3.83597">
        <ele>445.8</ele>
        <time>2026-05-21T09:42:33.999Z</time>
      </trkpt>
      <trkpt lat="43.77609" lon="3.83597">
        <ele>446</ele>
        <time>2026-05-21T09:42:34.999Z</time>
      </trkpt>
      <trkpt lat="43.77609" lon="3.83597">
        <ele>446</ele>
        <time>2026-05-21T09:42:35.999Z</time>
      </trkpt>
      <trkpt lat="43.77609" lon="3.83597">
        <ele>446.1</ele>
        <time>2026-05-21T09:42:36.999Z</time>
      </trkpt>
      <trkpt lat="43.77609" lon="3.83597">
        <ele>446</ele>
        <time>2026-05-21T09:42:37.999Z</time>
      </trkpt>
      <trkpt lat="43.77609" lon="3.83597">
        <ele>446</ele>
        <time>2026-05-21T09:42:38.999Z</time>
      </trkpt>
      <trkpt lat="43.77609" lon="3.83597">
        <ele>445.8</ele>
        <time>2026-05-21T09:42:39.999Z</time>
      </trkpt>
      <trkpt lat="43.77609" lon="3.83597">
        <ele>445.7</ele>
        <time>2026-05-21T09:42:40.999Z</time>
      </trkpt>
      <trkpt lat="43.77609" lon="3.83597">
        <ele>445.7</ele>
        <time>2026-05-21T09:42:41.999Z</time>
      </trkpt>
      <trkpt lat="43.77609" lon="3.83597">
        <ele>445.7</ele>
        <time>2026-05-21T09:42:42.999Z</time>
      </trkpt>
      <trkpt lat="43.77609" lon="3.83597">
        <ele>445.6</ele>
        <time>2026-05-21T09:42:43.999Z</time>
      </trkpt>
      <trkpt lat="43.77609" lon="3.83597">
        <ele>445.7</ele>
        <time>2026-05-21T09:42:44.999Z</time>
      </trkpt>
      <trkpt lat="43.77609" lon="3.83597">
        <ele>445.7</ele>
        <time>2026-05-21T09:42:45.999Z</time>
      </trkpt>
      <trkpt lat="43.77609" lon="3.83597">
        <ele>445.9</ele>
        <time>2026-05-21T09:42:46.999Z</time>
      </trkpt>
      <trkpt lat="43.77609" lon="3.83597">
        <ele>446.1</ele>
        <time>2026-05-21T09:42:47.999Z</time>
      </trkpt>
      <trkpt lat="43.77609" lon="3.83597">
        <ele>445.9</ele>
        <time>2026-05-21T09:42:48.999Z</time>
      </trkpt>
      <trkpt lat="43.77609" lon="3.83597">
        <ele>445.8</ele>
        <time>2026-05-21T09:42:49.999Z</time>
      </trkpt>
      <trkpt lat="43.77609" lon="3.83597">
        <ele>445.8</ele>
        <time>2026-05-21T09:42:50.999Z</time>
      </trkpt>
      <trkpt lat="43.77609" lon="3.83597">
        <ele>445.6</ele>
        <time>2026-05-21T09:42:51.999Z</time>
      </trkpt>
      <trkpt lat="43.77609" lon="3.83597">
        <ele>445.4</ele>
        <time>2026-05-21T09:42:52.999Z</time>
      </trkpt>
      <trkpt lat="43.77609" lon="3.83596">
        <ele>445.3</ele>
        <time>2026-05-21T09:42:53.999Z</time>
      </trkpt>
      <trkpt lat="43.77609" lon="3.83596">
        <ele>445.2</ele>
        <time>2026-05-21T09:42:54.999Z</time>
      </trkpt>
      <trkpt lat="43.77609" lon="3.83596">
        <ele>445.1</ele>
        <time>2026-05-21T09:42:55.999Z</time>
      </trkpt>
      <trkpt lat="43.77609" lon="3.83596">
        <ele>445.1</ele>
        <time>2026-05-21T09:42:56.999Z</time>
      </trkpt>
      <trkpt lat="43.77609" lon="3.83596">
        <ele>445</ele>
        <time>2026-05-21T09:42:57.999Z</time>
      </trkpt>
      <trkpt lat="43.77609" lon="3.83596">
        <ele>444.8</ele>
        <time>2026-05-21T09:42:58.999Z</time>
      </trkpt>
      <trkpt lat="43.77609" lon="3.83596">
        <ele>444.5</ele>
        <time>2026-05-21T09:42:59.999Z</time>
      </trkpt>
      <trkpt lat="43.77609" lon="3.83596">
        <ele>444.4</ele>
        <time>2026-05-21T09:43:00.999Z</time>
      </trkpt>
      <trkpt lat="43.77609" lon="3.83595">
        <ele>444.4</ele>
        <time>2026-05-21T09:43:01.999Z</time>
      </trkpt>
      <trkpt lat="43.77609" lon="3.83595">
        <ele>444.4</ele>
        <time>2026-05-21T09:43:02.999Z</time>
      </trkpt>
      <trkpt lat="43.77609" lon="3.83595">
        <ele>444.4</ele>
        <time>2026-05-21T09:43:03.999Z</time>
      </trkpt>
      <trkpt lat="43.77609" lon="3.83595">
        <ele>444.4</ele>
        <time>2026-05-21T09:43:04.999Z</time>
      </trkpt>
      <trkpt lat="43.77609" lon="3.83596">
        <ele>444.4</ele>
        <time>2026-05-21T09:43:05.999Z</time>
      </trkpt>
      <trkpt lat="43.77609" lon="3.83596">
        <ele>444.4</ele>
        <time>2026-05-21T09:43:06.999Z</time>
      </trkpt>
      <trkpt lat="43.77609" lon="3.83596">
        <ele>444.3</ele>
        <time>2026-05-21T09:43:07.999Z</time>
      </trkpt>
      <trkpt lat="43.77609" lon="3.83595">
        <ele>444.5</ele>
        <time>2026-05-21T09:43:08.999Z</time>
      </trkpt>
      <trkpt lat="43.77609" lon="3.83595">
        <ele>444.5</ele>
        <time>2026-05-21T09:43:09.999Z</time>
      </trkpt>
      <trkpt lat="43.77609" lon="3.83595">
        <ele>444.5</ele>
        <time>2026-05-21T09:43:10.999Z</time>
      </trkpt>
      <trkpt lat="43.77609" lon="3.83595">
        <ele>444.4</ele>
        <time>2026-05-21T09:43:11.999Z</time>
      </trkpt>
      <trkpt lat="43.77609" lon="3.83595">
        <ele>444.3</ele>
        <time>2026-05-21T09:43:12.999Z</time>
      </trkpt>
      <trkpt lat="43.77609" lon="3.83595">
        <ele>444.1</ele>
        <time>2026-05-21T09:43:13.999Z</time>
      </trkpt>
      <trkpt lat="43.7761" lon="3.83594">
        <ele>443.7</ele>
        <time>2026-05-21T09:43:14.999Z</time>
      </trkpt>
      <trkpt lat="43.7761" lon="3.83594">
        <ele>443.6</ele>
        <time>2026-05-21T09:43:15.999Z</time>
      </trkpt>
      <trkpt lat="43.7761" lon="3.83594">
        <ele>443.7</ele>
        <time>2026-05-21T09:43:16.999Z</time>
      </trkpt>
      <trkpt lat="43.7761" lon="3.83594">
        <ele>443.6</ele>
        <time>2026-05-21T09:43:17.999Z</time>
      </trkpt>
      <trkpt lat="43.7761" lon="3.83593">
        <ele>443.6</ele>
        <time>2026-05-21T09:43:18.999Z</time>
      </trkpt>
      <trkpt lat="43.7761" lon="3.83593">
        <ele>443.5</ele>
        <time>2026-05-21T09:43:19.999Z</time>
      </trkpt>
      <trkpt lat="43.7761" lon="3.83593">
        <ele>443.3</ele>
        <time>2026-05-21T09:43:20.999Z</time>
      </trkpt>
      <trkpt lat="43.7761" lon="3.83593">
        <ele>443.3</ele>
        <time>2026-05-21T09:43:21.999Z</time>
      </trkpt>
      <trkpt lat="43.7761" lon="3.83593">
        <ele>443.4</ele>
        <time>2026-05-21T09:43:22.999Z</time>
      </trkpt>
      <trkpt lat="43.7761" lon="3.83592">
        <ele>443.4</ele>
        <time>2026-05-21T09:43:23.999Z</time>
      </trkpt>
      <trkpt lat="43.7761" lon="3.83592">
        <ele>443.2</ele>
        <time>2026-05-21T09:43:24.999Z</time>
      </trkpt>
      <trkpt lat="43.7761" lon="3.83592">
        <ele>443.2</ele>
        <time>2026-05-21T09:43:25.999Z</time>
      </trkpt>
      <trkpt lat="43.7761" lon="3.83592">
        <ele>443.2</ele>
        <time>2026-05-21T09:43:26.999Z</time>
      </trkpt>
      <trkpt lat="43.7761" lon="3.83592">
        <ele>443.2</ele>
        <time>2026-05-21T09:43:27.999Z</time>
      </trkpt>
      <trkpt lat="43.7761" lon="3.83591">
        <ele>443</ele>
        <time>2026-05-21T09:43:28.999Z</time>
      </trkpt>
      <trkpt lat="43.7761" lon="3.8359">
        <ele>443.1</ele>
        <time>2026-05-21T09:43:29.999Z</time>
      </trkpt>
      <trkpt lat="43.77609" lon="3.83588">
        <ele>443.2</ele>
        <time>2026-05-21T09:43:30.999Z</time>
      </trkpt>
      <trkpt lat="43.77609" lon="3.83587">
        <ele>443.4</ele>
        <time>2026-05-21T09:43:31.999Z</time>
      </trkpt>
      <trkpt lat="43.77609" lon="3.83586">
        <ele>443.5</ele>
        <time>2026-05-21T09:43:32.999Z</time>
      </trkpt>
      <trkpt lat="43.77609" lon="3.83586">
        <ele>443.7</ele>
        <time>2026-05-21T09:43:33.999Z</time>
      </trkpt>
      <trkpt lat="43.77609" lon="3.83586">
        <ele>444.1</ele>
        <time>2026-05-21T09:43:34.999Z</time>
      </trkpt>
      <trkpt lat="43.77609" lon="3.83586">
        <ele>444.3</ele>
        <time>2026-05-21T09:43:35.999Z</time>
      </trkpt>
      <trkpt lat="43.77609" lon="3.83586">
        <ele>444.4</ele>
        <time>2026-05-21T09:43:36.999Z</time>
      </trkpt>
      <trkpt lat="43.77609" lon="3.83586">
        <ele>444.6</ele>
        <time>2026-05-21T09:43:37.999Z</time>
      </trkpt>
      <trkpt lat="43.77609" lon="3.83586">
        <ele>445.1</ele>
        <time>2026-05-21T09:43:38.999Z</time>
      </trkpt>
      <trkpt lat="43.77609" lon="3.83586">
        <ele>445.5</ele>
        <time>2026-05-21T09:43:39.999Z</time>
      </trkpt>
      <trkpt lat="43.77609" lon="3.83586">
        <ele>445.6</ele>
        <time>2026-05-21T09:43:40.999Z</time>
      </trkpt>
      <trkpt lat="43.77609" lon="3.83585">
        <ele>445.8</ele>
        <time>2026-05-21T09:43:41.999Z</time>
      </trkpt>
      <trkpt lat="43.77609" lon="3.83585">
        <ele>445.9</ele>
        <time>2026-05-21T09:43:42.999Z</time>
      </trkpt>
      <trkpt lat="43.77609" lon="3.83585">
        <ele>445.8</ele>
        <time>2026-05-21T09:43:43.999Z</time>
      </trkpt>
      <trkpt lat="43.77609" lon="3.83585">
        <ele>445.6</ele>
        <time>2026-05-21T09:43:44.999Z</time>
      </trkpt>
      <trkpt lat="43.77609" lon="3.83585">
        <ele>445.4</ele>
        <time>2026-05-21T09:43:45.999Z</time>
      </trkpt>
      <trkpt lat="43.77609" lon="3.83585">
        <ele>445.1</ele>
        <time>2026-05-21T09:43:46.999Z</time>
      </trkpt>
      <trkpt lat="43.77609" lon="3.83584">
        <ele>444.9</ele>
        <time>2026-05-21T09:43:47.999Z</time>
      </trkpt>
      <trkpt lat="43.77609" lon="3.83584">
        <ele>444.7</ele>
        <time>2026-05-21T09:43:48.999Z</time>
      </trkpt>
      <trkpt lat="43.77609" lon="3.83584">
        <ele>444.6</ele>
        <time>2026-05-21T09:43:49.999Z</time>
      </trkpt>
      <trkpt lat="43.77609" lon="3.83584">
        <ele>444.5</ele>
        <time>2026-05-21T09:43:50.999Z</time>
      </trkpt>
      <trkpt lat="43.77609" lon="3.83584">
        <ele>444.5</ele>
        <time>2026-05-21T09:43:51.999Z</time>
      </trkpt>
      <trkpt lat="43.77609" lon="3.83584">
        <ele>444.5</ele>
        <time>2026-05-21T09:43:52.999Z</time>
      </trkpt>
      <trkpt lat="43.77609" lon="3.83584">
        <ele>444.5</ele>
        <time>2026-05-21T09:43:53.999Z</time>
      </trkpt>
      <trkpt lat="43.77609" lon="3.83583">
        <ele>444.5</ele>
        <time>2026-05-21T09:43:54.999Z</time>
      </trkpt>
      <trkpt lat="43.77609" lon="3.83583">
        <ele>444.5</ele>
        <time>2026-05-21T09:43:55.999Z</time>
      </trkpt>
      <trkpt lat="43.77609" lon="3.83583">
        <ele>444.5</ele>
        <time>2026-05-21T09:43:56.999Z</time>
      </trkpt>
      <trkpt lat="43.7761" lon="3.83583">
        <ele>444.6</ele>
        <time>2026-05-21T09:43:57.999Z</time>
      </trkpt>
      <trkpt lat="43.7761" lon="3.83582">
        <ele>444.9</ele>
        <time>2026-05-21T09:43:58.999Z</time>
      </trkpt>
      <trkpt lat="43.7761" lon="3.83582">
        <ele>445.3</ele>
        <time>2026-05-21T09:43:59.999Z</time>
      </trkpt>
      <trkpt lat="43.7761" lon="3.83582">
        <ele>445.7</ele>
        <time>2026-05-21T09:44:00.999Z</time>
      </trkpt>
      <trkpt lat="43.7761" lon="3.83582">
        <ele>445.8</ele>
        <time>2026-05-21T09:44:01.999Z</time>
      </trkpt>
      <trkpt lat="43.7761" lon="3.83582">
        <ele>445.8</ele>
        <time>2026-05-21T09:44:02.999Z</time>
      </trkpt>
      <trkpt lat="43.7761" lon="3.83582">
        <ele>445.8</ele>
        <time>2026-05-21T09:44:03.999Z</time>
      </trkpt>
      <trkpt lat="43.7761" lon="3.83581">
        <ele>445.8</ele>
        <time>2026-05-21T09:44:04.999Z</time>
      </trkpt>
      <trkpt lat="43.7761" lon="3.83581">
        <ele>445.8</ele>
        <time>2026-05-21T09:44:05.999Z</time>
      </trkpt>
      <trkpt lat="43.7761" lon="3.83581">
        <ele>445.9</ele>
        <time>2026-05-21T09:44:06.999Z</time>
      </trkpt>
      <trkpt lat="43.7761" lon="3.83581">
        <ele>446</ele>
        <time>2026-05-21T09:44:07.999Z</time>
      </trkpt>
      <trkpt lat="43.7761" lon="3.83581">
        <ele>445.9</ele>
        <time>2026-05-21T09:44:08.999Z</time>
      </trkpt>
      <trkpt lat="43.7761" lon="3.8358">
        <ele>445.6</ele>
        <time>2026-05-21T09:44:09.999Z</time>
      </trkpt>
      <trkpt lat="43.7761" lon="3.8358">
        <ele>445.6</ele>
        <time>2026-05-21T09:44:10.999Z</time>
      </trkpt>
      <trkpt lat="43.7761" lon="3.8358">
        <ele>445.8</ele>
        <time>2026-05-21T09:44:11.999Z</time>
      </trkpt>
      <trkpt lat="43.7761" lon="3.8358">
        <ele>446.1</ele>
        <time>2026-05-21T09:44:12.999Z</time>
      </trkpt>
      <trkpt lat="43.7761" lon="3.8358">
        <ele>446</ele>
        <time>2026-05-21T09:44:13.999Z</time>
      </trkpt>
      <trkpt lat="43.7761" lon="3.8358">
        <ele>445.7</ele>
        <time>2026-05-21T09:44:14.999Z</time>
      </trkpt>
      <trkpt lat="43.7761" lon="3.83579">
        <ele>445.5</ele>
        <time>2026-05-21T09:44:15.999Z</time>
      </trkpt>
      <trkpt lat="43.7761" lon="3.83579">
        <ele>445.3</ele>
        <time>2026-05-21T09:44:16.999Z</time>
      </trkpt>
      <trkpt lat="43.7761" lon="3.83579">
        <ele>445.3</ele>
        <time>2026-05-21T09:44:17.999Z</time>
      </trkpt>
      <trkpt lat="43.7761" lon="3.83579">
        <ele>445.5</ele>
        <time>2026-05-21T09:44:18.999Z</time>
      </trkpt>
      <trkpt lat="43.7761" lon="3.83579">
        <ele>445.6</ele>
        <time>2026-05-21T09:44:19.999Z</time>
      </trkpt>
      <trkpt lat="43.7761" lon="3.83579">
        <ele>445.9</ele>
        <time>2026-05-21T09:44:20.999Z</time>
      </trkpt>
      <trkpt lat="43.7761" lon="3.83579">
        <ele>446.1</ele>
        <time>2026-05-21T09:44:21.999Z</time>
      </trkpt>
      <trkpt lat="43.7761" lon="3.83579">
        <ele>446.2</ele>
        <time>2026-05-21T09:44:22.999Z</time>
      </trkpt>
      <trkpt lat="43.7761" lon="3.83579">
        <ele>446.2</ele>
        <time>2026-05-21T09:44:23.999Z</time>
      </trkpt>
      <trkpt lat="43.7761" lon="3.83579">
        <ele>446.1</ele>
        <time>2026-05-21T09:44:24.999Z</time>
      </trkpt>
      <trkpt lat="43.7761" lon="3.83579">
        <ele>446.2</ele>
        <time>2026-05-21T09:44:25.999Z</time>
      </trkpt>
      <trkpt lat="43.7761" lon="3.83579">
        <ele>446.2</ele>
        <time>2026-05-21T09:44:26.999Z</time>
      </trkpt>
      <trkpt lat="43.7761" lon="3.83579">
        <ele>446.4</ele>
        <time>2026-05-21T09:44:27.999Z</time>
      </trkpt>
      <trkpt lat="43.7761" lon="3.83579">
        <ele>446.3</ele>
        <time>2026-05-21T09:44:28.999Z</time>
      </trkpt>
      <trkpt lat="43.7761" lon="3.83578">
        <ele>446.1</ele>
        <time>2026-05-21T09:44:29.999Z</time>
      </trkpt>
      <trkpt lat="43.7761" lon="3.83578">
        <ele>446</ele>
        <time>2026-05-21T09:44:30.999Z</time>
      </trkpt>
      <trkpt lat="43.7761" lon="3.83578">
        <ele>446</ele>
        <time>2026-05-21T09:44:31.999Z</time>
      </trkpt>
      <trkpt lat="43.7761" lon="3.83578">
        <ele>446</ele>
        <time>2026-05-21T09:44:32.999Z</time>
      </trkpt>
      <trkpt lat="43.7761" lon="3.83578">
        <ele>446.2</ele>
        <time>2026-05-21T09:44:33.999Z</time>
      </trkpt>
      <trkpt lat="43.7761" lon="3.83578">
        <ele>446.4</ele>
        <time>2026-05-21T09:44:34.999Z</time>
      </trkpt>
      <trkpt lat="43.7761" lon="3.83578">
        <ele>446.3</ele>
        <time>2026-05-21T09:44:35.999Z</time>
      </trkpt>
      <trkpt lat="43.7761" lon="3.83578">
        <ele>446.2</ele>
        <time>2026-05-21T09:44:36.999Z</time>
      </trkpt>
      <trkpt lat="43.7761" lon="3.83578">
        <ele>446.1</ele>
        <time>2026-05-21T09:44:37.999Z</time>
      </trkpt>
      <trkpt lat="43.7761" lon="3.83578">
        <ele>446.3</ele>
        <time>2026-05-21T09:44:38.999Z</time>
      </trkpt>
      <trkpt lat="43.7761" lon="3.83578">
        <ele>446.5</ele>
        <time>2026-05-21T09:44:39.999Z</time>
      </trkpt>
      <trkpt lat="43.7761" lon="3.83578">
        <ele>446.7</ele>
        <time>2026-05-21T09:44:40.999Z</time>
      </trkpt>
      <trkpt lat="43.77611" lon="3.83578">
        <ele>446.8</ele>
        <time>2026-05-21T09:44:41.999Z</time>
      </trkpt>
      <trkpt lat="43.77611" lon="3.83578">
        <ele>446.9</ele>
        <time>2026-05-21T09:44:42.999Z</time>
      </trkpt>
      <trkpt lat="43.77611" lon="3.83577">
        <ele>446.9</ele>
        <time>2026-05-21T09:44:43.999Z</time>
      </trkpt>
      <trkpt lat="43.77611" lon="3.83576">
        <ele>447.1</ele>
        <time>2026-05-21T09:44:44.999Z</time>
      </trkpt>
      <trkpt lat="43.77611" lon="3.83576">
        <ele>447.2</ele>
        <time>2026-05-21T09:44:45.999Z</time>
      </trkpt>
      <trkpt lat="43.77611" lon="3.83576">
        <ele>447.3</ele>
        <time>2026-05-21T09:44:46.999Z</time>
      </trkpt>
      <trkpt lat="43.77611" lon="3.83576">
        <ele>447.4</ele>
        <time>2026-05-21T09:44:47.999Z</time>
      </trkpt>
      <trkpt lat="43.77611" lon="3.83576">
        <ele>447.3</ele>
        <time>2026-05-21T09:44:48.999Z</time>
      </trkpt>
      <trkpt lat="43.77611" lon="3.83576">
        <ele>447</ele>
        <time>2026-05-21T09:44:49.999Z</time>
      </trkpt>
      <trkpt lat="43.77611" lon="3.83576">
        <ele>446.5</ele>
        <time>2026-05-21T09:44:50.999Z</time>
      </trkpt>
      <trkpt lat="43.77611" lon="3.83576">
        <ele>446.1</ele>
        <time>2026-05-21T09:44:51.999Z</time>
      </trkpt>
      <trkpt lat="43.77611" lon="3.83576">
        <ele>445.9</ele>
        <time>2026-05-21T09:44:52.999Z</time>
      </trkpt>
      <trkpt lat="43.77611" lon="3.83576">
        <ele>445.8</ele>
        <time>2026-05-21T09:44:53.999Z</time>
      </trkpt>
      <trkpt lat="43.77611" lon="3.83576">
        <ele>445.6</ele>
        <time>2026-05-21T09:44:54.999Z</time>
      </trkpt>
      <trkpt lat="43.77611" lon="3.83576">
        <ele>445.7</ele>
        <time>2026-05-21T09:44:55.999Z</time>
      </trkpt>
      <trkpt lat="43.77611" lon="3.83576">
        <ele>445.4</ele>
        <time>2026-05-21T09:44:56.999Z</time>
      </trkpt>
      <trkpt lat="43.77611" lon="3.83576">
        <ele>445.5</ele>
        <time>2026-05-21T09:44:57.999Z</time>
      </trkpt>
      <trkpt lat="43.7761" lon="3.83576">
        <ele>445.7</ele>
        <time>2026-05-21T09:44:58.999Z</time>
      </trkpt>
      <trkpt lat="43.7761" lon="3.83576">
        <ele>445.8</ele>
        <time>2026-05-21T09:44:59.999Z</time>
      </trkpt>
      <trkpt lat="43.7761" lon="3.83576">
        <ele>445.7</ele>
        <time>2026-05-21T09:45:00.999Z</time>
      </trkpt>
      <trkpt lat="43.7761" lon="3.83576">
        <ele>445.5</ele>
        <time>2026-05-21T09:45:01.999Z</time>
      </trkpt>
      <trkpt lat="43.7761" lon="3.83576">
        <ele>445.4</ele>
        <time>2026-05-21T09:45:02.999Z</time>
      </trkpt>
      <trkpt lat="43.7761" lon="3.83576">
        <ele>445.5</ele>
        <time>2026-05-21T09:45:03.999Z</time>
      </trkpt>
      <trkpt lat="43.7761" lon="3.83576">
        <ele>445.5</ele>
        <time>2026-05-21T09:45:04.999Z</time>
      </trkpt>
      <trkpt lat="43.7761" lon="3.83576">
        <ele>445.2</ele>
        <time>2026-05-21T09:45:05.999Z</time>
      </trkpt>
      <trkpt lat="43.7761" lon="3.83576">
        <ele>445.2</ele>
        <time>2026-05-21T09:45:06.999Z</time>
      </trkpt>
      <trkpt lat="43.7761" lon="3.83576">
        <ele>445.1</ele>
        <time>2026-05-21T09:45:07.999Z</time>
      </trkpt>
      <trkpt lat="43.7761" lon="3.83576">
        <ele>444.9</ele>
        <time>2026-05-21T09:45:08.999Z</time>
      </trkpt>
      <trkpt lat="43.7761" lon="3.83576">
        <ele>445</ele>
        <time>2026-05-21T09:45:09.999Z</time>
      </trkpt>
      <trkpt lat="43.7761" lon="3.83576">
        <ele>444.8</ele>
        <time>2026-05-21T09:45:10.999Z</time>
      </trkpt>
      <trkpt lat="43.7761" lon="3.83576">
        <ele>444.7</ele>
        <time>2026-05-21T09:45:11.999Z</time>
      </trkpt>
      <trkpt lat="43.7761" lon="3.83576">
        <ele>444.7</ele>
        <time>2026-05-21T09:45:12.999Z</time>
      </trkpt>
      <trkpt lat="43.7761" lon="3.83576">
        <ele>444.9</ele>
        <time>2026-05-21T09:45:13.999Z</time>
      </trkpt>
      <trkpt lat="43.7761" lon="3.83576">
        <ele>445</ele>
        <time>2026-05-21T09:45:14.999Z</time>
      </trkpt>
      <trkpt lat="43.7761" lon="3.83576">
        <ele>444.9</ele>
        <time>2026-05-21T09:45:15.999Z</time>
      </trkpt>
      <trkpt lat="43.7761" lon="3.83576">
        <ele>444.9</ele>
        <time>2026-05-21T09:45:16.999Z</time>
      </trkpt>
      <trkpt lat="43.7761" lon="3.83576">
        <ele>445</ele>
        <time>2026-05-21T09:45:17.999Z</time>
      </trkpt>
      <trkpt lat="43.7761" lon="3.83576">
        <ele>444.9</ele>
        <time>2026-05-21T09:45:18.999Z</time>
      </trkpt>
      <trkpt lat="43.7761" lon="3.83575">
        <ele>444.8</ele>
        <time>2026-05-21T09:45:19.999Z</time>
      </trkpt>
      <trkpt lat="43.7761" lon="3.83575">
        <ele>444.6</ele>
        <time>2026-05-21T09:45:20.999Z</time>
      </trkpt>
      <trkpt lat="43.7761" lon="3.83575">
        <ele>444.5</ele>
        <time>2026-05-21T09:45:21.999Z</time>
      </trkpt>
      <trkpt lat="43.7761" lon="3.83575">
        <ele>444.3</ele>
        <time>2026-05-21T09:45:22.999Z</time>
      </trkpt>
      <trkpt lat="43.7761" lon="3.83575">
        <ele>444.2</ele>
        <time>2026-05-21T09:45:23.999Z</time>
      </trkpt>
      <trkpt lat="43.7761" lon="3.83575">
        <ele>444.2</ele>
        <time>2026-05-21T09:45:24.999Z</time>
      </trkpt>
      <trkpt lat="43.7761" lon="3.83574">
        <ele>444.1</ele>
        <time>2026-05-21T09:45:25.999Z</time>
      </trkpt>
      <trkpt lat="43.77611" lon="3.83574">
        <ele>444.2</ele>
        <time>2026-05-21T09:45:26.999Z</time>
      </trkpt>
      <trkpt lat="43.77611" lon="3.83573">
        <ele>444.1</ele>
        <time>2026-05-21T09:45:27.999Z</time>
      </trkpt>
      <trkpt lat="43.77611" lon="3.83573">
        <ele>443.9</ele>
        <time>2026-05-21T09:45:28.999Z</time>
      </trkpt>
      <trkpt lat="43.77611" lon="3.83572">
        <ele>443.8</ele>
        <time>2026-05-21T09:45:29.999Z</time>
      </trkpt>
      <trkpt lat="43.7761" lon="3.83571">
        <ele>443.7</ele>
        <time>2026-05-21T09:45:30.999Z</time>
      </trkpt>
      <trkpt lat="43.7761" lon="3.83571">
        <ele>443.5</ele>
        <time>2026-05-21T09:45:31.999Z</time>
      </trkpt>
      <trkpt lat="43.77609" lon="3.83571">
        <ele>443.3</ele>
        <time>2026-05-21T09:45:32.999Z</time>
      </trkpt>
      <trkpt lat="43.77609" lon="3.8357">
        <ele>442.9</ele>
        <time>2026-05-21T09:45:33.999Z</time>
      </trkpt>
      <trkpt lat="43.77609" lon="3.83569">
        <ele>442.7</ele>
        <time>2026-05-21T09:45:34.999Z</time>
      </trkpt>
      <trkpt lat="43.77609" lon="3.83569">
        <ele>442.8</ele>
        <time>2026-05-21T09:45:35.999Z</time>
      </trkpt>
      <trkpt lat="43.77609" lon="3.83568">
        <ele>442.7</ele>
        <time>2026-05-21T09:45:36.999Z</time>
      </trkpt>
      <trkpt lat="43.77609" lon="3.83567">
        <ele>442.8</ele>
        <time>2026-05-21T09:45:37.999Z</time>
      </trkpt>
      <trkpt lat="43.77609" lon="3.83567">
        <ele>443.2</ele>
        <time>2026-05-21T09:45:38.999Z</time>
      </trkpt>
      <trkpt lat="43.77609" lon="3.83567">
        <ele>443.1</ele>
        <time>2026-05-21T09:45:39.999Z</time>
      </trkpt>
      <trkpt lat="43.77609" lon="3.83567">
        <ele>443</ele>
        <time>2026-05-21T09:45:40.999Z</time>
      </trkpt>
      <trkpt lat="43.77609" lon="3.83567">
        <ele>442.6</ele>
        <time>2026-05-21T09:45:41.999Z</time>
      </trkpt>
      <trkpt lat="43.77609" lon="3.83567">
        <ele>442.6</ele>
        <time>2026-05-21T09:45:42.999Z</time>
      </trkpt>
      <trkpt lat="43.77609" lon="3.83567">
        <ele>442.8</ele>
        <time>2026-05-21T09:45:43.999Z</time>
      </trkpt>
      <trkpt lat="43.77609" lon="3.83567">
        <ele>443</ele>
        <time>2026-05-21T09:45:44.999Z</time>
      </trkpt>
      <trkpt lat="43.77609" lon="3.83567">
        <ele>443.1</ele>
        <time>2026-05-21T09:45:45.999Z</time>
      </trkpt>
      <trkpt lat="43.77609" lon="3.83567">
        <ele>443.3</ele>
        <time>2026-05-21T09:45:46.999Z</time>
      </trkpt>
      <trkpt lat="43.77609" lon="3.83567">
        <ele>443.3</ele>
        <time>2026-05-21T09:45:47.999Z</time>
      </trkpt>
      <trkpt lat="43.77609" lon="3.83567">
        <ele>443.4</ele>
        <time>2026-05-21T09:45:48.999Z</time>
      </trkpt>
      <trkpt lat="43.77609" lon="3.83567">
        <ele>443.5</ele>
        <time>2026-05-21T09:45:49.999Z</time>
      </trkpt>
      <trkpt lat="43.77609" lon="3.83567">
        <ele>443.5</ele>
        <time>2026-05-21T09:45:50.999Z</time>
      </trkpt>
      <trkpt lat="43.77609" lon="3.83567">
        <ele>443.4</ele>
        <time>2026-05-21T09:45:51.999Z</time>
      </trkpt>
      <trkpt lat="43.77609" lon="3.83566">
        <ele>443.3</ele>
        <time>2026-05-21T09:45:52.999Z</time>
      </trkpt>
      <trkpt lat="43.77609" lon="3.83566">
        <ele>443.3</ele>
        <time>2026-05-21T09:45:53.999Z</time>
      </trkpt>
      <trkpt lat="43.7761" lon="3.83566">
        <ele>443.3</ele>
        <time>2026-05-21T09:45:54.999Z</time>
      </trkpt>
      <trkpt lat="43.7761" lon="3.83566">
        <ele>442.9</ele>
        <time>2026-05-21T09:45:55.999Z</time>
      </trkpt>
      <trkpt lat="43.7761" lon="3.83566">
        <ele>443</ele>
        <time>2026-05-21T09:45:56.999Z</time>
      </trkpt>
      <trkpt lat="43.7761" lon="3.83566">
        <ele>442.9</ele>
        <time>2026-05-21T09:45:57.999Z</time>
      </trkpt>
      <trkpt lat="43.7761" lon="3.83566">
        <ele>442.7</ele>
        <time>2026-05-21T09:45:58.999Z</time>
      </trkpt>
      <trkpt lat="43.7761" lon="3.83566">
        <ele>442.6</ele>
        <time>2026-05-21T09:45:59.999Z</time>
      </trkpt>
      <trkpt lat="43.7761" lon="3.83566">
        <ele>442.6</ele>
        <time>2026-05-21T09:46:00.999Z</time>
      </trkpt>
      <trkpt lat="43.7761" lon="3.83566">
        <ele>442.5</ele>
        <time>2026-05-21T09:46:01.999Z</time>
      </trkpt>
      <trkpt lat="43.7761" lon="3.83566">
        <ele>442.3</ele>
        <time>2026-05-21T09:46:02.999Z</time>
      </trkpt>
      <trkpt lat="43.7761" lon="3.83566">
        <ele>442.1</ele>
        <time>2026-05-21T09:46:03.999Z</time>
      </trkpt>
      <trkpt lat="43.7761" lon="3.83566">
        <ele>441.9</ele>
        <time>2026-05-21T09:46:04.999Z</time>
      </trkpt>
      <trkpt lat="43.7761" lon="3.83566">
        <ele>441.6</ele>
        <time>2026-05-21T09:46:05.999Z</time>
      </trkpt>
      <trkpt lat="43.7761" lon="3.83566">
        <ele>441.9</ele>
        <time>2026-05-21T09:46:06.999Z</time>
      </trkpt>
      <trkpt lat="43.7761" lon="3.83566">
        <ele>442</ele>
        <time>2026-05-21T09:46:07.999Z</time>
      </trkpt>
      <trkpt lat="43.7761" lon="3.83566">
        <ele>442.1</ele>
        <time>2026-05-21T09:46:08.999Z</time>
      </trkpt>
      <trkpt lat="43.7761" lon="3.83566">
        <ele>442.2</ele>
        <time>2026-05-21T09:46:09.999Z</time>
      </trkpt>
      <trkpt lat="43.7761" lon="3.83565">
        <ele>442.2</ele>
        <time>2026-05-21T09:46:10.999Z</time>
      </trkpt>
      <trkpt lat="43.7761" lon="3.83565">
        <ele>442</ele>
        <time>2026-05-21T09:46:11.999Z</time>
      </trkpt>
      <trkpt lat="43.7761" lon="3.83565">
        <ele>441.9</ele>
        <time>2026-05-21T09:46:12.999Z</time>
      </trkpt>
      <trkpt lat="43.7761" lon="3.83565">
        <ele>441.6</ele>
        <time>2026-05-21T09:46:13.999Z</time>
      </trkpt>
      <trkpt lat="43.7761" lon="3.83565">
        <ele>441.4</ele>
        <time>2026-05-21T09:46:14.999Z</time>
      </trkpt>
      <trkpt lat="43.7761" lon="3.83565">
        <ele>441.2</ele>
        <time>2026-05-21T09:46:15.999Z</time>
      </trkpt>
      <trkpt lat="43.7761" lon="3.83565">
        <ele>441</ele>
        <time>2026-05-21T09:46:16.999Z</time>
      </trkpt>
      <trkpt lat="43.7761" lon="3.83565">
        <ele>441</ele>
        <time>2026-05-21T09:46:17.999Z</time>
      </trkpt>
      <trkpt lat="43.7761" lon="3.83564">
        <ele>440.9</ele>
        <time>2026-05-21T09:46:18.999Z</time>
      </trkpt>
      <trkpt lat="43.7761" lon="3.83564">
        <ele>440.8</ele>
        <time>2026-05-21T09:46:19.999Z</time>
      </trkpt>
      <trkpt lat="43.7761" lon="3.83564">
        <ele>440.8</ele>
        <time>2026-05-21T09:46:20.999Z</time>
      </trkpt>
      <trkpt lat="43.7761" lon="3.83564">
        <ele>440.9</ele>
        <time>2026-05-21T09:46:21.999Z</time>
      </trkpt>
      <trkpt lat="43.7761" lon="3.83564">
        <ele>440.8</ele>
        <time>2026-05-21T09:46:22.999Z</time>
      </trkpt>
      <trkpt lat="43.7761" lon="3.83564">
        <ele>440.8</ele>
        <time>2026-05-21T09:46:23.999Z</time>
      </trkpt>
      <trkpt lat="43.7761" lon="3.83564">
        <ele>440.8</ele>
        <time>2026-05-21T09:46:24.999Z</time>
      </trkpt>
      <trkpt lat="43.7761" lon="3.83564">
        <ele>440.9</ele>
        <time>2026-05-21T09:46:25.999Z</time>
      </trkpt>
      <trkpt lat="43.7761" lon="3.83564">
        <ele>440.8</ele>
        <time>2026-05-21T09:46:26.999Z</time>
      </trkpt>
      <trkpt lat="43.7761" lon="3.83564">
        <ele>440.7</ele>
        <time>2026-05-21T09:46:27.999Z</time>
      </trkpt>
      <trkpt lat="43.7761" lon="3.83564">
        <ele>440.5</ele>
        <time>2026-05-21T09:46:28.999Z</time>
      </trkpt>
      <trkpt lat="43.7761" lon="3.83564">
        <ele>440.4</ele>
        <time>2026-05-21T09:46:29.999Z</time>
      </trkpt>
      <trkpt lat="43.7761" lon="3.83564">
        <ele>440.3</ele>
        <time>2026-05-21T09:46:30.999Z</time>
      </trkpt>
      <trkpt lat="43.7761" lon="3.83564">
        <ele>440.4</ele>
        <time>2026-05-21T09:46:31.999Z</time>
      </trkpt>
      <trkpt lat="43.7761" lon="3.83563">
        <ele>440.3</ele>
        <time>2026-05-21T09:46:32.999Z</time>
      </trkpt>
      <trkpt lat="43.7761" lon="3.83563">
        <ele>440.3</ele>
        <time>2026-05-21T09:46:33.999Z</time>
      </trkpt>
      <trkpt lat="43.7761" lon="3.83563">
        <ele>440.1</ele>
        <time>2026-05-21T09:46:34.999Z</time>
      </trkpt>
      <trkpt lat="43.7761" lon="3.83563">
        <ele>440.1</ele>
        <time>2026-05-21T09:46:35.999Z</time>
      </trkpt>
      <trkpt lat="43.7761" lon="3.83563">
        <ele>440.1</ele>
        <time>2026-05-21T09:46:36.999Z</time>
      </trkpt>
      <trkpt lat="43.7761" lon="3.83563">
        <ele>440.1</ele>
        <time>2026-05-21T09:46:37.999Z</time>
      </trkpt>
      <trkpt lat="43.7761" lon="3.83563">
        <ele>439.8</ele>
        <time>2026-05-21T09:46:38.999Z</time>
      </trkpt>
      <trkpt lat="43.7761" lon="3.83563">
        <ele>440</ele>
        <time>2026-05-21T09:46:39.999Z</time>
      </trkpt>
      <trkpt lat="43.7761" lon="3.83563">
        <ele>440.2</ele>
        <time>2026-05-21T09:46:40.999Z</time>
      </trkpt>
      <trkpt lat="43.7761" lon="3.83563">
        <ele>440.3</ele>
        <time>2026-05-21T09:46:41.999Z</time>
      </trkpt>
      <trkpt lat="43.7761" lon="3.83563">
        <ele>440.4</ele>
        <time>2026-05-21T09:46:42.999Z</time>
      </trkpt>
      <trkpt lat="43.7761" lon="3.83562">
        <ele>440.4</ele>
        <time>2026-05-21T09:46:43.999Z</time>
      </trkpt>
      <trkpt lat="43.7761" lon="3.83562">
        <ele>440.5</ele>
        <time>2026-05-21T09:46:44.999Z</time>
      </trkpt>
      <trkpt lat="43.7761" lon="3.83562">
        <ele>440.4</ele>
        <time>2026-05-21T09:46:45.999Z</time>
      </trkpt>
      <trkpt lat="43.77609" lon="3.83562">
        <ele>440.5</ele>
        <time>2026-05-21T09:46:46.999Z</time>
      </trkpt>
      <trkpt lat="43.77609" lon="3.83562">
        <ele>440.6</ele>
        <time>2026-05-21T09:46:47.999Z</time>
      </trkpt>
      <trkpt lat="43.7761" lon="3.83562">
        <ele>440.6</ele>
        <time>2026-05-21T09:46:48.999Z</time>
      </trkpt>
      <trkpt lat="43.7761" lon="3.83562">
        <ele>440.7</ele>
        <time>2026-05-21T09:46:49.999Z</time>
      </trkpt>
      <trkpt lat="43.7761" lon="3.83562">
        <ele>440.8</ele>
        <time>2026-05-21T09:46:50.999Z</time>
      </trkpt>
      <trkpt lat="43.7761" lon="3.83562">
        <ele>440.8</ele>
        <time>2026-05-21T09:46:51.999Z</time>
      </trkpt>
      <trkpt lat="43.7761" lon="3.83562">
        <ele>440.6</ele>
        <time>2026-05-21T09:46:52.999Z</time>
      </trkpt>
      <trkpt lat="43.77609" lon="3.83562">
        <ele>440.2</ele>
        <time>2026-05-21T09:46:53.999Z</time>
      </trkpt>
      <trkpt lat="43.77609" lon="3.83562">
        <ele>440.2</ele>
        <time>2026-05-21T09:46:54.999Z</time>
      </trkpt>
      <trkpt lat="43.77609" lon="3.83562">
        <ele>440.1</ele>
        <time>2026-05-21T09:46:55.999Z</time>
      </trkpt>
      <trkpt lat="43.77609" lon="3.83562">
        <ele>440.2</ele>
        <time>2026-05-21T09:46:56.999Z</time>
      </trkpt>
      <trkpt lat="43.77609" lon="3.83562">
        <ele>440.3</ele>
        <time>2026-05-21T09:46:57.999Z</time>
      </trkpt>
      <trkpt lat="43.77609" lon="3.83561">
        <ele>440.2</ele>
        <time>2026-05-21T09:46:58.999Z</time>
      </trkpt>
      <trkpt lat="43.77609" lon="3.83561">
        <ele>440.3</ele>
        <time>2026-05-21T09:46:59.999Z</time>
      </trkpt>
      <trkpt lat="43.77609" lon="3.83561">
        <ele>440.3</ele>
        <time>2026-05-21T09:47:00.999Z</time>
      </trkpt>
      <trkpt lat="43.77609" lon="3.83561">
        <ele>440.2</ele>
        <time>2026-05-21T09:47:01.999Z</time>
      </trkpt>
      <trkpt lat="43.77609" lon="3.83561">
        <ele>440.2</ele>
        <time>2026-05-21T09:47:02.999Z</time>
      </trkpt>
      <trkpt lat="43.77609" lon="3.83561">
        <ele>440.2</ele>
        <time>2026-05-21T09:47:03.999Z</time>
      </trkpt>
      <trkpt lat="43.77609" lon="3.83561">
        <ele>440</ele>
        <time>2026-05-21T09:47:04.999Z</time>
      </trkpt>
      <trkpt lat="43.77609" lon="3.83561">
        <ele>440.1</ele>
        <time>2026-05-21T09:47:05.999Z</time>
      </trkpt>
      <trkpt lat="43.77609" lon="3.83561">
        <ele>440.2</ele>
        <time>2026-05-21T09:47:06.999Z</time>
      </trkpt>
      <trkpt lat="43.77609" lon="3.83561">
        <ele>440.2</ele>
        <time>2026-05-21T09:47:07.999Z</time>
      </trkpt>
      <trkpt lat="43.77609" lon="3.83561">
        <ele>440.4</ele>
        <time>2026-05-21T09:47:08.999Z</time>
      </trkpt>
      <trkpt lat="43.77609" lon="3.83561">
        <ele>440.6</ele>
        <time>2026-05-21T09:47:09.999Z</time>
      </trkpt>
      <trkpt lat="43.77609" lon="3.83561">
        <ele>440.6</ele>
        <time>2026-05-21T09:47:10.999Z</time>
      </trkpt>
      <trkpt lat="43.77609" lon="3.83561">
        <ele>440.5</ele>
        <time>2026-05-21T09:47:11.999Z</time>
      </trkpt>
      <trkpt lat="43.77609" lon="3.8356">
        <ele>440.4</ele>
        <time>2026-05-21T09:47:12.999Z</time>
      </trkpt>
      <trkpt lat="43.77609" lon="3.8356">
        <ele>440.4</ele>
        <time>2026-05-21T09:47:13.999Z</time>
      </trkpt>
      <trkpt lat="43.77609" lon="3.8356">
        <ele>440.5</ele>
        <time>2026-05-21T09:47:14.999Z</time>
      </trkpt>
      <trkpt lat="43.77609" lon="3.8356">
        <ele>440.9</ele>
        <time>2026-05-21T09:47:15.999Z</time>
      </trkpt>
      <trkpt lat="43.77609" lon="3.8356">
        <ele>441.1</ele>
        <time>2026-05-21T09:47:16.999Z</time>
      </trkpt>
      <trkpt lat="43.77609" lon="3.8356">
        <ele>441.1</ele>
        <time>2026-05-21T09:47:17.999Z</time>
      </trkpt>
      <trkpt lat="43.7761" lon="3.8356">
        <ele>441.2</ele>
        <time>2026-05-21T09:47:18.999Z</time>
      </trkpt>
      <trkpt lat="43.7761" lon="3.8356">
        <ele>441.3</ele>
        <time>2026-05-21T09:47:19.999Z</time>
      </trkpt>
      <trkpt lat="43.77611" lon="3.8356">
        <ele>441.1</ele>
        <time>2026-05-21T09:47:20.999Z</time>
      </trkpt>
      <trkpt lat="43.77612" lon="3.8356">
        <ele>441</ele>
        <time>2026-05-21T09:47:21.999Z</time>
      </trkpt>
      <trkpt lat="43.77612" lon="3.83559">
        <ele>441.1</ele>
        <time>2026-05-21T09:47:22.999Z</time>
      </trkpt>
      <trkpt lat="43.77613" lon="3.83559">
        <ele>441.2</ele>
        <time>2026-05-21T09:47:23.999Z</time>
      </trkpt>
      <trkpt lat="43.77613" lon="3.83558">
        <ele>441.4</ele>
        <time>2026-05-21T09:47:24.999Z</time>
      </trkpt>
      <trkpt lat="43.77613" lon="3.83558">
        <ele>441.2</ele>
        <time>2026-05-21T09:47:25.999Z</time>
      </trkpt>
      <trkpt lat="43.77613" lon="3.83558">
        <ele>441.1</ele>
        <time>2026-05-21T09:47:26.999Z</time>
      </trkpt>
      <trkpt lat="43.77613" lon="3.83558">
        <ele>440.8</ele>
        <time>2026-05-21T09:47:27.999Z</time>
      </trkpt>
      <trkpt lat="43.77613" lon="3.83558">
        <ele>440.7</ele>
        <time>2026-05-21T09:47:28.999Z</time>
      </trkpt>
      <trkpt lat="43.77613" lon="3.83557">
        <ele>440.8</ele>
        <time>2026-05-21T09:47:29.999Z</time>
      </trkpt>
      <trkpt lat="43.77613" lon="3.83557">
        <ele>440.7</ele>
        <time>2026-05-21T09:47:30.999Z</time>
      </trkpt>
      <trkpt lat="43.77613" lon="3.83557">
        <ele>440.6</ele>
        <time>2026-05-21T09:47:31.999Z</time>
      </trkpt>
      <trkpt lat="43.77613" lon="3.83557">
        <ele>440.6</ele>
        <time>2026-05-21T09:47:32.999Z</time>
      </trkpt>
      <trkpt lat="43.77613" lon="3.83557">
        <ele>440.6</ele>
        <time>2026-05-21T09:47:33.999Z</time>
      </trkpt>
      <trkpt lat="43.77613" lon="3.83557">
        <ele>440.8</ele>
        <time>2026-05-21T09:47:34.999Z</time>
      </trkpt>
      <trkpt lat="43.77613" lon="3.83557">
        <ele>440.9</ele>
        <time>2026-05-21T09:47:35.999Z</time>
      </trkpt>
      <trkpt lat="43.77613" lon="3.83557">
        <ele>441</ele>
        <time>2026-05-21T09:47:36.999Z</time>
      </trkpt>
      <trkpt lat="43.77613" lon="3.83557">
        <ele>441.1</ele>
        <time>2026-05-21T09:47:37.999Z</time>
      </trkpt>
      <trkpt lat="43.77613" lon="3.83557">
        <ele>441.2</ele>
        <time>2026-05-21T09:47:38.999Z</time>
      </trkpt>
      <trkpt lat="43.77613" lon="3.83557">
        <ele>441.3</ele>
        <time>2026-05-21T09:47:39.999Z</time>
      </trkpt>
      <trkpt lat="43.77613" lon="3.83557">
        <ele>441.3</ele>
        <time>2026-05-21T09:47:40.999Z</time>
      </trkpt>
      <trkpt lat="43.77613" lon="3.83557">
        <ele>441.1</ele>
        <time>2026-05-21T09:47:41.999Z</time>
      </trkpt>
      <trkpt lat="43.77613" lon="3.83557">
        <ele>440.8</ele>
        <time>2026-05-21T09:47:42.999Z</time>
      </trkpt>
      <trkpt lat="43.77613" lon="3.83557">
        <ele>440.6</ele>
        <time>2026-05-21T09:47:43.999Z</time>
      </trkpt>
      <trkpt lat="43.77613" lon="3.83557">
        <ele>440.5</ele>
        <time>2026-05-21T09:47:44.999Z</time>
      </trkpt>
      <trkpt lat="43.77613" lon="3.83557">
        <ele>440.4</ele>
        <time>2026-05-21T09:47:45.999Z</time>
      </trkpt>
      <trkpt lat="43.77613" lon="3.83557">
        <ele>440.4</ele>
        <time>2026-05-21T09:47:46.999Z</time>
      </trkpt>
      <trkpt lat="43.77613" lon="3.83556">
        <ele>440.2</ele>
        <time>2026-05-21T09:47:47.999Z</time>
      </trkpt>
      <trkpt lat="43.77613" lon="3.83556">
        <ele>440.1</ele>
        <time>2026-05-21T09:47:48.999Z</time>
      </trkpt>
      <trkpt lat="43.77613" lon="3.83556">
        <ele>440</ele>
        <time>2026-05-21T09:47:49.999Z</time>
      </trkpt>
      <trkpt lat="43.77613" lon="3.83556">
        <ele>439.8</ele>
        <time>2026-05-21T09:47:50.999Z</time>
      </trkpt>
      <trkpt lat="43.77613" lon="3.83556">
        <ele>439.7</ele>
        <time>2026-05-21T09:47:51.999Z</time>
      </trkpt>
      <trkpt lat="43.77613" lon="3.83556">
        <ele>439.6</ele>
        <time>2026-05-21T09:47:52.999Z</time>
      </trkpt>
      <trkpt lat="43.77613" lon="3.83556">
        <ele>439.6</ele>
        <time>2026-05-21T09:47:53.999Z</time>
      </trkpt>
      <trkpt lat="43.77612" lon="3.83556">
        <ele>439.3</ele>
        <time>2026-05-21T09:47:54.999Z</time>
      </trkpt>
      <trkpt lat="43.77612" lon="3.83556">
        <ele>439.2</ele>
        <time>2026-05-21T09:47:55.999Z</time>
      </trkpt>
      <trkpt lat="43.77612" lon="3.83557">
        <ele>439.2</ele>
        <time>2026-05-21T09:47:56.999Z</time>
      </trkpt>
      <trkpt lat="43.77612" lon="3.83557">
        <ele>439</ele>
        <time>2026-05-21T09:47:57.999Z</time>
      </trkpt>
      <trkpt lat="43.77611" lon="3.83557">
        <ele>438.8</ele>
        <time>2026-05-21T09:47:58.999Z</time>
      </trkpt>
      <trkpt lat="43.77611" lon="3.83557">
        <ele>438.7</ele>
        <time>2026-05-21T09:47:59.999Z</time>
      </trkpt>
      <trkpt lat="43.77611" lon="3.83558">
        <ele>439</ele>
        <time>2026-05-21T09:48:00.999Z</time>
      </trkpt>
      <trkpt lat="43.7761" lon="3.83557">
        <ele>438.9</ele>
        <time>2026-05-21T09:48:01.999Z</time>
      </trkpt>
      <trkpt lat="43.7761" lon="3.83557">
        <ele>438.7</ele>
        <time>2026-05-21T09:48:02.999Z</time>
      </trkpt>
      <trkpt lat="43.7761" lon="3.83557">
        <ele>438.5</ele>
        <time>2026-05-21T09:48:03.999Z</time>
      </trkpt>
      <trkpt lat="43.7761" lon="3.83557">
        <ele>438.3</ele>
        <time>2026-05-21T09:48:04.999Z</time>
      </trkpt>
      <trkpt lat="43.7761" lon="3.83557">
        <ele>438.1</ele>
        <time>2026-05-21T09:48:05.999Z</time>
      </trkpt>
      <trkpt lat="43.7761" lon="3.83557">
        <ele>437.8</ele>
        <time>2026-05-21T09:48:06.999Z</time>
      </trkpt>
      <trkpt lat="43.7761" lon="3.83557">
        <ele>437.6</ele>
        <time>2026-05-21T09:48:07.999Z</time>
      </trkpt>
      <trkpt lat="43.7761" lon="3.83557">
        <ele>437.5</ele>
        <time>2026-05-21T09:48:08.999Z</time>
      </trkpt>
      <trkpt lat="43.7761" lon="3.83557">
        <ele>437.6</ele>
        <time>2026-05-21T09:48:09.999Z</time>
      </trkpt>
      <trkpt lat="43.7761" lon="3.83557">
        <ele>437.6</ele>
        <time>2026-05-21T09:48:10.999Z</time>
      </trkpt>
      <trkpt lat="43.7761" lon="3.83557">
        <ele>437.5</ele>
        <time>2026-05-21T09:48:11.999Z</time>
      </trkpt>
      <trkpt lat="43.7761" lon="3.83557">
        <ele>437.7</ele>
        <time>2026-05-21T09:48:12.999Z</time>
      </trkpt>
      <trkpt lat="43.7761" lon="3.83557">
        <ele>437.8</ele>
        <time>2026-05-21T09:48:13.999Z</time>
      </trkpt>
      <trkpt lat="43.7761" lon="3.83557">
        <ele>437.9</ele>
        <time>2026-05-21T09:48:14.999Z</time>
      </trkpt>
      <trkpt lat="43.77609" lon="3.83557">
        <ele>437.8</ele>
        <time>2026-05-21T09:48:15.999Z</time>
      </trkpt>
      <trkpt lat="43.77609" lon="3.83557">
        <ele>437.5</ele>
        <time>2026-05-21T09:48:16.999Z</time>
      </trkpt>
      <trkpt lat="43.77609" lon="3.83557">
        <ele>437.4</ele>
        <time>2026-05-21T09:48:17.999Z</time>
      </trkpt>
      <trkpt lat="43.77609" lon="3.83557">
        <ele>437.2</ele>
        <time>2026-05-21T09:48:18.999Z</time>
      </trkpt>
      <trkpt lat="43.77609" lon="3.83557">
        <ele>437.1</ele>
        <time>2026-05-21T09:48:19.999Z</time>
      </trkpt>
      <trkpt lat="43.77609" lon="3.83557">
        <ele>437</ele>
        <time>2026-05-21T09:48:20.999Z</time>
      </trkpt>
      <trkpt lat="43.77609" lon="3.83557">
        <ele>437</ele>
        <time>2026-05-21T09:48:21.999Z</time>
      </trkpt>
      <trkpt lat="43.77609" lon="3.83557">
        <ele>436.9</ele>
        <time>2026-05-21T09:48:22.999Z</time>
      </trkpt>
      <trkpt lat="43.77609" lon="3.83557">
        <ele>436.8</ele>
        <time>2026-05-21T09:48:23.999Z</time>
      </trkpt>
      <trkpt lat="43.77609" lon="3.83556">
        <ele>436.8</ele>
        <time>2026-05-21T09:48:24.999Z</time>
      </trkpt>
      <trkpt lat="43.77609" lon="3.83556">
        <ele>436.7</ele>
        <time>2026-05-21T09:48:25.999Z</time>
      </trkpt>
      <trkpt lat="43.77609" lon="3.83556">
        <ele>436.7</ele>
        <time>2026-05-21T09:48:26.999Z</time>
      </trkpt>
      <trkpt lat="43.77609" lon="3.83556">
        <ele>436.7</ele>
        <time>2026-05-21T09:48:27.999Z</time>
      </trkpt>
      <trkpt lat="43.77609" lon="3.83556">
        <ele>436.6</ele>
        <time>2026-05-21T09:48:28.999Z</time>
      </trkpt>
      <trkpt lat="43.77609" lon="3.83556">
        <ele>436.4</ele>
        <time>2026-05-21T09:48:29.999Z</time>
      </trkpt>
      <trkpt lat="43.77609" lon="3.83556">
        <ele>436.5</ele>
        <time>2026-05-21T09:48:30.999Z</time>
      </trkpt>
      <trkpt lat="43.77609" lon="3.83556">
        <ele>436.4</ele>
        <time>2026-05-21T09:48:31.999Z</time>
      </trkpt>
      <trkpt lat="43.77609" lon="3.83556">
        <ele>436.5</ele>
        <time>2026-05-21T09:48:32.999Z</time>
      </trkpt>
      <trkpt lat="43.77609" lon="3.83556">
        <ele>436.9</ele>
        <time>2026-05-21T09:48:33.999Z</time>
      </trkpt>
      <trkpt lat="43.77609" lon="3.83556">
        <ele>437.1</ele>
        <time>2026-05-21T09:48:34.999Z</time>
      </trkpt>
      <trkpt lat="43.77609" lon="3.83556">
        <ele>436.9</ele>
        <time>2026-05-21T09:48:36.000Z</time>
      </trkpt>
      <trkpt lat="43.77609" lon="3.83556">
        <ele>436.7</ele>
        <time>2026-05-21T09:48:37.000Z</time>
      </trkpt>
      <trkpt lat="43.77609" lon="3.83556">
        <ele>436.8</ele>
        <time>2026-05-21T09:48:38.000Z</time>
      </trkpt>
      <trkpt lat="43.77609" lon="3.83556">
        <ele>436.9</ele>
        <time>2026-05-21T09:48:39.000Z</time>
      </trkpt>
      <trkpt lat="43.77609" lon="3.83556">
        <ele>436.9</ele>
        <time>2026-05-21T09:48:40.000Z</time>
      </trkpt>
      <trkpt lat="43.77609" lon="3.83556">
        <ele>437</ele>
        <time>2026-05-21T09:48:41.000Z</time>
      </trkpt>
      <trkpt lat="43.77609" lon="3.83556">
        <ele>437.1</ele>
        <time>2026-05-21T09:48:42.000Z</time>
      </trkpt>
      <trkpt lat="43.77609" lon="3.83556">
        <ele>437.3</ele>
        <time>2026-05-21T09:48:43.000Z</time>
      </trkpt>
      <trkpt lat="43.77608" lon="3.83556">
        <ele>437.3</ele>
        <time>2026-05-21T09:48:44.000Z</time>
      </trkpt>
      <trkpt lat="43.77608" lon="3.83556">
        <ele>436.9</ele>
        <time>2026-05-21T09:48:45.000Z</time>
      </trkpt>
      <trkpt lat="43.77608" lon="3.83556">
        <ele>436.7</ele>
        <time>2026-05-21T09:48:46.000Z</time>
      </trkpt>
      <trkpt lat="43.77608" lon="3.83555">
        <ele>436.5</ele>
        <time>2026-05-21T09:48:47.000Z</time>
      </trkpt>
      <trkpt lat="43.77608" lon="3.83555">
        <ele>436.6</ele>
        <time>2026-05-21T09:48:48.000Z</time>
      </trkpt>
      <trkpt lat="43.77608" lon="3.83555">
        <ele>436.5</ele>
        <time>2026-05-21T09:48:49.000Z</time>
      </trkpt>
      <trkpt lat="43.77608" lon="3.83555">
        <ele>436.6</ele>
        <time>2026-05-21T09:48:50.000Z</time>
      </trkpt>
      <trkpt lat="43.77608" lon="3.83555">
        <ele>436.7</ele>
        <time>2026-05-21T09:48:51.000Z</time>
      </trkpt>
      <trkpt lat="43.77608" lon="3.83555">
        <ele>436.7</ele>
        <time>2026-05-21T09:48:52.000Z</time>
      </trkpt>
      <trkpt lat="43.77608" lon="3.83555">
        <ele>436.6</ele>
        <time>2026-05-21T09:48:53.000Z</time>
      </trkpt>
      <trkpt lat="43.77608" lon="3.83555">
        <ele>436.4</ele>
        <time>2026-05-21T09:48:54.000Z</time>
      </trkpt>
      <trkpt lat="43.77608" lon="3.83555">
        <ele>436.2</ele>
        <time>2026-05-21T09:48:56.000Z</time>
      </trkpt>
      <trkpt lat="43.77608" lon="3.83555">
        <ele>436.1</ele>
        <time>2026-05-21T09:48:57.000Z</time>
      </trkpt>
      <trkpt lat="43.77608" lon="3.83555">
        <ele>436.1</ele>
        <time>2026-05-21T09:48:58.000Z</time>
      </trkpt>
      <trkpt lat="43.77608" lon="3.83555">
        <ele>436.4</ele>
        <time>2026-05-21T09:48:59.000Z</time>
      </trkpt>
      <trkpt lat="43.77608" lon="3.83555">
        <ele>436</ele>
        <time>2026-05-21T09:49:00.000Z</time>
      </trkpt>
      <trkpt lat="43.77608" lon="3.83555">
        <ele>435.9</ele>
        <time>2026-05-21T09:49:01.000Z</time>
      </trkpt>
      <trkpt lat="43.77607" lon="3.83555">
        <ele>435.8</ele>
        <time>2026-05-21T09:49:02.000Z</time>
      </trkpt>
      <trkpt lat="43.77607" lon="3.83555">
        <ele>435.8</ele>
        <time>2026-05-21T09:49:03.000Z</time>
      </trkpt>
      <trkpt lat="43.77607" lon="3.83555">
        <ele>435.8</ele>
        <time>2026-05-21T09:49:04.000Z</time>
      </trkpt>
      <trkpt lat="43.77606" lon="3.83554">
        <ele>435.5</ele>
        <time>2026-05-21T09:49:05.000Z</time>
      </trkpt>
      <trkpt lat="43.77606" lon="3.83554">
        <ele>435.3</ele>
        <time>2026-05-21T09:49:06.000Z</time>
      </trkpt>
      <trkpt lat="43.77606" lon="3.83554">
        <ele>435.3</ele>
        <time>2026-05-21T09:49:07.000Z</time>
      </trkpt>
      <trkpt lat="43.77606" lon="3.83554">
        <ele>435.4</ele>
        <time>2026-05-21T09:49:08.000Z</time>
      </trkpt>
      <trkpt lat="43.77606" lon="3.83554">
        <ele>435.6</ele>
        <time>2026-05-21T09:49:09.000Z</time>
      </trkpt>
      <trkpt lat="43.77606" lon="3.83554">
        <ele>435.8</ele>
        <time>2026-05-21T09:49:10.000Z</time>
      </trkpt>
      <trkpt lat="43.77606" lon="3.83554">
        <ele>436.2</ele>
        <time>2026-05-21T09:49:11.000Z</time>
      </trkpt>
      <trkpt lat="43.77606" lon="3.83554">
        <ele>436.5</ele>
        <time>2026-05-21T09:49:12.000Z</time>
      </trkpt>
      <trkpt lat="43.77606" lon="3.83554">
        <ele>437</ele>
        <time>2026-05-21T09:49:13.000Z</time>
      </trkpt>
      <trkpt lat="43.77606" lon="3.83554">
        <ele>437</ele>
        <time>2026-05-21T09:49:14.000Z</time>
      </trkpt>
      <trkpt lat="43.77606" lon="3.83554">
        <ele>436.9</ele>
        <time>2026-05-21T09:49:15.000Z</time>
      </trkpt>
      <trkpt lat="43.77606" lon="3.83554">
        <ele>437.1</ele>
        <time>2026-05-21T09:49:16.000Z</time>
      </trkpt>
      <trkpt lat="43.77606" lon="3.83554">
        <ele>437</ele>
        <time>2026-05-21T09:49:17.000Z</time>
      </trkpt>
      <trkpt lat="43.77606" lon="3.83554">
        <ele>437.1</ele>
        <time>2026-05-21T09:49:18.000Z</time>
      </trkpt>
      <trkpt lat="43.77606" lon="3.83554">
        <ele>437.1</ele>
        <time>2026-05-21T09:49:19.000Z</time>
      </trkpt>
      <trkpt lat="43.77606" lon="3.83554">
        <ele>437.3</ele>
        <time>2026-05-21T09:49:20.000Z</time>
      </trkpt>
      <trkpt lat="43.77606" lon="3.83554">
        <ele>437.4</ele>
        <time>2026-05-21T09:49:21.000Z</time>
      </trkpt>
      <trkpt lat="43.77606" lon="3.83554">
        <ele>437.6</ele>
        <time>2026-05-21T09:49:22.000Z</time>
      </trkpt>
      <trkpt lat="43.77606" lon="3.83554">
        <ele>437.6</ele>
        <time>2026-05-21T09:49:23.000Z</time>
      </trkpt>
      <trkpt lat="43.77606" lon="3.83554">
        <ele>437.5</ele>
        <time>2026-05-21T09:49:24.000Z</time>
      </trkpt>
      <trkpt lat="43.77606" lon="3.83554">
        <ele>437.5</ele>
        <time>2026-05-21T09:49:25.000Z</time>
      </trkpt>
      <trkpt lat="43.77606" lon="3.83554">
        <ele>437.8</ele>
        <time>2026-05-21T09:49:26.000Z</time>
      </trkpt>
      <trkpt lat="43.77606" lon="3.83554">
        <ele>438</ele>
        <time>2026-05-21T09:49:27.000Z</time>
      </trkpt>
      <trkpt lat="43.77606" lon="3.83554">
        <ele>438</ele>
        <time>2026-05-21T09:49:28.000Z</time>
      </trkpt>
      <trkpt lat="43.77606" lon="3.83554">
        <ele>438</ele>
        <time>2026-05-21T09:49:29.000Z</time>
      </trkpt>
      <trkpt lat="43.77606" lon="3.83554">
        <ele>438</ele>
        <time>2026-05-21T09:49:30.000Z</time>
      </trkpt>
      <trkpt lat="43.77606" lon="3.83554">
        <ele>438</ele>
        <time>2026-05-21T09:49:31.000Z</time>
      </trkpt>
      <trkpt lat="43.77606" lon="3.83554">
        <ele>438.2</ele>
        <time>2026-05-21T09:49:32.000Z</time>
      </trkpt>
      <trkpt lat="43.77606" lon="3.83554">
        <ele>438.5</ele>
        <time>2026-05-21T09:49:33.000Z</time>
      </trkpt>
      <trkpt lat="43.77606" lon="3.83554">
        <ele>438.9</ele>
        <time>2026-05-21T09:49:34.000Z</time>
      </trkpt>
      <trkpt lat="43.77606" lon="3.83554">
        <ele>438.9</ele>
        <time>2026-05-21T09:49:35.000Z</time>
      </trkpt>
      <trkpt lat="43.77605" lon="3.83554">
        <ele>438.6</ele>
        <time>2026-05-21T09:49:36.000Z</time>
      </trkpt>
      <trkpt lat="43.77605" lon="3.83554">
        <ele>438.6</ele>
        <time>2026-05-21T09:49:37.000Z</time>
      </trkpt>
      <trkpt lat="43.77605" lon="3.83554">
        <ele>438.5</ele>
        <time>2026-05-21T09:49:38.000Z</time>
      </trkpt>
      <trkpt lat="43.77605" lon="3.83554">
        <ele>438.3</ele>
        <time>2026-05-21T09:49:39.000Z</time>
      </trkpt>
      <trkpt lat="43.77605" lon="3.83554">
        <ele>438.3</ele>
        <time>2026-05-21T09:49:40.000Z</time>
      </trkpt>
      <trkpt lat="43.77605" lon="3.83554">
        <ele>438.2</ele>
        <time>2026-05-21T09:49:41.000Z</time>
      </trkpt>
      <trkpt lat="43.77605" lon="3.83554">
        <ele>438</ele>
        <time>2026-05-21T09:49:42.000Z</time>
      </trkpt>
      <trkpt lat="43.77605" lon="3.83554">
        <ele>438</ele>
        <time>2026-05-21T09:49:43.000Z</time>
      </trkpt>
      <trkpt lat="43.77605" lon="3.83554">
        <ele>438.1</ele>
        <time>2026-05-21T09:49:44.000Z</time>
      </trkpt>
      <trkpt lat="43.77605" lon="3.83554">
        <ele>438.1</ele>
        <time>2026-05-21T09:49:45.000Z</time>
      </trkpt>
      <trkpt lat="43.77605" lon="3.83553">
        <ele>438.2</ele>
        <time>2026-05-21T09:49:46.000Z</time>
      </trkpt>
      <trkpt lat="43.77605" lon="3.83553">
        <ele>438.4</ele>
        <time>2026-05-21T09:49:47.000Z</time>
      </trkpt>
      <trkpt lat="43.77605" lon="3.83553">
        <ele>438.4</ele>
        <time>2026-05-21T09:49:48.000Z</time>
      </trkpt>
      <trkpt lat="43.77605" lon="3.83553">
        <ele>438.6</ele>
        <time>2026-05-21T09:49:49.000Z</time>
      </trkpt>
      <trkpt lat="43.77604" lon="3.83553">
        <ele>438.5</ele>
        <time>2026-05-21T09:49:50.000Z</time>
      </trkpt>
      <trkpt lat="43.77604" lon="3.83553">
        <ele>438.3</ele>
        <time>2026-05-21T09:49:51.000Z</time>
      </trkpt>
      <trkpt lat="43.77604" lon="3.83553">
        <ele>438.2</ele>
        <time>2026-05-21T09:49:52.000Z</time>
      </trkpt>
      <trkpt lat="43.77604" lon="3.83553">
        <ele>438.1</ele>
        <time>2026-05-21T09:49:53.000Z</time>
      </trkpt>
      <trkpt lat="43.77605" lon="3.83553">
        <ele>437.8</ele>
        <time>2026-05-21T09:49:54.000Z</time>
      </trkpt>
      <trkpt lat="43.77605" lon="3.83553">
        <ele>437.7</ele>
        <time>2026-05-21T09:49:55.000Z</time>
      </trkpt>
      <trkpt lat="43.77605" lon="3.83553">
        <ele>437.6</ele>
        <time>2026-05-21T09:49:56.000Z</time>
      </trkpt>
      <trkpt lat="43.77605" lon="3.83553">
        <ele>437.3</ele>
        <time>2026-05-21T09:49:57.000Z</time>
      </trkpt>
      <trkpt lat="43.77605" lon="3.83553">
        <ele>437</ele>
        <time>2026-05-21T09:49:58.000Z</time>
      </trkpt>
      <trkpt lat="43.77605" lon="3.83553">
        <ele>436.8</ele>
        <time>2026-05-21T09:49:59.000Z</time>
      </trkpt>
      <trkpt lat="43.77605" lon="3.83552">
        <ele>436.5</ele>
        <time>2026-05-21T09:50:00.000Z</time>
      </trkpt>
      <trkpt lat="43.77605" lon="3.83552">
        <ele>436.2</ele>
        <time>2026-05-21T09:50:01.000Z</time>
      </trkpt>
      <trkpt lat="43.77605" lon="3.83552">
        <ele>436.1</ele>
        <time>2026-05-21T09:50:02.000Z</time>
      </trkpt>
      <trkpt lat="43.77605" lon="3.83552">
        <ele>436</ele>
        <time>2026-05-21T09:50:03.000Z</time>
      </trkpt>
      <trkpt lat="43.77605" lon="3.83552">
        <ele>435.8</ele>
        <time>2026-05-21T09:50:04.000Z</time>
      </trkpt>
      <trkpt lat="43.77605" lon="3.83552">
        <ele>435.5</ele>
        <time>2026-05-21T09:50:05.000Z</time>
      </trkpt>
      <trkpt lat="43.77605" lon="3.83552">
        <ele>435.4</ele>
        <time>2026-05-21T09:50:06.000Z</time>
      </trkpt>
      <trkpt lat="43.77605" lon="3.83552">
        <ele>435.3</ele>
        <time>2026-05-21T09:50:07.000Z</time>
      </trkpt>
      <trkpt lat="43.77605" lon="3.83552">
        <ele>435.4</ele>
        <time>2026-05-21T09:50:08.000Z</time>
      </trkpt>
      <trkpt lat="43.77605" lon="3.83552">
        <ele>435.4</ele>
        <time>2026-05-21T09:50:09.000Z</time>
      </trkpt>
      <trkpt lat="43.77605" lon="3.83552">
        <ele>435.4</ele>
        <time>2026-05-21T09:50:10.000Z</time>
      </trkpt>
      <trkpt lat="43.77605" lon="3.83552">
        <ele>435.3</ele>
        <time>2026-05-21T09:50:11.000Z</time>
      </trkpt>
      <trkpt lat="43.77605" lon="3.83551">
        <ele>435.3</ele>
        <time>2026-05-21T09:50:12.000Z</time>
      </trkpt>
      <trkpt lat="43.77605" lon="3.83551">
        <ele>435.4</ele>
        <time>2026-05-21T09:50:13.000Z</time>
      </trkpt>
      <trkpt lat="43.77605" lon="3.83551">
        <ele>435.2</ele>
        <time>2026-05-21T09:50:14.000Z</time>
      </trkpt>
      <trkpt lat="43.77605" lon="3.83551">
        <ele>435.1</ele>
        <time>2026-05-21T09:50:15.000Z</time>
      </trkpt>
      <trkpt lat="43.77605" lon="3.83551">
        <ele>435.1</ele>
        <time>2026-05-21T09:50:16.000Z</time>
      </trkpt>
      <trkpt lat="43.77605" lon="3.83551">
        <ele>434.9</ele>
        <time>2026-05-21T09:50:17.000Z</time>
      </trkpt>
      <trkpt lat="43.77605" lon="3.83551">
        <ele>434.7</ele>
        <time>2026-05-21T09:50:18.000Z</time>
      </trkpt>
      <trkpt lat="43.77605" lon="3.83551">
        <ele>434.7</ele>
        <time>2026-05-21T09:50:19.000Z</time>
      </trkpt>
      <trkpt lat="43.77605" lon="3.83551">
        <ele>434.8</ele>
        <time>2026-05-21T09:50:20.000Z</time>
      </trkpt>
      <trkpt lat="43.77605" lon="3.83551">
        <ele>434.5</ele>
        <time>2026-05-21T09:50:21.000Z</time>
      </trkpt>
      <trkpt lat="43.77605" lon="3.83551">
        <ele>434.6</ele>
        <time>2026-05-21T09:50:22.000Z</time>
      </trkpt>
      <trkpt lat="43.77605" lon="3.83551">
        <ele>434.6</ele>
        <time>2026-05-21T09:50:23.000Z</time>
      </trkpt>
      <trkpt lat="43.77605" lon="3.8355">
        <ele>434.8</ele>
        <time>2026-05-21T09:50:24.000Z</time>
      </trkpt>
      <trkpt lat="43.77605" lon="3.8355">
        <ele>434.9</ele>
        <time>2026-05-21T09:50:25.000Z</time>
      </trkpt>
      <trkpt lat="43.77605" lon="3.8355">
        <ele>434.9</ele>
        <time>2026-05-21T09:50:26.000Z</time>
      </trkpt>
      <trkpt lat="43.77605" lon="3.8355">
        <ele>434.9</ele>
        <time>2026-05-21T09:50:27.000Z</time>
      </trkpt>
      <trkpt lat="43.77604" lon="3.83549">
        <ele>434.8</ele>
        <time>2026-05-21T09:50:28.000Z</time>
      </trkpt>
      <trkpt lat="43.77604" lon="3.83549">
        <ele>434.7</ele>
        <time>2026-05-21T09:50:29.000Z</time>
      </trkpt>
      <trkpt lat="43.77604" lon="3.83549">
        <ele>434.8</ele>
        <time>2026-05-21T09:50:30.000Z</time>
      </trkpt>
      <trkpt lat="43.77604" lon="3.83549">
        <ele>434.9</ele>
        <time>2026-05-21T09:50:31.000Z</time>
      </trkpt>
      <trkpt lat="43.77604" lon="3.83549">
        <ele>434.9</ele>
        <time>2026-05-21T09:50:32.000Z</time>
      </trkpt>
      <trkpt lat="43.77604" lon="3.83549">
        <ele>434.9</ele>
        <time>2026-05-21T09:50:33.000Z</time>
      </trkpt>
      <trkpt lat="43.77604" lon="3.83549">
        <ele>434.8</ele>
        <time>2026-05-21T09:50:34.000Z</time>
      </trkpt>
      <trkpt lat="43.77604" lon="3.83549">
        <ele>434.9</ele>
        <time>2026-05-21T09:50:35.000Z</time>
      </trkpt>
      <trkpt lat="43.77604" lon="3.83549">
        <ele>435.1</ele>
        <time>2026-05-21T09:50:36.000Z</time>
      </trkpt>
      <trkpt lat="43.77604" lon="3.83549">
        <ele>435.2</ele>
        <time>2026-05-21T09:50:37.000Z</time>
      </trkpt>
      <trkpt lat="43.77604" lon="3.83549">
        <ele>435.2</ele>
        <time>2026-05-21T09:50:38.000Z</time>
      </trkpt>
      <trkpt lat="43.77604" lon="3.83549">
        <ele>435.1</ele>
        <time>2026-05-21T09:50:39.000Z</time>
      </trkpt>
      <trkpt lat="43.77604" lon="3.83549">
        <ele>435</ele>
        <time>2026-05-21T09:50:40.000Z</time>
      </trkpt>
      <trkpt lat="43.77604" lon="3.83549">
        <ele>434.9</ele>
        <time>2026-05-21T09:50:41.000Z</time>
      </trkpt>
      <trkpt lat="43.77604" lon="3.83549">
        <ele>434.9</ele>
        <time>2026-05-21T09:50:42.000Z</time>
      </trkpt>
      <trkpt lat="43.77604" lon="3.83549">
        <ele>434.9</ele>
        <time>2026-05-21T09:50:43.000Z</time>
      </trkpt>
      <trkpt lat="43.77604" lon="3.83548">
        <ele>435.1</ele>
        <time>2026-05-21T09:50:44.000Z</time>
      </trkpt>
      <trkpt lat="43.77604" lon="3.83548">
        <ele>435.2</ele>
        <time>2026-05-21T09:50:45.000Z</time>
      </trkpt>
      <trkpt lat="43.77604" lon="3.83548">
        <ele>435.3</ele>
        <time>2026-05-21T09:50:46.000Z</time>
      </trkpt>
      <trkpt lat="43.77604" lon="3.83548">
        <ele>435.4</ele>
        <time>2026-05-21T09:50:47.000Z</time>
      </trkpt>
      <trkpt lat="43.77604" lon="3.83548">
        <ele>435.4</ele>
        <time>2026-05-21T09:50:48.000Z</time>
      </trkpt>
      <trkpt lat="43.77604" lon="3.83548">
        <ele>435.4</ele>
        <time>2026-05-21T09:50:49.000Z</time>
      </trkpt>
      <trkpt lat="43.77604" lon="3.83548">
        <ele>435.5</ele>
        <time>2026-05-21T09:50:50.000Z</time>
      </trkpt>
      <trkpt lat="43.77604" lon="3.83548">
        <ele>435.5</ele>
        <time>2026-05-21T09:50:51.000Z</time>
      </trkpt>
      <trkpt lat="43.77604" lon="3.83548">
        <ele>435.3</ele>
        <time>2026-05-21T09:50:52.000Z</time>
      </trkpt>
      <trkpt lat="43.77604" lon="3.83548">
        <ele>435</ele>
        <time>2026-05-21T09:50:53.000Z</time>
      </trkpt>
      <trkpt lat="43.77604" lon="3.83548">
        <ele>435</ele>
        <time>2026-05-21T09:50:54.000Z</time>
      </trkpt>
      <trkpt lat="43.77603" lon="3.83548">
        <ele>435.1</ele>
        <time>2026-05-21T09:50:55.000Z</time>
      </trkpt>
      <trkpt lat="43.77603" lon="3.83548">
        <ele>435.2</ele>
        <time>2026-05-21T09:50:56.000Z</time>
      </trkpt>
      <trkpt lat="43.77603" lon="3.83548">
        <ele>435.1</ele>
        <time>2026-05-21T09:50:57.000Z</time>
      </trkpt>
      <trkpt lat="43.77603" lon="3.83548">
        <ele>435</ele>
        <time>2026-05-21T09:50:58.000Z</time>
      </trkpt>
      <trkpt lat="43.77603" lon="3.83548">
        <ele>434.8</ele>
        <time>2026-05-21T09:50:59.000Z</time>
      </trkpt>
      <trkpt lat="43.77603" lon="3.83546">
        <ele>434.6</ele>
        <time>2026-05-21T09:51:00.000Z</time>
      </trkpt>
      <trkpt lat="43.77603" lon="3.83545">
        <ele>434.6</ele>
        <time>2026-05-21T09:51:01.000Z</time>
      </trkpt>
      <trkpt lat="43.77603" lon="3.83544">
        <ele>434.6</ele>
        <time>2026-05-21T09:51:02.000Z</time>
      </trkpt>
      <trkpt lat="43.77602" lon="3.83543">
        <ele>434.5</ele>
        <time>2026-05-21T09:51:03.000Z</time>
      </trkpt>
      <trkpt lat="43.77602" lon="3.83541">
        <ele>434.8</ele>
        <time>2026-05-21T09:51:04.000Z</time>
      </trkpt>
      <trkpt lat="43.77601" lon="3.83541">
        <ele>435.2</ele>
        <time>2026-05-21T09:51:05.000Z</time>
      </trkpt>
      <trkpt lat="43.776" lon="3.8354">
        <ele>435.5</ele>
        <time>2026-05-21T09:51:06.000Z</time>
      </trkpt>
      <trkpt lat="43.776" lon="3.8354">
        <ele>435.5</ele>
        <time>2026-05-21T09:51:07.000Z</time>
      </trkpt>
      <trkpt lat="43.77599" lon="3.8354">
        <ele>435.2</ele>
        <time>2026-05-21T09:51:08.000Z</time>
      </trkpt>
      <trkpt lat="43.77599" lon="3.83539">
        <ele>435.1</ele>
        <time>2026-05-21T09:51:09.000Z</time>
      </trkpt>
      <trkpt lat="43.77599" lon="3.83539">
        <ele>434.9</ele>
        <time>2026-05-21T09:51:10.000Z</time>
      </trkpt>
      <trkpt lat="43.77599" lon="3.83539">
        <ele>434.6</ele>
        <time>2026-05-21T09:51:11.000Z</time>
      </trkpt>
      <trkpt lat="43.77599" lon="3.83539">
        <ele>433.6</ele>
        <time>2026-05-21T09:51:12.000Z</time>
      </trkpt>
      <trkpt lat="43.77599" lon="3.83539">
        <ele>433.6</ele>
        <time>2026-05-21T09:51:13.000Z</time>
      </trkpt>
      <trkpt lat="43.77599" lon="3.83539">
        <ele>433.4</ele>
        <time>2026-05-21T09:51:14.000Z</time>
      </trkpt>
      <trkpt lat="43.77599" lon="3.83539">
        <ele>433.4</ele>
        <time>2026-05-21T09:51:15.000Z</time>
      </trkpt>
      <trkpt lat="43.77599" lon="3.83539">
        <ele>433.4</ele>
        <time>2026-05-21T09:51:16.000Z</time>
      </trkpt>
      <trkpt lat="43.77599" lon="3.83539">
        <ele>433.3</ele>
        <time>2026-05-21T09:51:17.000Z</time>
      </trkpt>
      <trkpt lat="43.77599" lon="3.83539">
        <ele>433.3</ele>
        <time>2026-05-21T09:51:18.000Z</time>
      </trkpt>
      <trkpt lat="43.77598" lon="3.83538">
        <ele>433.5</ele>
        <time>2026-05-21T09:51:19.000Z</time>
      </trkpt>
      <trkpt lat="43.77598" lon="3.83537">
        <ele>433.1</ele>
        <time>2026-05-21T09:51:20.000Z</time>
      </trkpt>
      <trkpt lat="43.77598" lon="3.83537">
        <ele>432.9</ele>
        <time>2026-05-21T09:51:21.000Z</time>
      </trkpt>
      <trkpt lat="43.77599" lon="3.83538">
        <ele>432.8</ele>
        <time>2026-05-21T09:51:22.000Z</time>
      </trkpt>
      <trkpt lat="43.77599" lon="3.83538">
        <ele>432.5</ele>
        <time>2026-05-21T09:51:23.000Z</time>
      </trkpt>
      <trkpt lat="43.77599" lon="3.83538">
        <ele>432.3</ele>
        <time>2026-05-21T09:51:24.000Z</time>
      </trkpt>
      <trkpt lat="43.77599" lon="3.83538">
        <ele>432.1</ele>
        <time>2026-05-21T09:51:25.000Z</time>
      </trkpt>
      <trkpt lat="43.77599" lon="3.83538">
        <ele>432</ele>
        <time>2026-05-21T09:51:26.000Z</time>
      </trkpt>
      <trkpt lat="43.77599" lon="3.83538">
        <ele>431.9</ele>
        <time>2026-05-21T09:51:27.000Z</time>
      </trkpt>
      <trkpt lat="43.77599" lon="3.83538">
        <ele>431.8</ele>
        <time>2026-05-21T09:51:28.000Z</time>
      </trkpt>
      <trkpt lat="43.77599" lon="3.83538">
        <ele>432</ele>
        <time>2026-05-21T09:51:29.000Z</time>
      </trkpt>
      <trkpt lat="43.77599" lon="3.83538">
        <ele>432.2</ele>
        <time>2026-05-21T09:51:30.000Z</time>
      </trkpt>
      <trkpt lat="43.77599" lon="3.83538">
        <ele>432.3</ele>
        <time>2026-05-21T09:51:31.000Z</time>
      </trkpt>
      <trkpt lat="43.77599" lon="3.83539">
        <ele>432.5</ele>
        <time>2026-05-21T09:51:32.000Z</time>
      </trkpt>
      <trkpt lat="43.77599" lon="3.83539">
        <ele>432.5</ele>
        <time>2026-05-21T09:51:33.000Z</time>
      </trkpt>
      <trkpt lat="43.77599" lon="3.83539">
        <ele>432.4</ele>
        <time>2026-05-21T09:51:34.000Z</time>
      </trkpt>
      <trkpt lat="43.77599" lon="3.83539">
        <ele>432.4</ele>
        <time>2026-05-21T09:51:35.000Z</time>
      </trkpt>
      <trkpt lat="43.77599" lon="3.83539">
        <ele>432.4</ele>
        <time>2026-05-21T09:51:36.000Z</time>
      </trkpt>
      <trkpt lat="43.77599" lon="3.83539">
        <ele>432.1</ele>
        <time>2026-05-21T09:51:37.000Z</time>
      </trkpt>
      <trkpt lat="43.77599" lon="3.83539">
        <ele>431.9</ele>
        <time>2026-05-21T09:51:38.000Z</time>
      </trkpt>
      <trkpt lat="43.77599" lon="3.83539">
        <ele>431.7</ele>
        <time>2026-05-21T09:51:39.000Z</time>
      </trkpt>
      <trkpt lat="43.77599" lon="3.83539">
        <ele>431.6</ele>
        <time>2026-05-21T09:51:40.000Z</time>
      </trkpt>
      <trkpt lat="43.77599" lon="3.83539">
        <ele>431.4</ele>
        <time>2026-05-21T09:51:41.000Z</time>
      </trkpt>
      <trkpt lat="43.77599" lon="3.83539">
        <ele>431.8</ele>
        <time>2026-05-21T09:51:42.000Z</time>
      </trkpt>
      <trkpt lat="43.77599" lon="3.83539">
        <ele>432</ele>
        <time>2026-05-21T09:51:43.000Z</time>
      </trkpt>
      <trkpt lat="43.77599" lon="3.83539">
        <ele>432.2</ele>
        <time>2026-05-21T09:51:44.000Z</time>
      </trkpt>
      <trkpt lat="43.77599" lon="3.8354">
        <ele>432.3</ele>
        <time>2026-05-21T09:51:45.000Z</time>
      </trkpt>
      <trkpt lat="43.77599" lon="3.8354">
        <ele>432.4</ele>
        <time>2026-05-21T09:51:46.000Z</time>
      </trkpt>
      <trkpt lat="43.77599" lon="3.8354">
        <ele>432.5</ele>
        <time>2026-05-21T09:51:47.000Z</time>
      </trkpt>
      <trkpt lat="43.77599" lon="3.8354">
        <ele>432.7</ele>
        <time>2026-05-21T09:51:48.000Z</time>
      </trkpt>
      <trkpt lat="43.77599" lon="3.8354">
        <ele>432.8</ele>
        <time>2026-05-21T09:51:49.000Z</time>
      </trkpt>
      <trkpt lat="43.77599" lon="3.8354">
        <ele>432.7</ele>
        <time>2026-05-21T09:51:50.000Z</time>
      </trkpt>
      <trkpt lat="43.77599" lon="3.8354">
        <ele>432.7</ele>
        <time>2026-05-21T09:51:51.000Z</time>
      </trkpt>
      <trkpt lat="43.77599" lon="3.8354">
        <ele>432.6</ele>
        <time>2026-05-21T09:51:52.000Z</time>
      </trkpt>
      <trkpt lat="43.776" lon="3.83542">
        <ele>432.5</ele>
        <time>2026-05-21T09:51:53.000Z</time>
      </trkpt>
      <trkpt lat="43.776" lon="3.83543">
        <ele>432.5</ele>
        <time>2026-05-21T09:51:54.000Z</time>
      </trkpt>
      <trkpt lat="43.776" lon="3.83544">
        <ele>432.2</ele>
        <time>2026-05-21T09:51:55.000Z</time>
      </trkpt>
      <trkpt lat="43.776" lon="3.83545">
        <ele>432</ele>
        <time>2026-05-21T09:51:56.000Z</time>
      </trkpt>
      <trkpt lat="43.77601" lon="3.83545">
        <ele>431.8</ele>
        <time>2026-05-21T09:51:57.000Z</time>
      </trkpt>
      <trkpt lat="43.77601" lon="3.83546">
        <ele>431.5</ele>
        <time>2026-05-21T09:51:58.000Z</time>
      </trkpt>
      <trkpt lat="43.77601" lon="3.83546">
        <ele>431.2</ele>
        <time>2026-05-21T09:51:59.000Z</time>
      </trkpt>
      <trkpt lat="43.77601" lon="3.83545">
        <ele>430.8</ele>
        <time>2026-05-21T09:52:00.000Z</time>
      </trkpt>
      <trkpt lat="43.77601" lon="3.83545">
        <ele>430.8</ele>
        <time>2026-05-21T09:52:01.000Z</time>
      </trkpt>
      <trkpt lat="43.77601" lon="3.83545">
        <ele>430.5</ele>
        <time>2026-05-21T09:52:02.000Z</time>
      </trkpt>
      <trkpt lat="43.77601" lon="3.83545">
        <ele>430.2</ele>
        <time>2026-05-21T09:52:03.000Z</time>
      </trkpt>
      <trkpt lat="43.77601" lon="3.83545">
        <ele>429.8</ele>
        <time>2026-05-21T09:52:04.000Z</time>
      </trkpt>
      <trkpt lat="43.77601" lon="3.83545">
        <ele>429.4</ele>
        <time>2026-05-21T09:52:05.000Z</time>
      </trkpt>
      <trkpt lat="43.77601" lon="3.83545">
        <ele>429.1</ele>
        <time>2026-05-21T09:52:06.000Z</time>
      </trkpt>
      <trkpt lat="43.77601" lon="3.83546">
        <ele>428.5</ele>
        <time>2026-05-21T09:52:07.000Z</time>
      </trkpt>
      <trkpt lat="43.77601" lon="3.83546">
        <ele>428.1</ele>
        <time>2026-05-21T09:52:08.000Z</time>
      </trkpt>
      <trkpt lat="43.77601" lon="3.83546">
        <ele>427.9</ele>
        <time>2026-05-21T09:52:09.000Z</time>
      </trkpt>
      <trkpt lat="43.77601" lon="3.83546">
        <ele>427.9</ele>
        <time>2026-05-21T09:52:10.000Z</time>
      </trkpt>
      <trkpt lat="43.77601" lon="3.83546">
        <ele>427.8</ele>
        <time>2026-05-21T09:52:11.000Z</time>
      </trkpt>
      <trkpt lat="43.77601" lon="3.83546">
        <ele>427.7</ele>
        <time>2026-05-21T09:52:12.000Z</time>
      </trkpt>
      <trkpt lat="43.77601" lon="3.83546">
        <ele>427.5</ele>
        <time>2026-05-21T09:52:13.000Z</time>
      </trkpt>
      <trkpt lat="43.77601" lon="3.83546">
        <ele>427.5</ele>
        <time>2026-05-21T09:52:14.000Z</time>
      </trkpt>
      <trkpt lat="43.77601" lon="3.83546">
        <ele>427.5</ele>
        <time>2026-05-21T09:52:15.000Z</time>
      </trkpt>
      <trkpt lat="43.77601" lon="3.83546">
        <ele>427.6</ele>
        <time>2026-05-21T09:52:16.000Z</time>
      </trkpt>
      <trkpt lat="43.77601" lon="3.83546">
        <ele>427.7</ele>
        <time>2026-05-21T09:52:17.000Z</time>
      </trkpt>
      <trkpt lat="43.77601" lon="3.83546">
        <ele>427.8</ele>
        <time>2026-05-21T09:52:18.000Z</time>
      </trkpt>
      <trkpt lat="43.77601" lon="3.83546">
        <ele>427.8</ele>
        <time>2026-05-21T09:52:19.000Z</time>
      </trkpt>
      <trkpt lat="43.77601" lon="3.83546">
        <ele>428</ele>
        <time>2026-05-21T09:52:20.000Z</time>
      </trkpt>
      <trkpt lat="43.77601" lon="3.83546">
        <ele>428.1</ele>
        <time>2026-05-21T09:52:21.000Z</time>
      </trkpt>
      <trkpt lat="43.77601" lon="3.83546">
        <ele>428.3</ele>
        <time>2026-05-21T09:52:22.000Z</time>
      </trkpt>
      <trkpt lat="43.77601" lon="3.83546">
        <ele>428.5</ele>
        <time>2026-05-21T09:52:23.000Z</time>
      </trkpt>
      <trkpt lat="43.77601" lon="3.83545">
        <ele>428.7</ele>
        <time>2026-05-21T09:52:24.000Z</time>
      </trkpt>
      <trkpt lat="43.77601" lon="3.83545">
        <ele>428.7</ele>
        <time>2026-05-21T09:52:25.000Z</time>
      </trkpt>
      <trkpt lat="43.77601" lon="3.83545">
        <ele>428.7</ele>
        <time>2026-05-21T09:52:26.000Z</time>
      </trkpt>
      <trkpt lat="43.77601" lon="3.83546">
        <ele>429</ele>
        <time>2026-05-21T09:52:27.000Z</time>
      </trkpt>
      <trkpt lat="43.77601" lon="3.83546">
        <ele>429</ele>
        <time>2026-05-21T09:52:28.000Z</time>
      </trkpt>
      <trkpt lat="43.77601" lon="3.83546">
        <ele>429.1</ele>
        <time>2026-05-21T09:52:29.000Z</time>
      </trkpt>
      <trkpt lat="43.77601" lon="3.83546">
        <ele>429.1</ele>
        <time>2026-05-21T09:52:30.000Z</time>
      </trkpt>
      <trkpt lat="43.77601" lon="3.83546">
        <ele>429.2</ele>
        <time>2026-05-21T09:52:31.000Z</time>
      </trkpt>
      <trkpt lat="43.77601" lon="3.83546">
        <ele>429.2</ele>
        <time>2026-05-21T09:52:32.000Z</time>
      </trkpt>
      <trkpt lat="43.77601" lon="3.83546">
        <ele>429.3</ele>
        <time>2026-05-21T09:52:33.000Z</time>
      </trkpt>
      <trkpt lat="43.77601" lon="3.83546">
        <ele>429.3</ele>
        <time>2026-05-21T09:52:34.000Z</time>
      </trkpt>
      <trkpt lat="43.77601" lon="3.83546">
        <ele>429.4</ele>
        <time>2026-05-21T09:52:35.000Z</time>
      </trkpt>
      <trkpt lat="43.77601" lon="3.83546">
        <ele>429.4</ele>
        <time>2026-05-21T09:52:36.000Z</time>
      </trkpt>
      <trkpt lat="43.77601" lon="3.83546">
        <ele>429.4</ele>
        <time>2026-05-21T09:52:37.000Z</time>
      </trkpt>
      <trkpt lat="43.77601" lon="3.83546">
        <ele>429.5</ele>
        <time>2026-05-21T09:52:38.000Z</time>
      </trkpt>
      <trkpt lat="43.77601" lon="3.83546">
        <ele>429.7</ele>
        <time>2026-05-21T09:52:39.000Z</time>
      </trkpt>
      <trkpt lat="43.77601" lon="3.83546">
        <ele>429.9</ele>
        <time>2026-05-21T09:52:40.000Z</time>
      </trkpt>
      <trkpt lat="43.77601" lon="3.83546">
        <ele>430</ele>
        <time>2026-05-21T09:52:41.000Z</time>
      </trkpt>
      <trkpt lat="43.77601" lon="3.83546">
        <ele>430.2</ele>
        <time>2026-05-21T09:52:42.000Z</time>
      </trkpt>
      <trkpt lat="43.77601" lon="3.83546">
        <ele>430.3</ele>
        <time>2026-05-21T09:52:43.000Z</time>
      </trkpt>
      <trkpt lat="43.77601" lon="3.83546">
        <ele>430.3</ele>
        <time>2026-05-21T09:52:44.000Z</time>
      </trkpt>
      <trkpt lat="43.77601" lon="3.83546">
        <ele>430.4</ele>
        <time>2026-05-21T09:52:45.000Z</time>
      </trkpt>
      <trkpt lat="43.77601" lon="3.83546">
        <ele>430.5</ele>
        <time>2026-05-21T09:52:46.000Z</time>
      </trkpt>
      <trkpt lat="43.77601" lon="3.83546">
        <ele>430.6</ele>
        <time>2026-05-21T09:52:47.000Z</time>
      </trkpt>
      <trkpt lat="43.77601" lon="3.83546">
        <ele>430.6</ele>
        <time>2026-05-21T09:52:48.000Z</time>
      </trkpt>
      <trkpt lat="43.77601" lon="3.83546">
        <ele>430.8</ele>
        <time>2026-05-21T09:52:49.000Z</time>
      </trkpt>
      <trkpt lat="43.77601" lon="3.83546">
        <ele>431</ele>
        <time>2026-05-21T09:52:50.000Z</time>
      </trkpt>
      <trkpt lat="43.77601" lon="3.83546">
        <ele>431.1</ele>
        <time>2026-05-21T09:52:51.000Z</time>
      </trkpt>
      <trkpt lat="43.77601" lon="3.83546">
        <ele>431.3</ele>
        <time>2026-05-21T09:52:52.000Z</time>
      </trkpt>
      <trkpt lat="43.77601" lon="3.83546">
        <ele>431.4</ele>
        <time>2026-05-21T09:52:53.000Z</time>
      </trkpt>
      <trkpt lat="43.77601" lon="3.83546">
        <ele>431.6</ele>
        <time>2026-05-21T09:52:54.000Z</time>
      </trkpt>
      <trkpt lat="43.77601" lon="3.83546">
        <ele>431.9</ele>
        <time>2026-05-21T09:52:55.000Z</time>
      </trkpt>
      <trkpt lat="43.77601" lon="3.83546">
        <ele>432.1</ele>
        <time>2026-05-21T09:52:56.000Z</time>
      </trkpt>
      <trkpt lat="43.77601" lon="3.83546">
        <ele>432.2</ele>
        <time>2026-05-21T09:52:57.000Z</time>
      </trkpt>
      <trkpt lat="43.77601" lon="3.83546">
        <ele>432.2</ele>
        <time>2026-05-21T09:52:58.000Z</time>
      </trkpt>
      <trkpt lat="43.77601" lon="3.83546">
        <ele>432.3</ele>
        <time>2026-05-21T09:52:59.000Z</time>
      </trkpt>
      <trkpt lat="43.77601" lon="3.83546">
        <ele>432.4</ele>
        <time>2026-05-21T09:53:00.000Z</time>
      </trkpt>
      <trkpt lat="43.77601" lon="3.83546">
        <ele>432.4</ele>
        <time>2026-05-21T09:53:01.000Z</time>
      </trkpt>
      <trkpt lat="43.77601" lon="3.83546">
        <ele>432.5</ele>
        <time>2026-05-21T09:53:02.000Z</time>
      </trkpt>
      <trkpt lat="43.77601" lon="3.83546">
        <ele>432.6</ele>
        <time>2026-05-21T09:53:03.000Z</time>
      </trkpt>
      <trkpt lat="43.77601" lon="3.83546">
        <ele>432.7</ele>
        <time>2026-05-21T09:53:04.000Z</time>
      </trkpt>
      <trkpt lat="43.77601" lon="3.83546">
        <ele>432.8</ele>
        <time>2026-05-21T09:53:05.000Z</time>
      </trkpt>
      <trkpt lat="43.77601" lon="3.83546">
        <ele>433.1</ele>
        <time>2026-05-21T09:53:06.000Z</time>
      </trkpt>
      <trkpt lat="43.77601" lon="3.83546">
        <ele>433.3</ele>
        <time>2026-05-21T09:53:07.000Z</time>
      </trkpt>
      <trkpt lat="43.77601" lon="3.83546">
        <ele>433.4</ele>
        <time>2026-05-21T09:53:08.000Z</time>
      </trkpt>
      <trkpt lat="43.77601" lon="3.83546">
        <ele>433.6</ele>
        <time>2026-05-21T09:53:09.000Z</time>
      </trkpt>
      <trkpt lat="43.77601" lon="3.83546">
        <ele>433.7</ele>
        <time>2026-05-21T09:53:10.000Z</time>
      </trkpt>
      <trkpt lat="43.77601" lon="3.83546">
        <ele>433.7</ele>
        <time>2026-05-21T09:53:11.000Z</time>
      </trkpt>
      <trkpt lat="43.77601" lon="3.83546">
        <ele>433.8</ele>
        <time>2026-05-21T09:53:12.000Z</time>
      </trkpt>
      <trkpt lat="43.77601" lon="3.83546">
        <ele>433.9</ele>
        <time>2026-05-21T09:53:13.000Z</time>
      </trkpt>
      <trkpt lat="43.77601" lon="3.83546">
        <ele>434.1</ele>
        <time>2026-05-21T09:53:14.000Z</time>
      </trkpt>
      <trkpt lat="43.77601" lon="3.83546">
        <ele>434.2</ele>
        <time>2026-05-21T09:53:15.000Z</time>
      </trkpt>
      <trkpt lat="43.77601" lon="3.83546">
        <ele>434.3</ele>
        <time>2026-05-21T09:53:16.000Z</time>
      </trkpt>
      <trkpt lat="43.77601" lon="3.83546">
        <ele>434.1</ele>
        <time>2026-05-21T09:53:17.000Z</time>
      </trkpt>
      <trkpt lat="43.77601" lon="3.83546">
        <ele>434.1</ele>
        <time>2026-05-21T09:53:18.000Z</time>
      </trkpt>
      <trkpt lat="43.77601" lon="3.83546">
        <ele>434.2</ele>
        <time>2026-05-21T09:53:19.000Z</time>
      </trkpt>
      <trkpt lat="43.77601" lon="3.83546">
        <ele>434.3</ele>
        <time>2026-05-21T09:53:20.000Z</time>
      </trkpt>
      <trkpt lat="43.77601" lon="3.83545">
        <ele>434.4</ele>
        <time>2026-05-21T09:53:21.000Z</time>
      </trkpt>
      <trkpt lat="43.77601" lon="3.83545">
        <ele>434.2</ele>
        <time>2026-05-21T09:53:22.000Z</time>
      </trkpt>
      <trkpt lat="43.77601" lon="3.83545">
        <ele>434</ele>
        <time>2026-05-21T09:53:23.000Z</time>
      </trkpt>
      <trkpt lat="43.77601" lon="3.83545">
        <ele>433.9</ele>
        <time>2026-05-21T09:53:24.000Z</time>
      </trkpt>
      <trkpt lat="43.77601" lon="3.83545">
        <ele>433.6</ele>
        <time>2026-05-21T09:53:25.000Z</time>
      </trkpt>
      <trkpt lat="43.77601" lon="3.83545">
        <ele>433.4</ele>
        <time>2026-05-21T09:53:26.000Z</time>
      </trkpt>
      <trkpt lat="43.77601" lon="3.83545">
        <ele>433.6</ele>
        <time>2026-05-21T09:53:27.000Z</time>
      </trkpt>
      <trkpt lat="43.77601" lon="3.83545">
        <ele>433.7</ele>
        <time>2026-05-21T09:53:28.000Z</time>
      </trkpt>
      <trkpt lat="43.776" lon="3.83545">
        <ele>433.6</ele>
        <time>2026-05-21T09:53:29.000Z</time>
      </trkpt>
      <trkpt lat="43.77601" lon="3.83545">
        <ele>433.5</ele>
        <time>2026-05-21T09:53:30.000Z</time>
      </trkpt>
      <trkpt lat="43.776" lon="3.83545">
        <ele>433.4</ele>
        <time>2026-05-21T09:53:31.000Z</time>
      </trkpt>
      <trkpt lat="43.776" lon="3.83545">
        <ele>433.3</ele>
        <time>2026-05-21T09:53:32.000Z</time>
      </trkpt>
      <trkpt lat="43.776" lon="3.83545">
        <ele>433.6</ele>
        <time>2026-05-21T09:53:33.000Z</time>
      </trkpt>
      <trkpt lat="43.776" lon="3.83544">
        <ele>433.6</ele>
        <time>2026-05-21T09:53:34.000Z</time>
      </trkpt>
      <trkpt lat="43.776" lon="3.83544">
        <ele>433.7</ele>
        <time>2026-05-21T09:53:35.000Z</time>
      </trkpt>
      <trkpt lat="43.776" lon="3.83544">
        <ele>433.7</ele>
        <time>2026-05-21T09:53:36.000Z</time>
      </trkpt>
      <trkpt lat="43.776" lon="3.83544">
        <ele>433.8</ele>
        <time>2026-05-21T09:53:37.000Z</time>
      </trkpt>
      <trkpt lat="43.776" lon="3.83544">
        <ele>434.1</ele>
        <time>2026-05-21T09:53:38.000Z</time>
      </trkpt>
      <trkpt lat="43.77601" lon="3.83544">
        <ele>434.2</ele>
        <time>2026-05-21T09:53:39.000Z</time>
      </trkpt>
      <trkpt lat="43.77601" lon="3.83544">
        <ele>434.4</ele>
        <time>2026-05-21T09:53:40.000Z</time>
      </trkpt>
      <trkpt lat="43.77601" lon="3.83544">
        <ele>434.3</ele>
        <time>2026-05-21T09:53:41.000Z</time>
      </trkpt>
      <trkpt lat="43.77601" lon="3.83544">
        <ele>434.2</ele>
        <time>2026-05-21T09:53:42.000Z</time>
      </trkpt>
      <trkpt lat="43.77601" lon="3.83544">
        <ele>434.3</ele>
        <time>2026-05-21T09:53:43.000Z</time>
      </trkpt>
      <trkpt lat="43.776" lon="3.83544">
        <ele>434.2</ele>
        <time>2026-05-21T09:53:44.000Z</time>
      </trkpt>
      <trkpt lat="43.776" lon="3.83544">
        <ele>434.4</ele>
        <time>2026-05-21T09:53:45.000Z</time>
      </trkpt>
      <trkpt lat="43.776" lon="3.83544">
        <ele>434.6</ele>
        <time>2026-05-21T09:53:46.000Z</time>
      </trkpt>
      <trkpt lat="43.776" lon="3.83544">
        <ele>434.7</ele>
        <time>2026-05-21T09:53:47.000Z</time>
      </trkpt>
      <trkpt lat="43.776" lon="3.83543">
        <ele>434.7</ele>
        <time>2026-05-21T09:53:48.000Z</time>
      </trkpt>
      <trkpt lat="43.776" lon="3.83543">
        <ele>434.9</ele>
        <time>2026-05-21T09:53:49.000Z</time>
      </trkpt>
      <trkpt lat="43.776" lon="3.83543">
        <ele>435.1</ele>
        <time>2026-05-21T09:53:50.000Z</time>
      </trkpt>
      <trkpt lat="43.776" lon="3.83543">
        <ele>435.1</ele>
        <time>2026-05-21T09:53:51.000Z</time>
      </trkpt>
      <trkpt lat="43.776" lon="3.83543">
        <ele>435.2</ele>
        <time>2026-05-21T09:53:52.000Z</time>
      </trkpt>
      <trkpt lat="43.776" lon="3.83543">
        <ele>435.3</ele>
        <time>2026-05-21T09:53:53.000Z</time>
      </trkpt>
      <trkpt lat="43.776" lon="3.83543">
        <ele>435.4</ele>
        <time>2026-05-21T09:53:54.000Z</time>
      </trkpt>
      <trkpt lat="43.776" lon="3.83543">
        <ele>435.5</ele>
        <time>2026-05-21T09:53:55.000Z</time>
      </trkpt>
      <trkpt lat="43.776" lon="3.83543">
        <ele>435.5</ele>
        <time>2026-05-21T09:53:56.000Z</time>
      </trkpt>
      <trkpt lat="43.776" lon="3.83543">
        <ele>435.4</ele>
        <time>2026-05-21T09:53:57.000Z</time>
      </trkpt>
      <trkpt lat="43.776" lon="3.83543">
        <ele>435.5</ele>
        <time>2026-05-21T09:53:58.000Z</time>
      </trkpt>
      <trkpt lat="43.776" lon="3.83543">
        <ele>435.6</ele>
        <time>2026-05-21T09:53:59.000Z</time>
      </trkpt>
      <trkpt lat="43.776" lon="3.83543">
        <ele>435.6</ele>
        <time>2026-05-21T09:54:00.000Z</time>
      </trkpt>
      <trkpt lat="43.776" lon="3.83543">
        <ele>435.6</ele>
        <time>2026-05-21T09:54:01.000Z</time>
      </trkpt>
      <trkpt lat="43.776" lon="3.83543">
        <ele>435.7</ele>
        <time>2026-05-21T09:54:02.000Z</time>
      </trkpt>
      <trkpt lat="43.776" lon="3.83543">
        <ele>435.6</ele>
        <time>2026-05-21T09:54:03.000Z</time>
      </trkpt>
      <trkpt lat="43.776" lon="3.83543">
        <ele>435.5</ele>
        <time>2026-05-21T09:54:04.000Z</time>
      </trkpt>
      <trkpt lat="43.776" lon="3.83543">
        <ele>435.5</ele>
        <time>2026-05-21T09:54:05.000Z</time>
      </trkpt>
      <trkpt lat="43.776" lon="3.83543">
        <ele>435.5</ele>
        <time>2026-05-21T09:54:06.000Z</time>
      </trkpt>
      <trkpt lat="43.776" lon="3.83543">
        <ele>435.3</ele>
        <time>2026-05-21T09:54:07.000Z</time>
      </trkpt>
      <trkpt lat="43.776" lon="3.83543">
        <ele>435</ele>
        <time>2026-05-21T09:54:08.000Z</time>
      </trkpt>
      <trkpt lat="43.776" lon="3.83543">
        <ele>434.8</ele>
        <time>2026-05-21T09:54:09.000Z</time>
      </trkpt>
      <trkpt lat="43.776" lon="3.83543">
        <ele>434.7</ele>
        <time>2026-05-21T09:54:10.000Z</time>
      </trkpt>
      <trkpt lat="43.776" lon="3.83543">
        <ele>434.5</ele>
        <time>2026-05-21T09:54:11.000Z</time>
      </trkpt>
      <trkpt lat="43.776" lon="3.83543">
        <ele>434.6</ele>
        <time>2026-05-21T09:54:12.000Z</time>
      </trkpt>
      <trkpt lat="43.776" lon="3.83543">
        <ele>434.7</ele>
        <time>2026-05-21T09:54:13.000Z</time>
      </trkpt>
      <trkpt lat="43.776" lon="3.83543">
        <ele>434.4</ele>
        <time>2026-05-21T09:54:14.000Z</time>
      </trkpt>
      <trkpt lat="43.776" lon="3.83543">
        <ele>434.5</ele>
        <time>2026-05-21T09:54:15.000Z</time>
      </trkpt>
      <trkpt lat="43.776" lon="3.83543">
        <ele>435</ele>
        <time>2026-05-21T09:54:16.000Z</time>
      </trkpt>
      <trkpt lat="43.776" lon="3.83543">
        <ele>435.2</ele>
        <time>2026-05-21T09:54:17.000Z</time>
      </trkpt>
      <trkpt lat="43.776" lon="3.83543">
        <ele>435.2</ele>
        <time>2026-05-21T09:54:18.000Z</time>
      </trkpt>
      <trkpt lat="43.776" lon="3.83543">
        <ele>435.3</ele>
        <time>2026-05-21T09:54:19.000Z</time>
      </trkpt>
      <trkpt lat="43.776" lon="3.83543">
        <ele>435.4</ele>
        <time>2026-05-21T09:54:20.000Z</time>
      </trkpt>
      <trkpt lat="43.776" lon="3.83543">
        <ele>435.4</ele>
        <time>2026-05-21T09:54:21.000Z</time>
      </trkpt>
      <trkpt lat="43.776" lon="3.83543">
        <ele>435.3</ele>
        <time>2026-05-21T09:54:22.000Z</time>
      </trkpt>
      <trkpt lat="43.776" lon="3.83543">
        <ele>435.4</ele>
        <time>2026-05-21T09:54:23.000Z</time>
      </trkpt>
      <trkpt lat="43.776" lon="3.83543">
        <ele>435.6</ele>
        <time>2026-05-21T09:54:24.000Z</time>
      </trkpt>
      <trkpt lat="43.776" lon="3.83543">
        <ele>435.7</ele>
        <time>2026-05-21T09:54:25.000Z</time>
      </trkpt>
      <trkpt lat="43.776" lon="3.83543">
        <ele>435.6</ele>
        <time>2026-05-21T09:54:26.000Z</time>
      </trkpt>
      <trkpt lat="43.776" lon="3.83543">
        <ele>435.6</ele>
        <time>2026-05-21T09:54:27.000Z</time>
      </trkpt>
      <trkpt lat="43.776" lon="3.83543">
        <ele>435.7</ele>
        <time>2026-05-21T09:54:28.000Z</time>
      </trkpt>
      <trkpt lat="43.776" lon="3.83543">
        <ele>435.9</ele>
        <time>2026-05-21T09:54:29.000Z</time>
      </trkpt>
      <trkpt lat="43.776" lon="3.83543">
        <ele>435.9</ele>
        <time>2026-05-21T09:54:30.000Z</time>
      </trkpt>
      <trkpt lat="43.776" lon="3.83543">
        <ele>435.9</ele>
        <time>2026-05-21T09:54:31.000Z</time>
      </trkpt>
      <trkpt lat="43.776" lon="3.83542">
        <ele>436</ele>
        <time>2026-05-21T09:54:32.000Z</time>
      </trkpt>
      <trkpt lat="43.776" lon="3.83542">
        <ele>435.8</ele>
        <time>2026-05-21T09:54:33.000Z</time>
      </trkpt>
      <trkpt lat="43.776" lon="3.83541">
        <ele>435.5</ele>
        <time>2026-05-21T09:54:34.000Z</time>
      </trkpt>
      <trkpt lat="43.776" lon="3.83541">
        <ele>435.6</ele>
        <time>2026-05-21T09:54:35.000Z</time>
      </trkpt>
      <trkpt lat="43.776" lon="3.83541">
        <ele>435.6</ele>
        <time>2026-05-21T09:54:36.000Z</time>
      </trkpt>
      <trkpt lat="43.776" lon="3.83541">
        <ele>435.4</ele>
        <time>2026-05-21T09:54:37.000Z</time>
      </trkpt>
      <trkpt lat="43.776" lon="3.83541">
        <ele>435.4</ele>
        <time>2026-05-21T09:54:38.000Z</time>
      </trkpt>
      <trkpt lat="43.776" lon="3.83541">
        <ele>435.4</ele>
        <time>2026-05-21T09:54:39.000Z</time>
      </trkpt>
      <trkpt lat="43.776" lon="3.83541">
        <ele>435.3</ele>
        <time>2026-05-21T09:54:40.000Z</time>
      </trkpt>
      <trkpt lat="43.776" lon="3.83541">
        <ele>435.2</ele>
        <time>2026-05-21T09:54:41.000Z</time>
      </trkpt>
      <trkpt lat="43.776" lon="3.83541">
        <ele>435.1</ele>
        <time>2026-05-21T09:54:42.000Z</time>
      </trkpt>
      <trkpt lat="43.776" lon="3.83541">
        <ele>434.8</ele>
        <time>2026-05-21T09:54:43.000Z</time>
      </trkpt>
      <trkpt lat="43.776" lon="3.83541">
        <ele>434.5</ele>
        <time>2026-05-21T09:54:44.000Z</time>
      </trkpt>
      <trkpt lat="43.776" lon="3.83541">
        <ele>434.3</ele>
        <time>2026-05-21T09:54:45.000Z</time>
      </trkpt>
      <trkpt lat="43.776" lon="3.83541">
        <ele>434</ele>
        <time>2026-05-21T09:54:46.000Z</time>
      </trkpt>
      <trkpt lat="43.776" lon="3.83541">
        <ele>433.8</ele>
        <time>2026-05-21T09:54:47.000Z</time>
      </trkpt>
      <trkpt lat="43.776" lon="3.83541">
        <ele>433.5</ele>
        <time>2026-05-21T09:54:48.000Z</time>
      </trkpt>
      <trkpt lat="43.776" lon="3.83541">
        <ele>433.5</ele>
        <time>2026-05-21T09:54:49.000Z</time>
      </trkpt>
      <trkpt lat="43.776" lon="3.83542">
        <ele>433.6</ele>
        <time>2026-05-21T09:54:50.000Z</time>
      </trkpt>
      <trkpt lat="43.776" lon="3.83542">
        <ele>433.2</ele>
        <time>2026-05-21T09:54:51.000Z</time>
      </trkpt>
      <trkpt lat="43.776" lon="3.83543">
        <ele>432.9</ele>
        <time>2026-05-21T09:54:52.000Z</time>
      </trkpt>
      <trkpt lat="43.776" lon="3.83543">
        <ele>432.9</ele>
        <time>2026-05-21T09:54:53.000Z</time>
      </trkpt>
      <trkpt lat="43.776" lon="3.83543">
        <ele>432.5</ele>
        <time>2026-05-21T09:54:54.000Z</time>
      </trkpt>
      <trkpt lat="43.776" lon="3.83543">
        <ele>432.4</ele>
        <time>2026-05-21T09:54:55.000Z</time>
      </trkpt>
      <trkpt lat="43.776" lon="3.83543">
        <ele>432.6</ele>
        <time>2026-05-21T09:54:56.000Z</time>
      </trkpt>
      <trkpt lat="43.776" lon="3.83543">
        <ele>432.7</ele>
        <time>2026-05-21T09:54:57.000Z</time>
      </trkpt>
      <trkpt lat="43.77601" lon="3.83544">
        <ele>432.7</ele>
        <time>2026-05-21T09:54:58.000Z</time>
      </trkpt>
      <trkpt lat="43.77601" lon="3.83544">
        <ele>432.8</ele>
        <time>2026-05-21T09:54:59.000Z</time>
      </trkpt>
      <trkpt lat="43.77601" lon="3.83544">
        <ele>432.6</ele>
        <time>2026-05-21T09:55:00.000Z</time>
      </trkpt>
      <trkpt lat="43.77601" lon="3.83544">
        <ele>432.8</ele>
        <time>2026-05-21T09:55:01.000Z</time>
      </trkpt>
      <trkpt lat="43.77601" lon="3.83544">
        <ele>433</ele>
        <time>2026-05-21T09:55:02.000Z</time>
      </trkpt>
      <trkpt lat="43.77601" lon="3.83544">
        <ele>433.1</ele>
        <time>2026-05-21T09:55:03.000Z</time>
      </trkpt>
      <trkpt lat="43.77601" lon="3.83544">
        <ele>433.3</ele>
        <time>2026-05-21T09:55:04.000Z</time>
      </trkpt>
      <trkpt lat="43.77601" lon="3.83544">
        <ele>433.2</ele>
        <time>2026-05-21T09:55:05.000Z</time>
      </trkpt>
      <trkpt lat="43.77601" lon="3.83544">
        <ele>433.1</ele>
        <time>2026-05-21T09:55:06.000Z</time>
      </trkpt>
      <trkpt lat="43.77601" lon="3.83544">
        <ele>433</ele>
        <time>2026-05-21T09:55:07.000Z</time>
      </trkpt>
      <trkpt lat="43.77601" lon="3.83544">
        <ele>433.2</ele>
        <time>2026-05-21T09:55:08.000Z</time>
      </trkpt>
      <trkpt lat="43.77601" lon="3.83544">
        <ele>433.3</ele>
        <time>2026-05-21T09:55:09.000Z</time>
      </trkpt>
      <trkpt lat="43.77601" lon="3.83544">
        <ele>433.5</ele>
        <time>2026-05-21T09:55:10.000Z</time>
      </trkpt>
      <trkpt lat="43.77601" lon="3.83544">
        <ele>433.6</ele>
        <time>2026-05-21T09:55:11.000Z</time>
      </trkpt>
      <trkpt lat="43.77601" lon="3.83544">
        <ele>433.5</ele>
        <time>2026-05-21T09:55:12.000Z</time>
      </trkpt>
      <trkpt lat="43.77601" lon="3.83544">
        <ele>433.3</ele>
        <time>2026-05-21T09:55:13.000Z</time>
      </trkpt>
      <trkpt lat="43.77601" lon="3.83544">
        <ele>433</ele>
        <time>2026-05-21T09:55:14.000Z</time>
      </trkpt>
      <trkpt lat="43.77601" lon="3.83544">
        <ele>433</ele>
        <time>2026-05-21T09:55:15.000Z</time>
      </trkpt>
      <trkpt lat="43.77601" lon="3.83544">
        <ele>433</ele>
        <time>2026-05-21T09:55:16.000Z</time>
      </trkpt>
      <trkpt lat="43.77601" lon="3.83544">
        <ele>433.1</ele>
        <time>2026-05-21T09:55:17.000Z</time>
      </trkpt>
      <trkpt lat="43.77601" lon="3.83544">
        <ele>433.1</ele>
        <time>2026-05-21T09:55:18.000Z</time>
      </trkpt>
      <trkpt lat="43.77601" lon="3.83544">
        <ele>433.1</ele>
        <time>2026-05-21T09:55:19.000Z</time>
      </trkpt>
      <trkpt lat="43.77601" lon="3.83544">
        <ele>432.9</ele>
        <time>2026-05-21T09:55:20.000Z</time>
      </trkpt>
      <trkpt lat="43.77601" lon="3.83544">
        <ele>432.7</ele>
        <time>2026-05-21T09:55:21.000Z</time>
      </trkpt>
      <trkpt lat="43.77601" lon="3.83544">
        <ele>432.8</ele>
        <time>2026-05-21T09:55:22.000Z</time>
      </trkpt>
      <trkpt lat="43.77601" lon="3.83544">
        <ele>432.9</ele>
        <time>2026-05-21T09:55:23.000Z</time>
      </trkpt>
      <trkpt lat="43.77601" lon="3.83544">
        <ele>432.7</ele>
        <time>2026-05-21T09:55:24.000Z</time>
      </trkpt>
      <trkpt lat="43.77601" lon="3.83544">
        <ele>432.8</ele>
        <time>2026-05-21T09:55:25.000Z</time>
      </trkpt>
      <trkpt lat="43.77601" lon="3.83544">
        <ele>432.9</ele>
        <time>2026-05-21T09:55:26.000Z</time>
      </trkpt>
      <trkpt lat="43.77601" lon="3.83544">
        <ele>432.9</ele>
        <time>2026-05-21T09:55:27.000Z</time>
      </trkpt>
      <trkpt lat="43.77601" lon="3.83544">
        <ele>432.9</ele>
        <time>2026-05-21T09:55:28.000Z</time>
      </trkpt>
      <trkpt lat="43.77601" lon="3.83544">
        <ele>432.9</ele>
        <time>2026-05-21T09:55:29.000Z</time>
      </trkpt>
      <trkpt lat="43.77601" lon="3.83544">
        <ele>433</ele>
        <time>2026-05-21T09:55:30.000Z</time>
      </trkpt>
      <trkpt lat="43.77601" lon="3.83544">
        <ele>433.1</ele>
        <time>2026-05-21T09:55:31.000Z</time>
      </trkpt>
      <trkpt lat="43.77601" lon="3.83544">
        <ele>433.1</ele>
        <time>2026-05-21T09:55:32.000Z</time>
      </trkpt>
      <trkpt lat="43.77601" lon="3.83544">
        <ele>433.2</ele>
        <time>2026-05-21T09:55:33.000Z</time>
      </trkpt>
      <trkpt lat="43.77601" lon="3.83544">
        <ele>433.3</ele>
        <time>2026-05-21T09:55:34.000Z</time>
      </trkpt>
      <trkpt lat="43.77601" lon="3.83544">
        <ele>433.4</ele>
        <time>2026-05-21T09:55:35.000Z</time>
      </trkpt>
      <trkpt lat="43.77601" lon="3.83544">
        <ele>433.3</ele>
        <time>2026-05-21T09:55:36.000Z</time>
      </trkpt>
      <trkpt lat="43.77601" lon="3.83544">
        <ele>433.3</ele>
        <time>2026-05-21T09:55:37.000Z</time>
      </trkpt>
      <trkpt lat="43.77601" lon="3.83544">
        <ele>433.4</ele>
        <time>2026-05-21T09:55:38.000Z</time>
      </trkpt>
      <trkpt lat="43.77601" lon="3.83544">
        <ele>433.4</ele>
        <time>2026-05-21T09:55:39.000Z</time>
      </trkpt>
      <trkpt lat="43.77601" lon="3.83544">
        <ele>433.4</ele>
        <time>2026-05-21T09:55:40.000Z</time>
      </trkpt>
      <trkpt lat="43.77601" lon="3.83544">
        <ele>433.5</ele>
        <time>2026-05-21T09:55:41.000Z</time>
      </trkpt>
      <trkpt lat="43.77601" lon="3.83545">
        <ele>433.9</ele>
        <time>2026-05-21T09:55:42.000Z</time>
      </trkpt>
      <trkpt lat="43.77601" lon="3.83545">
        <ele>434.1</ele>
        <time>2026-05-21T09:55:43.000Z</time>
      </trkpt>
      <trkpt lat="43.77601" lon="3.83545">
        <ele>434</ele>
        <time>2026-05-21T09:55:44.000Z</time>
      </trkpt>
      <trkpt lat="43.77601" lon="3.83545">
        <ele>433.7</ele>
        <time>2026-05-21T09:55:45.000Z</time>
      </trkpt>
      <trkpt lat="43.77601" lon="3.83545">
        <ele>433.5</ele>
        <time>2026-05-21T09:55:46.000Z</time>
      </trkpt>
      <trkpt lat="43.77601" lon="3.83545">
        <ele>433.3</ele>
        <time>2026-05-21T09:55:47.000Z</time>
      </trkpt>
      <trkpt lat="43.77601" lon="3.83545">
        <ele>433</ele>
        <time>2026-05-21T09:55:48.000Z</time>
      </trkpt>
      <trkpt lat="43.77601" lon="3.83545">
        <ele>432.9</ele>
        <time>2026-05-21T09:55:49.000Z</time>
      </trkpt>
      <trkpt lat="43.77601" lon="3.83545">
        <ele>432.9</ele>
        <time>2026-05-21T09:55:50.000Z</time>
      </trkpt>
      <trkpt lat="43.77601" lon="3.83545">
        <ele>432.8</ele>
        <time>2026-05-21T09:55:51.000Z</time>
      </trkpt>
      <trkpt lat="43.77601" lon="3.83545">
        <ele>432.9</ele>
        <time>2026-05-21T09:55:52.000Z</time>
      </trkpt>
      <trkpt lat="43.77601" lon="3.83545">
        <ele>433</ele>
        <time>2026-05-21T09:55:53.000Z</time>
      </trkpt>
      <trkpt lat="43.77601" lon="3.83545">
        <ele>432.9</ele>
        <time>2026-05-21T09:55:54.000Z</time>
      </trkpt>
      <trkpt lat="43.77601" lon="3.83545">
        <ele>432.8</ele>
        <time>2026-05-21T09:55:55.000Z</time>
      </trkpt>
      <trkpt lat="43.77601" lon="3.83545">
        <ele>432.6</ele>
        <time>2026-05-21T09:55:56.000Z</time>
      </trkpt>
      <trkpt lat="43.77601" lon="3.83545">
        <ele>432.5</ele>
        <time>2026-05-21T09:55:57.000Z</time>
      </trkpt>
      <trkpt lat="43.77601" lon="3.83545">
        <ele>432.5</ele>
        <time>2026-05-21T09:55:58.000Z</time>
      </trkpt>
      <trkpt lat="43.77601" lon="3.83545">
        <ele>432.5</ele>
        <time>2026-05-21T09:55:59.000Z</time>
      </trkpt>
      <trkpt lat="43.77601" lon="3.83545">
        <ele>432.3</ele>
        <time>2026-05-21T09:56:00.000Z</time>
      </trkpt>
      <trkpt lat="43.77601" lon="3.83545">
        <ele>432.1</ele>
        <time>2026-05-21T09:56:01.000Z</time>
      </trkpt>
      <trkpt lat="43.77601" lon="3.83545">
        <ele>431.9</ele>
        <time>2026-05-21T09:56:02.000Z</time>
      </trkpt>
      <trkpt lat="43.77601" lon="3.83545">
        <ele>431.9</ele>
        <time>2026-05-21T09:56:03.000Z</time>
      </trkpt>
      <trkpt lat="43.77601" lon="3.83544">
        <ele>432.1</ele>
        <time>2026-05-21T09:56:04.000Z</time>
      </trkpt>
      <trkpt lat="43.77601" lon="3.83544">
        <ele>432.2</ele>
        <time>2026-05-21T09:56:05.000Z</time>
      </trkpt>
      <trkpt lat="43.77601" lon="3.83544">
        <ele>432.1</ele>
        <time>2026-05-21T09:56:06.000Z</time>
      </trkpt>
      <trkpt lat="43.77601" lon="3.83544">
        <ele>432.1</ele>
        <time>2026-05-21T09:56:07.000Z</time>
      </trkpt>
      <trkpt lat="43.77601" lon="3.83544">
        <ele>432.3</ele>
        <time>2026-05-21T09:56:08.000Z</time>
      </trkpt>
      <trkpt lat="43.77601" lon="3.83544">
        <ele>432.5</ele>
        <time>2026-05-21T09:56:09.000Z</time>
      </trkpt>
      <trkpt lat="43.77601" lon="3.83544">
        <ele>433</ele>
        <time>2026-05-21T09:56:10.000Z</time>
      </trkpt>
      <trkpt lat="43.77601" lon="3.83544">
        <ele>433.4</ele>
        <time>2026-05-21T09:56:11.000Z</time>
      </trkpt>
      <trkpt lat="43.77601" lon="3.83544">
        <ele>433.8</ele>
        <time>2026-05-21T09:56:12.000Z</time>
      </trkpt>
      <trkpt lat="43.77601" lon="3.83544">
        <ele>434.2</ele>
        <time>2026-05-21T09:56:13.000Z</time>
      </trkpt>
      <trkpt lat="43.77601" lon="3.83544">
        <ele>434.4</ele>
        <time>2026-05-21T09:56:14.000Z</time>
      </trkpt>
      <trkpt lat="43.77601" lon="3.83544">
        <ele>434.5</ele>
        <time>2026-05-21T09:56:15.000Z</time>
      </trkpt>
      <trkpt lat="43.77601" lon="3.83544">
        <ele>434.4</ele>
        <time>2026-05-21T09:56:16.000Z</time>
      </trkpt>
      <trkpt lat="43.77601" lon="3.83544">
        <ele>434.4</ele>
        <time>2026-05-21T09:56:17.000Z</time>
      </trkpt>
      <trkpt lat="43.77601" lon="3.83544">
        <ele>434.3</ele>
        <time>2026-05-21T09:56:18.000Z</time>
      </trkpt>
      <trkpt lat="43.77601" lon="3.83544">
        <ele>434.4</ele>
        <time>2026-05-21T09:56:19.000Z</time>
      </trkpt>
      <trkpt lat="43.77601" lon="3.83544">
        <ele>434.5</ele>
        <time>2026-05-21T09:56:20.000Z</time>
      </trkpt>
      <trkpt lat="43.77601" lon="3.83544">
        <ele>434.5</ele>
        <time>2026-05-21T09:56:21.000Z</time>
      </trkpt>
      <trkpt lat="43.77601" lon="3.83544">
        <ele>434.5</ele>
        <time>2026-05-21T09:56:22.000Z</time>
      </trkpt>
      <trkpt lat="43.77601" lon="3.83544">
        <ele>434.6</ele>
        <time>2026-05-21T09:56:23.000Z</time>
      </trkpt>
      <trkpt lat="43.77601" lon="3.83544">
        <ele>434.8</ele>
        <time>2026-05-21T09:56:24.000Z</time>
      </trkpt>
      <trkpt lat="43.77601" lon="3.83544">
        <ele>434.8</ele>
        <time>2026-05-21T09:56:25.000Z</time>
      </trkpt>
      <trkpt lat="43.77601" lon="3.83544">
        <ele>434.8</ele>
        <time>2026-05-21T09:56:26.000Z</time>
      </trkpt>
      <trkpt lat="43.776" lon="3.83544">
        <ele>434.9</ele>
        <time>2026-05-21T09:56:27.000Z</time>
      </trkpt>
      <trkpt lat="43.776" lon="3.83544">
        <ele>435</ele>
        <time>2026-05-21T09:56:28.000Z</time>
      </trkpt>
      <trkpt lat="43.776" lon="3.83544">
        <ele>435</ele>
        <time>2026-05-21T09:56:29.000Z</time>
      </trkpt>
      <trkpt lat="43.776" lon="3.83544">
        <ele>434.9</ele>
        <time>2026-05-21T09:56:30.000Z</time>
      </trkpt>
      <trkpt lat="43.776" lon="3.83544">
        <ele>434.9</ele>
        <time>2026-05-21T09:56:31.000Z</time>
      </trkpt>
      <trkpt lat="43.776" lon="3.83544">
        <ele>434.8</ele>
        <time>2026-05-21T09:56:32.000Z</time>
      </trkpt>
      <trkpt lat="43.776" lon="3.83544">
        <ele>434.9</ele>
        <time>2026-05-21T09:56:33.000Z</time>
      </trkpt>
      <trkpt lat="43.776" lon="3.83544">
        <ele>434.8</ele>
        <time>2026-05-21T09:56:34.000Z</time>
      </trkpt>
      <trkpt lat="43.776" lon="3.83544">
        <ele>435</ele>
        <time>2026-05-21T09:56:35.000Z</time>
      </trkpt>
      <trkpt lat="43.776" lon="3.83544">
        <ele>435</ele>
        <time>2026-05-21T09:56:36.000Z</time>
      </trkpt>
      <trkpt lat="43.776" lon="3.83544">
        <ele>434.9</ele>
        <time>2026-05-21T09:56:37.000Z</time>
      </trkpt>
      <trkpt lat="43.776" lon="3.83544">
        <ele>434.9</ele>
        <time>2026-05-21T09:56:38.000Z</time>
      </trkpt>
      <trkpt lat="43.776" lon="3.83544">
        <ele>435.1</ele>
        <time>2026-05-21T09:56:39.000Z</time>
      </trkpt>
      <trkpt lat="43.776" lon="3.83544">
        <ele>435.3</ele>
        <time>2026-05-21T09:56:40.000Z</time>
      </trkpt>
      <trkpt lat="43.776" lon="3.83544">
        <ele>435.3</ele>
        <time>2026-05-21T09:56:41.000Z</time>
      </trkpt>
      <trkpt lat="43.776" lon="3.83543">
        <ele>435.4</ele>
        <time>2026-05-21T09:56:42.000Z</time>
      </trkpt>
      <trkpt lat="43.776" lon="3.83543">
        <ele>435.4</ele>
        <time>2026-05-21T09:56:43.000Z</time>
      </trkpt>
      <trkpt lat="43.776" lon="3.83543">
        <ele>435.3</ele>
        <time>2026-05-21T09:56:44.000Z</time>
      </trkpt>
      <trkpt lat="43.77599" lon="3.83543">
        <ele>435.3</ele>
        <time>2026-05-21T09:56:45.000Z</time>
      </trkpt>
      <trkpt lat="43.77599" lon="3.83542">
        <ele>435.5</ele>
        <time>2026-05-21T09:56:46.000Z</time>
      </trkpt>
      <trkpt lat="43.77599" lon="3.83542">
        <ele>435.4</ele>
        <time>2026-05-21T09:56:47.000Z</time>
      </trkpt>
      <trkpt lat="43.77599" lon="3.83542">
        <ele>435.2</ele>
        <time>2026-05-21T09:56:48.000Z</time>
      </trkpt>
      <trkpt lat="43.77599" lon="3.83541">
        <ele>435.3</ele>
        <time>2026-05-21T09:56:49.000Z</time>
      </trkpt>
      <trkpt lat="43.77599" lon="3.83541">
        <ele>435.4</ele>
        <time>2026-05-21T09:56:50.000Z</time>
      </trkpt>
      <trkpt lat="43.77599" lon="3.83541">
        <ele>435.2</ele>
        <time>2026-05-21T09:56:51.000Z</time>
      </trkpt>
      <trkpt lat="43.77599" lon="3.83541">
        <ele>434.9</ele>
        <time>2026-05-21T09:56:52.000Z</time>
      </trkpt>
      <trkpt lat="43.77599" lon="3.83541">
        <ele>434.8</ele>
        <time>2026-05-21T09:56:53.000Z</time>
      </trkpt>
      <trkpt lat="43.77599" lon="3.83541">
        <ele>434.5</ele>
        <time>2026-05-21T09:56:54.000Z</time>
      </trkpt>
      <trkpt lat="43.77598" lon="3.83542">
        <ele>434.6</ele>
        <time>2026-05-21T09:56:55.000Z</time>
      </trkpt>
      <trkpt lat="43.77597" lon="3.83542">
        <ele>435.5</ele>
        <time>2026-05-21T09:56:56.000Z</time>
      </trkpt>
      <trkpt lat="43.77597" lon="3.83542">
        <ele>435.5</ele>
        <time>2026-05-21T09:56:57.000Z</time>
      </trkpt>
      <trkpt lat="43.77597" lon="3.83542">
        <ele>435.6</ele>
        <time>2026-05-21T09:56:58.000Z</time>
      </trkpt>
      <trkpt lat="43.77597" lon="3.83542">
        <ele>435.6</ele>
        <time>2026-05-21T09:56:59.000Z</time>
      </trkpt>
      <trkpt lat="43.77597" lon="3.83541">
        <ele>435.5</ele>
        <time>2026-05-21T09:57:00.000Z</time>
      </trkpt>
      <trkpt lat="43.77597" lon="3.83541">
        <ele>435.4</ele>
        <time>2026-05-21T09:57:01.000Z</time>
      </trkpt>
      <trkpt lat="43.77597" lon="3.83541">
        <ele>435.2</ele>
        <time>2026-05-21T09:57:02.000Z</time>
      </trkpt>
      <trkpt lat="43.77596" lon="3.83541">
        <ele>435.1</ele>
        <time>2026-05-21T09:57:03.000Z</time>
      </trkpt>
      <trkpt lat="43.77596" lon="3.83541">
        <ele>434.9</ele>
        <time>2026-05-21T09:57:04.000Z</time>
      </trkpt>
      <trkpt lat="43.77596" lon="3.83541">
        <ele>434.5</ele>
        <time>2026-05-21T09:57:06.000Z</time>
      </trkpt>
      <trkpt lat="43.77596" lon="3.83541">
        <ele>434.3</ele>
        <time>2026-05-21T09:57:07.000Z</time>
      </trkpt>
      <trkpt lat="43.77596" lon="3.83541">
        <ele>434.1</ele>
        <time>2026-05-21T09:57:08.000Z</time>
      </trkpt>
      <trkpt lat="43.77596" lon="3.83541">
        <ele>433.9</ele>
        <time>2026-05-21T09:57:09.000Z</time>
      </trkpt>
      <trkpt lat="43.77596" lon="3.83541">
        <ele>433.9</ele>
        <time>2026-05-21T09:57:10.000Z</time>
      </trkpt>
      <trkpt lat="43.77596" lon="3.83541">
        <ele>434</ele>
        <time>2026-05-21T09:57:11.000Z</time>
      </trkpt>
      <trkpt lat="43.77596" lon="3.83541">
        <ele>433.9</ele>
        <time>2026-05-21T09:57:12.000Z</time>
      </trkpt>
      <trkpt lat="43.77596" lon="3.83541">
        <ele>433.9</ele>
        <time>2026-05-21T09:57:13.000Z</time>
      </trkpt>
      <trkpt lat="43.77596" lon="3.83541">
        <ele>433.9</ele>
        <time>2026-05-21T09:57:14.000Z</time>
      </trkpt>
      <trkpt lat="43.77596" lon="3.83541">
        <ele>433.9</ele>
        <time>2026-05-21T09:57:15.000Z</time>
      </trkpt>
      <trkpt lat="43.77596" lon="3.83541">
        <ele>433.8</ele>
        <time>2026-05-21T09:57:16.000Z</time>
      </trkpt>
      <trkpt lat="43.77596" lon="3.83541">
        <ele>433.8</ele>
        <time>2026-05-21T09:57:17.000Z</time>
      </trkpt>
      <trkpt lat="43.77596" lon="3.83541">
        <ele>433.7</ele>
        <time>2026-05-21T09:57:18.000Z</time>
      </trkpt>
      <trkpt lat="43.77596" lon="3.83541">
        <ele>433.6</ele>
        <time>2026-05-21T09:57:19.000Z</time>
      </trkpt>
      <trkpt lat="43.77596" lon="3.83541">
        <ele>433.6</ele>
        <time>2026-05-21T09:57:20.000Z</time>
      </trkpt>
      <trkpt lat="43.77596" lon="3.83541">
        <ele>433.6</ele>
        <time>2026-05-21T09:57:21.000Z</time>
      </trkpt>
      <trkpt lat="43.77596" lon="3.83541">
        <ele>433.6</ele>
        <time>2026-05-21T09:57:22.000Z</time>
      </trkpt>
      <trkpt lat="43.77596" lon="3.83541">
        <ele>433.6</ele>
        <time>2026-05-21T09:57:23.000Z</time>
      </trkpt>
      <trkpt lat="43.77595" lon="3.83541">
        <ele>433.7</ele>
        <time>2026-05-21T09:57:24.000Z</time>
      </trkpt>
      <trkpt lat="43.77595" lon="3.83541">
        <ele>433.7</ele>
        <time>2026-05-21T09:57:26.000Z</time>
      </trkpt>
      <trkpt lat="43.77595" lon="3.83541">
        <ele>433.8</ele>
        <time>2026-05-21T09:57:27.000Z</time>
      </trkpt>
      <trkpt lat="43.77595" lon="3.83541">
        <ele>433.8</ele>
        <time>2026-05-21T09:57:28.000Z</time>
      </trkpt>
      <trkpt lat="43.77595" lon="3.83541">
        <ele>433.9</ele>
        <time>2026-05-21T09:57:29.000Z</time>
      </trkpt>
      <trkpt lat="43.77595" lon="3.83541">
        <ele>433.8</ele>
        <time>2026-05-21T09:57:30.000Z</time>
      </trkpt>
      <trkpt lat="43.77595" lon="3.83541">
        <ele>433.6</ele>
        <time>2026-05-21T09:57:31.000Z</time>
      </trkpt>
      <trkpt lat="43.77596" lon="3.83541">
        <ele>433.5</ele>
        <time>2026-05-21T09:57:32.000Z</time>
      </trkpt>
      <trkpt lat="43.77595" lon="3.83541">
        <ele>432.8</ele>
        <time>2026-05-21T09:57:33.000Z</time>
      </trkpt>
      <trkpt lat="43.77595" lon="3.83541">
        <ele>432.7</ele>
        <time>2026-05-21T09:57:34.000Z</time>
      </trkpt>
      <trkpt lat="43.77595" lon="3.83541">
        <ele>432.1</ele>
        <time>2026-05-21T09:57:35.000Z</time>
      </trkpt>
      <trkpt lat="43.77594" lon="3.83542">
        <ele>432.1</ele>
        <time>2026-05-21T09:57:36.000Z</time>
      </trkpt>
      <trkpt lat="43.77594" lon="3.83542">
        <ele>432.1</ele>
        <time>2026-05-21T09:57:37.000Z</time>
      </trkpt>
      <trkpt lat="43.77594" lon="3.83542">
        <ele>431.9</ele>
        <time>2026-05-21T09:57:38.000Z</time>
      </trkpt>
      <trkpt lat="43.77594" lon="3.83542">
        <ele>431.9</ele>
        <time>2026-05-21T09:57:39.000Z</time>
      </trkpt>
      <trkpt lat="43.77594" lon="3.83542">
        <ele>431.8</ele>
        <time>2026-05-21T09:57:40.000Z</time>
      </trkpt>
      <trkpt lat="43.77594" lon="3.83542">
        <ele>431.7</ele>
        <time>2026-05-21T09:57:41.000Z</time>
      </trkpt>
      <trkpt lat="43.77594" lon="3.83542">
        <ele>431.4</ele>
        <time>2026-05-21T09:57:42.000Z</time>
      </trkpt>
      <trkpt lat="43.77594" lon="3.83542">
        <ele>431.2</ele>
        <time>2026-05-21T09:57:43.000Z</time>
      </trkpt>
      <trkpt lat="43.77594" lon="3.83542">
        <ele>430.9</ele>
        <time>2026-05-21T09:57:44.000Z</time>
      </trkpt>
      <trkpt lat="43.77594" lon="3.83542">
        <ele>430.6</ele>
        <time>2026-05-21T09:57:45.000Z</time>
      </trkpt>
      <trkpt lat="43.77594" lon="3.83542">
        <ele>430.5</ele>
        <time>2026-05-21T09:57:46.000Z</time>
      </trkpt>
      <trkpt lat="43.77594" lon="3.83542">
        <ele>430.5</ele>
        <time>2026-05-21T09:57:47.000Z</time>
      </trkpt>
      <trkpt lat="43.77594" lon="3.83541">
        <ele>430.3</ele>
        <time>2026-05-21T09:57:48.000Z</time>
      </trkpt>
      <trkpt lat="43.77594" lon="3.83541">
        <ele>430.2</ele>
        <time>2026-05-21T09:57:49.000Z</time>
      </trkpt>
      <trkpt lat="43.77594" lon="3.83541">
        <ele>429.7</ele>
        <time>2026-05-21T09:57:50.000Z</time>
      </trkpt>
      <trkpt lat="43.77594" lon="3.83541">
        <ele>429.6</ele>
        <time>2026-05-21T09:57:51.000Z</time>
      </trkpt>
      <trkpt lat="43.77594" lon="3.83541">
        <ele>429.4</ele>
        <time>2026-05-21T09:57:52.000Z</time>
      </trkpt>
      <trkpt lat="43.77594" lon="3.83541">
        <ele>429.1</ele>
        <time>2026-05-21T09:57:53.000Z</time>
      </trkpt>
      <trkpt lat="43.77594" lon="3.83541">
        <ele>428.7</ele>
        <time>2026-05-21T09:57:54.000Z</time>
      </trkpt>
      <trkpt lat="43.77594" lon="3.83541">
        <ele>428.3</ele>
        <time>2026-05-21T09:57:55.000Z</time>
      </trkpt>
      <trkpt lat="43.77593" lon="3.8354">
        <ele>428.3</ele>
        <time>2026-05-21T09:57:56.000Z</time>
      </trkpt>
      <trkpt lat="43.77593" lon="3.83539">
        <ele>428</ele>
        <time>2026-05-21T09:57:57.000Z</time>
      </trkpt>
      <trkpt lat="43.77593" lon="3.83539">
        <ele>427.8</ele>
        <time>2026-05-21T09:57:58.000Z</time>
      </trkpt>
      <trkpt lat="43.77592" lon="3.83539">
        <ele>427.5</ele>
        <time>2026-05-21T09:57:59.000Z</time>
      </trkpt>
      <trkpt lat="43.77592" lon="3.83538">
        <ele>427.3</ele>
        <time>2026-05-21T09:58:00.000Z</time>
      </trkpt>
      <trkpt lat="43.77592" lon="3.83538">
        <ele>427</ele>
        <time>2026-05-21T09:58:01.000Z</time>
      </trkpt>
      <trkpt lat="43.77592" lon="3.83538">
        <ele>426.9</ele>
        <time>2026-05-21T09:58:02.000Z</time>
      </trkpt>
      <trkpt lat="43.77592" lon="3.83538">
        <ele>426.9</ele>
        <time>2026-05-21T09:58:03.000Z</time>
      </trkpt>
      <trkpt lat="43.77592" lon="3.83538">
        <ele>426.9</ele>
        <time>2026-05-21T09:58:04.000Z</time>
      </trkpt>
      <trkpt lat="43.77592" lon="3.83538">
        <ele>426.8</ele>
        <time>2026-05-21T09:58:05.000Z</time>
      </trkpt>
      <trkpt lat="43.77592" lon="3.83538">
        <ele>426.8</ele>
        <time>2026-05-21T09:58:06.000Z</time>
      </trkpt>
      <trkpt lat="43.77592" lon="3.83538">
        <ele>426.8</ele>
        <time>2026-05-21T09:58:07.000Z</time>
      </trkpt>
      <trkpt lat="43.77592" lon="3.83537">
        <ele>426.8</ele>
        <time>2026-05-21T09:58:08.000Z</time>
      </trkpt>
      <trkpt lat="43.77592" lon="3.83537">
        <ele>426.8</ele>
        <time>2026-05-21T09:58:09.000Z</time>
      </trkpt>
      <trkpt lat="43.77592" lon="3.83537">
        <ele>427</ele>
        <time>2026-05-21T09:58:10.000Z</time>
      </trkpt>
      <trkpt lat="43.77592" lon="3.83537">
        <ele>426.9</ele>
        <time>2026-05-21T09:58:11.000Z</time>
      </trkpt>
      <trkpt lat="43.77592" lon="3.83537">
        <ele>426.9</ele>
        <time>2026-05-21T09:58:12.000Z</time>
      </trkpt>
      <trkpt lat="43.77592" lon="3.83537">
        <ele>427</ele>
        <time>2026-05-21T09:58:13.000Z</time>
      </trkpt>
      <trkpt lat="43.77592" lon="3.83537">
        <ele>427</ele>
        <time>2026-05-21T09:58:14.000Z</time>
      </trkpt>
      <trkpt lat="43.77592" lon="3.83535">
        <ele>427.1</ele>
        <time>2026-05-21T09:58:15.000Z</time>
      </trkpt>
      <trkpt lat="43.77592" lon="3.83534">
        <ele>427.3</ele>
        <time>2026-05-21T09:58:16.000Z</time>
      </trkpt>
      <trkpt lat="43.77592" lon="3.83534">
        <ele>427.6</ele>
        <time>2026-05-21T09:58:17.000Z</time>
      </trkpt>
      <trkpt lat="43.77592" lon="3.83534">
        <ele>427.8</ele>
        <time>2026-05-21T09:58:18.000Z</time>
      </trkpt>
      <trkpt lat="43.77592" lon="3.83534">
        <ele>428</ele>
        <time>2026-05-21T09:58:19.000Z</time>
      </trkpt>
      <trkpt lat="43.77592" lon="3.83534">
        <ele>428.1</ele>
        <time>2026-05-21T09:58:20.000Z</time>
      </trkpt>
      <trkpt lat="43.77592" lon="3.83533">
        <ele>428.1</ele>
        <time>2026-05-21T09:58:21.000Z</time>
      </trkpt>
      <trkpt lat="43.77592" lon="3.83533">
        <ele>428.1</ele>
        <time>2026-05-21T09:58:22.000Z</time>
      </trkpt>
      <trkpt lat="43.77592" lon="3.83533">
        <ele>428</ele>
        <time>2026-05-21T09:58:23.000Z</time>
      </trkpt>
      <trkpt lat="43.77592" lon="3.83533">
        <ele>427.9</ele>
        <time>2026-05-21T09:58:24.000Z</time>
      </trkpt>
      <trkpt lat="43.77592" lon="3.83533">
        <ele>427.7</ele>
        <time>2026-05-21T09:58:25.000Z</time>
      </trkpt>
      <trkpt lat="43.77592" lon="3.83533">
        <ele>427.4</ele>
        <time>2026-05-21T09:58:26.000Z</time>
      </trkpt>
      <trkpt lat="43.77592" lon="3.83532">
        <ele>427.3</ele>
        <time>2026-05-21T09:58:27.000Z</time>
      </trkpt>
      <trkpt lat="43.77593" lon="3.83531">
        <ele>427.4</ele>
        <time>2026-05-21T09:58:28.000Z</time>
      </trkpt>
      <trkpt lat="43.77593" lon="3.83531">
        <ele>427.4</ele>
        <time>2026-05-21T09:58:29.000Z</time>
      </trkpt>
      <trkpt lat="43.77593" lon="3.8353">
        <ele>427.5</ele>
        <time>2026-05-21T09:58:30.000Z</time>
      </trkpt>
      <trkpt lat="43.77593" lon="3.8353">
        <ele>427.4</ele>
        <time>2026-05-21T09:58:31.000Z</time>
      </trkpt>
      <trkpt lat="43.77593" lon="3.8353">
        <ele>427.5</ele>
        <time>2026-05-21T09:58:32.000Z</time>
      </trkpt>
      <trkpt lat="43.77593" lon="3.8353">
        <ele>427.6</ele>
        <time>2026-05-21T09:58:33.000Z</time>
      </trkpt>
      <trkpt lat="43.77593" lon="3.8353">
        <ele>427.7</ele>
        <time>2026-05-21T09:58:34.000Z</time>
      </trkpt>
      <trkpt lat="43.77592" lon="3.8353">
        <ele>427.8</ele>
        <time>2026-05-21T09:58:35.000Z</time>
      </trkpt>
      <trkpt lat="43.77592" lon="3.8353">
        <ele>427.6</ele>
        <time>2026-05-21T09:58:36.000Z</time>
      </trkpt>
      <trkpt lat="43.77592" lon="3.8353">
        <ele>427.6</ele>
        <time>2026-05-21T09:58:37.000Z</time>
      </trkpt>
      <trkpt lat="43.77592" lon="3.83529">
        <ele>427.7</ele>
        <time>2026-05-21T09:58:38.000Z</time>
      </trkpt>
      <trkpt lat="43.77592" lon="3.83529">
        <ele>427.9</ele>
        <time>2026-05-21T09:58:39.000Z</time>
      </trkpt>
      <trkpt lat="43.77592" lon="3.83529">
        <ele>428.1</ele>
        <time>2026-05-21T09:58:40.000Z</time>
      </trkpt>
      <trkpt lat="43.77592" lon="3.83529">
        <ele>428</ele>
        <time>2026-05-21T09:58:41.000Z</time>
      </trkpt>
      <trkpt lat="43.77592" lon="3.83529">
        <ele>428</ele>
        <time>2026-05-21T09:58:42.000Z</time>
      </trkpt>
      <trkpt lat="43.77592" lon="3.83529">
        <ele>427.8</ele>
        <time>2026-05-21T09:58:43.000Z</time>
      </trkpt>
      <trkpt lat="43.77592" lon="3.83529">
        <ele>427.7</ele>
        <time>2026-05-21T09:58:44.000Z</time>
      </trkpt>
      <trkpt lat="43.77592" lon="3.83529">
        <ele>427.7</ele>
        <time>2026-05-21T09:58:45.000Z</time>
      </trkpt>
      <trkpt lat="43.77592" lon="3.83529">
        <ele>427.5</ele>
        <time>2026-05-21T09:58:46.000Z</time>
      </trkpt>
      <trkpt lat="43.77591" lon="3.83531">
        <ele>427.5</ele>
        <time>2026-05-21T09:58:47.000Z</time>
      </trkpt>
      <trkpt lat="43.77591" lon="3.83531">
        <ele>427.4</ele>
        <time>2026-05-21T09:58:48.000Z</time>
      </trkpt>
      <trkpt lat="43.7759" lon="3.83532">
        <ele>427.4</ele>
        <time>2026-05-21T09:58:49.000Z</time>
      </trkpt>
      <trkpt lat="43.7759" lon="3.83532">
        <ele>427.3</ele>
        <time>2026-05-21T09:58:50.000Z</time>
      </trkpt>
      <trkpt lat="43.7759" lon="3.83532">
        <ele>427.2</ele>
        <time>2026-05-21T09:58:51.000Z</time>
      </trkpt>
      <trkpt lat="43.7759" lon="3.83532">
        <ele>426.9</ele>
        <time>2026-05-21T09:58:52.000Z</time>
      </trkpt>
      <trkpt lat="43.7759" lon="3.83532">
        <ele>426.5</ele>
        <time>2026-05-21T09:58:53.000Z</time>
      </trkpt>
      <trkpt lat="43.7759" lon="3.83532">
        <ele>426.3</ele>
        <time>2026-05-21T09:58:54.000Z</time>
      </trkpt>
      <trkpt lat="43.77591" lon="3.83532">
        <ele>426.3</ele>
        <time>2026-05-21T09:58:55.000Z</time>
      </trkpt>
      <trkpt lat="43.7759" lon="3.83532">
        <ele>426.4</ele>
        <time>2026-05-21T09:58:56.000Z</time>
      </trkpt>
      <trkpt lat="43.7759" lon="3.83532">
        <ele>426.3</ele>
        <time>2026-05-21T09:58:57.000Z</time>
      </trkpt>
      <trkpt lat="43.7759" lon="3.83533">
        <ele>426.2</ele>
        <time>2026-05-21T09:58:58.000Z</time>
      </trkpt>
      <trkpt lat="43.77591" lon="3.83533">
        <ele>426.1</ele>
        <time>2026-05-21T09:58:59.000Z</time>
      </trkpt>
      <trkpt lat="43.77591" lon="3.83533">
        <ele>426.1</ele>
        <time>2026-05-21T09:59:00.000Z</time>
      </trkpt>
      <trkpt lat="43.7759" lon="3.83533">
        <ele>426</ele>
        <time>2026-05-21T09:59:01.000Z</time>
      </trkpt>
      <trkpt lat="43.77591" lon="3.83533">
        <ele>425.8</ele>
        <time>2026-05-21T09:59:02.000Z</time>
      </trkpt>
      <trkpt lat="43.77591" lon="3.83533">
        <ele>425.4</ele>
        <time>2026-05-21T09:59:03.000Z</time>
      </trkpt>
      <trkpt lat="43.77591" lon="3.83533">
        <ele>425.3</ele>
        <time>2026-05-21T09:59:04.000Z</time>
      </trkpt>
      <trkpt lat="43.77591" lon="3.83533">
        <ele>425.2</ele>
        <time>2026-05-21T09:59:05.000Z</time>
      </trkpt>
      <trkpt lat="43.77591" lon="3.83533">
        <ele>425.1</ele>
        <time>2026-05-21T09:59:06.000Z</time>
      </trkpt>
      <trkpt lat="43.77591" lon="3.83533">
        <ele>425.2</ele>
        <time>2026-05-21T09:59:07.000Z</time>
      </trkpt>
      <trkpt lat="43.77591" lon="3.83533">
        <ele>425.1</ele>
        <time>2026-05-21T09:59:08.000Z</time>
      </trkpt>
      <trkpt lat="43.77591" lon="3.83533">
        <ele>425.1</ele>
        <time>2026-05-21T09:59:09.000Z</time>
      </trkpt>
      <trkpt lat="43.77591" lon="3.83533">
        <ele>425.2</ele>
        <time>2026-05-21T09:59:10.000Z</time>
      </trkpt>
      <trkpt lat="43.77591" lon="3.83533">
        <ele>425</ele>
        <time>2026-05-21T09:59:11.000Z</time>
      </trkpt>
      <trkpt lat="43.77591" lon="3.83533">
        <ele>424.8</ele>
        <time>2026-05-21T09:59:12.000Z</time>
      </trkpt>
      <trkpt lat="43.77591" lon="3.83533">
        <ele>424.5</ele>
        <time>2026-05-21T09:59:13.000Z</time>
      </trkpt>
      <trkpt lat="43.77591" lon="3.83533">
        <ele>424.4</ele>
        <time>2026-05-21T09:59:14.000Z</time>
      </trkpt>
      <trkpt lat="43.77591" lon="3.83533">
        <ele>424.5</ele>
        <time>2026-05-21T09:59:15.000Z</time>
      </trkpt>
      <trkpt lat="43.7759" lon="3.83533">
        <ele>424.5</ele>
        <time>2026-05-21T09:59:16.000Z</time>
      </trkpt>
      <trkpt lat="43.7759" lon="3.83531">
        <ele>424.2</ele>
        <time>2026-05-21T09:59:17.000Z</time>
      </trkpt>
      <trkpt lat="43.7759" lon="3.8353">
        <ele>423.9</ele>
        <time>2026-05-21T09:59:18.000Z</time>
      </trkpt>
      <trkpt lat="43.7759" lon="3.83529">
        <ele>423.6</ele>
        <time>2026-05-21T09:59:19.000Z</time>
      </trkpt>
      <trkpt lat="43.7759" lon="3.83529">
        <ele>423.5</ele>
        <time>2026-05-21T09:59:20.000Z</time>
      </trkpt>
      <trkpt lat="43.7759" lon="3.83529">
        <ele>423.4</ele>
        <time>2026-05-21T09:59:21.000Z</time>
      </trkpt>
      <trkpt lat="43.7759" lon="3.83529">
        <ele>423.5</ele>
        <time>2026-05-21T09:59:22.000Z</time>
      </trkpt>
      <trkpt lat="43.7759" lon="3.83529">
        <ele>423.3</ele>
        <time>2026-05-21T09:59:23.000Z</time>
      </trkpt>
      <trkpt lat="43.7759" lon="3.83529">
        <ele>423.3</ele>
        <time>2026-05-21T09:59:24.000Z</time>
      </trkpt>
      <trkpt lat="43.7759" lon="3.83529">
        <ele>423.1</ele>
        <time>2026-05-21T09:59:25.000Z</time>
      </trkpt>
      <trkpt lat="43.7759" lon="3.83529">
        <ele>423.3</ele>
        <time>2026-05-21T09:59:26.000Z</time>
      </trkpt>
      <trkpt lat="43.7759" lon="3.83529">
        <ele>423</ele>
        <time>2026-05-21T09:59:27.000Z</time>
      </trkpt>
      <trkpt lat="43.7759" lon="3.83529">
        <ele>422.9</ele>
        <time>2026-05-21T09:59:28.000Z</time>
      </trkpt>
      <trkpt lat="43.7759" lon="3.83529">
        <ele>422.9</ele>
        <time>2026-05-21T09:59:29.000Z</time>
      </trkpt>
      <trkpt lat="43.7759" lon="3.83529">
        <ele>422.8</ele>
        <time>2026-05-21T09:59:30.000Z</time>
      </trkpt>
      <trkpt lat="43.7759" lon="3.83529">
        <ele>422.7</ele>
        <time>2026-05-21T09:59:31.000Z</time>
      </trkpt>
      <trkpt lat="43.7759" lon="3.83529">
        <ele>422.7</ele>
        <time>2026-05-21T09:59:32.000Z</time>
      </trkpt>
      <trkpt lat="43.77589" lon="3.83529">
        <ele>422.7</ele>
        <time>2026-05-21T09:59:33.000Z</time>
      </trkpt>
      <trkpt lat="43.77589" lon="3.83529">
        <ele>422.6</ele>
        <time>2026-05-21T09:59:34.000Z</time>
      </trkpt>
      <trkpt lat="43.77589" lon="3.83528">
        <ele>422.4</ele>
        <time>2026-05-21T09:59:35.000Z</time>
      </trkpt>
      <trkpt lat="43.77589" lon="3.83528">
        <ele>422.6</ele>
        <time>2026-05-21T09:59:36.000Z</time>
      </trkpt>
      <trkpt lat="43.77589" lon="3.83528">
        <ele>422.6</ele>
        <time>2026-05-21T09:59:37.000Z</time>
      </trkpt>
      <trkpt lat="43.77589" lon="3.83528">
        <ele>422.8</ele>
        <time>2026-05-21T09:59:38.000Z</time>
      </trkpt>
      <trkpt lat="43.77588" lon="3.83529">
        <ele>423.1</ele>
        <time>2026-05-21T09:59:39.000Z</time>
      </trkpt>
      <trkpt lat="43.77588" lon="3.8353">
        <ele>422.9</ele>
        <time>2026-05-21T09:59:40.000Z</time>
      </trkpt>
      <trkpt lat="43.77588" lon="3.8353">
        <ele>423.2</ele>
        <time>2026-05-21T09:59:41.000Z</time>
      </trkpt>
      <trkpt lat="43.77588" lon="3.83531">
        <ele>423.2</ele>
        <time>2026-05-21T09:59:42.000Z</time>
      </trkpt>
      <trkpt lat="43.77588" lon="3.8353">
        <ele>423.2</ele>
        <time>2026-05-21T09:59:43.000Z</time>
      </trkpt>
      <trkpt lat="43.77589" lon="3.8353">
        <ele>423.3</ele>
        <time>2026-05-21T09:59:44.000Z</time>
      </trkpt>
      <trkpt lat="43.77589" lon="3.8353">
        <ele>423.1</ele>
        <time>2026-05-21T09:59:45.000Z</time>
      </trkpt>
      <trkpt lat="43.77589" lon="3.8353">
        <ele>422.9</ele>
        <time>2026-05-21T09:59:46.000Z</time>
      </trkpt>
      <trkpt lat="43.77589" lon="3.8353">
        <ele>422.5</ele>
        <time>2026-05-21T09:59:47.000Z</time>
      </trkpt>
      <trkpt lat="43.77589" lon="3.8353">
        <ele>422.1</ele>
        <time>2026-05-21T09:59:48.000Z</time>
      </trkpt>
      <trkpt lat="43.77589" lon="3.8353">
        <ele>421.6</ele>
        <time>2026-05-21T09:59:49.000Z</time>
      </trkpt>
      <trkpt lat="43.77589" lon="3.83529">
        <ele>421.3</ele>
        <time>2026-05-21T09:59:50.000Z</time>
      </trkpt>
      <trkpt lat="43.77589" lon="3.83529">
        <ele>421</ele>
        <time>2026-05-21T09:59:51.000Z</time>
      </trkpt>
      <trkpt lat="43.77589" lon="3.83529">
        <ele>420.9</ele>
        <time>2026-05-21T09:59:52.000Z</time>
      </trkpt>
      <trkpt lat="43.77589" lon="3.83529">
        <ele>420.7</ele>
        <time>2026-05-21T09:59:53.000Z</time>
      </trkpt>
      <trkpt lat="43.77589" lon="3.83528">
        <ele>420.7</ele>
        <time>2026-05-21T09:59:54.000Z</time>
      </trkpt>
      <trkpt lat="43.77589" lon="3.83526">
        <ele>420.7</ele>
        <time>2026-05-21T09:59:55.000Z</time>
      </trkpt>
      <trkpt lat="43.77589" lon="3.83525">
        <ele>420.6</ele>
        <time>2026-05-21T09:59:56.000Z</time>
      </trkpt>
      <trkpt lat="43.77589" lon="3.83524">
        <ele>420.5</ele>
        <time>2026-05-21T09:59:57.000Z</time>
      </trkpt>
      <trkpt lat="43.77589" lon="3.83523">
        <ele>420.4</ele>
        <time>2026-05-21T09:59:58.000Z</time>
      </trkpt>
      <trkpt lat="43.77589" lon="3.83522">
        <ele>420.4</ele>
        <time>2026-05-21T09:59:59.000Z</time>
      </trkpt>
      <trkpt lat="43.77589" lon="3.83522">
        <ele>420.4</ele>
        <time>2026-05-21T10:00:00.000Z</time>
      </trkpt>
      <trkpt lat="43.77589" lon="3.83521">
        <ele>420.5</ele>
        <time>2026-05-21T10:00:01.000Z</time>
      </trkpt>
      <trkpt lat="43.77589" lon="3.8352">
        <ele>420.6</ele>
        <time>2026-05-21T10:00:02.000Z</time>
      </trkpt>
      <trkpt lat="43.77589" lon="3.83518">
        <ele>420.8</ele>
        <time>2026-05-21T10:00:03.000Z</time>
      </trkpt>
      <trkpt lat="43.77588" lon="3.83516">
        <ele>421</ele>
        <time>2026-05-21T10:00:04.999Z</time>
      </trkpt>
      <trkpt lat="43.77589" lon="3.83515">
        <ele>421.2</ele>
        <time>2026-05-21T10:00:05.999Z</time>
      </trkpt>
      <trkpt lat="43.77589" lon="3.83515">
        <ele>421.3</ele>
        <time>2026-05-21T10:00:06.999Z</time>
      </trkpt>
      <trkpt lat="43.77588" lon="3.83515">
        <ele>421</ele>
        <time>2026-05-21T10:00:07.999Z</time>
      </trkpt>
      <trkpt lat="43.77589" lon="3.83515">
        <ele>420.9</ele>
        <time>2026-05-21T10:00:08.999Z</time>
      </trkpt>
      <trkpt lat="43.77589" lon="3.83515">
        <ele>420.9</ele>
        <time>2026-05-21T10:00:09.999Z</time>
      </trkpt>
      <trkpt lat="43.77589" lon="3.83515">
        <ele>421</ele>
        <time>2026-05-21T10:00:10.999Z</time>
      </trkpt>
      <trkpt lat="43.77589" lon="3.83515">
        <ele>421</ele>
        <time>2026-05-21T10:00:11.999Z</time>
      </trkpt>
      <trkpt lat="43.77589" lon="3.83515">
        <ele>421.1</ele>
        <time>2026-05-21T10:00:12.999Z</time>
      </trkpt>
      <trkpt lat="43.77589" lon="3.83515">
        <ele>421.1</ele>
        <time>2026-05-21T10:00:13.999Z</time>
      </trkpt>
      <trkpt lat="43.77589" lon="3.83515">
        <ele>421.2</ele>
        <time>2026-05-21T10:00:14.999Z</time>
      </trkpt>
      <trkpt lat="43.77589" lon="3.83515">
        <ele>421.4</ele>
        <time>2026-05-21T10:00:15.999Z</time>
      </trkpt>
      <trkpt lat="43.77589" lon="3.83515">
        <ele>421.3</ele>
        <time>2026-05-21T10:00:16.999Z</time>
      </trkpt>
      <trkpt lat="43.77589" lon="3.83514">
        <ele>421.1</ele>
        <time>2026-05-21T10:00:17.999Z</time>
      </trkpt>
      <trkpt lat="43.77589" lon="3.83514">
        <ele>421</ele>
        <time>2026-05-21T10:00:18.999Z</time>
      </trkpt>
      <trkpt lat="43.77589" lon="3.83513">
        <ele>420.9</ele>
        <time>2026-05-21T10:00:19.999Z</time>
      </trkpt>
      <trkpt lat="43.77588" lon="3.83511">
        <ele>420.7</ele>
        <time>2026-05-21T10:00:20.999Z</time>
      </trkpt>
      <trkpt lat="43.77587" lon="3.83511">
        <ele>420.5</ele>
        <time>2026-05-21T10:00:21.999Z</time>
      </trkpt>
      <trkpt lat="43.77586" lon="3.83512">
        <ele>420.3</ele>
        <time>2026-05-21T10:00:22.999Z</time>
      </trkpt>
      <trkpt lat="43.77586" lon="3.83512">
        <ele>420.2</ele>
        <time>2026-05-21T10:00:23.999Z</time>
      </trkpt>
      <trkpt lat="43.77585" lon="3.83512">
        <ele>420.1</ele>
        <time>2026-05-21T10:00:24.999Z</time>
      </trkpt>
      <trkpt lat="43.77586" lon="3.83513">
        <ele>420</ele>
        <time>2026-05-21T10:00:25.999Z</time>
      </trkpt>
      <trkpt lat="43.77586" lon="3.83513">
        <ele>419.8</ele>
        <time>2026-05-21T10:00:26.999Z</time>
      </trkpt>
      <trkpt lat="43.77586" lon="3.83514">
        <ele>419.8</ele>
        <time>2026-05-21T10:00:27.999Z</time>
      </trkpt>
      <trkpt lat="43.77586" lon="3.83514">
        <ele>420</ele>
        <time>2026-05-21T10:00:28.999Z</time>
      </trkpt>
      <trkpt lat="43.77586" lon="3.83514">
        <ele>419.9</ele>
        <time>2026-05-21T10:00:29.999Z</time>
      </trkpt>
      <trkpt lat="43.77586" lon="3.83514">
        <ele>419.9</ele>
        <time>2026-05-21T10:00:30.999Z</time>
      </trkpt>
      <trkpt lat="43.77586" lon="3.83514">
        <ele>419.9</ele>
        <time>2026-05-21T10:00:31.999Z</time>
      </trkpt>
      <trkpt lat="43.77586" lon="3.83514">
        <ele>420</ele>
        <time>2026-05-21T10:00:32.999Z</time>
      </trkpt>
      <trkpt lat="43.77586" lon="3.83514">
        <ele>420.1</ele>
        <time>2026-05-21T10:00:33.999Z</time>
      </trkpt>
      <trkpt lat="43.77586" lon="3.83514">
        <ele>420</ele>
        <time>2026-05-21T10:00:34.999Z</time>
      </trkpt>
      <trkpt lat="43.77587" lon="3.83514">
        <ele>420</ele>
        <time>2026-05-21T10:00:35.999Z</time>
      </trkpt>
      <trkpt lat="43.77587" lon="3.83513">
        <ele>420.2</ele>
        <time>2026-05-21T10:00:36.999Z</time>
      </trkpt>
      <trkpt lat="43.77587" lon="3.83513">
        <ele>420.2</ele>
        <time>2026-05-21T10:00:37.999Z</time>
      </trkpt>
      <trkpt lat="43.77588" lon="3.83512">
        <ele>420.2</ele>
        <time>2026-05-21T10:00:38.999Z</time>
      </trkpt>
      <trkpt lat="43.77589" lon="3.83511">
        <ele>420.5</ele>
        <time>2026-05-21T10:00:39.999Z</time>
      </trkpt>
      <trkpt lat="43.7759" lon="3.8351">
        <ele>420.6</ele>
        <time>2026-05-21T10:00:40.999Z</time>
      </trkpt>
      <trkpt lat="43.77589" lon="3.83509">
        <ele>420.6</ele>
        <time>2026-05-21T10:00:41.999Z</time>
      </trkpt>
      <trkpt lat="43.7759" lon="3.83509">
        <ele>420.5</ele>
        <time>2026-05-21T10:00:42.999Z</time>
      </trkpt>
      <trkpt lat="43.7759" lon="3.83509">
        <ele>420.4</ele>
        <time>2026-05-21T10:00:43.999Z</time>
      </trkpt>
      <trkpt lat="43.77591" lon="3.83508">
        <ele>420.3</ele>
        <time>2026-05-21T10:00:44.999Z</time>
      </trkpt>
      <trkpt lat="43.77591" lon="3.83509">
        <ele>420.2</ele>
        <time>2026-05-21T10:00:45.999Z</time>
      </trkpt>
      <trkpt lat="43.77591" lon="3.83509">
        <ele>420.8</ele>
        <time>2026-05-21T10:00:46.999Z</time>
      </trkpt>
      <trkpt lat="43.77591" lon="3.83509">
        <ele>420.8</ele>
        <time>2026-05-21T10:00:47.999Z</time>
      </trkpt>
      <trkpt lat="43.77591" lon="3.83509">
        <ele>420.7</ele>
        <time>2026-05-21T10:00:48.999Z</time>
      </trkpt>
      <trkpt lat="43.77591" lon="3.83509">
        <ele>420.6</ele>
        <time>2026-05-21T10:00:49.999Z</time>
      </trkpt>
      <trkpt lat="43.77592" lon="3.83509">
        <ele>420.6</ele>
        <time>2026-05-21T10:00:50.999Z</time>
      </trkpt>
      <trkpt lat="43.77592" lon="3.83509">
        <ele>420.6</ele>
        <time>2026-05-21T10:00:51.999Z</time>
      </trkpt>
      <trkpt lat="43.77593" lon="3.83509">
        <ele>420.9</ele>
        <time>2026-05-21T10:00:52.999Z</time>
      </trkpt>
      <trkpt lat="43.77593" lon="3.83509">
        <ele>420.9</ele>
        <time>2026-05-21T10:00:53.999Z</time>
      </trkpt>
      <trkpt lat="43.77593" lon="3.83508">
        <ele>421</ele>
        <time>2026-05-21T10:00:54.999Z</time>
      </trkpt>
      <trkpt lat="43.77593" lon="3.83508">
        <ele>421</ele>
        <time>2026-05-21T10:00:55.999Z</time>
      </trkpt>
      <trkpt lat="43.77593" lon="3.83507">
        <ele>421.2</ele>
        <time>2026-05-21T10:00:56.999Z</time>
      </trkpt>
      <trkpt lat="43.77593" lon="3.83507">
        <ele>421.1</ele>
        <time>2026-05-21T10:00:57.999Z</time>
      </trkpt>
      <trkpt lat="43.77594" lon="3.83507">
        <ele>421.1</ele>
        <time>2026-05-21T10:00:58.999Z</time>
      </trkpt>
      <trkpt lat="43.77594" lon="3.83507">
        <ele>421.1</ele>
        <time>2026-05-21T10:00:59.999Z</time>
      </trkpt>
      <trkpt lat="43.77594" lon="3.83507">
        <ele>421.1</ele>
        <time>2026-05-21T10:01:00.999Z</time>
      </trkpt>
      <trkpt lat="43.77594" lon="3.83507">
        <ele>421.1</ele>
        <time>2026-05-21T10:01:01.999Z</time>
      </trkpt>
      <trkpt lat="43.77594" lon="3.83507">
        <ele>421.2</ele>
        <time>2026-05-21T10:01:02.999Z</time>
      </trkpt>
      <trkpt lat="43.77594" lon="3.83507">
        <ele>421.3</ele>
        <time>2026-05-21T10:01:03.999Z</time>
      </trkpt>
      <trkpt lat="43.77594" lon="3.83507">
        <ele>421.2</ele>
        <time>2026-05-21T10:01:04.999Z</time>
      </trkpt>
      <trkpt lat="43.77594" lon="3.83507">
        <ele>421.2</ele>
        <time>2026-05-21T10:01:05.999Z</time>
      </trkpt>
      <trkpt lat="43.77594" lon="3.83507">
        <ele>421.2</ele>
        <time>2026-05-21T10:01:06.999Z</time>
      </trkpt>
      <trkpt lat="43.77594" lon="3.83507">
        <ele>421.1</ele>
        <time>2026-05-21T10:01:07.999Z</time>
      </trkpt>
      <trkpt lat="43.77594" lon="3.83507">
        <ele>421</ele>
        <time>2026-05-21T10:01:08.999Z</time>
      </trkpt>
      <trkpt lat="43.77594" lon="3.83507">
        <ele>420.8</ele>
        <time>2026-05-21T10:01:09.999Z</time>
      </trkpt>
      <trkpt lat="43.77594" lon="3.83507">
        <ele>420.9</ele>
        <time>2026-05-21T10:01:10.999Z</time>
      </trkpt>
      <trkpt lat="43.77594" lon="3.83508">
        <ele>421.2</ele>
        <time>2026-05-21T10:01:11.999Z</time>
      </trkpt>
      <trkpt lat="43.77594" lon="3.83508">
        <ele>421.5</ele>
        <time>2026-05-21T10:01:12.999Z</time>
      </trkpt>
      <trkpt lat="43.77594" lon="3.83508">
        <ele>421.6</ele>
        <time>2026-05-21T10:01:13.999Z</time>
      </trkpt>
      <trkpt lat="43.77594" lon="3.83508">
        <ele>421.7</ele>
        <time>2026-05-21T10:01:14.999Z</time>
      </trkpt>
      <trkpt lat="43.77594" lon="3.83508">
        <ele>421.9</ele>
        <time>2026-05-21T10:01:15.999Z</time>
      </trkpt>
      <trkpt lat="43.77594" lon="3.83508">
        <ele>422.1</ele>
        <time>2026-05-21T10:01:16.999Z</time>
      </trkpt>
      <trkpt lat="43.77595" lon="3.83508">
        <ele>422.2</ele>
        <time>2026-05-21T10:01:17.999Z</time>
      </trkpt>
      <trkpt lat="43.77595" lon="3.83508">
        <ele>422.2</ele>
        <time>2026-05-21T10:01:18.999Z</time>
      </trkpt>
      <trkpt lat="43.77595" lon="3.83508">
        <ele>422.1</ele>
        <time>2026-05-21T10:01:19.999Z</time>
      </trkpt>
      <trkpt lat="43.77595" lon="3.83508">
        <ele>422.2</ele>
        <time>2026-05-21T10:01:20.999Z</time>
      </trkpt>
      <trkpt lat="43.77595" lon="3.83508">
        <ele>422.2</ele>
        <time>2026-05-21T10:01:21.999Z</time>
      </trkpt>
      <trkpt lat="43.77595" lon="3.83508">
        <ele>422</ele>
        <time>2026-05-21T10:01:22.999Z</time>
      </trkpt>
      <trkpt lat="43.77595" lon="3.83508">
        <ele>421.9</ele>
        <time>2026-05-21T10:01:23.999Z</time>
      </trkpt>
      <trkpt lat="43.77595" lon="3.83509">
        <ele>422.2</ele>
        <time>2026-05-21T10:01:24.999Z</time>
      </trkpt>
      <trkpt lat="43.77595" lon="3.83509">
        <ele>422.4</ele>
        <time>2026-05-21T10:01:25.999Z</time>
      </trkpt>
      <trkpt lat="43.77595" lon="3.83509">
        <ele>422.4</ele>
        <time>2026-05-21T10:01:26.999Z</time>
      </trkpt>
      <trkpt lat="43.77595" lon="3.83509">
        <ele>422.8</ele>
        <time>2026-05-21T10:01:27.999Z</time>
      </trkpt>
      <trkpt lat="43.77595" lon="3.83509">
        <ele>422.7</ele>
        <time>2026-05-21T10:01:28.999Z</time>
      </trkpt>
      <trkpt lat="43.77595" lon="3.83509">
        <ele>422.5</ele>
        <time>2026-05-21T10:01:29.999Z</time>
      </trkpt>
      <trkpt lat="43.77595" lon="3.83509">
        <ele>422.4</ele>
        <time>2026-05-21T10:01:30.999Z</time>
      </trkpt>
      <trkpt lat="43.77595" lon="3.83509">
        <ele>422.3</ele>
        <time>2026-05-21T10:01:31.999Z</time>
      </trkpt>
      <trkpt lat="43.77595" lon="3.83509">
        <ele>422.2</ele>
        <time>2026-05-21T10:01:32.999Z</time>
      </trkpt>
      <trkpt lat="43.77595" lon="3.83508">
        <ele>422.2</ele>
        <time>2026-05-21T10:01:33.999Z</time>
      </trkpt>
      <trkpt lat="43.77595" lon="3.83508">
        <ele>422.2</ele>
        <time>2026-05-21T10:01:34.999Z</time>
      </trkpt>
      <trkpt lat="43.77595" lon="3.83509">
        <ele>422.4</ele>
        <time>2026-05-21T10:01:35.999Z</time>
      </trkpt>
      <trkpt lat="43.77595" lon="3.83509">
        <ele>422.7</ele>
        <time>2026-05-21T10:01:36.999Z</time>
      </trkpt>
      <trkpt lat="43.77595" lon="3.83509">
        <ele>422.9</ele>
        <time>2026-05-21T10:01:37.999Z</time>
      </trkpt>
      <trkpt lat="43.77595" lon="3.8351">
        <ele>423</ele>
        <time>2026-05-21T10:01:38.999Z</time>
      </trkpt>
      <trkpt lat="43.77595" lon="3.83508">
        <ele>423</ele>
        <time>2026-05-21T10:01:39.999Z</time>
      </trkpt>
      <trkpt lat="43.77595" lon="3.83507">
        <ele>423.1</ele>
        <time>2026-05-21T10:01:40.999Z</time>
      </trkpt>
      <trkpt lat="43.77594" lon="3.83507">
        <ele>423.1</ele>
        <time>2026-05-21T10:01:41.999Z</time>
      </trkpt>
      <trkpt lat="43.77594" lon="3.83508">
        <ele>423.1</ele>
        <time>2026-05-21T10:01:42.999Z</time>
      </trkpt>
      <trkpt lat="43.77594" lon="3.83508">
        <ele>423.3</ele>
        <time>2026-05-21T10:01:43.999Z</time>
      </trkpt>
      <trkpt lat="43.77594" lon="3.83508">
        <ele>423.4</ele>
        <time>2026-05-21T10:01:44.999Z</time>
      </trkpt>
      <trkpt lat="43.77594" lon="3.83508">
        <ele>423.6</ele>
        <time>2026-05-21T10:01:45.999Z</time>
      </trkpt>
      <trkpt lat="43.77594" lon="3.83508">
        <ele>423.7</ele>
        <time>2026-05-21T10:01:46.999Z</time>
      </trkpt>
      <trkpt lat="43.77594" lon="3.83508">
        <ele>423.9</ele>
        <time>2026-05-21T10:01:47.999Z</time>
      </trkpt>
      <trkpt lat="43.77594" lon="3.83508">
        <ele>424</ele>
        <time>2026-05-21T10:01:48.999Z</time>
      </trkpt>
      <trkpt lat="43.77594" lon="3.83508">
        <ele>424.2</ele>
        <time>2026-05-21T10:01:49.999Z</time>
      </trkpt>
      <trkpt lat="43.77594" lon="3.83507">
        <ele>424.3</ele>
        <time>2026-05-21T10:01:50.999Z</time>
      </trkpt>
      <trkpt lat="43.77594" lon="3.83506">
        <ele>424.3</ele>
        <time>2026-05-21T10:01:51.999Z</time>
      </trkpt>
      <trkpt lat="43.77594" lon="3.83505">
        <ele>424.1</ele>
        <time>2026-05-21T10:01:52.999Z</time>
      </trkpt>
      <trkpt lat="43.77595" lon="3.83504">
        <ele>424</ele>
        <time>2026-05-21T10:01:53.999Z</time>
      </trkpt>
      <trkpt lat="43.77595" lon="3.83504">
        <ele>423.7</ele>
        <time>2026-05-21T10:01:54.999Z</time>
      </trkpt>
      <trkpt lat="43.77595" lon="3.83504">
        <ele>423.5</ele>
        <time>2026-05-21T10:01:55.999Z</time>
      </trkpt>
      <trkpt lat="43.77595" lon="3.83504">
        <ele>423.6</ele>
        <time>2026-05-21T10:01:56.999Z</time>
      </trkpt>
      <trkpt lat="43.77596" lon="3.83504">
        <ele>423.7</ele>
        <time>2026-05-21T10:01:57.999Z</time>
      </trkpt>
      <trkpt lat="43.77597" lon="3.83504">
        <ele>423.7</ele>
        <time>2026-05-21T10:01:58.999Z</time>
      </trkpt>
      <trkpt lat="43.77597" lon="3.83505">
        <ele>423.4</ele>
        <time>2026-05-21T10:01:59.999Z</time>
      </trkpt>
      <trkpt lat="43.77598" lon="3.83505">
        <ele>423.3</ele>
        <time>2026-05-21T10:02:00.999Z</time>
      </trkpt>
      <trkpt lat="43.77598" lon="3.83505">
        <ele>423.3</ele>
        <time>2026-05-21T10:02:01.999Z</time>
      </trkpt>
      <trkpt lat="43.77598" lon="3.83505">
        <ele>423.4</ele>
        <time>2026-05-21T10:02:02.999Z</time>
      </trkpt>
      <trkpt lat="43.77598" lon="3.83505">
        <ele>423.5</ele>
        <time>2026-05-21T10:02:03.999Z</time>
      </trkpt>
      <trkpt lat="43.77598" lon="3.83505">
        <ele>423.6</ele>
        <time>2026-05-21T10:02:04.999Z</time>
      </trkpt>
      <trkpt lat="43.77598" lon="3.83506">
        <ele>423.7</ele>
        <time>2026-05-21T10:02:05.999Z</time>
      </trkpt>
      <trkpt lat="43.77598" lon="3.83505">
        <ele>423.4</ele>
        <time>2026-05-21T10:02:06.999Z</time>
      </trkpt>
      <trkpt lat="43.77597" lon="3.83504">
        <ele>423.3</ele>
        <time>2026-05-21T10:02:07.999Z</time>
      </trkpt>
      <trkpt lat="43.77597" lon="3.83504">
        <ele>423.3</ele>
        <time>2026-05-21T10:02:08.999Z</time>
      </trkpt>
      <trkpt lat="43.77596" lon="3.83504">
        <ele>423.6</ele>
        <time>2026-05-21T10:02:09.999Z</time>
      </trkpt>
      <trkpt lat="43.77596" lon="3.83504">
        <ele>423.6</ele>
        <time>2026-05-21T10:02:10.999Z</time>
      </trkpt>
      <trkpt lat="43.77596" lon="3.83504">
        <ele>423.6</ele>
        <time>2026-05-21T10:02:11.999Z</time>
      </trkpt>
      <trkpt lat="43.77596" lon="3.83503">
        <ele>423.5</ele>
        <time>2026-05-21T10:02:12.999Z</time>
      </trkpt>
      <trkpt lat="43.77596" lon="3.83504">
        <ele>423.3</ele>
        <time>2026-05-21T10:02:13.999Z</time>
      </trkpt>
      <trkpt lat="43.77597" lon="3.83505">
        <ele>423.1</ele>
        <time>2026-05-21T10:02:14.999Z</time>
      </trkpt>
      <trkpt lat="43.77597" lon="3.83506">
        <ele>423.2</ele>
        <time>2026-05-21T10:02:15.999Z</time>
      </trkpt>
      <trkpt lat="43.77597" lon="3.83506">
        <ele>423.2</ele>
        <time>2026-05-21T10:02:16.999Z</time>
      </trkpt>
      <trkpt lat="43.77597" lon="3.83506">
        <ele>423</ele>
        <time>2026-05-21T10:02:17.999Z</time>
      </trkpt>
      <trkpt lat="43.77597" lon="3.83506">
        <ele>422.8</ele>
        <time>2026-05-21T10:02:18.999Z</time>
      </trkpt>
      <trkpt lat="43.77597" lon="3.83506">
        <ele>423</ele>
        <time>2026-05-21T10:02:19.999Z</time>
      </trkpt>
      <trkpt lat="43.77597" lon="3.83506">
        <ele>423.2</ele>
        <time>2026-05-21T10:02:20.999Z</time>
      </trkpt>
      <trkpt lat="43.77597" lon="3.83506">
        <ele>423.3</ele>
        <time>2026-05-21T10:02:21.999Z</time>
      </trkpt>
      <trkpt lat="43.77596" lon="3.83506">
        <ele>423.4</ele>
        <time>2026-05-21T10:02:22.999Z</time>
      </trkpt>
      <trkpt lat="43.77596" lon="3.83506">
        <ele>423.5</ele>
        <time>2026-05-21T10:02:23.999Z</time>
      </trkpt>
      <trkpt lat="43.77596" lon="3.83506">
        <ele>423.6</ele>
        <time>2026-05-21T10:02:24.999Z</time>
      </trkpt>
      <trkpt lat="43.77596" lon="3.83506">
        <ele>423.8</ele>
        <time>2026-05-21T10:02:25.999Z</time>
      </trkpt>
      <trkpt lat="43.77596" lon="3.83506">
        <ele>423.9</ele>
        <time>2026-05-21T10:02:26.999Z</time>
      </trkpt>
      <trkpt lat="43.77595" lon="3.83506">
        <ele>423.6</ele>
        <time>2026-05-21T10:02:27.999Z</time>
      </trkpt>
      <trkpt lat="43.77595" lon="3.83506">
        <ele>423.6</ele>
        <time>2026-05-21T10:02:28.999Z</time>
      </trkpt>
      <trkpt lat="43.77595" lon="3.83506">
        <ele>423.5</ele>
        <time>2026-05-21T10:02:29.999Z</time>
      </trkpt>
      <trkpt lat="43.77595" lon="3.83506">
        <ele>423.5</ele>
        <time>2026-05-21T10:02:30.999Z</time>
      </trkpt>
      <trkpt lat="43.77595" lon="3.83506">
        <ele>423.5</ele>
        <time>2026-05-21T10:02:31.999Z</time>
      </trkpt>
      <trkpt lat="43.77595" lon="3.83505">
        <ele>423.4</ele>
        <time>2026-05-21T10:02:32.999Z</time>
      </trkpt>
      <trkpt lat="43.77595" lon="3.83504">
        <ele>423.4</ele>
        <time>2026-05-21T10:02:33.999Z</time>
      </trkpt>
      <trkpt lat="43.77595" lon="3.83503">
        <ele>423.3</ele>
        <time>2026-05-21T10:02:34.999Z</time>
      </trkpt>
      <trkpt lat="43.77595" lon="3.83502">
        <ele>423.1</ele>
        <time>2026-05-21T10:02:35.999Z</time>
      </trkpt>
      <trkpt lat="43.77594" lon="3.83502">
        <ele>423.4</ele>
        <time>2026-05-21T10:02:36.999Z</time>
      </trkpt>
      <trkpt lat="43.77594" lon="3.83501">
        <ele>423.7</ele>
        <time>2026-05-21T10:02:37.999Z</time>
      </trkpt>
      <trkpt lat="43.77593" lon="3.83502">
        <ele>423.8</ele>
        <time>2026-05-21T10:02:38.999Z</time>
      </trkpt>
      <trkpt lat="43.77594" lon="3.83502">
        <ele>424.1</ele>
        <time>2026-05-21T10:02:39.999Z</time>
      </trkpt>
      <trkpt lat="43.77593" lon="3.83502">
        <ele>424.1</ele>
        <time>2026-05-21T10:02:40.999Z</time>
      </trkpt>
      <trkpt lat="43.77594" lon="3.83502">
        <ele>424</ele>
        <time>2026-05-21T10:02:41.999Z</time>
      </trkpt>
      <trkpt lat="43.77594" lon="3.83502">
        <ele>424.6</ele>
        <time>2026-05-21T10:02:42.999Z</time>
      </trkpt>
      <trkpt lat="43.77594" lon="3.83502">
        <ele>424.6</ele>
        <time>2026-05-21T10:02:43.999Z</time>
      </trkpt>
      <trkpt lat="43.77594" lon="3.83502">
        <ele>424.8</ele>
        <time>2026-05-21T10:02:44.999Z</time>
      </trkpt>
      <trkpt lat="43.77595" lon="3.83502">
        <ele>424.9</ele>
        <time>2026-05-21T10:02:45.999Z</time>
      </trkpt>
      <trkpt lat="43.77595" lon="3.83502">
        <ele>425.2</ele>
        <time>2026-05-21T10:02:46.999Z</time>
      </trkpt>
      <trkpt lat="43.77595" lon="3.83502">
        <ele>425.4</ele>
        <time>2026-05-21T10:02:47.999Z</time>
      </trkpt>
      <trkpt lat="43.77595" lon="3.83502">
        <ele>425.4</ele>
        <time>2026-05-21T10:02:48.999Z</time>
      </trkpt>
      <trkpt lat="43.77595" lon="3.83502">
        <ele>425.3</ele>
        <time>2026-05-21T10:02:49.999Z</time>
      </trkpt>
      <trkpt lat="43.77595" lon="3.83502">
        <ele>425.6</ele>
        <time>2026-05-21T10:02:50.999Z</time>
      </trkpt>
      <trkpt lat="43.77594" lon="3.83502">
        <ele>425.6</ele>
        <time>2026-05-21T10:02:51.999Z</time>
      </trkpt>
      <trkpt lat="43.77595" lon="3.83501">
        <ele>425.3</ele>
        <time>2026-05-21T10:02:52.999Z</time>
      </trkpt>
      <trkpt lat="43.77595" lon="3.835">
        <ele>425.1</ele>
        <time>2026-05-21T10:02:53.999Z</time>
      </trkpt>
      <trkpt lat="43.77596" lon="3.835">
        <ele>424.8</ele>
        <time>2026-05-21T10:02:54.999Z</time>
      </trkpt>
      <trkpt lat="43.77596" lon="3.835">
        <ele>424.4</ele>
        <time>2026-05-21T10:02:55.999Z</time>
      </trkpt>
      <trkpt lat="43.77597" lon="3.83499">
        <ele>424.5</ele>
        <time>2026-05-21T10:02:56.999Z</time>
      </trkpt>
      <trkpt lat="43.77598" lon="3.835">
        <ele>424.3</ele>
        <time>2026-05-21T10:02:57.999Z</time>
      </trkpt>
      <trkpt lat="43.77598" lon="3.83499">
        <ele>424.4</ele>
        <time>2026-05-21T10:02:58.999Z</time>
      </trkpt>
      <trkpt lat="43.77598" lon="3.83499">
        <ele>424.4</ele>
        <time>2026-05-21T10:02:59.999Z</time>
      </trkpt>
      <trkpt lat="43.77598" lon="3.835">
        <ele>424.3</ele>
        <time>2026-05-21T10:03:00.999Z</time>
      </trkpt>
      <trkpt lat="43.77598" lon="3.835">
        <ele>424.2</ele>
        <time>2026-05-21T10:03:01.999Z</time>
      </trkpt>
      <trkpt lat="43.77598" lon="3.835">
        <ele>424.3</ele>
        <time>2026-05-21T10:03:02.999Z</time>
      </trkpt>
      <trkpt lat="43.77598" lon="3.835">
        <ele>424.4</ele>
        <time>2026-05-21T10:03:03.999Z</time>
      </trkpt>
      <trkpt lat="43.77598" lon="3.835">
        <ele>424.3</ele>
        <time>2026-05-21T10:03:04.999Z</time>
      </trkpt>
      <trkpt lat="43.77598" lon="3.835">
        <ele>424</ele>
        <time>2026-05-21T10:03:05.999Z</time>
      </trkpt>
      <trkpt lat="43.77598" lon="3.835">
        <ele>423.5</ele>
        <time>2026-05-21T10:03:06.999Z</time>
      </trkpt>
      <trkpt lat="43.77597" lon="3.835">
        <ele>423.4</ele>
        <time>2026-05-21T10:03:07.999Z</time>
      </trkpt>
      <trkpt lat="43.77597" lon="3.835">
        <ele>423.2</ele>
        <time>2026-05-21T10:03:08.999Z</time>
      </trkpt>
      <trkpt lat="43.77597" lon="3.835">
        <ele>423.3</ele>
        <time>2026-05-21T10:03:09.999Z</time>
      </trkpt>
      <trkpt lat="43.77597" lon="3.835">
        <ele>423.4</ele>
        <time>2026-05-21T10:03:10.999Z</time>
      </trkpt>
      <trkpt lat="43.77597" lon="3.835">
        <ele>423.7</ele>
        <time>2026-05-21T10:03:11.999Z</time>
      </trkpt>
      <trkpt lat="43.77597" lon="3.835">
        <ele>424</ele>
        <time>2026-05-21T10:03:12.999Z</time>
      </trkpt>
      <trkpt lat="43.77596" lon="3.83497">
        <ele>424.1</ele>
        <time>2026-05-21T10:03:14.999Z</time>
      </trkpt>
      <trkpt lat="43.77596" lon="3.83497">
        <ele>424.1</ele>
        <time>2026-05-21T10:03:15.999Z</time>
      </trkpt>
      <trkpt lat="43.77596" lon="3.83496">
        <ele>424.5</ele>
        <time>2026-05-21T10:03:16.999Z</time>
      </trkpt>
      <trkpt lat="43.77596" lon="3.83496">
        <ele>424.8</ele>
        <time>2026-05-21T10:03:17.999Z</time>
      </trkpt>
      <trkpt lat="43.77596" lon="3.83495">
        <ele>424.1</ele>
        <time>2026-05-21T10:03:18.999Z</time>
      </trkpt>
      <trkpt lat="43.77596" lon="3.83495">
        <ele>424.4</ele>
        <time>2026-05-21T10:03:19.999Z</time>
      </trkpt>
      <trkpt lat="43.77596" lon="3.83495">
        <ele>424.9</ele>
        <time>2026-05-21T10:03:20.999Z</time>
      </trkpt>
      <trkpt lat="43.77596" lon="3.83495">
        <ele>425.3</ele>
        <time>2026-05-21T10:03:21.999Z</time>
      </trkpt>
      <trkpt lat="43.77596" lon="3.83495">
        <ele>425.4</ele>
        <time>2026-05-21T10:03:22.999Z</time>
      </trkpt>
      <trkpt lat="43.77595" lon="3.83496">
        <ele>425.4</ele>
        <time>2026-05-21T10:03:23.999Z</time>
      </trkpt>
      <trkpt lat="43.77596" lon="3.83495">
        <ele>425.8</ele>
        <time>2026-05-21T10:03:24.999Z</time>
      </trkpt>
      <trkpt lat="43.77597" lon="3.83497">
        <ele>426.3</ele>
        <time>2026-05-21T10:03:26.999Z</time>
      </trkpt>
      <trkpt lat="43.77598" lon="3.83498">
        <ele>426.4</ele>
        <time>2026-05-21T10:03:27.999Z</time>
      </trkpt>
      <trkpt lat="43.77599" lon="3.83497">
        <ele>427.3</ele>
        <time>2026-05-21T10:03:28.999Z</time>
      </trkpt>
      <trkpt lat="43.77599" lon="3.83498">
        <ele>427.4</ele>
        <time>2026-05-21T10:03:29.999Z</time>
      </trkpt>
      <trkpt lat="43.77599" lon="3.83499">
        <ele>427.5</ele>
        <time>2026-05-21T10:03:30.999Z</time>
      </trkpt>
      <trkpt lat="43.77599" lon="3.835">
        <ele>427.8</ele>
        <time>2026-05-21T10:03:31.999Z</time>
      </trkpt>
      <trkpt lat="43.77599" lon="3.83501">
        <ele>428</ele>
        <time>2026-05-21T10:03:32.999Z</time>
      </trkpt>
      <trkpt lat="43.77599" lon="3.83502">
        <ele>428.4</ele>
        <time>2026-05-21T10:03:33.999Z</time>
      </trkpt>
      <trkpt lat="43.77599" lon="3.83503">
        <ele>428.6</ele>
        <time>2026-05-21T10:03:34.999Z</time>
      </trkpt>
      <trkpt lat="43.77599" lon="3.83503">
        <ele>428.7</ele>
        <time>2026-05-21T10:03:35.999Z</time>
      </trkpt>
      <trkpt lat="43.77599" lon="3.83503">
        <ele>425</ele>
        <time>2026-05-21T10:03:36.999Z</time>
      </trkpt>
      <trkpt lat="43.776" lon="3.83503">
        <ele>425.1</ele>
        <time>2026-05-21T10:03:37.999Z</time>
      </trkpt>
      <trkpt lat="43.776" lon="3.83501">
        <ele>425.4</ele>
        <time>2026-05-21T10:03:38.999Z</time>
      </trkpt>
      <trkpt lat="43.776" lon="3.835">
        <ele>425.4</ele>
        <time>2026-05-21T10:03:39.999Z</time>
      </trkpt>
      <trkpt lat="43.776" lon="3.83499">
        <ele>425.2</ele>
        <time>2026-05-21T10:03:40.999Z</time>
      </trkpt>
      <trkpt lat="43.77599" lon="3.83498">
        <ele>425.1</ele>
        <time>2026-05-21T10:03:41.999Z</time>
      </trkpt>
      <trkpt lat="43.77599" lon="3.83498">
        <ele>425.3</ele>
        <time>2026-05-21T10:03:42.999Z</time>
      </trkpt>
      <trkpt lat="43.77599" lon="3.83498">
        <ele>425.4</ele>
        <time>2026-05-21T10:03:43.999Z</time>
      </trkpt>
      <trkpt lat="43.77598" lon="3.83498">
        <ele>425.5</ele>
        <time>2026-05-21T10:03:44.999Z</time>
      </trkpt>
      <trkpt lat="43.77598" lon="3.83498">
        <ele>425.7</ele>
        <time>2026-05-21T10:03:45.999Z</time>
      </trkpt>
      <trkpt lat="43.77598" lon="3.83498">
        <ele>425.8</ele>
        <time>2026-05-21T10:03:46.999Z</time>
      </trkpt>
      <trkpt lat="43.77598" lon="3.83498">
        <ele>426.5</ele>
        <time>2026-05-21T10:03:47.999Z</time>
      </trkpt>
      <trkpt lat="43.77598" lon="3.83498">
        <ele>426.6</ele>
        <time>2026-05-21T10:03:48.999Z</time>
      </trkpt>
      <trkpt lat="43.77598" lon="3.83497">
        <ele>426.6</ele>
        <time>2026-05-21T10:03:49.999Z</time>
      </trkpt>
      <trkpt lat="43.77598" lon="3.83497">
        <ele>426.4</ele>
        <time>2026-05-21T10:03:50.999Z</time>
      </trkpt>
      <trkpt lat="43.77597" lon="3.83496">
        <ele>426</ele>
        <time>2026-05-21T10:03:51.999Z</time>
      </trkpt>
      <trkpt lat="43.77597" lon="3.83495">
        <ele>426</ele>
        <time>2026-05-21T10:03:52.999Z</time>
      </trkpt>
      <trkpt lat="43.77597" lon="3.83495">
        <ele>426</ele>
        <time>2026-05-21T10:03:53.999Z</time>
      </trkpt>
      <trkpt lat="43.77597" lon="3.83495">
        <ele>425.9</ele>
        <time>2026-05-21T10:03:54.999Z</time>
      </trkpt>
      <trkpt lat="43.77597" lon="3.83495">
        <ele>425.8</ele>
        <time>2026-05-21T10:03:55.999Z</time>
      </trkpt>
      <trkpt lat="43.77597" lon="3.83495">
        <ele>425.5</ele>
        <time>2026-05-21T10:03:56.999Z</time>
      </trkpt>
      <trkpt lat="43.77597" lon="3.83495">
        <ele>425.3</ele>
        <time>2026-05-21T10:03:57.999Z</time>
      </trkpt>
      <trkpt lat="43.77597" lon="3.83495">
        <ele>425</ele>
        <time>2026-05-21T10:03:58.999Z</time>
      </trkpt>
      <trkpt lat="43.77597" lon="3.83495">
        <ele>424.8</ele>
        <time>2026-05-21T10:03:59.999Z</time>
      </trkpt>
      <trkpt lat="43.77598" lon="3.83495">
        <ele>424.8</ele>
        <time>2026-05-21T10:04:00.999Z</time>
      </trkpt>
      <trkpt lat="43.77598" lon="3.83495">
        <ele>424.4</ele>
        <time>2026-05-21T10:04:01.999Z</time>
      </trkpt>
      <trkpt lat="43.77599" lon="3.83494">
        <ele>423.9</ele>
        <time>2026-05-21T10:04:02.999Z</time>
      </trkpt>
      <trkpt lat="43.77599" lon="3.83493">
        <ele>423.7</ele>
        <time>2026-05-21T10:04:03.999Z</time>
      </trkpt>
      <trkpt lat="43.77599" lon="3.83493">
        <ele>423.9</ele>
        <time>2026-05-21T10:04:04.999Z</time>
      </trkpt>
      <trkpt lat="43.77599" lon="3.83493">
        <ele>424.3</ele>
        <time>2026-05-21T10:04:05.999Z</time>
      </trkpt>
      <trkpt lat="43.77599" lon="3.83493">
        <ele>424.6</ele>
        <time>2026-05-21T10:04:07.999Z</time>
      </trkpt>
      <trkpt lat="43.77599" lon="3.83493">
        <ele>424.7</ele>
        <time>2026-05-21T10:04:08.999Z</time>
      </trkpt>
      <trkpt lat="43.77599" lon="3.83493">
        <ele>424.7</ele>
        <time>2026-05-21T10:04:09.999Z</time>
      </trkpt>
      <trkpt lat="43.77599" lon="3.83493">
        <ele>424.8</ele>
        <time>2026-05-21T10:04:10.999Z</time>
      </trkpt>
      <trkpt lat="43.77598" lon="3.83493">
        <ele>424.5</ele>
        <time>2026-05-21T10:04:11.999Z</time>
      </trkpt>
      <trkpt lat="43.77598" lon="3.83493">
        <ele>424.6</ele>
        <time>2026-05-21T10:04:12.999Z</time>
      </trkpt>
      <trkpt lat="43.77598" lon="3.83493">
        <ele>424.8</ele>
        <time>2026-05-21T10:04:13.999Z</time>
      </trkpt>
      <trkpt lat="43.77598" lon="3.83493">
        <ele>425.2</ele>
        <time>2026-05-21T10:04:14.999Z</time>
      </trkpt>
      <trkpt lat="43.77598" lon="3.83493">
        <ele>425.3</ele>
        <time>2026-05-21T10:04:15.999Z</time>
      </trkpt>
      <trkpt lat="43.77598" lon="3.83493">
        <ele>425.3</ele>
        <time>2026-05-21T10:04:16.999Z</time>
      </trkpt>
      <trkpt lat="43.77598" lon="3.83493">
        <ele>425.5</ele>
        <time>2026-05-21T10:04:17.999Z</time>
      </trkpt>
      <trkpt lat="43.77598" lon="3.83493">
        <ele>425.6</ele>
        <time>2026-05-21T10:04:18.999Z</time>
      </trkpt>
      <trkpt lat="43.77598" lon="3.83493">
        <ele>425.5</ele>
        <time>2026-05-21T10:04:19.999Z</time>
      </trkpt>
      <trkpt lat="43.77598" lon="3.83492">
        <ele>425.6</ele>
        <time>2026-05-21T10:04:20.999Z</time>
      </trkpt>
      <trkpt lat="43.77598" lon="3.83492">
        <ele>425.7</ele>
        <time>2026-05-21T10:04:21.999Z</time>
      </trkpt>
      <trkpt lat="43.77598" lon="3.83492">
        <ele>425.7</ele>
        <time>2026-05-21T10:04:22.999Z</time>
      </trkpt>
      <trkpt lat="43.77598" lon="3.83492">
        <ele>425.9</ele>
        <time>2026-05-21T10:04:23.999Z</time>
      </trkpt>
      <trkpt lat="43.77598" lon="3.83492">
        <ele>426.1</ele>
        <time>2026-05-21T10:04:24.999Z</time>
      </trkpt>
      <trkpt lat="43.77597" lon="3.83492">
        <ele>426.4</ele>
        <time>2026-05-21T10:04:25.999Z</time>
      </trkpt>
      <trkpt lat="43.77597" lon="3.83492">
        <ele>426.5</ele>
        <time>2026-05-21T10:04:26.999Z</time>
      </trkpt>
      <trkpt lat="43.77597" lon="3.83492">
        <ele>426.5</ele>
        <time>2026-05-21T10:04:27.999Z</time>
      </trkpt>
      <trkpt lat="43.77597" lon="3.83492">
        <ele>426.7</ele>
        <time>2026-05-21T10:04:28.999Z</time>
      </trkpt>
      <trkpt lat="43.77597" lon="3.83492">
        <ele>426.9</ele>
        <time>2026-05-21T10:04:29.999Z</time>
      </trkpt>
      <trkpt lat="43.77597" lon="3.83492">
        <ele>427.3</ele>
        <time>2026-05-21T10:04:30.999Z</time>
      </trkpt>
      <trkpt lat="43.77597" lon="3.83492">
        <ele>427.5</ele>
        <time>2026-05-21T10:04:31.999Z</time>
      </trkpt>
      <trkpt lat="43.77597" lon="3.83492">
        <ele>427.6</ele>
        <time>2026-05-21T10:04:32.999Z</time>
      </trkpt>
      <trkpt lat="43.77597" lon="3.83492">
        <ele>427.6</ele>
        <time>2026-05-21T10:04:33.999Z</time>
      </trkpt>
      <trkpt lat="43.77597" lon="3.83492">
        <ele>427.8</ele>
        <time>2026-05-21T10:04:34.999Z</time>
      </trkpt>
      <trkpt lat="43.77597" lon="3.83492">
        <ele>427.9</ele>
        <time>2026-05-21T10:04:35.999Z</time>
      </trkpt>
      <trkpt lat="43.77597" lon="3.83492">
        <ele>428.3</ele>
        <time>2026-05-21T10:04:36.999Z</time>
      </trkpt>
      <trkpt lat="43.77597" lon="3.83492">
        <ele>428.4</ele>
        <time>2026-05-21T10:04:37.999Z</time>
      </trkpt>
      <trkpt lat="43.77597" lon="3.83492">
        <ele>428.3</ele>
        <time>2026-05-21T10:04:38.999Z</time>
      </trkpt>
      <trkpt lat="43.77597" lon="3.83492">
        <ele>428.2</ele>
        <time>2026-05-21T10:04:39.999Z</time>
      </trkpt>
      <trkpt lat="43.77597" lon="3.83492">
        <ele>428.2</ele>
        <time>2026-05-21T10:04:40.999Z</time>
      </trkpt>
      <trkpt lat="43.77597" lon="3.83492">
        <ele>428.3</ele>
        <time>2026-05-21T10:04:41.999Z</time>
      </trkpt>
      <trkpt lat="43.77597" lon="3.83492">
        <ele>428.4</ele>
        <time>2026-05-21T10:04:42.999Z</time>
      </trkpt>
      <trkpt lat="43.77597" lon="3.83492">
        <ele>428.7</ele>
        <time>2026-05-21T10:04:43.999Z</time>
      </trkpt>
      <trkpt lat="43.77597" lon="3.83492">
        <ele>428.8</ele>
        <time>2026-05-21T10:04:44.999Z</time>
      </trkpt>
      <trkpt lat="43.77597" lon="3.83492">
        <ele>429</ele>
        <time>2026-05-21T10:04:45.999Z</time>
      </trkpt>
      <trkpt lat="43.77597" lon="3.83492">
        <ele>428.9</ele>
        <time>2026-05-21T10:04:46.999Z</time>
      </trkpt>
      <trkpt lat="43.77597" lon="3.83493">
        <ele>429.1</ele>
        <time>2026-05-21T10:04:47.999Z</time>
      </trkpt>
      <trkpt lat="43.77597" lon="3.83493">
        <ele>429.2</ele>
        <time>2026-05-21T10:04:48.999Z</time>
      </trkpt>
      <trkpt lat="43.77597" lon="3.83493">
        <ele>429.3</ele>
        <time>2026-05-21T10:04:49.999Z</time>
      </trkpt>
      <trkpt lat="43.77597" lon="3.83493">
        <ele>429.3</ele>
        <time>2026-05-21T10:04:50.999Z</time>
      </trkpt>
      <trkpt lat="43.77597" lon="3.83493">
        <ele>429.2</ele>
        <time>2026-05-21T10:04:51.999Z</time>
      </trkpt>
      <trkpt lat="43.77597" lon="3.83493">
        <ele>429.3</ele>
        <time>2026-05-21T10:04:52.999Z</time>
      </trkpt>
      <trkpt lat="43.77597" lon="3.83493">
        <ele>429.3</ele>
        <time>2026-05-21T10:04:53.999Z</time>
      </trkpt>
      <trkpt lat="43.77597" lon="3.83494">
        <ele>429.4</ele>
        <time>2026-05-21T10:04:54.999Z</time>
      </trkpt>
      <trkpt lat="43.77597" lon="3.83493">
        <ele>429.6</ele>
        <time>2026-05-21T10:04:55.999Z</time>
      </trkpt>
      <trkpt lat="43.77597" lon="3.83493">
        <ele>429.7</ele>
        <time>2026-05-21T10:04:56.999Z</time>
      </trkpt>
      <trkpt lat="43.77597" lon="3.83493">
        <ele>429.8</ele>
        <time>2026-05-21T10:04:57.999Z</time>
      </trkpt>
      <trkpt lat="43.77597" lon="3.83493">
        <ele>429.8</ele>
        <time>2026-05-21T10:04:58.999Z</time>
      </trkpt>
      <trkpt lat="43.77597" lon="3.83493">
        <ele>429.8</ele>
        <time>2026-05-21T10:04:59.999Z</time>
      </trkpt>
      <trkpt lat="43.77597" lon="3.83493">
        <ele>430</ele>
        <time>2026-05-21T10:05:00.999Z</time>
      </trkpt>
      <trkpt lat="43.77598" lon="3.83493">
        <ele>430.1</ele>
        <time>2026-05-21T10:05:01.999Z</time>
      </trkpt>
      <trkpt lat="43.77598" lon="3.83494">
        <ele>430.3</ele>
        <time>2026-05-21T10:05:02.999Z</time>
      </trkpt>
      <trkpt lat="43.77598" lon="3.83494">
        <ele>430.4</ele>
        <time>2026-05-21T10:05:03.999Z</time>
      </trkpt>
      <trkpt lat="43.77598" lon="3.83495">
        <ele>430.4</ele>
        <time>2026-05-21T10:05:04.999Z</time>
      </trkpt>
      <trkpt lat="43.77598" lon="3.83494">
        <ele>430.2</ele>
        <time>2026-05-21T10:05:05.999Z</time>
      </trkpt>
      <trkpt lat="43.77598" lon="3.83494">
        <ele>430.3</ele>
        <time>2026-05-21T10:05:06.999Z</time>
      </trkpt>
      <trkpt lat="43.77598" lon="3.83494">
        <ele>430.4</ele>
        <time>2026-05-21T10:05:07.999Z</time>
      </trkpt>
      <trkpt lat="43.77598" lon="3.83494">
        <ele>430.8</ele>
        <time>2026-05-21T10:05:08.999Z</time>
      </trkpt>
      <trkpt lat="43.77598" lon="3.83494">
        <ele>431.1</ele>
        <time>2026-05-21T10:05:09.999Z</time>
      </trkpt>
      <trkpt lat="43.77598" lon="3.83494">
        <ele>431.3</ele>
        <time>2026-05-21T10:05:10.999Z</time>
      </trkpt>
      <trkpt lat="43.77598" lon="3.83494">
        <ele>431.3</ele>
        <time>2026-05-21T10:05:11.999Z</time>
      </trkpt>
      <trkpt lat="43.77598" lon="3.83494">
        <ele>431.3</ele>
        <time>2026-05-21T10:05:12.999Z</time>
      </trkpt>
      <trkpt lat="43.77598" lon="3.83494">
        <ele>431.3</ele>
        <time>2026-05-21T10:05:13.999Z</time>
      </trkpt>
      <trkpt lat="43.77598" lon="3.83494">
        <ele>431.2</ele>
        <time>2026-05-21T10:05:14.999Z</time>
      </trkpt>
      <trkpt lat="43.77598" lon="3.83494">
        <ele>431.3</ele>
        <time>2026-05-21T10:05:15.999Z</time>
      </trkpt>
      <trkpt lat="43.77598" lon="3.83494">
        <ele>431.4</ele>
        <time>2026-05-21T10:05:16.999Z</time>
      </trkpt>
      <trkpt lat="43.77598" lon="3.83494">
        <ele>431.5</ele>
        <time>2026-05-21T10:05:17.999Z</time>
      </trkpt>
      <trkpt lat="43.77598" lon="3.83494">
        <ele>431.6</ele>
        <time>2026-05-21T10:05:18.999Z</time>
      </trkpt>
      <trkpt lat="43.77598" lon="3.83494">
        <ele>431.8</ele>
        <time>2026-05-21T10:05:19.999Z</time>
      </trkpt>
      <trkpt lat="43.77598" lon="3.83494">
        <ele>431.8</ele>
        <time>2026-05-21T10:05:20.999Z</time>
      </trkpt>
      <trkpt lat="43.77597" lon="3.83494">
        <ele>431.8</ele>
        <time>2026-05-21T10:05:21.999Z</time>
      </trkpt>
      <trkpt lat="43.77597" lon="3.83494">
        <ele>431.6</ele>
        <time>2026-05-21T10:05:22.999Z</time>
      </trkpt>
      <trkpt lat="43.77597" lon="3.83494">
        <ele>431.5</ele>
        <time>2026-05-21T10:05:23.999Z</time>
      </trkpt>
      <trkpt lat="43.77597" lon="3.83494">
        <ele>431.4</ele>
        <time>2026-05-21T10:05:24.999Z</time>
      </trkpt>
      <trkpt lat="43.77597" lon="3.83494">
        <ele>431.3</ele>
        <time>2026-05-21T10:05:25.999Z</time>
      </trkpt>
      <trkpt lat="43.77597" lon="3.83494">
        <ele>431.3</ele>
        <time>2026-05-21T10:05:26.999Z</time>
      </trkpt>
      <trkpt lat="43.77597" lon="3.83494">
        <ele>431.4</ele>
        <time>2026-05-21T10:05:27.999Z</time>
      </trkpt>
      <trkpt lat="43.77597" lon="3.83494">
        <ele>431.3</ele>
        <time>2026-05-21T10:05:28.999Z</time>
      </trkpt>
      <trkpt lat="43.77598" lon="3.83493">
        <ele>431.3</ele>
        <time>2026-05-21T10:05:30.999Z</time>
      </trkpt>
      <trkpt lat="43.77599" lon="3.83493">
        <ele>431.6</ele>
        <time>2026-05-21T10:05:31.999Z</time>
      </trkpt>
      <trkpt lat="43.77599" lon="3.83493">
        <ele>431.6</ele>
        <time>2026-05-21T10:05:32.999Z</time>
      </trkpt>
      <trkpt lat="43.77599" lon="3.83493">
        <ele>432</ele>
        <time>2026-05-21T10:05:33.999Z</time>
      </trkpt>
      <trkpt lat="43.77599" lon="3.83493">
        <ele>432</ele>
        <time>2026-05-21T10:05:34.999Z</time>
      </trkpt>
      <trkpt lat="43.77599" lon="3.83493">
        <ele>432</ele>
        <time>2026-05-21T10:05:35.999Z</time>
      </trkpt>
      <trkpt lat="43.77599" lon="3.83493">
        <ele>432</ele>
        <time>2026-05-21T10:05:36.999Z</time>
      </trkpt>
      <trkpt lat="43.77599" lon="3.83493">
        <ele>431.9</ele>
        <time>2026-05-21T10:05:37.999Z</time>
      </trkpt>
      <trkpt lat="43.77599" lon="3.83493">
        <ele>431.5</ele>
        <time>2026-05-21T10:05:38.999Z</time>
      </trkpt>
      <trkpt lat="43.77599" lon="3.83493">
        <ele>431.3</ele>
        <time>2026-05-21T10:05:39.999Z</time>
      </trkpt>
      <trkpt lat="43.77599" lon="3.83494">
        <ele>431.3</ele>
        <time>2026-05-21T10:05:41.999Z</time>
      </trkpt>
      <trkpt lat="43.77599" lon="3.83493">
        <ele>431</ele>
        <time>2026-05-21T10:05:42.999Z</time>
      </trkpt>
      <trkpt lat="43.77599" lon="3.83493">
        <ele>431.7</ele>
        <time>2026-05-21T10:05:43.999Z</time>
      </trkpt>
      <trkpt lat="43.77599" lon="3.83493">
        <ele>432.1</ele>
        <time>2026-05-21T10:05:44.999Z</time>
      </trkpt>
      <trkpt lat="43.77599" lon="3.83493">
        <ele>432.1</ele>
        <time>2026-05-21T10:05:45.999Z</time>
      </trkpt>
      <trkpt lat="43.77599" lon="3.83493">
        <ele>432</ele>
        <time>2026-05-21T10:05:46.999Z</time>
      </trkpt>
      <trkpt lat="43.77599" lon="3.83493">
        <ele>432.1</ele>
        <time>2026-05-21T10:05:47.999Z</time>
      </trkpt>
      <trkpt lat="43.77599" lon="3.83493">
        <ele>432.1</ele>
        <time>2026-05-21T10:05:48.999Z</time>
      </trkpt>
      <trkpt lat="43.77598" lon="3.83493">
        <ele>432</ele>
        <time>2026-05-21T10:05:49.999Z</time>
      </trkpt>
      <trkpt lat="43.77598" lon="3.83493">
        <ele>431.6</ele>
        <time>2026-05-21T10:05:50.999Z</time>
      </trkpt>
      <trkpt lat="43.77598" lon="3.83493">
        <ele>431.4</ele>
        <time>2026-05-21T10:05:51.999Z</time>
      </trkpt>
      <trkpt lat="43.77598" lon="3.83493">
        <ele>431.7</ele>
        <time>2026-05-21T10:05:52.999Z</time>
      </trkpt>
      <trkpt lat="43.77598" lon="3.83493">
        <ele>431.9</ele>
        <time>2026-05-21T10:05:53.999Z</time>
      </trkpt>
      <trkpt lat="43.77598" lon="3.83493">
        <ele>431.9</ele>
        <time>2026-05-21T10:05:54.999Z</time>
      </trkpt>
      <trkpt lat="43.77598" lon="3.83493">
        <ele>432</ele>
        <time>2026-05-21T10:05:55.999Z</time>
      </trkpt>
      <trkpt lat="43.77598" lon="3.83493">
        <ele>432.1</ele>
        <time>2026-05-21T10:05:56.999Z</time>
      </trkpt>
      <trkpt lat="43.77598" lon="3.83493">
        <ele>432</ele>
        <time>2026-05-21T10:05:57.999Z</time>
      </trkpt>
      <trkpt lat="43.77598" lon="3.83493">
        <ele>431.7</ele>
        <time>2026-05-21T10:05:58.999Z</time>
      </trkpt>
      <trkpt lat="43.77598" lon="3.83493">
        <ele>431.4</ele>
        <time>2026-05-21T10:05:59.999Z</time>
      </trkpt>
      <trkpt lat="43.77598" lon="3.83493">
        <ele>431.5</ele>
        <time>2026-05-21T10:06:00.999Z</time>
      </trkpt>
      <trkpt lat="43.77598" lon="3.83492">
        <ele>431.9</ele>
        <time>2026-05-21T10:06:01.999Z</time>
      </trkpt>
      <trkpt lat="43.77598" lon="3.83492">
        <ele>432.3</ele>
        <time>2026-05-21T10:06:02.999Z</time>
      </trkpt>
      <trkpt lat="43.77598" lon="3.83492">
        <ele>432.5</ele>
        <time>2026-05-21T10:06:03.999Z</time>
      </trkpt>
      <trkpt lat="43.77598" lon="3.83492">
        <ele>432.6</ele>
        <time>2026-05-21T10:06:04.999Z</time>
      </trkpt>
      <trkpt lat="43.77598" lon="3.83492">
        <ele>432.6</ele>
        <time>2026-05-21T10:06:05.999Z</time>
      </trkpt>
      <trkpt lat="43.77598" lon="3.83492">
        <ele>433</ele>
        <time>2026-05-21T10:06:06.999Z</time>
      </trkpt>
      <trkpt lat="43.77598" lon="3.83492">
        <ele>433.2</ele>
        <time>2026-05-21T10:06:07.999Z</time>
      </trkpt>
      <trkpt lat="43.77598" lon="3.83492">
        <ele>432.9</ele>
        <time>2026-05-21T10:06:08.999Z</time>
      </trkpt>
      <trkpt lat="43.77598" lon="3.83492">
        <ele>432.8</ele>
        <time>2026-05-21T10:06:09.999Z</time>
      </trkpt>
      <trkpt lat="43.77598" lon="3.83492">
        <ele>432.6</ele>
        <time>2026-05-21T10:06:10.999Z</time>
      </trkpt>
      <trkpt lat="43.77598" lon="3.83492">
        <ele>432.5</ele>
        <time>2026-05-21T10:06:11.999Z</time>
      </trkpt>
      <trkpt lat="43.77598" lon="3.83492">
        <ele>432.4</ele>
        <time>2026-05-21T10:06:13.999Z</time>
      </trkpt>
      <trkpt lat="43.77598" lon="3.83491">
        <ele>432.5</ele>
        <time>2026-05-21T10:06:14.999Z</time>
      </trkpt>
      <trkpt lat="43.77598" lon="3.83491">
        <ele>432.7</ele>
        <time>2026-05-21T10:06:15.999Z</time>
      </trkpt>
      <trkpt lat="43.77599" lon="3.83491">
        <ele>433</ele>
        <time>2026-05-21T10:06:16.999Z</time>
      </trkpt>
      <trkpt lat="43.77599" lon="3.83491">
        <ele>433.1</ele>
        <time>2026-05-21T10:06:17.999Z</time>
      </trkpt>
      <trkpt lat="43.77599" lon="3.8349">
        <ele>433.2</ele>
        <time>2026-05-21T10:06:18.999Z</time>
      </trkpt>
      <trkpt lat="43.77599" lon="3.8349">
        <ele>433.5</ele>
        <time>2026-05-21T10:06:19.999Z</time>
      </trkpt>
      <trkpt lat="43.77599" lon="3.8349">
        <ele>433.4</ele>
        <time>2026-05-21T10:06:20.999Z</time>
      </trkpt>
      <trkpt lat="43.77599" lon="3.8349">
        <ele>433.3</ele>
        <time>2026-05-21T10:06:21.999Z</time>
      </trkpt>
      <trkpt lat="43.77599" lon="3.8349">
        <ele>433.2</ele>
        <time>2026-05-21T10:06:22.999Z</time>
      </trkpt>
      <trkpt lat="43.77599" lon="3.8349">
        <ele>433.1</ele>
        <time>2026-05-21T10:06:23.999Z</time>
      </trkpt>
      <trkpt lat="43.77599" lon="3.83489">
        <ele>433.1</ele>
        <time>2026-05-21T10:06:24.999Z</time>
      </trkpt>
      <trkpt lat="43.77599" lon="3.83487">
        <ele>433.7</ele>
        <time>2026-05-21T10:06:25.999Z</time>
      </trkpt>
      <trkpt lat="43.77598" lon="3.83487">
        <ele>433.7</ele>
        <time>2026-05-21T10:06:26.999Z</time>
      </trkpt>
      <trkpt lat="43.77598" lon="3.83487">
        <ele>433.5</ele>
        <time>2026-05-21T10:06:27.999Z</time>
      </trkpt>
      <trkpt lat="43.77598" lon="3.83487">
        <ele>433.3</ele>
        <time>2026-05-21T10:06:28.999Z</time>
      </trkpt>
      <trkpt lat="43.77598" lon="3.83487">
        <ele>433.4</ele>
        <time>2026-05-21T10:06:29.999Z</time>
      </trkpt>
      <trkpt lat="43.77598" lon="3.83487">
        <ele>433.4</ele>
        <time>2026-05-21T10:06:30.999Z</time>
      </trkpt>
      <trkpt lat="43.77598" lon="3.83486">
        <ele>433.8</ele>
        <time>2026-05-21T10:06:31.999Z</time>
      </trkpt>
      <trkpt lat="43.77598" lon="3.83486">
        <ele>433.6</ele>
        <time>2026-05-21T10:06:32.999Z</time>
      </trkpt>
      <trkpt lat="43.77598" lon="3.83486">
        <ele>433.4</ele>
        <time>2026-05-21T10:06:33.999Z</time>
      </trkpt>
      <trkpt lat="43.77598" lon="3.83486">
        <ele>433.4</ele>
        <time>2026-05-21T10:06:34.999Z</time>
      </trkpt>
      <trkpt lat="43.77598" lon="3.83486">
        <ele>433.4</ele>
        <time>2026-05-21T10:06:35.999Z</time>
      </trkpt>
      <trkpt lat="43.77598" lon="3.83486">
        <ele>433.4</ele>
        <time>2026-05-21T10:06:36.999Z</time>
      </trkpt>
      <trkpt lat="43.77598" lon="3.83486">
        <ele>433.7</ele>
        <time>2026-05-21T10:06:37.999Z</time>
      </trkpt>
      <trkpt lat="43.77598" lon="3.83486">
        <ele>434</ele>
        <time>2026-05-21T10:06:38.999Z</time>
      </trkpt>
      <trkpt lat="43.77598" lon="3.83486">
        <ele>434</ele>
        <time>2026-05-21T10:06:39.999Z</time>
      </trkpt>
      <trkpt lat="43.77598" lon="3.83486">
        <ele>434.1</ele>
        <time>2026-05-21T10:06:40.999Z</time>
      </trkpt>
      <trkpt lat="43.77598" lon="3.83486">
        <ele>434</ele>
        <time>2026-05-21T10:06:41.999Z</time>
      </trkpt>
      <trkpt lat="43.77598" lon="3.83486">
        <ele>433.9</ele>
        <time>2026-05-21T10:06:42.999Z</time>
      </trkpt>
      <trkpt lat="43.77598" lon="3.83486">
        <ele>433.9</ele>
        <time>2026-05-21T10:06:43.999Z</time>
      </trkpt>
      <trkpt lat="43.77598" lon="3.83486">
        <ele>434.1</ele>
        <time>2026-05-21T10:06:44.999Z</time>
      </trkpt>
      <trkpt lat="43.77598" lon="3.83486">
        <ele>434.1</ele>
        <time>2026-05-21T10:06:45.999Z</time>
      </trkpt>
      <trkpt lat="43.77598" lon="3.83487">
        <ele>434.1</ele>
        <time>2026-05-21T10:06:46.999Z</time>
      </trkpt>
      <trkpt lat="43.77598" lon="3.83488">
        <ele>434</ele>
        <time>2026-05-21T10:06:47.999Z</time>
      </trkpt>
      <trkpt lat="43.77598" lon="3.83489">
        <ele>433.8</ele>
        <time>2026-05-21T10:06:48.999Z</time>
      </trkpt>
      <trkpt lat="43.77599" lon="3.8349">
        <ele>433.9</ele>
        <time>2026-05-21T10:06:49.999Z</time>
      </trkpt>
      <trkpt lat="43.77599" lon="3.8349">
        <ele>433.9</ele>
        <time>2026-05-21T10:06:50.999Z</time>
      </trkpt>
      <trkpt lat="43.77598" lon="3.83491">
        <ele>433.9</ele>
        <time>2026-05-21T10:06:51.999Z</time>
      </trkpt>
      <trkpt lat="43.77598" lon="3.83491">
        <ele>434.3</ele>
        <time>2026-05-21T10:06:52.999Z</time>
      </trkpt>
      <trkpt lat="43.77598" lon="3.83492">
        <ele>434</ele>
        <time>2026-05-21T10:06:53.999Z</time>
      </trkpt>
      <trkpt lat="43.77598" lon="3.83492">
        <ele>433.9</ele>
        <time>2026-05-21T10:06:54.999Z</time>
      </trkpt>
      <trkpt lat="43.77598" lon="3.83492">
        <ele>433.8</ele>
        <time>2026-05-21T10:06:55.999Z</time>
      </trkpt>
      <trkpt lat="43.77598" lon="3.83492">
        <ele>433.8</ele>
        <time>2026-05-21T10:06:56.999Z</time>
      </trkpt>
      <trkpt lat="43.77598" lon="3.83492">
        <ele>434</ele>
        <time>2026-05-21T10:06:57.999Z</time>
      </trkpt>
      <trkpt lat="43.77598" lon="3.83492">
        <ele>434.3</ele>
        <time>2026-05-21T10:06:58.999Z</time>
      </trkpt>
      <trkpt lat="43.77598" lon="3.83492">
        <ele>434.5</ele>
        <time>2026-05-21T10:06:59.999Z</time>
      </trkpt>
      <trkpt lat="43.77598" lon="3.83492">
        <ele>434.6</ele>
        <time>2026-05-21T10:07:00.999Z</time>
      </trkpt>
      <trkpt lat="43.77598" lon="3.83492">
        <ele>434.8</ele>
        <time>2026-05-21T10:07:01.999Z</time>
      </trkpt>
      <trkpt lat="43.77598" lon="3.83491">
        <ele>434.8</ele>
        <time>2026-05-21T10:07:02.999Z</time>
      </trkpt>
      <trkpt lat="43.77598" lon="3.83491">
        <ele>434.7</ele>
        <time>2026-05-21T10:07:03.999Z</time>
      </trkpt>
      <trkpt lat="43.77598" lon="3.83491">
        <ele>434.6</ele>
        <time>2026-05-21T10:07:04.999Z</time>
      </trkpt>
      <trkpt lat="43.77598" lon="3.83491">
        <ele>434.8</ele>
        <time>2026-05-21T10:07:05.999Z</time>
      </trkpt>
      <trkpt lat="43.77598" lon="3.83491">
        <ele>435.1</ele>
        <time>2026-05-21T10:07:06.999Z</time>
      </trkpt>
      <trkpt lat="43.77598" lon="3.83491">
        <ele>435.3</ele>
        <time>2026-05-21T10:07:07.999Z</time>
      </trkpt>
      <trkpt lat="43.77598" lon="3.83491">
        <ele>435.5</ele>
        <time>2026-05-21T10:07:08.999Z</time>
      </trkpt>
      <trkpt lat="43.77598" lon="3.83491">
        <ele>435.7</ele>
        <time>2026-05-21T10:07:09.999Z</time>
      </trkpt>
      <trkpt lat="43.77598" lon="3.8349">
        <ele>435.8</ele>
        <time>2026-05-21T10:07:10.999Z</time>
      </trkpt>
      <trkpt lat="43.77598" lon="3.8349">
        <ele>435.9</ele>
        <time>2026-05-21T10:07:11.999Z</time>
      </trkpt>
      <trkpt lat="43.77598" lon="3.8349">
        <ele>435.8</ele>
        <time>2026-05-21T10:07:12.999Z</time>
      </trkpt>
      <trkpt lat="43.77598" lon="3.8349">
        <ele>435.8</ele>
        <time>2026-05-21T10:07:13.999Z</time>
      </trkpt>
      <trkpt lat="43.77598" lon="3.8349">
        <ele>436</ele>
        <time>2026-05-21T10:07:14.999Z</time>
      </trkpt>
      <trkpt lat="43.77598" lon="3.8349">
        <ele>436</ele>
        <time>2026-05-21T10:07:15.999Z</time>
      </trkpt>
      <trkpt lat="43.77598" lon="3.8349">
        <ele>436.1</ele>
        <time>2026-05-21T10:07:16.999Z</time>
      </trkpt>
      <trkpt lat="43.77598" lon="3.8349">
        <ele>436.1</ele>
        <time>2026-05-21T10:07:17.999Z</time>
      </trkpt>
      <trkpt lat="43.77598" lon="3.8349">
        <ele>436</ele>
        <time>2026-05-21T10:07:18.999Z</time>
      </trkpt>
      <trkpt lat="43.77598" lon="3.8349">
        <ele>435.9</ele>
        <time>2026-05-21T10:07:19.999Z</time>
      </trkpt>
      <trkpt lat="43.77598" lon="3.8349">
        <ele>436.1</ele>
        <time>2026-05-21T10:07:20.999Z</time>
      </trkpt>
      <trkpt lat="43.77598" lon="3.83489">
        <ele>436.2</ele>
        <time>2026-05-21T10:07:21.999Z</time>
      </trkpt>
      <trkpt lat="43.77598" lon="3.83489">
        <ele>436</ele>
        <time>2026-05-21T10:07:22.999Z</time>
      </trkpt>
      <trkpt lat="43.77599" lon="3.83488">
        <ele>436.2</ele>
        <time>2026-05-21T10:07:23.999Z</time>
      </trkpt>
      <trkpt lat="43.77599" lon="3.83487">
        <ele>436.1</ele>
        <time>2026-05-21T10:07:24.999Z</time>
      </trkpt>
      <trkpt lat="43.77599" lon="3.83486">
        <ele>436.1</ele>
        <time>2026-05-21T10:07:25.999Z</time>
      </trkpt>
      <trkpt lat="43.77599" lon="3.83485">
        <ele>436.2</ele>
        <time>2026-05-21T10:07:26.999Z</time>
      </trkpt>
      <trkpt lat="43.77599" lon="3.83485">
        <ele>436.6</ele>
        <time>2026-05-21T10:07:27.999Z</time>
      </trkpt>
      <trkpt lat="43.77599" lon="3.83485">
        <ele>437</ele>
        <time>2026-05-21T10:07:28.999Z</time>
      </trkpt>
      <trkpt lat="43.77599" lon="3.83485">
        <ele>437.4</ele>
        <time>2026-05-21T10:07:29.999Z</time>
      </trkpt>
      <trkpt lat="43.77599" lon="3.83485">
        <ele>437.8</ele>
        <time>2026-05-21T10:07:30.999Z</time>
      </trkpt>
      <trkpt lat="43.77599" lon="3.83485">
        <ele>438.1</ele>
        <time>2026-05-21T10:07:31.999Z</time>
      </trkpt>
      <trkpt lat="43.77599" lon="3.83484">
        <ele>438.4</ele>
        <time>2026-05-21T10:07:32.999Z</time>
      </trkpt>
      <trkpt lat="43.77599" lon="3.83484">
        <ele>438.7</ele>
        <time>2026-05-21T10:07:33.999Z</time>
      </trkpt>
      <trkpt lat="43.77599" lon="3.83484">
        <ele>438.6</ele>
        <time>2026-05-21T10:07:34.999Z</time>
      </trkpt>
      <trkpt lat="43.77599" lon="3.83484">
        <ele>438.4</ele>
        <time>2026-05-21T10:07:35.999Z</time>
      </trkpt>
      <trkpt lat="43.77599" lon="3.83484">
        <ele>438.4</ele>
        <time>2026-05-21T10:07:36.999Z</time>
      </trkpt>
      <trkpt lat="43.77599" lon="3.83484">
        <ele>438.5</ele>
        <time>2026-05-21T10:07:37.999Z</time>
      </trkpt>
      <trkpt lat="43.77599" lon="3.83484">
        <ele>438.7</ele>
        <time>2026-05-21T10:07:38.999Z</time>
      </trkpt>
      <trkpt lat="43.77599" lon="3.83484">
        <ele>438.9</ele>
        <time>2026-05-21T10:07:39.999Z</time>
      </trkpt>
      <trkpt lat="43.776" lon="3.83483">
        <ele>439.2</ele>
        <time>2026-05-21T10:07:40.999Z</time>
      </trkpt>
      <trkpt lat="43.776" lon="3.83483">
        <ele>439.3</ele>
        <time>2026-05-21T10:07:41.999Z</time>
      </trkpt>
      <trkpt lat="43.776" lon="3.83483">
        <ele>439.3</ele>
        <time>2026-05-21T10:07:42.999Z</time>
      </trkpt>
      <trkpt lat="43.776" lon="3.83483">
        <ele>439.3</ele>
        <time>2026-05-21T10:07:43.999Z</time>
      </trkpt>
      <trkpt lat="43.776" lon="3.83483">
        <ele>439.2</ele>
        <time>2026-05-21T10:07:44.999Z</time>
      </trkpt>
      <trkpt lat="43.776" lon="3.83483">
        <ele>439.1</ele>
        <time>2026-05-21T10:07:45.999Z</time>
      </trkpt>
      <trkpt lat="43.776" lon="3.83483">
        <ele>439.1</ele>
        <time>2026-05-21T10:07:46.999Z</time>
      </trkpt>
      <trkpt lat="43.776" lon="3.83483">
        <ele>439</ele>
        <time>2026-05-21T10:07:47.999Z</time>
      </trkpt>
      <trkpt lat="43.776" lon="3.83483">
        <ele>439.2</ele>
        <time>2026-05-21T10:07:48.999Z</time>
      </trkpt>
      <trkpt lat="43.776" lon="3.83483">
        <ele>439.4</ele>
        <time>2026-05-21T10:07:49.999Z</time>
      </trkpt>
      <trkpt lat="43.776" lon="3.83483">
        <ele>439.6</ele>
        <time>2026-05-21T10:07:50.999Z</time>
      </trkpt>
      <trkpt lat="43.776" lon="3.83483">
        <ele>439.7</ele>
        <time>2026-05-21T10:07:51.999Z</time>
      </trkpt>
      <trkpt lat="43.776" lon="3.83483">
        <ele>439.7</ele>
        <time>2026-05-21T10:07:52.999Z</time>
      </trkpt>
      <trkpt lat="43.776" lon="3.83483">
        <ele>439.9</ele>
        <time>2026-05-21T10:07:53.999Z</time>
      </trkpt>
      <trkpt lat="43.776" lon="3.83483">
        <ele>439.9</ele>
        <time>2026-05-21T10:07:54.999Z</time>
      </trkpt>
      <trkpt lat="43.776" lon="3.83483">
        <ele>439.9</ele>
        <time>2026-05-21T10:07:55.999Z</time>
      </trkpt>
      <trkpt lat="43.776" lon="3.83483">
        <ele>440</ele>
        <time>2026-05-21T10:07:56.999Z</time>
      </trkpt>
      <trkpt lat="43.776" lon="3.83483">
        <ele>440</ele>
        <time>2026-05-21T10:07:57.999Z</time>
      </trkpt>
      <trkpt lat="43.776" lon="3.83483">
        <ele>440.3</ele>
        <time>2026-05-21T10:07:58.999Z</time>
      </trkpt>
      <trkpt lat="43.776" lon="3.83483">
        <ele>440.4</ele>
        <time>2026-05-21T10:07:59.999Z</time>
      </trkpt>
      <trkpt lat="43.776" lon="3.83483">
        <ele>440.6</ele>
        <time>2026-05-21T10:08:00.999Z</time>
      </trkpt>
      <trkpt lat="43.776" lon="3.83483">
        <ele>440.7</ele>
        <time>2026-05-21T10:08:01.999Z</time>
      </trkpt>
      <trkpt lat="43.776" lon="3.83483">
        <ele>440.7</ele>
        <time>2026-05-21T10:08:02.999Z</time>
      </trkpt>
      <trkpt lat="43.776" lon="3.83483">
        <ele>440.8</ele>
        <time>2026-05-21T10:08:03.999Z</time>
      </trkpt>
      <trkpt lat="43.776" lon="3.83483">
        <ele>440.8</ele>
        <time>2026-05-21T10:08:04.999Z</time>
      </trkpt>
      <trkpt lat="43.776" lon="3.83483">
        <ele>440.6</ele>
        <time>2026-05-21T10:08:05.999Z</time>
      </trkpt>
      <trkpt lat="43.776" lon="3.83483">
        <ele>440.6</ele>
        <time>2026-05-21T10:08:06.999Z</time>
      </trkpt>
      <trkpt lat="43.776" lon="3.83483">
        <ele>440.6</ele>
        <time>2026-05-21T10:08:07.999Z</time>
      </trkpt>
      <trkpt lat="43.776" lon="3.83483">
        <ele>440.7</ele>
        <time>2026-05-21T10:08:08.999Z</time>
      </trkpt>
      <trkpt lat="43.776" lon="3.83483">
        <ele>440.9</ele>
        <time>2026-05-21T10:08:09.999Z</time>
      </trkpt>
      <trkpt lat="43.776" lon="3.83483">
        <ele>441</ele>
        <time>2026-05-21T10:08:10.999Z</time>
      </trkpt>
      <trkpt lat="43.776" lon="3.83482">
        <ele>440.9</ele>
        <time>2026-05-21T10:08:11.999Z</time>
      </trkpt>
      <trkpt lat="43.776" lon="3.83482">
        <ele>441</ele>
        <time>2026-05-21T10:08:12.999Z</time>
      </trkpt>
      <trkpt lat="43.77601" lon="3.83482">
        <ele>441</ele>
        <time>2026-05-21T10:08:13.999Z</time>
      </trkpt>
      <trkpt lat="43.77601" lon="3.83482">
        <ele>440.9</ele>
        <time>2026-05-21T10:08:14.999Z</time>
      </trkpt>
      <trkpt lat="43.77601" lon="3.83482">
        <ele>440.9</ele>
        <time>2026-05-21T10:08:15.999Z</time>
      </trkpt>
      <trkpt lat="43.77601" lon="3.83482">
        <ele>440.9</ele>
        <time>2026-05-21T10:08:16.999Z</time>
      </trkpt>
      <trkpt lat="43.77601" lon="3.83482">
        <ele>441</ele>
        <time>2026-05-21T10:08:17.999Z</time>
      </trkpt>
      <trkpt lat="43.77601" lon="3.83482">
        <ele>441.2</ele>
        <time>2026-05-21T10:08:18.999Z</time>
      </trkpt>
      <trkpt lat="43.77601" lon="3.83482">
        <ele>441.4</ele>
        <time>2026-05-21T10:08:19.999Z</time>
      </trkpt>
      <trkpt lat="43.77601" lon="3.83482">
        <ele>441.5</ele>
        <time>2026-05-21T10:08:20.999Z</time>
      </trkpt>
      <trkpt lat="43.77601" lon="3.83482">
        <ele>441.7</ele>
        <time>2026-05-21T10:08:21.999Z</time>
      </trkpt>
      <trkpt lat="43.77601" lon="3.83482">
        <ele>441.7</ele>
        <time>2026-05-21T10:08:22.999Z</time>
      </trkpt>
      <trkpt lat="43.77601" lon="3.83482">
        <ele>441.7</ele>
        <time>2026-05-21T10:08:23.999Z</time>
      </trkpt>
      <trkpt lat="43.77601" lon="3.83482">
        <ele>441.5</ele>
        <time>2026-05-21T10:08:24.999Z</time>
      </trkpt>
      <trkpt lat="43.77601" lon="3.83482">
        <ele>441.6</ele>
        <time>2026-05-21T10:08:25.999Z</time>
      </trkpt>
      <trkpt lat="43.77601" lon="3.83482">
        <ele>442</ele>
        <time>2026-05-21T10:08:26.999Z</time>
      </trkpt>
      <trkpt lat="43.77601" lon="3.83482">
        <ele>442</ele>
        <time>2026-05-21T10:08:27.999Z</time>
      </trkpt>
      <trkpt lat="43.77601" lon="3.83481">
        <ele>442.1</ele>
        <time>2026-05-21T10:08:28.999Z</time>
      </trkpt>
      <trkpt lat="43.77601" lon="3.83481">
        <ele>442</ele>
        <time>2026-05-21T10:08:29.999Z</time>
      </trkpt>
      <trkpt lat="43.77601" lon="3.83481">
        <ele>442.1</ele>
        <time>2026-05-21T10:08:30.999Z</time>
      </trkpt>
      <trkpt lat="43.77601" lon="3.83481">
        <ele>442.2</ele>
        <time>2026-05-21T10:08:31.999Z</time>
      </trkpt>
      <trkpt lat="43.77601" lon="3.83481">
        <ele>442.3</ele>
        <time>2026-05-21T10:08:32.999Z</time>
      </trkpt>
      <trkpt lat="43.77601" lon="3.8348">
        <ele>442.3</ele>
        <time>2026-05-21T10:08:33.999Z</time>
      </trkpt>
      <trkpt lat="43.77601" lon="3.8348">
        <ele>442.2</ele>
        <time>2026-05-21T10:08:34.999Z</time>
      </trkpt>
      <trkpt lat="43.77601" lon="3.8348">
        <ele>442.3</ele>
        <time>2026-05-21T10:08:35.999Z</time>
      </trkpt>
      <trkpt lat="43.77602" lon="3.8348">
        <ele>442.4</ele>
        <time>2026-05-21T10:08:36.999Z</time>
      </trkpt>
      <trkpt lat="43.77602" lon="3.8348">
        <ele>442.2</ele>
        <time>2026-05-21T10:08:37.999Z</time>
      </trkpt>
      <trkpt lat="43.77602" lon="3.8348">
        <ele>442.1</ele>
        <time>2026-05-21T10:08:38.999Z</time>
      </trkpt>
      <trkpt lat="43.77602" lon="3.8348">
        <ele>442.1</ele>
        <time>2026-05-21T10:08:39.999Z</time>
      </trkpt>
      <trkpt lat="43.77602" lon="3.83479">
        <ele>442.1</ele>
        <time>2026-05-21T10:08:40.999Z</time>
      </trkpt>
      <trkpt lat="43.77602" lon="3.83479">
        <ele>442.1</ele>
        <time>2026-05-21T10:08:41.999Z</time>
      </trkpt>
      <trkpt lat="43.77602" lon="3.83479">
        <ele>442.1</ele>
        <time>2026-05-21T10:08:42.999Z</time>
      </trkpt>
      <trkpt lat="43.77602" lon="3.83478">
        <ele>442.1</ele>
        <time>2026-05-21T10:08:43.999Z</time>
      </trkpt>
      <trkpt lat="43.77602" lon="3.83478">
        <ele>442.1</ele>
        <time>2026-05-21T10:08:44.999Z</time>
      </trkpt>
      <trkpt lat="43.77602" lon="3.83478">
        <ele>442.2</ele>
        <time>2026-05-21T10:08:45.999Z</time>
      </trkpt>
      <trkpt lat="43.77602" lon="3.83478">
        <ele>442.4</ele>
        <time>2026-05-21T10:08:46.999Z</time>
      </trkpt>
      <trkpt lat="43.77602" lon="3.83478">
        <ele>442.4</ele>
        <time>2026-05-21T10:08:47.999Z</time>
      </trkpt>
      <trkpt lat="43.77602" lon="3.83478">
        <ele>442.4</ele>
        <time>2026-05-21T10:08:48.999Z</time>
      </trkpt>
      <trkpt lat="43.77602" lon="3.83478">
        <ele>442.4</ele>
        <time>2026-05-21T10:08:49.999Z</time>
      </trkpt>
      <trkpt lat="43.77602" lon="3.83477">
        <ele>442.4</ele>
        <time>2026-05-21T10:08:50.999Z</time>
      </trkpt>
      <trkpt lat="43.77602" lon="3.83477">
        <ele>442.4</ele>
        <time>2026-05-21T10:08:51.999Z</time>
      </trkpt>
      <trkpt lat="43.77602" lon="3.83477">
        <ele>442.5</ele>
        <time>2026-05-21T10:08:52.999Z</time>
      </trkpt>
      <trkpt lat="43.77602" lon="3.83477">
        <ele>442.7</ele>
        <time>2026-05-21T10:08:53.999Z</time>
      </trkpt>
      <trkpt lat="43.77602" lon="3.83477">
        <ele>442.9</ele>
        <time>2026-05-21T10:08:54.999Z</time>
      </trkpt>
      <trkpt lat="43.77602" lon="3.83476">
        <ele>443</ele>
        <time>2026-05-21T10:08:55.999Z</time>
      </trkpt>
      <trkpt lat="43.77602" lon="3.83476">
        <ele>443.2</ele>
        <time>2026-05-21T10:08:56.999Z</time>
      </trkpt>
      <trkpt lat="43.77602" lon="3.83476">
        <ele>443.4</ele>
        <time>2026-05-21T10:08:57.999Z</time>
      </trkpt>
      <trkpt lat="43.77603" lon="3.83475">
        <ele>443.5</ele>
        <time>2026-05-21T10:08:58.999Z</time>
      </trkpt>
      <trkpt lat="43.77603" lon="3.83475">
        <ele>443.6</ele>
        <time>2026-05-21T10:08:59.999Z</time>
      </trkpt>
      <trkpt lat="43.77603" lon="3.83474">
        <ele>443.6</ele>
        <time>2026-05-21T10:09:00.999Z</time>
      </trkpt>
      <trkpt lat="43.77603" lon="3.83474">
        <ele>443.6</ele>
        <time>2026-05-21T10:09:01.999Z</time>
      </trkpt>
      <trkpt lat="43.77603" lon="3.83474">
        <ele>443.6</ele>
        <time>2026-05-21T10:09:02.999Z</time>
      </trkpt>
      <trkpt lat="43.77603" lon="3.83474">
        <ele>443.7</ele>
        <time>2026-05-21T10:09:03.999Z</time>
      </trkpt>
      <trkpt lat="43.77603" lon="3.83474">
        <ele>443.9</ele>
        <time>2026-05-21T10:09:04.999Z</time>
      </trkpt>
      <trkpt lat="43.77603" lon="3.83474">
        <ele>444.2</ele>
        <time>2026-05-21T10:09:05.999Z</time>
      </trkpt>
      <trkpt lat="43.77603" lon="3.83474">
        <ele>444.5</ele>
        <time>2026-05-21T10:09:06.999Z</time>
      </trkpt>
      <trkpt lat="43.77603" lon="3.83474">
        <ele>444.6</ele>
        <time>2026-05-21T10:09:07.999Z</time>
      </trkpt>
      <trkpt lat="43.77603" lon="3.83474">
        <ele>444.6</ele>
        <time>2026-05-21T10:09:08.999Z</time>
      </trkpt>
      <trkpt lat="43.77603" lon="3.83474">
        <ele>444.7</ele>
        <time>2026-05-21T10:09:09.999Z</time>
      </trkpt>
      <trkpt lat="43.77603" lon="3.83474">
        <ele>444.7</ele>
        <time>2026-05-21T10:09:10.999Z</time>
      </trkpt>
      <trkpt lat="43.77603" lon="3.83474">
        <ele>444.6</ele>
        <time>2026-05-21T10:09:11.999Z</time>
      </trkpt>
      <trkpt lat="43.77604" lon="3.83474">
        <ele>444.4</ele>
        <time>2026-05-21T10:09:12.999Z</time>
      </trkpt>
      <trkpt lat="43.77604" lon="3.83473">
        <ele>444.1</ele>
        <time>2026-05-21T10:09:13.999Z</time>
      </trkpt>
      <trkpt lat="43.77604" lon="3.83473">
        <ele>444</ele>
        <time>2026-05-21T10:09:14.999Z</time>
      </trkpt>
      <trkpt lat="43.77604" lon="3.83473">
        <ele>444</ele>
        <time>2026-05-21T10:09:15.999Z</time>
      </trkpt>
      <trkpt lat="43.77604" lon="3.83473">
        <ele>443.9</ele>
        <time>2026-05-21T10:09:16.999Z</time>
      </trkpt>
      <trkpt lat="43.77604" lon="3.83473">
        <ele>443.8</ele>
        <time>2026-05-21T10:09:17.999Z</time>
      </trkpt>
      <trkpt lat="43.77604" lon="3.83473">
        <ele>443.8</ele>
        <time>2026-05-21T10:09:18.999Z</time>
      </trkpt>
      <trkpt lat="43.77604" lon="3.83472">
        <ele>443.8</ele>
        <time>2026-05-21T10:09:19.999Z</time>
      </trkpt>
      <trkpt lat="43.77604" lon="3.83472">
        <ele>443.9</ele>
        <time>2026-05-21T10:09:20.999Z</time>
      </trkpt>
      <trkpt lat="43.77604" lon="3.83472">
        <ele>443.9</ele>
        <time>2026-05-21T10:09:21.999Z</time>
      </trkpt>
      <trkpt lat="43.77604" lon="3.83472">
        <ele>443.9</ele>
        <time>2026-05-21T10:09:22.999Z</time>
      </trkpt>
      <trkpt lat="43.77604" lon="3.83472">
        <ele>444</ele>
        <time>2026-05-21T10:09:23.999Z</time>
      </trkpt>
      <trkpt lat="43.77604" lon="3.83472">
        <ele>444.1</ele>
        <time>2026-05-21T10:09:24.999Z</time>
      </trkpt>
      <trkpt lat="43.77604" lon="3.83472">
        <ele>444.2</ele>
        <time>2026-05-21T10:09:25.999Z</time>
      </trkpt>
      <trkpt lat="43.77604" lon="3.83472">
        <ele>444.2</ele>
        <time>2026-05-21T10:09:26.999Z</time>
      </trkpt>
      <trkpt lat="43.77604" lon="3.83472">
        <ele>444.3</ele>
        <time>2026-05-21T10:09:27.999Z</time>
      </trkpt>
      <trkpt lat="43.77604" lon="3.83472">
        <ele>444.2</ele>
        <time>2026-05-21T10:09:28.999Z</time>
      </trkpt>
      <trkpt lat="43.77604" lon="3.83472">
        <ele>444.2</ele>
        <time>2026-05-21T10:09:29.999Z</time>
      </trkpt>
      <trkpt lat="43.77604" lon="3.83472">
        <ele>444.1</ele>
        <time>2026-05-21T10:09:30.999Z</time>
      </trkpt>
      <trkpt lat="43.77604" lon="3.83472">
        <ele>444.2</ele>
        <time>2026-05-21T10:09:31.999Z</time>
      </trkpt>
      <trkpt lat="43.77604" lon="3.83471">
        <ele>444.1</ele>
        <time>2026-05-21T10:09:32.999Z</time>
      </trkpt>
      <trkpt lat="43.77604" lon="3.83471">
        <ele>444.2</ele>
        <time>2026-05-21T10:09:33.999Z</time>
      </trkpt>
      <trkpt lat="43.77604" lon="3.83471">
        <ele>444.3</ele>
        <time>2026-05-21T10:09:34.999Z</time>
      </trkpt>
      <trkpt lat="43.77604" lon="3.83471">
        <ele>444.1</ele>
        <time>2026-05-21T10:09:35.999Z</time>
      </trkpt>
      <trkpt lat="43.77604" lon="3.83471">
        <ele>444.1</ele>
        <time>2026-05-21T10:09:36.999Z</time>
      </trkpt>
      <trkpt lat="43.77604" lon="3.83471">
        <ele>444</ele>
        <time>2026-05-21T10:09:37.999Z</time>
      </trkpt>
      <trkpt lat="43.77604" lon="3.83471">
        <ele>443.8</ele>
        <time>2026-05-21T10:09:38.999Z</time>
      </trkpt>
      <trkpt lat="43.77604" lon="3.83471">
        <ele>443.7</ele>
        <time>2026-05-21T10:09:39.999Z</time>
      </trkpt>
      <trkpt lat="43.77605" lon="3.8347">
        <ele>443.8</ele>
        <time>2026-05-21T10:09:40.999Z</time>
      </trkpt>
      <trkpt lat="43.77605" lon="3.8347">
        <ele>443.8</ele>
        <time>2026-05-21T10:09:41.999Z</time>
      </trkpt>
      <trkpt lat="43.77605" lon="3.8347">
        <ele>443.7</ele>
        <time>2026-05-21T10:09:42.999Z</time>
      </trkpt>
      <trkpt lat="43.77605" lon="3.8347">
        <ele>443.6</ele>
        <time>2026-05-21T10:09:43.999Z</time>
      </trkpt>
      <trkpt lat="43.77605" lon="3.8347">
        <ele>443.8</ele>
        <time>2026-05-21T10:09:44.999Z</time>
      </trkpt>
      <trkpt lat="43.77605" lon="3.8347">
        <ele>444</ele>
        <time>2026-05-21T10:09:45.999Z</time>
      </trkpt>
      <trkpt lat="43.77605" lon="3.8347">
        <ele>444</ele>
        <time>2026-05-21T10:09:46.999Z</time>
      </trkpt>
      <trkpt lat="43.77605" lon="3.8347">
        <ele>444.1</ele>
        <time>2026-05-21T10:09:47.999Z</time>
      </trkpt>
      <trkpt lat="43.77605" lon="3.8347">
        <ele>444</ele>
        <time>2026-05-21T10:09:48.999Z</time>
      </trkpt>
      <trkpt lat="43.77605" lon="3.8347">
        <ele>444.1</ele>
        <time>2026-05-21T10:09:49.999Z</time>
      </trkpt>
      <trkpt lat="43.77605" lon="3.8347">
        <ele>444.3</ele>
        <time>2026-05-21T10:09:50.999Z</time>
      </trkpt>
      <trkpt lat="43.77605" lon="3.8347">
        <ele>444.3</ele>
        <time>2026-05-21T10:09:51.999Z</time>
      </trkpt>
      <trkpt lat="43.77605" lon="3.8347">
        <ele>444.2</ele>
        <time>2026-05-21T10:09:52.999Z</time>
      </trkpt>
      <trkpt lat="43.77606" lon="3.8347">
        <ele>444.1</ele>
        <time>2026-05-21T10:09:53.999Z</time>
      </trkpt>
      <trkpt lat="43.77606" lon="3.8347">
        <ele>443.9</ele>
        <time>2026-05-21T10:09:54.999Z</time>
      </trkpt>
      <trkpt lat="43.77607" lon="3.83469">
        <ele>443.8</ele>
        <time>2026-05-21T10:09:55.999Z</time>
      </trkpt>
      <trkpt lat="43.77607" lon="3.83469">
        <ele>443.7</ele>
        <time>2026-05-21T10:09:56.999Z</time>
      </trkpt>
      <trkpt lat="43.77607" lon="3.83469">
        <ele>443.6</ele>
        <time>2026-05-21T10:09:57.999Z</time>
      </trkpt>
      <trkpt lat="43.77607" lon="3.83469">
        <ele>443.5</ele>
        <time>2026-05-21T10:09:58.999Z</time>
      </trkpt>
      <trkpt lat="43.77607" lon="3.83469">
        <ele>443.3</ele>
        <time>2026-05-21T10:09:59.999Z</time>
      </trkpt>
      <trkpt lat="43.77607" lon="3.83469">
        <ele>443.4</ele>
        <time>2026-05-21T10:10:00.999Z</time>
      </trkpt>
      <trkpt lat="43.77607" lon="3.83469">
        <ele>443.5</ele>
        <time>2026-05-21T10:10:01.999Z</time>
      </trkpt>
      <trkpt lat="43.77607" lon="3.83469">
        <ele>443.4</ele>
        <time>2026-05-21T10:10:02.999Z</time>
      </trkpt>
      <trkpt lat="43.77607" lon="3.83469">
        <ele>443.4</ele>
        <time>2026-05-21T10:10:03.999Z</time>
      </trkpt>
      <trkpt lat="43.77607" lon="3.83469">
        <ele>443.4</ele>
        <time>2026-05-21T10:10:04.999Z</time>
      </trkpt>
      <trkpt lat="43.77607" lon="3.83469">
        <ele>443.5</ele>
        <time>2026-05-21T10:10:05.999Z</time>
      </trkpt>
      <trkpt lat="43.77607" lon="3.83469">
        <ele>443.5</ele>
        <time>2026-05-21T10:10:06.999Z</time>
      </trkpt>
      <trkpt lat="43.77608" lon="3.83469">
        <ele>443.4</ele>
        <time>2026-05-21T10:10:07.999Z</time>
      </trkpt>
      <trkpt lat="43.77608" lon="3.83469">
        <ele>443.5</ele>
        <time>2026-05-21T10:10:08.999Z</time>
      </trkpt>
      <trkpt lat="43.77608" lon="3.83469">
        <ele>443.5</ele>
        <time>2026-05-21T10:10:09.999Z</time>
      </trkpt>
      <trkpt lat="43.77608" lon="3.83469">
        <ele>443.6</ele>
        <time>2026-05-21T10:10:10.999Z</time>
      </trkpt>
      <trkpt lat="43.77608" lon="3.83468">
        <ele>443.7</ele>
        <time>2026-05-21T10:10:11.999Z</time>
      </trkpt>
      <trkpt lat="43.77608" lon="3.83468">
        <ele>443.8</ele>
        <time>2026-05-21T10:10:12.999Z</time>
      </trkpt>
      <trkpt lat="43.77608" lon="3.83468">
        <ele>443.8</ele>
        <time>2026-05-21T10:10:13.999Z</time>
      </trkpt>
      <trkpt lat="43.77608" lon="3.83468">
        <ele>443.8</ele>
        <time>2026-05-21T10:10:14.999Z</time>
      </trkpt>
      <trkpt lat="43.77608" lon="3.83468">
        <ele>444.1</ele>
        <time>2026-05-21T10:10:15.999Z</time>
      </trkpt>
      <trkpt lat="43.77608" lon="3.83468">
        <ele>444.2</ele>
        <time>2026-05-21T10:10:16.999Z</time>
      </trkpt>
      <trkpt lat="43.77608" lon="3.83468">
        <ele>444.2</ele>
        <time>2026-05-21T10:10:17.999Z</time>
      </trkpt>
      <trkpt lat="43.77608" lon="3.83468">
        <ele>444.1</ele>
        <time>2026-05-21T10:10:18.999Z</time>
      </trkpt>
      <trkpt lat="43.77608" lon="3.83468">
        <ele>444.1</ele>
        <time>2026-05-21T10:10:19.999Z</time>
      </trkpt>
      <trkpt lat="43.77608" lon="3.83468">
        <ele>444</ele>
        <time>2026-05-21T10:10:20.999Z</time>
      </trkpt>
      <trkpt lat="43.77608" lon="3.83468">
        <ele>444.1</ele>
        <time>2026-05-21T10:10:21.999Z</time>
      </trkpt>
      <trkpt lat="43.77609" lon="3.83467">
        <ele>444.2</ele>
        <time>2026-05-21T10:10:22.999Z</time>
      </trkpt>
      <trkpt lat="43.77609" lon="3.83466">
        <ele>444.3</ele>
        <time>2026-05-21T10:10:23.999Z</time>
      </trkpt>
      <trkpt lat="43.7761" lon="3.83466">
        <ele>444.5</ele>
        <time>2026-05-21T10:10:24.999Z</time>
      </trkpt>
      <trkpt lat="43.7761" lon="3.83465">
        <ele>444.6</ele>
        <time>2026-05-21T10:10:25.999Z</time>
      </trkpt>
      <trkpt lat="43.77611" lon="3.83465">
        <ele>444.6</ele>
        <time>2026-05-21T10:10:26.999Z</time>
      </trkpt>
      <trkpt lat="43.7761" lon="3.83465">
        <ele>444.4</ele>
        <time>2026-05-21T10:10:27.999Z</time>
      </trkpt>
      <trkpt lat="43.77611" lon="3.83465">
        <ele>444.4</ele>
        <time>2026-05-21T10:10:28.999Z</time>
      </trkpt>
      <trkpt lat="43.77611" lon="3.83465">
        <ele>444.6</ele>
        <time>2026-05-21T10:10:29.999Z</time>
      </trkpt>
      <trkpt lat="43.77611" lon="3.83465">
        <ele>444.7</ele>
        <time>2026-05-21T10:10:30.999Z</time>
      </trkpt>
      <trkpt lat="43.77611" lon="3.83465">
        <ele>444.6</ele>
        <time>2026-05-21T10:10:31.999Z</time>
      </trkpt>
      <trkpt lat="43.77611" lon="3.83465">
        <ele>444.4</ele>
        <time>2026-05-21T10:10:32.999Z</time>
      </trkpt>
      <trkpt lat="43.77611" lon="3.83465">
        <ele>444.8</ele>
        <time>2026-05-21T10:10:33.999Z</time>
      </trkpt>
      <trkpt lat="43.77611" lon="3.83465">
        <ele>445</ele>
        <time>2026-05-21T10:10:34.999Z</time>
      </trkpt>
      <trkpt lat="43.77611" lon="3.83465">
        <ele>445.1</ele>
        <time>2026-05-21T10:10:35.999Z</time>
      </trkpt>
      <trkpt lat="43.77611" lon="3.83464">
        <ele>445.2</ele>
        <time>2026-05-21T10:10:36.999Z</time>
      </trkpt>
      <trkpt lat="43.77611" lon="3.83464">
        <ele>445.4</ele>
        <time>2026-05-21T10:10:37.999Z</time>
      </trkpt>
      <trkpt lat="43.77612" lon="3.83463">
        <ele>445.5</ele>
        <time>2026-05-21T10:10:38.999Z</time>
      </trkpt>
      <trkpt lat="43.77613" lon="3.8346">
        <ele>445.4</ele>
        <time>2026-05-21T10:10:40.999Z</time>
      </trkpt>
      <trkpt lat="43.77614" lon="3.83458">
        <ele>445.4</ele>
        <time>2026-05-21T10:10:41.999Z</time>
      </trkpt>
      <trkpt lat="43.77614" lon="3.83457">
        <ele>445.5</ele>
        <time>2026-05-21T10:10:42.999Z</time>
      </trkpt>
      <trkpt lat="43.77614" lon="3.83455">
        <ele>445.5</ele>
        <time>2026-05-21T10:10:43.999Z</time>
      </trkpt>
      <trkpt lat="43.77613" lon="3.83454">
        <ele>445.4</ele>
        <time>2026-05-21T10:10:44.999Z</time>
      </trkpt>
      <trkpt lat="43.77612" lon="3.83454">
        <ele>445.4</ele>
        <time>2026-05-21T10:10:45.999Z</time>
      </trkpt>
      <trkpt lat="43.77612" lon="3.83453">
        <ele>445.2</ele>
        <time>2026-05-21T10:10:46.999Z</time>
      </trkpt>
      <trkpt lat="43.77611" lon="3.83453">
        <ele>445</ele>
        <time>2026-05-21T10:10:47.999Z</time>
      </trkpt>
      <trkpt lat="43.77611" lon="3.83453">
        <ele>443.1</ele>
        <time>2026-05-21T10:10:48.999Z</time>
      </trkpt>
      <trkpt lat="43.77611" lon="3.83453">
        <ele>443.4</ele>
        <time>2026-05-21T10:10:49.999Z</time>
      </trkpt>
      <trkpt lat="43.77611" lon="3.83454">
        <ele>443.3</ele>
        <time>2026-05-21T10:10:50.999Z</time>
      </trkpt>
      <trkpt lat="43.77611" lon="3.83454">
        <ele>443</ele>
        <time>2026-05-21T10:10:51.999Z</time>
      </trkpt>
      <trkpt lat="43.77611" lon="3.83454">
        <ele>443</ele>
        <time>2026-05-21T10:10:52.999Z</time>
      </trkpt>
      <trkpt lat="43.77611" lon="3.83454">
        <ele>442.9</ele>
        <time>2026-05-21T10:10:53.999Z</time>
      </trkpt>
      <trkpt lat="43.77611" lon="3.83454">
        <ele>442.7</ele>
        <time>2026-05-21T10:10:54.999Z</time>
      </trkpt>
      <trkpt lat="43.77611" lon="3.83454">
        <ele>442.6</ele>
        <time>2026-05-21T10:10:55.999Z</time>
      </trkpt>
      <trkpt lat="43.77611" lon="3.83454">
        <ele>442.5</ele>
        <time>2026-05-21T10:10:56.999Z</time>
      </trkpt>
      <trkpt lat="43.77611" lon="3.83454">
        <ele>442.5</ele>
        <time>2026-05-21T10:10:57.999Z</time>
      </trkpt>
      <trkpt lat="43.77611" lon="3.83454">
        <ele>442.3</ele>
        <time>2026-05-21T10:10:58.999Z</time>
      </trkpt>
      <trkpt lat="43.77611" lon="3.83454">
        <ele>442.1</ele>
        <time>2026-05-21T10:10:59.999Z</time>
      </trkpt>
      <trkpt lat="43.77611" lon="3.83454">
        <ele>442.2</ele>
        <time>2026-05-21T10:11:00.999Z</time>
      </trkpt>
      <trkpt lat="43.77611" lon="3.83454">
        <ele>442.2</ele>
        <time>2026-05-21T10:11:01.999Z</time>
      </trkpt>
      <trkpt lat="43.77611" lon="3.83455">
        <ele>442.3</ele>
        <time>2026-05-21T10:11:02.999Z</time>
      </trkpt>
      <trkpt lat="43.77611" lon="3.83455">
        <ele>442.4</ele>
        <time>2026-05-21T10:11:03.999Z</time>
      </trkpt>
      <trkpt lat="43.77611" lon="3.83455">
        <ele>442.5</ele>
        <time>2026-05-21T10:11:04.999Z</time>
      </trkpt>
      <trkpt lat="43.77611" lon="3.83455">
        <ele>442.5</ele>
        <time>2026-05-21T10:11:05.999Z</time>
      </trkpt>
      <trkpt lat="43.77611" lon="3.83455">
        <ele>442.5</ele>
        <time>2026-05-21T10:11:06.999Z</time>
      </trkpt>
      <trkpt lat="43.77611" lon="3.83455">
        <ele>442.3</ele>
        <time>2026-05-21T10:11:07.999Z</time>
      </trkpt>
      <trkpt lat="43.77611" lon="3.83455">
        <ele>442.2</ele>
        <time>2026-05-21T10:11:08.999Z</time>
      </trkpt>
      <trkpt lat="43.77611" lon="3.83456">
        <ele>442.1</ele>
        <time>2026-05-21T10:11:09.999Z</time>
      </trkpt>
      <trkpt lat="43.77611" lon="3.83456">
        <ele>442.1</ele>
        <time>2026-05-21T10:11:10.999Z</time>
      </trkpt>
      <trkpt lat="43.77611" lon="3.83456">
        <ele>442</ele>
        <time>2026-05-21T10:11:11.999Z</time>
      </trkpt>
      <trkpt lat="43.77611" lon="3.83456">
        <ele>441.9</ele>
        <time>2026-05-21T10:11:12.999Z</time>
      </trkpt>
      <trkpt lat="43.77611" lon="3.83456">
        <ele>441.9</ele>
        <time>2026-05-21T10:11:13.999Z</time>
      </trkpt>
      <trkpt lat="43.77611" lon="3.83456">
        <ele>442</ele>
        <time>2026-05-21T10:11:14.999Z</time>
      </trkpt>
      <trkpt lat="43.77611" lon="3.83456">
        <ele>442</ele>
        <time>2026-05-21T10:11:15.999Z</time>
      </trkpt>
      <trkpt lat="43.77611" lon="3.83456">
        <ele>442</ele>
        <time>2026-05-21T10:11:16.999Z</time>
      </trkpt>
      <trkpt lat="43.77611" lon="3.83456">
        <ele>442.2</ele>
        <time>2026-05-21T10:11:17.999Z</time>
      </trkpt>
      <trkpt lat="43.77611" lon="3.83456">
        <ele>442.1</ele>
        <time>2026-05-21T10:11:18.999Z</time>
      </trkpt>
      <trkpt lat="43.77611" lon="3.83456">
        <ele>442.2</ele>
        <time>2026-05-21T10:11:19.999Z</time>
      </trkpt>
      <trkpt lat="43.77611" lon="3.83456">
        <ele>442.5</ele>
        <time>2026-05-21T10:11:20.999Z</time>
      </trkpt>
      <trkpt lat="43.77612" lon="3.83456">
        <ele>442.7</ele>
        <time>2026-05-21T10:11:21.999Z</time>
      </trkpt>
      <trkpt lat="43.77612" lon="3.83456">
        <ele>442.8</ele>
        <time>2026-05-21T10:11:22.999Z</time>
      </trkpt>
      <trkpt lat="43.77612" lon="3.83456">
        <ele>442.8</ele>
        <time>2026-05-21T10:11:23.999Z</time>
      </trkpt>
      <trkpt lat="43.77612" lon="3.83456">
        <ele>442.9</ele>
        <time>2026-05-21T10:11:24.999Z</time>
      </trkpt>
      <trkpt lat="43.77612" lon="3.83456">
        <ele>443.1</ele>
        <time>2026-05-21T10:11:25.999Z</time>
      </trkpt>
      <trkpt lat="43.77612" lon="3.83456">
        <ele>443.3</ele>
        <time>2026-05-21T10:11:26.999Z</time>
      </trkpt>
      <trkpt lat="43.77612" lon="3.83456">
        <ele>443.3</ele>
        <time>2026-05-21T10:11:27.999Z</time>
      </trkpt>
      <trkpt lat="43.77612" lon="3.83456">
        <ele>443.1</ele>
        <time>2026-05-21T10:11:29.000Z</time>
      </trkpt>
      <trkpt lat="43.77611" lon="3.83456">
        <ele>443.3</ele>
        <time>2026-05-21T10:11:30.000Z</time>
      </trkpt>
      <trkpt lat="43.77611" lon="3.83456">
        <ele>443.3</ele>
        <time>2026-05-21T10:11:31.000Z</time>
      </trkpt>
      <trkpt lat="43.77611" lon="3.83456">
        <ele>443.2</ele>
        <time>2026-05-21T10:11:32.000Z</time>
      </trkpt>
      <trkpt lat="43.77611" lon="3.83456">
        <ele>443.2</ele>
        <time>2026-05-21T10:11:33.000Z</time>
      </trkpt>
      <trkpt lat="43.77611" lon="3.83457">
        <ele>443.3</ele>
        <time>2026-05-21T10:11:34.000Z</time>
      </trkpt>
      <trkpt lat="43.77611" lon="3.83457">
        <ele>443.3</ele>
        <time>2026-05-21T10:11:35.000Z</time>
      </trkpt>
      <trkpt lat="43.77611" lon="3.83456">
        <ele>443.4</ele>
        <time>2026-05-21T10:11:36.000Z</time>
      </trkpt>
      <trkpt lat="43.77611" lon="3.83456">
        <ele>443.4</ele>
        <time>2026-05-21T10:11:37.000Z</time>
      </trkpt>
      <trkpt lat="43.77611" lon="3.83456">
        <ele>443.4</ele>
        <time>2026-05-21T10:11:38.000Z</time>
      </trkpt>
      <trkpt lat="43.77611" lon="3.83456">
        <ele>443.4</ele>
        <time>2026-05-21T10:11:39.000Z</time>
      </trkpt>
      <trkpt lat="43.77611" lon="3.83456">
        <ele>443.4</ele>
        <time>2026-05-21T10:11:40.000Z</time>
      </trkpt>
      <trkpt lat="43.77611" lon="3.83456">
        <ele>443.5</ele>
        <time>2026-05-21T10:11:41.000Z</time>
      </trkpt>
      <trkpt lat="43.77611" lon="3.83456">
        <ele>443.5</ele>
        <time>2026-05-21T10:11:42.000Z</time>
      </trkpt>
      <trkpt lat="43.77611" lon="3.83456">
        <ele>443.5</ele>
        <time>2026-05-21T10:11:43.000Z</time>
      </trkpt>
      <trkpt lat="43.77611" lon="3.83456">
        <ele>443.4</ele>
        <time>2026-05-21T10:11:44.000Z</time>
      </trkpt>
      <trkpt lat="43.77611" lon="3.83456">
        <ele>443.3</ele>
        <time>2026-05-21T10:11:45.000Z</time>
      </trkpt>
      <trkpt lat="43.77611" lon="3.83456">
        <ele>443.4</ele>
        <time>2026-05-21T10:11:46.000Z</time>
      </trkpt>
      <trkpt lat="43.77612" lon="3.83456">
        <ele>443.5</ele>
        <time>2026-05-21T10:11:47.000Z</time>
      </trkpt>
      <trkpt lat="43.77612" lon="3.83457">
        <ele>443.6</ele>
        <time>2026-05-21T10:11:48.000Z</time>
      </trkpt>
      <trkpt lat="43.77612" lon="3.83457">
        <ele>443.6</ele>
        <time>2026-05-21T10:11:49.000Z</time>
      </trkpt>
      <trkpt lat="43.77612" lon="3.83457">
        <ele>443.5</ele>
        <time>2026-05-21T10:11:50.000Z</time>
      </trkpt>
      <trkpt lat="43.77612" lon="3.83457">
        <ele>443.4</ele>
        <time>2026-05-21T10:11:51.000Z</time>
      </trkpt>
      <trkpt lat="43.77612" lon="3.83457">
        <ele>443.2</ele>
        <time>2026-05-21T10:11:52.000Z</time>
      </trkpt>
      <trkpt lat="43.77612" lon="3.83457">
        <ele>443</ele>
        <time>2026-05-21T10:11:53.000Z</time>
      </trkpt>
      <trkpt lat="43.77612" lon="3.83458">
        <ele>443.2</ele>
        <time>2026-05-21T10:11:54.000Z</time>
      </trkpt>
      <trkpt lat="43.77612" lon="3.83457">
        <ele>443.4</ele>
        <time>2026-05-21T10:11:55.000Z</time>
      </trkpt>
      <trkpt lat="43.77612" lon="3.83457">
        <ele>443.6</ele>
        <time>2026-05-21T10:11:56.000Z</time>
      </trkpt>
      <trkpt lat="43.77612" lon="3.83457">
        <ele>443.6</ele>
        <time>2026-05-21T10:11:57.000Z</time>
      </trkpt>
      <trkpt lat="43.77612" lon="3.83457">
        <ele>443.6</ele>
        <time>2026-05-21T10:11:58.000Z</time>
      </trkpt>
      <trkpt lat="43.77612" lon="3.83457">
        <ele>443.4</ele>
        <time>2026-05-21T10:11:59.000Z</time>
      </trkpt>
      <trkpt lat="43.77612" lon="3.83457">
        <ele>443.2</ele>
        <time>2026-05-21T10:12:00.000Z</time>
      </trkpt>
      <trkpt lat="43.77612" lon="3.83457">
        <ele>443</ele>
        <time>2026-05-21T10:12:01.000Z</time>
      </trkpt>
      <trkpt lat="43.77612" lon="3.83457">
        <ele>442.9</ele>
        <time>2026-05-21T10:12:02.000Z</time>
      </trkpt>
      <trkpt lat="43.77611" lon="3.83457">
        <ele>442.7</ele>
        <time>2026-05-21T10:12:03.000Z</time>
      </trkpt>
      <trkpt lat="43.77611" lon="3.83457">
        <ele>442.5</ele>
        <time>2026-05-21T10:12:04.000Z</time>
      </trkpt>
      <trkpt lat="43.77611" lon="3.83457">
        <ele>442.3</ele>
        <time>2026-05-21T10:12:05.000Z</time>
      </trkpt>
      <trkpt lat="43.77611" lon="3.83457">
        <ele>442.1</ele>
        <time>2026-05-21T10:12:06.000Z</time>
      </trkpt>
      <trkpt lat="43.77611" lon="3.83457">
        <ele>442</ele>
        <time>2026-05-21T10:12:07.000Z</time>
      </trkpt>
      <trkpt lat="43.77611" lon="3.83457">
        <ele>441.9</ele>
        <time>2026-05-21T10:12:08.000Z</time>
      </trkpt>
      <trkpt lat="43.77611" lon="3.83457">
        <ele>441.6</ele>
        <time>2026-05-21T10:12:09.000Z</time>
      </trkpt>
      <trkpt lat="43.77611" lon="3.83457">
        <ele>441.4</ele>
        <time>2026-05-21T10:12:10.000Z</time>
      </trkpt>
      <trkpt lat="43.77611" lon="3.83457">
        <ele>441.3</ele>
        <time>2026-05-21T10:12:11.000Z</time>
      </trkpt>
      <trkpt lat="43.77611" lon="3.83457">
        <ele>441.2</ele>
        <time>2026-05-21T10:12:12.000Z</time>
      </trkpt>
      <trkpt lat="43.77611" lon="3.83457">
        <ele>441.4</ele>
        <time>2026-05-21T10:12:13.000Z</time>
      </trkpt>
      <trkpt lat="43.77611" lon="3.83456">
        <ele>441.5</ele>
        <time>2026-05-21T10:12:14.000Z</time>
      </trkpt>
      <trkpt lat="43.77611" lon="3.83456">
        <ele>441.7</ele>
        <time>2026-05-21T10:12:15.000Z</time>
      </trkpt>
      <trkpt lat="43.77611" lon="3.83456">
        <ele>441.6</ele>
        <time>2026-05-21T10:12:16.000Z</time>
      </trkpt>
      <trkpt lat="43.77611" lon="3.83456">
        <ele>441.6</ele>
        <time>2026-05-21T10:12:17.000Z</time>
      </trkpt>
      <trkpt lat="43.77611" lon="3.83456">
        <ele>441.6</ele>
        <time>2026-05-21T10:12:18.000Z</time>
      </trkpt>
      <trkpt lat="43.77611" lon="3.83456">
        <ele>441.6</ele>
        <time>2026-05-21T10:12:19.000Z</time>
      </trkpt>
      <trkpt lat="43.77611" lon="3.83456">
        <ele>441.6</ele>
        <time>2026-05-21T10:12:20.000Z</time>
      </trkpt>
      <trkpt lat="43.77611" lon="3.83456">
        <ele>441.6</ele>
        <time>2026-05-21T10:12:21.000Z</time>
      </trkpt>
      <trkpt lat="43.77611" lon="3.83456">
        <ele>441.5</ele>
        <time>2026-05-21T10:12:22.000Z</time>
      </trkpt>
      <trkpt lat="43.77611" lon="3.83456">
        <ele>441.6</ele>
        <time>2026-05-21T10:12:23.000Z</time>
      </trkpt>
      <trkpt lat="43.77611" lon="3.83456">
        <ele>441.6</ele>
        <time>2026-05-21T10:12:24.000Z</time>
      </trkpt>
      <trkpt lat="43.77611" lon="3.83456">
        <ele>441.7</ele>
        <time>2026-05-21T10:12:25.000Z</time>
      </trkpt>
      <trkpt lat="43.77611" lon="3.83456">
        <ele>441.8</ele>
        <time>2026-05-21T10:12:26.000Z</time>
      </trkpt>
      <trkpt lat="43.77611" lon="3.83456">
        <ele>441.8</ele>
        <time>2026-05-21T10:12:27.000Z</time>
      </trkpt>
      <trkpt lat="43.77611" lon="3.83456">
        <ele>441.8</ele>
        <time>2026-05-21T10:12:28.000Z</time>
      </trkpt>
      <trkpt lat="43.77611" lon="3.83456">
        <ele>441.9</ele>
        <time>2026-05-21T10:12:29.000Z</time>
      </trkpt>
      <trkpt lat="43.77611" lon="3.83456">
        <ele>441.9</ele>
        <time>2026-05-21T10:12:30.000Z</time>
      </trkpt>
      <trkpt lat="43.77611" lon="3.83456">
        <ele>441.9</ele>
        <time>2026-05-21T10:12:31.000Z</time>
      </trkpt>
      <trkpt lat="43.77611" lon="3.83456">
        <ele>441.8</ele>
        <time>2026-05-21T10:12:32.000Z</time>
      </trkpt>
      <trkpt lat="43.77611" lon="3.83456">
        <ele>441.7</ele>
        <time>2026-05-21T10:12:33.000Z</time>
      </trkpt>
      <trkpt lat="43.77611" lon="3.83456">
        <ele>441.8</ele>
        <time>2026-05-21T10:12:34.000Z</time>
      </trkpt>
      <trkpt lat="43.77611" lon="3.83456">
        <ele>441.9</ele>
        <time>2026-05-21T10:12:35.000Z</time>
      </trkpt>
      <trkpt lat="43.77611" lon="3.83456">
        <ele>441.8</ele>
        <time>2026-05-21T10:12:36.000Z</time>
      </trkpt>
      <trkpt lat="43.77611" lon="3.83456">
        <ele>441.7</ele>
        <time>2026-05-21T10:12:37.000Z</time>
      </trkpt>
      <trkpt lat="43.77611" lon="3.83455">
        <ele>441.7</ele>
        <time>2026-05-21T10:12:38.000Z</time>
      </trkpt>
      <trkpt lat="43.77611" lon="3.83455">
        <ele>441.7</ele>
        <time>2026-05-21T10:12:39.000Z</time>
      </trkpt>
      <trkpt lat="43.77611" lon="3.83454">
        <ele>441.7</ele>
        <time>2026-05-21T10:12:40.000Z</time>
      </trkpt>
      <trkpt lat="43.77611" lon="3.83454">
        <ele>441.7</ele>
        <time>2026-05-21T10:12:41.000Z</time>
      </trkpt>
      <trkpt lat="43.77611" lon="3.83454">
        <ele>441.7</ele>
        <time>2026-05-21T10:12:42.000Z</time>
      </trkpt>
      <trkpt lat="43.77611" lon="3.83454">
        <ele>441.7</ele>
        <time>2026-05-21T10:12:43.000Z</time>
      </trkpt>
      <trkpt lat="43.77611" lon="3.83454">
        <ele>441.8</ele>
        <time>2026-05-21T10:12:44.000Z</time>
      </trkpt>
      <trkpt lat="43.7761" lon="3.83455">
        <ele>441.7</ele>
        <time>2026-05-21T10:12:45.000Z</time>
      </trkpt>
      <trkpt lat="43.7761" lon="3.83455">
        <ele>441.9</ele>
        <time>2026-05-21T10:12:46.000Z</time>
      </trkpt>
      <trkpt lat="43.77609" lon="3.83456">
        <ele>441.8</ele>
        <time>2026-05-21T10:12:47.000Z</time>
      </trkpt>
      <trkpt lat="43.77609" lon="3.83456">
        <ele>441.6</ele>
        <time>2026-05-21T10:12:48.000Z</time>
      </trkpt>
      <trkpt lat="43.77609" lon="3.83457">
        <ele>441.6</ele>
        <time>2026-05-21T10:12:49.000Z</time>
      </trkpt>
      <trkpt lat="43.77609" lon="3.83457">
        <ele>441.6</ele>
        <time>2026-05-21T10:12:50.000Z</time>
      </trkpt>
      <trkpt lat="43.77609" lon="3.83457">
        <ele>441.5</ele>
        <time>2026-05-21T10:12:51.000Z</time>
      </trkpt>
      <trkpt lat="43.77609" lon="3.83456">
        <ele>441.7</ele>
        <time>2026-05-21T10:12:52.000Z</time>
      </trkpt>
      <trkpt lat="43.77609" lon="3.83456">
        <ele>441.7</ele>
        <time>2026-05-21T10:12:53.000Z</time>
      </trkpt>
      <trkpt lat="43.77609" lon="3.83456">
        <ele>441.8</ele>
        <time>2026-05-21T10:12:54.000Z</time>
      </trkpt>
      <trkpt lat="43.77609" lon="3.83456">
        <ele>441.9</ele>
        <time>2026-05-21T10:12:55.000Z</time>
      </trkpt>
      <trkpt lat="43.77609" lon="3.83456">
        <ele>442</ele>
        <time>2026-05-21T10:12:56.000Z</time>
      </trkpt>
      <trkpt lat="43.77609" lon="3.83456">
        <ele>442.3</ele>
        <time>2026-05-21T10:12:57.000Z</time>
      </trkpt>
      <trkpt lat="43.77609" lon="3.83456">
        <ele>442.4</ele>
        <time>2026-05-21T10:12:58.000Z</time>
      </trkpt>
      <trkpt lat="43.7761" lon="3.83456">
        <ele>442.5</ele>
        <time>2026-05-21T10:12:59.000Z</time>
      </trkpt>
      <trkpt lat="43.7761" lon="3.83456">
        <ele>442.5</ele>
        <time>2026-05-21T10:13:00.000Z</time>
      </trkpt>
      <trkpt lat="43.7761" lon="3.83456">
        <ele>442.5</ele>
        <time>2026-05-21T10:13:01.000Z</time>
      </trkpt>
      <trkpt lat="43.7761" lon="3.83456">
        <ele>442.5</ele>
        <time>2026-05-21T10:13:02.000Z</time>
      </trkpt>
      <trkpt lat="43.7761" lon="3.83456">
        <ele>442.5</ele>
        <time>2026-05-21T10:13:03.000Z</time>
      </trkpt>
      <trkpt lat="43.7761" lon="3.83456">
        <ele>442.4</ele>
        <time>2026-05-21T10:13:04.000Z</time>
      </trkpt>
      <trkpt lat="43.7761" lon="3.83456">
        <ele>442.4</ele>
        <time>2026-05-21T10:13:05.000Z</time>
      </trkpt>
      <trkpt lat="43.7761" lon="3.83456">
        <ele>442.4</ele>
        <time>2026-05-21T10:13:06.000Z</time>
      </trkpt>
      <trkpt lat="43.7761" lon="3.83456">
        <ele>442.4</ele>
        <time>2026-05-21T10:13:07.000Z</time>
      </trkpt>
      <trkpt lat="43.7761" lon="3.83456">
        <ele>442.4</ele>
        <time>2026-05-21T10:13:08.000Z</time>
      </trkpt>
      <trkpt lat="43.7761" lon="3.83456">
        <ele>442.4</ele>
        <time>2026-05-21T10:13:09.000Z</time>
      </trkpt>
      <trkpt lat="43.7761" lon="3.83456">
        <ele>442.7</ele>
        <time>2026-05-21T10:13:10.000Z</time>
      </trkpt>
      <trkpt lat="43.7761" lon="3.83456">
        <ele>442.7</ele>
        <time>2026-05-21T10:13:11.000Z</time>
      </trkpt>
      <trkpt lat="43.7761" lon="3.83456">
        <ele>442.9</ele>
        <time>2026-05-21T10:13:12.000Z</time>
      </trkpt>
      <trkpt lat="43.7761" lon="3.83456">
        <ele>442.9</ele>
        <time>2026-05-21T10:13:13.000Z</time>
      </trkpt>
      <trkpt lat="43.7761" lon="3.83456">
        <ele>442.9</ele>
        <time>2026-05-21T10:13:14.000Z</time>
      </trkpt>
      <trkpt lat="43.7761" lon="3.83456">
        <ele>442.8</ele>
        <time>2026-05-21T10:13:16.000Z</time>
      </trkpt>
      <trkpt lat="43.7761" lon="3.83456">
        <ele>442.8</ele>
        <time>2026-05-21T10:13:17.000Z</time>
      </trkpt>
      <trkpt lat="43.7761" lon="3.83456">
        <ele>442.7</ele>
        <time>2026-05-21T10:13:18.000Z</time>
      </trkpt>
      <trkpt lat="43.7761" lon="3.83456">
        <ele>442.7</ele>
        <time>2026-05-21T10:13:19.000Z</time>
      </trkpt>
      <trkpt lat="43.7761" lon="3.83456">
        <ele>442.6</ele>
        <time>2026-05-21T10:13:20.000Z</time>
      </trkpt>
      <trkpt lat="43.7761" lon="3.83456">
        <ele>442.4</ele>
        <time>2026-05-21T10:13:21.000Z</time>
      </trkpt>
      <trkpt lat="43.7761" lon="3.83456">
        <ele>442.3</ele>
        <time>2026-05-21T10:13:22.000Z</time>
      </trkpt>
      <trkpt lat="43.7761" lon="3.83456">
        <ele>442.2</ele>
        <time>2026-05-21T10:13:23.000Z</time>
      </trkpt>
      <trkpt lat="43.7761" lon="3.83456">
        <ele>442</ele>
        <time>2026-05-21T10:13:24.000Z</time>
      </trkpt>
      <trkpt lat="43.7761" lon="3.83456">
        <ele>441.9</ele>
        <time>2026-05-21T10:13:25.000Z</time>
      </trkpt>
      <trkpt lat="43.7761" lon="3.83456">
        <ele>441.9</ele>
        <time>2026-05-21T10:13:26.000Z</time>
      </trkpt>
      <trkpt lat="43.7761" lon="3.83456">
        <ele>441.9</ele>
        <time>2026-05-21T10:13:27.000Z</time>
      </trkpt>
      <trkpt lat="43.77609" lon="3.83456">
        <ele>441.9</ele>
        <time>2026-05-21T10:13:28.000Z</time>
      </trkpt>
      <trkpt lat="43.77609" lon="3.83456">
        <ele>441.9</ele>
        <time>2026-05-21T10:13:29.000Z</time>
      </trkpt>
      <trkpt lat="43.77609" lon="3.83456">
        <ele>441.8</ele>
        <time>2026-05-21T10:13:30.000Z</time>
      </trkpt>
      <trkpt lat="43.77609" lon="3.83456">
        <ele>441.8</ele>
        <time>2026-05-21T10:13:31.000Z</time>
      </trkpt>
      <trkpt lat="43.77609" lon="3.83456">
        <ele>441.7</ele>
        <time>2026-05-21T10:13:32.000Z</time>
      </trkpt>
      <trkpt lat="43.77609" lon="3.83456">
        <ele>441.7</ele>
        <time>2026-05-21T10:13:33.000Z</time>
      </trkpt>
      <trkpt lat="43.77609" lon="3.83456">
        <ele>441.6</ele>
        <time>2026-05-21T10:13:34.000Z</time>
      </trkpt>
      <trkpt lat="43.77609" lon="3.83456">
        <ele>441.6</ele>
        <time>2026-05-21T10:13:35.000Z</time>
      </trkpt>
      <trkpt lat="43.77609" lon="3.83456">
        <ele>441.6</ele>
        <time>2026-05-21T10:13:36.000Z</time>
      </trkpt>
      <trkpt lat="43.77609" lon="3.83456">
        <ele>441.6</ele>
        <time>2026-05-21T10:13:37.000Z</time>
      </trkpt>
      <trkpt lat="43.77609" lon="3.83456">
        <ele>441.6</ele>
        <time>2026-05-21T10:13:38.000Z</time>
      </trkpt>
      <trkpt lat="43.77608" lon="3.83456">
        <ele>441.6</ele>
        <time>2026-05-21T10:13:39.000Z</time>
      </trkpt>
      <trkpt lat="43.77608" lon="3.83455">
        <ele>441.4</ele>
        <time>2026-05-21T10:13:40.000Z</time>
      </trkpt>
      <trkpt lat="43.77608" lon="3.83455">
        <ele>441.4</ele>
        <time>2026-05-21T10:13:41.000Z</time>
      </trkpt>
      <trkpt lat="43.77608" lon="3.83456">
        <ele>441.5</ele>
        <time>2026-05-21T10:13:42.000Z</time>
      </trkpt>
      <trkpt lat="43.77608" lon="3.83456">
        <ele>441.6</ele>
        <time>2026-05-21T10:13:43.000Z</time>
      </trkpt>
      <trkpt lat="43.77608" lon="3.83456">
        <ele>441.6</ele>
        <time>2026-05-21T10:13:44.000Z</time>
      </trkpt>
      <trkpt lat="43.77608" lon="3.83456">
        <ele>441.6</ele>
        <time>2026-05-21T10:13:46.000Z</time>
      </trkpt>
      <trkpt lat="43.77608" lon="3.83455">
        <ele>441.7</ele>
        <time>2026-05-21T10:13:47.000Z</time>
      </trkpt>
      <trkpt lat="43.77608" lon="3.83455">
        <ele>441.7</ele>
        <time>2026-05-21T10:13:48.000Z</time>
      </trkpt>
      <trkpt lat="43.77608" lon="3.83455">
        <ele>441.7</ele>
        <time>2026-05-21T10:13:49.000Z</time>
      </trkpt>
      <trkpt lat="43.77608" lon="3.83455">
        <ele>441.7</ele>
        <time>2026-05-21T10:13:50.000Z</time>
      </trkpt>
      <trkpt lat="43.77608" lon="3.83455">
        <ele>441.7</ele>
        <time>2026-05-21T10:13:51.000Z</time>
      </trkpt>
      <trkpt lat="43.77608" lon="3.83455">
        <ele>441.7</ele>
        <time>2026-05-21T10:13:52.000Z</time>
      </trkpt>
      <trkpt lat="43.77608" lon="3.83454">
        <ele>441.6</ele>
        <time>2026-05-21T10:13:53.000Z</time>
      </trkpt>
      <trkpt lat="43.77608" lon="3.83454">
        <ele>441.5</ele>
        <time>2026-05-21T10:13:54.000Z</time>
      </trkpt>
      <trkpt lat="43.77608" lon="3.83453">
        <ele>441.5</ele>
        <time>2026-05-21T10:13:55.000Z</time>
      </trkpt>
      <trkpt lat="43.77608" lon="3.83453">
        <ele>441.4</ele>
        <time>2026-05-21T10:13:56.000Z</time>
      </trkpt>
      <trkpt lat="43.77608" lon="3.83453">
        <ele>441.3</ele>
        <time>2026-05-21T10:13:57.000Z</time>
      </trkpt>
      <trkpt lat="43.77608" lon="3.83453">
        <ele>441.2</ele>
        <time>2026-05-21T10:13:58.000Z</time>
      </trkpt>
      <trkpt lat="43.77608" lon="3.83453">
        <ele>441</ele>
        <time>2026-05-21T10:13:59.000Z</time>
      </trkpt>
      <trkpt lat="43.77608" lon="3.83453">
        <ele>441</ele>
        <time>2026-05-21T10:14:00.000Z</time>
      </trkpt>
      <trkpt lat="43.77608" lon="3.83453">
        <ele>440.6</ele>
        <time>2026-05-21T10:14:01.000Z</time>
      </trkpt>
      <trkpt lat="43.77608" lon="3.83453">
        <ele>440.4</ele>
        <time>2026-05-21T10:14:02.000Z</time>
      </trkpt>
      <trkpt lat="43.77608" lon="3.83453">
        <ele>440.3</ele>
        <time>2026-05-21T10:14:03.000Z</time>
      </trkpt>
      <trkpt lat="43.77608" lon="3.83453">
        <ele>440.2</ele>
        <time>2026-05-21T10:14:04.000Z</time>
      </trkpt>
      <trkpt lat="43.77608" lon="3.83453">
        <ele>440.3</ele>
        <time>2026-05-21T10:14:05.000Z</time>
      </trkpt>
      <trkpt lat="43.77608" lon="3.83452">
        <ele>440.2</ele>
        <time>2026-05-21T10:14:06.000Z</time>
      </trkpt>
      <trkpt lat="43.77608" lon="3.83453">
        <ele>440.3</ele>
        <time>2026-05-21T10:14:07.000Z</time>
      </trkpt>
      <trkpt lat="43.77608" lon="3.83453">
        <ele>440</ele>
        <time>2026-05-21T10:14:08.000Z</time>
      </trkpt>
      <trkpt lat="43.77608" lon="3.83453">
        <ele>439.7</ele>
        <time>2026-05-21T10:14:09.000Z</time>
      </trkpt>
      <trkpt lat="43.77608" lon="3.83453">
        <ele>439.6</ele>
        <time>2026-05-21T10:14:10.000Z</time>
      </trkpt>
      <trkpt lat="43.77608" lon="3.83453">
        <ele>439.5</ele>
        <time>2026-05-21T10:14:11.000Z</time>
      </trkpt>
      <trkpt lat="43.77608" lon="3.83452">
        <ele>439.7</ele>
        <time>2026-05-21T10:14:12.000Z</time>
      </trkpt>
      <trkpt lat="43.77608" lon="3.83452">
        <ele>439.5</ele>
        <time>2026-05-21T10:14:13.000Z</time>
      </trkpt>
      <trkpt lat="43.77608" lon="3.83451">
        <ele>439.6</ele>
        <time>2026-05-21T10:14:14.000Z</time>
      </trkpt>
      <trkpt lat="43.77608" lon="3.83451">
        <ele>439.8</ele>
        <time>2026-05-21T10:14:15.000Z</time>
      </trkpt>
      <trkpt lat="43.77608" lon="3.83451">
        <ele>440</ele>
        <time>2026-05-21T10:14:16.000Z</time>
      </trkpt>
      <trkpt lat="43.77608" lon="3.83451">
        <ele>440.4</ele>
        <time>2026-05-21T10:14:17.000Z</time>
      </trkpt>
      <trkpt lat="43.77608" lon="3.83451">
        <ele>440.6</ele>
        <time>2026-05-21T10:14:18.000Z</time>
      </trkpt>
      <trkpt lat="43.77608" lon="3.83451">
        <ele>440.6</ele>
        <time>2026-05-21T10:14:19.000Z</time>
      </trkpt>
      <trkpt lat="43.77608" lon="3.83451">
        <ele>440.6</ele>
        <time>2026-05-21T10:14:20.000Z</time>
      </trkpt>
      <trkpt lat="43.77608" lon="3.83451">
        <ele>440.7</ele>
        <time>2026-05-21T10:14:21.000Z</time>
      </trkpt>
      <trkpt lat="43.77608" lon="3.83451">
        <ele>440.7</ele>
        <time>2026-05-21T10:14:22.000Z</time>
      </trkpt>
      <trkpt lat="43.77608" lon="3.83451">
        <ele>440.6</ele>
        <time>2026-05-21T10:14:23.000Z</time>
      </trkpt>
      <trkpt lat="43.77608" lon="3.83451">
        <ele>440.5</ele>
        <time>2026-05-21T10:14:24.000Z</time>
      </trkpt>
      <trkpt lat="43.77608" lon="3.83451">
        <ele>440.3</ele>
        <time>2026-05-21T10:14:25.000Z</time>
      </trkpt>
      <trkpt lat="43.77608" lon="3.83451">
        <ele>440.3</ele>
        <time>2026-05-21T10:14:26.000Z</time>
      </trkpt>
      <trkpt lat="43.77608" lon="3.83451">
        <ele>439.8</ele>
        <time>2026-05-21T10:14:27.000Z</time>
      </trkpt>
      <trkpt lat="43.77608" lon="3.8345">
        <ele>439.8</ele>
        <time>2026-05-21T10:14:28.000Z</time>
      </trkpt>
      <trkpt lat="43.77607" lon="3.8345">
        <ele>439.6</ele>
        <time>2026-05-21T10:14:29.000Z</time>
      </trkpt>
      <trkpt lat="43.77607" lon="3.8345">
        <ele>439.7</ele>
        <time>2026-05-21T10:14:30.000Z</time>
      </trkpt>
      <trkpt lat="43.77607" lon="3.83451">
        <ele>439.7</ele>
        <time>2026-05-21T10:14:31.000Z</time>
      </trkpt>
      <trkpt lat="43.77607" lon="3.83451">
        <ele>439.6</ele>
        <time>2026-05-21T10:14:32.000Z</time>
      </trkpt>
      <trkpt lat="43.77607" lon="3.8345">
        <ele>439.4</ele>
        <time>2026-05-21T10:14:33.000Z</time>
      </trkpt>
      <trkpt lat="43.77607" lon="3.8345">
        <ele>439.2</ele>
        <time>2026-05-21T10:14:34.000Z</time>
      </trkpt>
      <trkpt lat="43.77606" lon="3.8345">
        <ele>439.1</ele>
        <time>2026-05-21T10:14:35.000Z</time>
      </trkpt>
      <trkpt lat="43.77606" lon="3.8345">
        <ele>439</ele>
        <time>2026-05-21T10:14:36.000Z</time>
      </trkpt>
      <trkpt lat="43.77605" lon="3.83449">
        <ele>438.7</ele>
        <time>2026-05-21T10:14:37.000Z</time>
      </trkpt>
      <trkpt lat="43.77605" lon="3.83449">
        <ele>438.6</ele>
        <time>2026-05-21T10:14:38.000Z</time>
      </trkpt>
      <trkpt lat="43.77605" lon="3.83449">
        <ele>438.5</ele>
        <time>2026-05-21T10:14:39.000Z</time>
      </trkpt>
      <trkpt lat="43.77605" lon="3.83449">
        <ele>438.4</ele>
        <time>2026-05-21T10:14:40.000Z</time>
      </trkpt>
      <trkpt lat="43.77605" lon="3.83449">
        <ele>438.1</ele>
        <time>2026-05-21T10:14:41.000Z</time>
      </trkpt>
      <trkpt lat="43.77605" lon="3.83449">
        <ele>438</ele>
        <time>2026-05-21T10:14:42.000Z</time>
      </trkpt>
      <trkpt lat="43.77605" lon="3.83449">
        <ele>437.9</ele>
        <time>2026-05-21T10:14:43.000Z</time>
      </trkpt>
      <trkpt lat="43.77605" lon="3.83449">
        <ele>437.9</ele>
        <time>2026-05-21T10:14:44.000Z</time>
      </trkpt>
      <trkpt lat="43.77605" lon="3.83449">
        <ele>437.8</ele>
        <time>2026-05-21T10:14:45.000Z</time>
      </trkpt>
      <trkpt lat="43.77605" lon="3.83449">
        <ele>437.6</ele>
        <time>2026-05-21T10:14:46.000Z</time>
      </trkpt>
      <trkpt lat="43.77605" lon="3.83449">
        <ele>437.6</ele>
        <time>2026-05-21T10:14:47.000Z</time>
      </trkpt>
      <trkpt lat="43.77605" lon="3.83449">
        <ele>437.4</ele>
        <time>2026-05-21T10:14:48.000Z</time>
      </trkpt>
      <trkpt lat="43.77605" lon="3.83448">
        <ele>437.6</ele>
        <time>2026-05-21T10:14:49.000Z</time>
      </trkpt>
      <trkpt lat="43.77605" lon="3.83448">
        <ele>437.6</ele>
        <time>2026-05-21T10:14:50.000Z</time>
      </trkpt>
      <trkpt lat="43.77605" lon="3.83448">
        <ele>437.6</ele>
        <time>2026-05-21T10:14:51.000Z</time>
      </trkpt>
      <trkpt lat="43.77605" lon="3.83448">
        <ele>437.5</ele>
        <time>2026-05-21T10:14:52.000Z</time>
      </trkpt>
      <trkpt lat="43.77605" lon="3.83448">
        <ele>437.4</ele>
        <time>2026-05-21T10:14:53.000Z</time>
      </trkpt>
      <trkpt lat="43.77605" lon="3.83448">
        <ele>437.7</ele>
        <time>2026-05-21T10:14:54.000Z</time>
      </trkpt>
      <trkpt lat="43.77605" lon="3.83448">
        <ele>437.7</ele>
        <time>2026-05-21T10:14:55.000Z</time>
      </trkpt>
      <trkpt lat="43.77605" lon="3.83448">
        <ele>437.6</ele>
        <time>2026-05-21T10:14:56.000Z</time>
      </trkpt>
      <trkpt lat="43.77605" lon="3.83448">
        <ele>437.7</ele>
        <time>2026-05-21T10:14:57.000Z</time>
      </trkpt>
      <trkpt lat="43.77605" lon="3.83448">
        <ele>437.7</ele>
        <time>2026-05-21T10:14:58.000Z</time>
      </trkpt>
      <trkpt lat="43.77605" lon="3.83448">
        <ele>437.7</ele>
        <time>2026-05-21T10:14:59.000Z</time>
      </trkpt>
      <trkpt lat="43.77605" lon="3.83448">
        <ele>437.7</ele>
        <time>2026-05-21T10:15:00.000Z</time>
      </trkpt>
      <trkpt lat="43.77605" lon="3.83448">
        <ele>437.5</ele>
        <time>2026-05-21T10:15:01.000Z</time>
      </trkpt>
      <trkpt lat="43.77605" lon="3.83447">
        <ele>437.3</ele>
        <time>2026-05-21T10:15:02.000Z</time>
      </trkpt>
      <trkpt lat="43.77604" lon="3.83447">
        <ele>437.2</ele>
        <time>2026-05-21T10:15:03.000Z</time>
      </trkpt>
      <trkpt lat="43.77604" lon="3.83447">
        <ele>437.2</ele>
        <time>2026-05-21T10:15:04.000Z</time>
      </trkpt>
      <trkpt lat="43.77604" lon="3.83447">
        <ele>437.3</ele>
        <time>2026-05-21T10:15:05.000Z</time>
      </trkpt>
      <trkpt lat="43.77604" lon="3.83447">
        <ele>437.4</ele>
        <time>2026-05-21T10:15:06.000Z</time>
      </trkpt>
      <trkpt lat="43.77604" lon="3.83447">
        <ele>437.4</ele>
        <time>2026-05-21T10:15:07.000Z</time>
      </trkpt>
      <trkpt lat="43.77604" lon="3.83447">
        <ele>437.4</ele>
        <time>2026-05-21T10:15:08.000Z</time>
      </trkpt>
      <trkpt lat="43.77604" lon="3.83447">
        <ele>437.4</ele>
        <time>2026-05-21T10:15:09.000Z</time>
      </trkpt>
      <trkpt lat="43.77604" lon="3.83447">
        <ele>437.5</ele>
        <time>2026-05-21T10:15:10.000Z</time>
      </trkpt>
      <trkpt lat="43.77604" lon="3.83447">
        <ele>437.6</ele>
        <time>2026-05-21T10:15:11.000Z</time>
      </trkpt>
      <trkpt lat="43.77604" lon="3.83447">
        <ele>437.5</ele>
        <time>2026-05-21T10:15:12.000Z</time>
      </trkpt>
      <trkpt lat="43.77604" lon="3.83447">
        <ele>437.7</ele>
        <time>2026-05-21T10:15:13.000Z</time>
      </trkpt>
      <trkpt lat="43.77604" lon="3.83447">
        <ele>437.7</ele>
        <time>2026-05-21T10:15:14.000Z</time>
      </trkpt>
      <trkpt lat="43.77604" lon="3.83447">
        <ele>437.6</ele>
        <time>2026-05-21T10:15:15.000Z</time>
      </trkpt>
      <trkpt lat="43.77604" lon="3.83447">
        <ele>437.5</ele>
        <time>2026-05-21T10:15:16.000Z</time>
      </trkpt>
      <trkpt lat="43.77604" lon="3.83447">
        <ele>437.4</ele>
        <time>2026-05-21T10:15:17.000Z</time>
      </trkpt>
      <trkpt lat="43.77604" lon="3.83447">
        <ele>437.3</ele>
        <time>2026-05-21T10:15:18.000Z</time>
      </trkpt>
      <trkpt lat="43.77604" lon="3.83447">
        <ele>437.3</ele>
        <time>2026-05-21T10:15:19.000Z</time>
      </trkpt>
      <trkpt lat="43.77604" lon="3.83446">
        <ele>437.3</ele>
        <time>2026-05-21T10:15:20.000Z</time>
      </trkpt>
      <trkpt lat="43.77604" lon="3.83446">
        <ele>437.3</ele>
        <time>2026-05-21T10:15:21.000Z</time>
      </trkpt>
      <trkpt lat="43.77604" lon="3.83446">
        <ele>437.2</ele>
        <time>2026-05-21T10:15:22.000Z</time>
      </trkpt>
      <trkpt lat="43.77604" lon="3.83446">
        <ele>437</ele>
        <time>2026-05-21T10:15:23.000Z</time>
      </trkpt>
      <trkpt lat="43.77604" lon="3.83446">
        <ele>437</ele>
        <time>2026-05-21T10:15:24.000Z</time>
      </trkpt>
      <trkpt lat="43.77604" lon="3.83446">
        <ele>436.9</ele>
        <time>2026-05-21T10:15:25.000Z</time>
      </trkpt>
      <trkpt lat="43.77604" lon="3.83446">
        <ele>436.9</ele>
        <time>2026-05-21T10:15:26.000Z</time>
      </trkpt>
      <trkpt lat="43.77604" lon="3.83446">
        <ele>436.9</ele>
        <time>2026-05-21T10:15:27.000Z</time>
      </trkpt>
      <trkpt lat="43.77604" lon="3.83446">
        <ele>437</ele>
        <time>2026-05-21T10:15:28.000Z</time>
      </trkpt>
      <trkpt lat="43.77604" lon="3.83446">
        <ele>437</ele>
        <time>2026-05-21T10:15:29.000Z</time>
      </trkpt>
      <trkpt lat="43.77604" lon="3.83446">
        <ele>437.1</ele>
        <time>2026-05-21T10:15:30.000Z</time>
      </trkpt>
      <trkpt lat="43.77604" lon="3.83446">
        <ele>437</ele>
        <time>2026-05-21T10:15:31.000Z</time>
      </trkpt>
      <trkpt lat="43.77603" lon="3.83445">
        <ele>437</ele>
        <time>2026-05-21T10:15:32.000Z</time>
      </trkpt>
      <trkpt lat="43.77603" lon="3.83445">
        <ele>436.9</ele>
        <time>2026-05-21T10:15:33.000Z</time>
      </trkpt>
      <trkpt lat="43.77603" lon="3.83445">
        <ele>436.3</ele>
        <time>2026-05-21T10:15:35.000Z</time>
      </trkpt>
      <trkpt lat="43.77603" lon="3.83445">
        <ele>436.4</ele>
        <time>2026-05-21T10:15:36.000Z</time>
      </trkpt>
      <trkpt lat="43.77603" lon="3.83444">
        <ele>436.3</ele>
        <time>2026-05-21T10:15:37.000Z</time>
      </trkpt>
      <trkpt lat="43.77603" lon="3.83444">
        <ele>436.2</ele>
        <time>2026-05-21T10:15:38.000Z</time>
      </trkpt>
      <trkpt lat="43.77603" lon="3.83444">
        <ele>436.3</ele>
        <time>2026-05-21T10:15:39.000Z</time>
      </trkpt>
      <trkpt lat="43.77603" lon="3.83444">
        <ele>436.1</ele>
        <time>2026-05-21T10:15:40.000Z</time>
      </trkpt>
      <trkpt lat="43.77603" lon="3.83444">
        <ele>435.9</ele>
        <time>2026-05-21T10:15:41.000Z</time>
      </trkpt>
      <trkpt lat="43.77603" lon="3.83443">
        <ele>435.8</ele>
        <time>2026-05-21T10:15:42.000Z</time>
      </trkpt>
      <trkpt lat="43.77604" lon="3.83444">
        <ele>435.7</ele>
        <time>2026-05-21T10:15:43.000Z</time>
      </trkpt>
      <trkpt lat="43.77604" lon="3.83444">
        <ele>435.5</ele>
        <time>2026-05-21T10:15:44.000Z</time>
      </trkpt>
      <trkpt lat="43.77604" lon="3.83444">
        <ele>435.2</ele>
        <time>2026-05-21T10:15:45.000Z</time>
      </trkpt>
      <trkpt lat="43.77603" lon="3.83443">
        <ele>434.8</ele>
        <time>2026-05-21T10:15:46.000Z</time>
      </trkpt>
      <trkpt lat="43.77603" lon="3.83443">
        <ele>434.5</ele>
        <time>2026-05-21T10:15:47.000Z</time>
      </trkpt>
      <trkpt lat="43.77603" lon="3.83443">
        <ele>434</ele>
        <time>2026-05-21T10:15:48.000Z</time>
      </trkpt>
      <trkpt lat="43.77603" lon="3.83443">
        <ele>433.6</ele>
        <time>2026-05-21T10:15:49.000Z</time>
      </trkpt>
      <trkpt lat="43.77603" lon="3.83442">
        <ele>433</ele>
        <time>2026-05-21T10:15:50.000Z</time>
      </trkpt>
      <trkpt lat="43.77603" lon="3.83442">
        <ele>432.4</ele>
        <time>2026-05-21T10:15:51.000Z</time>
      </trkpt>
      <trkpt lat="43.77603" lon="3.83442">
        <ele>432.8</ele>
        <time>2026-05-21T10:15:52.000Z</time>
      </trkpt>
      <trkpt lat="43.77603" lon="3.83441">
        <ele>432.7</ele>
        <time>2026-05-21T10:15:53.000Z</time>
      </trkpt>
      <trkpt lat="43.77603" lon="3.83441">
        <ele>432.4</ele>
        <time>2026-05-21T10:15:54.000Z</time>
      </trkpt>
      <trkpt lat="43.77603" lon="3.83441">
        <ele>432</ele>
        <time>2026-05-21T10:15:55.000Z</time>
      </trkpt>
      <trkpt lat="43.77603" lon="3.83441">
        <ele>431.6</ele>
        <time>2026-05-21T10:15:56.000Z</time>
      </trkpt>
      <trkpt lat="43.77603" lon="3.83441">
        <ele>431.3</ele>
        <time>2026-05-21T10:15:57.000Z</time>
      </trkpt>
      <trkpt lat="43.77603" lon="3.8344">
        <ele>431.1</ele>
        <time>2026-05-21T10:15:58.000Z</time>
      </trkpt>
      <trkpt lat="43.77602" lon="3.83439">
        <ele>431.1</ele>
        <time>2026-05-21T10:15:59.000Z</time>
      </trkpt>
      <trkpt lat="43.77602" lon="3.83438">
        <ele>430.8</ele>
        <time>2026-05-21T10:16:00.000Z</time>
      </trkpt>
      <trkpt lat="43.77602" lon="3.83438">
        <ele>430.7</ele>
        <time>2026-05-21T10:16:01.000Z</time>
      </trkpt>
      <trkpt lat="43.77602" lon="3.83438">
        <ele>430.7</ele>
        <time>2026-05-21T10:16:02.000Z</time>
      </trkpt>
      <trkpt lat="43.77602" lon="3.83438">
        <ele>430.6</ele>
        <time>2026-05-21T10:16:03.000Z</time>
      </trkpt>
      <trkpt lat="43.77602" lon="3.83438">
        <ele>430.5</ele>
        <time>2026-05-21T10:16:04.000Z</time>
      </trkpt>
      <trkpt lat="43.77602" lon="3.83438">
        <ele>430.4</ele>
        <time>2026-05-21T10:16:05.000Z</time>
      </trkpt>
      <trkpt lat="43.77602" lon="3.83438">
        <ele>430</ele>
        <time>2026-05-21T10:16:06.000Z</time>
      </trkpt>
      <trkpt lat="43.77602" lon="3.83438">
        <ele>429.8</ele>
        <time>2026-05-21T10:16:07.000Z</time>
      </trkpt>
      <trkpt lat="43.77602" lon="3.83438">
        <ele>429.5</ele>
        <time>2026-05-21T10:16:08.000Z</time>
      </trkpt>
      <trkpt lat="43.77602" lon="3.83438">
        <ele>429.2</ele>
        <time>2026-05-21T10:16:09.000Z</time>
      </trkpt>
      <trkpt lat="43.77602" lon="3.83438">
        <ele>429.1</ele>
        <time>2026-05-21T10:16:10.000Z</time>
      </trkpt>
      <trkpt lat="43.77602" lon="3.83438">
        <ele>429.2</ele>
        <time>2026-05-21T10:16:11.000Z</time>
      </trkpt>
      <trkpt lat="43.77602" lon="3.83437">
        <ele>429.3</ele>
        <time>2026-05-21T10:16:12.000Z</time>
      </trkpt>
      <trkpt lat="43.77602" lon="3.83437">
        <ele>429.3</ele>
        <time>2026-05-21T10:16:13.000Z</time>
      </trkpt>
      <trkpt lat="43.77602" lon="3.83437">
        <ele>429.3</ele>
        <time>2026-05-21T10:16:14.000Z</time>
      </trkpt>
      <trkpt lat="43.77602" lon="3.83437">
        <ele>429.4</ele>
        <time>2026-05-21T10:16:15.000Z</time>
      </trkpt>
      <trkpt lat="43.77602" lon="3.83437">
        <ele>429.4</ele>
        <time>2026-05-21T10:16:16.000Z</time>
      </trkpt>
      <trkpt lat="43.77602" lon="3.83437">
        <ele>429.6</ele>
        <time>2026-05-21T10:16:17.000Z</time>
      </trkpt>
      <trkpt lat="43.77602" lon="3.83437">
        <ele>429.7</ele>
        <time>2026-05-21T10:16:18.000Z</time>
      </trkpt>
      <trkpt lat="43.77602" lon="3.83437">
        <ele>429.6</ele>
        <time>2026-05-21T10:16:19.000Z</time>
      </trkpt>
      <trkpt lat="43.77602" lon="3.83437">
        <ele>429.5</ele>
        <time>2026-05-21T10:16:20.000Z</time>
      </trkpt>
      <trkpt lat="43.77602" lon="3.83437">
        <ele>429.4</ele>
        <time>2026-05-21T10:16:21.000Z</time>
      </trkpt>
      <trkpt lat="43.77602" lon="3.83437">
        <ele>429.2</ele>
        <time>2026-05-21T10:16:22.000Z</time>
      </trkpt>
      <trkpt lat="43.77602" lon="3.83436">
        <ele>429.2</ele>
        <time>2026-05-21T10:16:23.000Z</time>
      </trkpt>
      <trkpt lat="43.77602" lon="3.83436">
        <ele>429.2</ele>
        <time>2026-05-21T10:16:24.000Z</time>
      </trkpt>
      <trkpt lat="43.77602" lon="3.83436">
        <ele>429.1</ele>
        <time>2026-05-21T10:16:25.000Z</time>
      </trkpt>
      <trkpt lat="43.77602" lon="3.83436">
        <ele>428.9</ele>
        <time>2026-05-21T10:16:26.000Z</time>
      </trkpt>
      <trkpt lat="43.77602" lon="3.83436">
        <ele>428.7</ele>
        <time>2026-05-21T10:16:27.000Z</time>
      </trkpt>
      <trkpt lat="43.77602" lon="3.83436">
        <ele>428.4</ele>
        <time>2026-05-21T10:16:28.000Z</time>
      </trkpt>
      <trkpt lat="43.77602" lon="3.83436">
        <ele>428.4</ele>
        <time>2026-05-21T10:16:29.000Z</time>
      </trkpt>
      <trkpt lat="43.77602" lon="3.83436">
        <ele>428.5</ele>
        <time>2026-05-21T10:16:30.000Z</time>
      </trkpt>
      <trkpt lat="43.77602" lon="3.83436">
        <ele>428.3</ele>
        <time>2026-05-21T10:16:31.000Z</time>
      </trkpt>
      <trkpt lat="43.77602" lon="3.83436">
        <ele>428.3</ele>
        <time>2026-05-21T10:16:32.000Z</time>
      </trkpt>
      <trkpt lat="43.77602" lon="3.83436">
        <ele>428.3</ele>
        <time>2026-05-21T10:16:33.000Z</time>
      </trkpt>
      <trkpt lat="43.77602" lon="3.83436">
        <ele>428.3</ele>
        <time>2026-05-21T10:16:34.000Z</time>
      </trkpt>
      <trkpt lat="43.77602" lon="3.83436">
        <ele>428.2</ele>
        <time>2026-05-21T10:16:35.000Z</time>
      </trkpt>
      <trkpt lat="43.77602" lon="3.83436">
        <ele>428.2</ele>
        <time>2026-05-21T10:16:36.000Z</time>
      </trkpt>
      <trkpt lat="43.77602" lon="3.83435">
        <ele>428.3</ele>
        <time>2026-05-21T10:16:37.000Z</time>
      </trkpt>
      <trkpt lat="43.77602" lon="3.83435">
        <ele>428.3</ele>
        <time>2026-05-21T10:16:38.000Z</time>
      </trkpt>
      <trkpt lat="43.77602" lon="3.83435">
        <ele>428.3</ele>
        <time>2026-05-21T10:16:39.000Z</time>
      </trkpt>
      <trkpt lat="43.77602" lon="3.83435">
        <ele>428.1</ele>
        <time>2026-05-21T10:16:40.000Z</time>
      </trkpt>
      <trkpt lat="43.77602" lon="3.83435">
        <ele>428</ele>
        <time>2026-05-21T10:16:41.000Z</time>
      </trkpt>
      <trkpt lat="43.77602" lon="3.83434">
        <ele>428.1</ele>
        <time>2026-05-21T10:16:42.000Z</time>
      </trkpt>
      <trkpt lat="43.77602" lon="3.83432">
        <ele>428.3</ele>
        <time>2026-05-21T10:16:43.000Z</time>
      </trkpt>
      <trkpt lat="43.77602" lon="3.83431">
        <ele>428.5</ele>
        <time>2026-05-21T10:16:44.000Z</time>
      </trkpt>
      <trkpt lat="43.77603" lon="3.8343">
        <ele>428.4</ele>
        <time>2026-05-21T10:16:45.000Z</time>
      </trkpt>
      <trkpt lat="43.77603" lon="3.83429">
        <ele>428.5</ele>
        <time>2026-05-21T10:16:46.000Z</time>
      </trkpt>
      <trkpt lat="43.77603" lon="3.83429">
        <ele>428.5</ele>
        <time>2026-05-21T10:16:47.000Z</time>
      </trkpt>
      <trkpt lat="43.77603" lon="3.83429">
        <ele>428.6</ele>
        <time>2026-05-21T10:16:48.000Z</time>
      </trkpt>
      <trkpt lat="43.77603" lon="3.83429">
        <ele>428.8</ele>
        <time>2026-05-21T10:16:49.000Z</time>
      </trkpt>
      <trkpt lat="43.77603" lon="3.83429">
        <ele>428.9</ele>
        <time>2026-05-21T10:16:50.000Z</time>
      </trkpt>
      <trkpt lat="43.77603" lon="3.83429">
        <ele>429</ele>
        <time>2026-05-21T10:16:51.000Z</time>
      </trkpt>
      <trkpt lat="43.77603" lon="3.83429">
        <ele>429.2</ele>
        <time>2026-05-21T10:16:52.000Z</time>
      </trkpt>
      <trkpt lat="43.77603" lon="3.83428">
        <ele>429.4</ele>
        <time>2026-05-21T10:16:53.000Z</time>
      </trkpt>
      <trkpt lat="43.77603" lon="3.83428">
        <ele>429.3</ele>
        <time>2026-05-21T10:16:54.000Z</time>
      </trkpt>
      <trkpt lat="43.77603" lon="3.83428">
        <ele>429.2</ele>
        <time>2026-05-21T10:16:55.000Z</time>
      </trkpt>
      <trkpt lat="43.77603" lon="3.83428">
        <ele>429.2</ele>
        <time>2026-05-21T10:16:56.000Z</time>
      </trkpt>
      <trkpt lat="43.77603" lon="3.83428">
        <ele>429.2</ele>
        <time>2026-05-21T10:16:57.000Z</time>
      </trkpt>
      <trkpt lat="43.77603" lon="3.83428">
        <ele>429.2</ele>
        <time>2026-05-21T10:16:58.000Z</time>
      </trkpt>
      <trkpt lat="43.77603" lon="3.83428">
        <ele>429.1</ele>
        <time>2026-05-21T10:16:59.000Z</time>
      </trkpt>
      <trkpt lat="43.77603" lon="3.83428">
        <ele>429.1</ele>
        <time>2026-05-21T10:17:00.000Z</time>
      </trkpt>
      <trkpt lat="43.77603" lon="3.83428">
        <ele>429</ele>
        <time>2026-05-21T10:17:01.000Z</time>
      </trkpt>
      <trkpt lat="43.77603" lon="3.83428">
        <ele>428.9</ele>
        <time>2026-05-21T10:17:02.000Z</time>
      </trkpt>
      <trkpt lat="43.77603" lon="3.83428">
        <ele>428.8</ele>
        <time>2026-05-21T10:17:03.000Z</time>
      </trkpt>
      <trkpt lat="43.77603" lon="3.83428">
        <ele>428.7</ele>
        <time>2026-05-21T10:17:04.000Z</time>
      </trkpt>
      <trkpt lat="43.77603" lon="3.83428">
        <ele>428.7</ele>
        <time>2026-05-21T10:17:05.000Z</time>
      </trkpt>
      <trkpt lat="43.77603" lon="3.83428">
        <ele>428.5</ele>
        <time>2026-05-21T10:17:06.000Z</time>
      </trkpt>
      <trkpt lat="43.77603" lon="3.83428">
        <ele>428.4</ele>
        <time>2026-05-21T10:17:07.000Z</time>
      </trkpt>
      <trkpt lat="43.77603" lon="3.83428">
        <ele>428.3</ele>
        <time>2026-05-21T10:17:08.000Z</time>
      </trkpt>
      <trkpt lat="43.77603" lon="3.83428">
        <ele>428.4</ele>
        <time>2026-05-21T10:17:09.000Z</time>
      </trkpt>
      <trkpt lat="43.77604" lon="3.83426">
        <ele>428.3</ele>
        <time>2026-05-21T10:17:10.000Z</time>
      </trkpt>
      <trkpt lat="43.77604" lon="3.83425">
        <ele>428.3</ele>
        <time>2026-05-21T10:17:11.000Z</time>
      </trkpt>
      <trkpt lat="43.77604" lon="3.83424">
        <ele>428</ele>
        <time>2026-05-21T10:17:12.000Z</time>
      </trkpt>
      <trkpt lat="43.77604" lon="3.83424">
        <ele>428</ele>
        <time>2026-05-21T10:17:13.000Z</time>
      </trkpt>
      <trkpt lat="43.77604" lon="3.83424">
        <ele>427.9</ele>
        <time>2026-05-21T10:17:14.000Z</time>
      </trkpt>
      <trkpt lat="43.77604" lon="3.83423">
        <ele>427.8</ele>
        <time>2026-05-21T10:17:15.000Z</time>
      </trkpt>
      <trkpt lat="43.77604" lon="3.83423">
        <ele>427.8</ele>
        <time>2026-05-21T10:17:16.000Z</time>
      </trkpt>
      <trkpt lat="43.77604" lon="3.83423">
        <ele>427.8</ele>
        <time>2026-05-21T10:17:17.000Z</time>
      </trkpt>
      <trkpt lat="43.77604" lon="3.83423">
        <ele>427.9</ele>
        <time>2026-05-21T10:17:18.000Z</time>
      </trkpt>
      <trkpt lat="43.77604" lon="3.83423">
        <ele>428</ele>
        <time>2026-05-21T10:17:19.000Z</time>
      </trkpt>
      <trkpt lat="43.77604" lon="3.83423">
        <ele>428.2</ele>
        <time>2026-05-21T10:17:20.000Z</time>
      </trkpt>
      <trkpt lat="43.77604" lon="3.83423">
        <ele>428.5</ele>
        <time>2026-05-21T10:17:21.000Z</time>
      </trkpt>
      <trkpt lat="43.77604" lon="3.83423">
        <ele>428.6</ele>
        <time>2026-05-21T10:17:22.000Z</time>
      </trkpt>
      <trkpt lat="43.77604" lon="3.83423">
        <ele>428.8</ele>
        <time>2026-05-21T10:17:23.000Z</time>
      </trkpt>
      <trkpt lat="43.77604" lon="3.83423">
        <ele>428.9</ele>
        <time>2026-05-21T10:17:24.000Z</time>
      </trkpt>
      <trkpt lat="43.77604" lon="3.83423">
        <ele>428.9</ele>
        <time>2026-05-21T10:17:25.000Z</time>
      </trkpt>
      <trkpt lat="43.77604" lon="3.83423">
        <ele>429</ele>
        <time>2026-05-21T10:17:26.000Z</time>
      </trkpt>
      <trkpt lat="43.77604" lon="3.83423">
        <ele>429</ele>
        <time>2026-05-21T10:17:27.000Z</time>
      </trkpt>
      <trkpt lat="43.77604" lon="3.83423">
        <ele>429</ele>
        <time>2026-05-21T10:17:28.000Z</time>
      </trkpt>
      <trkpt lat="43.77604" lon="3.83423">
        <ele>428.9</ele>
        <time>2026-05-21T10:17:29.000Z</time>
      </trkpt>
      <trkpt lat="43.77604" lon="3.83423">
        <ele>428.8</ele>
        <time>2026-05-21T10:17:30.000Z</time>
      </trkpt>
      <trkpt lat="43.77604" lon="3.83423">
        <ele>428.7</ele>
        <time>2026-05-21T10:17:31.000Z</time>
      </trkpt>
      <trkpt lat="43.77604" lon="3.83423">
        <ele>428.8</ele>
        <time>2026-05-21T10:17:32.000Z</time>
      </trkpt>
      <trkpt lat="43.77604" lon="3.83422">
        <ele>428.7</ele>
        <time>2026-05-21T10:17:33.000Z</time>
      </trkpt>
      <trkpt lat="43.77604" lon="3.83422">
        <ele>428.6</ele>
        <time>2026-05-21T10:17:34.000Z</time>
      </trkpt>
      <trkpt lat="43.77604" lon="3.83422">
        <ele>428.5</ele>
        <time>2026-05-21T10:17:35.000Z</time>
      </trkpt>
      <trkpt lat="43.77604" lon="3.83422">
        <ele>428.6</ele>
        <time>2026-05-21T10:17:36.000Z</time>
      </trkpt>
      <trkpt lat="43.77604" lon="3.83422">
        <ele>428.7</ele>
        <time>2026-05-21T10:17:37.000Z</time>
      </trkpt>
      <trkpt lat="43.77604" lon="3.83422">
        <ele>428.7</ele>
        <time>2026-05-21T10:17:38.000Z</time>
      </trkpt>
      <trkpt lat="43.77604" lon="3.83421">
        <ele>428.7</ele>
        <time>2026-05-21T10:17:39.000Z</time>
      </trkpt>
      <trkpt lat="43.77604" lon="3.83421">
        <ele>428.6</ele>
        <time>2026-05-21T10:17:40.000Z</time>
      </trkpt>
      <trkpt lat="43.77604" lon="3.83421">
        <ele>428.7</ele>
        <time>2026-05-21T10:17:41.000Z</time>
      </trkpt>
      <trkpt lat="43.77604" lon="3.83421">
        <ele>428.8</ele>
        <time>2026-05-21T10:17:42.000Z</time>
      </trkpt>
      <trkpt lat="43.77604" lon="3.83421">
        <ele>428.8</ele>
        <time>2026-05-21T10:17:43.000Z</time>
      </trkpt>
      <trkpt lat="43.77604" lon="3.83421">
        <ele>429</ele>
        <time>2026-05-21T10:17:44.000Z</time>
      </trkpt>
      <trkpt lat="43.77604" lon="3.83421">
        <ele>429</ele>
        <time>2026-05-21T10:17:45.000Z</time>
      </trkpt>
      <trkpt lat="43.77604" lon="3.83421">
        <ele>429.1</ele>
        <time>2026-05-21T10:17:46.000Z</time>
      </trkpt>
      <trkpt lat="43.77604" lon="3.83421">
        <ele>429</ele>
        <time>2026-05-21T10:17:47.000Z</time>
      </trkpt>
      <trkpt lat="43.77604" lon="3.8342">
        <ele>428.9</ele>
        <time>2026-05-21T10:17:48.000Z</time>
      </trkpt>
      <trkpt lat="43.77604" lon="3.8342">
        <ele>429</ele>
        <time>2026-05-21T10:17:49.000Z</time>
      </trkpt>
      <trkpt lat="43.77604" lon="3.8342">
        <ele>429.1</ele>
        <time>2026-05-21T10:17:50.000Z</time>
      </trkpt>
      <trkpt lat="43.77604" lon="3.8342">
        <ele>429</ele>
        <time>2026-05-21T10:17:51.000Z</time>
      </trkpt>
      <trkpt lat="43.77604" lon="3.8342">
        <ele>428.8</ele>
        <time>2026-05-21T10:17:52.000Z</time>
      </trkpt>
      <trkpt lat="43.77604" lon="3.8342">
        <ele>428.7</ele>
        <time>2026-05-21T10:17:53.000Z</time>
      </trkpt>
      <trkpt lat="43.77604" lon="3.8342">
        <ele>428.6</ele>
        <time>2026-05-21T10:17:54.000Z</time>
      </trkpt>
      <trkpt lat="43.77604" lon="3.83419">
        <ele>428.7</ele>
        <time>2026-05-21T10:17:55.000Z</time>
      </trkpt>
      <trkpt lat="43.77604" lon="3.83419">
        <ele>428.8</ele>
        <time>2026-05-21T10:17:56.000Z</time>
      </trkpt>
      <trkpt lat="43.77604" lon="3.83419">
        <ele>428.8</ele>
        <time>2026-05-21T10:17:57.000Z</time>
      </trkpt>
      <trkpt lat="43.77604" lon="3.83419">
        <ele>428.8</ele>
        <time>2026-05-21T10:17:58.000Z</time>
      </trkpt>
      <trkpt lat="43.77604" lon="3.83419">
        <ele>428.7</ele>
        <time>2026-05-21T10:17:59.000Z</time>
      </trkpt>
      <trkpt lat="43.77604" lon="3.83419">
        <ele>428.7</ele>
        <time>2026-05-21T10:18:00.000Z</time>
      </trkpt>
      <trkpt lat="43.77605" lon="3.83418">
        <ele>428.7</ele>
        <time>2026-05-21T10:18:01.000Z</time>
      </trkpt>
      <trkpt lat="43.77605" lon="3.83418">
        <ele>428.6</ele>
        <time>2026-05-21T10:18:02.000Z</time>
      </trkpt>
      <trkpt lat="43.77604" lon="3.83418">
        <ele>428.3</ele>
        <time>2026-05-21T10:18:03.000Z</time>
      </trkpt>
      <trkpt lat="43.77605" lon="3.83418">
        <ele>428.2</ele>
        <time>2026-05-21T10:18:04.000Z</time>
      </trkpt>
      <trkpt lat="43.77605" lon="3.83418">
        <ele>428.1</ele>
        <time>2026-05-21T10:18:05.000Z</time>
      </trkpt>
      <trkpt lat="43.77605" lon="3.83418">
        <ele>428</ele>
        <time>2026-05-21T10:18:06.000Z</time>
      </trkpt>
      <trkpt lat="43.77605" lon="3.83417">
        <ele>427.9</ele>
        <time>2026-05-21T10:18:07.000Z</time>
      </trkpt>
      <trkpt lat="43.77605" lon="3.83417">
        <ele>427.7</ele>
        <time>2026-05-21T10:18:08.000Z</time>
      </trkpt>
      <trkpt lat="43.77605" lon="3.83417">
        <ele>427.7</ele>
        <time>2026-05-21T10:18:09.000Z</time>
      </trkpt>
      <trkpt lat="43.77605" lon="3.83417">
        <ele>427.5</ele>
        <time>2026-05-21T10:18:10.000Z</time>
      </trkpt>
      <trkpt lat="43.77605" lon="3.83417">
        <ele>427.3</ele>
        <time>2026-05-21T10:18:11.000Z</time>
      </trkpt>
      <trkpt lat="43.77605" lon="3.83417">
        <ele>427.1</ele>
        <time>2026-05-21T10:18:12.000Z</time>
      </trkpt>
      <trkpt lat="43.77605" lon="3.83416">
        <ele>426.9</ele>
        <time>2026-05-21T10:18:13.000Z</time>
      </trkpt>
      <trkpt lat="43.77605" lon="3.83416">
        <ele>426.9</ele>
        <time>2026-05-21T10:18:14.000Z</time>
      </trkpt>
      <trkpt lat="43.77605" lon="3.83416">
        <ele>427</ele>
        <time>2026-05-21T10:18:15.000Z</time>
      </trkpt>
      <trkpt lat="43.77605" lon="3.83416">
        <ele>426.8</ele>
        <time>2026-05-21T10:18:16.000Z</time>
      </trkpt>
      <trkpt lat="43.77605" lon="3.83416">
        <ele>426.9</ele>
        <time>2026-05-21T10:18:17.000Z</time>
      </trkpt>
      <trkpt lat="43.77605" lon="3.83416">
        <ele>426.9</ele>
        <time>2026-05-21T10:18:18.000Z</time>
      </trkpt>
      <trkpt lat="43.77605" lon="3.83415">
        <ele>426.8</ele>
        <time>2026-05-21T10:18:19.000Z</time>
      </trkpt>
      <trkpt lat="43.77604" lon="3.83414">
        <ele>426.7</ele>
        <time>2026-05-21T10:18:20.000Z</time>
      </trkpt>
      <trkpt lat="43.77604" lon="3.83413">
        <ele>426.7</ele>
        <time>2026-05-21T10:18:21.000Z</time>
      </trkpt>
      <trkpt lat="43.77605" lon="3.83412">
        <ele>426.6</ele>
        <time>2026-05-21T10:18:22.000Z</time>
      </trkpt>
      <trkpt lat="43.77605" lon="3.83412">
        <ele>426.4</ele>
        <time>2026-05-21T10:18:23.000Z</time>
      </trkpt>
      <trkpt lat="43.77604" lon="3.8341">
        <ele>426.2</ele>
        <time>2026-05-21T10:18:24.000Z</time>
      </trkpt>
      <trkpt lat="43.77603" lon="3.83409">
        <ele>426.2</ele>
        <time>2026-05-21T10:18:25.000Z</time>
      </trkpt>
      <trkpt lat="43.77603" lon="3.83407">
        <ele>426</ele>
        <time>2026-05-21T10:18:26.000Z</time>
      </trkpt>
      <trkpt lat="43.77603" lon="3.83406">
        <ele>425.9</ele>
        <time>2026-05-21T10:18:27.000Z</time>
      </trkpt>
      <trkpt lat="43.77602" lon="3.83406">
        <ele>425.7</ele>
        <time>2026-05-21T10:18:28.000Z</time>
      </trkpt>
      <trkpt lat="43.77602" lon="3.83406">
        <ele>425.6</ele>
        <time>2026-05-21T10:18:29.000Z</time>
      </trkpt>
      <trkpt lat="43.77602" lon="3.83406">
        <ele>425.6</ele>
        <time>2026-05-21T10:18:30.000Z</time>
      </trkpt>
      <trkpt lat="43.77602" lon="3.83406">
        <ele>425.7</ele>
        <time>2026-05-21T10:18:31.000Z</time>
      </trkpt>
      <trkpt lat="43.77602" lon="3.83406">
        <ele>425.9</ele>
        <time>2026-05-21T10:18:32.000Z</time>
      </trkpt>
      <trkpt lat="43.77602" lon="3.83406">
        <ele>426</ele>
        <time>2026-05-21T10:18:33.000Z</time>
      </trkpt>
      <trkpt lat="43.77602" lon="3.83405">
        <ele>426.1</ele>
        <time>2026-05-21T10:18:34.000Z</time>
      </trkpt>
      <trkpt lat="43.77602" lon="3.83405">
        <ele>426.2</ele>
        <time>2026-05-21T10:18:35.000Z</time>
      </trkpt>
      <trkpt lat="43.77602" lon="3.83405">
        <ele>426.3</ele>
        <time>2026-05-21T10:18:36.000Z</time>
      </trkpt>
      <trkpt lat="43.77602" lon="3.83405">
        <ele>426.2</ele>
        <time>2026-05-21T10:18:37.000Z</time>
      </trkpt>
      <trkpt lat="43.77602" lon="3.83405">
        <ele>426.1</ele>
        <time>2026-05-21T10:18:38.000Z</time>
      </trkpt>
      <trkpt lat="43.77602" lon="3.83405">
        <ele>426.1</ele>
        <time>2026-05-21T10:18:39.000Z</time>
      </trkpt>
      <trkpt lat="43.77602" lon="3.83405">
        <ele>426.1</ele>
        <time>2026-05-21T10:18:40.000Z</time>
      </trkpt>
      <trkpt lat="43.77602" lon="3.83405">
        <ele>426</ele>
        <time>2026-05-21T10:18:41.000Z</time>
      </trkpt>
      <trkpt lat="43.77602" lon="3.83405">
        <ele>426.1</ele>
        <time>2026-05-21T10:18:42.000Z</time>
      </trkpt>
      <trkpt lat="43.77602" lon="3.83405">
        <ele>426.2</ele>
        <time>2026-05-21T10:18:43.000Z</time>
      </trkpt>
      <trkpt lat="43.77602" lon="3.83404">
        <ele>426.2</ele>
        <time>2026-05-21T10:18:44.000Z</time>
      </trkpt>
      <trkpt lat="43.77602" lon="3.83404">
        <ele>426.2</ele>
        <time>2026-05-21T10:18:45.000Z</time>
      </trkpt>
      <trkpt lat="43.77602" lon="3.83404">
        <ele>426.2</ele>
        <time>2026-05-21T10:18:46.000Z</time>
      </trkpt>
      <trkpt lat="43.77602" lon="3.83404">
        <ele>426.2</ele>
        <time>2026-05-21T10:18:47.000Z</time>
      </trkpt>
      <trkpt lat="43.77602" lon="3.83404">
        <ele>426.5</ele>
        <time>2026-05-21T10:18:48.000Z</time>
      </trkpt>
      <trkpt lat="43.77602" lon="3.83404">
        <ele>426.4</ele>
        <time>2026-05-21T10:18:49.000Z</time>
      </trkpt>
      <trkpt lat="43.77602" lon="3.83404">
        <ele>426.6</ele>
        <time>2026-05-21T10:18:50.000Z</time>
      </trkpt>
      <trkpt lat="43.77602" lon="3.83404">
        <ele>426.5</ele>
        <time>2026-05-21T10:18:51.000Z</time>
      </trkpt>
      <trkpt lat="43.77602" lon="3.83404">
        <ele>426.4</ele>
        <time>2026-05-21T10:18:52.000Z</time>
      </trkpt>
      <trkpt lat="43.77602" lon="3.83404">
        <ele>426.4</ele>
        <time>2026-05-21T10:18:53.000Z</time>
      </trkpt>
      <trkpt lat="43.77602" lon="3.83404">
        <ele>426.4</ele>
        <time>2026-05-21T10:18:54.000Z</time>
      </trkpt>
      <trkpt lat="43.77602" lon="3.83404">
        <ele>426.5</ele>
        <time>2026-05-21T10:18:55.000Z</time>
      </trkpt>
      <trkpt lat="43.77602" lon="3.83404">
        <ele>426.6</ele>
        <time>2026-05-21T10:18:56.000Z</time>
      </trkpt>
      <trkpt lat="43.77602" lon="3.83404">
        <ele>426.4</ele>
        <time>2026-05-21T10:18:57.000Z</time>
      </trkpt>
      <trkpt lat="43.77602" lon="3.83404">
        <ele>426.6</ele>
        <time>2026-05-21T10:18:58.000Z</time>
      </trkpt>
      <trkpt lat="43.77602" lon="3.83404">
        <ele>426.7</ele>
        <time>2026-05-21T10:18:59.000Z</time>
      </trkpt>
      <trkpt lat="43.77602" lon="3.83403">
        <ele>426.8</ele>
        <time>2026-05-21T10:19:00.000Z</time>
      </trkpt>
      <trkpt lat="43.77602" lon="3.83403">
        <ele>427.1</ele>
        <time>2026-05-21T10:19:01.000Z</time>
      </trkpt>
      <trkpt lat="43.77602" lon="3.83403">
        <ele>427.1</ele>
        <time>2026-05-21T10:19:02.000Z</time>
      </trkpt>
      <trkpt lat="43.77602" lon="3.83403">
        <ele>427.1</ele>
        <time>2026-05-21T10:19:03.000Z</time>
      </trkpt>
      <trkpt lat="43.77602" lon="3.83403">
        <ele>427.1</ele>
        <time>2026-05-21T10:19:04.000Z</time>
      </trkpt>
      <trkpt lat="43.77602" lon="3.83403">
        <ele>427.1</ele>
        <time>2026-05-21T10:19:05.000Z</time>
      </trkpt>
      <trkpt lat="43.77602" lon="3.83403">
        <ele>427.2</ele>
        <time>2026-05-21T10:19:06.000Z</time>
      </trkpt>
      <trkpt lat="43.77602" lon="3.83403">
        <ele>427.3</ele>
        <time>2026-05-21T10:19:07.000Z</time>
      </trkpt>
      <trkpt lat="43.77602" lon="3.83403">
        <ele>427.3</ele>
        <time>2026-05-21T10:19:08.000Z</time>
      </trkpt>
      <trkpt lat="43.77602" lon="3.83403">
        <ele>427.5</ele>
        <time>2026-05-21T10:19:09.000Z</time>
      </trkpt>
      <trkpt lat="43.77602" lon="3.83403">
        <ele>427.5</ele>
        <time>2026-05-21T10:19:10.000Z</time>
      </trkpt>
      <trkpt lat="43.77602" lon="3.83403">
        <ele>427.4</ele>
        <time>2026-05-21T10:19:11.000Z</time>
      </trkpt>
      <trkpt lat="43.77602" lon="3.83403">
        <ele>427.6</ele>
        <time>2026-05-21T10:19:12.000Z</time>
      </trkpt>
      <trkpt lat="43.77602" lon="3.83403">
        <ele>427.8</ele>
        <time>2026-05-21T10:19:13.000Z</time>
      </trkpt>
      <trkpt lat="43.77602" lon="3.83403">
        <ele>427.7</ele>
        <time>2026-05-21T10:19:14.000Z</time>
      </trkpt>
      <trkpt lat="43.77602" lon="3.83403">
        <ele>427.8</ele>
        <time>2026-05-21T10:19:15.000Z</time>
      </trkpt>
      <trkpt lat="43.77602" lon="3.83402">
        <ele>428</ele>
        <time>2026-05-21T10:19:16.000Z</time>
      </trkpt>
      <trkpt lat="43.77602" lon="3.83402">
        <ele>428.1</ele>
        <time>2026-05-21T10:19:17.000Z</time>
      </trkpt>
      <trkpt lat="43.77602" lon="3.83402">
        <ele>428</ele>
        <time>2026-05-21T10:19:18.000Z</time>
      </trkpt>
      <trkpt lat="43.77602" lon="3.83402">
        <ele>428</ele>
        <time>2026-05-21T10:19:19.000Z</time>
      </trkpt>
      <trkpt lat="43.77603" lon="3.83401">
        <ele>428</ele>
        <time>2026-05-21T10:19:20.000Z</time>
      </trkpt>
      <trkpt lat="43.77603" lon="3.83401">
        <ele>427.9</ele>
        <time>2026-05-21T10:19:21.000Z</time>
      </trkpt>
      <trkpt lat="43.77604" lon="3.83401">
        <ele>427.7</ele>
        <time>2026-05-21T10:19:22.000Z</time>
      </trkpt>
      <trkpt lat="43.77604" lon="3.83401">
        <ele>427.8</ele>
        <time>2026-05-21T10:19:23.000Z</time>
      </trkpt>
      <trkpt lat="43.77604" lon="3.83401">
        <ele>428</ele>
        <time>2026-05-21T10:19:24.000Z</time>
      </trkpt>
      <trkpt lat="43.77604" lon="3.83401">
        <ele>428.2</ele>
        <time>2026-05-21T10:19:25.000Z</time>
      </trkpt>
      <trkpt lat="43.77604" lon="3.83401">
        <ele>428.2</ele>
        <time>2026-05-21T10:19:26.000Z</time>
      </trkpt>
      <trkpt lat="43.77604" lon="3.83401">
        <ele>428.2</ele>
        <time>2026-05-21T10:19:27.000Z</time>
      </trkpt>
      <trkpt lat="43.77604" lon="3.83401">
        <ele>428.3</ele>
        <time>2026-05-21T10:19:28.000Z</time>
      </trkpt>
      <trkpt lat="43.77605" lon="3.83401">
        <ele>428.4</ele>
        <time>2026-05-21T10:19:29.000Z</time>
      </trkpt>
      <trkpt lat="43.77604" lon="3.834">
        <ele>428.6</ele>
        <time>2026-05-21T10:19:30.000Z</time>
      </trkpt>
      <trkpt lat="43.77604" lon="3.834">
        <ele>428.8</ele>
        <time>2026-05-21T10:19:31.000Z</time>
      </trkpt>
      <trkpt lat="43.77604" lon="3.834">
        <ele>428.8</ele>
        <time>2026-05-21T10:19:32.000Z</time>
      </trkpt>
      <trkpt lat="43.77604" lon="3.834">
        <ele>429</ele>
        <time>2026-05-21T10:19:33.000Z</time>
      </trkpt>
      <trkpt lat="43.77604" lon="3.834">
        <ele>429.1</ele>
        <time>2026-05-21T10:19:34.000Z</time>
      </trkpt>
      <trkpt lat="43.77604" lon="3.834">
        <ele>429.2</ele>
        <time>2026-05-21T10:19:35.000Z</time>
      </trkpt>
      <trkpt lat="43.77604" lon="3.834">
        <ele>429.4</ele>
        <time>2026-05-21T10:19:36.000Z</time>
      </trkpt>
      <trkpt lat="43.77604" lon="3.834">
        <ele>429.4</ele>
        <time>2026-05-21T10:19:37.000Z</time>
      </trkpt>
      <trkpt lat="43.77604" lon="3.834">
        <ele>429.3</ele>
        <time>2026-05-21T10:19:38.000Z</time>
      </trkpt>
      <trkpt lat="43.77604" lon="3.834">
        <ele>429.3</ele>
        <time>2026-05-21T10:19:39.000Z</time>
      </trkpt>
      <trkpt lat="43.77604" lon="3.834">
        <ele>429.6</ele>
        <time>2026-05-21T10:19:40.000Z</time>
      </trkpt>
      <trkpt lat="43.77604" lon="3.834">
        <ele>429.6</ele>
        <time>2026-05-21T10:19:41.000Z</time>
      </trkpt>
      <trkpt lat="43.77604" lon="3.834">
        <ele>429.7</ele>
        <time>2026-05-21T10:19:42.000Z</time>
      </trkpt>
      <trkpt lat="43.77604" lon="3.83399">
        <ele>430</ele>
        <time>2026-05-21T10:19:43.000Z</time>
      </trkpt>
      <trkpt lat="43.77604" lon="3.83399">
        <ele>430.3</ele>
        <time>2026-05-21T10:19:44.000Z</time>
      </trkpt>
      <trkpt lat="43.77604" lon="3.83399">
        <ele>430.3</ele>
        <time>2026-05-21T10:19:45.000Z</time>
      </trkpt>
      <trkpt lat="43.77604" lon="3.83399">
        <ele>430.3</ele>
        <time>2026-05-21T10:19:46.000Z</time>
      </trkpt>
      <trkpt lat="43.77605" lon="3.83399">
        <ele>430.3</ele>
        <time>2026-05-21T10:19:47.000Z</time>
      </trkpt>
      <trkpt lat="43.77604" lon="3.83399">
        <ele>430.4</ele>
        <time>2026-05-21T10:19:48.000Z</time>
      </trkpt>
      <trkpt lat="43.77604" lon="3.83399">
        <ele>430.3</ele>
        <time>2026-05-21T10:19:49.000Z</time>
      </trkpt>
      <trkpt lat="43.77605" lon="3.83399">
        <ele>430.3</ele>
        <time>2026-05-21T10:19:50.000Z</time>
      </trkpt>
      <trkpt lat="43.77605" lon="3.83399">
        <ele>430.2</ele>
        <time>2026-05-21T10:19:51.000Z</time>
      </trkpt>
      <trkpt lat="43.77605" lon="3.83399">
        <ele>430.1</ele>
        <time>2026-05-21T10:19:52.000Z</time>
      </trkpt>
      <trkpt lat="43.77605" lon="3.83399">
        <ele>430</ele>
        <time>2026-05-21T10:19:53.000Z</time>
      </trkpt>
      <trkpt lat="43.77605" lon="3.83399">
        <ele>430</ele>
        <time>2026-05-21T10:19:54.000Z</time>
      </trkpt>
      <trkpt lat="43.77605" lon="3.83399">
        <ele>429.9</ele>
        <time>2026-05-21T10:19:55.000Z</time>
      </trkpt>
      <trkpt lat="43.77605" lon="3.83398">
        <ele>429.9</ele>
        <time>2026-05-21T10:19:56.000Z</time>
      </trkpt>
      <trkpt lat="43.77605" lon="3.83398">
        <ele>429.9</ele>
        <time>2026-05-21T10:19:57.000Z</time>
      </trkpt>
      <trkpt lat="43.77605" lon="3.83398">
        <ele>429.9</ele>
        <time>2026-05-21T10:19:58.000Z</time>
      </trkpt>
      <trkpt lat="43.77605" lon="3.83399">
        <ele>430</ele>
        <time>2026-05-21T10:19:59.000Z</time>
      </trkpt>
      <trkpt lat="43.77605" lon="3.83399">
        <ele>430</ele>
        <time>2026-05-21T10:20:00.000Z</time>
      </trkpt>
      <trkpt lat="43.77605" lon="3.83399">
        <ele>429.9</ele>
        <time>2026-05-21T10:20:01.000Z</time>
      </trkpt>
      <trkpt lat="43.77605" lon="3.83399">
        <ele>430</ele>
        <time>2026-05-21T10:20:02.000Z</time>
      </trkpt>
      <trkpt lat="43.77605" lon="3.83399">
        <ele>430</ele>
        <time>2026-05-21T10:20:03.000Z</time>
      </trkpt>
      <trkpt lat="43.77605" lon="3.83399">
        <ele>429.9</ele>
        <time>2026-05-21T10:20:04.000Z</time>
      </trkpt>
      <trkpt lat="43.77605" lon="3.83399">
        <ele>429.9</ele>
        <time>2026-05-21T10:20:05.000Z</time>
      </trkpt>
      <trkpt lat="43.77605" lon="3.83399">
        <ele>429.8</ele>
        <time>2026-05-21T10:20:06.000Z</time>
      </trkpt>
      <trkpt lat="43.77605" lon="3.83398">
        <ele>429.8</ele>
        <time>2026-05-21T10:20:07.000Z</time>
      </trkpt>
      <trkpt lat="43.77605" lon="3.83398">
        <ele>429.7</ele>
        <time>2026-05-21T10:20:08.000Z</time>
      </trkpt>
      <trkpt lat="43.77605" lon="3.83398">
        <ele>429.7</ele>
        <time>2026-05-21T10:20:09.000Z</time>
      </trkpt>
      <trkpt lat="43.77605" lon="3.83398">
        <ele>429.7</ele>
        <time>2026-05-21T10:20:10.000Z</time>
      </trkpt>
      <trkpt lat="43.77605" lon="3.83398">
        <ele>429.8</ele>
        <time>2026-05-21T10:20:11.000Z</time>
      </trkpt>
      <trkpt lat="43.77606" lon="3.83398">
        <ele>429.9</ele>
        <time>2026-05-21T10:20:12.000Z</time>
      </trkpt>
      <trkpt lat="43.77606" lon="3.83399">
        <ele>430</ele>
        <time>2026-05-21T10:20:13.000Z</time>
      </trkpt>
      <trkpt lat="43.77606" lon="3.83399">
        <ele>430.1</ele>
        <time>2026-05-21T10:20:14.000Z</time>
      </trkpt>
      <trkpt lat="43.77606" lon="3.83399">
        <ele>430.1</ele>
        <time>2026-05-21T10:20:15.000Z</time>
      </trkpt>
      <trkpt lat="43.77606" lon="3.83399">
        <ele>430</ele>
        <time>2026-05-21T10:20:16.000Z</time>
      </trkpt>
      <trkpt lat="43.77606" lon="3.83399">
        <ele>429.8</ele>
        <time>2026-05-21T10:20:17.000Z</time>
      </trkpt>
      <trkpt lat="43.77606" lon="3.83399">
        <ele>429.5</ele>
        <time>2026-05-21T10:20:18.000Z</time>
      </trkpt>
      <trkpt lat="43.77605" lon="3.83399">
        <ele>429.4</ele>
        <time>2026-05-21T10:20:19.000Z</time>
      </trkpt>
      <trkpt lat="43.77605" lon="3.83399">
        <ele>429.4</ele>
        <time>2026-05-21T10:20:20.000Z</time>
      </trkpt>
      <trkpt lat="43.77605" lon="3.83399">
        <ele>429.6</ele>
        <time>2026-05-21T10:20:21.000Z</time>
      </trkpt>
      <trkpt lat="43.77605" lon="3.83399">
        <ele>429.7</ele>
        <time>2026-05-21T10:20:22.000Z</time>
      </trkpt>
      <trkpt lat="43.77605" lon="3.83399">
        <ele>429.7</ele>
        <time>2026-05-21T10:20:23.000Z</time>
      </trkpt>
      <trkpt lat="43.77605" lon="3.83399">
        <ele>429.8</ele>
        <time>2026-05-21T10:20:24.000Z</time>
      </trkpt>
      <trkpt lat="43.77605" lon="3.83399">
        <ele>429.9</ele>
        <time>2026-05-21T10:20:25.000Z</time>
      </trkpt>
      <trkpt lat="43.77605" lon="3.83399">
        <ele>430</ele>
        <time>2026-05-21T10:20:26.000Z</time>
      </trkpt>
      <trkpt lat="43.77605" lon="3.83399">
        <ele>430</ele>
        <time>2026-05-21T10:20:27.000Z</time>
      </trkpt>
      <trkpt lat="43.77605" lon="3.83399">
        <ele>430</ele>
        <time>2026-05-21T10:20:28.000Z</time>
      </trkpt>
      <trkpt lat="43.77605" lon="3.83399">
        <ele>430</ele>
        <time>2026-05-21T10:20:29.000Z</time>
      </trkpt>
      <trkpt lat="43.77605" lon="3.83399">
        <ele>429.8</ele>
        <time>2026-05-21T10:20:30.000Z</time>
      </trkpt>
      <trkpt lat="43.77605" lon="3.83399">
        <ele>429.8</ele>
        <time>2026-05-21T10:20:31.000Z</time>
      </trkpt>
      <trkpt lat="43.77605" lon="3.83399">
        <ele>429.8</ele>
        <time>2026-05-21T10:20:32.000Z</time>
      </trkpt>
      <trkpt lat="43.77605" lon="3.83399">
        <ele>429.7</ele>
        <time>2026-05-21T10:20:33.000Z</time>
      </trkpt>
      <trkpt lat="43.77605" lon="3.83399">
        <ele>429.6</ele>
        <time>2026-05-21T10:20:34.000Z</time>
      </trkpt>
      <trkpt lat="43.77605" lon="3.83398">
        <ele>429.5</ele>
        <time>2026-05-21T10:20:35.000Z</time>
      </trkpt>
      <trkpt lat="43.77605" lon="3.83398">
        <ele>429.4</ele>
        <time>2026-05-21T10:20:36.000Z</time>
      </trkpt>
      <trkpt lat="43.77605" lon="3.83398">
        <ele>429.3</ele>
        <time>2026-05-21T10:20:37.000Z</time>
      </trkpt>
      <trkpt lat="43.77605" lon="3.83398">
        <ele>429.2</ele>
        <time>2026-05-21T10:20:38.000Z</time>
      </trkpt>
      <trkpt lat="43.77605" lon="3.83399">
        <ele>429.2</ele>
        <time>2026-05-21T10:20:39.000Z</time>
      </trkpt>
      <trkpt lat="43.77605" lon="3.83399">
        <ele>429</ele>
        <time>2026-05-21T10:20:40.000Z</time>
      </trkpt>
      <trkpt lat="43.77605" lon="3.83399">
        <ele>429.2</ele>
        <time>2026-05-21T10:20:41.000Z</time>
      </trkpt>
      <trkpt lat="43.77605" lon="3.83399">
        <ele>429.1</ele>
        <time>2026-05-21T10:20:42.000Z</time>
      </trkpt>
      <trkpt lat="43.77605" lon="3.83398">
        <ele>428.9</ele>
        <time>2026-05-21T10:20:43.000Z</time>
      </trkpt>
      <trkpt lat="43.77605" lon="3.83398">
        <ele>428.9</ele>
        <time>2026-05-21T10:20:44.000Z</time>
      </trkpt>
      <trkpt lat="43.77605" lon="3.83398">
        <ele>428.8</ele>
        <time>2026-05-21T10:20:45.000Z</time>
      </trkpt>
      <trkpt lat="43.77605" lon="3.83398">
        <ele>428.8</ele>
        <time>2026-05-21T10:20:46.000Z</time>
      </trkpt>
      <trkpt lat="43.77605" lon="3.83398">
        <ele>428.7</ele>
        <time>2026-05-21T10:20:47.000Z</time>
      </trkpt>
      <trkpt lat="43.77606" lon="3.83398">
        <ele>429</ele>
        <time>2026-05-21T10:20:48.000Z</time>
      </trkpt>
      <trkpt lat="43.77606" lon="3.83398">
        <ele>429</ele>
        <time>2026-05-21T10:20:49.000Z</time>
      </trkpt>
      <trkpt lat="43.77606" lon="3.83398">
        <ele>429.1</ele>
        <time>2026-05-21T10:20:50.000Z</time>
      </trkpt>
      <trkpt lat="43.77605" lon="3.83398">
        <ele>429.1</ele>
        <time>2026-05-21T10:20:51.000Z</time>
      </trkpt>
      <trkpt lat="43.77605" lon="3.83398">
        <ele>429</ele>
        <time>2026-05-21T10:20:52.000Z</time>
      </trkpt>
      <trkpt lat="43.77605" lon="3.83398">
        <ele>428.7</ele>
        <time>2026-05-21T10:20:53.000Z</time>
      </trkpt>
      <trkpt lat="43.77605" lon="3.83398">
        <ele>428.7</ele>
        <time>2026-05-21T10:20:54.000Z</time>
      </trkpt>
      <trkpt lat="43.77605" lon="3.83398">
        <ele>428.6</ele>
        <time>2026-05-21T10:20:55.000Z</time>
      </trkpt>
      <trkpt lat="43.77606" lon="3.83399">
        <ele>428.6</ele>
        <time>2026-05-21T10:20:56.000Z</time>
      </trkpt>
      <trkpt lat="43.77606" lon="3.83399">
        <ele>428.5</ele>
        <time>2026-05-21T10:20:57.000Z</time>
      </trkpt>
      <trkpt lat="43.77606" lon="3.83399">
        <ele>428.4</ele>
        <time>2026-05-21T10:20:58.000Z</time>
      </trkpt>
      <trkpt lat="43.77606" lon="3.83399">
        <ele>428.7</ele>
        <time>2026-05-21T10:20:59.000Z</time>
      </trkpt>
      <trkpt lat="43.77606" lon="3.83399">
        <ele>428.7</ele>
        <time>2026-05-21T10:21:00.000Z</time>
      </trkpt>
      <trkpt lat="43.77606" lon="3.83399">
        <ele>428.8</ele>
        <time>2026-05-21T10:21:01.000Z</time>
      </trkpt>
      <trkpt lat="43.77606" lon="3.83399">
        <ele>428.9</ele>
        <time>2026-05-21T10:21:02.000Z</time>
      </trkpt>
      <trkpt lat="43.77606" lon="3.83399">
        <ele>429</ele>
        <time>2026-05-21T10:21:03.000Z</time>
      </trkpt>
      <trkpt lat="43.77605" lon="3.83399">
        <ele>429.1</ele>
        <time>2026-05-21T10:21:04.000Z</time>
      </trkpt>
      <trkpt lat="43.77605" lon="3.83399">
        <ele>429.3</ele>
        <time>2026-05-21T10:21:05.000Z</time>
      </trkpt>
      <trkpt lat="43.77606" lon="3.83399">
        <ele>429.5</ele>
        <time>2026-05-21T10:21:06.000Z</time>
      </trkpt>
      <trkpt lat="43.77606" lon="3.83399">
        <ele>429.5</ele>
        <time>2026-05-21T10:21:07.000Z</time>
      </trkpt>
      <trkpt lat="43.77606" lon="3.83399">
        <ele>429.5</ele>
        <time>2026-05-21T10:21:08.000Z</time>
      </trkpt>
      <trkpt lat="43.77606" lon="3.83399">
        <ele>429.5</ele>
        <time>2026-05-21T10:21:09.000Z</time>
      </trkpt>
      <trkpt lat="43.77606" lon="3.83399">
        <ele>429.5</ele>
        <time>2026-05-21T10:21:10.000Z</time>
      </trkpt>
      <trkpt lat="43.77606" lon="3.83399">
        <ele>429.4</ele>
        <time>2026-05-21T10:21:11.000Z</time>
      </trkpt>
      <trkpt lat="43.77606" lon="3.83399">
        <ele>429.4</ele>
        <time>2026-05-21T10:21:12.000Z</time>
      </trkpt>
      <trkpt lat="43.77606" lon="3.83399">
        <ele>429.5</ele>
        <time>2026-05-21T10:21:13.000Z</time>
      </trkpt>
      <trkpt lat="43.77606" lon="3.83399">
        <ele>429.5</ele>
        <time>2026-05-21T10:21:14.000Z</time>
      </trkpt>
      <trkpt lat="43.77606" lon="3.834">
        <ele>429.4</ele>
        <time>2026-05-21T10:21:15.000Z</time>
      </trkpt>
      <trkpt lat="43.77606" lon="3.834">
        <ele>429.4</ele>
        <time>2026-05-21T10:21:16.000Z</time>
      </trkpt>
      <trkpt lat="43.77606" lon="3.834">
        <ele>429.3</ele>
        <time>2026-05-21T10:21:17.000Z</time>
      </trkpt>
      <trkpt lat="43.77606" lon="3.83399">
        <ele>429.4</ele>
        <time>2026-05-21T10:21:18.000Z</time>
      </trkpt>
      <trkpt lat="43.77606" lon="3.83399">
        <ele>429.6</ele>
        <time>2026-05-21T10:21:19.000Z</time>
      </trkpt>
      <trkpt lat="43.77606" lon="3.83399">
        <ele>429.5</ele>
        <time>2026-05-21T10:21:20.000Z</time>
      </trkpt>
      <trkpt lat="43.77606" lon="3.83399">
        <ele>429.6</ele>
        <time>2026-05-21T10:21:21.000Z</time>
      </trkpt>
      <trkpt lat="43.77606" lon="3.83399">
        <ele>429.7</ele>
        <time>2026-05-21T10:21:22.000Z</time>
      </trkpt>
      <trkpt lat="43.77606" lon="3.83399">
        <ele>429.8</ele>
        <time>2026-05-21T10:21:23.000Z</time>
      </trkpt>
      <trkpt lat="43.77606" lon="3.83399">
        <ele>429.9</ele>
        <time>2026-05-21T10:21:24.000Z</time>
      </trkpt>
      <trkpt lat="43.77606" lon="3.83399">
        <ele>429.8</ele>
        <time>2026-05-21T10:21:25.000Z</time>
      </trkpt>
      <trkpt lat="43.77606" lon="3.83399">
        <ele>429.6</ele>
        <time>2026-05-21T10:21:26.000Z</time>
      </trkpt>
      <trkpt lat="43.77606" lon="3.83399">
        <ele>429.6</ele>
        <time>2026-05-21T10:21:27.000Z</time>
      </trkpt>
      <trkpt lat="43.77606" lon="3.83399">
        <ele>429.7</ele>
        <time>2026-05-21T10:21:28.000Z</time>
      </trkpt>
      <trkpt lat="43.77606" lon="3.83399">
        <ele>429.7</ele>
        <time>2026-05-21T10:21:29.000Z</time>
      </trkpt>
      <trkpt lat="43.77606" lon="3.83399">
        <ele>429.8</ele>
        <time>2026-05-21T10:21:30.000Z</time>
      </trkpt>
      <trkpt lat="43.77606" lon="3.83399">
        <ele>429.8</ele>
        <time>2026-05-21T10:21:31.000Z</time>
      </trkpt>
      <trkpt lat="43.77606" lon="3.83399">
        <ele>429.7</ele>
        <time>2026-05-21T10:21:32.000Z</time>
      </trkpt>
      <trkpt lat="43.77606" lon="3.83399">
        <ele>429.5</ele>
        <time>2026-05-21T10:21:33.000Z</time>
      </trkpt>
      <trkpt lat="43.77606" lon="3.83399">
        <ele>429.5</ele>
        <time>2026-05-21T10:21:34.000Z</time>
      </trkpt>
      <trkpt lat="43.77606" lon="3.83399">
        <ele>429.5</ele>
        <time>2026-05-21T10:21:35.000Z</time>
      </trkpt>
      <trkpt lat="43.77606" lon="3.83399">
        <ele>429.5</ele>
        <time>2026-05-21T10:21:36.000Z</time>
      </trkpt>
      <trkpt lat="43.77606" lon="3.83399">
        <ele>429.4</ele>
        <time>2026-05-21T10:21:37.000Z</time>
      </trkpt>
      <trkpt lat="43.77606" lon="3.83399">
        <ele>429.4</ele>
        <time>2026-05-21T10:21:38.000Z</time>
      </trkpt>
      <trkpt lat="43.77606" lon="3.83399">
        <ele>429.6</ele>
        <time>2026-05-21T10:21:39.000Z</time>
      </trkpt>
      <trkpt lat="43.77606" lon="3.83399">
        <ele>429.4</ele>
        <time>2026-05-21T10:21:40.000Z</time>
      </trkpt>
      <trkpt lat="43.77606" lon="3.83399">
        <ele>429.3</ele>
        <time>2026-05-21T10:21:41.000Z</time>
      </trkpt>
      <trkpt lat="43.77606" lon="3.83399">
        <ele>429.2</ele>
        <time>2026-05-21T10:21:42.000Z</time>
      </trkpt>
      <trkpt lat="43.77606" lon="3.83399">
        <ele>429.2</ele>
        <time>2026-05-21T10:21:43.000Z</time>
      </trkpt>
      <trkpt lat="43.77606" lon="3.83399">
        <ele>429.4</ele>
        <time>2026-05-21T10:21:44.000Z</time>
      </trkpt>
      <trkpt lat="43.77606" lon="3.83399">
        <ele>429.4</ele>
        <time>2026-05-21T10:21:45.000Z</time>
      </trkpt>
      <trkpt lat="43.77606" lon="3.83399">
        <ele>429.4</ele>
        <time>2026-05-21T10:21:46.000Z</time>
      </trkpt>
      <trkpt lat="43.77606" lon="3.83399">
        <ele>429.4</ele>
        <time>2026-05-21T10:21:47.000Z</time>
      </trkpt>
      <trkpt lat="43.77606" lon="3.83399">
        <ele>429.3</ele>
        <time>2026-05-21T10:21:48.000Z</time>
      </trkpt>
      <trkpt lat="43.77606" lon="3.83399">
        <ele>429.3</ele>
        <time>2026-05-21T10:21:49.000Z</time>
      </trkpt>
      <trkpt lat="43.77606" lon="3.83399">
        <ele>429.4</ele>
        <time>2026-05-21T10:21:50.000Z</time>
      </trkpt>
      <trkpt lat="43.77606" lon="3.83399">
        <ele>429.5</ele>
        <time>2026-05-21T10:21:51.000Z</time>
      </trkpt>
      <trkpt lat="43.77606" lon="3.83398">
        <ele>429.3</ele>
        <time>2026-05-21T10:21:52.000Z</time>
      </trkpt>
      <trkpt lat="43.77606" lon="3.83398">
        <ele>429.2</ele>
        <time>2026-05-21T10:21:53.000Z</time>
      </trkpt>
      <trkpt lat="43.77606" lon="3.83398">
        <ele>429.3</ele>
        <time>2026-05-21T10:21:54.000Z</time>
      </trkpt>
      <trkpt lat="43.77606" lon="3.83398">
        <ele>429.3</ele>
        <time>2026-05-21T10:21:55.000Z</time>
      </trkpt>
      <trkpt lat="43.77606" lon="3.83398">
        <ele>429.4</ele>
        <time>2026-05-21T10:21:56.000Z</time>
      </trkpt>
      <trkpt lat="43.77606" lon="3.83398">
        <ele>429.4</ele>
        <time>2026-05-21T10:21:57.000Z</time>
      </trkpt>
      <trkpt lat="43.77606" lon="3.83398">
        <ele>429.4</ele>
        <time>2026-05-21T10:21:58.000Z</time>
      </trkpt>
      <trkpt lat="43.77606" lon="3.83398">
        <ele>429.2</ele>
        <time>2026-05-21T10:21:59.000Z</time>
      </trkpt>
      <trkpt lat="43.77606" lon="3.83398">
        <ele>429</ele>
        <time>2026-05-21T10:22:00.000Z</time>
      </trkpt>
      <trkpt lat="43.77606" lon="3.83398">
        <ele>429</ele>
        <time>2026-05-21T10:22:01.000Z</time>
      </trkpt>
      <trkpt lat="43.77606" lon="3.83398">
        <ele>429.1</ele>
        <time>2026-05-21T10:22:02.000Z</time>
      </trkpt>
      <trkpt lat="43.77606" lon="3.83398">
        <ele>429.1</ele>
        <time>2026-05-21T10:22:03.000Z</time>
      </trkpt>
      <trkpt lat="43.77607" lon="3.83398">
        <ele>429.1</ele>
        <time>2026-05-21T10:22:04.000Z</time>
      </trkpt>
      <trkpt lat="43.77607" lon="3.83398">
        <ele>429.1</ele>
        <time>2026-05-21T10:22:05.000Z</time>
      </trkpt>
      <trkpt lat="43.77607" lon="3.83398">
        <ele>429.2</ele>
        <time>2026-05-21T10:22:06.000Z</time>
      </trkpt>
      <trkpt lat="43.77607" lon="3.83398">
        <ele>429.3</ele>
        <time>2026-05-21T10:22:07.000Z</time>
      </trkpt>
      <trkpt lat="43.77607" lon="3.83398">
        <ele>429.4</ele>
        <time>2026-05-21T10:22:08.000Z</time>
      </trkpt>
      <trkpt lat="43.77607" lon="3.83398">
        <ele>429.6</ele>
        <time>2026-05-21T10:22:09.000Z</time>
      </trkpt>
      <trkpt lat="43.77607" lon="3.83398">
        <ele>429.2</ele>
        <time>2026-05-21T10:22:10.000Z</time>
      </trkpt>
      <trkpt lat="43.77607" lon="3.83398">
        <ele>429.2</ele>
        <time>2026-05-21T10:22:11.000Z</time>
      </trkpt>
      <trkpt lat="43.77607" lon="3.83398">
        <ele>429.4</ele>
        <time>2026-05-21T10:22:12.000Z</time>
      </trkpt>
      <trkpt lat="43.77607" lon="3.83398">
        <ele>429.6</ele>
        <time>2026-05-21T10:22:13.000Z</time>
      </trkpt>
      <trkpt lat="43.77607" lon="3.83398">
        <ele>429.8</ele>
        <time>2026-05-21T10:22:14.000Z</time>
      </trkpt>
      <trkpt lat="43.77607" lon="3.83398">
        <ele>429.7</ele>
        <time>2026-05-21T10:22:15.000Z</time>
      </trkpt>
      <trkpt lat="43.77607" lon="3.83398">
        <ele>429.6</ele>
        <time>2026-05-21T10:22:16.000Z</time>
      </trkpt>
      <trkpt lat="43.77607" lon="3.83398">
        <ele>429.4</ele>
        <time>2026-05-21T10:22:17.000Z</time>
      </trkpt>
      <trkpt lat="43.77607" lon="3.83398">
        <ele>429.6</ele>
        <time>2026-05-21T10:22:18.000Z</time>
      </trkpt>
      <trkpt lat="43.77607" lon="3.83398">
        <ele>429.4</ele>
        <time>2026-05-21T10:22:19.000Z</time>
      </trkpt>
      <trkpt lat="43.77607" lon="3.83398">
        <ele>429.3</ele>
        <time>2026-05-21T10:22:20.000Z</time>
      </trkpt>
      <trkpt lat="43.77607" lon="3.83398">
        <ele>429.2</ele>
        <time>2026-05-21T10:22:21.000Z</time>
      </trkpt>
      <trkpt lat="43.77607" lon="3.83398">
        <ele>429.2</ele>
        <time>2026-05-21T10:22:22.000Z</time>
      </trkpt>
      <trkpt lat="43.77608" lon="3.83398">
        <ele>429.2</ele>
        <time>2026-05-21T10:22:23.000Z</time>
      </trkpt>
      <trkpt lat="43.77608" lon="3.83398">
        <ele>429.2</ele>
        <time>2026-05-21T10:22:24.000Z</time>
      </trkpt>
      <trkpt lat="43.77608" lon="3.83398">
        <ele>429</ele>
        <time>2026-05-21T10:22:25.000Z</time>
      </trkpt>
      <trkpt lat="43.77608" lon="3.83398">
        <ele>429.3</ele>
        <time>2026-05-21T10:22:26.000Z</time>
      </trkpt>
      <trkpt lat="43.77608" lon="3.83398">
        <ele>429.3</ele>
        <time>2026-05-21T10:22:27.000Z</time>
      </trkpt>
      <trkpt lat="43.77608" lon="3.83398">
        <ele>429.4</ele>
        <time>2026-05-21T10:22:28.000Z</time>
      </trkpt>
      <trkpt lat="43.77608" lon="3.83398">
        <ele>429.2</ele>
        <time>2026-05-21T10:22:29.000Z</time>
      </trkpt>
      <trkpt lat="43.77608" lon="3.83398">
        <ele>429.5</ele>
        <time>2026-05-21T10:22:30.000Z</time>
      </trkpt>
      <trkpt lat="43.77608" lon="3.83398">
        <ele>429.6</ele>
        <time>2026-05-21T10:22:31.000Z</time>
      </trkpt>
      <trkpt lat="43.77608" lon="3.83398">
        <ele>429.7</ele>
        <time>2026-05-21T10:22:32.000Z</time>
      </trkpt>
      <trkpt lat="43.77608" lon="3.83398">
        <ele>429.8</ele>
        <time>2026-05-21T10:22:33.000Z</time>
      </trkpt>
      <trkpt lat="43.77608" lon="3.83398">
        <ele>429.7</ele>
        <time>2026-05-21T10:22:34.000Z</time>
      </trkpt>
      <trkpt lat="43.77608" lon="3.83398">
        <ele>429.6</ele>
        <time>2026-05-21T10:22:35.000Z</time>
      </trkpt>
      <trkpt lat="43.77608" lon="3.83398">
        <ele>429.7</ele>
        <time>2026-05-21T10:22:36.000Z</time>
      </trkpt>
      <trkpt lat="43.77608" lon="3.83398">
        <ele>429.8</ele>
        <time>2026-05-21T10:22:37.000Z</time>
      </trkpt>
      <trkpt lat="43.77608" lon="3.83398">
        <ele>429.9</ele>
        <time>2026-05-21T10:22:38.000Z</time>
      </trkpt>
      <trkpt lat="43.77608" lon="3.83398">
        <ele>430.2</ele>
        <time>2026-05-21T10:22:39.000Z</time>
      </trkpt>
      <trkpt lat="43.77608" lon="3.83398">
        <ele>430.5</ele>
        <time>2026-05-21T10:22:40.000Z</time>
      </trkpt>
      <trkpt lat="43.77609" lon="3.83398">
        <ele>430.9</ele>
        <time>2026-05-21T10:22:41.000Z</time>
      </trkpt>
      <trkpt lat="43.7761" lon="3.83397">
        <ele>431.2</ele>
        <time>2026-05-21T10:22:42.000Z</time>
      </trkpt>
      <trkpt lat="43.77611" lon="3.83396">
        <ele>431.3</ele>
        <time>2026-05-21T10:22:43.000Z</time>
      </trkpt>
      <trkpt lat="43.77611" lon="3.83396">
        <ele>431.3</ele>
        <time>2026-05-21T10:22:44.000Z</time>
      </trkpt>
      <trkpt lat="43.77611" lon="3.83396">
        <ele>431.6</ele>
        <time>2026-05-21T10:22:45.000Z</time>
      </trkpt>
      <trkpt lat="43.77611" lon="3.83396">
        <ele>431.9</ele>
        <time>2026-05-21T10:22:46.000Z</time>
      </trkpt>
      <trkpt lat="43.77612" lon="3.83395">
        <ele>432.1</ele>
        <time>2026-05-21T10:22:47.000Z</time>
      </trkpt>
      <trkpt lat="43.77613" lon="3.83394">
        <ele>432.2</ele>
        <time>2026-05-21T10:22:48.000Z</time>
      </trkpt>
      <trkpt lat="43.77614" lon="3.83394">
        <ele>432.3</ele>
        <time>2026-05-21T10:22:49.000Z</time>
      </trkpt>
      <trkpt lat="43.77615" lon="3.83393">
        <ele>432.3</ele>
        <time>2026-05-21T10:22:50.000Z</time>
      </trkpt>
      <trkpt lat="43.77615" lon="3.83393">
        <ele>432.1</ele>
        <time>2026-05-21T10:22:51.000Z</time>
      </trkpt>
      <trkpt lat="43.77616" lon="3.83393">
        <ele>431.7</ele>
        <time>2026-05-21T10:22:52.000Z</time>
      </trkpt>
      <trkpt lat="43.77616" lon="3.83393">
        <ele>431.5</ele>
        <time>2026-05-21T10:22:53.000Z</time>
      </trkpt>
      <trkpt lat="43.77616" lon="3.83393">
        <ele>431.4</ele>
        <time>2026-05-21T10:22:54.000Z</time>
      </trkpt>
      <trkpt lat="43.77616" lon="3.83393">
        <ele>431.4</ele>
        <time>2026-05-21T10:22:55.000Z</time>
      </trkpt>
      <trkpt lat="43.77616" lon="3.83393">
        <ele>431.4</ele>
        <time>2026-05-21T10:22:56.000Z</time>
      </trkpt>
      <trkpt lat="43.77616" lon="3.83393">
        <ele>431.4</ele>
        <time>2026-05-21T10:22:57.000Z</time>
      </trkpt>
      <trkpt lat="43.77616" lon="3.83393">
        <ele>431.3</ele>
        <time>2026-05-21T10:22:58.000Z</time>
      </trkpt>
      <trkpt lat="43.77615" lon="3.83393">
        <ele>431.2</ele>
        <time>2026-05-21T10:22:59.000Z</time>
      </trkpt>
      <trkpt lat="43.77615" lon="3.83393">
        <ele>431.2</ele>
        <time>2026-05-21T10:23:00.000Z</time>
      </trkpt>
      <trkpt lat="43.77615" lon="3.83393">
        <ele>431.4</ele>
        <time>2026-05-21T10:23:01.000Z</time>
      </trkpt>
      <trkpt lat="43.77615" lon="3.83393">
        <ele>431.6</ele>
        <time>2026-05-21T10:23:02.000Z</time>
      </trkpt>
      <trkpt lat="43.77615" lon="3.83393">
        <ele>431.7</ele>
        <time>2026-05-21T10:23:03.000Z</time>
      </trkpt>
      <trkpt lat="43.77615" lon="3.83393">
        <ele>431.7</ele>
        <time>2026-05-21T10:23:04.000Z</time>
      </trkpt>
      <trkpt lat="43.77615" lon="3.83393">
        <ele>431.9</ele>
        <time>2026-05-21T10:23:05.000Z</time>
      </trkpt>
      <trkpt lat="43.77615" lon="3.83393">
        <ele>431.7</ele>
        <time>2026-05-21T10:23:06.000Z</time>
      </trkpt>
      <trkpt lat="43.77615" lon="3.83393">
        <ele>431.5</ele>
        <time>2026-05-21T10:23:07.000Z</time>
      </trkpt>
      <trkpt lat="43.77615" lon="3.83393">
        <ele>431.3</ele>
        <time>2026-05-21T10:23:08.000Z</time>
      </trkpt>
      <trkpt lat="43.77615" lon="3.83393">
        <ele>431.1</ele>
        <time>2026-05-21T10:23:09.000Z</time>
      </trkpt>
      <trkpt lat="43.77615" lon="3.83393">
        <ele>431.1</ele>
        <time>2026-05-21T10:23:10.000Z</time>
      </trkpt>
      <trkpt lat="43.77616" lon="3.83393">
        <ele>431.1</ele>
        <time>2026-05-21T10:23:11.000Z</time>
      </trkpt>
      <trkpt lat="43.77616" lon="3.83393">
        <ele>431.2</ele>
        <time>2026-05-21T10:23:12.000Z</time>
      </trkpt>
      <trkpt lat="43.77616" lon="3.83392">
        <ele>431.2</ele>
        <time>2026-05-21T10:23:13.000Z</time>
      </trkpt>
      <trkpt lat="43.77616" lon="3.83393">
        <ele>431.3</ele>
        <time>2026-05-21T10:23:14.000Z</time>
      </trkpt>
      <trkpt lat="43.77616" lon="3.83393">
        <ele>431.2</ele>
        <time>2026-05-21T10:23:15.000Z</time>
      </trkpt>
      <trkpt lat="43.77616" lon="3.83393">
        <ele>431.3</ele>
        <time>2026-05-21T10:23:16.000Z</time>
      </trkpt>
      <trkpt lat="43.77616" lon="3.83393">
        <ele>431.3</ele>
        <time>2026-05-21T10:23:17.000Z</time>
      </trkpt>
      <trkpt lat="43.77615" lon="3.83393">
        <ele>431.1</ele>
        <time>2026-05-21T10:23:18.000Z</time>
      </trkpt>
      <trkpt lat="43.77616" lon="3.83393">
        <ele>431.2</ele>
        <time>2026-05-21T10:23:19.000Z</time>
      </trkpt>
      <trkpt lat="43.77616" lon="3.83392">
        <ele>431.5</ele>
        <time>2026-05-21T10:23:20.999Z</time>
      </trkpt>
      <trkpt lat="43.77616" lon="3.83392">
        <ele>431.6</ele>
        <time>2026-05-21T10:23:21.999Z</time>
      </trkpt>
      <trkpt lat="43.77616" lon="3.83391">
        <ele>431.5</ele>
        <time>2026-05-21T10:23:22.999Z</time>
      </trkpt>
      <trkpt lat="43.77616" lon="3.83392">
        <ele>431.5</ele>
        <time>2026-05-21T10:23:23.999Z</time>
      </trkpt>
      <trkpt lat="43.77616" lon="3.83392">
        <ele>431.4</ele>
        <time>2026-05-21T10:23:24.999Z</time>
      </trkpt>
      <trkpt lat="43.77615" lon="3.83393">
        <ele>430.9</ele>
        <time>2026-05-21T10:23:25.999Z</time>
      </trkpt>
      <trkpt lat="43.77614" lon="3.83393">
        <ele>430.5</ele>
        <time>2026-05-21T10:23:26.999Z</time>
      </trkpt>
      <trkpt lat="43.77614" lon="3.83394">
        <ele>430.2</ele>
        <time>2026-05-21T10:23:27.999Z</time>
      </trkpt>
      <trkpt lat="43.77613" lon="3.83394">
        <ele>430</ele>
        <time>2026-05-21T10:23:28.999Z</time>
      </trkpt>
      <trkpt lat="43.77613" lon="3.83394">
        <ele>429.8</ele>
        <time>2026-05-21T10:23:29.999Z</time>
      </trkpt>
      <trkpt lat="43.77613" lon="3.83394">
        <ele>429.6</ele>
        <time>2026-05-21T10:23:30.999Z</time>
      </trkpt>
      <trkpt lat="43.77613" lon="3.83394">
        <ele>429.6</ele>
        <time>2026-05-21T10:23:31.999Z</time>
      </trkpt>
      <trkpt lat="43.77613" lon="3.83392">
        <ele>429.5</ele>
        <time>2026-05-21T10:23:32.999Z</time>
      </trkpt>
      <trkpt lat="43.77613" lon="3.83392">
        <ele>429.6</ele>
        <time>2026-05-21T10:23:33.999Z</time>
      </trkpt>
      <trkpt lat="43.77613" lon="3.83392">
        <ele>429.6</ele>
        <time>2026-05-21T10:23:34.999Z</time>
      </trkpt>
      <trkpt lat="43.77613" lon="3.83392">
        <ele>432.2</ele>
        <time>2026-05-21T10:23:35.999Z</time>
      </trkpt>
      <trkpt lat="43.77613" lon="3.83392">
        <ele>432.1</ele>
        <time>2026-05-21T10:23:36.999Z</time>
      </trkpt>
      <trkpt lat="43.77613" lon="3.83392">
        <ele>431.9</ele>
        <time>2026-05-21T10:23:37.999Z</time>
      </trkpt>
      <trkpt lat="43.77613" lon="3.83391">
        <ele>431.8</ele>
        <time>2026-05-21T10:23:38.999Z</time>
      </trkpt>
      <trkpt lat="43.77613" lon="3.83391">
        <ele>431.9</ele>
        <time>2026-05-21T10:23:39.999Z</time>
      </trkpt>
      <trkpt lat="43.77614" lon="3.8339">
        <ele>431.8</ele>
        <time>2026-05-21T10:23:40.999Z</time>
      </trkpt>
      <trkpt lat="43.77614" lon="3.8339">
        <ele>431.6</ele>
        <time>2026-05-21T10:23:41.999Z</time>
      </trkpt>
      <trkpt lat="43.77614" lon="3.83389">
        <ele>431.5</ele>
        <time>2026-05-21T10:23:42.999Z</time>
      </trkpt>
      <trkpt lat="43.77614" lon="3.83388">
        <ele>431</ele>
        <time>2026-05-21T10:23:43.999Z</time>
      </trkpt>
      <trkpt lat="43.77614" lon="3.83388">
        <ele>431</ele>
        <time>2026-05-21T10:23:44.999Z</time>
      </trkpt>
      <trkpt lat="43.77614" lon="3.83388">
        <ele>430.9</ele>
        <time>2026-05-21T10:23:45.999Z</time>
      </trkpt>
      <trkpt lat="43.77614" lon="3.83388">
        <ele>431.2</ele>
        <time>2026-05-21T10:23:46.999Z</time>
      </trkpt>
      <trkpt lat="43.77614" lon="3.83388">
        <ele>431.3</ele>
        <time>2026-05-21T10:23:47.999Z</time>
      </trkpt>
      <trkpt lat="43.77614" lon="3.83388">
        <ele>431.1</ele>
        <time>2026-05-21T10:23:48.999Z</time>
      </trkpt>
      <trkpt lat="43.77614" lon="3.83388">
        <ele>431.1</ele>
        <time>2026-05-21T10:23:49.999Z</time>
      </trkpt>
      <trkpt lat="43.77614" lon="3.83387">
        <ele>431.1</ele>
        <time>2026-05-21T10:23:50.999Z</time>
      </trkpt>
      <trkpt lat="43.77614" lon="3.83387">
        <ele>431.1</ele>
        <time>2026-05-21T10:23:51.999Z</time>
      </trkpt>
      <trkpt lat="43.77614" lon="3.83387">
        <ele>431.2</ele>
        <time>2026-05-21T10:23:52.999Z</time>
      </trkpt>
      <trkpt lat="43.77614" lon="3.83387">
        <ele>431.2</ele>
        <time>2026-05-21T10:23:53.999Z</time>
      </trkpt>
      <trkpt lat="43.77614" lon="3.83387">
        <ele>431.2</ele>
        <time>2026-05-21T10:23:54.999Z</time>
      </trkpt>
      <trkpt lat="43.77614" lon="3.83387">
        <ele>431.2</ele>
        <time>2026-05-21T10:23:55.999Z</time>
      </trkpt>
      <trkpt lat="43.77614" lon="3.83387">
        <ele>431.1</ele>
        <time>2026-05-21T10:23:56.999Z</time>
      </trkpt>
      <trkpt lat="43.77615" lon="3.83387">
        <ele>431.2</ele>
        <time>2026-05-21T10:23:57.999Z</time>
      </trkpt>
      <trkpt lat="43.77615" lon="3.83387">
        <ele>431.5</ele>
        <time>2026-05-21T10:23:58.999Z</time>
      </trkpt>
      <trkpt lat="43.77615" lon="3.83387">
        <ele>431.9</ele>
        <time>2026-05-21T10:23:59.999Z</time>
      </trkpt>
      <trkpt lat="43.77615" lon="3.83387">
        <ele>432</ele>
        <time>2026-05-21T10:24:00.999Z</time>
      </trkpt>
      <trkpt lat="43.77615" lon="3.83387">
        <ele>432.2</ele>
        <time>2026-05-21T10:24:01.999Z</time>
      </trkpt>
      <trkpt lat="43.77615" lon="3.83387">
        <ele>432.3</ele>
        <time>2026-05-21T10:24:02.999Z</time>
      </trkpt>
      <trkpt lat="43.77615" lon="3.83387">
        <ele>432.3</ele>
        <time>2026-05-21T10:24:03.999Z</time>
      </trkpt>
      <trkpt lat="43.77615" lon="3.83387">
        <ele>432.1</ele>
        <time>2026-05-21T10:24:04.999Z</time>
      </trkpt>
      <trkpt lat="43.77615" lon="3.83386">
        <ele>432.2</ele>
        <time>2026-05-21T10:24:05.999Z</time>
      </trkpt>
      <trkpt lat="43.77615" lon="3.83386">
        <ele>431.9</ele>
        <time>2026-05-21T10:24:06.999Z</time>
      </trkpt>
      <trkpt lat="43.77615" lon="3.83386">
        <ele>431.7</ele>
        <time>2026-05-21T10:24:07.999Z</time>
      </trkpt>
      <trkpt lat="43.77615" lon="3.83386">
        <ele>431.8</ele>
        <time>2026-05-21T10:24:08.999Z</time>
      </trkpt>
      <trkpt lat="43.77615" lon="3.83386">
        <ele>432.2</ele>
        <time>2026-05-21T10:24:09.999Z</time>
      </trkpt>
      <trkpt lat="43.77615" lon="3.83386">
        <ele>432.5</ele>
        <time>2026-05-21T10:24:10.999Z</time>
      </trkpt>
      <trkpt lat="43.77615" lon="3.83386">
        <ele>432.6</ele>
        <time>2026-05-21T10:24:11.999Z</time>
      </trkpt>
      <trkpt lat="43.77615" lon="3.83385">
        <ele>432.7</ele>
        <time>2026-05-21T10:24:12.999Z</time>
      </trkpt>
      <trkpt lat="43.77615" lon="3.83385">
        <ele>432.9</ele>
        <time>2026-05-21T10:24:13.999Z</time>
      </trkpt>
      <trkpt lat="43.77615" lon="3.83385">
        <ele>433.1</ele>
        <time>2026-05-21T10:24:14.999Z</time>
      </trkpt>
      <trkpt lat="43.77615" lon="3.83385">
        <ele>433.4</ele>
        <time>2026-05-21T10:24:15.999Z</time>
      </trkpt>
      <trkpt lat="43.77615" lon="3.83384">
        <ele>433.5</ele>
        <time>2026-05-21T10:24:16.999Z</time>
      </trkpt>
      <trkpt lat="43.77616" lon="3.83384">
        <ele>433.5</ele>
        <time>2026-05-21T10:24:17.999Z</time>
      </trkpt>
      <trkpt lat="43.77616" lon="3.83384">
        <ele>433.5</ele>
        <time>2026-05-21T10:24:18.999Z</time>
      </trkpt>
      <trkpt lat="43.77616" lon="3.83384">
        <ele>433.4</ele>
        <time>2026-05-21T10:24:19.999Z</time>
      </trkpt>
      <trkpt lat="43.77616" lon="3.83384">
        <ele>433.2</ele>
        <time>2026-05-21T10:24:20.999Z</time>
      </trkpt>
      <trkpt lat="43.77616" lon="3.83384">
        <ele>433.1</ele>
        <time>2026-05-21T10:24:21.999Z</time>
      </trkpt>
      <trkpt lat="43.77616" lon="3.83384">
        <ele>433</ele>
        <time>2026-05-21T10:24:22.999Z</time>
      </trkpt>
      <trkpt lat="43.77616" lon="3.83382">
        <ele>433</ele>
        <time>2026-05-21T10:24:23.999Z</time>
      </trkpt>
      <trkpt lat="43.77616" lon="3.83381">
        <ele>433.1</ele>
        <time>2026-05-21T10:24:24.999Z</time>
      </trkpt>
      <trkpt lat="43.77616" lon="3.8338">
        <ele>433.1</ele>
        <time>2026-05-21T10:24:25.999Z</time>
      </trkpt>
      <trkpt lat="43.77616" lon="3.8338">
        <ele>432.9</ele>
        <time>2026-05-21T10:24:26.999Z</time>
      </trkpt>
      <trkpt lat="43.77616" lon="3.8338">
        <ele>432.7</ele>
        <time>2026-05-21T10:24:27.999Z</time>
      </trkpt>
      <trkpt lat="43.77616" lon="3.8338">
        <ele>432.5</ele>
        <time>2026-05-21T10:24:28.999Z</time>
      </trkpt>
      <trkpt lat="43.77616" lon="3.8338">
        <ele>432.4</ele>
        <time>2026-05-21T10:24:29.999Z</time>
      </trkpt>
      <trkpt lat="43.77616" lon="3.8338">
        <ele>432.4</ele>
        <time>2026-05-21T10:24:30.999Z</time>
      </trkpt>
      <trkpt lat="43.77616" lon="3.83379">
        <ele>432.5</ele>
        <time>2026-05-21T10:24:31.999Z</time>
      </trkpt>
      <trkpt lat="43.77616" lon="3.83379">
        <ele>432.6</ele>
        <time>2026-05-21T10:24:32.999Z</time>
      </trkpt>
      <trkpt lat="43.77616" lon="3.83379">
        <ele>432.8</ele>
        <time>2026-05-21T10:24:33.999Z</time>
      </trkpt>
      <trkpt lat="43.77616" lon="3.83379">
        <ele>433</ele>
        <time>2026-05-21T10:24:34.999Z</time>
      </trkpt>
      <trkpt lat="43.77616" lon="3.83379">
        <ele>433.4</ele>
        <time>2026-05-21T10:24:35.999Z</time>
      </trkpt>
      <trkpt lat="43.77616" lon="3.83379">
        <ele>433.6</ele>
        <time>2026-05-21T10:24:36.999Z</time>
      </trkpt>
      <trkpt lat="43.77616" lon="3.83378">
        <ele>433.6</ele>
        <time>2026-05-21T10:24:37.999Z</time>
      </trkpt>
      <trkpt lat="43.77616" lon="3.83378">
        <ele>433.7</ele>
        <time>2026-05-21T10:24:38.999Z</time>
      </trkpt>
      <trkpt lat="43.77616" lon="3.83376">
        <ele>433.9</ele>
        <time>2026-05-21T10:24:39.999Z</time>
      </trkpt>
      <trkpt lat="43.77616" lon="3.83375">
        <ele>434.2</ele>
        <time>2026-05-21T10:24:40.999Z</time>
      </trkpt>
      <trkpt lat="43.77616" lon="3.83375">
        <ele>434.3</ele>
        <time>2026-05-21T10:24:41.999Z</time>
      </trkpt>
      <trkpt lat="43.77616" lon="3.83375">
        <ele>434.6</ele>
        <time>2026-05-21T10:24:42.999Z</time>
      </trkpt>
      <trkpt lat="43.77616" lon="3.83375">
        <ele>435.2</ele>
        <time>2026-05-21T10:24:43.999Z</time>
      </trkpt>
      <trkpt lat="43.77616" lon="3.83375">
        <ele>435.3</ele>
        <time>2026-05-21T10:24:44.999Z</time>
      </trkpt>
      <trkpt lat="43.77616" lon="3.83375">
        <ele>435.4</ele>
        <time>2026-05-21T10:24:45.999Z</time>
      </trkpt>
      <trkpt lat="43.77616" lon="3.83375">
        <ele>435.3</ele>
        <time>2026-05-21T10:24:46.999Z</time>
      </trkpt>
      <trkpt lat="43.77616" lon="3.83375">
        <ele>435.3</ele>
        <time>2026-05-21T10:24:47.999Z</time>
      </trkpt>
      <trkpt lat="43.77617" lon="3.83375">
        <ele>435.4</ele>
        <time>2026-05-21T10:24:48.999Z</time>
      </trkpt>
      <trkpt lat="43.77617" lon="3.83375">
        <ele>435.8</ele>
        <time>2026-05-21T10:24:49.999Z</time>
      </trkpt>
      <trkpt lat="43.77617" lon="3.83375">
        <ele>436.3</ele>
        <time>2026-05-21T10:24:50.999Z</time>
      </trkpt>
      <trkpt lat="43.77617" lon="3.83374">
        <ele>436.4</ele>
        <time>2026-05-21T10:24:51.999Z</time>
      </trkpt>
      <trkpt lat="43.77617" lon="3.83374">
        <ele>436.3</ele>
        <time>2026-05-21T10:24:52.999Z</time>
      </trkpt>
      <trkpt lat="43.77617" lon="3.83374">
        <ele>436.5</ele>
        <time>2026-05-21T10:24:53.999Z</time>
      </trkpt>
      <trkpt lat="43.77617" lon="3.83374">
        <ele>436.5</ele>
        <time>2026-05-21T10:24:54.999Z</time>
      </trkpt>
      <trkpt lat="43.77617" lon="3.83374">
        <ele>436.6</ele>
        <time>2026-05-21T10:24:55.999Z</time>
      </trkpt>
      <trkpt lat="43.77617" lon="3.83374">
        <ele>436.7</ele>
        <time>2026-05-21T10:24:56.999Z</time>
      </trkpt>
      <trkpt lat="43.77617" lon="3.83374">
        <ele>436.7</ele>
        <time>2026-05-21T10:24:57.999Z</time>
      </trkpt>
      <trkpt lat="43.77617" lon="3.83374">
        <ele>436.7</ele>
        <time>2026-05-21T10:24:58.999Z</time>
      </trkpt>
      <trkpt lat="43.77617" lon="3.83374">
        <ele>436.9</ele>
        <time>2026-05-21T10:24:59.999Z</time>
      </trkpt>
      <trkpt lat="43.77617" lon="3.83374">
        <ele>437.2</ele>
        <time>2026-05-21T10:25:00.999Z</time>
      </trkpt>
      <trkpt lat="43.77617" lon="3.83374">
        <ele>437.4</ele>
        <time>2026-05-21T10:25:01.999Z</time>
      </trkpt>
      <trkpt lat="43.77617" lon="3.83374">
        <ele>437.4</ele>
        <time>2026-05-21T10:25:02.999Z</time>
      </trkpt>
      <trkpt lat="43.77617" lon="3.83374">
        <ele>437.6</ele>
        <time>2026-05-21T10:25:03.999Z</time>
      </trkpt>
      <trkpt lat="43.77617" lon="3.83374">
        <ele>437.6</ele>
        <time>2026-05-21T10:25:04.999Z</time>
      </trkpt>
      <trkpt lat="43.77617" lon="3.83374">
        <ele>437.6</ele>
        <time>2026-05-21T10:25:05.999Z</time>
      </trkpt>
      <trkpt lat="43.77617" lon="3.83374">
        <ele>437.6</ele>
        <time>2026-05-21T10:25:06.999Z</time>
      </trkpt>
      <trkpt lat="43.77618" lon="3.83373">
        <ele>437.8</ele>
        <time>2026-05-21T10:25:07.999Z</time>
      </trkpt>
      <trkpt lat="43.77618" lon="3.83373">
        <ele>437.8</ele>
        <time>2026-05-21T10:25:08.999Z</time>
      </trkpt>
      <trkpt lat="43.77618" lon="3.83373">
        <ele>437.8</ele>
        <time>2026-05-21T10:25:09.999Z</time>
      </trkpt>
      <trkpt lat="43.77618" lon="3.83373">
        <ele>437.8</ele>
        <time>2026-05-21T10:25:10.999Z</time>
      </trkpt>
      <trkpt lat="43.77618" lon="3.83373">
        <ele>437.8</ele>
        <time>2026-05-21T10:25:11.999Z</time>
      </trkpt>
      <trkpt lat="43.77618" lon="3.83372">
        <ele>437.9</ele>
        <time>2026-05-21T10:25:12.999Z</time>
      </trkpt>
      <trkpt lat="43.77618" lon="3.83371">
        <ele>437.6</ele>
        <time>2026-05-21T10:25:13.999Z</time>
      </trkpt>
      <trkpt lat="43.77619" lon="3.83369">
        <ele>437.6</ele>
        <time>2026-05-21T10:25:14.999Z</time>
      </trkpt>
      <trkpt lat="43.77619" lon="3.83369">
        <ele>437.5</ele>
        <time>2026-05-21T10:25:15.999Z</time>
      </trkpt>
      <trkpt lat="43.7762" lon="3.83368">
        <ele>437.5</ele>
        <time>2026-05-21T10:25:16.999Z</time>
      </trkpt>
      <trkpt lat="43.7762" lon="3.83368">
        <ele>437.2</ele>
        <time>2026-05-21T10:25:17.999Z</time>
      </trkpt>
      <trkpt lat="43.7762" lon="3.83368">
        <ele>436.9</ele>
        <time>2026-05-21T10:25:18.999Z</time>
      </trkpt>
      <trkpt lat="43.7762" lon="3.83368">
        <ele>436.7</ele>
        <time>2026-05-21T10:25:19.999Z</time>
      </trkpt>
      <trkpt lat="43.7762" lon="3.83367">
        <ele>436.5</ele>
        <time>2026-05-21T10:25:20.999Z</time>
      </trkpt>
      <trkpt lat="43.7762" lon="3.83367">
        <ele>436.6</ele>
        <time>2026-05-21T10:25:21.999Z</time>
      </trkpt>
      <trkpt lat="43.7762" lon="3.83367">
        <ele>436.8</ele>
        <time>2026-05-21T10:25:22.999Z</time>
      </trkpt>
      <trkpt lat="43.7762" lon="3.83367">
        <ele>436.7</ele>
        <time>2026-05-21T10:25:23.999Z</time>
      </trkpt>
      <trkpt lat="43.7762" lon="3.83367">
        <ele>436.7</ele>
        <time>2026-05-21T10:25:24.999Z</time>
      </trkpt>
      <trkpt lat="43.7762" lon="3.83367">
        <ele>436.5</ele>
        <time>2026-05-21T10:25:25.999Z</time>
      </trkpt>
      <trkpt lat="43.7762" lon="3.83367">
        <ele>436.6</ele>
        <time>2026-05-21T10:25:26.999Z</time>
      </trkpt>
      <trkpt lat="43.7762" lon="3.83367">
        <ele>436.3</ele>
        <time>2026-05-21T10:25:27.999Z</time>
      </trkpt>
      <trkpt lat="43.77621" lon="3.83367">
        <ele>436.3</ele>
        <time>2026-05-21T10:25:28.999Z</time>
      </trkpt>
      <trkpt lat="43.77621" lon="3.83367">
        <ele>436.3</ele>
        <time>2026-05-21T10:25:29.999Z</time>
      </trkpt>
      <trkpt lat="43.77621" lon="3.83366">
        <ele>436.2</ele>
        <time>2026-05-21T10:25:30.999Z</time>
      </trkpt>
      <trkpt lat="43.77622" lon="3.83366">
        <ele>436.2</ele>
        <time>2026-05-21T10:25:31.999Z</time>
      </trkpt>
      <trkpt lat="43.77622" lon="3.83365">
        <ele>436.2</ele>
        <time>2026-05-21T10:25:32.999Z</time>
      </trkpt>
      <trkpt lat="43.77622" lon="3.83365">
        <ele>436.5</ele>
        <time>2026-05-21T10:25:33.999Z</time>
      </trkpt>
      <trkpt lat="43.77622" lon="3.83365">
        <ele>436.9</ele>
        <time>2026-05-21T10:25:34.999Z</time>
      </trkpt>
      <trkpt lat="43.77622" lon="3.83365">
        <ele>437.3</ele>
        <time>2026-05-21T10:25:35.999Z</time>
      </trkpt>
      <trkpt lat="43.77622" lon="3.83365">
        <ele>437.4</ele>
        <time>2026-05-21T10:25:36.999Z</time>
      </trkpt>
      <trkpt lat="43.77622" lon="3.83365">
        <ele>437.6</ele>
        <time>2026-05-21T10:25:37.999Z</time>
      </trkpt>
      <trkpt lat="43.77622" lon="3.83365">
        <ele>437.8</ele>
        <time>2026-05-21T10:25:38.999Z</time>
      </trkpt>
      <trkpt lat="43.77622" lon="3.83365">
        <ele>438</ele>
        <time>2026-05-21T10:25:39.999Z</time>
      </trkpt>
      <trkpt lat="43.77622" lon="3.83364">
        <ele>438</ele>
        <time>2026-05-21T10:25:40.999Z</time>
      </trkpt>
      <trkpt lat="43.77622" lon="3.83364">
        <ele>437.9</ele>
        <time>2026-05-21T10:25:41.999Z</time>
      </trkpt>
      <trkpt lat="43.77622" lon="3.83364">
        <ele>437.7</ele>
        <time>2026-05-21T10:25:42.999Z</time>
      </trkpt>
      <trkpt lat="43.77623" lon="3.83364">
        <ele>437.6</ele>
        <time>2026-05-21T10:25:43.999Z</time>
      </trkpt>
      <trkpt lat="43.77623" lon="3.83364">
        <ele>437.5</ele>
        <time>2026-05-21T10:25:44.999Z</time>
      </trkpt>
      <trkpt lat="43.77623" lon="3.83364">
        <ele>437.4</ele>
        <time>2026-05-21T10:25:45.999Z</time>
      </trkpt>
      <trkpt lat="43.77623" lon="3.83364">
        <ele>437.6</ele>
        <time>2026-05-21T10:25:46.999Z</time>
      </trkpt>
      <trkpt lat="43.77623" lon="3.83364">
        <ele>437.4</ele>
        <time>2026-05-21T10:25:47.999Z</time>
      </trkpt>
      <trkpt lat="43.77623" lon="3.83364">
        <ele>437.3</ele>
        <time>2026-05-21T10:25:48.999Z</time>
      </trkpt>
      <trkpt lat="43.77623" lon="3.83364">
        <ele>437.4</ele>
        <time>2026-05-21T10:25:49.999Z</time>
      </trkpt>
      <trkpt lat="43.77623" lon="3.83364">
        <ele>437.7</ele>
        <time>2026-05-21T10:25:50.999Z</time>
      </trkpt>
      <trkpt lat="43.77623" lon="3.83364">
        <ele>438.1</ele>
        <time>2026-05-21T10:25:51.999Z</time>
      </trkpt>
      <trkpt lat="43.77623" lon="3.83364">
        <ele>438.2</ele>
        <time>2026-05-21T10:25:52.999Z</time>
      </trkpt>
      <trkpt lat="43.77623" lon="3.83364">
        <ele>438.2</ele>
        <time>2026-05-21T10:25:53.999Z</time>
      </trkpt>
      <trkpt lat="43.77623" lon="3.83364">
        <ele>438.3</ele>
        <time>2026-05-21T10:25:54.999Z</time>
      </trkpt>
      <trkpt lat="43.77623" lon="3.83364">
        <ele>438.4</ele>
        <time>2026-05-21T10:25:55.999Z</time>
      </trkpt>
      <trkpt lat="43.77623" lon="3.83363">
        <ele>438.6</ele>
        <time>2026-05-21T10:25:56.999Z</time>
      </trkpt>
      <trkpt lat="43.77623" lon="3.83363">
        <ele>438.7</ele>
        <time>2026-05-21T10:25:57.999Z</time>
      </trkpt>
      <trkpt lat="43.77623" lon="3.83363">
        <ele>438.8</ele>
        <time>2026-05-21T10:25:58.999Z</time>
      </trkpt>
      <trkpt lat="43.77623" lon="3.83363">
        <ele>438.9</ele>
        <time>2026-05-21T10:25:59.999Z</time>
      </trkpt>
      <trkpt lat="43.77623" lon="3.83363">
        <ele>438.8</ele>
        <time>2026-05-21T10:26:00.999Z</time>
      </trkpt>
      <trkpt lat="43.77623" lon="3.83363">
        <ele>438.6</ele>
        <time>2026-05-21T10:26:01.999Z</time>
      </trkpt>
      <trkpt lat="43.77623" lon="3.83363">
        <ele>438.7</ele>
        <time>2026-05-21T10:26:02.999Z</time>
      </trkpt>
      <trkpt lat="43.77623" lon="3.83363">
        <ele>438.8</ele>
        <time>2026-05-21T10:26:03.999Z</time>
      </trkpt>
      <trkpt lat="43.77623" lon="3.83363">
        <ele>438.6</ele>
        <time>2026-05-21T10:26:04.999Z</time>
      </trkpt>
      <trkpt lat="43.77623" lon="3.83363">
        <ele>438.4</ele>
        <time>2026-05-21T10:26:05.999Z</time>
      </trkpt>
      <trkpt lat="43.77623" lon="3.83363">
        <ele>438.3</ele>
        <time>2026-05-21T10:26:06.999Z</time>
      </trkpt>
      <trkpt lat="43.77623" lon="3.83363">
        <ele>438.1</ele>
        <time>2026-05-21T10:26:07.999Z</time>
      </trkpt>
      <trkpt lat="43.77623" lon="3.83362">
        <ele>438</ele>
        <time>2026-05-21T10:26:08.999Z</time>
      </trkpt>
      <trkpt lat="43.77623" lon="3.83362">
        <ele>438.1</ele>
        <time>2026-05-21T10:26:09.999Z</time>
      </trkpt>
      <trkpt lat="43.77623" lon="3.83362">
        <ele>438</ele>
        <time>2026-05-21T10:26:10.999Z</time>
      </trkpt>
      <trkpt lat="43.77623" lon="3.83362">
        <ele>438.4</ele>
        <time>2026-05-21T10:26:12.999Z</time>
      </trkpt>
      <trkpt lat="43.77624" lon="3.83362">
        <ele>438.4</ele>
        <time>2026-05-21T10:26:13.999Z</time>
      </trkpt>
      <trkpt lat="43.77624" lon="3.83362">
        <ele>438.5</ele>
        <time>2026-05-21T10:26:14.999Z</time>
      </trkpt>
      <trkpt lat="43.77624" lon="3.83362">
        <ele>438.4</ele>
        <time>2026-05-21T10:26:15.999Z</time>
      </trkpt>
      <trkpt lat="43.77624" lon="3.83362">
        <ele>438.8</ele>
        <time>2026-05-21T10:26:16.999Z</time>
      </trkpt>
      <trkpt lat="43.77624" lon="3.83362">
        <ele>439</ele>
        <time>2026-05-21T10:26:17.999Z</time>
      </trkpt>
      <trkpt lat="43.77624" lon="3.83362">
        <ele>439.2</ele>
        <time>2026-05-21T10:26:18.999Z</time>
      </trkpt>
      <trkpt lat="43.77624" lon="3.83361">
        <ele>439.4</ele>
        <time>2026-05-21T10:26:19.999Z</time>
      </trkpt>
      <trkpt lat="43.77624" lon="3.83361">
        <ele>439.4</ele>
        <time>2026-05-21T10:26:20.999Z</time>
      </trkpt>
      <trkpt lat="43.77624" lon="3.83361">
        <ele>439.3</ele>
        <time>2026-05-21T10:26:21.999Z</time>
      </trkpt>
      <trkpt lat="43.77624" lon="3.83361">
        <ele>439.2</ele>
        <time>2026-05-21T10:26:22.999Z</time>
      </trkpt>
      <trkpt lat="43.77624" lon="3.83361">
        <ele>438.9</ele>
        <time>2026-05-21T10:26:23.999Z</time>
      </trkpt>
      <trkpt lat="43.77624" lon="3.83361">
        <ele>438.8</ele>
        <time>2026-05-21T10:26:24.999Z</time>
      </trkpt>
      <trkpt lat="43.77624" lon="3.83361">
        <ele>438.8</ele>
        <time>2026-05-21T10:26:25.999Z</time>
      </trkpt>
      <trkpt lat="43.77624" lon="3.83361">
        <ele>438.8</ele>
        <time>2026-05-21T10:26:26.999Z</time>
      </trkpt>
      <trkpt lat="43.77624" lon="3.83361">
        <ele>438.8</ele>
        <time>2026-05-21T10:26:27.999Z</time>
      </trkpt>
      <trkpt lat="43.77624" lon="3.83361">
        <ele>438.9</ele>
        <time>2026-05-21T10:26:28.999Z</time>
      </trkpt>
      <trkpt lat="43.77624" lon="3.83361">
        <ele>438.9</ele>
        <time>2026-05-21T10:26:29.999Z</time>
      </trkpt>
      <trkpt lat="43.77624" lon="3.8336">
        <ele>439.1</ele>
        <time>2026-05-21T10:26:30.999Z</time>
      </trkpt>
      <trkpt lat="43.77625" lon="3.8336">
        <ele>439.3</ele>
        <time>2026-05-21T10:26:31.999Z</time>
      </trkpt>
      <trkpt lat="43.77625" lon="3.8336">
        <ele>439.4</ele>
        <time>2026-05-21T10:26:32.999Z</time>
      </trkpt>
      <trkpt lat="43.77625" lon="3.8336">
        <ele>439.4</ele>
        <time>2026-05-21T10:26:33.999Z</time>
      </trkpt>
      <trkpt lat="43.77625" lon="3.8336">
        <ele>439.4</ele>
        <time>2026-05-21T10:26:34.999Z</time>
      </trkpt>
      <trkpt lat="43.77625" lon="3.8336">
        <ele>439.4</ele>
        <time>2026-05-21T10:26:35.999Z</time>
      </trkpt>
      <trkpt lat="43.77625" lon="3.8336">
        <ele>439.2</ele>
        <time>2026-05-21T10:26:36.999Z</time>
      </trkpt>
      <trkpt lat="43.77625" lon="3.83359">
        <ele>439.1</ele>
        <time>2026-05-21T10:26:37.999Z</time>
      </trkpt>
      <trkpt lat="43.77625" lon="3.83358">
        <ele>439.5</ele>
        <time>2026-05-21T10:26:38.999Z</time>
      </trkpt>
      <trkpt lat="43.77625" lon="3.83358">
        <ele>439.6</ele>
        <time>2026-05-21T10:26:39.999Z</time>
      </trkpt>
      <trkpt lat="43.77625" lon="3.83358">
        <ele>439.7</ele>
        <time>2026-05-21T10:26:40.999Z</time>
      </trkpt>
      <trkpt lat="43.77625" lon="3.83357">
        <ele>440</ele>
        <time>2026-05-21T10:26:41.999Z</time>
      </trkpt>
      <trkpt lat="43.77625" lon="3.83357">
        <ele>440.1</ele>
        <time>2026-05-21T10:26:42.999Z</time>
      </trkpt>
      <trkpt lat="43.77626" lon="3.83357">
        <ele>440.5</ele>
        <time>2026-05-21T10:26:43.999Z</time>
      </trkpt>
      <trkpt lat="43.77626" lon="3.83357">
        <ele>440.7</ele>
        <time>2026-05-21T10:26:44.999Z</time>
      </trkpt>
      <trkpt lat="43.77626" lon="3.83357">
        <ele>440.7</ele>
        <time>2026-05-21T10:26:45.999Z</time>
      </trkpt>
      <trkpt lat="43.77626" lon="3.83357">
        <ele>440.7</ele>
        <time>2026-05-21T10:26:46.999Z</time>
      </trkpt>
      <trkpt lat="43.77627" lon="3.83357">
        <ele>440.7</ele>
        <time>2026-05-21T10:26:47.999Z</time>
      </trkpt>
      <trkpt lat="43.77627" lon="3.83357">
        <ele>440.6</ele>
        <time>2026-05-21T10:26:48.999Z</time>
      </trkpt>
      <trkpt lat="43.77628" lon="3.83356">
        <ele>440.6</ele>
        <time>2026-05-21T10:26:49.999Z</time>
      </trkpt>
      <trkpt lat="43.77628" lon="3.83356">
        <ele>440.5</ele>
        <time>2026-05-21T10:26:50.999Z</time>
      </trkpt>
      <trkpt lat="43.77628" lon="3.83356">
        <ele>440.3</ele>
        <time>2026-05-21T10:26:51.999Z</time>
      </trkpt>
      <trkpt lat="43.77628" lon="3.83356">
        <ele>439.9</ele>
        <time>2026-05-21T10:26:52.999Z</time>
      </trkpt>
      <trkpt lat="43.77628" lon="3.83356">
        <ele>439.6</ele>
        <time>2026-05-21T10:26:53.999Z</time>
      </trkpt>
      <trkpt lat="43.77628" lon="3.83356">
        <ele>439.4</ele>
        <time>2026-05-21T10:26:54.999Z</time>
      </trkpt>
      <trkpt lat="43.77628" lon="3.83356">
        <ele>439.2</ele>
        <time>2026-05-21T10:26:55.999Z</time>
      </trkpt>
      <trkpt lat="43.77629" lon="3.83356">
        <ele>438.9</ele>
        <time>2026-05-21T10:26:56.999Z</time>
      </trkpt>
      <trkpt lat="43.77629" lon="3.83356">
        <ele>438.6</ele>
        <time>2026-05-21T10:26:57.999Z</time>
      </trkpt>
      <trkpt lat="43.77629" lon="3.83356">
        <ele>438.3</ele>
        <time>2026-05-21T10:26:58.999Z</time>
      </trkpt>
      <trkpt lat="43.77629" lon="3.83356">
        <ele>438.2</ele>
        <time>2026-05-21T10:26:59.999Z</time>
      </trkpt>
      <trkpt lat="43.77629" lon="3.83356">
        <ele>438</ele>
        <time>2026-05-21T10:27:00.999Z</time>
      </trkpt>
      <trkpt lat="43.77629" lon="3.83356">
        <ele>437.9</ele>
        <time>2026-05-21T10:27:01.999Z</time>
      </trkpt>
      <trkpt lat="43.77629" lon="3.83356">
        <ele>437.8</ele>
        <time>2026-05-21T10:27:02.999Z</time>
      </trkpt>
      <trkpt lat="43.77629" lon="3.83356">
        <ele>437.8</ele>
        <time>2026-05-21T10:27:03.999Z</time>
      </trkpt>
      <trkpt lat="43.77629" lon="3.83356">
        <ele>437.7</ele>
        <time>2026-05-21T10:27:04.999Z</time>
      </trkpt>
      <trkpt lat="43.77629" lon="3.83356">
        <ele>437.7</ele>
        <time>2026-05-21T10:27:05.999Z</time>
      </trkpt>
      <trkpt lat="43.77629" lon="3.83356">
        <ele>437.7</ele>
        <time>2026-05-21T10:27:06.999Z</time>
      </trkpt>
      <trkpt lat="43.77629" lon="3.83356">
        <ele>437.6</ele>
        <time>2026-05-21T10:27:07.999Z</time>
      </trkpt>
      <trkpt lat="43.77629" lon="3.83356">
        <ele>437.5</ele>
        <time>2026-05-21T10:27:08.999Z</time>
      </trkpt>
      <trkpt lat="43.77629" lon="3.83356">
        <ele>437.5</ele>
        <time>2026-05-21T10:27:09.999Z</time>
      </trkpt>
      <trkpt lat="43.77629" lon="3.83356">
        <ele>437.5</ele>
        <time>2026-05-21T10:27:10.999Z</time>
      </trkpt>
      <trkpt lat="43.77629" lon="3.83356">
        <ele>437.4</ele>
        <time>2026-05-21T10:27:11.999Z</time>
      </trkpt>
      <trkpt lat="43.77629" lon="3.83356">
        <ele>437.3</ele>
        <time>2026-05-21T10:27:12.999Z</time>
      </trkpt>
      <trkpt lat="43.77629" lon="3.83356">
        <ele>437.2</ele>
        <time>2026-05-21T10:27:13.999Z</time>
      </trkpt>
      <trkpt lat="43.77629" lon="3.83356">
        <ele>437.2</ele>
        <time>2026-05-21T10:27:14.999Z</time>
      </trkpt>
      <trkpt lat="43.77629" lon="3.83356">
        <ele>437.2</ele>
        <time>2026-05-21T10:27:15.999Z</time>
      </trkpt>
      <trkpt lat="43.77629" lon="3.83356">
        <ele>437.2</ele>
        <time>2026-05-21T10:27:16.999Z</time>
      </trkpt>
      <trkpt lat="43.77629" lon="3.83356">
        <ele>437.2</ele>
        <time>2026-05-21T10:27:17.999Z</time>
      </trkpt>
      <trkpt lat="43.77629" lon="3.83356">
        <ele>437.2</ele>
        <time>2026-05-21T10:27:18.999Z</time>
      </trkpt>
      <trkpt lat="43.77629" lon="3.83356">
        <ele>437.2</ele>
        <time>2026-05-21T10:27:19.999Z</time>
      </trkpt>
      <trkpt lat="43.77629" lon="3.83356">
        <ele>437.1</ele>
        <time>2026-05-21T10:27:20.999Z</time>
      </trkpt>
      <trkpt lat="43.77629" lon="3.83356">
        <ele>437.1</ele>
        <time>2026-05-21T10:27:21.999Z</time>
      </trkpt>
      <trkpt lat="43.77629" lon="3.83356">
        <ele>437</ele>
        <time>2026-05-21T10:27:22.999Z</time>
      </trkpt>
      <trkpt lat="43.77629" lon="3.83356">
        <ele>437</ele>
        <time>2026-05-21T10:27:23.999Z</time>
      </trkpt>
      <trkpt lat="43.77629" lon="3.83356">
        <ele>437</ele>
        <time>2026-05-21T10:27:24.999Z</time>
      </trkpt>
      <trkpt lat="43.77629" lon="3.83356">
        <ele>436.9</ele>
        <time>2026-05-21T10:27:25.999Z</time>
      </trkpt>
      <trkpt lat="43.77629" lon="3.83357">
        <ele>436.9</ele>
        <time>2026-05-21T10:27:26.999Z</time>
      </trkpt>
      <trkpt lat="43.77629" lon="3.83357">
        <ele>436.9</ele>
        <time>2026-05-21T10:27:27.999Z</time>
      </trkpt>
      <trkpt lat="43.77629" lon="3.83357">
        <ele>436.9</ele>
        <time>2026-05-21T10:27:28.999Z</time>
      </trkpt>
      <trkpt lat="43.77629" lon="3.83357">
        <ele>436.8</ele>
        <time>2026-05-21T10:27:29.999Z</time>
      </trkpt>
      <trkpt lat="43.77629" lon="3.83357">
        <ele>436.9</ele>
        <time>2026-05-21T10:27:30.999Z</time>
      </trkpt>
      <trkpt lat="43.77629" lon="3.83357">
        <ele>436.9</ele>
        <time>2026-05-21T10:27:31.999Z</time>
      </trkpt>
      <trkpt lat="43.77629" lon="3.83357">
        <ele>437</ele>
        <time>2026-05-21T10:27:32.999Z</time>
      </trkpt>
      <trkpt lat="43.77629" lon="3.83357">
        <ele>437</ele>
        <time>2026-05-21T10:27:33.999Z</time>
      </trkpt>
      <trkpt lat="43.77629" lon="3.83357">
        <ele>437</ele>
        <time>2026-05-21T10:27:34.999Z</time>
      </trkpt>
      <trkpt lat="43.77629" lon="3.83357">
        <ele>436.9</ele>
        <time>2026-05-21T10:27:35.999Z</time>
      </trkpt>
      <trkpt lat="43.77629" lon="3.83357">
        <ele>437.1</ele>
        <time>2026-05-21T10:27:36.999Z</time>
      </trkpt>
      <trkpt lat="43.77629" lon="3.83357">
        <ele>437.2</ele>
        <time>2026-05-21T10:27:37.999Z</time>
      </trkpt>
      <trkpt lat="43.77629" lon="3.83357">
        <ele>437.3</ele>
        <time>2026-05-21T10:27:38.999Z</time>
      </trkpt>
      <trkpt lat="43.77629" lon="3.83356">
        <ele>437.3</ele>
        <time>2026-05-21T10:27:39.999Z</time>
      </trkpt>
      <trkpt lat="43.77629" lon="3.83356">
        <ele>437.5</ele>
        <time>2026-05-21T10:27:40.999Z</time>
      </trkpt>
      <trkpt lat="43.77629" lon="3.83356">
        <ele>437.4</ele>
        <time>2026-05-21T10:27:41.999Z</time>
      </trkpt>
      <trkpt lat="43.77629" lon="3.83356">
        <ele>437.5</ele>
        <time>2026-05-21T10:27:42.999Z</time>
      </trkpt>
      <trkpt lat="43.77629" lon="3.83356">
        <ele>437.5</ele>
        <time>2026-05-21T10:27:43.999Z</time>
      </trkpt>
      <trkpt lat="43.77629" lon="3.83356">
        <ele>437.6</ele>
        <time>2026-05-21T10:27:44.999Z</time>
      </trkpt>
      <trkpt lat="43.77629" lon="3.83356">
        <ele>437.7</ele>
        <time>2026-05-21T10:27:45.999Z</time>
      </trkpt>
      <trkpt lat="43.77629" lon="3.83356">
        <ele>437.9</ele>
        <time>2026-05-21T10:27:46.999Z</time>
      </trkpt>
      <trkpt lat="43.77629" lon="3.83356">
        <ele>438</ele>
        <time>2026-05-21T10:27:47.999Z</time>
      </trkpt>
      <trkpt lat="43.77629" lon="3.83356">
        <ele>438.3</ele>
        <time>2026-05-21T10:27:48.999Z</time>
      </trkpt>
      <trkpt lat="43.77629" lon="3.83356">
        <ele>438.3</ele>
        <time>2026-05-21T10:27:49.999Z</time>
      </trkpt>
      <trkpt lat="43.77629" lon="3.83356">
        <ele>438.4</ele>
        <time>2026-05-21T10:27:50.999Z</time>
      </trkpt>
      <trkpt lat="43.77629" lon="3.83356">
        <ele>438.6</ele>
        <time>2026-05-21T10:27:51.999Z</time>
      </trkpt>
      <trkpt lat="43.77629" lon="3.83356">
        <ele>438.7</ele>
        <time>2026-05-21T10:27:52.999Z</time>
      </trkpt>
      <trkpt lat="43.7763" lon="3.83355">
        <ele>438.9</ele>
        <time>2026-05-21T10:27:53.999Z</time>
      </trkpt>
      <trkpt lat="43.7763" lon="3.83355">
        <ele>439.3</ele>
        <time>2026-05-21T10:27:54.999Z</time>
      </trkpt>
      <trkpt lat="43.7763" lon="3.83354">
        <ele>439.3</ele>
        <time>2026-05-21T10:27:55.999Z</time>
      </trkpt>
      <trkpt lat="43.7763" lon="3.83354">
        <ele>439.3</ele>
        <time>2026-05-21T10:27:56.999Z</time>
      </trkpt>
      <trkpt lat="43.7763" lon="3.83354">
        <ele>439.4</ele>
        <time>2026-05-21T10:27:57.999Z</time>
      </trkpt>
      <trkpt lat="43.7763" lon="3.83354">
        <ele>439.6</ele>
        <time>2026-05-21T10:27:58.999Z</time>
      </trkpt>
      <trkpt lat="43.7763" lon="3.83354">
        <ele>439.8</ele>
        <time>2026-05-21T10:27:59.999Z</time>
      </trkpt>
      <trkpt lat="43.7763" lon="3.83354">
        <ele>439.9</ele>
        <time>2026-05-21T10:28:00.999Z</time>
      </trkpt>
      <trkpt lat="43.7763" lon="3.83354">
        <ele>440.1</ele>
        <time>2026-05-21T10:28:01.999Z</time>
      </trkpt>
      <trkpt lat="43.7763" lon="3.83354">
        <ele>440.2</ele>
        <time>2026-05-21T10:28:02.999Z</time>
      </trkpt>
      <trkpt lat="43.7763" lon="3.83354">
        <ele>440.3</ele>
        <time>2026-05-21T10:28:03.999Z</time>
      </trkpt>
      <trkpt lat="43.7763" lon="3.83354">
        <ele>440.3</ele>
        <time>2026-05-21T10:28:04.999Z</time>
      </trkpt>
      <trkpt lat="43.7763" lon="3.83354">
        <ele>440.4</ele>
        <time>2026-05-21T10:28:05.999Z</time>
      </trkpt>
      <trkpt lat="43.7763" lon="3.83354">
        <ele>440.5</ele>
        <time>2026-05-21T10:28:06.999Z</time>
      </trkpt>
      <trkpt lat="43.7763" lon="3.83354">
        <ele>440.6</ele>
        <time>2026-05-21T10:28:07.999Z</time>
      </trkpt>
      <trkpt lat="43.7763" lon="3.83354">
        <ele>440.7</ele>
        <time>2026-05-21T10:28:08.999Z</time>
      </trkpt>
      <trkpt lat="43.7763" lon="3.83354">
        <ele>440.8</ele>
        <time>2026-05-21T10:28:09.999Z</time>
      </trkpt>
      <trkpt lat="43.7763" lon="3.83353">
        <ele>440.8</ele>
        <time>2026-05-21T10:28:10.999Z</time>
      </trkpt>
      <trkpt lat="43.7763" lon="3.83353">
        <ele>440.6</ele>
        <time>2026-05-21T10:28:11.999Z</time>
      </trkpt>
      <trkpt lat="43.7763" lon="3.83353">
        <ele>440.5</ele>
        <time>2026-05-21T10:28:12.999Z</time>
      </trkpt>
      <trkpt lat="43.7763" lon="3.83353">
        <ele>440.6</ele>
        <time>2026-05-21T10:28:13.999Z</time>
      </trkpt>
      <trkpt lat="43.7763" lon="3.83353">
        <ele>440.8</ele>
        <time>2026-05-21T10:28:14.999Z</time>
      </trkpt>
      <trkpt lat="43.7763" lon="3.83353">
        <ele>441.1</ele>
        <time>2026-05-21T10:28:15.999Z</time>
      </trkpt>
      <trkpt lat="43.7763" lon="3.83353">
        <ele>441.2</ele>
        <time>2026-05-21T10:28:16.999Z</time>
      </trkpt>
      <trkpt lat="43.7763" lon="3.83353">
        <ele>441.2</ele>
        <time>2026-05-21T10:28:17.999Z</time>
      </trkpt>
      <trkpt lat="43.7763" lon="3.83353">
        <ele>441</ele>
        <time>2026-05-21T10:28:18.999Z</time>
      </trkpt>
      <trkpt lat="43.7763" lon="3.83353">
        <ele>440.6</ele>
        <time>2026-05-21T10:28:19.999Z</time>
      </trkpt>
      <trkpt lat="43.7763" lon="3.83353">
        <ele>440.5</ele>
        <time>2026-05-21T10:28:20.999Z</time>
      </trkpt>
      <trkpt lat="43.7763" lon="3.83353">
        <ele>440.4</ele>
        <time>2026-05-21T10:28:21.999Z</time>
      </trkpt>
      <trkpt lat="43.7763" lon="3.83353">
        <ele>440.5</ele>
        <time>2026-05-21T10:28:22.999Z</time>
      </trkpt>
      <trkpt lat="43.7763" lon="3.83353">
        <ele>440.5</ele>
        <time>2026-05-21T10:28:23.999Z</time>
      </trkpt>
      <trkpt lat="43.7763" lon="3.83353">
        <ele>440.5</ele>
        <time>2026-05-21T10:28:24.999Z</time>
      </trkpt>
      <trkpt lat="43.7763" lon="3.83353">
        <ele>440.6</ele>
        <time>2026-05-21T10:28:25.999Z</time>
      </trkpt>
      <trkpt lat="43.7763" lon="3.83353">
        <ele>440.8</ele>
        <time>2026-05-21T10:28:26.999Z</time>
      </trkpt>
      <trkpt lat="43.7763" lon="3.83353">
        <ele>440.9</ele>
        <time>2026-05-21T10:28:27.999Z</time>
      </trkpt>
      <trkpt lat="43.7763" lon="3.83353">
        <ele>440.9</ele>
        <time>2026-05-21T10:28:28.999Z</time>
      </trkpt>
      <trkpt lat="43.77631" lon="3.83353">
        <ele>440.9</ele>
        <time>2026-05-21T10:28:29.999Z</time>
      </trkpt>
      <trkpt lat="43.77631" lon="3.83353">
        <ele>441.1</ele>
        <time>2026-05-21T10:28:30.999Z</time>
      </trkpt>
      <trkpt lat="43.77631" lon="3.83353">
        <ele>441.1</ele>
        <time>2026-05-21T10:28:31.999Z</time>
      </trkpt>
      <trkpt lat="43.77631" lon="3.83353">
        <ele>440.8</ele>
        <time>2026-05-21T10:28:32.999Z</time>
      </trkpt>
      <trkpt lat="43.7763" lon="3.83352">
        <ele>441</ele>
        <time>2026-05-21T10:28:33.999Z</time>
      </trkpt>
      <trkpt lat="43.7763" lon="3.8335">
        <ele>441.2</ele>
        <time>2026-05-21T10:28:34.999Z</time>
      </trkpt>
      <trkpt lat="43.77631" lon="3.83349">
        <ele>441.7</ele>
        <time>2026-05-21T10:28:35.999Z</time>
      </trkpt>
      <trkpt lat="43.77631" lon="3.83348">
        <ele>441.1</ele>
        <time>2026-05-21T10:28:36.999Z</time>
      </trkpt>
      <trkpt lat="43.77631" lon="3.83348">
        <ele>441.2</ele>
        <time>2026-05-21T10:28:37.999Z</time>
      </trkpt>
      <trkpt lat="43.77631" lon="3.83348">
        <ele>441.1</ele>
        <time>2026-05-21T10:28:38.999Z</time>
      </trkpt>
      <trkpt lat="43.77631" lon="3.83349">
        <ele>441.1</ele>
        <time>2026-05-21T10:28:39.999Z</time>
      </trkpt>
      <trkpt lat="43.77631" lon="3.83349">
        <ele>441</ele>
        <time>2026-05-21T10:28:40.999Z</time>
      </trkpt>
      <trkpt lat="43.77631" lon="3.83349">
        <ele>440.9</ele>
        <time>2026-05-21T10:28:41.999Z</time>
      </trkpt>
      <trkpt lat="43.77631" lon="3.83349">
        <ele>440.6</ele>
        <time>2026-05-21T10:28:42.999Z</time>
      </trkpt>
      <trkpt lat="43.77631" lon="3.83349">
        <ele>440.4</ele>
        <time>2026-05-21T10:28:43.999Z</time>
      </trkpt>
      <trkpt lat="43.77631" lon="3.83349">
        <ele>440.4</ele>
        <time>2026-05-21T10:28:44.999Z</time>
      </trkpt>
      <trkpt lat="43.77631" lon="3.83349">
        <ele>440.4</ele>
        <time>2026-05-21T10:28:45.999Z</time>
      </trkpt>
      <trkpt lat="43.77631" lon="3.83349">
        <ele>440.4</ele>
        <time>2026-05-21T10:28:46.999Z</time>
      </trkpt>
      <trkpt lat="43.77631" lon="3.83349">
        <ele>440.4</ele>
        <time>2026-05-21T10:28:47.999Z</time>
      </trkpt>
      <trkpt lat="43.77631" lon="3.83349">
        <ele>440.3</ele>
        <time>2026-05-21T10:28:48.999Z</time>
      </trkpt>
      <trkpt lat="43.77631" lon="3.83349">
        <ele>440.4</ele>
        <time>2026-05-21T10:28:49.999Z</time>
      </trkpt>
      <trkpt lat="43.77631" lon="3.83348">
        <ele>440.5</ele>
        <time>2026-05-21T10:28:50.999Z</time>
      </trkpt>
      <trkpt lat="43.77631" lon="3.83348">
        <ele>440.6</ele>
        <time>2026-05-21T10:28:51.999Z</time>
      </trkpt>
      <trkpt lat="43.77631" lon="3.83348">
        <ele>440.7</ele>
        <time>2026-05-21T10:28:52.999Z</time>
      </trkpt>
      <trkpt lat="43.77632" lon="3.83348">
        <ele>440.8</ele>
        <time>2026-05-21T10:28:53.999Z</time>
      </trkpt>
      <trkpt lat="43.77632" lon="3.83348">
        <ele>440.9</ele>
        <time>2026-05-21T10:28:54.999Z</time>
      </trkpt>
      <trkpt lat="43.77632" lon="3.83347">
        <ele>440.7</ele>
        <time>2026-05-21T10:28:55.999Z</time>
      </trkpt>
      <trkpt lat="43.77632" lon="3.83346">
        <ele>440.6</ele>
        <time>2026-05-21T10:28:56.999Z</time>
      </trkpt>
      <trkpt lat="43.77632" lon="3.83345">
        <ele>440.5</ele>
        <time>2026-05-21T10:28:57.999Z</time>
      </trkpt>
      <trkpt lat="43.77632" lon="3.83345">
        <ele>440.4</ele>
        <time>2026-05-21T10:28:58.999Z</time>
      </trkpt>
      <trkpt lat="43.77632" lon="3.83345">
        <ele>440.3</ele>
        <time>2026-05-21T10:28:59.999Z</time>
      </trkpt>
      <trkpt lat="43.77632" lon="3.83345">
        <ele>440.3</ele>
        <time>2026-05-21T10:29:00.999Z</time>
      </trkpt>
      <trkpt lat="43.77632" lon="3.83345">
        <ele>440.2</ele>
        <time>2026-05-21T10:29:01.999Z</time>
      </trkpt>
      <trkpt lat="43.77632" lon="3.83345">
        <ele>440.4</ele>
        <time>2026-05-21T10:29:02.999Z</time>
      </trkpt>
      <trkpt lat="43.77632" lon="3.83345">
        <ele>440.4</ele>
        <time>2026-05-21T10:29:03.999Z</time>
      </trkpt>
      <trkpt lat="43.77632" lon="3.83345">
        <ele>440.3</ele>
        <time>2026-05-21T10:29:04.999Z</time>
      </trkpt>
      <trkpt lat="43.77632" lon="3.83345">
        <ele>440.3</ele>
        <time>2026-05-21T10:29:05.999Z</time>
      </trkpt>
      <trkpt lat="43.77632" lon="3.83345">
        <ele>440.3</ele>
        <time>2026-05-21T10:29:06.999Z</time>
      </trkpt>
      <trkpt lat="43.77632" lon="3.83345">
        <ele>440.2</ele>
        <time>2026-05-21T10:29:07.999Z</time>
      </trkpt>
      <trkpt lat="43.77632" lon="3.83345">
        <ele>440.2</ele>
        <time>2026-05-21T10:29:08.999Z</time>
      </trkpt>
      <trkpt lat="43.77632" lon="3.83345">
        <ele>440.1</ele>
        <time>2026-05-21T10:29:09.999Z</time>
      </trkpt>
      <trkpt lat="43.77632" lon="3.83345">
        <ele>440.1</ele>
        <time>2026-05-21T10:29:10.999Z</time>
      </trkpt>
      <trkpt lat="43.77632" lon="3.83345">
        <ele>439.9</ele>
        <time>2026-05-21T10:29:11.999Z</time>
      </trkpt>
      <trkpt lat="43.77632" lon="3.83344">
        <ele>439.8</ele>
        <time>2026-05-21T10:29:12.999Z</time>
      </trkpt>
      <trkpt lat="43.77633" lon="3.83344">
        <ele>439.8</ele>
        <time>2026-05-21T10:29:13.999Z</time>
      </trkpt>
      <trkpt lat="43.77633" lon="3.83344">
        <ele>439.7</ele>
        <time>2026-05-21T10:29:14.999Z</time>
      </trkpt>
      <trkpt lat="43.77633" lon="3.83344">
        <ele>439.7</ele>
        <time>2026-05-21T10:29:15.999Z</time>
      </trkpt>
      <trkpt lat="43.77633" lon="3.83345">
        <ele>439.7</ele>
        <time>2026-05-21T10:29:16.999Z</time>
      </trkpt>
      <trkpt lat="43.77633" lon="3.83345">
        <ele>439.8</ele>
        <time>2026-05-21T10:29:17.999Z</time>
      </trkpt>
      <trkpt lat="43.77633" lon="3.83345">
        <ele>439.7</ele>
        <time>2026-05-21T10:29:18.999Z</time>
      </trkpt>
      <trkpt lat="43.77633" lon="3.83345">
        <ele>439.7</ele>
        <time>2026-05-21T10:29:19.999Z</time>
      </trkpt>
      <trkpt lat="43.77633" lon="3.83344">
        <ele>439.7</ele>
        <time>2026-05-21T10:29:20.999Z</time>
      </trkpt>
      <trkpt lat="43.77633" lon="3.83344">
        <ele>439.7</ele>
        <time>2026-05-21T10:29:21.999Z</time>
      </trkpt>
      <trkpt lat="43.77633" lon="3.83344">
        <ele>439.6</ele>
        <time>2026-05-21T10:29:22.999Z</time>
      </trkpt>
      <trkpt lat="43.77633" lon="3.83344">
        <ele>439.4</ele>
        <time>2026-05-21T10:29:23.999Z</time>
      </trkpt>
      <trkpt lat="43.77633" lon="3.83345">
        <ele>439.4</ele>
        <time>2026-05-21T10:29:24.999Z</time>
      </trkpt>
      <trkpt lat="43.77633" lon="3.83345">
        <ele>439.4</ele>
        <time>2026-05-21T10:29:25.999Z</time>
      </trkpt>
      <trkpt lat="43.77633" lon="3.83345">
        <ele>439.6</ele>
        <time>2026-05-21T10:29:26.999Z</time>
      </trkpt>
      <trkpt lat="43.77633" lon="3.83345">
        <ele>439.7</ele>
        <time>2026-05-21T10:29:27.999Z</time>
      </trkpt>
      <trkpt lat="43.77633" lon="3.83345">
        <ele>439.7</ele>
        <time>2026-05-21T10:29:28.999Z</time>
      </trkpt>
      <trkpt lat="43.77633" lon="3.83345">
        <ele>439.9</ele>
        <time>2026-05-21T10:29:29.999Z</time>
      </trkpt>
      <trkpt lat="43.77633" lon="3.83345">
        <ele>439.9</ele>
        <time>2026-05-21T10:29:30.999Z</time>
      </trkpt>
      <trkpt lat="43.77633" lon="3.83345">
        <ele>439.8</ele>
        <time>2026-05-21T10:29:31.999Z</time>
      </trkpt>
      <trkpt lat="43.77633" lon="3.83345">
        <ele>439.7</ele>
        <time>2026-05-21T10:29:32.999Z</time>
      </trkpt>
      <trkpt lat="43.77633" lon="3.83344">
        <ele>439.6</ele>
        <time>2026-05-21T10:29:33.999Z</time>
      </trkpt>
      <trkpt lat="43.77633" lon="3.83344">
        <ele>439.8</ele>
        <time>2026-05-21T10:29:34.999Z</time>
      </trkpt>
      <trkpt lat="43.77633" lon="3.83344">
        <ele>439.9</ele>
        <time>2026-05-21T10:29:35.999Z</time>
      </trkpt>
      <trkpt lat="43.77633" lon="3.83344">
        <ele>440</ele>
        <time>2026-05-21T10:29:36.999Z</time>
      </trkpt>
      <trkpt lat="43.77633" lon="3.83344">
        <ele>440.1</ele>
        <time>2026-05-21T10:29:37.999Z</time>
      </trkpt>
      <trkpt lat="43.77633" lon="3.83344">
        <ele>440.2</ele>
        <time>2026-05-21T10:29:38.999Z</time>
      </trkpt>
      <trkpt lat="43.77633" lon="3.83344">
        <ele>440.4</ele>
        <time>2026-05-21T10:29:39.999Z</time>
      </trkpt>
      <trkpt lat="43.77633" lon="3.83344">
        <ele>440.2</ele>
        <time>2026-05-21T10:29:40.999Z</time>
      </trkpt>
      <trkpt lat="43.77633" lon="3.83343">
        <ele>440.2</ele>
        <time>2026-05-21T10:29:41.999Z</time>
      </trkpt>
      <trkpt lat="43.77633" lon="3.83343">
        <ele>440</ele>
        <time>2026-05-21T10:29:42.999Z</time>
      </trkpt>
      <trkpt lat="43.77633" lon="3.83343">
        <ele>440.2</ele>
        <time>2026-05-21T10:29:43.999Z</time>
      </trkpt>
      <trkpt lat="43.77633" lon="3.83343">
        <ele>440.2</ele>
        <time>2026-05-21T10:29:44.999Z</time>
      </trkpt>
      <trkpt lat="43.77633" lon="3.83342">
        <ele>440.2</ele>
        <time>2026-05-21T10:29:45.999Z</time>
      </trkpt>
      <trkpt lat="43.77633" lon="3.83342">
        <ele>440.1</ele>
        <time>2026-05-21T10:29:46.999Z</time>
      </trkpt>
      <trkpt lat="43.77634" lon="3.83342">
        <ele>440</ele>
        <time>2026-05-21T10:29:47.999Z</time>
      </trkpt>
      <trkpt lat="43.77634" lon="3.83341">
        <ele>440.1</ele>
        <time>2026-05-21T10:29:48.999Z</time>
      </trkpt>
      <trkpt lat="43.77634" lon="3.83341">
        <ele>440.2</ele>
        <time>2026-05-21T10:29:49.999Z</time>
      </trkpt>
      <trkpt lat="43.77634" lon="3.83341">
        <ele>440.1</ele>
        <time>2026-05-21T10:29:50.999Z</time>
      </trkpt>
      <trkpt lat="43.77634" lon="3.83341">
        <ele>440.5</ele>
        <time>2026-05-21T10:29:51.999Z</time>
      </trkpt>
      <trkpt lat="43.77634" lon="3.83341">
        <ele>440.5</ele>
        <time>2026-05-21T10:29:52.999Z</time>
      </trkpt>
      <trkpt lat="43.77634" lon="3.8334">
        <ele>440.7</ele>
        <time>2026-05-21T10:29:53.999Z</time>
      </trkpt>
      <trkpt lat="43.77634" lon="3.8334">
        <ele>440.7</ele>
        <time>2026-05-21T10:29:54.999Z</time>
      </trkpt>
      <trkpt lat="43.77634" lon="3.8334">
        <ele>440.7</ele>
        <time>2026-05-21T10:29:55.999Z</time>
      </trkpt>
      <trkpt lat="43.77634" lon="3.8334">
        <ele>440.7</ele>
        <time>2026-05-21T10:29:56.999Z</time>
      </trkpt>
      <trkpt lat="43.77634" lon="3.8334">
        <ele>440.9</ele>
        <time>2026-05-21T10:29:57.999Z</time>
      </trkpt>
      <trkpt lat="43.77634" lon="3.83339">
        <ele>440.9</ele>
        <time>2026-05-21T10:29:58.999Z</time>
      </trkpt>
      <trkpt lat="43.77634" lon="3.83339">
        <ele>441</ele>
        <time>2026-05-21T10:29:59.999Z</time>
      </trkpt>
      <trkpt lat="43.77634" lon="3.83339">
        <ele>441</ele>
        <time>2026-05-21T10:30:00.999Z</time>
      </trkpt>
      <trkpt lat="43.77634" lon="3.83339">
        <ele>441.1</ele>
        <time>2026-05-21T10:30:01.999Z</time>
      </trkpt>
      <trkpt lat="43.77635" lon="3.83338">
        <ele>441.6</ele>
        <time>2026-05-21T10:30:02.999Z</time>
      </trkpt>
      <trkpt lat="43.77635" lon="3.83338">
        <ele>442</ele>
        <time>2026-05-21T10:30:03.999Z</time>
      </trkpt>
      <trkpt lat="43.77635" lon="3.83338">
        <ele>442.2</ele>
        <time>2026-05-21T10:30:04.999Z</time>
      </trkpt>
      <trkpt lat="43.77635" lon="3.83338">
        <ele>442.2</ele>
        <time>2026-05-21T10:30:05.999Z</time>
      </trkpt>
      <trkpt lat="43.77635" lon="3.83338">
        <ele>442.1</ele>
        <time>2026-05-21T10:30:06.999Z</time>
      </trkpt>
      <trkpt lat="43.77635" lon="3.83338">
        <ele>442</ele>
        <time>2026-05-21T10:30:07.999Z</time>
      </trkpt>
      <trkpt lat="43.77635" lon="3.83338">
        <ele>442.1</ele>
        <time>2026-05-21T10:30:08.999Z</time>
      </trkpt>
      <trkpt lat="43.77635" lon="3.83338">
        <ele>442.2</ele>
        <time>2026-05-21T10:30:09.999Z</time>
      </trkpt>
      <trkpt lat="43.77635" lon="3.83338">
        <ele>442.2</ele>
        <time>2026-05-21T10:30:10.999Z</time>
      </trkpt>
      <trkpt lat="43.77635" lon="3.83338">
        <ele>442.3</ele>
        <time>2026-05-21T10:30:11.999Z</time>
      </trkpt>
      <trkpt lat="43.77635" lon="3.83337">
        <ele>442.3</ele>
        <time>2026-05-21T10:30:12.999Z</time>
      </trkpt>
      <trkpt lat="43.77635" lon="3.83337">
        <ele>442.4</ele>
        <time>2026-05-21T10:30:13.999Z</time>
      </trkpt>
      <trkpt lat="43.77635" lon="3.83337">
        <ele>442.4</ele>
        <time>2026-05-21T10:30:14.999Z</time>
      </trkpt>
      <trkpt lat="43.77635" lon="3.83337">
        <ele>442.4</ele>
        <time>2026-05-21T10:30:15.999Z</time>
      </trkpt>
      <trkpt lat="43.77635" lon="3.83337">
        <ele>442.4</ele>
        <time>2026-05-21T10:30:16.999Z</time>
      </trkpt>
      <trkpt lat="43.77635" lon="3.83337">
        <ele>442.6</ele>
        <time>2026-05-21T10:30:17.999Z</time>
      </trkpt>
      <trkpt lat="43.77635" lon="3.83337">
        <ele>442.6</ele>
        <time>2026-05-21T10:30:18.999Z</time>
      </trkpt>
      <trkpt lat="43.77635" lon="3.83337">
        <ele>442.4</ele>
        <time>2026-05-21T10:30:19.999Z</time>
      </trkpt>
      <trkpt lat="43.77635" lon="3.83337">
        <ele>442.3</ele>
        <time>2026-05-21T10:30:20.999Z</time>
      </trkpt>
      <trkpt lat="43.77636" lon="3.83337">
        <ele>442.5</ele>
        <time>2026-05-21T10:30:21.999Z</time>
      </trkpt>
      <trkpt lat="43.77636" lon="3.83337">
        <ele>442.5</ele>
        <time>2026-05-21T10:30:22.999Z</time>
      </trkpt>
      <trkpt lat="43.77636" lon="3.83336">
        <ele>442.6</ele>
        <time>2026-05-21T10:30:23.999Z</time>
      </trkpt>
      <trkpt lat="43.77636" lon="3.83336">
        <ele>442.6</ele>
        <time>2026-05-21T10:30:24.999Z</time>
      </trkpt>
      <trkpt lat="43.77636" lon="3.83336">
        <ele>442.6</ele>
        <time>2026-05-21T10:30:25.999Z</time>
      </trkpt>
      <trkpt lat="43.77636" lon="3.83336">
        <ele>442.5</ele>
        <time>2026-05-21T10:30:26.999Z</time>
      </trkpt>
      <trkpt lat="43.77636" lon="3.83336">
        <ele>442.4</ele>
        <time>2026-05-21T10:30:27.999Z</time>
      </trkpt>
      <trkpt lat="43.77636" lon="3.83336">
        <ele>442.3</ele>
        <time>2026-05-21T10:30:28.999Z</time>
      </trkpt>
      <trkpt lat="43.77636" lon="3.83335">
        <ele>442.5</ele>
        <time>2026-05-21T10:30:29.999Z</time>
      </trkpt>
      <trkpt lat="43.77636" lon="3.83335">
        <ele>442.6</ele>
        <time>2026-05-21T10:30:30.999Z</time>
      </trkpt>
      <trkpt lat="43.77636" lon="3.83335">
        <ele>442.9</ele>
        <time>2026-05-21T10:30:31.999Z</time>
      </trkpt>
      <trkpt lat="43.77636" lon="3.83335">
        <ele>443</ele>
        <time>2026-05-21T10:30:32.999Z</time>
      </trkpt>
      <trkpt lat="43.77636" lon="3.83335">
        <ele>443</ele>
        <time>2026-05-21T10:30:33.999Z</time>
      </trkpt>
      <trkpt lat="43.77636" lon="3.83335">
        <ele>443.1</ele>
        <time>2026-05-21T10:30:34.999Z</time>
      </trkpt>
      <trkpt lat="43.77636" lon="3.83334">
        <ele>443.2</ele>
        <time>2026-05-21T10:30:35.999Z</time>
      </trkpt>
      <trkpt lat="43.77637" lon="3.83334">
        <ele>443</ele>
        <time>2026-05-21T10:30:36.999Z</time>
      </trkpt>
      <trkpt lat="43.77637" lon="3.83334">
        <ele>443</ele>
        <time>2026-05-21T10:30:37.999Z</time>
      </trkpt>
      <trkpt lat="43.77637" lon="3.83334">
        <ele>443.1</ele>
        <time>2026-05-21T10:30:38.999Z</time>
      </trkpt>
      <trkpt lat="43.77637" lon="3.83333">
        <ele>443.1</ele>
        <time>2026-05-21T10:30:39.999Z</time>
      </trkpt>
      <trkpt lat="43.77637" lon="3.83333">
        <ele>443.2</ele>
        <time>2026-05-21T10:30:40.999Z</time>
      </trkpt>
      <trkpt lat="43.77637" lon="3.83333">
        <ele>443.5</ele>
        <time>2026-05-21T10:30:41.999Z</time>
      </trkpt>
      <trkpt lat="43.77637" lon="3.83333">
        <ele>443.8</ele>
        <time>2026-05-21T10:30:42.999Z</time>
      </trkpt>
      <trkpt lat="43.77637" lon="3.83332">
        <ele>444</ele>
        <time>2026-05-21T10:30:43.999Z</time>
      </trkpt>
      <trkpt lat="43.77637" lon="3.83332">
        <ele>444.2</ele>
        <time>2026-05-21T10:30:44.999Z</time>
      </trkpt>
      <trkpt lat="43.77637" lon="3.83332">
        <ele>444.1</ele>
        <time>2026-05-21T10:30:45.999Z</time>
      </trkpt>
      <trkpt lat="43.77637" lon="3.83332">
        <ele>444.1</ele>
        <time>2026-05-21T10:30:46.999Z</time>
      </trkpt>
      <trkpt lat="43.77637" lon="3.83332">
        <ele>444.2</ele>
        <time>2026-05-21T10:30:47.999Z</time>
      </trkpt>
      <trkpt lat="43.77637" lon="3.83332">
        <ele>444.3</ele>
        <time>2026-05-21T10:30:48.999Z</time>
      </trkpt>
      <trkpt lat="43.77637" lon="3.83332">
        <ele>444.2</ele>
        <time>2026-05-21T10:30:49.999Z</time>
      </trkpt>
      <trkpt lat="43.77637" lon="3.83332">
        <ele>444.2</ele>
        <time>2026-05-21T10:30:50.999Z</time>
      </trkpt>
      <trkpt lat="43.77637" lon="3.83331">
        <ele>444.4</ele>
        <time>2026-05-21T10:30:51.999Z</time>
      </trkpt>
      <trkpt lat="43.77637" lon="3.83331">
        <ele>444.6</ele>
        <time>2026-05-21T10:30:52.999Z</time>
      </trkpt>
      <trkpt lat="43.77637" lon="3.83331">
        <ele>444.8</ele>
        <time>2026-05-21T10:30:53.999Z</time>
      </trkpt>
      <trkpt lat="43.77637" lon="3.8333">
        <ele>444.9</ele>
        <time>2026-05-21T10:30:54.999Z</time>
      </trkpt>
      <trkpt lat="43.77637" lon="3.8333">
        <ele>445.1</ele>
        <time>2026-05-21T10:30:55.999Z</time>
      </trkpt>
      <trkpt lat="43.77637" lon="3.8333">
        <ele>445.2</ele>
        <time>2026-05-21T10:30:56.999Z</time>
      </trkpt>
      <trkpt lat="43.77637" lon="3.8333">
        <ele>445.3</ele>
        <time>2026-05-21T10:30:57.999Z</time>
      </trkpt>
      <trkpt lat="43.77637" lon="3.83329">
        <ele>445.6</ele>
        <time>2026-05-21T10:30:58.999Z</time>
      </trkpt>
      <trkpt lat="43.77637" lon="3.83329">
        <ele>445.7</ele>
        <time>2026-05-21T10:30:59.999Z</time>
      </trkpt>
      <trkpt lat="43.77637" lon="3.83329">
        <ele>445.9</ele>
        <time>2026-05-21T10:31:00.999Z</time>
      </trkpt>
      <trkpt lat="43.77637" lon="3.83329">
        <ele>445.9</ele>
        <time>2026-05-21T10:31:01.999Z</time>
      </trkpt>
      <trkpt lat="43.77637" lon="3.83329">
        <ele>446.1</ele>
        <time>2026-05-21T10:31:02.999Z</time>
      </trkpt>
      <trkpt lat="43.77637" lon="3.83328">
        <ele>446.3</ele>
        <time>2026-05-21T10:31:03.999Z</time>
      </trkpt>
      <trkpt lat="43.77637" lon="3.83328">
        <ele>446.4</ele>
        <time>2026-05-21T10:31:04.999Z</time>
      </trkpt>
      <trkpt lat="43.77637" lon="3.83328">
        <ele>446.5</ele>
        <time>2026-05-21T10:31:05.999Z</time>
      </trkpt>
      <trkpt lat="43.77638" lon="3.83328">
        <ele>446.6</ele>
        <time>2026-05-21T10:31:06.999Z</time>
      </trkpt>
      <trkpt lat="43.77638" lon="3.83327">
        <ele>446.7</ele>
        <time>2026-05-21T10:31:07.999Z</time>
      </trkpt>
      <trkpt lat="43.77638" lon="3.83327">
        <ele>446.9</ele>
        <time>2026-05-21T10:31:08.999Z</time>
      </trkpt>
      <trkpt lat="43.77638" lon="3.83327">
        <ele>446.8</ele>
        <time>2026-05-21T10:31:09.999Z</time>
      </trkpt>
      <trkpt lat="43.77638" lon="3.83327">
        <ele>447</ele>
        <time>2026-05-21T10:31:10.999Z</time>
      </trkpt>
      <trkpt lat="43.77638" lon="3.83327">
        <ele>447.2</ele>
        <time>2026-05-21T10:31:11.999Z</time>
      </trkpt>
      <trkpt lat="43.77638" lon="3.83326">
        <ele>447.3</ele>
        <time>2026-05-21T10:31:12.999Z</time>
      </trkpt>
      <trkpt lat="43.77638" lon="3.83326">
        <ele>447.4</ele>
        <time>2026-05-21T10:31:13.999Z</time>
      </trkpt>
      <trkpt lat="43.77638" lon="3.83326">
        <ele>447.4</ele>
        <time>2026-05-21T10:31:14.999Z</time>
      </trkpt>
      <trkpt lat="43.77638" lon="3.83324">
        <ele>447.4</ele>
        <time>2026-05-21T10:31:15.999Z</time>
      </trkpt>
      <trkpt lat="43.77639" lon="3.83324">
        <ele>447.4</ele>
        <time>2026-05-21T10:31:16.999Z</time>
      </trkpt>
      <trkpt lat="43.77639" lon="3.83322">
        <ele>447.4</ele>
        <time>2026-05-21T10:31:17.999Z</time>
      </trkpt>
      <trkpt lat="43.77639" lon="3.83322">
        <ele>447.4</ele>
        <time>2026-05-21T10:31:18.999Z</time>
      </trkpt>
      <trkpt lat="43.77639" lon="3.83322">
        <ele>447.4</ele>
        <time>2026-05-21T10:31:19.999Z</time>
      </trkpt>
      <trkpt lat="43.77639" lon="3.83322">
        <ele>447.4</ele>
        <time>2026-05-21T10:31:20.999Z</time>
      </trkpt>
      <trkpt lat="43.77639" lon="3.83322">
        <ele>447.4</ele>
        <time>2026-05-21T10:31:21.999Z</time>
      </trkpt>
      <trkpt lat="43.77639" lon="3.83322">
        <ele>447.7</ele>
        <time>2026-05-21T10:31:22.999Z</time>
      </trkpt>
      <trkpt lat="43.77639" lon="3.83322">
        <ele>447.8</ele>
        <time>2026-05-21T10:31:23.999Z</time>
      </trkpt>
      <trkpt lat="43.7764" lon="3.83322">
        <ele>447.9</ele>
        <time>2026-05-21T10:31:24.999Z</time>
      </trkpt>
      <trkpt lat="43.7764" lon="3.83322">
        <ele>447.9</ele>
        <time>2026-05-21T10:31:25.999Z</time>
      </trkpt>
      <trkpt lat="43.7764" lon="3.83322">
        <ele>448.1</ele>
        <time>2026-05-21T10:31:26.999Z</time>
      </trkpt>
      <trkpt lat="43.7764" lon="3.83322">
        <ele>448.1</ele>
        <time>2026-05-21T10:31:27.999Z</time>
      </trkpt>
      <trkpt lat="43.7764" lon="3.83322">
        <ele>448.1</ele>
        <time>2026-05-21T10:31:28.999Z</time>
      </trkpt>
      <trkpt lat="43.7764" lon="3.83322">
        <ele>448.1</ele>
        <time>2026-05-21T10:31:29.999Z</time>
      </trkpt>
      <trkpt lat="43.7764" lon="3.83322">
        <ele>448.3</ele>
        <time>2026-05-21T10:31:30.999Z</time>
      </trkpt>
      <trkpt lat="43.7764" lon="3.83322">
        <ele>448.4</ele>
        <time>2026-05-21T10:31:31.999Z</time>
      </trkpt>
      <trkpt lat="43.7764" lon="3.83321">
        <ele>448.9</ele>
        <time>2026-05-21T10:31:32.999Z</time>
      </trkpt>
      <trkpt lat="43.7764" lon="3.83321">
        <ele>449.1</ele>
        <time>2026-05-21T10:31:33.999Z</time>
      </trkpt>
      <trkpt lat="43.7764" lon="3.83321">
        <ele>449.5</ele>
        <time>2026-05-21T10:31:34.999Z</time>
      </trkpt>
      <trkpt lat="43.7764" lon="3.83321">
        <ele>449.7</ele>
        <time>2026-05-21T10:31:35.999Z</time>
      </trkpt>
      <trkpt lat="43.7764" lon="3.83321">
        <ele>449.8</ele>
        <time>2026-05-21T10:31:36.999Z</time>
      </trkpt>
      <trkpt lat="43.7764" lon="3.83321">
        <ele>450</ele>
        <time>2026-05-21T10:31:37.999Z</time>
      </trkpt>
      <trkpt lat="43.7764" lon="3.83321">
        <ele>450.1</ele>
        <time>2026-05-21T10:31:38.999Z</time>
      </trkpt>
      <trkpt lat="43.7764" lon="3.83321">
        <ele>450.2</ele>
        <time>2026-05-21T10:31:39.999Z</time>
      </trkpt>
      <trkpt lat="43.7764" lon="3.83321">
        <ele>450.3</ele>
        <time>2026-05-21T10:31:40.999Z</time>
      </trkpt>
      <trkpt lat="43.7764" lon="3.83321">
        <ele>450.4</ele>
        <time>2026-05-21T10:31:41.999Z</time>
      </trkpt>
      <trkpt lat="43.7764" lon="3.83321">
        <ele>450.5</ele>
        <time>2026-05-21T10:31:42.999Z</time>
      </trkpt>
      <trkpt lat="43.7764" lon="3.83321">
        <ele>450.6</ele>
        <time>2026-05-21T10:31:43.999Z</time>
      </trkpt>
      <trkpt lat="43.77641" lon="3.83321">
        <ele>450.9</ele>
        <time>2026-05-21T10:31:44.999Z</time>
      </trkpt>
      <trkpt lat="43.77641" lon="3.8332">
        <ele>451.1</ele>
        <time>2026-05-21T10:31:45.999Z</time>
      </trkpt>
      <trkpt lat="43.77641" lon="3.8332">
        <ele>451.4</ele>
        <time>2026-05-21T10:31:46.999Z</time>
      </trkpt>
      <trkpt lat="43.77641" lon="3.8332">
        <ele>451.4</ele>
        <time>2026-05-21T10:31:47.999Z</time>
      </trkpt>
      <trkpt lat="43.77641" lon="3.8332">
        <ele>451.4</ele>
        <time>2026-05-21T10:31:48.999Z</time>
      </trkpt>
      <trkpt lat="43.77641" lon="3.8332">
        <ele>451.3</ele>
        <time>2026-05-21T10:31:49.999Z</time>
      </trkpt>
      <trkpt lat="43.77641" lon="3.8332">
        <ele>451.3</ele>
        <time>2026-05-21T10:31:50.999Z</time>
      </trkpt>
      <trkpt lat="43.77641" lon="3.8332">
        <ele>451.3</ele>
        <time>2026-05-21T10:31:51.999Z</time>
      </trkpt>
      <trkpt lat="43.77641" lon="3.8332">
        <ele>451.2</ele>
        <time>2026-05-21T10:31:52.999Z</time>
      </trkpt>
      <trkpt lat="43.77641" lon="3.8332">
        <ele>451.1</ele>
        <time>2026-05-21T10:31:53.999Z</time>
      </trkpt>
      <trkpt lat="43.77641" lon="3.8332">
        <ele>451</ele>
        <time>2026-05-21T10:31:54.999Z</time>
      </trkpt>
      <trkpt lat="43.77641" lon="3.8332">
        <ele>450.8</ele>
        <time>2026-05-21T10:31:55.999Z</time>
      </trkpt>
      <trkpt lat="43.77641" lon="3.8332">
        <ele>450.6</ele>
        <time>2026-05-21T10:31:56.999Z</time>
      </trkpt>
      <trkpt lat="43.77641" lon="3.8332">
        <ele>450.5</ele>
        <time>2026-05-21T10:31:57.999Z</time>
      </trkpt>
      <trkpt lat="43.77641" lon="3.8332">
        <ele>450.4</ele>
        <time>2026-05-21T10:31:58.999Z</time>
      </trkpt>
      <trkpt lat="43.77641" lon="3.8332">
        <ele>450.4</ele>
        <time>2026-05-21T10:31:59.999Z</time>
      </trkpt>
      <trkpt lat="43.77641" lon="3.8332">
        <ele>450.5</ele>
        <time>2026-05-21T10:32:00.999Z</time>
      </trkpt>
      <trkpt lat="43.77641" lon="3.8332">
        <ele>450.7</ele>
        <time>2026-05-21T10:32:01.999Z</time>
      </trkpt>
      <trkpt lat="43.77641" lon="3.8332">
        <ele>450.8</ele>
        <time>2026-05-21T10:32:02.999Z</time>
      </trkpt>
      <trkpt lat="43.77641" lon="3.8332">
        <ele>451</ele>
        <time>2026-05-21T10:32:03.999Z</time>
      </trkpt>
      <trkpt lat="43.77641" lon="3.8332">
        <ele>451.1</ele>
        <time>2026-05-21T10:32:04.999Z</time>
      </trkpt>
      <trkpt lat="43.77641" lon="3.8332">
        <ele>451.1</ele>
        <time>2026-05-21T10:32:05.999Z</time>
      </trkpt>
      <trkpt lat="43.77641" lon="3.8332">
        <ele>451</ele>
        <time>2026-05-21T10:32:06.999Z</time>
      </trkpt>
      <trkpt lat="43.77641" lon="3.8332">
        <ele>451</ele>
        <time>2026-05-21T10:32:07.999Z</time>
      </trkpt>
      <trkpt lat="43.77641" lon="3.8332">
        <ele>451</ele>
        <time>2026-05-21T10:32:08.999Z</time>
      </trkpt>
      <trkpt lat="43.77641" lon="3.8332">
        <ele>451</ele>
        <time>2026-05-21T10:32:09.999Z</time>
      </trkpt>
      <trkpt lat="43.77642" lon="3.8332">
        <ele>451.1</ele>
        <time>2026-05-21T10:32:10.999Z</time>
      </trkpt>
      <trkpt lat="43.77642" lon="3.8332">
        <ele>451.1</ele>
        <time>2026-05-21T10:32:11.999Z</time>
      </trkpt>
      <trkpt lat="43.77642" lon="3.8332">
        <ele>451.2</ele>
        <time>2026-05-21T10:32:12.999Z</time>
      </trkpt>
      <trkpt lat="43.77642" lon="3.8332">
        <ele>451.2</ele>
        <time>2026-05-21T10:32:13.999Z</time>
      </trkpt>
      <trkpt lat="43.77642" lon="3.8332">
        <ele>451.2</ele>
        <time>2026-05-21T10:32:14.999Z</time>
      </trkpt>
      <trkpt lat="43.77642" lon="3.8332">
        <ele>451.1</ele>
        <time>2026-05-21T10:32:15.999Z</time>
      </trkpt>
      <trkpt lat="43.77642" lon="3.8332">
        <ele>451</ele>
        <time>2026-05-21T10:32:16.999Z</time>
      </trkpt>
      <trkpt lat="43.77642" lon="3.8332">
        <ele>450.9</ele>
        <time>2026-05-21T10:32:17.999Z</time>
      </trkpt>
      <trkpt lat="43.77642" lon="3.8332">
        <ele>450.8</ele>
        <time>2026-05-21T10:32:18.999Z</time>
      </trkpt>
      <trkpt lat="43.77642" lon="3.8332">
        <ele>450.7</ele>
        <time>2026-05-21T10:32:19.999Z</time>
      </trkpt>
      <trkpt lat="43.77642" lon="3.8332">
        <ele>450.5</ele>
        <time>2026-05-21T10:32:20.999Z</time>
      </trkpt>
      <trkpt lat="43.77642" lon="3.8332">
        <ele>450.3</ele>
        <time>2026-05-21T10:32:21.999Z</time>
      </trkpt>
      <trkpt lat="43.77642" lon="3.8332">
        <ele>450.2</ele>
        <time>2026-05-21T10:32:22.999Z</time>
      </trkpt>
      <trkpt lat="43.77642" lon="3.8332">
        <ele>450.1</ele>
        <time>2026-05-21T10:32:23.999Z</time>
      </trkpt>
      <trkpt lat="43.77642" lon="3.8332">
        <ele>449.9</ele>
        <time>2026-05-21T10:32:24.999Z</time>
      </trkpt>
      <trkpt lat="43.77642" lon="3.8332">
        <ele>449.8</ele>
        <time>2026-05-21T10:32:25.999Z</time>
      </trkpt>
      <trkpt lat="43.77642" lon="3.8332">
        <ele>449.7</ele>
        <time>2026-05-21T10:32:26.999Z</time>
      </trkpt>
      <trkpt lat="43.77642" lon="3.8332">
        <ele>449.5</ele>
        <time>2026-05-21T10:32:27.999Z</time>
      </trkpt>
      <trkpt lat="43.77642" lon="3.8332">
        <ele>449.5</ele>
        <time>2026-05-21T10:32:28.999Z</time>
      </trkpt>
      <trkpt lat="43.77642" lon="3.8332">
        <ele>449.4</ele>
        <time>2026-05-21T10:32:29.999Z</time>
      </trkpt>
      <trkpt lat="43.77642" lon="3.8332">
        <ele>449.4</ele>
        <time>2026-05-21T10:32:30.999Z</time>
      </trkpt>
      <trkpt lat="43.77642" lon="3.83319">
        <ele>449.5</ele>
        <time>2026-05-21T10:32:31.999Z</time>
      </trkpt>
      <trkpt lat="43.77642" lon="3.83319">
        <ele>449.5</ele>
        <time>2026-05-21T10:32:32.999Z</time>
      </trkpt>
      <trkpt lat="43.77642" lon="3.83319">
        <ele>449.4</ele>
        <time>2026-05-21T10:32:33.999Z</time>
      </trkpt>
      <trkpt lat="43.77642" lon="3.83319">
        <ele>449.4</ele>
        <time>2026-05-21T10:32:34.999Z</time>
      </trkpt>
      <trkpt lat="43.77642" lon="3.83319">
        <ele>449.3</ele>
        <time>2026-05-21T10:32:35.999Z</time>
      </trkpt>
      <trkpt lat="43.77642" lon="3.83319">
        <ele>449.3</ele>
        <time>2026-05-21T10:32:36.999Z</time>
      </trkpt>
      <trkpt lat="43.77642" lon="3.83319">
        <ele>449.1</ele>
        <time>2026-05-21T10:32:37.999Z</time>
      </trkpt>
      <trkpt lat="43.77642" lon="3.83319">
        <ele>449.1</ele>
        <time>2026-05-21T10:32:38.999Z</time>
      </trkpt>
      <trkpt lat="43.77642" lon="3.83319">
        <ele>449.2</ele>
        <time>2026-05-21T10:32:39.999Z</time>
      </trkpt>
      <trkpt lat="43.77642" lon="3.83319">
        <ele>449.2</ele>
        <time>2026-05-21T10:32:40.999Z</time>
      </trkpt>
      <trkpt lat="43.77642" lon="3.83319">
        <ele>449.5</ele>
        <time>2026-05-21T10:32:41.999Z</time>
      </trkpt>
      <trkpt lat="43.77642" lon="3.83319">
        <ele>449.6</ele>
        <time>2026-05-21T10:32:42.999Z</time>
      </trkpt>
      <trkpt lat="43.77642" lon="3.83319">
        <ele>449.6</ele>
        <time>2026-05-21T10:32:43.999Z</time>
      </trkpt>
      <trkpt lat="43.77642" lon="3.83319">
        <ele>449.7</ele>
        <time>2026-05-21T10:32:44.999Z</time>
      </trkpt>
      <trkpt lat="43.77642" lon="3.83319">
        <ele>449.9</ele>
        <time>2026-05-21T10:32:45.999Z</time>
      </trkpt>
      <trkpt lat="43.77641" lon="3.83319">
        <ele>450</ele>
        <time>2026-05-21T10:32:46.999Z</time>
      </trkpt>
      <trkpt lat="43.77641" lon="3.83318">
        <ele>449.9</ele>
        <time>2026-05-21T10:32:47.999Z</time>
      </trkpt>
      <trkpt lat="43.77641" lon="3.83318">
        <ele>450.1</ele>
        <time>2026-05-21T10:32:48.999Z</time>
      </trkpt>
      <trkpt lat="43.77641" lon="3.83318">
        <ele>450.1</ele>
        <time>2026-05-21T10:32:49.999Z</time>
      </trkpt>
      <trkpt lat="43.77641" lon="3.83318">
        <ele>450.2</ele>
        <time>2026-05-21T10:32:50.999Z</time>
      </trkpt>
      <trkpt lat="43.77641" lon="3.83318">
        <ele>450.2</ele>
        <time>2026-05-21T10:32:51.999Z</time>
      </trkpt>
      <trkpt lat="43.77641" lon="3.83318">
        <ele>450.3</ele>
        <time>2026-05-21T10:32:52.999Z</time>
      </trkpt>
      <trkpt lat="43.77641" lon="3.83318">
        <ele>450.4</ele>
        <time>2026-05-21T10:32:53.999Z</time>
      </trkpt>
      <trkpt lat="43.77641" lon="3.83318">
        <ele>450.4</ele>
        <time>2026-05-21T10:32:54.999Z</time>
      </trkpt>
      <trkpt lat="43.77641" lon="3.83318">
        <ele>450.6</ele>
        <time>2026-05-21T10:32:55.999Z</time>
      </trkpt>
      <trkpt lat="43.77641" lon="3.83318">
        <ele>450.7</ele>
        <time>2026-05-21T10:32:56.999Z</time>
      </trkpt>
      <trkpt lat="43.77641" lon="3.83318">
        <ele>450.8</ele>
        <time>2026-05-21T10:32:57.999Z</time>
      </trkpt>
      <trkpt lat="43.77641" lon="3.83318">
        <ele>450.9</ele>
        <time>2026-05-21T10:32:58.999Z</time>
      </trkpt>
      <trkpt lat="43.77641" lon="3.83318">
        <ele>450.8</ele>
        <time>2026-05-21T10:32:59.999Z</time>
      </trkpt>
      <trkpt lat="43.77641" lon="3.83318">
        <ele>450.7</ele>
        <time>2026-05-21T10:33:00.999Z</time>
      </trkpt>
      <trkpt lat="43.77641" lon="3.83318">
        <ele>450.2</ele>
        <time>2026-05-21T10:33:01.999Z</time>
      </trkpt>
      <trkpt lat="43.77641" lon="3.83318">
        <ele>449.9</ele>
        <time>2026-05-21T10:33:02.999Z</time>
      </trkpt>
      <trkpt lat="43.77641" lon="3.83318">
        <ele>449.7</ele>
        <time>2026-05-21T10:33:03.999Z</time>
      </trkpt>
      <trkpt lat="43.77641" lon="3.83318">
        <ele>449.8</ele>
        <time>2026-05-21T10:33:04.999Z</time>
      </trkpt>
      <trkpt lat="43.77641" lon="3.83318">
        <ele>449.9</ele>
        <time>2026-05-21T10:33:05.999Z</time>
      </trkpt>
      <trkpt lat="43.77641" lon="3.83318">
        <ele>450</ele>
        <time>2026-05-21T10:33:06.999Z</time>
      </trkpt>
      <trkpt lat="43.77641" lon="3.83318">
        <ele>450</ele>
        <time>2026-05-21T10:33:07.999Z</time>
      </trkpt>
      <trkpt lat="43.77641" lon="3.83318">
        <ele>450</ele>
        <time>2026-05-21T10:33:08.999Z</time>
      </trkpt>
      <trkpt lat="43.77641" lon="3.83318">
        <ele>450.1</ele>
        <time>2026-05-21T10:33:09.999Z</time>
      </trkpt>
      <trkpt lat="43.77641" lon="3.83318">
        <ele>450</ele>
        <time>2026-05-21T10:33:10.999Z</time>
      </trkpt>
      <trkpt lat="43.77641" lon="3.83318">
        <ele>449.9</ele>
        <time>2026-05-21T10:33:11.999Z</time>
      </trkpt>
      <trkpt lat="43.77641" lon="3.83317">
        <ele>449.8</ele>
        <time>2026-05-21T10:33:12.999Z</time>
      </trkpt>
      <trkpt lat="43.77641" lon="3.83317">
        <ele>449.7</ele>
        <time>2026-05-21T10:33:13.999Z</time>
      </trkpt>
      <trkpt lat="43.77641" lon="3.83317">
        <ele>449.6</ele>
        <time>2026-05-21T10:33:14.999Z</time>
      </trkpt>
      <trkpt lat="43.77641" lon="3.83317">
        <ele>449.5</ele>
        <time>2026-05-21T10:33:15.999Z</time>
      </trkpt>
      <trkpt lat="43.77641" lon="3.83317">
        <ele>449.5</ele>
        <time>2026-05-21T10:33:16.999Z</time>
      </trkpt>
      <trkpt lat="43.77642" lon="3.83317">
        <ele>449.4</ele>
        <time>2026-05-21T10:33:17.999Z</time>
      </trkpt>
      <trkpt lat="43.77642" lon="3.83316">
        <ele>449.3</ele>
        <time>2026-05-21T10:33:18.999Z</time>
      </trkpt>
      <trkpt lat="43.77642" lon="3.83316">
        <ele>449.4</ele>
        <time>2026-05-21T10:33:19.999Z</time>
      </trkpt>
      <trkpt lat="43.77642" lon="3.83316">
        <ele>449.6</ele>
        <time>2026-05-21T10:33:20.999Z</time>
      </trkpt>
      <trkpt lat="43.77642" lon="3.83316">
        <ele>449.6</ele>
        <time>2026-05-21T10:33:21.999Z</time>
      </trkpt>
      <trkpt lat="43.77642" lon="3.83316">
        <ele>449.6</ele>
        <time>2026-05-21T10:33:22.999Z</time>
      </trkpt>
      <trkpt lat="43.77642" lon="3.83316">
        <ele>449.8</ele>
        <time>2026-05-21T10:33:23.999Z</time>
      </trkpt>
      <trkpt lat="43.77642" lon="3.83316">
        <ele>450</ele>
        <time>2026-05-21T10:33:24.999Z</time>
      </trkpt>
      <trkpt lat="43.77642" lon="3.83316">
        <ele>450</ele>
        <time>2026-05-21T10:33:25.999Z</time>
      </trkpt>
      <trkpt lat="43.77642" lon="3.83316">
        <ele>450</ele>
        <time>2026-05-21T10:33:26.999Z</time>
      </trkpt>
      <trkpt lat="43.77642" lon="3.83316">
        <ele>449.9</ele>
        <time>2026-05-21T10:33:27.999Z</time>
      </trkpt>
      <trkpt lat="43.77642" lon="3.83316">
        <ele>450</ele>
        <time>2026-05-21T10:33:28.999Z</time>
      </trkpt>
      <trkpt lat="43.77642" lon="3.83315">
        <ele>450.1</ele>
        <time>2026-05-21T10:33:29.999Z</time>
      </trkpt>
      <trkpt lat="43.77642" lon="3.83315">
        <ele>450.2</ele>
        <time>2026-05-21T10:33:30.999Z</time>
      </trkpt>
      <trkpt lat="43.77642" lon="3.83315">
        <ele>450.2</ele>
        <time>2026-05-21T10:33:31.999Z</time>
      </trkpt>
      <trkpt lat="43.77642" lon="3.83315">
        <ele>450.2</ele>
        <time>2026-05-21T10:33:32.999Z</time>
      </trkpt>
      <trkpt lat="43.77642" lon="3.83315">
        <ele>450.2</ele>
        <time>2026-05-21T10:33:33.999Z</time>
      </trkpt>
      <trkpt lat="43.77642" lon="3.83315">
        <ele>450.2</ele>
        <time>2026-05-21T10:33:34.999Z</time>
      </trkpt>
      <trkpt lat="43.77642" lon="3.83315">
        <ele>450.2</ele>
        <time>2026-05-21T10:33:35.999Z</time>
      </trkpt>
      <trkpt lat="43.77642" lon="3.83315">
        <ele>450.3</ele>
        <time>2026-05-21T10:33:36.999Z</time>
      </trkpt>
      <trkpt lat="43.77642" lon="3.83315">
        <ele>450.4</ele>
        <time>2026-05-21T10:33:37.999Z</time>
      </trkpt>
      <trkpt lat="43.77642" lon="3.83314">
        <ele>450.5</ele>
        <time>2026-05-21T10:33:38.999Z</time>
      </trkpt>
      <trkpt lat="43.77642" lon="3.83314">
        <ele>450.4</ele>
        <time>2026-05-21T10:33:39.999Z</time>
      </trkpt>
      <trkpt lat="43.77642" lon="3.83313">
        <ele>450.3</ele>
        <time>2026-05-21T10:33:40.999Z</time>
      </trkpt>
      <trkpt lat="43.77642" lon="3.83313">
        <ele>450.3</ele>
        <time>2026-05-21T10:33:41.999Z</time>
      </trkpt>
      <trkpt lat="43.77641" lon="3.83313">
        <ele>450.4</ele>
        <time>2026-05-21T10:33:42.999Z</time>
      </trkpt>
      <trkpt lat="43.77641" lon="3.83313">
        <ele>450.4</ele>
        <time>2026-05-21T10:33:43.999Z</time>
      </trkpt>
      <trkpt lat="43.7764" lon="3.83313">
        <ele>450.3</ele>
        <time>2026-05-21T10:33:44.999Z</time>
      </trkpt>
      <trkpt lat="43.7764" lon="3.83313">
        <ele>450.2</ele>
        <time>2026-05-21T10:33:45.999Z</time>
      </trkpt>
      <trkpt lat="43.7764" lon="3.83313">
        <ele>450.4</ele>
        <time>2026-05-21T10:33:46.999Z</time>
      </trkpt>
      <trkpt lat="43.7764" lon="3.83312">
        <ele>450.5</ele>
        <time>2026-05-21T10:33:47.999Z</time>
      </trkpt>
      <trkpt lat="43.7764" lon="3.83312">
        <ele>450.4</ele>
        <time>2026-05-21T10:33:48.999Z</time>
      </trkpt>
      <trkpt lat="43.7764" lon="3.83311">
        <ele>450.2</ele>
        <time>2026-05-21T10:33:49.999Z</time>
      </trkpt>
      <trkpt lat="43.7764" lon="3.8331">
        <ele>450.3</ele>
        <time>2026-05-21T10:33:50.999Z</time>
      </trkpt>
      <trkpt lat="43.7764" lon="3.8331">
        <ele>450.1</ele>
        <time>2026-05-21T10:33:51.999Z</time>
      </trkpt>
      <trkpt lat="43.77639" lon="3.8331">
        <ele>449.9</ele>
        <time>2026-05-21T10:33:52.999Z</time>
      </trkpt>
      <trkpt lat="43.77639" lon="3.83309">
        <ele>449.8</ele>
        <time>2026-05-21T10:33:53.999Z</time>
      </trkpt>
      <trkpt lat="43.77639" lon="3.83309">
        <ele>449.6</ele>
        <time>2026-05-21T10:33:54.999Z</time>
      </trkpt>
      <trkpt lat="43.77639" lon="3.83308">
        <ele>449.5</ele>
        <time>2026-05-21T10:33:55.999Z</time>
      </trkpt>
      <trkpt lat="43.77639" lon="3.83308">
        <ele>449.4</ele>
        <time>2026-05-21T10:33:56.999Z</time>
      </trkpt>
      <trkpt lat="43.77639" lon="3.83308">
        <ele>449.9</ele>
        <time>2026-05-21T10:33:57.999Z</time>
      </trkpt>
      <trkpt lat="43.77639" lon="3.83307">
        <ele>449.8</ele>
        <time>2026-05-21T10:33:58.999Z</time>
      </trkpt>
      <trkpt lat="43.77639" lon="3.83307">
        <ele>449.8</ele>
        <time>2026-05-21T10:33:59.999Z</time>
      </trkpt>
      <trkpt lat="43.77639" lon="3.83307">
        <ele>449.7</ele>
        <time>2026-05-21T10:34:00.999Z</time>
      </trkpt>
      <trkpt lat="43.77639" lon="3.83307">
        <ele>449.6</ele>
        <time>2026-05-21T10:34:01.999Z</time>
      </trkpt>
      <trkpt lat="43.77639" lon="3.83307">
        <ele>449.5</ele>
        <time>2026-05-21T10:34:02.999Z</time>
      </trkpt>
      <trkpt lat="43.7764" lon="3.83307">
        <ele>449.3</ele>
        <time>2026-05-21T10:34:03.999Z</time>
      </trkpt>
      <trkpt lat="43.7764" lon="3.83307">
        <ele>449.1</ele>
        <time>2026-05-21T10:34:04.999Z</time>
      </trkpt>
      <trkpt lat="43.7764" lon="3.83306">
        <ele>449</ele>
        <time>2026-05-21T10:34:05.999Z</time>
      </trkpt>
      <trkpt lat="43.7764" lon="3.83306">
        <ele>448.8</ele>
        <time>2026-05-21T10:34:06.999Z</time>
      </trkpt>
      <trkpt lat="43.7764" lon="3.83306">
        <ele>449.1</ele>
        <time>2026-05-21T10:34:07.999Z</time>
      </trkpt>
      <trkpt lat="43.77641" lon="3.83305">
        <ele>449.3</ele>
        <time>2026-05-21T10:34:08.999Z</time>
      </trkpt>
      <trkpt lat="43.7764" lon="3.83304">
        <ele>449.4</ele>
        <time>2026-05-21T10:34:09.999Z</time>
      </trkpt>
      <trkpt lat="43.7764" lon="3.83303">
        <ele>449.4</ele>
        <time>2026-05-21T10:34:10.999Z</time>
      </trkpt>
      <trkpt lat="43.7764" lon="3.83303">
        <ele>449.4</ele>
        <time>2026-05-21T10:34:11.999Z</time>
      </trkpt>
      <trkpt lat="43.7764" lon="3.83303">
        <ele>449.3</ele>
        <time>2026-05-21T10:34:12.999Z</time>
      </trkpt>
      <trkpt lat="43.7764" lon="3.83303">
        <ele>449.5</ele>
        <time>2026-05-21T10:34:13.999Z</time>
      </trkpt>
      <trkpt lat="43.7764" lon="3.83304">
        <ele>449.5</ele>
        <time>2026-05-21T10:34:14.999Z</time>
      </trkpt>
      <trkpt lat="43.7764" lon="3.83304">
        <ele>449.7</ele>
        <time>2026-05-21T10:34:15.999Z</time>
      </trkpt>
      <trkpt lat="43.7764" lon="3.83304">
        <ele>449.6</ele>
        <time>2026-05-21T10:34:16.999Z</time>
      </trkpt>
      <trkpt lat="43.7764" lon="3.83303">
        <ele>449.4</ele>
        <time>2026-05-21T10:34:17.999Z</time>
      </trkpt>
      <trkpt lat="43.7764" lon="3.83303">
        <ele>449.4</ele>
        <time>2026-05-21T10:34:18.999Z</time>
      </trkpt>
      <trkpt lat="43.7764" lon="3.83303">
        <ele>449.4</ele>
        <time>2026-05-21T10:34:19.999Z</time>
      </trkpt>
      <trkpt lat="43.7764" lon="3.83303">
        <ele>449.4</ele>
        <time>2026-05-21T10:34:20.999Z</time>
      </trkpt>
      <trkpt lat="43.7764" lon="3.83303">
        <ele>449.6</ele>
        <time>2026-05-21T10:34:21.999Z</time>
      </trkpt>
      <trkpt lat="43.7764" lon="3.83303">
        <ele>449.6</ele>
        <time>2026-05-21T10:34:22.999Z</time>
      </trkpt>
      <trkpt lat="43.7764" lon="3.83303">
        <ele>449.8</ele>
        <time>2026-05-21T10:34:23.999Z</time>
      </trkpt>
      <trkpt lat="43.77641" lon="3.83303">
        <ele>450</ele>
        <time>2026-05-21T10:34:24.999Z</time>
      </trkpt>
      <trkpt lat="43.77641" lon="3.83303">
        <ele>450.2</ele>
        <time>2026-05-21T10:34:25.999Z</time>
      </trkpt>
      <trkpt lat="43.77641" lon="3.83303">
        <ele>450.3</ele>
        <time>2026-05-21T10:34:26.999Z</time>
      </trkpt>
      <trkpt lat="43.77641" lon="3.83303">
        <ele>450.2</ele>
        <time>2026-05-21T10:34:27.999Z</time>
      </trkpt>
      <trkpt lat="43.77641" lon="3.83303">
        <ele>450.2</ele>
        <time>2026-05-21T10:34:28.999Z</time>
      </trkpt>
      <trkpt lat="43.77641" lon="3.83303">
        <ele>450.3</ele>
        <time>2026-05-21T10:34:29.999Z</time>
      </trkpt>
      <trkpt lat="43.77641" lon="3.83303">
        <ele>450.4</ele>
        <time>2026-05-21T10:34:30.999Z</time>
      </trkpt>
      <trkpt lat="43.77642" lon="3.83304">
        <ele>450.5</ele>
        <time>2026-05-21T10:34:32.999Z</time>
      </trkpt>
      <trkpt lat="43.77643" lon="3.83304">
        <ele>450.7</ele>
        <time>2026-05-21T10:34:33.999Z</time>
      </trkpt>
      <trkpt lat="43.77644" lon="3.83303">
        <ele>450.8</ele>
        <time>2026-05-21T10:34:34.999Z</time>
      </trkpt>
      <trkpt lat="43.77646" lon="3.83303">
        <ele>450.5</ele>
        <time>2026-05-21T10:34:35.999Z</time>
      </trkpt>
      <trkpt lat="43.77647" lon="3.83303">
        <ele>450.6</ele>
        <time>2026-05-21T10:34:36.999Z</time>
      </trkpt>
      <trkpt lat="43.77648" lon="3.83303">
        <ele>450.7</ele>
        <time>2026-05-21T10:34:37.999Z</time>
      </trkpt>
      <trkpt lat="43.7765" lon="3.83302">
        <ele>450.9</ele>
        <time>2026-05-21T10:34:38.999Z</time>
      </trkpt>
      <trkpt lat="43.77651" lon="3.83301">
        <ele>451.2</ele>
        <time>2026-05-21T10:34:39.999Z</time>
      </trkpt>
      <trkpt lat="43.77651" lon="3.833">
        <ele>451.4</ele>
        <time>2026-05-21T10:34:40.999Z</time>
      </trkpt>
      <trkpt lat="43.77651" lon="3.83299">
        <ele>450.9</ele>
        <time>2026-05-21T10:34:42.000Z</time>
      </trkpt>
      <trkpt lat="43.77651" lon="3.83299">
        <ele>450.7</ele>
        <time>2026-05-21T10:34:43.000Z</time>
      </trkpt>
      <trkpt lat="43.77651" lon="3.83298">
        <ele>450.7</ele>
        <time>2026-05-21T10:34:44.000Z</time>
      </trkpt>
      <trkpt lat="43.77651" lon="3.83298">
        <ele>449.6</ele>
        <time>2026-05-21T10:34:45.000Z</time>
      </trkpt>
      <trkpt lat="43.77651" lon="3.83298">
        <ele>449.6</ele>
        <time>2026-05-21T10:34:46.000Z</time>
      </trkpt>
      <trkpt lat="43.77651" lon="3.83298">
        <ele>449.8</ele>
        <time>2026-05-21T10:34:47.000Z</time>
      </trkpt>
      <trkpt lat="43.77651" lon="3.83298">
        <ele>449.9</ele>
        <time>2026-05-21T10:34:48.000Z</time>
      </trkpt>
      <trkpt lat="43.77651" lon="3.83298">
        <ele>450</ele>
        <time>2026-05-21T10:34:49.000Z</time>
      </trkpt>
      <trkpt lat="43.77651" lon="3.83298">
        <ele>450</ele>
        <time>2026-05-21T10:34:50.000Z</time>
      </trkpt>
      <trkpt lat="43.77651" lon="3.83298">
        <ele>449.8</ele>
        <time>2026-05-21T10:34:51.000Z</time>
      </trkpt>
      <trkpt lat="43.77651" lon="3.83299">
        <ele>450</ele>
        <time>2026-05-21T10:34:52.000Z</time>
      </trkpt>
      <trkpt lat="43.77651" lon="3.83299">
        <ele>450</ele>
        <time>2026-05-21T10:34:53.000Z</time>
      </trkpt>
      <trkpt lat="43.77651" lon="3.83298">
        <ele>450.1</ele>
        <time>2026-05-21T10:34:54.000Z</time>
      </trkpt>
      <trkpt lat="43.77651" lon="3.83298">
        <ele>450.2</ele>
        <time>2026-05-21T10:34:55.000Z</time>
      </trkpt>
      <trkpt lat="43.77651" lon="3.83298">
        <ele>450</ele>
        <time>2026-05-21T10:34:56.000Z</time>
      </trkpt>
      <trkpt lat="43.77651" lon="3.83298">
        <ele>450.1</ele>
        <time>2026-05-21T10:34:57.000Z</time>
      </trkpt>
      <trkpt lat="43.77651" lon="3.83298">
        <ele>449.7</ele>
        <time>2026-05-21T10:34:58.000Z</time>
      </trkpt>
      <trkpt lat="43.77651" lon="3.83298">
        <ele>449.6</ele>
        <time>2026-05-21T10:34:59.000Z</time>
      </trkpt>
      <trkpt lat="43.7765" lon="3.83298">
        <ele>449.5</ele>
        <time>2026-05-21T10:35:00.000Z</time>
      </trkpt>
      <trkpt lat="43.7765" lon="3.83298">
        <ele>449.5</ele>
        <time>2026-05-21T10:35:01.000Z</time>
      </trkpt>
      <trkpt lat="43.7765" lon="3.83298">
        <ele>449.4</ele>
        <time>2026-05-21T10:35:02.000Z</time>
      </trkpt>
      <trkpt lat="43.7765" lon="3.83298">
        <ele>449.3</ele>
        <time>2026-05-21T10:35:03.000Z</time>
      </trkpt>
      <trkpt lat="43.7765" lon="3.83298">
        <ele>449.3</ele>
        <time>2026-05-21T10:35:04.000Z</time>
      </trkpt>
      <trkpt lat="43.7765" lon="3.83298">
        <ele>449.3</ele>
        <time>2026-05-21T10:35:05.000Z</time>
      </trkpt>
      <trkpt lat="43.7765" lon="3.83298">
        <ele>449.1</ele>
        <time>2026-05-21T10:35:06.000Z</time>
      </trkpt>
      <trkpt lat="43.7765" lon="3.83298">
        <ele>448.9</ele>
        <time>2026-05-21T10:35:07.000Z</time>
      </trkpt>
      <trkpt lat="43.7765" lon="3.83298">
        <ele>448.8</ele>
        <time>2026-05-21T10:35:08.000Z</time>
      </trkpt>
      <trkpt lat="43.7765" lon="3.83298">
        <ele>448.7</ele>
        <time>2026-05-21T10:35:09.000Z</time>
      </trkpt>
      <trkpt lat="43.7765" lon="3.83298">
        <ele>448.8</ele>
        <time>2026-05-21T10:35:10.000Z</time>
      </trkpt>
      <trkpt lat="43.7765" lon="3.83298">
        <ele>448.8</ele>
        <time>2026-05-21T10:35:11.000Z</time>
      </trkpt>
      <trkpt lat="43.7765" lon="3.83298">
        <ele>448.9</ele>
        <time>2026-05-21T10:35:12.000Z</time>
      </trkpt>
      <trkpt lat="43.7765" lon="3.83298">
        <ele>449.1</ele>
        <time>2026-05-21T10:35:13.000Z</time>
      </trkpt>
      <trkpt lat="43.7765" lon="3.83298">
        <ele>449.2</ele>
        <time>2026-05-21T10:35:14.000Z</time>
      </trkpt>
      <trkpt lat="43.7765" lon="3.83298">
        <ele>449.7</ele>
        <time>2026-05-21T10:35:15.000Z</time>
      </trkpt>
      <trkpt lat="43.7765" lon="3.83298">
        <ele>450</ele>
        <time>2026-05-21T10:35:16.000Z</time>
      </trkpt>
      <trkpt lat="43.7765" lon="3.83298">
        <ele>450.2</ele>
        <time>2026-05-21T10:35:17.000Z</time>
      </trkpt>
      <trkpt lat="43.7765" lon="3.83298">
        <ele>450.4</ele>
        <time>2026-05-21T10:35:18.000Z</time>
      </trkpt>
      <trkpt lat="43.7765" lon="3.83298">
        <ele>450.3</ele>
        <time>2026-05-21T10:35:19.000Z</time>
      </trkpt>
      <trkpt lat="43.7765" lon="3.83298">
        <ele>450.5</ele>
        <time>2026-05-21T10:35:20.000Z</time>
      </trkpt>
      <trkpt lat="43.7765" lon="3.83298">
        <ele>450.7</ele>
        <time>2026-05-21T10:35:21.000Z</time>
      </trkpt>
      <trkpt lat="43.7765" lon="3.83298">
        <ele>450.9</ele>
        <time>2026-05-21T10:35:22.000Z</time>
      </trkpt>
      <trkpt lat="43.7765" lon="3.83298">
        <ele>451</ele>
        <time>2026-05-21T10:35:23.000Z</time>
      </trkpt>
      <trkpt lat="43.7765" lon="3.83298">
        <ele>451.4</ele>
        <time>2026-05-21T10:35:24.000Z</time>
      </trkpt>
      <trkpt lat="43.7765" lon="3.83298">
        <ele>451.5</ele>
        <time>2026-05-21T10:35:25.000Z</time>
      </trkpt>
      <trkpt lat="43.7765" lon="3.83298">
        <ele>451.7</ele>
        <time>2026-05-21T10:35:26.000Z</time>
      </trkpt>
      <trkpt lat="43.7765" lon="3.83297">
        <ele>452</ele>
        <time>2026-05-21T10:35:27.000Z</time>
      </trkpt>
      <trkpt lat="43.7765" lon="3.83297">
        <ele>452.2</ele>
        <time>2026-05-21T10:35:28.000Z</time>
      </trkpt>
      <trkpt lat="43.7765" lon="3.83297">
        <ele>452.3</ele>
        <time>2026-05-21T10:35:29.000Z</time>
      </trkpt>
      <trkpt lat="43.7765" lon="3.83297">
        <ele>452.5</ele>
        <time>2026-05-21T10:35:30.000Z</time>
      </trkpt>
      <trkpt lat="43.7765" lon="3.83297">
        <ele>452.7</ele>
        <time>2026-05-21T10:35:31.000Z</time>
      </trkpt>
      <trkpt lat="43.7765" lon="3.83297">
        <ele>452.8</ele>
        <time>2026-05-21T10:35:32.000Z</time>
      </trkpt>
      <trkpt lat="43.7765" lon="3.83297">
        <ele>453</ele>
        <time>2026-05-21T10:35:33.000Z</time>
      </trkpt>
      <trkpt lat="43.7765" lon="3.83297">
        <ele>453.2</ele>
        <time>2026-05-21T10:35:34.000Z</time>
      </trkpt>
      <trkpt lat="43.7765" lon="3.83297">
        <ele>453.4</ele>
        <time>2026-05-21T10:35:35.000Z</time>
      </trkpt>
      <trkpt lat="43.7765" lon="3.83297">
        <ele>453.8</ele>
        <time>2026-05-21T10:35:36.000Z</time>
      </trkpt>
      <trkpt lat="43.7765" lon="3.83297">
        <ele>454</ele>
        <time>2026-05-21T10:35:37.000Z</time>
      </trkpt>
      <trkpt lat="43.7765" lon="3.83296">
        <ele>454.1</ele>
        <time>2026-05-21T10:35:38.000Z</time>
      </trkpt>
      <trkpt lat="43.7765" lon="3.83297">
        <ele>453.9</ele>
        <time>2026-05-21T10:35:39.000Z</time>
      </trkpt>
      <trkpt lat="43.7765" lon="3.83297">
        <ele>453.7</ele>
        <time>2026-05-21T10:35:40.000Z</time>
      </trkpt>
      <trkpt lat="43.7765" lon="3.83297">
        <ele>453.5</ele>
        <time>2026-05-21T10:35:41.000Z</time>
      </trkpt>
      <trkpt lat="43.7765" lon="3.83297">
        <ele>453.4</ele>
        <time>2026-05-21T10:35:42.000Z</time>
      </trkpt>
      <trkpt lat="43.7765" lon="3.83297">
        <ele>453.4</ele>
        <time>2026-05-21T10:35:43.000Z</time>
      </trkpt>
      <trkpt lat="43.7765" lon="3.83297">
        <ele>453.7</ele>
        <time>2026-05-21T10:35:44.000Z</time>
      </trkpt>
      <trkpt lat="43.7765" lon="3.83297">
        <ele>454</ele>
        <time>2026-05-21T10:35:45.000Z</time>
      </trkpt>
      <trkpt lat="43.7765" lon="3.83296">
        <ele>454.3</ele>
        <time>2026-05-21T10:35:46.000Z</time>
      </trkpt>
      <trkpt lat="43.7765" lon="3.83296">
        <ele>454.3</ele>
        <time>2026-05-21T10:35:47.000Z</time>
      </trkpt>
      <trkpt lat="43.7765" lon="3.83296">
        <ele>454.5</ele>
        <time>2026-05-21T10:35:48.000Z</time>
      </trkpt>
      <trkpt lat="43.7765" lon="3.83296">
        <ele>454.8</ele>
        <time>2026-05-21T10:35:49.000Z</time>
      </trkpt>
      <trkpt lat="43.7765" lon="3.83296">
        <ele>454.8</ele>
        <time>2026-05-21T10:35:50.000Z</time>
      </trkpt>
      <trkpt lat="43.7765" lon="3.83296">
        <ele>454.9</ele>
        <time>2026-05-21T10:35:51.000Z</time>
      </trkpt>
      <trkpt lat="43.7765" lon="3.83296">
        <ele>454.9</ele>
        <time>2026-05-21T10:35:52.000Z</time>
      </trkpt>
      <trkpt lat="43.7765" lon="3.83296">
        <ele>454.9</ele>
        <time>2026-05-21T10:35:53.000Z</time>
      </trkpt>
      <trkpt lat="43.7765" lon="3.83296">
        <ele>454.9</ele>
        <time>2026-05-21T10:35:54.000Z</time>
      </trkpt>
      <trkpt lat="43.7765" lon="3.83296">
        <ele>455</ele>
        <time>2026-05-21T10:35:55.000Z</time>
      </trkpt>
      <trkpt lat="43.7765" lon="3.83296">
        <ele>455.2</ele>
        <time>2026-05-21T10:35:56.000Z</time>
      </trkpt>
      <trkpt lat="43.7765" lon="3.83296">
        <ele>455.6</ele>
        <time>2026-05-21T10:35:57.000Z</time>
      </trkpt>
      <trkpt lat="43.7765" lon="3.83296">
        <ele>455.8</ele>
        <time>2026-05-21T10:35:58.000Z</time>
      </trkpt>
      <trkpt lat="43.7765" lon="3.83296">
        <ele>455.8</ele>
        <time>2026-05-21T10:35:59.000Z</time>
      </trkpt>
      <trkpt lat="43.7765" lon="3.83296">
        <ele>455.7</ele>
        <time>2026-05-21T10:36:00.000Z</time>
      </trkpt>
      <trkpt lat="43.7765" lon="3.83296">
        <ele>455.7</ele>
        <time>2026-05-21T10:36:01.000Z</time>
      </trkpt>
      <trkpt lat="43.7765" lon="3.83296">
        <ele>455.6</ele>
        <time>2026-05-21T10:36:02.000Z</time>
      </trkpt>
      <trkpt lat="43.7765" lon="3.83296">
        <ele>455.4</ele>
        <time>2026-05-21T10:36:03.000Z</time>
      </trkpt>
      <trkpt lat="43.7765" lon="3.83296">
        <ele>455.2</ele>
        <time>2026-05-21T10:36:04.000Z</time>
      </trkpt>
      <trkpt lat="43.7765" lon="3.83296">
        <ele>455.4</ele>
        <time>2026-05-21T10:36:05.000Z</time>
      </trkpt>
      <trkpt lat="43.7765" lon="3.83296">
        <ele>455.4</ele>
        <time>2026-05-21T10:36:06.000Z</time>
      </trkpt>
      <trkpt lat="43.7765" lon="3.83295">
        <ele>455.5</ele>
        <time>2026-05-21T10:36:07.000Z</time>
      </trkpt>
      <trkpt lat="43.7765" lon="3.83295">
        <ele>455.7</ele>
        <time>2026-05-21T10:36:08.000Z</time>
      </trkpt>
      <trkpt lat="43.7765" lon="3.83295">
        <ele>455.7</ele>
        <time>2026-05-21T10:36:09.000Z</time>
      </trkpt>
      <trkpt lat="43.7765" lon="3.83295">
        <ele>455.8</ele>
        <time>2026-05-21T10:36:10.000Z</time>
      </trkpt>
      <trkpt lat="43.7765" lon="3.83295">
        <ele>455.9</ele>
        <time>2026-05-21T10:36:11.000Z</time>
      </trkpt>
      <trkpt lat="43.7765" lon="3.83295">
        <ele>456.1</ele>
        <time>2026-05-21T10:36:12.000Z</time>
      </trkpt>
      <trkpt lat="43.7765" lon="3.83295">
        <ele>456.1</ele>
        <time>2026-05-21T10:36:13.000Z</time>
      </trkpt>
      <trkpt lat="43.7765" lon="3.83295">
        <ele>456.3</ele>
        <time>2026-05-21T10:36:14.000Z</time>
      </trkpt>
      <trkpt lat="43.7765" lon="3.83295">
        <ele>456.5</ele>
        <time>2026-05-21T10:36:15.000Z</time>
      </trkpt>
      <trkpt lat="43.7765" lon="3.83295">
        <ele>456.7</ele>
        <time>2026-05-21T10:36:16.000Z</time>
      </trkpt>
      <trkpt lat="43.7765" lon="3.83295">
        <ele>456.7</ele>
        <time>2026-05-21T10:36:17.000Z</time>
      </trkpt>
      <trkpt lat="43.7765" lon="3.83295">
        <ele>456.6</ele>
        <time>2026-05-21T10:36:18.000Z</time>
      </trkpt>
      <trkpt lat="43.7765" lon="3.83295">
        <ele>456.5</ele>
        <time>2026-05-21T10:36:19.000Z</time>
      </trkpt>
      <trkpt lat="43.77651" lon="3.83295">
        <ele>456.6</ele>
        <time>2026-05-21T10:36:20.000Z</time>
      </trkpt>
      <trkpt lat="43.77651" lon="3.83295">
        <ele>456.7</ele>
        <time>2026-05-21T10:36:21.000Z</time>
      </trkpt>
      <trkpt lat="43.77651" lon="3.83295">
        <ele>456.8</ele>
        <time>2026-05-21T10:36:22.000Z</time>
      </trkpt>
      <trkpt lat="43.77651" lon="3.83295">
        <ele>456.8</ele>
        <time>2026-05-21T10:36:23.000Z</time>
      </trkpt>
      <trkpt lat="43.77651" lon="3.83295">
        <ele>456.8</ele>
        <time>2026-05-21T10:36:24.000Z</time>
      </trkpt>
      <trkpt lat="43.77651" lon="3.83295">
        <ele>456.7</ele>
        <time>2026-05-21T10:36:25.000Z</time>
      </trkpt>
      <trkpt lat="43.77651" lon="3.83294">
        <ele>456.7</ele>
        <time>2026-05-21T10:36:26.000Z</time>
      </trkpt>
      <trkpt lat="43.77651" lon="3.83294">
        <ele>456.6</ele>
        <time>2026-05-21T10:36:27.000Z</time>
      </trkpt>
      <trkpt lat="43.77651" lon="3.83294">
        <ele>456.6</ele>
        <time>2026-05-21T10:36:28.000Z</time>
      </trkpt>
      <trkpt lat="43.77651" lon="3.83294">
        <ele>456.5</ele>
        <time>2026-05-21T10:36:29.000Z</time>
      </trkpt>
      <trkpt lat="43.77651" lon="3.83294">
        <ele>456.5</ele>
        <time>2026-05-21T10:36:30.000Z</time>
      </trkpt>
      <trkpt lat="43.77651" lon="3.83294">
        <ele>456.3</ele>
        <time>2026-05-21T10:36:31.000Z</time>
      </trkpt>
      <trkpt lat="43.77651" lon="3.83294">
        <ele>456.1</ele>
        <time>2026-05-21T10:36:32.000Z</time>
      </trkpt>
      <trkpt lat="43.77651" lon="3.83294">
        <ele>456</ele>
        <time>2026-05-21T10:36:33.000Z</time>
      </trkpt>
      <trkpt lat="43.77651" lon="3.83294">
        <ele>455.8</ele>
        <time>2026-05-21T10:36:34.000Z</time>
      </trkpt>
      <trkpt lat="43.77651" lon="3.83294">
        <ele>455.8</ele>
        <time>2026-05-21T10:36:35.000Z</time>
      </trkpt>
      <trkpt lat="43.77651" lon="3.83294">
        <ele>455.7</ele>
        <time>2026-05-21T10:36:36.000Z</time>
      </trkpt>
      <trkpt lat="43.77651" lon="3.83294">
        <ele>455.6</ele>
        <time>2026-05-21T10:36:37.000Z</time>
      </trkpt>
      <trkpt lat="43.77651" lon="3.83294">
        <ele>455.6</ele>
        <time>2026-05-21T10:36:38.000Z</time>
      </trkpt>
      <trkpt lat="43.77651" lon="3.83294">
        <ele>455.4</ele>
        <time>2026-05-21T10:36:39.000Z</time>
      </trkpt>
      <trkpt lat="43.77651" lon="3.83294">
        <ele>455.3</ele>
        <time>2026-05-21T10:36:40.000Z</time>
      </trkpt>
      <trkpt lat="43.77651" lon="3.83294">
        <ele>455.5</ele>
        <time>2026-05-21T10:36:41.000Z</time>
      </trkpt>
      <trkpt lat="43.77651" lon="3.83294">
        <ele>455.5</ele>
        <time>2026-05-21T10:36:42.000Z</time>
      </trkpt>
      <trkpt lat="43.77651" lon="3.83294">
        <ele>455.6</ele>
        <time>2026-05-21T10:36:43.000Z</time>
      </trkpt>
      <trkpt lat="43.77651" lon="3.83294">
        <ele>455.7</ele>
        <time>2026-05-21T10:36:44.000Z</time>
      </trkpt>
      <trkpt lat="43.77651" lon="3.83294">
        <ele>455.7</ele>
        <time>2026-05-21T10:36:45.000Z</time>
      </trkpt>
      <trkpt lat="43.7765" lon="3.83294">
        <ele>455.9</ele>
        <time>2026-05-21T10:36:46.000Z</time>
      </trkpt>
      <trkpt lat="43.77651" lon="3.83294">
        <ele>456.1</ele>
        <time>2026-05-21T10:36:47.000Z</time>
      </trkpt>
      <trkpt lat="43.77651" lon="3.83294">
        <ele>456.1</ele>
        <time>2026-05-21T10:36:48.000Z</time>
      </trkpt>
      <trkpt lat="43.77651" lon="3.83294">
        <ele>456</ele>
        <time>2026-05-21T10:36:49.000Z</time>
      </trkpt>
      <trkpt lat="43.77651" lon="3.83294">
        <ele>456</ele>
        <time>2026-05-21T10:36:50.000Z</time>
      </trkpt>
      <trkpt lat="43.77651" lon="3.83293">
        <ele>456.2</ele>
        <time>2026-05-21T10:36:51.000Z</time>
      </trkpt>
      <trkpt lat="43.77651" lon="3.83293">
        <ele>456.2</ele>
        <time>2026-05-21T10:36:52.000Z</time>
      </trkpt>
      <trkpt lat="43.77651" lon="3.83293">
        <ele>456.2</ele>
        <time>2026-05-21T10:36:53.000Z</time>
      </trkpt>
      <trkpt lat="43.77651" lon="3.83293">
        <ele>456.4</ele>
        <time>2026-05-21T10:36:54.000Z</time>
      </trkpt>
      <trkpt lat="43.77651" lon="3.83293">
        <ele>456.4</ele>
        <time>2026-05-21T10:36:55.000Z</time>
      </trkpt>
      <trkpt lat="43.77651" lon="3.83293">
        <ele>456.3</ele>
        <time>2026-05-21T10:36:56.000Z</time>
      </trkpt>
      <trkpt lat="43.77651" lon="3.83293">
        <ele>456.2</ele>
        <time>2026-05-21T10:36:57.000Z</time>
      </trkpt>
      <trkpt lat="43.77651" lon="3.83293">
        <ele>456.2</ele>
        <time>2026-05-21T10:36:58.000Z</time>
      </trkpt>
      <trkpt lat="43.77652" lon="3.83293">
        <ele>456.1</ele>
        <time>2026-05-21T10:36:59.000Z</time>
      </trkpt>
      <trkpt lat="43.77652" lon="3.83293">
        <ele>455.9</ele>
        <time>2026-05-21T10:37:00.000Z</time>
      </trkpt>
      <trkpt lat="43.77652" lon="3.83292">
        <ele>455.9</ele>
        <time>2026-05-21T10:37:01.000Z</time>
      </trkpt>
      <trkpt lat="43.77652" lon="3.83291">
        <ele>455.9</ele>
        <time>2026-05-21T10:37:02.000Z</time>
      </trkpt>
      <trkpt lat="43.77653" lon="3.83289">
        <ele>455.9</ele>
        <time>2026-05-21T10:37:03.000Z</time>
      </trkpt>
      <trkpt lat="43.77653" lon="3.83288">
        <ele>456</ele>
        <time>2026-05-21T10:37:04.000Z</time>
      </trkpt>
      <trkpt lat="43.77654" lon="3.83288">
        <ele>455.9</ele>
        <time>2026-05-21T10:37:05.000Z</time>
      </trkpt>
      <trkpt lat="43.77653" lon="3.83288">
        <ele>456</ele>
        <time>2026-05-21T10:37:06.000Z</time>
      </trkpt>
      <trkpt lat="43.77653" lon="3.83288">
        <ele>455.9</ele>
        <time>2026-05-21T10:37:07.000Z</time>
      </trkpt>
      <trkpt lat="43.77653" lon="3.83288">
        <ele>455.9</ele>
        <time>2026-05-21T10:37:08.000Z</time>
      </trkpt>
      <trkpt lat="43.77653" lon="3.83288">
        <ele>456</ele>
        <time>2026-05-21T10:37:09.000Z</time>
      </trkpt>
      <trkpt lat="43.77653" lon="3.83288">
        <ele>456</ele>
        <time>2026-05-21T10:37:10.000Z</time>
      </trkpt>
      <trkpt lat="43.77653" lon="3.83288">
        <ele>455.9</ele>
        <time>2026-05-21T10:37:11.000Z</time>
      </trkpt>
      <trkpt lat="43.77653" lon="3.83287">
        <ele>456</ele>
        <time>2026-05-21T10:37:12.000Z</time>
      </trkpt>
      <trkpt lat="43.77653" lon="3.83287">
        <ele>456</ele>
        <time>2026-05-21T10:37:13.000Z</time>
      </trkpt>
      <trkpt lat="43.77653" lon="3.83287">
        <ele>455.9</ele>
        <time>2026-05-21T10:37:14.000Z</time>
      </trkpt>
      <trkpt lat="43.77653" lon="3.83287">
        <ele>455.8</ele>
        <time>2026-05-21T10:37:15.000Z</time>
      </trkpt>
      <trkpt lat="43.77653" lon="3.83287">
        <ele>456</ele>
        <time>2026-05-21T10:37:16.000Z</time>
      </trkpt>
      <trkpt lat="43.77653" lon="3.83287">
        <ele>456.2</ele>
        <time>2026-05-21T10:37:17.000Z</time>
      </trkpt>
      <trkpt lat="43.77653" lon="3.83287">
        <ele>456.1</ele>
        <time>2026-05-21T10:37:18.000Z</time>
      </trkpt>
      <trkpt lat="43.77653" lon="3.83287">
        <ele>456.1</ele>
        <time>2026-05-21T10:37:19.000Z</time>
      </trkpt>
      <trkpt lat="43.77653" lon="3.83287">
        <ele>456.1</ele>
        <time>2026-05-21T10:37:20.000Z</time>
      </trkpt>
      <trkpt lat="43.77653" lon="3.83287">
        <ele>456.2</ele>
        <time>2026-05-21T10:37:21.000Z</time>
      </trkpt>
      <trkpt lat="43.77653" lon="3.83287">
        <ele>456.2</ele>
        <time>2026-05-21T10:37:22.000Z</time>
      </trkpt>
      <trkpt lat="43.77653" lon="3.83286">
        <ele>456.2</ele>
        <time>2026-05-21T10:37:23.000Z</time>
      </trkpt>
      <trkpt lat="43.77654" lon="3.83286">
        <ele>456.4</ele>
        <time>2026-05-21T10:37:24.000Z</time>
      </trkpt>
      <trkpt lat="43.77654" lon="3.83286">
        <ele>456.4</ele>
        <time>2026-05-21T10:37:25.000Z</time>
      </trkpt>
      <trkpt lat="43.77654" lon="3.83285">
        <ele>456.4</ele>
        <time>2026-05-21T10:37:26.000Z</time>
      </trkpt>
      <trkpt lat="43.77654" lon="3.83285">
        <ele>456.4</ele>
        <time>2026-05-21T10:37:27.000Z</time>
      </trkpt>
      <trkpt lat="43.77654" lon="3.83283">
        <ele>456.4</ele>
        <time>2026-05-21T10:37:28.000Z</time>
      </trkpt>
      <trkpt lat="43.77655" lon="3.83282">
        <ele>456.7</ele>
        <time>2026-05-21T10:37:29.000Z</time>
      </trkpt>
      <trkpt lat="43.77654" lon="3.83282">
        <ele>456.9</ele>
        <time>2026-05-21T10:37:30.000Z</time>
      </trkpt>
      <trkpt lat="43.77654" lon="3.83282">
        <ele>457</ele>
        <time>2026-05-21T10:37:31.000Z</time>
      </trkpt>
      <trkpt lat="43.77654" lon="3.83282">
        <ele>457</ele>
        <time>2026-05-21T10:37:32.000Z</time>
      </trkpt>
      <trkpt lat="43.77655" lon="3.83281">
        <ele>457.2</ele>
        <time>2026-05-21T10:37:33.000Z</time>
      </trkpt>
      <trkpt lat="43.77655" lon="3.8328">
        <ele>457.4</ele>
        <time>2026-05-21T10:37:34.000Z</time>
      </trkpt>
      <trkpt lat="43.77655" lon="3.83279">
        <ele>457.4</ele>
        <time>2026-05-21T10:37:35.000Z</time>
      </trkpt>
      <trkpt lat="43.77655" lon="3.83279">
        <ele>457.5</ele>
        <time>2026-05-21T10:37:36.000Z</time>
      </trkpt>
      <trkpt lat="43.77655" lon="3.83279">
        <ele>457.6</ele>
        <time>2026-05-21T10:37:37.000Z</time>
      </trkpt>
      <trkpt lat="43.77655" lon="3.83279">
        <ele>457.4</ele>
        <time>2026-05-21T10:37:38.000Z</time>
      </trkpt>
      <trkpt lat="43.77655" lon="3.83278">
        <ele>457.1</ele>
        <time>2026-05-21T10:37:39.000Z</time>
      </trkpt>
      <trkpt lat="43.77655" lon="3.83278">
        <ele>457.2</ele>
        <time>2026-05-21T10:37:40.000Z</time>
      </trkpt>
      <trkpt lat="43.77655" lon="3.83278">
        <ele>457.3</ele>
        <time>2026-05-21T10:37:41.000Z</time>
      </trkpt>
      <trkpt lat="43.77655" lon="3.83278">
        <ele>457.4</ele>
        <time>2026-05-21T10:37:42.000Z</time>
      </trkpt>
      <trkpt lat="43.77655" lon="3.83278">
        <ele>457.5</ele>
        <time>2026-05-21T10:37:43.000Z</time>
      </trkpt>
      <trkpt lat="43.77655" lon="3.83278">
        <ele>457.4</ele>
        <time>2026-05-21T10:37:44.000Z</time>
      </trkpt>
      <trkpt lat="43.77655" lon="3.83278">
        <ele>457.3</ele>
        <time>2026-05-21T10:37:45.000Z</time>
      </trkpt>
      <trkpt lat="43.77655" lon="3.83278">
        <ele>457.3</ele>
        <time>2026-05-21T10:37:46.000Z</time>
      </trkpt>
      <trkpt lat="43.77655" lon="3.83278">
        <ele>457.5</ele>
        <time>2026-05-21T10:37:47.000Z</time>
      </trkpt>
      <trkpt lat="43.77655" lon="3.83278">
        <ele>457.8</ele>
        <time>2026-05-21T10:37:48.000Z</time>
      </trkpt>
      <trkpt lat="43.77655" lon="3.83278">
        <ele>458</ele>
        <time>2026-05-21T10:37:49.000Z</time>
      </trkpt>
      <trkpt lat="43.77655" lon="3.83278">
        <ele>458.1</ele>
        <time>2026-05-21T10:37:50.000Z</time>
      </trkpt>
      <trkpt lat="43.77655" lon="3.83278">
        <ele>458.1</ele>
        <time>2026-05-21T10:37:51.000Z</time>
      </trkpt>
      <trkpt lat="43.77655" lon="3.83278">
        <ele>458.3</ele>
        <time>2026-05-21T10:37:52.000Z</time>
      </trkpt>
      <trkpt lat="43.77655" lon="3.83278">
        <ele>458.7</ele>
        <time>2026-05-21T10:37:53.000Z</time>
      </trkpt>
      <trkpt lat="43.77655" lon="3.83278">
        <ele>459</ele>
        <time>2026-05-21T10:37:54.000Z</time>
      </trkpt>
      <trkpt lat="43.77656" lon="3.83278">
        <ele>459</ele>
        <time>2026-05-21T10:37:55.000Z</time>
      </trkpt>
      <trkpt lat="43.77656" lon="3.83278">
        <ele>458.8</ele>
        <time>2026-05-21T10:37:56.000Z</time>
      </trkpt>
      <trkpt lat="43.77656" lon="3.83278">
        <ele>458.7</ele>
        <time>2026-05-21T10:37:57.000Z</time>
      </trkpt>
      <trkpt lat="43.77656" lon="3.83278">
        <ele>458.7</ele>
        <time>2026-05-21T10:37:58.000Z</time>
      </trkpt>
      <trkpt lat="43.77656" lon="3.83278">
        <ele>458.4</ele>
        <time>2026-05-21T10:37:59.000Z</time>
      </trkpt>
      <trkpt lat="43.77656" lon="3.83278">
        <ele>458.6</ele>
        <time>2026-05-21T10:38:00.000Z</time>
      </trkpt>
      <trkpt lat="43.77656" lon="3.83278">
        <ele>458.6</ele>
        <time>2026-05-21T10:38:01.000Z</time>
      </trkpt>
      <trkpt lat="43.77656" lon="3.83278">
        <ele>458.9</ele>
        <time>2026-05-21T10:38:02.000Z</time>
      </trkpt>
      <trkpt lat="43.77656" lon="3.83278">
        <ele>459.3</ele>
        <time>2026-05-21T10:38:03.000Z</time>
      </trkpt>
      <trkpt lat="43.77656" lon="3.83278">
        <ele>459.9</ele>
        <time>2026-05-21T10:38:04.000Z</time>
      </trkpt>
      <trkpt lat="43.77656" lon="3.83277">
        <ele>460.3</ele>
        <time>2026-05-21T10:38:05.000Z</time>
      </trkpt>
      <trkpt lat="43.77656" lon="3.83277">
        <ele>460.4</ele>
        <time>2026-05-21T10:38:06.000Z</time>
      </trkpt>
      <trkpt lat="43.77656" lon="3.83277">
        <ele>460.5</ele>
        <time>2026-05-21T10:38:07.000Z</time>
      </trkpt>
      <trkpt lat="43.77656" lon="3.83276">
        <ele>460.7</ele>
        <time>2026-05-21T10:38:08.000Z</time>
      </trkpt>
      <trkpt lat="43.77656" lon="3.83276">
        <ele>460.7</ele>
        <time>2026-05-21T10:38:09.000Z</time>
      </trkpt>
      <trkpt lat="43.77656" lon="3.83276">
        <ele>460.5</ele>
        <time>2026-05-21T10:38:10.000Z</time>
      </trkpt>
      <trkpt lat="43.77656" lon="3.83276">
        <ele>460.5</ele>
        <time>2026-05-21T10:38:11.000Z</time>
      </trkpt>
      <trkpt lat="43.77656" lon="3.83276">
        <ele>460.5</ele>
        <time>2026-05-21T10:38:12.000Z</time>
      </trkpt>
      <trkpt lat="43.77656" lon="3.83276">
        <ele>460.7</ele>
        <time>2026-05-21T10:38:13.000Z</time>
      </trkpt>
      <trkpt lat="43.77656" lon="3.83276">
        <ele>461</ele>
        <time>2026-05-21T10:38:14.000Z</time>
      </trkpt>
      <trkpt lat="43.77656" lon="3.83276">
        <ele>461.1</ele>
        <time>2026-05-21T10:38:15.000Z</time>
      </trkpt>
      <trkpt lat="43.77656" lon="3.83276">
        <ele>461</ele>
        <time>2026-05-21T10:38:16.000Z</time>
      </trkpt>
      <trkpt lat="43.77656" lon="3.83276">
        <ele>461.1</ele>
        <time>2026-05-21T10:38:17.000Z</time>
      </trkpt>
      <trkpt lat="43.77656" lon="3.83276">
        <ele>461.4</ele>
        <time>2026-05-21T10:38:18.000Z</time>
      </trkpt>
      <trkpt lat="43.77656" lon="3.83276">
        <ele>461.4</ele>
        <time>2026-05-21T10:38:19.000Z</time>
      </trkpt>
      <trkpt lat="43.77656" lon="3.83276">
        <ele>461.4</ele>
        <time>2026-05-21T10:38:20.000Z</time>
      </trkpt>
      <trkpt lat="43.77656" lon="3.83276">
        <ele>461.4</ele>
        <time>2026-05-21T10:38:21.000Z</time>
      </trkpt>
      <trkpt lat="43.77656" lon="3.83276">
        <ele>461.4</ele>
        <time>2026-05-21T10:38:22.000Z</time>
      </trkpt>
      <trkpt lat="43.77656" lon="3.83276">
        <ele>461.4</ele>
        <time>2026-05-21T10:38:23.000Z</time>
      </trkpt>
      <trkpt lat="43.77656" lon="3.83276">
        <ele>461.4</ele>
        <time>2026-05-21T10:38:24.000Z</time>
      </trkpt>
      <trkpt lat="43.77656" lon="3.83276">
        <ele>461.3</ele>
        <time>2026-05-21T10:38:25.000Z</time>
      </trkpt>
      <trkpt lat="43.77656" lon="3.83276">
        <ele>461.4</ele>
        <time>2026-05-21T10:38:26.000Z</time>
      </trkpt>
      <trkpt lat="43.77656" lon="3.83276">
        <ele>461.3</ele>
        <time>2026-05-21T10:38:27.000Z</time>
      </trkpt>
      <trkpt lat="43.77656" lon="3.83276">
        <ele>461.3</ele>
        <time>2026-05-21T10:38:28.000Z</time>
      </trkpt>
      <trkpt lat="43.77656" lon="3.83276">
        <ele>461.1</ele>
        <time>2026-05-21T10:38:29.000Z</time>
      </trkpt>
      <trkpt lat="43.77656" lon="3.83276">
        <ele>461.1</ele>
        <time>2026-05-21T10:38:30.000Z</time>
      </trkpt>
      <trkpt lat="43.77656" lon="3.83276">
        <ele>461.1</ele>
        <time>2026-05-21T10:38:31.000Z</time>
      </trkpt>
      <trkpt lat="43.77656" lon="3.83276">
        <ele>461.2</ele>
        <time>2026-05-21T10:38:32.000Z</time>
      </trkpt>
      <trkpt lat="43.77656" lon="3.83276">
        <ele>461.2</ele>
        <time>2026-05-21T10:38:33.000Z</time>
      </trkpt>
      <trkpt lat="43.77656" lon="3.83276">
        <ele>461.1</ele>
        <time>2026-05-21T10:38:34.000Z</time>
      </trkpt>
      <trkpt lat="43.77656" lon="3.83276">
        <ele>460.8</ele>
        <time>2026-05-21T10:38:35.000Z</time>
      </trkpt>
      <trkpt lat="43.77656" lon="3.83276">
        <ele>460.8</ele>
        <time>2026-05-21T10:38:36.000Z</time>
      </trkpt>
      <trkpt lat="43.77656" lon="3.83276">
        <ele>460.6</ele>
        <time>2026-05-21T10:38:37.000Z</time>
      </trkpt>
      <trkpt lat="43.77656" lon="3.83276">
        <ele>460.6</ele>
        <time>2026-05-21T10:38:38.000Z</time>
      </trkpt>
      <trkpt lat="43.77656" lon="3.83276">
        <ele>460.6</ele>
        <time>2026-05-21T10:38:39.000Z</time>
      </trkpt>
      <trkpt lat="43.77656" lon="3.83276">
        <ele>460.4</ele>
        <time>2026-05-21T10:38:40.000Z</time>
      </trkpt>
      <trkpt lat="43.77656" lon="3.83276">
        <ele>460.3</ele>
        <time>2026-05-21T10:38:41.000Z</time>
      </trkpt>
      <trkpt lat="43.77656" lon="3.83276">
        <ele>460.3</ele>
        <time>2026-05-21T10:38:42.000Z</time>
      </trkpt>
      <trkpt lat="43.77656" lon="3.83276">
        <ele>460.3</ele>
        <time>2026-05-21T10:38:43.000Z</time>
      </trkpt>
      <trkpt lat="43.77656" lon="3.83276">
        <ele>460.2</ele>
        <time>2026-05-21T10:38:44.000Z</time>
      </trkpt>
      <trkpt lat="43.77656" lon="3.83276">
        <ele>460.2</ele>
        <time>2026-05-21T10:38:45.000Z</time>
      </trkpt>
      <trkpt lat="43.77656" lon="3.83275">
        <ele>460.4</ele>
        <time>2026-05-21T10:38:46.000Z</time>
      </trkpt>
      <trkpt lat="43.77656" lon="3.83276">
        <ele>460.4</ele>
        <time>2026-05-21T10:38:47.000Z</time>
      </trkpt>
      <trkpt lat="43.77655" lon="3.83276">
        <ele>460.4</ele>
        <time>2026-05-21T10:38:48.000Z</time>
      </trkpt>
      <trkpt lat="43.77655" lon="3.83276">
        <ele>460.3</ele>
        <time>2026-05-21T10:38:49.000Z</time>
      </trkpt>
      <trkpt lat="43.77655" lon="3.83276">
        <ele>460.3</ele>
        <time>2026-05-21T10:38:50.000Z</time>
      </trkpt>
      <trkpt lat="43.77656" lon="3.83276">
        <ele>460.3</ele>
        <time>2026-05-21T10:38:51.000Z</time>
      </trkpt>
      <trkpt lat="43.77656" lon="3.83276">
        <ele>460.4</ele>
        <time>2026-05-21T10:38:52.000Z</time>
      </trkpt>
      <trkpt lat="43.77656" lon="3.83276">
        <ele>460.5</ele>
        <time>2026-05-21T10:38:53.000Z</time>
      </trkpt>
      <trkpt lat="43.77656" lon="3.83276">
        <ele>460.9</ele>
        <time>2026-05-21T10:38:54.000Z</time>
      </trkpt>
      <trkpt lat="43.77655" lon="3.83276">
        <ele>460.9</ele>
        <time>2026-05-21T10:38:55.000Z</time>
      </trkpt>
      <trkpt lat="43.77656" lon="3.83276">
        <ele>460.9</ele>
        <time>2026-05-21T10:38:56.000Z</time>
      </trkpt>
      <trkpt lat="43.77656" lon="3.83276">
        <ele>460.7</ele>
        <time>2026-05-21T10:38:57.000Z</time>
      </trkpt>
      <trkpt lat="43.77656" lon="3.83276">
        <ele>460.6</ele>
        <time>2026-05-21T10:38:58.000Z</time>
      </trkpt>
      <trkpt lat="43.77656" lon="3.83276">
        <ele>460.7</ele>
        <time>2026-05-21T10:38:59.000Z</time>
      </trkpt>
      <trkpt lat="43.77656" lon="3.83276">
        <ele>460.7</ele>
        <time>2026-05-21T10:39:00.000Z</time>
      </trkpt>
      <trkpt lat="43.77656" lon="3.83276">
        <ele>460.5</ele>
        <time>2026-05-21T10:39:01.000Z</time>
      </trkpt>
      <trkpt lat="43.77656" lon="3.83276">
        <ele>460.4</ele>
        <time>2026-05-21T10:39:02.000Z</time>
      </trkpt>
      <trkpt lat="43.77656" lon="3.83276">
        <ele>460.4</ele>
        <time>2026-05-21T10:39:03.000Z</time>
      </trkpt>
      <trkpt lat="43.77656" lon="3.83276">
        <ele>460.4</ele>
        <time>2026-05-21T10:39:04.000Z</time>
      </trkpt>
      <trkpt lat="43.77656" lon="3.83276">
        <ele>460.2</ele>
        <time>2026-05-21T10:39:05.000Z</time>
      </trkpt>
      <trkpt lat="43.77656" lon="3.83276">
        <ele>460.2</ele>
        <time>2026-05-21T10:39:06.000Z</time>
      </trkpt>
      <trkpt lat="43.77656" lon="3.83276">
        <ele>460.3</ele>
        <time>2026-05-21T10:39:07.000Z</time>
      </trkpt>
      <trkpt lat="43.77656" lon="3.83276">
        <ele>460.2</ele>
        <time>2026-05-21T10:39:08.000Z</time>
      </trkpt>
      <trkpt lat="43.77656" lon="3.83276">
        <ele>460.2</ele>
        <time>2026-05-21T10:39:09.000Z</time>
      </trkpt>
      <trkpt lat="43.77656" lon="3.83276">
        <ele>460.4</ele>
        <time>2026-05-21T10:39:10.000Z</time>
      </trkpt>
      <trkpt lat="43.77656" lon="3.83275">
        <ele>460.5</ele>
        <time>2026-05-21T10:39:11.000Z</time>
      </trkpt>
      <trkpt lat="43.77656" lon="3.83275">
        <ele>460.6</ele>
        <time>2026-05-21T10:39:12.000Z</time>
      </trkpt>
      <trkpt lat="43.77656" lon="3.83275">
        <ele>460.7</ele>
        <time>2026-05-21T10:39:13.000Z</time>
      </trkpt>
      <trkpt lat="43.77656" lon="3.83275">
        <ele>460.7</ele>
        <time>2026-05-21T10:39:14.000Z</time>
      </trkpt>
      <trkpt lat="43.77656" lon="3.83275">
        <ele>460.7</ele>
        <time>2026-05-21T10:39:15.000Z</time>
      </trkpt>
      <trkpt lat="43.77656" lon="3.83275">
        <ele>460.8</ele>
        <time>2026-05-21T10:39:16.000Z</time>
      </trkpt>
      <trkpt lat="43.77656" lon="3.83275">
        <ele>461</ele>
        <time>2026-05-21T10:39:17.000Z</time>
      </trkpt>
      <trkpt lat="43.77656" lon="3.83275">
        <ele>460.9</ele>
        <time>2026-05-21T10:39:18.000Z</time>
      </trkpt>
      <trkpt lat="43.77656" lon="3.83275">
        <ele>460.8</ele>
        <time>2026-05-21T10:39:19.000Z</time>
      </trkpt>
      <trkpt lat="43.77656" lon="3.83275">
        <ele>460.5</ele>
        <time>2026-05-21T10:39:20.000Z</time>
      </trkpt>
      <trkpt lat="43.77656" lon="3.83275">
        <ele>460.5</ele>
        <time>2026-05-21T10:39:21.000Z</time>
      </trkpt>
      <trkpt lat="43.77656" lon="3.83275">
        <ele>460.5</ele>
        <time>2026-05-21T10:39:22.000Z</time>
      </trkpt>
      <trkpt lat="43.77656" lon="3.83275">
        <ele>460.6</ele>
        <time>2026-05-21T10:39:23.000Z</time>
      </trkpt>
      <trkpt lat="43.77656" lon="3.83275">
        <ele>460.6</ele>
        <time>2026-05-21T10:39:24.000Z</time>
      </trkpt>
      <trkpt lat="43.77656" lon="3.83275">
        <ele>460.6</ele>
        <time>2026-05-21T10:39:25.000Z</time>
      </trkpt>
      <trkpt lat="43.77656" lon="3.83275">
        <ele>460.5</ele>
        <time>2026-05-21T10:39:26.000Z</time>
      </trkpt>
      <trkpt lat="43.77655" lon="3.83275">
        <ele>460.5</ele>
        <time>2026-05-21T10:39:27.000Z</time>
      </trkpt>
      <trkpt lat="43.77655" lon="3.83275">
        <ele>460.3</ele>
        <time>2026-05-21T10:39:28.000Z</time>
      </trkpt>
      <trkpt lat="43.77655" lon="3.83275">
        <ele>460.1</ele>
        <time>2026-05-21T10:39:29.000Z</time>
      </trkpt>
      <trkpt lat="43.77655" lon="3.83275">
        <ele>459.8</ele>
        <time>2026-05-21T10:39:30.000Z</time>
      </trkpt>
      <trkpt lat="43.77655" lon="3.83275">
        <ele>459.7</ele>
        <time>2026-05-21T10:39:31.000Z</time>
      </trkpt>
      <trkpt lat="43.77655" lon="3.83275">
        <ele>459.8</ele>
        <time>2026-05-21T10:39:32.000Z</time>
      </trkpt>
      <trkpt lat="43.77655" lon="3.83275">
        <ele>459.8</ele>
        <time>2026-05-21T10:39:33.000Z</time>
      </trkpt>
      <trkpt lat="43.77655" lon="3.83275">
        <ele>459.7</ele>
        <time>2026-05-21T10:39:34.000Z</time>
      </trkpt>
      <trkpt lat="43.77654" lon="3.83275">
        <ele>459.8</ele>
        <time>2026-05-21T10:39:35.000Z</time>
      </trkpt>
      <trkpt lat="43.77653" lon="3.83275">
        <ele>459.7</ele>
        <time>2026-05-21T10:39:36.000Z</time>
      </trkpt>
      <trkpt lat="43.77654" lon="3.83275">
        <ele>459.6</ele>
        <time>2026-05-21T10:39:37.000Z</time>
      </trkpt>
      <trkpt lat="43.77654" lon="3.83275">
        <ele>459.4</ele>
        <time>2026-05-21T10:39:38.000Z</time>
      </trkpt>
      <trkpt lat="43.77653" lon="3.83275">
        <ele>459.5</ele>
        <time>2026-05-21T10:39:39.000Z</time>
      </trkpt>
      <trkpt lat="43.77653" lon="3.83275">
        <ele>459.4</ele>
        <time>2026-05-21T10:39:40.000Z</time>
      </trkpt>
      <trkpt lat="43.77653" lon="3.83275">
        <ele>459.4</ele>
        <time>2026-05-21T10:39:41.000Z</time>
      </trkpt>
      <trkpt lat="43.77653" lon="3.83274">
        <ele>459.1</ele>
        <time>2026-05-21T10:39:42.000Z</time>
      </trkpt>
      <trkpt lat="43.77653" lon="3.83274">
        <ele>459.1</ele>
        <time>2026-05-21T10:39:43.000Z</time>
      </trkpt>
      <trkpt lat="43.77653" lon="3.83274">
        <ele>458.9</ele>
        <time>2026-05-21T10:39:44.000Z</time>
      </trkpt>
      <trkpt lat="43.77653" lon="3.83274">
        <ele>458.8</ele>
        <time>2026-05-21T10:39:45.000Z</time>
      </trkpt>
      <trkpt lat="43.77653" lon="3.83274">
        <ele>458.6</ele>
        <time>2026-05-21T10:39:46.000Z</time>
      </trkpt>
      <trkpt lat="43.77653" lon="3.83274">
        <ele>458.4</ele>
        <time>2026-05-21T10:39:47.000Z</time>
      </trkpt>
      <trkpt lat="43.77653" lon="3.83274">
        <ele>458.2</ele>
        <time>2026-05-21T10:39:48.000Z</time>
      </trkpt>
      <trkpt lat="43.77653" lon="3.83274">
        <ele>458.2</ele>
        <time>2026-05-21T10:39:49.000Z</time>
      </trkpt>
      <trkpt lat="43.77653" lon="3.83274">
        <ele>457.9</ele>
        <time>2026-05-21T10:39:50.000Z</time>
      </trkpt>
      <trkpt lat="43.77653" lon="3.83274">
        <ele>458.1</ele>
        <time>2026-05-21T10:39:51.000Z</time>
      </trkpt>
      <trkpt lat="43.77653" lon="3.83274">
        <ele>458.3</ele>
        <time>2026-05-21T10:39:52.000Z</time>
      </trkpt>
      <trkpt lat="43.77653" lon="3.83274">
        <ele>458.5</ele>
        <time>2026-05-21T10:39:53.000Z</time>
      </trkpt>
      <trkpt lat="43.77653" lon="3.83274">
        <ele>458.5</ele>
        <time>2026-05-21T10:39:54.000Z</time>
      </trkpt>
      <trkpt lat="43.77653" lon="3.83274">
        <ele>458.5</ele>
        <time>2026-05-21T10:39:55.000Z</time>
      </trkpt>
      <trkpt lat="43.77653" lon="3.83274">
        <ele>458.6</ele>
        <time>2026-05-21T10:39:56.000Z</time>
      </trkpt>
      <trkpt lat="43.77653" lon="3.83274">
        <ele>458.6</ele>
        <time>2026-05-21T10:39:57.000Z</time>
      </trkpt>
      <trkpt lat="43.77653" lon="3.83274">
        <ele>458.6</ele>
        <time>2026-05-21T10:39:58.000Z</time>
      </trkpt>
      <trkpt lat="43.77653" lon="3.83274">
        <ele>458.5</ele>
        <time>2026-05-21T10:39:59.000Z</time>
      </trkpt>
      <trkpt lat="43.77653" lon="3.83274">
        <ele>458.4</ele>
        <time>2026-05-21T10:40:00.000Z</time>
      </trkpt>
      <trkpt lat="43.77653" lon="3.83274">
        <ele>458.5</ele>
        <time>2026-05-21T10:40:01.000Z</time>
      </trkpt>
      <trkpt lat="43.77653" lon="3.83273">
        <ele>458.6</ele>
        <time>2026-05-21T10:40:02.000Z</time>
      </trkpt>
      <trkpt lat="43.77653" lon="3.83273">
        <ele>458.5</ele>
        <time>2026-05-21T10:40:03.000Z</time>
      </trkpt>
      <trkpt lat="43.77653" lon="3.83273">
        <ele>458.5</ele>
        <time>2026-05-21T10:40:04.000Z</time>
      </trkpt>
      <trkpt lat="43.77653" lon="3.83273">
        <ele>458.6</ele>
        <time>2026-05-21T10:40:05.000Z</time>
      </trkpt>
      <trkpt lat="43.77653" lon="3.83273">
        <ele>458.7</ele>
        <time>2026-05-21T10:40:06.000Z</time>
      </trkpt>
      <trkpt lat="43.77653" lon="3.83273">
        <ele>458.9</ele>
        <time>2026-05-21T10:40:07.000Z</time>
      </trkpt>
      <trkpt lat="43.77653" lon="3.83273">
        <ele>458.9</ele>
        <time>2026-05-21T10:40:08.000Z</time>
      </trkpt>
      <trkpt lat="43.77653" lon="3.83272">
        <ele>458.9</ele>
        <time>2026-05-21T10:40:09.000Z</time>
      </trkpt>
      <trkpt lat="43.77653" lon="3.83272">
        <ele>458.7</ele>
        <time>2026-05-21T10:40:10.000Z</time>
      </trkpt>
      <trkpt lat="43.77653" lon="3.83272">
        <ele>458.7</ele>
        <time>2026-05-21T10:40:11.000Z</time>
      </trkpt>
      <trkpt lat="43.77653" lon="3.83272">
        <ele>458.5</ele>
        <time>2026-05-21T10:40:12.000Z</time>
      </trkpt>
      <trkpt lat="43.77653" lon="3.83272">
        <ele>458.1</ele>
        <time>2026-05-21T10:40:13.000Z</time>
      </trkpt>
      <trkpt lat="43.77653" lon="3.83272">
        <ele>457.8</ele>
        <time>2026-05-21T10:40:14.000Z</time>
      </trkpt>
      <trkpt lat="43.77653" lon="3.83272">
        <ele>457.7</ele>
        <time>2026-05-21T10:40:15.000Z</time>
      </trkpt>
      <trkpt lat="43.77653" lon="3.83271">
        <ele>457.7</ele>
        <time>2026-05-21T10:40:16.000Z</time>
      </trkpt>
      <trkpt lat="43.77653" lon="3.83271">
        <ele>457.6</ele>
        <time>2026-05-21T10:40:17.000Z</time>
      </trkpt>
      <trkpt lat="43.77653" lon="3.83271">
        <ele>457.5</ele>
        <time>2026-05-21T10:40:18.000Z</time>
      </trkpt>
      <trkpt lat="43.77653" lon="3.83271">
        <ele>457.4</ele>
        <time>2026-05-21T10:40:19.000Z</time>
      </trkpt>
      <trkpt lat="43.77653" lon="3.83271">
        <ele>457.2</ele>
        <time>2026-05-21T10:40:20.000Z</time>
      </trkpt>
      <trkpt lat="43.77653" lon="3.83271">
        <ele>456.9</ele>
        <time>2026-05-21T10:40:21.000Z</time>
      </trkpt>
      <trkpt lat="43.77653" lon="3.83271">
        <ele>456.6</ele>
        <time>2026-05-21T10:40:22.000Z</time>
      </trkpt>
      <trkpt lat="43.77653" lon="3.83271">
        <ele>456.6</ele>
        <time>2026-05-21T10:40:23.000Z</time>
      </trkpt>
      <trkpt lat="43.77653" lon="3.83271">
        <ele>456.4</ele>
        <time>2026-05-21T10:40:24.000Z</time>
      </trkpt>
      <trkpt lat="43.77653" lon="3.8327">
        <ele>456.3</ele>
        <time>2026-05-21T10:40:25.000Z</time>
      </trkpt>
      <trkpt lat="43.77653" lon="3.8327">
        <ele>456.4</ele>
        <time>2026-05-21T10:40:26.000Z</time>
      </trkpt>
      <trkpt lat="43.77653" lon="3.8327">
        <ele>456.3</ele>
        <time>2026-05-21T10:40:27.000Z</time>
      </trkpt>
      <trkpt lat="43.77653" lon="3.8327">
        <ele>456.2</ele>
        <time>2026-05-21T10:40:28.000Z</time>
      </trkpt>
      <trkpt lat="43.77653" lon="3.8327">
        <ele>456</ele>
        <time>2026-05-21T10:40:29.000Z</time>
      </trkpt>
      <trkpt lat="43.77653" lon="3.8327">
        <ele>455.9</ele>
        <time>2026-05-21T10:40:30.000Z</time>
      </trkpt>
      <trkpt lat="43.77653" lon="3.8327">
        <ele>455.9</ele>
        <time>2026-05-21T10:40:31.000Z</time>
      </trkpt>
      <trkpt lat="43.77653" lon="3.8327">
        <ele>455.9</ele>
        <time>2026-05-21T10:40:32.000Z</time>
      </trkpt>
      <trkpt lat="43.77653" lon="3.83269">
        <ele>455.6</ele>
        <time>2026-05-21T10:40:33.000Z</time>
      </trkpt>
      <trkpt lat="43.77653" lon="3.83269">
        <ele>455.3</ele>
        <time>2026-05-21T10:40:34.000Z</time>
      </trkpt>
      <trkpt lat="43.77653" lon="3.83269">
        <ele>455.1</ele>
        <time>2026-05-21T10:40:35.000Z</time>
      </trkpt>
      <trkpt lat="43.77653" lon="3.83269">
        <ele>455.1</ele>
        <time>2026-05-21T10:40:36.000Z</time>
      </trkpt>
      <trkpt lat="43.77653" lon="3.83269">
        <ele>454.9</ele>
        <time>2026-05-21T10:40:37.000Z</time>
      </trkpt>
      <trkpt lat="43.77653" lon="3.83269">
        <ele>454.6</ele>
        <time>2026-05-21T10:40:38.000Z</time>
      </trkpt>
      <trkpt lat="43.77653" lon="3.83269">
        <ele>454.5</ele>
        <time>2026-05-21T10:40:39.000Z</time>
      </trkpt>
      <trkpt lat="43.77653" lon="3.83269">
        <ele>454.5</ele>
        <time>2026-05-21T10:40:40.000Z</time>
      </trkpt>
      <trkpt lat="43.77653" lon="3.83268">
        <ele>454.2</ele>
        <time>2026-05-21T10:40:41.000Z</time>
      </trkpt>
      <trkpt lat="43.77653" lon="3.83268">
        <ele>454.1</ele>
        <time>2026-05-21T10:40:42.000Z</time>
      </trkpt>
      <trkpt lat="43.77653" lon="3.83268">
        <ele>453.9</ele>
        <time>2026-05-21T10:40:43.000Z</time>
      </trkpt>
      <trkpt lat="43.77653" lon="3.83268">
        <ele>453.7</ele>
        <time>2026-05-21T10:40:44.000Z</time>
      </trkpt>
      <trkpt lat="43.77653" lon="3.83268">
        <ele>453.5</ele>
        <time>2026-05-21T10:40:45.000Z</time>
      </trkpt>
      <trkpt lat="43.77653" lon="3.83268">
        <ele>453.5</ele>
        <time>2026-05-21T10:40:46.000Z</time>
      </trkpt>
      <trkpt lat="43.77653" lon="3.83268">
        <ele>453.3</ele>
        <time>2026-05-21T10:40:47.000Z</time>
      </trkpt>
      <trkpt lat="43.77653" lon="3.83268">
        <ele>453.2</ele>
        <time>2026-05-21T10:40:48.000Z</time>
      </trkpt>
      <trkpt lat="43.77653" lon="3.83268">
        <ele>453</ele>
        <time>2026-05-21T10:40:49.000Z</time>
      </trkpt>
      <trkpt lat="43.77653" lon="3.83267">
        <ele>453</ele>
        <time>2026-05-21T10:40:50.000Z</time>
      </trkpt>
      <trkpt lat="43.77653" lon="3.83267">
        <ele>453.1</ele>
        <time>2026-05-21T10:40:51.000Z</time>
      </trkpt>
      <trkpt lat="43.77653" lon="3.83267">
        <ele>453.3</ele>
        <time>2026-05-21T10:40:52.000Z</time>
      </trkpt>
      <trkpt lat="43.77653" lon="3.83267">
        <ele>453.3</ele>
        <time>2026-05-21T10:40:53.000Z</time>
      </trkpt>
      <trkpt lat="43.77653" lon="3.83266">
        <ele>453.3</ele>
        <time>2026-05-21T10:40:54.000Z</time>
      </trkpt>
      <trkpt lat="43.77653" lon="3.83266">
        <ele>453.3</ele>
        <time>2026-05-21T10:40:55.000Z</time>
      </trkpt>
      <trkpt lat="43.77653" lon="3.83266">
        <ele>453.3</ele>
        <time>2026-05-21T10:40:56.000Z</time>
      </trkpt>
      <trkpt lat="43.77653" lon="3.83265">
        <ele>453.2</ele>
        <time>2026-05-21T10:40:57.000Z</time>
      </trkpt>
      <trkpt lat="43.77653" lon="3.83265">
        <ele>453</ele>
        <time>2026-05-21T10:40:58.000Z</time>
      </trkpt>
      <trkpt lat="43.77653" lon="3.83265">
        <ele>452.9</ele>
        <time>2026-05-21T10:40:59.000Z</time>
      </trkpt>
      <trkpt lat="43.77653" lon="3.83265">
        <ele>452.6</ele>
        <time>2026-05-21T10:41:00.000Z</time>
      </trkpt>
      <trkpt lat="43.77653" lon="3.83265">
        <ele>452.4</ele>
        <time>2026-05-21T10:41:01.000Z</time>
      </trkpt>
      <trkpt lat="43.77653" lon="3.83264">
        <ele>452.3</ele>
        <time>2026-05-21T10:41:02.000Z</time>
      </trkpt>
      <trkpt lat="43.77653" lon="3.83264">
        <ele>451.9</ele>
        <time>2026-05-21T10:41:03.000Z</time>
      </trkpt>
      <trkpt lat="43.77653" lon="3.83264">
        <ele>451.6</ele>
        <time>2026-05-21T10:41:04.000Z</time>
      </trkpt>
      <trkpt lat="43.77652" lon="3.83264">
        <ele>451.3</ele>
        <time>2026-05-21T10:41:05.000Z</time>
      </trkpt>
      <trkpt lat="43.77652" lon="3.83264">
        <ele>451.1</ele>
        <time>2026-05-21T10:41:06.000Z</time>
      </trkpt>
      <trkpt lat="43.77652" lon="3.83264">
        <ele>451</ele>
        <time>2026-05-21T10:41:07.000Z</time>
      </trkpt>
      <trkpt lat="43.77652" lon="3.83264">
        <ele>450.9</ele>
        <time>2026-05-21T10:41:08.000Z</time>
      </trkpt>
      <trkpt lat="43.77652" lon="3.83264">
        <ele>450.8</ele>
        <time>2026-05-21T10:41:09.000Z</time>
      </trkpt>
      <trkpt lat="43.77652" lon="3.83264">
        <ele>450.7</ele>
        <time>2026-05-21T10:41:10.000Z</time>
      </trkpt>
      <trkpt lat="43.77652" lon="3.83264">
        <ele>450.7</ele>
        <time>2026-05-21T10:41:11.000Z</time>
      </trkpt>
      <trkpt lat="43.77652" lon="3.83263">
        <ele>450.7</ele>
        <time>2026-05-21T10:41:12.000Z</time>
      </trkpt>
      <trkpt lat="43.77652" lon="3.83263">
        <ele>450.4</ele>
        <time>2026-05-21T10:41:13.000Z</time>
      </trkpt>
      <trkpt lat="43.77652" lon="3.83263">
        <ele>450.3</ele>
        <time>2026-05-21T10:41:14.000Z</time>
      </trkpt>
      <trkpt lat="43.77652" lon="3.83263">
        <ele>450.2</ele>
        <time>2026-05-21T10:41:15.000Z</time>
      </trkpt>
      <trkpt lat="43.77652" lon="3.83263">
        <ele>450.1</ele>
        <time>2026-05-21T10:41:16.000Z</time>
      </trkpt>
      <trkpt lat="43.77652" lon="3.83263">
        <ele>450.2</ele>
        <time>2026-05-21T10:41:17.000Z</time>
      </trkpt>
      <trkpt lat="43.77652" lon="3.83263">
        <ele>450.3</ele>
        <time>2026-05-21T10:41:18.000Z</time>
      </trkpt>
      <trkpt lat="43.77652" lon="3.83263">
        <ele>450.4</ele>
        <time>2026-05-21T10:41:19.000Z</time>
      </trkpt>
      <trkpt lat="43.77652" lon="3.83262">
        <ele>450.4</ele>
        <time>2026-05-21T10:41:20.000Z</time>
      </trkpt>
      <trkpt lat="43.77652" lon="3.83262">
        <ele>450.5</ele>
        <time>2026-05-21T10:41:21.000Z</time>
      </trkpt>
      <trkpt lat="43.77652" lon="3.83262">
        <ele>450.5</ele>
        <time>2026-05-21T10:41:22.000Z</time>
      </trkpt>
      <trkpt lat="43.77652" lon="3.83262">
        <ele>450.6</ele>
        <time>2026-05-21T10:41:23.000Z</time>
      </trkpt>
      <trkpt lat="43.77652" lon="3.83262">
        <ele>450.7</ele>
        <time>2026-05-21T10:41:24.000Z</time>
      </trkpt>
      <trkpt lat="43.77652" lon="3.83262">
        <ele>450.4</ele>
        <time>2026-05-21T10:41:25.000Z</time>
      </trkpt>
      <trkpt lat="43.77652" lon="3.83262">
        <ele>450.1</ele>
        <time>2026-05-21T10:41:26.000Z</time>
      </trkpt>
      <trkpt lat="43.77652" lon="3.83262">
        <ele>449.7</ele>
        <time>2026-05-21T10:41:27.000Z</time>
      </trkpt>
      <trkpt lat="43.77652" lon="3.83262">
        <ele>449.5</ele>
        <time>2026-05-21T10:41:28.000Z</time>
      </trkpt>
      <trkpt lat="43.77652" lon="3.83262">
        <ele>449.4</ele>
        <time>2026-05-21T10:41:29.000Z</time>
      </trkpt>
      <trkpt lat="43.77652" lon="3.83262">
        <ele>449.1</ele>
        <time>2026-05-21T10:41:30.000Z</time>
      </trkpt>
      <trkpt lat="43.77652" lon="3.83262">
        <ele>448.9</ele>
        <time>2026-05-21T10:41:31.000Z</time>
      </trkpt>
      <trkpt lat="43.77652" lon="3.83262">
        <ele>448.8</ele>
        <time>2026-05-21T10:41:32.000Z</time>
      </trkpt>
      <trkpt lat="43.77652" lon="3.83262">
        <ele>448.7</ele>
        <time>2026-05-21T10:41:33.000Z</time>
      </trkpt>
      <trkpt lat="43.77652" lon="3.83262">
        <ele>448.5</ele>
        <time>2026-05-21T10:41:34.000Z</time>
      </trkpt>
      <trkpt lat="43.77652" lon="3.83262">
        <ele>448.6</ele>
        <time>2026-05-21T10:41:35.000Z</time>
      </trkpt>
      <trkpt lat="43.77652" lon="3.83262">
        <ele>448.5</ele>
        <time>2026-05-21T10:41:36.000Z</time>
      </trkpt>
      <trkpt lat="43.77652" lon="3.83262">
        <ele>448.7</ele>
        <time>2026-05-21T10:41:37.000Z</time>
      </trkpt>
      <trkpt lat="43.77652" lon="3.83261">
        <ele>448.6</ele>
        <time>2026-05-21T10:41:38.000Z</time>
      </trkpt>
      <trkpt lat="43.77652" lon="3.83261">
        <ele>448.6</ele>
        <time>2026-05-21T10:41:39.000Z</time>
      </trkpt>
      <trkpt lat="43.77652" lon="3.83261">
        <ele>448.8</ele>
        <time>2026-05-21T10:41:40.000Z</time>
      </trkpt>
      <trkpt lat="43.77652" lon="3.83261">
        <ele>448.8</ele>
        <time>2026-05-21T10:41:41.000Z</time>
      </trkpt>
      <trkpt lat="43.77652" lon="3.83261">
        <ele>448.9</ele>
        <time>2026-05-21T10:41:42.000Z</time>
      </trkpt>
      <trkpt lat="43.77652" lon="3.83261">
        <ele>449</ele>
        <time>2026-05-21T10:41:43.000Z</time>
      </trkpt>
      <trkpt lat="43.77652" lon="3.83261">
        <ele>448.7</ele>
        <time>2026-05-21T10:41:44.000Z</time>
      </trkpt>
      <trkpt lat="43.77652" lon="3.83261">
        <ele>448.7</ele>
        <time>2026-05-21T10:41:45.000Z</time>
      </trkpt>
      <trkpt lat="43.77652" lon="3.83261">
        <ele>448.9</ele>
        <time>2026-05-21T10:41:46.000Z</time>
      </trkpt>
      <trkpt lat="43.77652" lon="3.83261">
        <ele>448.8</ele>
        <time>2026-05-21T10:41:47.000Z</time>
      </trkpt>
      <trkpt lat="43.77652" lon="3.83261">
        <ele>448.4</ele>
        <time>2026-05-21T10:41:48.000Z</time>
      </trkpt>
      <trkpt lat="43.77651" lon="3.83261">
        <ele>448.4</ele>
        <time>2026-05-21T10:41:49.000Z</time>
      </trkpt>
      <trkpt lat="43.77651" lon="3.83261">
        <ele>448.2</ele>
        <time>2026-05-21T10:41:50.000Z</time>
      </trkpt>
      <trkpt lat="43.77651" lon="3.83261">
        <ele>448.2</ele>
        <time>2026-05-21T10:41:51.000Z</time>
      </trkpt>
      <trkpt lat="43.77651" lon="3.83261">
        <ele>448.2</ele>
        <time>2026-05-21T10:41:52.000Z</time>
      </trkpt>
      <trkpt lat="43.77651" lon="3.83261">
        <ele>448</ele>
        <time>2026-05-21T10:41:53.000Z</time>
      </trkpt>
      <trkpt lat="43.77651" lon="3.83261">
        <ele>447.8</ele>
        <time>2026-05-21T10:41:54.000Z</time>
      </trkpt>
      <trkpt lat="43.77651" lon="3.83261">
        <ele>447.8</ele>
        <time>2026-05-21T10:41:55.000Z</time>
      </trkpt>
      <trkpt lat="43.77651" lon="3.83261">
        <ele>447.9</ele>
        <time>2026-05-21T10:41:56.000Z</time>
      </trkpt>
      <trkpt lat="43.77651" lon="3.83261">
        <ele>447.9</ele>
        <time>2026-05-21T10:41:57.000Z</time>
      </trkpt>
      <trkpt lat="43.77651" lon="3.83261">
        <ele>448</ele>
        <time>2026-05-21T10:41:58.000Z</time>
      </trkpt>
      <trkpt lat="43.77651" lon="3.83261">
        <ele>448.1</ele>
        <time>2026-05-21T10:41:59.000Z</time>
      </trkpt>
      <trkpt lat="43.77651" lon="3.83261">
        <ele>448.1</ele>
        <time>2026-05-21T10:42:00.000Z</time>
      </trkpt>
      <trkpt lat="43.77651" lon="3.83261">
        <ele>447.7</ele>
        <time>2026-05-21T10:42:01.000Z</time>
      </trkpt>
      <trkpt lat="43.77651" lon="3.83261">
        <ele>447.5</ele>
        <time>2026-05-21T10:42:02.000Z</time>
      </trkpt>
      <trkpt lat="43.77651" lon="3.83261">
        <ele>447.7</ele>
        <time>2026-05-21T10:42:03.000Z</time>
      </trkpt>
      <trkpt lat="43.77651" lon="3.83261">
        <ele>448</ele>
        <time>2026-05-21T10:42:04.000Z</time>
      </trkpt>
      <trkpt lat="43.77651" lon="3.83261">
        <ele>448.1</ele>
        <time>2026-05-21T10:42:05.000Z</time>
      </trkpt>
      <trkpt lat="43.77651" lon="3.83261">
        <ele>448.2</ele>
        <time>2026-05-21T10:42:06.000Z</time>
      </trkpt>
      <trkpt lat="43.77651" lon="3.83261">
        <ele>448.3</ele>
        <time>2026-05-21T10:42:07.000Z</time>
      </trkpt>
      <trkpt lat="43.77651" lon="3.8326">
        <ele>448.5</ele>
        <time>2026-05-21T10:42:08.000Z</time>
      </trkpt>
      <trkpt lat="43.77651" lon="3.8326">
        <ele>448.5</ele>
        <time>2026-05-21T10:42:09.000Z</time>
      </trkpt>
      <trkpt lat="43.77651" lon="3.8326">
        <ele>448.3</ele>
        <time>2026-05-21T10:42:10.000Z</time>
      </trkpt>
      <trkpt lat="43.77651" lon="3.8326">
        <ele>448.4</ele>
        <time>2026-05-21T10:42:11.000Z</time>
      </trkpt>
      <trkpt lat="43.77651" lon="3.8326">
        <ele>448.5</ele>
        <time>2026-05-21T10:42:12.000Z</time>
      </trkpt>
      <trkpt lat="43.77651" lon="3.8326">
        <ele>448.6</ele>
        <time>2026-05-21T10:42:13.000Z</time>
      </trkpt>
      <trkpt lat="43.77651" lon="3.8326">
        <ele>448.8</ele>
        <time>2026-05-21T10:42:14.000Z</time>
      </trkpt>
      <trkpt lat="43.77651" lon="3.8326">
        <ele>448.8</ele>
        <time>2026-05-21T10:42:15.000Z</time>
      </trkpt>
      <trkpt lat="43.77651" lon="3.8326">
        <ele>448.9</ele>
        <time>2026-05-21T10:42:16.000Z</time>
      </trkpt>
      <trkpt lat="43.77651" lon="3.8326">
        <ele>449</ele>
        <time>2026-05-21T10:42:17.000Z</time>
      </trkpt>
      <trkpt lat="43.77651" lon="3.83259">
        <ele>449.1</ele>
        <time>2026-05-21T10:42:18.000Z</time>
      </trkpt>
      <trkpt lat="43.7765" lon="3.83258">
        <ele>449</ele>
        <time>2026-05-21T10:42:19.000Z</time>
      </trkpt>
      <trkpt lat="43.7765" lon="3.83258">
        <ele>449</ele>
        <time>2026-05-21T10:42:20.000Z</time>
      </trkpt>
      <trkpt lat="43.7765" lon="3.83258">
        <ele>449.2</ele>
        <time>2026-05-21T10:42:21.000Z</time>
      </trkpt>
      <trkpt lat="43.7765" lon="3.83258">
        <ele>449.4</ele>
        <time>2026-05-21T10:42:22.000Z</time>
      </trkpt>
      <trkpt lat="43.7765" lon="3.83258">
        <ele>449.4</ele>
        <time>2026-05-21T10:42:23.000Z</time>
      </trkpt>
      <trkpt lat="43.7765" lon="3.83258">
        <ele>449.3</ele>
        <time>2026-05-21T10:42:24.000Z</time>
      </trkpt>
      <trkpt lat="43.7765" lon="3.83258">
        <ele>449.5</ele>
        <time>2026-05-21T10:42:25.000Z</time>
      </trkpt>
      <trkpt lat="43.7765" lon="3.83258">
        <ele>449.7</ele>
        <time>2026-05-21T10:42:26.000Z</time>
      </trkpt>
      <trkpt lat="43.7765" lon="3.83258">
        <ele>449.8</ele>
        <time>2026-05-21T10:42:27.000Z</time>
      </trkpt>
      <trkpt lat="43.7765" lon="3.83258">
        <ele>449.8</ele>
        <time>2026-05-21T10:42:28.000Z</time>
      </trkpt>
      <trkpt lat="43.7765" lon="3.83258">
        <ele>449.9</ele>
        <time>2026-05-21T10:42:29.000Z</time>
      </trkpt>
      <trkpt lat="43.7765" lon="3.83258">
        <ele>450</ele>
        <time>2026-05-21T10:42:30.000Z</time>
      </trkpt>
      <trkpt lat="43.7765" lon="3.83258">
        <ele>450.1</ele>
        <time>2026-05-21T10:42:31.000Z</time>
      </trkpt>
      <trkpt lat="43.7765" lon="3.83258">
        <ele>450.3</ele>
        <time>2026-05-21T10:42:32.000Z</time>
      </trkpt>
      <trkpt lat="43.7765" lon="3.83258">
        <ele>450.4</ele>
        <time>2026-05-21T10:42:33.000Z</time>
      </trkpt>
      <trkpt lat="43.7765" lon="3.83258">
        <ele>450.7</ele>
        <time>2026-05-21T10:42:34.000Z</time>
      </trkpt>
      <trkpt lat="43.7765" lon="3.83258">
        <ele>450.9</ele>
        <time>2026-05-21T10:42:35.000Z</time>
      </trkpt>
      <trkpt lat="43.7765" lon="3.83258">
        <ele>451</ele>
        <time>2026-05-21T10:42:36.000Z</time>
      </trkpt>
      <trkpt lat="43.7765" lon="3.83258">
        <ele>451.2</ele>
        <time>2026-05-21T10:42:37.000Z</time>
      </trkpt>
      <trkpt lat="43.7765" lon="3.83258">
        <ele>451.3</ele>
        <time>2026-05-21T10:42:38.000Z</time>
      </trkpt>
      <trkpt lat="43.7765" lon="3.83258">
        <ele>451.4</ele>
        <time>2026-05-21T10:42:39.000Z</time>
      </trkpt>
      <trkpt lat="43.7765" lon="3.83258">
        <ele>451.4</ele>
        <time>2026-05-21T10:42:40.000Z</time>
      </trkpt>
      <trkpt lat="43.77649" lon="3.83258">
        <ele>451.3</ele>
        <time>2026-05-21T10:42:41.000Z</time>
      </trkpt>
      <trkpt lat="43.77649" lon="3.83258">
        <ele>451.2</ele>
        <time>2026-05-21T10:42:42.000Z</time>
      </trkpt>
      <trkpt lat="43.77649" lon="3.83258">
        <ele>451.3</ele>
        <time>2026-05-21T10:42:43.000Z</time>
      </trkpt>
      <trkpt lat="43.77649" lon="3.83258">
        <ele>451.3</ele>
        <time>2026-05-21T10:42:44.000Z</time>
      </trkpt>
      <trkpt lat="43.77649" lon="3.83258">
        <ele>451.3</ele>
        <time>2026-05-21T10:42:45.000Z</time>
      </trkpt>
      <trkpt lat="43.77649" lon="3.83258">
        <ele>451.3</ele>
        <time>2026-05-21T10:42:46.000Z</time>
      </trkpt>
      <trkpt lat="43.77649" lon="3.83258">
        <ele>451.2</ele>
        <time>2026-05-21T10:42:47.000Z</time>
      </trkpt>
      <trkpt lat="43.77649" lon="3.83258">
        <ele>451.3</ele>
        <time>2026-05-21T10:42:48.000Z</time>
      </trkpt>
      <trkpt lat="43.77649" lon="3.83258">
        <ele>451.6</ele>
        <time>2026-05-21T10:42:49.000Z</time>
      </trkpt>
      <trkpt lat="43.77649" lon="3.83258">
        <ele>451.8</ele>
        <time>2026-05-21T10:42:50.000Z</time>
      </trkpt>
      <trkpt lat="43.77649" lon="3.83258">
        <ele>451.7</ele>
        <time>2026-05-21T10:42:51.000Z</time>
      </trkpt>
      <trkpt lat="43.77649" lon="3.83258">
        <ele>451.6</ele>
        <time>2026-05-21T10:42:52.000Z</time>
      </trkpt>
      <trkpt lat="43.77649" lon="3.83258">
        <ele>451.5</ele>
        <time>2026-05-21T10:42:53.000Z</time>
      </trkpt>
      <trkpt lat="43.77649" lon="3.83258">
        <ele>451.5</ele>
        <time>2026-05-21T10:42:54.000Z</time>
      </trkpt>
      <trkpt lat="43.77649" lon="3.83258">
        <ele>451.4</ele>
        <time>2026-05-21T10:42:55.000Z</time>
      </trkpt>
      <trkpt lat="43.77649" lon="3.83258">
        <ele>451.4</ele>
        <time>2026-05-21T10:42:56.000Z</time>
      </trkpt>
      <trkpt lat="43.77649" lon="3.83258">
        <ele>451.4</ele>
        <time>2026-05-21T10:42:57.000Z</time>
      </trkpt>
      <trkpt lat="43.77649" lon="3.83258">
        <ele>451.2</ele>
        <time>2026-05-21T10:42:58.000Z</time>
      </trkpt>
      <trkpt lat="43.77649" lon="3.83258">
        <ele>451.1</ele>
        <time>2026-05-21T10:42:59.000Z</time>
      </trkpt>
      <trkpt lat="43.77649" lon="3.83258">
        <ele>450.9</ele>
        <time>2026-05-21T10:43:00.000Z</time>
      </trkpt>
      <trkpt lat="43.77649" lon="3.83258">
        <ele>450.8</ele>
        <time>2026-05-21T10:43:01.000Z</time>
      </trkpt>
      <trkpt lat="43.77649" lon="3.83258">
        <ele>450.8</ele>
        <time>2026-05-21T10:43:02.000Z</time>
      </trkpt>
      <trkpt lat="43.77649" lon="3.83258">
        <ele>450.8</ele>
        <time>2026-05-21T10:43:03.000Z</time>
      </trkpt>
      <trkpt lat="43.77649" lon="3.83258">
        <ele>450.7</ele>
        <time>2026-05-21T10:43:04.000Z</time>
      </trkpt>
      <trkpt lat="43.77649" lon="3.83258">
        <ele>450.7</ele>
        <time>2026-05-21T10:43:05.000Z</time>
      </trkpt>
      <trkpt lat="43.77649" lon="3.83258">
        <ele>450.7</ele>
        <time>2026-05-21T10:43:06.000Z</time>
      </trkpt>
      <trkpt lat="43.77649" lon="3.83258">
        <ele>450.8</ele>
        <time>2026-05-21T10:43:07.000Z</time>
      </trkpt>
      <trkpt lat="43.77649" lon="3.83258">
        <ele>450.9</ele>
        <time>2026-05-21T10:43:08.000Z</time>
      </trkpt>
      <trkpt lat="43.77649" lon="3.83258">
        <ele>451</ele>
        <time>2026-05-21T10:43:09.000Z</time>
      </trkpt>
      <trkpt lat="43.77649" lon="3.83258">
        <ele>451.2</ele>
        <time>2026-05-21T10:43:10.000Z</time>
      </trkpt>
      <trkpt lat="43.77649" lon="3.83258">
        <ele>451.4</ele>
        <time>2026-05-21T10:43:11.000Z</time>
      </trkpt>
      <trkpt lat="43.77649" lon="3.83258">
        <ele>451.6</ele>
        <time>2026-05-21T10:43:12.000Z</time>
      </trkpt>
      <trkpt lat="43.77649" lon="3.83258">
        <ele>451.7</ele>
        <time>2026-05-21T10:43:13.000Z</time>
      </trkpt>
      <trkpt lat="43.77649" lon="3.83258">
        <ele>452</ele>
        <time>2026-05-21T10:43:14.000Z</time>
      </trkpt>
      <trkpt lat="43.77649" lon="3.83258">
        <ele>452.1</ele>
        <time>2026-05-21T10:43:15.000Z</time>
      </trkpt>
      <trkpt lat="43.77649" lon="3.83258">
        <ele>452.1</ele>
        <time>2026-05-21T10:43:16.000Z</time>
      </trkpt>
      <trkpt lat="43.77649" lon="3.83258">
        <ele>452.3</ele>
        <time>2026-05-21T10:43:17.000Z</time>
      </trkpt>
      <trkpt lat="43.77649" lon="3.83258">
        <ele>452.4</ele>
        <time>2026-05-21T10:43:18.000Z</time>
      </trkpt>
      <trkpt lat="43.77649" lon="3.83258">
        <ele>452.4</ele>
        <time>2026-05-21T10:43:19.000Z</time>
      </trkpt>
      <trkpt lat="43.77649" lon="3.83258">
        <ele>452.3</ele>
        <time>2026-05-21T10:43:20.000Z</time>
      </trkpt>
      <trkpt lat="43.77649" lon="3.83258">
        <ele>452.4</ele>
        <time>2026-05-21T10:43:21.000Z</time>
      </trkpt>
      <trkpt lat="43.77649" lon="3.83258">
        <ele>452.5</ele>
        <time>2026-05-21T10:43:22.000Z</time>
      </trkpt>
      <trkpt lat="43.77649" lon="3.83258">
        <ele>452.5</ele>
        <time>2026-05-21T10:43:23.000Z</time>
      </trkpt>
      <trkpt lat="43.77649" lon="3.83258">
        <ele>452.5</ele>
        <time>2026-05-21T10:43:24.000Z</time>
      </trkpt>
      <trkpt lat="43.77649" lon="3.83258">
        <ele>452.4</ele>
        <time>2026-05-21T10:43:25.000Z</time>
      </trkpt>
      <trkpt lat="43.77649" lon="3.83258">
        <ele>452.4</ele>
        <time>2026-05-21T10:43:26.000Z</time>
      </trkpt>
      <trkpt lat="43.77649" lon="3.83258">
        <ele>452.4</ele>
        <time>2026-05-21T10:43:27.000Z</time>
      </trkpt>
      <trkpt lat="43.77649" lon="3.83258">
        <ele>452.5</ele>
        <time>2026-05-21T10:43:28.000Z</time>
      </trkpt>
      <trkpt lat="43.77648" lon="3.83258">
        <ele>452.5</ele>
        <time>2026-05-21T10:43:29.000Z</time>
      </trkpt>
      <trkpt lat="43.77648" lon="3.83258">
        <ele>452.4</ele>
        <time>2026-05-21T10:43:30.000Z</time>
      </trkpt>
      <trkpt lat="43.77648" lon="3.83258">
        <ele>452.5</ele>
        <time>2026-05-21T10:43:31.000Z</time>
      </trkpt>
      <trkpt lat="43.77648" lon="3.83258">
        <ele>452.6</ele>
        <time>2026-05-21T10:43:32.000Z</time>
      </trkpt>
      <trkpt lat="43.77648" lon="3.83258">
        <ele>452.6</ele>
        <time>2026-05-21T10:43:33.000Z</time>
      </trkpt>
      <trkpt lat="43.77648" lon="3.83258">
        <ele>452.7</ele>
        <time>2026-05-21T10:43:34.000Z</time>
      </trkpt>
      <trkpt lat="43.77648" lon="3.83258">
        <ele>452.7</ele>
        <time>2026-05-21T10:43:35.000Z</time>
      </trkpt>
      <trkpt lat="43.77648" lon="3.83258">
        <ele>452.8</ele>
        <time>2026-05-21T10:43:36.000Z</time>
      </trkpt>
      <trkpt lat="43.77648" lon="3.83258">
        <ele>452.9</ele>
        <time>2026-05-21T10:43:37.000Z</time>
      </trkpt>
      <trkpt lat="43.77648" lon="3.83258">
        <ele>452.8</ele>
        <time>2026-05-21T10:43:38.000Z</time>
      </trkpt>
      <trkpt lat="43.77648" lon="3.83258">
        <ele>452.8</ele>
        <time>2026-05-21T10:43:39.000Z</time>
      </trkpt>
      <trkpt lat="43.77648" lon="3.83258">
        <ele>452.9</ele>
        <time>2026-05-21T10:43:40.000Z</time>
      </trkpt>
      <trkpt lat="43.77648" lon="3.83258">
        <ele>452.9</ele>
        <time>2026-05-21T10:43:41.000Z</time>
      </trkpt>
      <trkpt lat="43.77648" lon="3.83258">
        <ele>452.7</ele>
        <time>2026-05-21T10:43:42.000Z</time>
      </trkpt>
      <trkpt lat="43.77648" lon="3.83258">
        <ele>452.7</ele>
        <time>2026-05-21T10:43:43.000Z</time>
      </trkpt>
      <trkpt lat="43.77648" lon="3.83258">
        <ele>452.5</ele>
        <time>2026-05-21T10:43:44.000Z</time>
      </trkpt>
      <trkpt lat="43.77648" lon="3.83258">
        <ele>452.4</ele>
        <time>2026-05-21T10:43:45.000Z</time>
      </trkpt>
      <trkpt lat="43.77648" lon="3.83258">
        <ele>452.5</ele>
        <time>2026-05-21T10:43:46.000Z</time>
      </trkpt>
      <trkpt lat="43.77648" lon="3.83258">
        <ele>452.6</ele>
        <time>2026-05-21T10:43:48.000Z</time>
      </trkpt>
      <trkpt lat="43.77648" lon="3.83258">
        <ele>452.8</ele>
        <time>2026-05-21T10:43:49.000Z</time>
      </trkpt>
      <trkpt lat="43.77648" lon="3.83258">
        <ele>452.8</ele>
        <time>2026-05-21T10:43:50.000Z</time>
      </trkpt>
      <trkpt lat="43.77648" lon="3.83258">
        <ele>452.9</ele>
        <time>2026-05-21T10:43:51.000Z</time>
      </trkpt>
      <trkpt lat="43.77648" lon="3.83258">
        <ele>453</ele>
        <time>2026-05-21T10:43:52.000Z</time>
      </trkpt>
      <trkpt lat="43.77648" lon="3.83258">
        <ele>452.8</ele>
        <time>2026-05-21T10:43:53.000Z</time>
      </trkpt>
      <trkpt lat="43.77648" lon="3.83258">
        <ele>452.7</ele>
        <time>2026-05-21T10:43:54.000Z</time>
      </trkpt>
      <trkpt lat="43.77648" lon="3.83258">
        <ele>452.7</ele>
        <time>2026-05-21T10:43:55.000Z</time>
      </trkpt>
      <trkpt lat="43.77648" lon="3.83258">
        <ele>452.6</ele>
        <time>2026-05-21T10:43:56.000Z</time>
      </trkpt>
      <trkpt lat="43.77648" lon="3.83258">
        <ele>452.4</ele>
        <time>2026-05-21T10:43:57.000Z</time>
      </trkpt>
      <trkpt lat="43.77648" lon="3.83258">
        <ele>452.3</ele>
        <time>2026-05-21T10:43:58.000Z</time>
      </trkpt>
      <trkpt lat="43.77648" lon="3.83258">
        <ele>452.3</ele>
        <time>2026-05-21T10:43:59.000Z</time>
      </trkpt>
      <trkpt lat="43.77648" lon="3.83258">
        <ele>452.2</ele>
        <time>2026-05-21T10:44:00.000Z</time>
      </trkpt>
      <trkpt lat="43.77648" lon="3.83258">
        <ele>452</ele>
        <time>2026-05-21T10:44:01.000Z</time>
      </trkpt>
      <trkpt lat="43.77648" lon="3.83258">
        <ele>451.9</ele>
        <time>2026-05-21T10:44:02.000Z</time>
      </trkpt>
      <trkpt lat="43.77648" lon="3.83258">
        <ele>451.9</ele>
        <time>2026-05-21T10:44:03.000Z</time>
      </trkpt>
      <trkpt lat="43.77648" lon="3.83258">
        <ele>451.9</ele>
        <time>2026-05-21T10:44:04.000Z</time>
      </trkpt>
      <trkpt lat="43.77648" lon="3.83258">
        <ele>452</ele>
        <time>2026-05-21T10:44:05.000Z</time>
      </trkpt>
      <trkpt lat="43.77648" lon="3.83258">
        <ele>451.9</ele>
        <time>2026-05-21T10:44:06.000Z</time>
      </trkpt>
      <trkpt lat="43.77648" lon="3.83258">
        <ele>452</ele>
        <time>2026-05-21T10:44:07.000Z</time>
      </trkpt>
      <trkpt lat="43.77648" lon="3.83258">
        <ele>452.1</ele>
        <time>2026-05-21T10:44:08.000Z</time>
      </trkpt>
      <trkpt lat="43.77648" lon="3.83258">
        <ele>452</ele>
        <time>2026-05-21T10:44:10.000Z</time>
      </trkpt>
      <trkpt lat="43.77648" lon="3.83258">
        <ele>452</ele>
        <time>2026-05-21T10:44:11.000Z</time>
      </trkpt>
      <trkpt lat="43.77648" lon="3.83258">
        <ele>452</ele>
        <time>2026-05-21T10:44:12.000Z</time>
      </trkpt>
      <trkpt lat="43.77648" lon="3.83258">
        <ele>451.9</ele>
        <time>2026-05-21T10:44:13.000Z</time>
      </trkpt>
      <trkpt lat="43.77648" lon="3.83258">
        <ele>451.8</ele>
        <time>2026-05-21T10:44:14.000Z</time>
      </trkpt>
      <trkpt lat="43.77648" lon="3.83258">
        <ele>451.8</ele>
        <time>2026-05-21T10:44:15.000Z</time>
      </trkpt>
      <trkpt lat="43.77648" lon="3.83258">
        <ele>451.7</ele>
        <time>2026-05-21T10:44:16.000Z</time>
      </trkpt>
      <trkpt lat="43.77648" lon="3.83258">
        <ele>451.6</ele>
        <time>2026-05-21T10:44:17.000Z</time>
      </trkpt>
      <trkpt lat="43.77648" lon="3.83258">
        <ele>451.7</ele>
        <time>2026-05-21T10:44:19.000Z</time>
      </trkpt>
      <trkpt lat="43.77648" lon="3.83258">
        <ele>451.8</ele>
        <time>2026-05-21T10:44:20.000Z</time>
      </trkpt>
      <trkpt lat="43.77648" lon="3.83258">
        <ele>452</ele>
        <time>2026-05-21T10:44:21.000Z</time>
      </trkpt>
      <trkpt lat="43.77648" lon="3.83258">
        <ele>452.1</ele>
        <time>2026-05-21T10:44:22.000Z</time>
      </trkpt>
      <trkpt lat="43.77648" lon="3.83258">
        <ele>452.1</ele>
        <time>2026-05-21T10:44:23.000Z</time>
      </trkpt>
      <trkpt lat="43.77648" lon="3.83258">
        <ele>452.2</ele>
        <time>2026-05-21T10:44:24.000Z</time>
      </trkpt>
      <trkpt lat="43.77648" lon="3.83258">
        <ele>452</ele>
        <time>2026-05-21T10:44:25.000Z</time>
      </trkpt>
      <trkpt lat="43.77648" lon="3.83258">
        <ele>451.9</ele>
        <time>2026-05-21T10:44:26.000Z</time>
      </trkpt>
      <trkpt lat="43.77648" lon="3.83258">
        <ele>451.8</ele>
        <time>2026-05-21T10:44:27.000Z</time>
      </trkpt>
      <trkpt lat="43.77648" lon="3.83258">
        <ele>451.8</ele>
        <time>2026-05-21T10:44:28.000Z</time>
      </trkpt>
      <trkpt lat="43.77648" lon="3.83258">
        <ele>451.7</ele>
        <time>2026-05-21T10:44:29.000Z</time>
      </trkpt>
      <trkpt lat="43.77648" lon="3.83258">
        <ele>451.7</ele>
        <time>2026-05-21T10:44:30.000Z</time>
      </trkpt>
      <trkpt lat="43.77648" lon="3.83258">
        <ele>451.6</ele>
        <time>2026-05-21T10:44:31.000Z</time>
      </trkpt>
      <trkpt lat="43.77648" lon="3.83258">
        <ele>451.5</ele>
        <time>2026-05-21T10:44:32.000Z</time>
      </trkpt>
      <trkpt lat="43.77649" lon="3.83257">
        <ele>451.4</ele>
        <time>2026-05-21T10:44:33.000Z</time>
      </trkpt>
      <trkpt lat="43.77649" lon="3.83257">
        <ele>451.3</ele>
        <time>2026-05-21T10:44:34.000Z</time>
      </trkpt>
      <trkpt lat="43.77649" lon="3.83258">
        <ele>451.2</ele>
        <time>2026-05-21T10:44:35.000Z</time>
      </trkpt>
      <trkpt lat="43.77649" lon="3.83258">
        <ele>451.3</ele>
        <time>2026-05-21T10:44:36.000Z</time>
      </trkpt>
      <trkpt lat="43.77649" lon="3.83258">
        <ele>451.3</ele>
        <time>2026-05-21T10:44:37.000Z</time>
      </trkpt>
      <trkpt lat="43.77649" lon="3.83258">
        <ele>451.3</ele>
        <time>2026-05-21T10:44:38.000Z</time>
      </trkpt>
      <trkpt lat="43.77649" lon="3.83258">
        <ele>451.4</ele>
        <time>2026-05-21T10:44:39.000Z</time>
      </trkpt>
      <trkpt lat="43.77649" lon="3.83258">
        <ele>451.4</ele>
        <time>2026-05-21T10:44:40.000Z</time>
      </trkpt>
      <trkpt lat="43.77649" lon="3.83258">
        <ele>451.5</ele>
        <time>2026-05-21T10:44:41.000Z</time>
      </trkpt>
      <trkpt lat="43.77649" lon="3.83258">
        <ele>451.6</ele>
        <time>2026-05-21T10:44:42.000Z</time>
      </trkpt>
      <trkpt lat="43.77649" lon="3.83258">
        <ele>451.6</ele>
        <time>2026-05-21T10:44:43.000Z</time>
      </trkpt>
      <trkpt lat="43.77649" lon="3.83258">
        <ele>451.6</ele>
        <time>2026-05-21T10:44:44.000Z</time>
      </trkpt>
      <trkpt lat="43.77649" lon="3.83258">
        <ele>451.5</ele>
        <time>2026-05-21T10:44:45.000Z</time>
      </trkpt>
      <trkpt lat="43.77648" lon="3.83258">
        <ele>451.4</ele>
        <time>2026-05-21T10:44:46.000Z</time>
      </trkpt>
      <trkpt lat="43.77648" lon="3.83258">
        <ele>451.3</ele>
        <time>2026-05-21T10:44:47.000Z</time>
      </trkpt>
      <trkpt lat="43.77648" lon="3.83258">
        <ele>451.3</ele>
        <time>2026-05-21T10:44:48.000Z</time>
      </trkpt>
      <trkpt lat="43.77648" lon="3.83258">
        <ele>451.4</ele>
        <time>2026-05-21T10:44:49.000Z</time>
      </trkpt>
      <trkpt lat="43.77648" lon="3.83258">
        <ele>451.5</ele>
        <time>2026-05-21T10:44:50.000Z</time>
      </trkpt>
      <trkpt lat="43.77648" lon="3.83258">
        <ele>451.6</ele>
        <time>2026-05-21T10:44:51.000Z</time>
      </trkpt>
      <trkpt lat="43.77648" lon="3.83258">
        <ele>451.6</ele>
        <time>2026-05-21T10:44:52.000Z</time>
      </trkpt>
      <trkpt lat="43.77648" lon="3.83258">
        <ele>451.6</ele>
        <time>2026-05-21T10:44:53.000Z</time>
      </trkpt>
      <trkpt lat="43.77648" lon="3.83258">
        <ele>451.6</ele>
        <time>2026-05-21T10:44:54.000Z</time>
      </trkpt>
      <trkpt lat="43.77648" lon="3.83258">
        <ele>451.6</ele>
        <time>2026-05-21T10:44:55.000Z</time>
      </trkpt>
      <trkpt lat="43.77648" lon="3.83258">
        <ele>451.6</ele>
        <time>2026-05-21T10:44:56.000Z</time>
      </trkpt>
      <trkpt lat="43.77648" lon="3.83258">
        <ele>451.5</ele>
        <time>2026-05-21T10:44:57.000Z</time>
      </trkpt>
      <trkpt lat="43.77648" lon="3.83258">
        <ele>451.5</ele>
        <time>2026-05-21T10:44:58.000Z</time>
      </trkpt>
      <trkpt lat="43.77648" lon="3.83258">
        <ele>451.6</ele>
        <time>2026-05-21T10:44:59.000Z</time>
      </trkpt>
      <trkpt lat="43.77648" lon="3.83258">
        <ele>451.6</ele>
        <time>2026-05-21T10:45:00.000Z</time>
      </trkpt>
      <trkpt lat="43.77648" lon="3.83258">
        <ele>451.8</ele>
        <time>2026-05-21T10:45:01.000Z</time>
      </trkpt>
      <trkpt lat="43.77648" lon="3.83258">
        <ele>451.8</ele>
        <time>2026-05-21T10:45:02.000Z</time>
      </trkpt>
      <trkpt lat="43.77648" lon="3.83258">
        <ele>451.9</ele>
        <time>2026-05-21T10:45:03.000Z</time>
      </trkpt>
      <trkpt lat="43.77648" lon="3.83258">
        <ele>451.8</ele>
        <time>2026-05-21T10:45:04.000Z</time>
      </trkpt>
      <trkpt lat="43.77648" lon="3.83258">
        <ele>451.8</ele>
        <time>2026-05-21T10:45:05.000Z</time>
      </trkpt>
      <trkpt lat="43.77648" lon="3.83258">
        <ele>451.8</ele>
        <time>2026-05-21T10:45:06.000Z</time>
      </trkpt>
      <trkpt lat="43.77648" lon="3.83258">
        <ele>451.9</ele>
        <time>2026-05-21T10:45:07.000Z</time>
      </trkpt>
      <trkpt lat="43.77648" lon="3.83258">
        <ele>452</ele>
        <time>2026-05-21T10:45:08.000Z</time>
      </trkpt>
      <trkpt lat="43.77648" lon="3.83258">
        <ele>452</ele>
        <time>2026-05-21T10:45:09.000Z</time>
      </trkpt>
      <trkpt lat="43.77648" lon="3.83258">
        <ele>452</ele>
        <time>2026-05-21T10:45:10.000Z</time>
      </trkpt>
      <trkpt lat="43.77648" lon="3.83258">
        <ele>452</ele>
        <time>2026-05-21T10:45:11.000Z</time>
      </trkpt>
      <trkpt lat="43.77649" lon="3.83258">
        <ele>451.9</ele>
        <time>2026-05-21T10:45:12.000Z</time>
      </trkpt>
      <trkpt lat="43.77649" lon="3.83258">
        <ele>451.9</ele>
        <time>2026-05-21T10:45:13.000Z</time>
      </trkpt>
      <trkpt lat="43.77649" lon="3.83258">
        <ele>451.8</ele>
        <time>2026-05-21T10:45:14.000Z</time>
      </trkpt>
      <trkpt lat="43.77649" lon="3.83258">
        <ele>451.9</ele>
        <time>2026-05-21T10:45:15.000Z</time>
      </trkpt>
      <trkpt lat="43.77649" lon="3.83258">
        <ele>451.9</ele>
        <time>2026-05-21T10:45:16.000Z</time>
      </trkpt>
      <trkpt lat="43.77649" lon="3.83258">
        <ele>451.9</ele>
        <time>2026-05-21T10:45:17.000Z</time>
      </trkpt>
      <trkpt lat="43.77649" lon="3.83258">
        <ele>451.9</ele>
        <time>2026-05-21T10:45:18.000Z</time>
      </trkpt>
      <trkpt lat="43.77649" lon="3.83258">
        <ele>451.9</ele>
        <time>2026-05-21T10:45:19.000Z</time>
      </trkpt>
      <trkpt lat="43.77649" lon="3.83258">
        <ele>451.9</ele>
        <time>2026-05-21T10:45:20.000Z</time>
      </trkpt>
      <trkpt lat="43.77649" lon="3.83258">
        <ele>452</ele>
        <time>2026-05-21T10:45:21.000Z</time>
      </trkpt>
      <trkpt lat="43.77649" lon="3.83258">
        <ele>452.2</ele>
        <time>2026-05-21T10:45:22.000Z</time>
      </trkpt>
      <trkpt lat="43.77649" lon="3.83258">
        <ele>452.3</ele>
        <time>2026-05-21T10:45:23.000Z</time>
      </trkpt>
      <trkpt lat="43.77649" lon="3.83258">
        <ele>452.5</ele>
        <time>2026-05-21T10:45:24.000Z</time>
      </trkpt>
      <trkpt lat="43.77649" lon="3.83258">
        <ele>452.6</ele>
        <time>2026-05-21T10:45:25.000Z</time>
      </trkpt>
      <trkpt lat="43.77649" lon="3.83258">
        <ele>452.7</ele>
        <time>2026-05-21T10:45:26.000Z</time>
      </trkpt>
      <trkpt lat="43.77649" lon="3.83258">
        <ele>452.8</ele>
        <time>2026-05-21T10:45:27.000Z</time>
      </trkpt>
      <trkpt lat="43.77649" lon="3.83258">
        <ele>452.9</ele>
        <time>2026-05-21T10:45:28.000Z</time>
      </trkpt>
      <trkpt lat="43.77649" lon="3.83258">
        <ele>453.1</ele>
        <time>2026-05-21T10:45:29.000Z</time>
      </trkpt>
      <trkpt lat="43.77649" lon="3.83258">
        <ele>453.1</ele>
        <time>2026-05-21T10:45:30.000Z</time>
      </trkpt>
      <trkpt lat="43.77649" lon="3.83258">
        <ele>453.2</ele>
        <time>2026-05-21T10:45:31.000Z</time>
      </trkpt>
      <trkpt lat="43.77649" lon="3.83258">
        <ele>453.1</ele>
        <time>2026-05-21T10:45:32.000Z</time>
      </trkpt>
      <trkpt lat="43.77649" lon="3.83258">
        <ele>453.1</ele>
        <time>2026-05-21T10:45:33.000Z</time>
      </trkpt>
      <trkpt lat="43.77649" lon="3.83258">
        <ele>453</ele>
        <time>2026-05-21T10:45:34.000Z</time>
      </trkpt>
      <trkpt lat="43.77649" lon="3.83258">
        <ele>452.9</ele>
        <time>2026-05-21T10:45:35.000Z</time>
      </trkpt>
      <trkpt lat="43.77649" lon="3.83258">
        <ele>452.8</ele>
        <time>2026-05-21T10:45:36.000Z</time>
      </trkpt>
      <trkpt lat="43.77649" lon="3.83258">
        <ele>452.8</ele>
        <time>2026-05-21T10:45:37.000Z</time>
      </trkpt>
      <trkpt lat="43.77649" lon="3.83258">
        <ele>452.7</ele>
        <time>2026-05-21T10:45:38.000Z</time>
      </trkpt>
      <trkpt lat="43.77649" lon="3.83258">
        <ele>452.6</ele>
        <time>2026-05-21T10:45:39.000Z</time>
      </trkpt>
      <trkpt lat="43.77649" lon="3.83258">
        <ele>452.5</ele>
        <time>2026-05-21T10:45:40.000Z</time>
      </trkpt>
      <trkpt lat="43.77649" lon="3.83258">
        <ele>452.6</ele>
        <time>2026-05-21T10:45:41.000Z</time>
      </trkpt>
      <trkpt lat="43.77649" lon="3.83258">
        <ele>452.7</ele>
        <time>2026-05-21T10:45:42.000Z</time>
      </trkpt>
      <trkpt lat="43.77649" lon="3.83258">
        <ele>452.7</ele>
        <time>2026-05-21T10:45:43.000Z</time>
      </trkpt>
      <trkpt lat="43.77649" lon="3.83258">
        <ele>452.9</ele>
        <time>2026-05-21T10:45:44.000Z</time>
      </trkpt>
      <trkpt lat="43.77649" lon="3.83258">
        <ele>452.9</ele>
        <time>2026-05-21T10:45:45.000Z</time>
      </trkpt>
      <trkpt lat="43.77649" lon="3.83258">
        <ele>452.8</ele>
        <time>2026-05-21T10:45:46.000Z</time>
      </trkpt>
      <trkpt lat="43.77649" lon="3.83258">
        <ele>452.8</ele>
        <time>2026-05-21T10:45:47.000Z</time>
      </trkpt>
      <trkpt lat="43.77649" lon="3.83258">
        <ele>452.7</ele>
        <time>2026-05-21T10:45:48.000Z</time>
      </trkpt>
      <trkpt lat="43.77649" lon="3.83258">
        <ele>452.6</ele>
        <time>2026-05-21T10:45:49.000Z</time>
      </trkpt>
      <trkpt lat="43.77649" lon="3.83258">
        <ele>452.6</ele>
        <time>2026-05-21T10:45:50.000Z</time>
      </trkpt>
      <trkpt lat="43.77649" lon="3.83258">
        <ele>452.6</ele>
        <time>2026-05-21T10:45:51.000Z</time>
      </trkpt>
      <trkpt lat="43.77649" lon="3.83258">
        <ele>452.6</ele>
        <time>2026-05-21T10:45:52.000Z</time>
      </trkpt>
      <trkpt lat="43.77649" lon="3.83258">
        <ele>452.5</ele>
        <time>2026-05-21T10:45:53.000Z</time>
      </trkpt>
      <trkpt lat="43.77649" lon="3.83258">
        <ele>452.4</ele>
        <time>2026-05-21T10:45:54.000Z</time>
      </trkpt>
      <trkpt lat="43.77649" lon="3.83258">
        <ele>452.4</ele>
        <time>2026-05-21T10:45:55.000Z</time>
      </trkpt>
      <trkpt lat="43.77649" lon="3.83258">
        <ele>452.3</ele>
        <time>2026-05-21T10:45:56.000Z</time>
      </trkpt>
      <trkpt lat="43.77649" lon="3.83258">
        <ele>452.3</ele>
        <time>2026-05-21T10:45:57.000Z</time>
      </trkpt>
      <trkpt lat="43.77649" lon="3.83258">
        <ele>452.1</ele>
        <time>2026-05-21T10:45:58.000Z</time>
      </trkpt>
      <trkpt lat="43.77649" lon="3.83258">
        <ele>452</ele>
        <time>2026-05-21T10:45:59.000Z</time>
      </trkpt>
      <trkpt lat="43.77649" lon="3.83258">
        <ele>451.9</ele>
        <time>2026-05-21T10:46:00.000Z</time>
      </trkpt>
      <trkpt lat="43.77649" lon="3.83258">
        <ele>451.8</ele>
        <time>2026-05-21T10:46:01.000Z</time>
      </trkpt>
      <trkpt lat="43.77649" lon="3.83258">
        <ele>451.7</ele>
        <time>2026-05-21T10:46:02.000Z</time>
      </trkpt>
      <trkpt lat="43.77649" lon="3.83258">
        <ele>451.7</ele>
        <time>2026-05-21T10:46:03.000Z</time>
      </trkpt>
      <trkpt lat="43.77649" lon="3.83258">
        <ele>451.6</ele>
        <time>2026-05-21T10:46:04.000Z</time>
      </trkpt>
      <trkpt lat="43.77649" lon="3.83258">
        <ele>451.6</ele>
        <time>2026-05-21T10:46:05.000Z</time>
      </trkpt>
      <trkpt lat="43.77649" lon="3.83258">
        <ele>451.7</ele>
        <time>2026-05-21T10:46:06.000Z</time>
      </trkpt>
      <trkpt lat="43.77649" lon="3.83258">
        <ele>451.7</ele>
        <time>2026-05-21T10:46:07.000Z</time>
      </trkpt>
      <trkpt lat="43.77649" lon="3.83258">
        <ele>451.7</ele>
        <time>2026-05-21T10:46:08.000Z</time>
      </trkpt>
      <trkpt lat="43.77649" lon="3.83258">
        <ele>451.7</ele>
        <time>2026-05-21T10:46:09.000Z</time>
      </trkpt>
      <trkpt lat="43.77649" lon="3.83258">
        <ele>451.8</ele>
        <time>2026-05-21T10:46:10.000Z</time>
      </trkpt>
      <trkpt lat="43.77649" lon="3.83258">
        <ele>451.9</ele>
        <time>2026-05-21T10:46:11.000Z</time>
      </trkpt>
      <trkpt lat="43.77649" lon="3.83258">
        <ele>451.9</ele>
        <time>2026-05-21T10:46:12.000Z</time>
      </trkpt>
      <trkpt lat="43.77649" lon="3.83258">
        <ele>451.9</ele>
        <time>2026-05-21T10:46:13.000Z</time>
      </trkpt>
      <trkpt lat="43.77649" lon="3.83258">
        <ele>452.1</ele>
        <time>2026-05-21T10:46:14.000Z</time>
      </trkpt>
      <trkpt lat="43.77649" lon="3.83258">
        <ele>452.2</ele>
        <time>2026-05-21T10:46:15.000Z</time>
      </trkpt>
      <trkpt lat="43.77649" lon="3.83258">
        <ele>452.3</ele>
        <time>2026-05-21T10:46:16.000Z</time>
      </trkpt>
      <trkpt lat="43.77649" lon="3.83258">
        <ele>452.4</ele>
        <time>2026-05-21T10:46:17.000Z</time>
      </trkpt>
      <trkpt lat="43.77649" lon="3.83258">
        <ele>452.4</ele>
        <time>2026-05-21T10:46:18.000Z</time>
      </trkpt>
      <trkpt lat="43.77649" lon="3.83258">
        <ele>452.6</ele>
        <time>2026-05-21T10:46:19.000Z</time>
      </trkpt>
      <trkpt lat="43.77649" lon="3.83258">
        <ele>452.8</ele>
        <time>2026-05-21T10:46:20.000Z</time>
      </trkpt>
      <trkpt lat="43.77649" lon="3.83258">
        <ele>452.9</ele>
        <time>2026-05-21T10:46:21.000Z</time>
      </trkpt>
      <trkpt lat="43.77649" lon="3.83258">
        <ele>452.9</ele>
        <time>2026-05-21T10:46:22.000Z</time>
      </trkpt>
      <trkpt lat="43.77649" lon="3.83258">
        <ele>452.9</ele>
        <time>2026-05-21T10:46:23.000Z</time>
      </trkpt>
      <trkpt lat="43.77649" lon="3.83258">
        <ele>452.9</ele>
        <time>2026-05-21T10:46:24.000Z</time>
      </trkpt>
      <trkpt lat="43.77649" lon="3.83258">
        <ele>452.9</ele>
        <time>2026-05-21T10:46:25.000Z</time>
      </trkpt>
      <trkpt lat="43.77649" lon="3.83258">
        <ele>452.8</ele>
        <time>2026-05-21T10:46:26.000Z</time>
      </trkpt>
      <trkpt lat="43.77649" lon="3.83258">
        <ele>452.7</ele>
        <time>2026-05-21T10:46:27.000Z</time>
      </trkpt>
      <trkpt lat="43.77649" lon="3.83258">
        <ele>452.8</ele>
        <time>2026-05-21T10:46:28.000Z</time>
      </trkpt>
      <trkpt lat="43.77649" lon="3.83258">
        <ele>452.9</ele>
        <time>2026-05-21T10:46:29.000Z</time>
      </trkpt>
      <trkpt lat="43.77649" lon="3.83258">
        <ele>453.1</ele>
        <time>2026-05-21T10:46:30.000Z</time>
      </trkpt>
      <trkpt lat="43.77649" lon="3.83258">
        <ele>453.2</ele>
        <time>2026-05-21T10:46:31.000Z</time>
      </trkpt>
      <trkpt lat="43.77649" lon="3.83258">
        <ele>453.4</ele>
        <time>2026-05-21T10:46:32.999Z</time>
      </trkpt>
      <trkpt lat="43.77649" lon="3.83258">
        <ele>453.3</ele>
        <time>2026-05-21T10:46:33.999Z</time>
      </trkpt>
      <trkpt lat="43.77649" lon="3.83258">
        <ele>453.3</ele>
        <time>2026-05-21T10:46:34.999Z</time>
      </trkpt>
      <trkpt lat="43.77649" lon="3.83258">
        <ele>453.2</ele>
        <time>2026-05-21T10:46:35.999Z</time>
      </trkpt>
      <trkpt lat="43.77649" lon="3.83258">
        <ele>453.2</ele>
        <time>2026-05-21T10:46:36.999Z</time>
      </trkpt>
      <trkpt lat="43.77649" lon="3.83258">
        <ele>452.9</ele>
        <time>2026-05-21T10:46:37.999Z</time>
      </trkpt>
      <trkpt lat="43.77649" lon="3.83258">
        <ele>452.7</ele>
        <time>2026-05-21T10:46:38.999Z</time>
      </trkpt>
      <trkpt lat="43.77649" lon="3.83258">
        <ele>452.7</ele>
        <time>2026-05-21T10:46:39.999Z</time>
      </trkpt>
      <trkpt lat="43.77649" lon="3.83258">
        <ele>452.7</ele>
        <time>2026-05-21T10:46:40.999Z</time>
      </trkpt>
      <trkpt lat="43.77649" lon="3.83258">
        <ele>452.6</ele>
        <time>2026-05-21T10:46:41.999Z</time>
      </trkpt>
      <trkpt lat="43.77649" lon="3.83258">
        <ele>452.5</ele>
        <time>2026-05-21T10:46:42.999Z</time>
      </trkpt>
      <trkpt lat="43.77649" lon="3.83258">
        <ele>452.5</ele>
        <time>2026-05-21T10:46:43.999Z</time>
      </trkpt>
      <trkpt lat="43.77649" lon="3.83258">
        <ele>452.6</ele>
        <time>2026-05-21T10:46:44.999Z</time>
      </trkpt>
      <trkpt lat="43.77649" lon="3.83258">
        <ele>452.6</ele>
        <time>2026-05-21T10:46:45.999Z</time>
      </trkpt>
      <trkpt lat="43.77649" lon="3.83258">
        <ele>452.8</ele>
        <time>2026-05-21T10:46:46.999Z</time>
      </trkpt>
      <trkpt lat="43.77649" lon="3.83258">
        <ele>452.8</ele>
        <time>2026-05-21T10:46:47.999Z</time>
      </trkpt>
      <trkpt lat="43.77649" lon="3.83258">
        <ele>452.8</ele>
        <time>2026-05-21T10:46:48.999Z</time>
      </trkpt>
      <trkpt lat="43.77649" lon="3.83258">
        <ele>452.8</ele>
        <time>2026-05-21T10:46:49.999Z</time>
      </trkpt>
      <trkpt lat="43.77649" lon="3.83258">
        <ele>452.7</ele>
        <time>2026-05-21T10:46:50.999Z</time>
      </trkpt>
      <trkpt lat="43.77649" lon="3.83258">
        <ele>452.7</ele>
        <time>2026-05-21T10:46:51.999Z</time>
      </trkpt>
      <trkpt lat="43.77649" lon="3.83258">
        <ele>452.6</ele>
        <time>2026-05-21T10:46:52.999Z</time>
      </trkpt>
      <trkpt lat="43.77649" lon="3.83258">
        <ele>452.6</ele>
        <time>2026-05-21T10:46:53.999Z</time>
      </trkpt>
      <trkpt lat="43.77649" lon="3.83258">
        <ele>452.7</ele>
        <time>2026-05-21T10:46:54.999Z</time>
      </trkpt>
      <trkpt lat="43.77649" lon="3.83258">
        <ele>452.7</ele>
        <time>2026-05-21T10:46:55.999Z</time>
      </trkpt>
      <trkpt lat="43.77649" lon="3.83258">
        <ele>452.7</ele>
        <time>2026-05-21T10:46:56.999Z</time>
      </trkpt>
      <trkpt lat="43.77649" lon="3.83258">
        <ele>452.8</ele>
        <time>2026-05-21T10:46:57.999Z</time>
      </trkpt>
      <trkpt lat="43.77649" lon="3.83258">
        <ele>452.9</ele>
        <time>2026-05-21T10:46:58.999Z</time>
      </trkpt>
      <trkpt lat="43.77649" lon="3.83258">
        <ele>452.8</ele>
        <time>2026-05-21T10:46:59.999Z</time>
      </trkpt>
      <trkpt lat="43.77649" lon="3.83258">
        <ele>452.7</ele>
        <time>2026-05-21T10:47:00.999Z</time>
      </trkpt>
      <trkpt lat="43.77649" lon="3.83258">
        <ele>452.6</ele>
        <time>2026-05-21T10:47:01.999Z</time>
      </trkpt>
      <trkpt lat="43.77649" lon="3.83258">
        <ele>452.5</ele>
        <time>2026-05-21T10:47:02.999Z</time>
      </trkpt>
      <trkpt lat="43.77649" lon="3.83258">
        <ele>452.5</ele>
        <time>2026-05-21T10:47:03.999Z</time>
      </trkpt>
      <trkpt lat="43.77649" lon="3.83258">
        <ele>452.4</ele>
        <time>2026-05-21T10:47:04.999Z</time>
      </trkpt>
      <trkpt lat="43.77649" lon="3.83258">
        <ele>452.5</ele>
        <time>2026-05-21T10:47:05.999Z</time>
      </trkpt>
      <trkpt lat="43.77649" lon="3.83258">
        <ele>452.6</ele>
        <time>2026-05-21T10:47:06.999Z</time>
      </trkpt>
      <trkpt lat="43.77649" lon="3.83258">
        <ele>452.7</ele>
        <time>2026-05-21T10:47:07.999Z</time>
      </trkpt>
      <trkpt lat="43.77649" lon="3.83258">
        <ele>452.9</ele>
        <time>2026-05-21T10:47:08.999Z</time>
      </trkpt>
      <trkpt lat="43.7765" lon="3.83258">
        <ele>453</ele>
        <time>2026-05-21T10:47:09.999Z</time>
      </trkpt>
      <trkpt lat="43.7765" lon="3.83258">
        <ele>453.2</ele>
        <time>2026-05-21T10:47:10.999Z</time>
      </trkpt>
      <trkpt lat="43.7765" lon="3.83258">
        <ele>453.4</ele>
        <time>2026-05-21T10:47:11.999Z</time>
      </trkpt>
      <trkpt lat="43.7765" lon="3.83259">
        <ele>453.3</ele>
        <time>2026-05-21T10:47:12.999Z</time>
      </trkpt>
      <trkpt lat="43.7765" lon="3.83259">
        <ele>453.3</ele>
        <time>2026-05-21T10:47:13.999Z</time>
      </trkpt>
      <trkpt lat="43.7765" lon="3.83259">
        <ele>453.1</ele>
        <time>2026-05-21T10:47:14.999Z</time>
      </trkpt>
      <trkpt lat="43.7765" lon="3.83259">
        <ele>453.1</ele>
        <time>2026-05-21T10:47:15.999Z</time>
      </trkpt>
      <trkpt lat="43.7765" lon="3.83259">
        <ele>453</ele>
        <time>2026-05-21T10:47:16.999Z</time>
      </trkpt>
      <trkpt lat="43.7765" lon="3.83259">
        <ele>453</ele>
        <time>2026-05-21T10:47:17.999Z</time>
      </trkpt>
      <trkpt lat="43.7765" lon="3.83259">
        <ele>452.8</ele>
        <time>2026-05-21T10:47:18.999Z</time>
      </trkpt>
      <trkpt lat="43.7765" lon="3.83259">
        <ele>452.7</ele>
        <time>2026-05-21T10:47:19.999Z</time>
      </trkpt>
      <trkpt lat="43.7765" lon="3.83259">
        <ele>452.7</ele>
        <time>2026-05-21T10:47:20.999Z</time>
      </trkpt>
      <trkpt lat="43.7765" lon="3.83259">
        <ele>452.6</ele>
        <time>2026-05-21T10:47:21.999Z</time>
      </trkpt>
      <trkpt lat="43.7765" lon="3.83259">
        <ele>452.7</ele>
        <time>2026-05-21T10:47:22.999Z</time>
      </trkpt>
      <trkpt lat="43.7765" lon="3.83259">
        <ele>452.7</ele>
        <time>2026-05-21T10:47:23.999Z</time>
      </trkpt>
      <trkpt lat="43.7765" lon="3.83259">
        <ele>452.7</ele>
        <time>2026-05-21T10:47:24.999Z</time>
      </trkpt>
      <trkpt lat="43.7765" lon="3.83259">
        <ele>452.7</ele>
        <time>2026-05-21T10:47:25.999Z</time>
      </trkpt>
      <trkpt lat="43.7765" lon="3.83259">
        <ele>452.7</ele>
        <time>2026-05-21T10:47:26.999Z</time>
      </trkpt>
      <trkpt lat="43.7765" lon="3.83259">
        <ele>452.8</ele>
        <time>2026-05-21T10:47:27.999Z</time>
      </trkpt>
      <trkpt lat="43.7765" lon="3.83259">
        <ele>452.8</ele>
        <time>2026-05-21T10:47:28.999Z</time>
      </trkpt>
      <trkpt lat="43.7765" lon="3.83259">
        <ele>452.8</ele>
        <time>2026-05-21T10:47:29.999Z</time>
      </trkpt>
      <trkpt lat="43.7765" lon="3.83259">
        <ele>452.8</ele>
        <time>2026-05-21T10:47:30.999Z</time>
      </trkpt>
      <trkpt lat="43.7765" lon="3.83259">
        <ele>452.8</ele>
        <time>2026-05-21T10:47:31.999Z</time>
      </trkpt>
      <trkpt lat="43.7765" lon="3.83259">
        <ele>452.7</ele>
        <time>2026-05-21T10:47:32.999Z</time>
      </trkpt>
      <trkpt lat="43.7765" lon="3.83259">
        <ele>452.8</ele>
        <time>2026-05-21T10:47:33.999Z</time>
      </trkpt>
      <trkpt lat="43.7765" lon="3.83259">
        <ele>452.7</ele>
        <time>2026-05-21T10:47:34.999Z</time>
      </trkpt>
      <trkpt lat="43.7765" lon="3.83259">
        <ele>452.7</ele>
        <time>2026-05-21T10:47:35.999Z</time>
      </trkpt>
      <trkpt lat="43.7765" lon="3.83259">
        <ele>452.7</ele>
        <time>2026-05-21T10:47:36.999Z</time>
      </trkpt>
      <trkpt lat="43.7765" lon="3.83259">
        <ele>452.5</ele>
        <time>2026-05-21T10:47:37.999Z</time>
      </trkpt>
      <trkpt lat="43.7765" lon="3.83259">
        <ele>452.5</ele>
        <time>2026-05-21T10:47:38.999Z</time>
      </trkpt>
      <trkpt lat="43.7765" lon="3.83259">
        <ele>452.4</ele>
        <time>2026-05-21T10:47:39.999Z</time>
      </trkpt>
      <trkpt lat="43.7765" lon="3.83259">
        <ele>452.4</ele>
        <time>2026-05-21T10:47:40.999Z</time>
      </trkpt>
      <trkpt lat="43.7765" lon="3.83259">
        <ele>452.5</ele>
        <time>2026-05-21T10:47:41.999Z</time>
      </trkpt>
      <trkpt lat="43.7765" lon="3.83259">
        <ele>452.6</ele>
        <time>2026-05-21T10:47:42.999Z</time>
      </trkpt>
      <trkpt lat="43.7765" lon="3.83259">
        <ele>452.6</ele>
        <time>2026-05-21T10:47:43.999Z</time>
      </trkpt>
      <trkpt lat="43.7765" lon="3.83259">
        <ele>452.7</ele>
        <time>2026-05-21T10:47:44.999Z</time>
      </trkpt>
      <trkpt lat="43.7765" lon="3.83259">
        <ele>452.7</ele>
        <time>2026-05-21T10:47:45.999Z</time>
      </trkpt>
      <trkpt lat="43.7765" lon="3.8326">
        <ele>452.5</ele>
        <time>2026-05-21T10:47:46.999Z</time>
      </trkpt>
      <trkpt lat="43.7765" lon="3.8326">
        <ele>452.4</ele>
        <time>2026-05-21T10:47:47.999Z</time>
      </trkpt>
      <trkpt lat="43.7765" lon="3.8326">
        <ele>452.3</ele>
        <time>2026-05-21T10:47:48.999Z</time>
      </trkpt>
      <trkpt lat="43.7765" lon="3.8326">
        <ele>452.4</ele>
        <time>2026-05-21T10:47:49.999Z</time>
      </trkpt>
      <trkpt lat="43.7765" lon="3.8326">
        <ele>452.3</ele>
        <time>2026-05-21T10:47:50.999Z</time>
      </trkpt>
      <trkpt lat="43.7765" lon="3.8326">
        <ele>452.2</ele>
        <time>2026-05-21T10:47:51.999Z</time>
      </trkpt>
      <trkpt lat="43.7765" lon="3.8326">
        <ele>452.1</ele>
        <time>2026-05-21T10:47:52.999Z</time>
      </trkpt>
      <trkpt lat="43.7765" lon="3.8326">
        <ele>452</ele>
        <time>2026-05-21T10:47:53.999Z</time>
      </trkpt>
      <trkpt lat="43.7765" lon="3.8326">
        <ele>451.8</ele>
        <time>2026-05-21T10:47:54.999Z</time>
      </trkpt>
      <trkpt lat="43.7765" lon="3.8326">
        <ele>451.7</ele>
        <time>2026-05-21T10:47:55.999Z</time>
      </trkpt>
      <trkpt lat="43.7765" lon="3.8326">
        <ele>451.6</ele>
        <time>2026-05-21T10:47:56.999Z</time>
      </trkpt>
      <trkpt lat="43.7765" lon="3.8326">
        <ele>451.8</ele>
        <time>2026-05-21T10:47:57.999Z</time>
      </trkpt>
      <trkpt lat="43.7765" lon="3.8326">
        <ele>452</ele>
        <time>2026-05-21T10:47:58.999Z</time>
      </trkpt>
      <trkpt lat="43.7765" lon="3.8326">
        <ele>452.1</ele>
        <time>2026-05-21T10:47:59.999Z</time>
      </trkpt>
      <trkpt lat="43.7765" lon="3.8326">
        <ele>452.3</ele>
        <time>2026-05-21T10:48:00.999Z</time>
      </trkpt>
      <trkpt lat="43.7765" lon="3.8326">
        <ele>452.3</ele>
        <time>2026-05-21T10:48:01.999Z</time>
      </trkpt>
      <trkpt lat="43.7765" lon="3.8326">
        <ele>452.3</ele>
        <time>2026-05-21T10:48:02.999Z</time>
      </trkpt>
      <trkpt lat="43.7765" lon="3.8326">
        <ele>452.3</ele>
        <time>2026-05-21T10:48:03.999Z</time>
      </trkpt>
      <trkpt lat="43.7765" lon="3.8326">
        <ele>452.4</ele>
        <time>2026-05-21T10:48:04.999Z</time>
      </trkpt>
      <trkpt lat="43.7765" lon="3.8326">
        <ele>452.4</ele>
        <time>2026-05-21T10:48:05.999Z</time>
      </trkpt>
      <trkpt lat="43.7765" lon="3.8326">
        <ele>452.4</ele>
        <time>2026-05-21T10:48:06.999Z</time>
      </trkpt>
      <trkpt lat="43.7765" lon="3.8326">
        <ele>452.4</ele>
        <time>2026-05-21T10:48:07.999Z</time>
      </trkpt>
      <trkpt lat="43.7765" lon="3.8326">
        <ele>452.2</ele>
        <time>2026-05-21T10:48:08.999Z</time>
      </trkpt>
      <trkpt lat="43.7765" lon="3.8326">
        <ele>452.1</ele>
        <time>2026-05-21T10:48:09.999Z</time>
      </trkpt>
      <trkpt lat="43.7765" lon="3.8326">
        <ele>452</ele>
        <time>2026-05-21T10:48:10.999Z</time>
      </trkpt>
      <trkpt lat="43.7765" lon="3.8326">
        <ele>451.8</ele>
        <time>2026-05-21T10:48:11.999Z</time>
      </trkpt>
      <trkpt lat="43.7765" lon="3.8326">
        <ele>451.7</ele>
        <time>2026-05-21T10:48:12.999Z</time>
      </trkpt>
      <trkpt lat="43.7765" lon="3.8326">
        <ele>451.7</ele>
        <time>2026-05-21T10:48:13.999Z</time>
      </trkpt>
      <trkpt lat="43.7765" lon="3.8326">
        <ele>451.7</ele>
        <time>2026-05-21T10:48:14.999Z</time>
      </trkpt>
      <trkpt lat="43.7765" lon="3.8326">
        <ele>451.8</ele>
        <time>2026-05-21T10:48:15.999Z</time>
      </trkpt>
      <trkpt lat="43.7765" lon="3.8326">
        <ele>451.6</ele>
        <time>2026-05-21T10:48:16.999Z</time>
      </trkpt>
      <trkpt lat="43.7765" lon="3.8326">
        <ele>451.5</ele>
        <time>2026-05-21T10:48:17.999Z</time>
      </trkpt>
      <trkpt lat="43.7765" lon="3.8326">
        <ele>451.4</ele>
        <time>2026-05-21T10:48:18.999Z</time>
      </trkpt>
      <trkpt lat="43.7765" lon="3.8326">
        <ele>451.2</ele>
        <time>2026-05-21T10:48:19.999Z</time>
      </trkpt>
      <trkpt lat="43.77649" lon="3.8326">
        <ele>451.2</ele>
        <time>2026-05-21T10:48:20.999Z</time>
      </trkpt>
      <trkpt lat="43.77649" lon="3.8326">
        <ele>451.1</ele>
        <time>2026-05-21T10:48:21.999Z</time>
      </trkpt>
      <trkpt lat="43.77649" lon="3.8326">
        <ele>451.2</ele>
        <time>2026-05-21T10:48:22.999Z</time>
      </trkpt>
      <trkpt lat="43.77649" lon="3.8326">
        <ele>451.3</ele>
        <time>2026-05-21T10:48:23.999Z</time>
      </trkpt>
      <trkpt lat="43.77649" lon="3.8326">
        <ele>451.1</ele>
        <time>2026-05-21T10:48:24.999Z</time>
      </trkpt>
      <trkpt lat="43.77649" lon="3.8326">
        <ele>451.1</ele>
        <time>2026-05-21T10:48:25.999Z</time>
      </trkpt>
      <trkpt lat="43.77649" lon="3.8326">
        <ele>451.2</ele>
        <time>2026-05-21T10:48:26.999Z</time>
      </trkpt>
      <trkpt lat="43.77649" lon="3.8326">
        <ele>451.1</ele>
        <time>2026-05-21T10:48:27.999Z</time>
      </trkpt>
      <trkpt lat="43.77649" lon="3.8326">
        <ele>451.1</ele>
        <time>2026-05-21T10:48:28.999Z</time>
      </trkpt>
      <trkpt lat="43.77649" lon="3.8326">
        <ele>451.2</ele>
        <time>2026-05-21T10:48:29.999Z</time>
      </trkpt>
      <trkpt lat="43.77649" lon="3.8326">
        <ele>451</ele>
        <time>2026-05-21T10:48:30.999Z</time>
      </trkpt>
      <trkpt lat="43.77649" lon="3.8326">
        <ele>450.9</ele>
        <time>2026-05-21T10:48:31.999Z</time>
      </trkpt>
      <trkpt lat="43.77649" lon="3.8326">
        <ele>450.8</ele>
        <time>2026-05-21T10:48:32.999Z</time>
      </trkpt>
      <trkpt lat="43.77649" lon="3.8326">
        <ele>450.9</ele>
        <time>2026-05-21T10:48:33.999Z</time>
      </trkpt>
      <trkpt lat="43.77649" lon="3.8326">
        <ele>450.7</ele>
        <time>2026-05-21T10:48:34.999Z</time>
      </trkpt>
      <trkpt lat="43.77649" lon="3.8326">
        <ele>450.5</ele>
        <time>2026-05-21T10:48:35.999Z</time>
      </trkpt>
      <trkpt lat="43.77649" lon="3.8326">
        <ele>450.4</ele>
        <time>2026-05-21T10:48:36.999Z</time>
      </trkpt>
      <trkpt lat="43.77649" lon="3.8326">
        <ele>450.4</ele>
        <time>2026-05-21T10:48:37.999Z</time>
      </trkpt>
      <trkpt lat="43.77649" lon="3.8326">
        <ele>450.5</ele>
        <time>2026-05-21T10:48:38.999Z</time>
      </trkpt>
      <trkpt lat="43.77649" lon="3.8326">
        <ele>450.6</ele>
        <time>2026-05-21T10:48:39.999Z</time>
      </trkpt>
      <trkpt lat="43.77649" lon="3.8326">
        <ele>450.5</ele>
        <time>2026-05-21T10:48:40.999Z</time>
      </trkpt>
      <trkpt lat="43.77649" lon="3.8326">
        <ele>450.7</ele>
        <time>2026-05-21T10:48:41.999Z</time>
      </trkpt>
      <trkpt lat="43.77649" lon="3.8326">
        <ele>450.8</ele>
        <time>2026-05-21T10:48:42.999Z</time>
      </trkpt>
      <trkpt lat="43.77649" lon="3.8326">
        <ele>450.8</ele>
        <time>2026-05-21T10:48:43.999Z</time>
      </trkpt>
      <trkpt lat="43.77649" lon="3.8326">
        <ele>451</ele>
        <time>2026-05-21T10:48:44.999Z</time>
      </trkpt>
      <trkpt lat="43.77649" lon="3.8326">
        <ele>451.1</ele>
        <time>2026-05-21T10:48:45.999Z</time>
      </trkpt>
      <trkpt lat="43.77649" lon="3.8326">
        <ele>451.1</ele>
        <time>2026-05-21T10:48:46.999Z</time>
      </trkpt>
      <trkpt lat="43.77649" lon="3.8326">
        <ele>451.1</ele>
        <time>2026-05-21T10:48:47.999Z</time>
      </trkpt>
      <trkpt lat="43.77649" lon="3.8326">
        <ele>451.1</ele>
        <time>2026-05-21T10:48:48.999Z</time>
      </trkpt>
      <trkpt lat="43.77649" lon="3.8326">
        <ele>451.2</ele>
        <time>2026-05-21T10:48:49.999Z</time>
      </trkpt>
      <trkpt lat="43.77649" lon="3.8326">
        <ele>451.4</ele>
        <time>2026-05-21T10:48:50.999Z</time>
      </trkpt>
      <trkpt lat="43.77649" lon="3.8326">
        <ele>451.5</ele>
        <time>2026-05-21T10:48:51.999Z</time>
      </trkpt>
      <trkpt lat="43.77649" lon="3.8326">
        <ele>451.6</ele>
        <time>2026-05-21T10:48:52.999Z</time>
      </trkpt>
      <trkpt lat="43.77649" lon="3.8326">
        <ele>451.6</ele>
        <time>2026-05-21T10:48:53.999Z</time>
      </trkpt>
      <trkpt lat="43.77649" lon="3.8326">
        <ele>451.6</ele>
        <time>2026-05-21T10:48:54.999Z</time>
      </trkpt>
      <trkpt lat="43.77649" lon="3.8326">
        <ele>451.6</ele>
        <time>2026-05-21T10:48:55.999Z</time>
      </trkpt>
      <trkpt lat="43.77649" lon="3.8326">
        <ele>451.8</ele>
        <time>2026-05-21T10:48:56.999Z</time>
      </trkpt>
      <trkpt lat="43.77649" lon="3.8326">
        <ele>451.7</ele>
        <time>2026-05-21T10:48:57.999Z</time>
      </trkpt>
      <trkpt lat="43.77649" lon="3.8326">
        <ele>451.8</ele>
        <time>2026-05-21T10:48:58.999Z</time>
      </trkpt>
      <trkpt lat="43.77649" lon="3.8326">
        <ele>452</ele>
        <time>2026-05-21T10:48:59.999Z</time>
      </trkpt>
      <trkpt lat="43.77649" lon="3.8326">
        <ele>452.1</ele>
        <time>2026-05-21T10:49:00.999Z</time>
      </trkpt>
      <trkpt lat="43.77649" lon="3.8326">
        <ele>452.1</ele>
        <time>2026-05-21T10:49:01.999Z</time>
      </trkpt>
      <trkpt lat="43.77649" lon="3.8326">
        <ele>452.2</ele>
        <time>2026-05-21T10:49:02.999Z</time>
      </trkpt>
      <trkpt lat="43.77649" lon="3.8326">
        <ele>452.2</ele>
        <time>2026-05-21T10:49:03.999Z</time>
      </trkpt>
      <trkpt lat="43.77649" lon="3.8326">
        <ele>452.2</ele>
        <time>2026-05-21T10:49:04.999Z</time>
      </trkpt>
      <trkpt lat="43.77649" lon="3.8326">
        <ele>452.4</ele>
        <time>2026-05-21T10:49:05.999Z</time>
      </trkpt>
      <trkpt lat="43.77649" lon="3.8326">
        <ele>452.5</ele>
        <time>2026-05-21T10:49:06.999Z</time>
      </trkpt>
      <trkpt lat="43.77649" lon="3.8326">
        <ele>452.4</ele>
        <time>2026-05-21T10:49:07.999Z</time>
      </trkpt>
      <trkpt lat="43.77649" lon="3.8326">
        <ele>452.1</ele>
        <time>2026-05-21T10:49:08.999Z</time>
      </trkpt>
      <trkpt lat="43.77649" lon="3.8326">
        <ele>452.1</ele>
        <time>2026-05-21T10:49:09.999Z</time>
      </trkpt>
      <trkpt lat="43.77649" lon="3.8326">
        <ele>451.8</ele>
        <time>2026-05-21T10:49:10.999Z</time>
      </trkpt>
      <trkpt lat="43.77649" lon="3.8326">
        <ele>451.8</ele>
        <time>2026-05-21T10:49:11.999Z</time>
      </trkpt>
      <trkpt lat="43.77649" lon="3.8326">
        <ele>451.8</ele>
        <time>2026-05-21T10:49:12.999Z</time>
      </trkpt>
      <trkpt lat="43.77649" lon="3.8326">
        <ele>451.8</ele>
        <time>2026-05-21T10:49:13.999Z</time>
      </trkpt>
      <trkpt lat="43.77649" lon="3.8326">
        <ele>451.7</ele>
        <time>2026-05-21T10:49:14.999Z</time>
      </trkpt>
      <trkpt lat="43.77649" lon="3.8326">
        <ele>451.6</ele>
        <time>2026-05-21T10:49:15.999Z</time>
      </trkpt>
      <trkpt lat="43.77649" lon="3.8326">
        <ele>451.4</ele>
        <time>2026-05-21T10:49:16.999Z</time>
      </trkpt>
      <trkpt lat="43.77649" lon="3.8326">
        <ele>451.2</ele>
        <time>2026-05-21T10:49:17.999Z</time>
      </trkpt>
      <trkpt lat="43.77649" lon="3.8326">
        <ele>451.1</ele>
        <time>2026-05-21T10:49:18.999Z</time>
      </trkpt>
      <trkpt lat="43.77649" lon="3.8326">
        <ele>450.9</ele>
        <time>2026-05-21T10:49:19.999Z</time>
      </trkpt>
      <trkpt lat="43.77649" lon="3.8326">
        <ele>450.7</ele>
        <time>2026-05-21T10:49:20.999Z</time>
      </trkpt>
      <trkpt lat="43.77649" lon="3.8326">
        <ele>450.5</ele>
        <time>2026-05-21T10:49:21.999Z</time>
      </trkpt>
      <trkpt lat="43.77649" lon="3.8326">
        <ele>450.4</ele>
        <time>2026-05-21T10:49:22.999Z</time>
      </trkpt>
      <trkpt lat="43.77649" lon="3.8326">
        <ele>450.3</ele>
        <time>2026-05-21T10:49:23.999Z</time>
      </trkpt>
      <trkpt lat="43.77649" lon="3.8326">
        <ele>450.4</ele>
        <time>2026-05-21T10:49:24.999Z</time>
      </trkpt>
      <trkpt lat="43.77649" lon="3.8326">
        <ele>450.2</ele>
        <time>2026-05-21T10:49:25.999Z</time>
      </trkpt>
      <trkpt lat="43.77649" lon="3.8326">
        <ele>450.2</ele>
        <time>2026-05-21T10:49:26.999Z</time>
      </trkpt>
      <trkpt lat="43.77649" lon="3.8326">
        <ele>450.2</ele>
        <time>2026-05-21T10:49:27.999Z</time>
      </trkpt>
      <trkpt lat="43.77649" lon="3.8326">
        <ele>450.1</ele>
        <time>2026-05-21T10:49:28.999Z</time>
      </trkpt>
      <trkpt lat="43.77649" lon="3.8326">
        <ele>449.9</ele>
        <time>2026-05-21T10:49:29.999Z</time>
      </trkpt>
      <trkpt lat="43.77649" lon="3.8326">
        <ele>449.8</ele>
        <time>2026-05-21T10:49:30.999Z</time>
      </trkpt>
      <trkpt lat="43.77649" lon="3.8326">
        <ele>449.7</ele>
        <time>2026-05-21T10:49:31.999Z</time>
      </trkpt>
      <trkpt lat="43.77649" lon="3.8326">
        <ele>449.7</ele>
        <time>2026-05-21T10:49:32.999Z</time>
      </trkpt>
      <trkpt lat="43.77649" lon="3.8326">
        <ele>449.6</ele>
        <time>2026-05-21T10:49:33.999Z</time>
      </trkpt>
      <trkpt lat="43.77649" lon="3.8326">
        <ele>449.5</ele>
        <time>2026-05-21T10:49:34.999Z</time>
      </trkpt>
      <trkpt lat="43.77649" lon="3.8326">
        <ele>449.5</ele>
        <time>2026-05-21T10:49:35.999Z</time>
      </trkpt>
      <trkpt lat="43.77649" lon="3.8326">
        <ele>449.5</ele>
        <time>2026-05-21T10:49:36.999Z</time>
      </trkpt>
      <trkpt lat="43.77649" lon="3.8326">
        <ele>449.5</ele>
        <time>2026-05-21T10:49:37.999Z</time>
      </trkpt>
      <trkpt lat="43.77649" lon="3.8326">
        <ele>449.6</ele>
        <time>2026-05-21T10:49:38.999Z</time>
      </trkpt>
      <trkpt lat="43.77649" lon="3.8326">
        <ele>449.5</ele>
        <time>2026-05-21T10:49:39.999Z</time>
      </trkpt>
      <trkpt lat="43.77649" lon="3.8326">
        <ele>449.3</ele>
        <time>2026-05-21T10:49:40.999Z</time>
      </trkpt>
      <trkpt lat="43.77649" lon="3.8326">
        <ele>449.4</ele>
        <time>2026-05-21T10:49:41.999Z</time>
      </trkpt>
      <trkpt lat="43.77649" lon="3.8326">
        <ele>449.5</ele>
        <time>2026-05-21T10:49:42.999Z</time>
      </trkpt>
      <trkpt lat="43.77649" lon="3.8326">
        <ele>449.6</ele>
        <time>2026-05-21T10:49:43.999Z</time>
      </trkpt>
      <trkpt lat="43.77649" lon="3.8326">
        <ele>449.8</ele>
        <time>2026-05-21T10:49:44.999Z</time>
      </trkpt>
      <trkpt lat="43.77649" lon="3.8326">
        <ele>449.8</ele>
        <time>2026-05-21T10:49:45.999Z</time>
      </trkpt>
      <trkpt lat="43.77649" lon="3.8326">
        <ele>449.8</ele>
        <time>2026-05-21T10:49:46.999Z</time>
      </trkpt>
      <trkpt lat="43.77649" lon="3.8326">
        <ele>449.8</ele>
        <time>2026-05-21T10:49:47.999Z</time>
      </trkpt>
      <trkpt lat="43.77649" lon="3.8326">
        <ele>449.7</ele>
        <time>2026-05-21T10:49:48.999Z</time>
      </trkpt>
      <trkpt lat="43.77649" lon="3.8326">
        <ele>449.6</ele>
        <time>2026-05-21T10:49:49.999Z</time>
      </trkpt>
      <trkpt lat="43.77649" lon="3.8326">
        <ele>449.6</ele>
        <time>2026-05-21T10:49:50.999Z</time>
      </trkpt>
      <trkpt lat="43.77649" lon="3.8326">
        <ele>449.6</ele>
        <time>2026-05-21T10:49:51.999Z</time>
      </trkpt>
      <trkpt lat="43.77649" lon="3.8326">
        <ele>449.6</ele>
        <time>2026-05-21T10:49:52.999Z</time>
      </trkpt>
      <trkpt lat="43.77649" lon="3.8326">
        <ele>449.6</ele>
        <time>2026-05-21T10:49:53.999Z</time>
      </trkpt>
      <trkpt lat="43.77649" lon="3.8326">
        <ele>449.5</ele>
        <time>2026-05-21T10:49:54.999Z</time>
      </trkpt>
      <trkpt lat="43.77649" lon="3.8326">
        <ele>449.5</ele>
        <time>2026-05-21T10:49:55.999Z</time>
      </trkpt>
      <trkpt lat="43.7765" lon="3.83261">
        <ele>449.5</ele>
        <time>2026-05-21T10:49:56.999Z</time>
      </trkpt>
      <trkpt lat="43.7765" lon="3.83261">
        <ele>449.5</ele>
        <time>2026-05-21T10:49:57.999Z</time>
      </trkpt>
      <trkpt lat="43.7765" lon="3.83261">
        <ele>449.5</ele>
        <time>2026-05-21T10:49:58.999Z</time>
      </trkpt>
      <trkpt lat="43.7765" lon="3.83261">
        <ele>449.5</ele>
        <time>2026-05-21T10:49:59.999Z</time>
      </trkpt>
      <trkpt lat="43.7765" lon="3.83261">
        <ele>449.5</ele>
        <time>2026-05-21T10:50:00.999Z</time>
      </trkpt>
      <trkpt lat="43.7765" lon="3.83261">
        <ele>449.6</ele>
        <time>2026-05-21T10:50:01.999Z</time>
      </trkpt>
      <trkpt lat="43.77649" lon="3.83261">
        <ele>449.6</ele>
        <time>2026-05-21T10:50:02.999Z</time>
      </trkpt>
      <trkpt lat="43.77649" lon="3.83261">
        <ele>449.7</ele>
        <time>2026-05-21T10:50:03.999Z</time>
      </trkpt>
      <trkpt lat="43.77649" lon="3.83261">
        <ele>449.8</ele>
        <time>2026-05-21T10:50:04.999Z</time>
      </trkpt>
      <trkpt lat="43.7765" lon="3.83261">
        <ele>449.8</ele>
        <time>2026-05-21T10:50:05.999Z</time>
      </trkpt>
      <trkpt lat="43.7765" lon="3.83261">
        <ele>449.8</ele>
        <time>2026-05-21T10:50:06.999Z</time>
      </trkpt>
      <trkpt lat="43.7765" lon="3.83261">
        <ele>449.8</ele>
        <time>2026-05-21T10:50:07.999Z</time>
      </trkpt>
      <trkpt lat="43.7765" lon="3.8326">
        <ele>449.6</ele>
        <time>2026-05-21T10:50:08.999Z</time>
      </trkpt>
      <trkpt lat="43.7765" lon="3.8326">
        <ele>449.6</ele>
        <time>2026-05-21T10:50:09.999Z</time>
      </trkpt>
      <trkpt lat="43.7765" lon="3.8326">
        <ele>449.5</ele>
        <time>2026-05-21T10:50:10.999Z</time>
      </trkpt>
      <trkpt lat="43.7765" lon="3.8326">
        <ele>449.5</ele>
        <time>2026-05-21T10:50:11.999Z</time>
      </trkpt>
      <trkpt lat="43.7765" lon="3.8326">
        <ele>449.7</ele>
        <time>2026-05-21T10:50:12.999Z</time>
      </trkpt>
      <trkpt lat="43.7765" lon="3.83261">
        <ele>449.9</ele>
        <time>2026-05-21T10:50:13.999Z</time>
      </trkpt>
      <trkpt lat="43.7765" lon="3.8326">
        <ele>450.1</ele>
        <time>2026-05-21T10:50:14.999Z</time>
      </trkpt>
      <trkpt lat="43.7765" lon="3.8326">
        <ele>450.3</ele>
        <time>2026-05-21T10:50:15.999Z</time>
      </trkpt>
      <trkpt lat="43.7765" lon="3.8326">
        <ele>450.4</ele>
        <time>2026-05-21T10:50:16.999Z</time>
      </trkpt>
      <trkpt lat="43.7765" lon="3.8326">
        <ele>450.5</ele>
        <time>2026-05-21T10:50:17.999Z</time>
      </trkpt>
      <trkpt lat="43.7765" lon="3.8326">
        <ele>450.4</ele>
        <time>2026-05-21T10:50:18.999Z</time>
      </trkpt>
      <trkpt lat="43.7765" lon="3.8326">
        <ele>450.3</ele>
        <time>2026-05-21T10:50:19.999Z</time>
      </trkpt>
      <trkpt lat="43.7765" lon="3.8326">
        <ele>450.3</ele>
        <time>2026-05-21T10:50:20.999Z</time>
      </trkpt>
      <trkpt lat="43.7765" lon="3.8326">
        <ele>450.3</ele>
        <time>2026-05-21T10:50:21.999Z</time>
      </trkpt>
      <trkpt lat="43.7765" lon="3.8326">
        <ele>450.3</ele>
        <time>2026-05-21T10:50:22.999Z</time>
      </trkpt>
      <trkpt lat="43.7765" lon="3.8326">
        <ele>450.3</ele>
        <time>2026-05-21T10:50:23.999Z</time>
      </trkpt>
      <trkpt lat="43.7765" lon="3.8326">
        <ele>450.3</ele>
        <time>2026-05-21T10:50:24.999Z</time>
      </trkpt>
      <trkpt lat="43.7765" lon="3.8326">
        <ele>450.2</ele>
        <time>2026-05-21T10:50:25.999Z</time>
      </trkpt>
      <trkpt lat="43.7765" lon="3.8326">
        <ele>450.2</ele>
        <time>2026-05-21T10:50:26.999Z</time>
      </trkpt>
      <trkpt lat="43.7765" lon="3.8326">
        <ele>450.3</ele>
        <time>2026-05-21T10:50:27.999Z</time>
      </trkpt>
      <trkpt lat="43.7765" lon="3.8326">
        <ele>450.3</ele>
        <time>2026-05-21T10:50:28.999Z</time>
      </trkpt>
      <trkpt lat="43.7765" lon="3.8326">
        <ele>450.7</ele>
        <time>2026-05-21T10:50:29.999Z</time>
      </trkpt>
      <trkpt lat="43.7765" lon="3.8326">
        <ele>450.9</ele>
        <time>2026-05-21T10:50:30.999Z</time>
      </trkpt>
      <trkpt lat="43.7765" lon="3.8326">
        <ele>451</ele>
        <time>2026-05-21T10:50:31.999Z</time>
      </trkpt>
      <trkpt lat="43.7765" lon="3.8326">
        <ele>451.2</ele>
        <time>2026-05-21T10:50:32.999Z</time>
      </trkpt>
      <trkpt lat="43.7765" lon="3.8326">
        <ele>451.2</ele>
        <time>2026-05-21T10:50:33.999Z</time>
      </trkpt>
      <trkpt lat="43.77649" lon="3.8326">
        <ele>451.1</ele>
        <time>2026-05-21T10:50:34.999Z</time>
      </trkpt>
      <trkpt lat="43.77649" lon="3.8326">
        <ele>451</ele>
        <time>2026-05-21T10:50:35.999Z</time>
      </trkpt>
      <trkpt lat="43.77649" lon="3.8326">
        <ele>450.9</ele>
        <time>2026-05-21T10:50:36.999Z</time>
      </trkpt>
      <trkpt lat="43.77649" lon="3.8326">
        <ele>451</ele>
        <time>2026-05-21T10:50:37.999Z</time>
      </trkpt>
      <trkpt lat="43.77649" lon="3.8326">
        <ele>451.1</ele>
        <time>2026-05-21T10:50:38.999Z</time>
      </trkpt>
      <trkpt lat="43.77649" lon="3.8326">
        <ele>451.2</ele>
        <time>2026-05-21T10:50:39.999Z</time>
      </trkpt>
      <trkpt lat="43.77649" lon="3.8326">
        <ele>451.1</ele>
        <time>2026-05-21T10:50:40.999Z</time>
      </trkpt>
      <trkpt lat="43.77649" lon="3.8326">
        <ele>451.2</ele>
        <time>2026-05-21T10:50:41.999Z</time>
      </trkpt>
      <trkpt lat="43.77649" lon="3.8326">
        <ele>451.2</ele>
        <time>2026-05-21T10:50:42.999Z</time>
      </trkpt>
      <trkpt lat="43.77649" lon="3.8326">
        <ele>451.3</ele>
        <time>2026-05-21T10:50:43.999Z</time>
      </trkpt>
      <trkpt lat="43.77649" lon="3.8326">
        <ele>451.5</ele>
        <time>2026-05-21T10:50:44.999Z</time>
      </trkpt>
      <trkpt lat="43.77649" lon="3.8326">
        <ele>451.6</ele>
        <time>2026-05-21T10:50:45.999Z</time>
      </trkpt>
      <trkpt lat="43.77649" lon="3.8326">
        <ele>451.7</ele>
        <time>2026-05-21T10:50:46.999Z</time>
      </trkpt>
      <trkpt lat="43.77649" lon="3.8326">
        <ele>451.9</ele>
        <time>2026-05-21T10:50:47.999Z</time>
      </trkpt>
      <trkpt lat="43.77649" lon="3.8326">
        <ele>452</ele>
        <time>2026-05-21T10:50:48.999Z</time>
      </trkpt>
      <trkpt lat="43.77649" lon="3.8326">
        <ele>452.1</ele>
        <time>2026-05-21T10:50:49.999Z</time>
      </trkpt>
      <trkpt lat="43.77649" lon="3.8326">
        <ele>452.2</ele>
        <time>2026-05-21T10:50:50.999Z</time>
      </trkpt>
      <trkpt lat="43.77649" lon="3.8326">
        <ele>452.1</ele>
        <time>2026-05-21T10:50:51.999Z</time>
      </trkpt>
      <trkpt lat="43.77649" lon="3.8326">
        <ele>452</ele>
        <time>2026-05-21T10:50:52.999Z</time>
      </trkpt>
      <trkpt lat="43.77649" lon="3.8326">
        <ele>452</ele>
        <time>2026-05-21T10:50:53.999Z</time>
      </trkpt>
      <trkpt lat="43.77649" lon="3.8326">
        <ele>452</ele>
        <time>2026-05-21T10:50:54.999Z</time>
      </trkpt>
      <trkpt lat="43.77649" lon="3.8326">
        <ele>451.9</ele>
        <time>2026-05-21T10:50:55.999Z</time>
      </trkpt>
      <trkpt lat="43.77649" lon="3.8326">
        <ele>452</ele>
        <time>2026-05-21T10:50:56.999Z</time>
      </trkpt>
      <trkpt lat="43.77649" lon="3.8326">
        <ele>452</ele>
        <time>2026-05-21T10:50:57.999Z</time>
      </trkpt>
      <trkpt lat="43.77649" lon="3.8326">
        <ele>452</ele>
        <time>2026-05-21T10:50:58.999Z</time>
      </trkpt>
      <trkpt lat="43.77649" lon="3.8326">
        <ele>452.1</ele>
        <time>2026-05-21T10:50:59.999Z</time>
      </trkpt>
      <trkpt lat="43.77649" lon="3.8326">
        <ele>452.2</ele>
        <time>2026-05-21T10:51:00.999Z</time>
      </trkpt>
      <trkpt lat="43.77649" lon="3.8326">
        <ele>452.3</ele>
        <time>2026-05-21T10:51:01.999Z</time>
      </trkpt>
      <trkpt lat="43.77649" lon="3.8326">
        <ele>452.4</ele>
        <time>2026-05-21T10:51:02.999Z</time>
      </trkpt>
      <trkpt lat="43.77649" lon="3.8326">
        <ele>452.5</ele>
        <time>2026-05-21T10:51:03.999Z</time>
      </trkpt>
      <trkpt lat="43.77649" lon="3.8326">
        <ele>452.5</ele>
        <time>2026-05-21T10:51:04.999Z</time>
      </trkpt>
      <trkpt lat="43.77649" lon="3.8326">
        <ele>452.5</ele>
        <time>2026-05-21T10:51:05.999Z</time>
      </trkpt>
      <trkpt lat="43.77649" lon="3.8326">
        <ele>452.5</ele>
        <time>2026-05-21T10:51:06.999Z</time>
      </trkpt>
      <trkpt lat="43.77649" lon="3.8326">
        <ele>452.5</ele>
        <time>2026-05-21T10:51:07.999Z</time>
      </trkpt>
      <trkpt lat="43.77649" lon="3.8326">
        <ele>452.5</ele>
        <time>2026-05-21T10:51:08.999Z</time>
      </trkpt>
      <trkpt lat="43.77649" lon="3.8326">
        <ele>452.5</ele>
        <time>2026-05-21T10:51:09.999Z</time>
      </trkpt>
      <trkpt lat="43.77649" lon="3.8326">
        <ele>452.3</ele>
        <time>2026-05-21T10:51:10.999Z</time>
      </trkpt>
      <trkpt lat="43.77649" lon="3.8326">
        <ele>452.2</ele>
        <time>2026-05-21T10:51:11.999Z</time>
      </trkpt>
      <trkpt lat="43.77648" lon="3.8326">
        <ele>452</ele>
        <time>2026-05-21T10:51:12.999Z</time>
      </trkpt>
      <trkpt lat="43.77648" lon="3.8326">
        <ele>451.8</ele>
        <time>2026-05-21T10:51:13.999Z</time>
      </trkpt>
      <trkpt lat="43.77648" lon="3.8326">
        <ele>451.8</ele>
        <time>2026-05-21T10:51:14.999Z</time>
      </trkpt>
      <trkpt lat="43.77648" lon="3.8326">
        <ele>451.8</ele>
        <time>2026-05-21T10:51:15.999Z</time>
      </trkpt>
      <trkpt lat="43.77648" lon="3.8326">
        <ele>451.8</ele>
        <time>2026-05-21T10:51:16.999Z</time>
      </trkpt>
      <trkpt lat="43.77648" lon="3.8326">
        <ele>451.9</ele>
        <time>2026-05-21T10:51:17.999Z</time>
      </trkpt>
      <trkpt lat="43.77648" lon="3.8326">
        <ele>452</ele>
        <time>2026-05-21T10:51:18.999Z</time>
      </trkpt>
      <trkpt lat="43.77648" lon="3.8326">
        <ele>452.1</ele>
        <time>2026-05-21T10:51:19.999Z</time>
      </trkpt>
      <trkpt lat="43.77648" lon="3.8326">
        <ele>452</ele>
        <time>2026-05-21T10:51:20.999Z</time>
      </trkpt>
      <trkpt lat="43.77648" lon="3.8326">
        <ele>451.8</ele>
        <time>2026-05-21T10:51:21.999Z</time>
      </trkpt>
      <trkpt lat="43.77648" lon="3.8326">
        <ele>451.7</ele>
        <time>2026-05-21T10:51:22.999Z</time>
      </trkpt>
      <trkpt lat="43.77648" lon="3.8326">
        <ele>451.6</ele>
        <time>2026-05-21T10:51:23.999Z</time>
      </trkpt>
      <trkpt lat="43.77648" lon="3.8326">
        <ele>451.6</ele>
        <time>2026-05-21T10:51:24.999Z</time>
      </trkpt>
      <trkpt lat="43.77648" lon="3.8326">
        <ele>451.6</ele>
        <time>2026-05-21T10:51:25.999Z</time>
      </trkpt>
      <trkpt lat="43.77648" lon="3.8326">
        <ele>451.5</ele>
        <time>2026-05-21T10:51:26.999Z</time>
      </trkpt>
      <trkpt lat="43.77648" lon="3.8326">
        <ele>451.5</ele>
        <time>2026-05-21T10:51:27.999Z</time>
      </trkpt>
      <trkpt lat="43.77648" lon="3.8326">
        <ele>451.6</ele>
        <time>2026-05-21T10:51:28.999Z</time>
      </trkpt>
      <trkpt lat="43.77648" lon="3.8326">
        <ele>451.7</ele>
        <time>2026-05-21T10:51:29.999Z</time>
      </trkpt>
      <trkpt lat="43.77648" lon="3.8326">
        <ele>451.5</ele>
        <time>2026-05-21T10:51:30.999Z</time>
      </trkpt>
      <trkpt lat="43.77648" lon="3.8326">
        <ele>451.5</ele>
        <time>2026-05-21T10:51:31.999Z</time>
      </trkpt>
      <trkpt lat="43.77648" lon="3.8326">
        <ele>451.4</ele>
        <time>2026-05-21T10:51:32.999Z</time>
      </trkpt>
      <trkpt lat="43.77648" lon="3.8326">
        <ele>451.4</ele>
        <time>2026-05-21T10:51:33.999Z</time>
      </trkpt>
      <trkpt lat="43.77648" lon="3.8326">
        <ele>451.6</ele>
        <time>2026-05-21T10:51:34.999Z</time>
      </trkpt>
      <trkpt lat="43.77648" lon="3.8326">
        <ele>451.8</ele>
        <time>2026-05-21T10:51:35.999Z</time>
      </trkpt>
      <trkpt lat="43.77648" lon="3.8326">
        <ele>452</ele>
        <time>2026-05-21T10:51:36.999Z</time>
      </trkpt>
      <trkpt lat="43.77648" lon="3.8326">
        <ele>451.9</ele>
        <time>2026-05-21T10:51:37.999Z</time>
      </trkpt>
      <trkpt lat="43.77648" lon="3.8326">
        <ele>451.9</ele>
        <time>2026-05-21T10:51:38.999Z</time>
      </trkpt>
      <trkpt lat="43.77648" lon="3.8326">
        <ele>451.9</ele>
        <time>2026-05-21T10:51:39.999Z</time>
      </trkpt>
      <trkpt lat="43.77648" lon="3.8326">
        <ele>451.9</ele>
        <time>2026-05-21T10:51:40.999Z</time>
      </trkpt>
      <trkpt lat="43.77648" lon="3.8326">
        <ele>452</ele>
        <time>2026-05-21T10:51:41.999Z</time>
      </trkpt>
      <trkpt lat="43.77648" lon="3.8326">
        <ele>452.2</ele>
        <time>2026-05-21T10:51:42.999Z</time>
      </trkpt>
      <trkpt lat="43.77648" lon="3.8326">
        <ele>452.3</ele>
        <time>2026-05-21T10:51:43.999Z</time>
      </trkpt>
      <trkpt lat="43.77648" lon="3.8326">
        <ele>452.4</ele>
        <time>2026-05-21T10:51:44.999Z</time>
      </trkpt>
      <trkpt lat="43.77648" lon="3.8326">
        <ele>452.5</ele>
        <time>2026-05-21T10:51:45.999Z</time>
      </trkpt>
      <trkpt lat="43.77648" lon="3.8326">
        <ele>452.5</ele>
        <time>2026-05-21T10:51:46.999Z</time>
      </trkpt>
      <trkpt lat="43.77648" lon="3.8326">
        <ele>452.7</ele>
        <time>2026-05-21T10:51:47.999Z</time>
      </trkpt>
      <trkpt lat="43.77648" lon="3.8326">
        <ele>452.8</ele>
        <time>2026-05-21T10:51:48.999Z</time>
      </trkpt>
      <trkpt lat="43.77648" lon="3.8326">
        <ele>452.9</ele>
        <time>2026-05-21T10:51:49.999Z</time>
      </trkpt>
      <trkpt lat="43.77648" lon="3.8326">
        <ele>452.9</ele>
        <time>2026-05-21T10:51:50.999Z</time>
      </trkpt>
      <trkpt lat="43.77648" lon="3.8326">
        <ele>452.9</ele>
        <time>2026-05-21T10:51:51.999Z</time>
      </trkpt>
      <trkpt lat="43.77648" lon="3.8326">
        <ele>452.8</ele>
        <time>2026-05-21T10:51:52.999Z</time>
      </trkpt>
      <trkpt lat="43.77648" lon="3.8326">
        <ele>452.9</ele>
        <time>2026-05-21T10:51:53.999Z</time>
      </trkpt>
      <trkpt lat="43.77649" lon="3.8326">
        <ele>452.9</ele>
        <time>2026-05-21T10:51:54.999Z</time>
      </trkpt>
      <trkpt lat="43.77649" lon="3.8326">
        <ele>452.9</ele>
        <time>2026-05-21T10:51:55.999Z</time>
      </trkpt>
      <trkpt lat="43.77649" lon="3.8326">
        <ele>452.9</ele>
        <time>2026-05-21T10:51:56.999Z</time>
      </trkpt>
      <trkpt lat="43.77649" lon="3.8326">
        <ele>453</ele>
        <time>2026-05-21T10:51:57.999Z</time>
      </trkpt>
      <trkpt lat="43.77649" lon="3.8326">
        <ele>453.2</ele>
        <time>2026-05-21T10:51:58.999Z</time>
      </trkpt>
      <trkpt lat="43.77649" lon="3.8326">
        <ele>453.2</ele>
        <time>2026-05-21T10:51:59.999Z</time>
      </trkpt>
      <trkpt lat="43.77649" lon="3.8326">
        <ele>453.2</ele>
        <time>2026-05-21T10:52:00.999Z</time>
      </trkpt>
      <trkpt lat="43.77649" lon="3.8326">
        <ele>453.3</ele>
        <time>2026-05-21T10:52:01.999Z</time>
      </trkpt>
      <trkpt lat="43.77649" lon="3.8326">
        <ele>453.4</ele>
        <time>2026-05-21T10:52:02.999Z</time>
      </trkpt>
      <trkpt lat="43.77649" lon="3.8326">
        <ele>453.5</ele>
        <time>2026-05-21T10:52:03.999Z</time>
      </trkpt>
      <trkpt lat="43.77649" lon="3.8326">
        <ele>453.6</ele>
        <time>2026-05-21T10:52:04.999Z</time>
      </trkpt>
      <trkpt lat="43.77649" lon="3.8326">
        <ele>453.7</ele>
        <time>2026-05-21T10:52:05.999Z</time>
      </trkpt>
      <trkpt lat="43.77649" lon="3.8326">
        <ele>453.9</ele>
        <time>2026-05-21T10:52:06.999Z</time>
      </trkpt>
      <trkpt lat="43.77649" lon="3.8326">
        <ele>454</ele>
        <time>2026-05-21T10:52:07.999Z</time>
      </trkpt>
      <trkpt lat="43.77649" lon="3.8326">
        <ele>454</ele>
        <time>2026-05-21T10:52:08.999Z</time>
      </trkpt>
      <trkpt lat="43.77648" lon="3.8326">
        <ele>454.1</ele>
        <time>2026-05-21T10:52:09.999Z</time>
      </trkpt>
      <trkpt lat="43.77648" lon="3.8326">
        <ele>454.2</ele>
        <time>2026-05-21T10:52:10.999Z</time>
      </trkpt>
      <trkpt lat="43.77648" lon="3.8326">
        <ele>454.3</ele>
        <time>2026-05-21T10:52:11.999Z</time>
      </trkpt>
      <trkpt lat="43.77648" lon="3.8326">
        <ele>454.4</ele>
        <time>2026-05-21T10:52:12.999Z</time>
      </trkpt>
      <trkpt lat="43.77648" lon="3.8326">
        <ele>454.6</ele>
        <time>2026-05-21T10:52:13.999Z</time>
      </trkpt>
      <trkpt lat="43.77648" lon="3.8326">
        <ele>454.7</ele>
        <time>2026-05-21T10:52:14.999Z</time>
      </trkpt>
      <trkpt lat="43.77648" lon="3.8326">
        <ele>454.8</ele>
        <time>2026-05-21T10:52:15.999Z</time>
      </trkpt>
      <trkpt lat="43.77648" lon="3.8326">
        <ele>454.9</ele>
        <time>2026-05-21T10:52:16.999Z</time>
      </trkpt>
      <trkpt lat="43.77648" lon="3.8326">
        <ele>454.9</ele>
        <time>2026-05-21T10:52:17.999Z</time>
      </trkpt>
      <trkpt lat="43.77648" lon="3.8326">
        <ele>455</ele>
        <time>2026-05-21T10:52:18.999Z</time>
      </trkpt>
      <trkpt lat="43.77648" lon="3.8326">
        <ele>455</ele>
        <time>2026-05-21T10:52:19.999Z</time>
      </trkpt>
      <trkpt lat="43.77648" lon="3.83259">
        <ele>455.2</ele>
        <time>2026-05-21T10:52:20.999Z</time>
      </trkpt>
      <trkpt lat="43.77648" lon="3.83259">
        <ele>455.4</ele>
        <time>2026-05-21T10:52:21.999Z</time>
      </trkpt>
      <trkpt lat="43.77648" lon="3.83259">
        <ele>455.4</ele>
        <time>2026-05-21T10:52:22.999Z</time>
      </trkpt>
      <trkpt lat="43.77649" lon="3.83259">
        <ele>455.6</ele>
        <time>2026-05-21T10:52:23.999Z</time>
      </trkpt>
      <trkpt lat="43.77648" lon="3.83259">
        <ele>455.6</ele>
        <time>2026-05-21T10:52:24.999Z</time>
      </trkpt>
      <trkpt lat="43.77649" lon="3.83259">
        <ele>455.6</ele>
        <time>2026-05-21T10:52:25.999Z</time>
      </trkpt>
      <trkpt lat="43.77649" lon="3.83259">
        <ele>455.6</ele>
        <time>2026-05-21T10:52:26.999Z</time>
      </trkpt>
      <trkpt lat="43.77649" lon="3.83259">
        <ele>455.5</ele>
        <time>2026-05-21T10:52:27.999Z</time>
      </trkpt>
      <trkpt lat="43.77649" lon="3.83259">
        <ele>455.5</ele>
        <time>2026-05-21T10:52:28.999Z</time>
      </trkpt>
      <trkpt lat="43.77649" lon="3.83259">
        <ele>455.3</ele>
        <time>2026-05-21T10:52:29.999Z</time>
      </trkpt>
      <trkpt lat="43.77649" lon="3.83259">
        <ele>455.2</ele>
        <time>2026-05-21T10:52:30.999Z</time>
      </trkpt>
      <trkpt lat="43.77649" lon="3.83259">
        <ele>455.1</ele>
        <time>2026-05-21T10:52:31.999Z</time>
      </trkpt>
      <trkpt lat="43.77649" lon="3.83259">
        <ele>455</ele>
        <time>2026-05-21T10:52:32.999Z</time>
      </trkpt>
      <trkpt lat="43.77649" lon="3.83259">
        <ele>454.9</ele>
        <time>2026-05-21T10:52:33.999Z</time>
      </trkpt>
      <trkpt lat="43.77649" lon="3.83259">
        <ele>454.7</ele>
        <time>2026-05-21T10:52:34.999Z</time>
      </trkpt>
      <trkpt lat="43.77649" lon="3.83259">
        <ele>454.6</ele>
        <time>2026-05-21T10:52:35.999Z</time>
      </trkpt>
      <trkpt lat="43.77649" lon="3.83259">
        <ele>454.5</ele>
        <time>2026-05-21T10:52:36.999Z</time>
      </trkpt>
      <trkpt lat="43.77649" lon="3.83258">
        <ele>454.4</ele>
        <time>2026-05-21T10:52:37.999Z</time>
      </trkpt>
      <trkpt lat="43.77649" lon="3.83258">
        <ele>454.2</ele>
        <time>2026-05-21T10:52:38.999Z</time>
      </trkpt>
      <trkpt lat="43.77649" lon="3.83258">
        <ele>454.1</ele>
        <time>2026-05-21T10:52:39.999Z</time>
      </trkpt>
      <trkpt lat="43.77649" lon="3.83258">
        <ele>453.8</ele>
        <time>2026-05-21T10:52:40.999Z</time>
      </trkpt>
      <trkpt lat="43.77649" lon="3.83258">
        <ele>453.7</ele>
        <time>2026-05-21T10:52:41.999Z</time>
      </trkpt>
      <trkpt lat="43.77649" lon="3.83258">
        <ele>453.7</ele>
        <time>2026-05-21T10:52:42.999Z</time>
      </trkpt>
      <trkpt lat="43.77649" lon="3.83258">
        <ele>453.7</ele>
        <time>2026-05-21T10:52:43.999Z</time>
      </trkpt>
      <trkpt lat="43.77649" lon="3.83258">
        <ele>453.6</ele>
        <time>2026-05-21T10:52:44.999Z</time>
      </trkpt>
      <trkpt lat="43.77649" lon="3.83258">
        <ele>453.5</ele>
        <time>2026-05-21T10:52:45.999Z</time>
      </trkpt>
      <trkpt lat="43.77649" lon="3.83258">
        <ele>453.3</ele>
        <time>2026-05-21T10:52:46.999Z</time>
      </trkpt>
      <trkpt lat="43.77649" lon="3.83258">
        <ele>453.2</ele>
        <time>2026-05-21T10:52:47.999Z</time>
      </trkpt>
      <trkpt lat="43.77649" lon="3.83258">
        <ele>453.1</ele>
        <time>2026-05-21T10:52:48.999Z</time>
      </trkpt>
      <trkpt lat="43.77649" lon="3.83258">
        <ele>453.1</ele>
        <time>2026-05-21T10:52:49.999Z</time>
      </trkpt>
      <trkpt lat="43.77649" lon="3.83258">
        <ele>453.2</ele>
        <time>2026-05-21T10:52:50.999Z</time>
      </trkpt>
      <trkpt lat="43.77649" lon="3.83258">
        <ele>453.2</ele>
        <time>2026-05-21T10:52:51.999Z</time>
      </trkpt>
      <trkpt lat="43.77649" lon="3.83258">
        <ele>453.3</ele>
        <time>2026-05-21T10:52:52.999Z</time>
      </trkpt>
      <trkpt lat="43.77649" lon="3.83258">
        <ele>453.2</ele>
        <time>2026-05-21T10:52:53.999Z</time>
      </trkpt>
      <trkpt lat="43.77649" lon="3.83258">
        <ele>453.3</ele>
        <time>2026-05-21T10:52:54.999Z</time>
      </trkpt>
      <trkpt lat="43.77649" lon="3.83258">
        <ele>453.3</ele>
        <time>2026-05-21T10:52:55.999Z</time>
      </trkpt>
      <trkpt lat="43.77649" lon="3.83258">
        <ele>453.3</ele>
        <time>2026-05-21T10:52:56.999Z</time>
      </trkpt>
      <trkpt lat="43.77649" lon="3.83258">
        <ele>453.4</ele>
        <time>2026-05-21T10:52:57.999Z</time>
      </trkpt>
      <trkpt lat="43.77649" lon="3.83258">
        <ele>453.4</ele>
        <time>2026-05-21T10:52:58.999Z</time>
      </trkpt>
      <trkpt lat="43.77649" lon="3.83258">
        <ele>453.4</ele>
        <time>2026-05-21T10:52:59.999Z</time>
      </trkpt>
      <trkpt lat="43.77649" lon="3.83258">
        <ele>453.4</ele>
        <time>2026-05-21T10:53:00.999Z</time>
      </trkpt>
      <trkpt lat="43.77649" lon="3.83258">
        <ele>453.3</ele>
        <time>2026-05-21T10:53:01.999Z</time>
      </trkpt>
      <trkpt lat="43.77649" lon="3.83258">
        <ele>453.3</ele>
        <time>2026-05-21T10:53:02.999Z</time>
      </trkpt>
      <trkpt lat="43.77649" lon="3.83258">
        <ele>453.4</ele>
        <time>2026-05-21T10:53:03.999Z</time>
      </trkpt>
      <trkpt lat="43.77649" lon="3.83258">
        <ele>453.5</ele>
        <time>2026-05-21T10:53:04.999Z</time>
      </trkpt>
      <trkpt lat="43.77649" lon="3.83258">
        <ele>453.5</ele>
        <time>2026-05-21T10:53:05.999Z</time>
      </trkpt>
      <trkpt lat="43.77649" lon="3.83258">
        <ele>453.4</ele>
        <time>2026-05-21T10:53:06.999Z</time>
      </trkpt>
      <trkpt lat="43.77649" lon="3.83257">
        <ele>453.5</ele>
        <time>2026-05-21T10:53:07.999Z</time>
      </trkpt>
      <trkpt lat="43.77649" lon="3.83257">
        <ele>453.6</ele>
        <time>2026-05-21T10:53:08.999Z</time>
      </trkpt>
      <trkpt lat="43.77649" lon="3.83257">
        <ele>453.7</ele>
        <time>2026-05-21T10:53:09.999Z</time>
      </trkpt>
      <trkpt lat="43.77649" lon="3.83257">
        <ele>453.7</ele>
        <time>2026-05-21T10:53:10.999Z</time>
      </trkpt>
      <trkpt lat="43.77649" lon="3.83257">
        <ele>453.7</ele>
        <time>2026-05-21T10:53:11.999Z</time>
      </trkpt>
      <trkpt lat="43.77649" lon="3.83257">
        <ele>453.7</ele>
        <time>2026-05-21T10:53:12.999Z</time>
      </trkpt>
      <trkpt lat="43.77649" lon="3.83257">
        <ele>453.8</ele>
        <time>2026-05-21T10:53:13.999Z</time>
      </trkpt>
      <trkpt lat="43.77649" lon="3.83257">
        <ele>453.8</ele>
        <time>2026-05-21T10:53:14.999Z</time>
      </trkpt>
      <trkpt lat="43.77649" lon="3.83257">
        <ele>453.8</ele>
        <time>2026-05-21T10:53:15.999Z</time>
      </trkpt>
      <trkpt lat="43.77649" lon="3.83257">
        <ele>453.8</ele>
        <time>2026-05-21T10:53:16.999Z</time>
      </trkpt>
      <trkpt lat="43.77649" lon="3.83257">
        <ele>453.8</ele>
        <time>2026-05-21T10:53:17.999Z</time>
      </trkpt>
      <trkpt lat="43.77649" lon="3.83257">
        <ele>453.8</ele>
        <time>2026-05-21T10:53:18.999Z</time>
      </trkpt>
      <trkpt lat="43.77649" lon="3.83257">
        <ele>453.9</ele>
        <time>2026-05-21T10:53:19.999Z</time>
      </trkpt>
      <trkpt lat="43.77649" lon="3.83257">
        <ele>453.9</ele>
        <time>2026-05-21T10:53:20.999Z</time>
      </trkpt>
      <trkpt lat="43.77649" lon="3.83257">
        <ele>453.9</ele>
        <time>2026-05-21T10:53:21.999Z</time>
      </trkpt>
      <trkpt lat="43.77649" lon="3.83258">
        <ele>453.9</ele>
        <time>2026-05-21T10:53:22.999Z</time>
      </trkpt>
      <trkpt lat="43.77649" lon="3.83258">
        <ele>453.9</ele>
        <time>2026-05-21T10:53:23.999Z</time>
      </trkpt>
      <trkpt lat="43.77649" lon="3.83258">
        <ele>453.8</ele>
        <time>2026-05-21T10:53:24.999Z</time>
      </trkpt>
      <trkpt lat="43.77649" lon="3.83258">
        <ele>453.5</ele>
        <time>2026-05-21T10:53:25.999Z</time>
      </trkpt>
      <trkpt lat="43.77649" lon="3.83258">
        <ele>453.4</ele>
        <time>2026-05-21T10:53:26.999Z</time>
      </trkpt>
      <trkpt lat="43.77649" lon="3.83258">
        <ele>453.3</ele>
        <time>2026-05-21T10:53:27.999Z</time>
      </trkpt>
      <trkpt lat="43.77649" lon="3.83258">
        <ele>453.2</ele>
        <time>2026-05-21T10:53:28.999Z</time>
      </trkpt>
      <trkpt lat="43.77649" lon="3.83258">
        <ele>453</ele>
        <time>2026-05-21T10:53:29.999Z</time>
      </trkpt>
      <trkpt lat="43.77649" lon="3.83258">
        <ele>452.9</ele>
        <time>2026-05-21T10:53:30.999Z</time>
      </trkpt>
      <trkpt lat="43.77648" lon="3.83258">
        <ele>452.7</ele>
        <time>2026-05-21T10:53:31.999Z</time>
      </trkpt>
      <trkpt lat="43.77648" lon="3.83258">
        <ele>452.7</ele>
        <time>2026-05-21T10:53:32.999Z</time>
      </trkpt>
      <trkpt lat="43.77649" lon="3.83258">
        <ele>452.8</ele>
        <time>2026-05-21T10:53:33.999Z</time>
      </trkpt>
      <trkpt lat="43.77649" lon="3.83258">
        <ele>452.8</ele>
        <time>2026-05-21T10:53:34.999Z</time>
      </trkpt>
      <trkpt lat="43.77649" lon="3.83258">
        <ele>452.7</ele>
        <time>2026-05-21T10:53:35.999Z</time>
      </trkpt>
      <trkpt lat="43.77649" lon="3.83258">
        <ele>452.7</ele>
        <time>2026-05-21T10:53:36.999Z</time>
      </trkpt>
      <trkpt lat="43.77649" lon="3.83258">
        <ele>452.7</ele>
        <time>2026-05-21T10:53:37.999Z</time>
      </trkpt>
      <trkpt lat="43.77649" lon="3.83258">
        <ele>452.8</ele>
        <time>2026-05-21T10:53:38.999Z</time>
      </trkpt>
      <trkpt lat="43.77648" lon="3.83258">
        <ele>452.8</ele>
        <time>2026-05-21T10:53:39.999Z</time>
      </trkpt>
      <trkpt lat="43.77648" lon="3.83258">
        <ele>452.8</ele>
        <time>2026-05-21T10:53:40.999Z</time>
      </trkpt>
      <trkpt lat="43.77648" lon="3.83258">
        <ele>453</ele>
        <time>2026-05-21T10:53:41.999Z</time>
      </trkpt>
      <trkpt lat="43.77648" lon="3.83258">
        <ele>453.1</ele>
        <time>2026-05-21T10:53:42.999Z</time>
      </trkpt>
      <trkpt lat="43.77648" lon="3.83258">
        <ele>453.1</ele>
        <time>2026-05-21T10:53:43.999Z</time>
      </trkpt>
      <trkpt lat="43.77648" lon="3.83258">
        <ele>453.1</ele>
        <time>2026-05-21T10:53:44.999Z</time>
      </trkpt>
      <trkpt lat="43.77648" lon="3.83258">
        <ele>453.1</ele>
        <time>2026-05-21T10:53:45.999Z</time>
      </trkpt>
      <trkpt lat="43.77648" lon="3.83258">
        <ele>453.1</ele>
        <time>2026-05-21T10:53:46.999Z</time>
      </trkpt>
      <trkpt lat="43.77648" lon="3.83259">
        <ele>453.1</ele>
        <time>2026-05-21T10:53:47.999Z</time>
      </trkpt>
      <trkpt lat="43.77648" lon="3.83259">
        <ele>453.1</ele>
        <time>2026-05-21T10:53:48.999Z</time>
      </trkpt>
      <trkpt lat="43.77648" lon="3.83259">
        <ele>453</ele>
        <time>2026-05-21T10:53:49.999Z</time>
      </trkpt>
      <trkpt lat="43.77648" lon="3.83259">
        <ele>453</ele>
        <time>2026-05-21T10:53:50.999Z</time>
      </trkpt>
      <trkpt lat="43.77648" lon="3.83259">
        <ele>453</ele>
        <time>2026-05-21T10:53:51.999Z</time>
      </trkpt>
      <trkpt lat="43.77648" lon="3.83259">
        <ele>453</ele>
        <time>2026-05-21T10:53:52.999Z</time>
      </trkpt>
      <trkpt lat="43.77648" lon="3.83259">
        <ele>452.9</ele>
        <time>2026-05-21T10:53:53.999Z</time>
      </trkpt>
      <trkpt lat="43.77648" lon="3.83259">
        <ele>452.9</ele>
        <time>2026-05-21T10:53:54.999Z</time>
      </trkpt>
      <trkpt lat="43.77648" lon="3.83259">
        <ele>452.8</ele>
        <time>2026-05-21T10:53:55.999Z</time>
      </trkpt>
      <trkpt lat="43.77648" lon="3.83259">
        <ele>452.8</ele>
        <time>2026-05-21T10:53:56.999Z</time>
      </trkpt>
      <trkpt lat="43.77648" lon="3.83259">
        <ele>452.5</ele>
        <time>2026-05-21T10:53:57.999Z</time>
      </trkpt>
      <trkpt lat="43.77648" lon="3.83259">
        <ele>452.3</ele>
        <time>2026-05-21T10:53:58.999Z</time>
      </trkpt>
      <trkpt lat="43.77648" lon="3.83259">
        <ele>452.3</ele>
        <time>2026-05-21T10:53:59.999Z</time>
      </trkpt>
      <trkpt lat="43.77648" lon="3.83259">
        <ele>452.3</ele>
        <time>2026-05-21T10:54:00.999Z</time>
      </trkpt>
      <trkpt lat="43.77648" lon="3.83259">
        <ele>452.4</ele>
        <time>2026-05-21T10:54:01.999Z</time>
      </trkpt>
      <trkpt lat="43.77648" lon="3.83259">
        <ele>452.4</ele>
        <time>2026-05-21T10:54:02.999Z</time>
      </trkpt>
      <trkpt lat="43.77648" lon="3.83259">
        <ele>452.5</ele>
        <time>2026-05-21T10:54:03.999Z</time>
      </trkpt>
      <trkpt lat="43.77648" lon="3.83259">
        <ele>452.4</ele>
        <time>2026-05-21T10:54:04.999Z</time>
      </trkpt>
      <trkpt lat="43.77648" lon="3.83259">
        <ele>452.4</ele>
        <time>2026-05-21T10:54:05.999Z</time>
      </trkpt>
      <trkpt lat="43.77648" lon="3.83259">
        <ele>452.4</ele>
        <time>2026-05-21T10:54:06.999Z</time>
      </trkpt>
      <trkpt lat="43.77648" lon="3.83259">
        <ele>452.4</ele>
        <time>2026-05-21T10:54:07.999Z</time>
      </trkpt>
      <trkpt lat="43.77648" lon="3.83259">
        <ele>452.4</ele>
        <time>2026-05-21T10:54:08.999Z</time>
      </trkpt>
      <trkpt lat="43.77648" lon="3.83259">
        <ele>452.4</ele>
        <time>2026-05-21T10:54:09.999Z</time>
      </trkpt>
      <trkpt lat="43.77648" lon="3.83259">
        <ele>452.5</ele>
        <time>2026-05-21T10:54:10.999Z</time>
      </trkpt>
      <trkpt lat="43.77648" lon="3.83259">
        <ele>452.4</ele>
        <time>2026-05-21T10:54:11.999Z</time>
      </trkpt>
      <trkpt lat="43.77648" lon="3.83259">
        <ele>452.4</ele>
        <time>2026-05-21T10:54:12.999Z</time>
      </trkpt>
      <trkpt lat="43.77648" lon="3.83259">
        <ele>452.3</ele>
        <time>2026-05-21T10:54:13.999Z</time>
      </trkpt>
      <trkpt lat="43.77648" lon="3.83259">
        <ele>452.3</ele>
        <time>2026-05-21T10:54:14.999Z</time>
      </trkpt>
      <trkpt lat="43.77648" lon="3.83259">
        <ele>452.3</ele>
        <time>2026-05-21T10:54:15.999Z</time>
      </trkpt>
      <trkpt lat="43.77648" lon="3.83259">
        <ele>452.1</ele>
        <time>2026-05-21T10:54:16.999Z</time>
      </trkpt>
      <trkpt lat="43.77648" lon="3.83259">
        <ele>452.1</ele>
        <time>2026-05-21T10:54:17.999Z</time>
      </trkpt>
      <trkpt lat="43.77648" lon="3.83259">
        <ele>452.1</ele>
        <time>2026-05-21T10:54:18.999Z</time>
      </trkpt>
      <trkpt lat="43.77648" lon="3.83259">
        <ele>451.9</ele>
        <time>2026-05-21T10:54:19.999Z</time>
      </trkpt>
      <trkpt lat="43.77648" lon="3.83259">
        <ele>451.9</ele>
        <time>2026-05-21T10:54:20.999Z</time>
      </trkpt>
      <trkpt lat="43.77648" lon="3.83259">
        <ele>451.8</ele>
        <time>2026-05-21T10:54:21.999Z</time>
      </trkpt>
      <trkpt lat="43.77648" lon="3.83259">
        <ele>451.8</ele>
        <time>2026-05-21T10:54:22.999Z</time>
      </trkpt>
      <trkpt lat="43.77648" lon="3.83259">
        <ele>451.8</ele>
        <time>2026-05-21T10:54:23.999Z</time>
      </trkpt>
      <trkpt lat="43.77648" lon="3.83259">
        <ele>451.8</ele>
        <time>2026-05-21T10:54:24.999Z</time>
      </trkpt>
      <trkpt lat="43.77648" lon="3.83259">
        <ele>451.8</ele>
        <time>2026-05-21T10:54:25.999Z</time>
      </trkpt>
      <trkpt lat="43.77648" lon="3.83259">
        <ele>451.8</ele>
        <time>2026-05-21T10:54:26.999Z</time>
      </trkpt>
      <trkpt lat="43.77648" lon="3.83259">
        <ele>451.8</ele>
        <time>2026-05-21T10:54:27.999Z</time>
      </trkpt>
      <trkpt lat="43.77648" lon="3.83259">
        <ele>451.8</ele>
        <time>2026-05-21T10:54:28.999Z</time>
      </trkpt>
      <trkpt lat="43.77648" lon="3.83259">
        <ele>451.8</ele>
        <time>2026-05-21T10:54:29.999Z</time>
      </trkpt>
      <trkpt lat="43.77648" lon="3.83259">
        <ele>451.7</ele>
        <time>2026-05-21T10:54:30.999Z</time>
      </trkpt>
      <trkpt lat="43.77648" lon="3.83259">
        <ele>451.7</ele>
        <time>2026-05-21T10:54:31.999Z</time>
      </trkpt>
      <trkpt lat="43.77648" lon="3.83258">
        <ele>451.7</ele>
        <time>2026-05-21T10:54:32.999Z</time>
      </trkpt>
      <trkpt lat="43.77648" lon="3.83258">
        <ele>451.7</ele>
        <time>2026-05-21T10:54:33.999Z</time>
      </trkpt>
      <trkpt lat="43.77648" lon="3.83258">
        <ele>451.7</ele>
        <time>2026-05-21T10:54:34.999Z</time>
      </trkpt>
      <trkpt lat="43.77648" lon="3.83258">
        <ele>451.8</ele>
        <time>2026-05-21T10:54:35.999Z</time>
      </trkpt>
      <trkpt lat="43.77648" lon="3.83258">
        <ele>451.8</ele>
        <time>2026-05-21T10:54:36.999Z</time>
      </trkpt>
      <trkpt lat="43.77648" lon="3.83258">
        <ele>451.7</ele>
        <time>2026-05-21T10:54:37.999Z</time>
      </trkpt>
      <trkpt lat="43.77648" lon="3.83258">
        <ele>451.8</ele>
        <time>2026-05-21T10:54:38.999Z</time>
      </trkpt>
      <trkpt lat="43.77648" lon="3.83258">
        <ele>451.8</ele>
        <time>2026-05-21T10:54:39.999Z</time>
      </trkpt>
      <trkpt lat="43.77648" lon="3.83258">
        <ele>451.7</ele>
        <time>2026-05-21T10:54:40.999Z</time>
      </trkpt>
      <trkpt lat="43.77648" lon="3.83258">
        <ele>451.7</ele>
        <time>2026-05-21T10:54:41.999Z</time>
      </trkpt>
      <trkpt lat="43.77648" lon="3.83258">
        <ele>451.7</ele>
        <time>2026-05-21T10:54:42.999Z</time>
      </trkpt>
      <trkpt lat="43.77648" lon="3.83258">
        <ele>451.8</ele>
        <time>2026-05-21T10:54:43.999Z</time>
      </trkpt>
      <trkpt lat="43.77648" lon="3.83258">
        <ele>451.7</ele>
        <time>2026-05-21T10:54:44.999Z</time>
      </trkpt>
      <trkpt lat="43.77648" lon="3.83258">
        <ele>451.7</ele>
        <time>2026-05-21T10:54:45.999Z</time>
      </trkpt>
      <trkpt lat="43.77648" lon="3.83258">
        <ele>451.7</ele>
        <time>2026-05-21T10:54:46.999Z</time>
      </trkpt>
      <trkpt lat="43.77648" lon="3.83258">
        <ele>451.7</ele>
        <time>2026-05-21T10:54:47.999Z</time>
      </trkpt>
      <trkpt lat="43.77648" lon="3.83258">
        <ele>451.7</ele>
        <time>2026-05-21T10:54:48.999Z</time>
      </trkpt>
      <trkpt lat="43.77648" lon="3.83258">
        <ele>451.6</ele>
        <time>2026-05-21T10:54:49.999Z</time>
      </trkpt>
      <trkpt lat="43.77648" lon="3.83258">
        <ele>451.6</ele>
        <time>2026-05-21T10:54:50.999Z</time>
      </trkpt>
      <trkpt lat="43.77648" lon="3.83258">
        <ele>451.7</ele>
        <time>2026-05-21T10:54:51.999Z</time>
      </trkpt>
      <trkpt lat="43.77648" lon="3.83258">
        <ele>451.7</ele>
        <time>2026-05-21T10:54:52.999Z</time>
      </trkpt>
      <trkpt lat="43.77648" lon="3.83258">
        <ele>451.7</ele>
        <time>2026-05-21T10:54:53.999Z</time>
      </trkpt>
      <trkpt lat="43.77648" lon="3.83258">
        <ele>451.6</ele>
        <time>2026-05-21T10:54:54.999Z</time>
      </trkpt>
      <trkpt lat="43.77648" lon="3.83258">
        <ele>451.5</ele>
        <time>2026-05-21T10:54:55.999Z</time>
      </trkpt>
      <trkpt lat="43.77648" lon="3.83258">
        <ele>451.4</ele>
        <time>2026-05-21T10:54:56.999Z</time>
      </trkpt>
      <trkpt lat="43.77648" lon="3.83258">
        <ele>451.2</ele>
        <time>2026-05-21T10:54:57.999Z</time>
      </trkpt>
      <trkpt lat="43.77648" lon="3.83258">
        <ele>451.3</ele>
        <time>2026-05-21T10:54:58.999Z</time>
      </trkpt>
      <trkpt lat="43.77648" lon="3.83258">
        <ele>451.2</ele>
        <time>2026-05-21T10:54:59.999Z</time>
      </trkpt>
      <trkpt lat="43.77648" lon="3.83258">
        <ele>451.2</ele>
        <time>2026-05-21T10:55:00.999Z</time>
      </trkpt>
      <trkpt lat="43.77648" lon="3.83258">
        <ele>451.1</ele>
        <time>2026-05-21T10:55:01.999Z</time>
      </trkpt>
      <trkpt lat="43.77648" lon="3.83258">
        <ele>451</ele>
        <time>2026-05-21T10:55:02.999Z</time>
      </trkpt>
      <trkpt lat="43.77648" lon="3.83258">
        <ele>450.9</ele>
        <time>2026-05-21T10:55:03.999Z</time>
      </trkpt>
      <trkpt lat="43.77648" lon="3.83258">
        <ele>450.8</ele>
        <time>2026-05-21T10:55:04.999Z</time>
      </trkpt>
      <trkpt lat="43.77648" lon="3.83258">
        <ele>450.7</ele>
        <time>2026-05-21T10:55:05.999Z</time>
      </trkpt>
      <trkpt lat="43.77648" lon="3.83258">
        <ele>450.7</ele>
        <time>2026-05-21T10:55:06.999Z</time>
      </trkpt>
      <trkpt lat="43.77648" lon="3.83258">
        <ele>450.5</ele>
        <time>2026-05-21T10:55:07.999Z</time>
      </trkpt>
      <trkpt lat="43.77648" lon="3.83258">
        <ele>450.3</ele>
        <time>2026-05-21T10:55:08.999Z</time>
      </trkpt>
      <trkpt lat="43.77648" lon="3.83258">
        <ele>450.2</ele>
        <time>2026-05-21T10:55:09.999Z</time>
      </trkpt>
      <trkpt lat="43.77648" lon="3.83258">
        <ele>450.1</ele>
        <time>2026-05-21T10:55:10.999Z</time>
      </trkpt>
      <trkpt lat="43.77648" lon="3.83258">
        <ele>450</ele>
        <time>2026-05-21T10:55:11.999Z</time>
      </trkpt>
      <trkpt lat="43.77648" lon="3.83258">
        <ele>450</ele>
        <time>2026-05-21T10:55:12.999Z</time>
      </trkpt>
      <trkpt lat="43.77648" lon="3.83258">
        <ele>450</ele>
        <time>2026-05-21T10:55:13.999Z</time>
      </trkpt>
      <trkpt lat="43.77648" lon="3.83258">
        <ele>449.9</ele>
        <time>2026-05-21T10:55:14.999Z</time>
      </trkpt>
      <trkpt lat="43.77648" lon="3.83258">
        <ele>449.9</ele>
        <time>2026-05-21T10:55:15.999Z</time>
      </trkpt>
      <trkpt lat="43.77648" lon="3.83258">
        <ele>449.8</ele>
        <time>2026-05-21T10:55:16.999Z</time>
      </trkpt>
      <trkpt lat="43.77648" lon="3.83258">
        <ele>449.7</ele>
        <time>2026-05-21T10:55:17.999Z</time>
      </trkpt>
      <trkpt lat="43.77648" lon="3.83258">
        <ele>449.7</ele>
        <time>2026-05-21T10:55:18.999Z</time>
      </trkpt>
      <trkpt lat="43.77648" lon="3.83258">
        <ele>449.6</ele>
        <time>2026-05-21T10:55:19.999Z</time>
      </trkpt>
      <trkpt lat="43.77648" lon="3.83259">
        <ele>449.5</ele>
        <time>2026-05-21T10:55:20.999Z</time>
      </trkpt>
      <trkpt lat="43.77648" lon="3.83259">
        <ele>449.4</ele>
        <time>2026-05-21T10:55:21.999Z</time>
      </trkpt>
      <trkpt lat="43.77648" lon="3.8326">
        <ele>449.4</ele>
        <time>2026-05-21T10:55:22.999Z</time>
      </trkpt>
      <trkpt lat="43.77648" lon="3.8326">
        <ele>449.5</ele>
        <time>2026-05-21T10:55:23.999Z</time>
      </trkpt>
      <trkpt lat="43.77648" lon="3.8326">
        <ele>449.5</ele>
        <time>2026-05-21T10:55:24.999Z</time>
      </trkpt>
      <trkpt lat="43.77648" lon="3.83259">
        <ele>449.8</ele>
        <time>2026-05-21T10:55:25.999Z</time>
      </trkpt>
      <trkpt lat="43.77648" lon="3.83259">
        <ele>450</ele>
        <time>2026-05-21T10:55:26.999Z</time>
      </trkpt>
      <trkpt lat="43.77648" lon="3.83259">
        <ele>450.2</ele>
        <time>2026-05-21T10:55:27.999Z</time>
      </trkpt>
      <trkpt lat="43.77648" lon="3.83259">
        <ele>450.2</ele>
        <time>2026-05-21T10:55:28.999Z</time>
      </trkpt>
      <trkpt lat="43.77648" lon="3.83259">
        <ele>450.4</ele>
        <time>2026-05-21T10:55:29.999Z</time>
      </trkpt>
      <trkpt lat="43.77648" lon="3.83259">
        <ele>450.5</ele>
        <time>2026-05-21T10:55:30.999Z</time>
      </trkpt>
      <trkpt lat="43.77648" lon="3.83259">
        <ele>450.6</ele>
        <time>2026-05-21T10:55:31.999Z</time>
      </trkpt>
      <trkpt lat="43.77648" lon="3.83259">
        <ele>450.9</ele>
        <time>2026-05-21T10:55:32.999Z</time>
      </trkpt>
      <trkpt lat="43.77648" lon="3.83259">
        <ele>451</ele>
        <time>2026-05-21T10:55:33.999Z</time>
      </trkpt>
      <trkpt lat="43.77647" lon="3.83259">
        <ele>451.1</ele>
        <time>2026-05-21T10:55:34.999Z</time>
      </trkpt>
      <trkpt lat="43.77648" lon="3.83259">
        <ele>451.4</ele>
        <time>2026-05-21T10:55:35.999Z</time>
      </trkpt>
      <trkpt lat="43.77647" lon="3.8326">
        <ele>451.4</ele>
        <time>2026-05-21T10:55:36.999Z</time>
      </trkpt>
      <trkpt lat="43.77647" lon="3.8326">
        <ele>451.3</ele>
        <time>2026-05-21T10:55:37.999Z</time>
      </trkpt>
      <trkpt lat="43.77647" lon="3.8326">
        <ele>451.2</ele>
        <time>2026-05-21T10:55:38.999Z</time>
      </trkpt>
      <trkpt lat="43.77647" lon="3.8326">
        <ele>451.2</ele>
        <time>2026-05-21T10:55:39.999Z</time>
      </trkpt>
      <trkpt lat="43.77647" lon="3.8326">
        <ele>451.3</ele>
        <time>2026-05-21T10:55:40.999Z</time>
      </trkpt>
      <trkpt lat="43.77647" lon="3.8326">
        <ele>451.3</ele>
        <time>2026-05-21T10:55:41.999Z</time>
      </trkpt>
      <trkpt lat="43.77647" lon="3.8326">
        <ele>451.3</ele>
        <time>2026-05-21T10:55:42.999Z</time>
      </trkpt>
      <trkpt lat="43.77647" lon="3.8326">
        <ele>451.2</ele>
        <time>2026-05-21T10:55:43.999Z</time>
      </trkpt>
      <trkpt lat="43.77647" lon="3.83259">
        <ele>451.2</ele>
        <time>2026-05-21T10:55:44.999Z</time>
      </trkpt>
      <trkpt lat="43.77647" lon="3.83259">
        <ele>451.2</ele>
        <time>2026-05-21T10:55:45.999Z</time>
      </trkpt>
      <trkpt lat="43.77647" lon="3.83259">
        <ele>451.1</ele>
        <time>2026-05-21T10:55:46.999Z</time>
      </trkpt>
      <trkpt lat="43.77647" lon="3.83259">
        <ele>451.1</ele>
        <time>2026-05-21T10:55:47.999Z</time>
      </trkpt>
      <trkpt lat="43.77647" lon="3.83259">
        <ele>451.2</ele>
        <time>2026-05-21T10:55:48.999Z</time>
      </trkpt>
      <trkpt lat="43.77647" lon="3.83259">
        <ele>451.4</ele>
        <time>2026-05-21T10:55:49.999Z</time>
      </trkpt>
      <trkpt lat="43.77647" lon="3.83259">
        <ele>451.6</ele>
        <time>2026-05-21T10:55:50.999Z</time>
      </trkpt>
      <trkpt lat="43.77647" lon="3.83259">
        <ele>451.5</ele>
        <time>2026-05-21T10:55:51.999Z</time>
      </trkpt>
      <trkpt lat="43.77647" lon="3.83259">
        <ele>451.5</ele>
        <time>2026-05-21T10:55:52.999Z</time>
      </trkpt>
      <trkpt lat="43.77647" lon="3.83259">
        <ele>451.5</ele>
        <time>2026-05-21T10:55:53.999Z</time>
      </trkpt>
      <trkpt lat="43.77647" lon="3.83259">
        <ele>451.5</ele>
        <time>2026-05-21T10:55:54.999Z</time>
      </trkpt>
      <trkpt lat="43.77647" lon="3.83259">
        <ele>451.6</ele>
        <time>2026-05-21T10:55:55.999Z</time>
      </trkpt>
      <trkpt lat="43.77647" lon="3.83259">
        <ele>451.7</ele>
        <time>2026-05-21T10:55:56.999Z</time>
      </trkpt>
      <trkpt lat="43.77647" lon="3.8326">
        <ele>451.8</ele>
        <time>2026-05-21T10:55:57.999Z</time>
      </trkpt>
      <trkpt lat="43.77647" lon="3.8326">
        <ele>451.8</ele>
        <time>2026-05-21T10:55:58.999Z</time>
      </trkpt>
      <trkpt lat="43.77647" lon="3.8326">
        <ele>451.8</ele>
        <time>2026-05-21T10:55:59.999Z</time>
      </trkpt>
      <trkpt lat="43.77647" lon="3.8326">
        <ele>451.7</ele>
        <time>2026-05-21T10:56:00.999Z</time>
      </trkpt>
      <trkpt lat="43.77647" lon="3.8326">
        <ele>451.8</ele>
        <time>2026-05-21T10:56:01.999Z</time>
      </trkpt>
      <trkpt lat="43.77647" lon="3.8326">
        <ele>451.7</ele>
        <time>2026-05-21T10:56:02.999Z</time>
      </trkpt>
      <trkpt lat="43.77647" lon="3.8326">
        <ele>451.7</ele>
        <time>2026-05-21T10:56:03.999Z</time>
      </trkpt>
      <trkpt lat="43.77647" lon="3.8326">
        <ele>451.7</ele>
        <time>2026-05-21T10:56:04.999Z</time>
      </trkpt>
      <trkpt lat="43.77647" lon="3.8326">
        <ele>451.8</ele>
        <time>2026-05-21T10:56:05.999Z</time>
      </trkpt>
      <trkpt lat="43.77647" lon="3.8326">
        <ele>452</ele>
        <time>2026-05-21T10:56:06.999Z</time>
      </trkpt>
      <trkpt lat="43.77647" lon="3.8326">
        <ele>452</ele>
        <time>2026-05-21T10:56:07.999Z</time>
      </trkpt>
      <trkpt lat="43.77647" lon="3.8326">
        <ele>452.1</ele>
        <time>2026-05-21T10:56:08.999Z</time>
      </trkpt>
      <trkpt lat="43.77647" lon="3.8326">
        <ele>452.1</ele>
        <time>2026-05-21T10:56:09.999Z</time>
      </trkpt>
      <trkpt lat="43.77647" lon="3.8326">
        <ele>452.1</ele>
        <time>2026-05-21T10:56:10.999Z</time>
      </trkpt>
      <trkpt lat="43.77647" lon="3.8326">
        <ele>452</ele>
        <time>2026-05-21T10:56:11.999Z</time>
      </trkpt>
      <trkpt lat="43.77647" lon="3.8326">
        <ele>451.9</ele>
        <time>2026-05-21T10:56:12.999Z</time>
      </trkpt>
      <trkpt lat="43.77647" lon="3.8326">
        <ele>451.8</ele>
        <time>2026-05-21T10:56:13.999Z</time>
      </trkpt>
      <trkpt lat="43.77647" lon="3.8326">
        <ele>451.8</ele>
        <time>2026-05-21T10:56:14.999Z</time>
      </trkpt>
      <trkpt lat="43.77647" lon="3.8326">
        <ele>451.8</ele>
        <time>2026-05-21T10:56:15.999Z</time>
      </trkpt>
      <trkpt lat="43.77647" lon="3.8326">
        <ele>451.8</ele>
        <time>2026-05-21T10:56:16.999Z</time>
      </trkpt>
      <trkpt lat="43.77647" lon="3.83259">
        <ele>451.9</ele>
        <time>2026-05-21T10:56:17.999Z</time>
      </trkpt>
      <trkpt lat="43.77647" lon="3.83258">
        <ele>451.9</ele>
        <time>2026-05-21T10:56:18.999Z</time>
      </trkpt>
      <trkpt lat="43.77647" lon="3.83258">
        <ele>452</ele>
        <time>2026-05-21T10:56:19.999Z</time>
      </trkpt>
      <trkpt lat="43.77647" lon="3.83258">
        <ele>452</ele>
        <time>2026-05-21T10:56:20.999Z</time>
      </trkpt>
      <trkpt lat="43.77647" lon="3.83258">
        <ele>451.9</ele>
        <time>2026-05-21T10:56:21.999Z</time>
      </trkpt>
      <trkpt lat="43.77646" lon="3.83258">
        <ele>451.9</ele>
        <time>2026-05-21T10:56:22.999Z</time>
      </trkpt>
      <trkpt lat="43.77646" lon="3.83258">
        <ele>451.7</ele>
        <time>2026-05-21T10:56:23.999Z</time>
      </trkpt>
      <trkpt lat="43.77645" lon="3.83258">
        <ele>451.6</ele>
        <time>2026-05-21T10:56:24.999Z</time>
      </trkpt>
      <trkpt lat="43.77645" lon="3.83258">
        <ele>451.6</ele>
        <time>2026-05-21T10:56:25.999Z</time>
      </trkpt>
      <trkpt lat="43.77645" lon="3.83258">
        <ele>451.5</ele>
        <time>2026-05-21T10:56:26.999Z</time>
      </trkpt>
      <trkpt lat="43.77645" lon="3.83258">
        <ele>451.5</ele>
        <time>2026-05-21T10:56:27.999Z</time>
      </trkpt>
      <trkpt lat="43.77645" lon="3.83258">
        <ele>451.4</ele>
        <time>2026-05-21T10:56:28.999Z</time>
      </trkpt>
      <trkpt lat="43.77645" lon="3.83258">
        <ele>451.3</ele>
        <time>2026-05-21T10:56:29.999Z</time>
      </trkpt>
      <trkpt lat="43.77645" lon="3.83258">
        <ele>451.3</ele>
        <time>2026-05-21T10:56:30.999Z</time>
      </trkpt>
      <trkpt lat="43.77645" lon="3.83258">
        <ele>451.3</ele>
        <time>2026-05-21T10:56:31.999Z</time>
      </trkpt>
      <trkpt lat="43.77645" lon="3.83258">
        <ele>451.3</ele>
        <time>2026-05-21T10:56:32.999Z</time>
      </trkpt>
      <trkpt lat="43.77645" lon="3.83258">
        <ele>451.3</ele>
        <time>2026-05-21T10:56:33.999Z</time>
      </trkpt>
      <trkpt lat="43.77645" lon="3.83258">
        <ele>451.3</ele>
        <time>2026-05-21T10:56:34.999Z</time>
      </trkpt>
      <trkpt lat="43.77645" lon="3.83258">
        <ele>451.3</ele>
        <time>2026-05-21T10:56:35.999Z</time>
      </trkpt>
      <trkpt lat="43.77645" lon="3.83258">
        <ele>451.3</ele>
        <time>2026-05-21T10:56:36.999Z</time>
      </trkpt>
      <trkpt lat="43.77645" lon="3.83258">
        <ele>451.5</ele>
        <time>2026-05-21T10:56:37.999Z</time>
      </trkpt>
      <trkpt lat="43.77645" lon="3.83259">
        <ele>451.6</ele>
        <time>2026-05-21T10:56:38.999Z</time>
      </trkpt>
      <trkpt lat="43.77645" lon="3.83259">
        <ele>451.6</ele>
        <time>2026-05-21T10:56:39.999Z</time>
      </trkpt>
      <trkpt lat="43.77645" lon="3.83259">
        <ele>451.8</ele>
        <time>2026-05-21T10:56:40.999Z</time>
      </trkpt>
      <trkpt lat="43.77646" lon="3.83259">
        <ele>451.9</ele>
        <time>2026-05-21T10:56:41.999Z</time>
      </trkpt>
      <trkpt lat="43.77646" lon="3.83259">
        <ele>452.1</ele>
        <time>2026-05-21T10:56:42.999Z</time>
      </trkpt>
      <trkpt lat="43.77646" lon="3.83259">
        <ele>452.2</ele>
        <time>2026-05-21T10:56:43.999Z</time>
      </trkpt>
      <trkpt lat="43.77646" lon="3.83259">
        <ele>452.3</ele>
        <time>2026-05-21T10:56:44.999Z</time>
      </trkpt>
      <trkpt lat="43.77646" lon="3.83259">
        <ele>452.4</ele>
        <time>2026-05-21T10:56:45.999Z</time>
      </trkpt>
      <trkpt lat="43.77646" lon="3.83259">
        <ele>452.4</ele>
        <time>2026-05-21T10:56:46.999Z</time>
      </trkpt>
      <trkpt lat="43.77646" lon="3.83259">
        <ele>452.6</ele>
        <time>2026-05-21T10:56:47.999Z</time>
      </trkpt>
      <trkpt lat="43.77646" lon="3.83259">
        <ele>452.7</ele>
        <time>2026-05-21T10:56:48.999Z</time>
      </trkpt>
      <trkpt lat="43.77646" lon="3.83259">
        <ele>452.8</ele>
        <time>2026-05-21T10:56:49.999Z</time>
      </trkpt>
      <trkpt lat="43.77646" lon="3.83259">
        <ele>452.9</ele>
        <time>2026-05-21T10:56:50.999Z</time>
      </trkpt>
      <trkpt lat="43.77646" lon="3.83259">
        <ele>453</ele>
        <time>2026-05-21T10:56:51.999Z</time>
      </trkpt>
      <trkpt lat="43.77646" lon="3.83258">
        <ele>453.1</ele>
        <time>2026-05-21T10:56:52.999Z</time>
      </trkpt>
      <trkpt lat="43.77646" lon="3.83258">
        <ele>453.1</ele>
        <time>2026-05-21T10:56:53.999Z</time>
      </trkpt>
      <trkpt lat="43.77646" lon="3.83258">
        <ele>453.1</ele>
        <time>2026-05-21T10:56:54.999Z</time>
      </trkpt>
      <trkpt lat="43.77646" lon="3.83258">
        <ele>453.1</ele>
        <time>2026-05-21T10:56:55.999Z</time>
      </trkpt>
      <trkpt lat="43.77646" lon="3.83258">
        <ele>453.1</ele>
        <time>2026-05-21T10:56:56.999Z</time>
      </trkpt>
      <trkpt lat="43.77646" lon="3.83258">
        <ele>453.2</ele>
        <time>2026-05-21T10:56:57.999Z</time>
      </trkpt>
      <trkpt lat="43.77646" lon="3.83258">
        <ele>453.3</ele>
        <time>2026-05-21T10:56:58.999Z</time>
      </trkpt>
      <trkpt lat="43.77646" lon="3.83258">
        <ele>453.4</ele>
        <time>2026-05-21T10:56:59.999Z</time>
      </trkpt>
      <trkpt lat="43.77646" lon="3.83258">
        <ele>453.6</ele>
        <time>2026-05-21T10:57:00.999Z</time>
      </trkpt>
      <trkpt lat="43.77646" lon="3.83258">
        <ele>453.8</ele>
        <time>2026-05-21T10:57:01.999Z</time>
      </trkpt>
      <trkpt lat="43.77646" lon="3.83258">
        <ele>453.9</ele>
        <time>2026-05-21T10:57:02.999Z</time>
      </trkpt>
      <trkpt lat="43.77646" lon="3.83258">
        <ele>454</ele>
        <time>2026-05-21T10:57:03.999Z</time>
      </trkpt>
      <trkpt lat="43.77646" lon="3.83258">
        <ele>454</ele>
        <time>2026-05-21T10:57:04.999Z</time>
      </trkpt>
      <trkpt lat="43.77646" lon="3.83258">
        <ele>454</ele>
        <time>2026-05-21T10:57:05.999Z</time>
      </trkpt>
      <trkpt lat="43.77646" lon="3.83258">
        <ele>454.2</ele>
        <time>2026-05-21T10:57:06.999Z</time>
      </trkpt>
      <trkpt lat="43.77646" lon="3.83258">
        <ele>454.2</ele>
        <time>2026-05-21T10:57:07.999Z</time>
      </trkpt>
      <trkpt lat="43.77646" lon="3.83258">
        <ele>454.1</ele>
        <time>2026-05-21T10:57:08.999Z</time>
      </trkpt>
      <trkpt lat="43.77646" lon="3.83258">
        <ele>454</ele>
        <time>2026-05-21T10:57:09.999Z</time>
      </trkpt>
      <trkpt lat="43.77646" lon="3.83258">
        <ele>453.9</ele>
        <time>2026-05-21T10:57:10.999Z</time>
      </trkpt>
      <trkpt lat="43.77646" lon="3.83258">
        <ele>453.9</ele>
        <time>2026-05-21T10:57:11.999Z</time>
      </trkpt>
      <trkpt lat="43.77646" lon="3.83258">
        <ele>453.8</ele>
        <time>2026-05-21T10:57:12.999Z</time>
      </trkpt>
      <trkpt lat="43.77646" lon="3.83258">
        <ele>453.9</ele>
        <time>2026-05-21T10:57:13.999Z</time>
      </trkpt>
      <trkpt lat="43.77646" lon="3.83258">
        <ele>453.9</ele>
        <time>2026-05-21T10:57:14.999Z</time>
      </trkpt>
      <trkpt lat="43.77647" lon="3.83258">
        <ele>454</ele>
        <time>2026-05-21T10:57:15.999Z</time>
      </trkpt>
      <trkpt lat="43.77647" lon="3.83258">
        <ele>454.1</ele>
        <time>2026-05-21T10:57:16.999Z</time>
      </trkpt>
      <trkpt lat="43.77647" lon="3.83258">
        <ele>454</ele>
        <time>2026-05-21T10:57:17.999Z</time>
      </trkpt>
      <trkpt lat="43.77647" lon="3.83258">
        <ele>453.7</ele>
        <time>2026-05-21T10:57:18.999Z</time>
      </trkpt>
      <trkpt lat="43.77647" lon="3.83258">
        <ele>453.3</ele>
        <time>2026-05-21T10:57:19.999Z</time>
      </trkpt>
      <trkpt lat="43.77647" lon="3.83258">
        <ele>453.4</ele>
        <time>2026-05-21T10:57:20.999Z</time>
      </trkpt>
      <trkpt lat="43.77647" lon="3.83258">
        <ele>453.5</ele>
        <time>2026-05-21T10:57:21.999Z</time>
      </trkpt>
      <trkpt lat="43.77647" lon="3.83258">
        <ele>453.4</ele>
        <time>2026-05-21T10:57:22.999Z</time>
      </trkpt>
      <trkpt lat="43.77647" lon="3.83258">
        <ele>453.4</ele>
        <time>2026-05-21T10:57:23.999Z</time>
      </trkpt>
      <trkpt lat="43.77647" lon="3.83258">
        <ele>453.5</ele>
        <time>2026-05-21T10:57:24.999Z</time>
      </trkpt>
      <trkpt lat="43.77647" lon="3.83258">
        <ele>453.6</ele>
        <time>2026-05-21T10:57:25.999Z</time>
      </trkpt>
      <trkpt lat="43.77647" lon="3.83258">
        <ele>453.6</ele>
        <time>2026-05-21T10:57:26.999Z</time>
      </trkpt>
      <trkpt lat="43.77647" lon="3.83258">
        <ele>453.6</ele>
        <time>2026-05-21T10:57:27.999Z</time>
      </trkpt>
      <trkpt lat="43.77647" lon="3.83258">
        <ele>453.6</ele>
        <time>2026-05-21T10:57:28.999Z</time>
      </trkpt>
      <trkpt lat="43.77647" lon="3.83258">
        <ele>453.6</ele>
        <time>2026-05-21T10:57:29.999Z</time>
      </trkpt>
      <trkpt lat="43.77647" lon="3.83258">
        <ele>453.6</ele>
        <time>2026-05-21T10:57:30.999Z</time>
      </trkpt>
      <trkpt lat="43.77647" lon="3.83258">
        <ele>453.7</ele>
        <time>2026-05-21T10:57:31.999Z</time>
      </trkpt>
      <trkpt lat="43.77647" lon="3.83258">
        <ele>453.7</ele>
        <time>2026-05-21T10:57:32.999Z</time>
      </trkpt>
      <trkpt lat="43.77647" lon="3.83258">
        <ele>453.8</ele>
        <time>2026-05-21T10:57:33.999Z</time>
      </trkpt>
      <trkpt lat="43.77647" lon="3.83258">
        <ele>453.9</ele>
        <time>2026-05-21T10:57:34.999Z</time>
      </trkpt>
      <trkpt lat="43.77647" lon="3.83258">
        <ele>453.9</ele>
        <time>2026-05-21T10:57:35.999Z</time>
      </trkpt>
      <trkpt lat="43.77647" lon="3.83258">
        <ele>453.8</ele>
        <time>2026-05-21T10:57:36.999Z</time>
      </trkpt>
      <trkpt lat="43.77647" lon="3.83258">
        <ele>453.8</ele>
        <time>2026-05-21T10:57:37.999Z</time>
      </trkpt>
      <trkpt lat="43.77647" lon="3.83258">
        <ele>454</ele>
        <time>2026-05-21T10:57:38.999Z</time>
      </trkpt>
      <trkpt lat="43.77647" lon="3.83258">
        <ele>454.2</ele>
        <time>2026-05-21T10:57:39.999Z</time>
      </trkpt>
      <trkpt lat="43.77647" lon="3.83258">
        <ele>454.4</ele>
        <time>2026-05-21T10:57:40.999Z</time>
      </trkpt>
      <trkpt lat="43.77647" lon="3.83258">
        <ele>454.5</ele>
        <time>2026-05-21T10:57:41.999Z</time>
      </trkpt>
      <trkpt lat="43.77647" lon="3.83258">
        <ele>454.6</ele>
        <time>2026-05-21T10:57:42.999Z</time>
      </trkpt>
      <trkpt lat="43.77647" lon="3.83259">
        <ele>454.7</ele>
        <time>2026-05-21T10:57:43.999Z</time>
      </trkpt>
      <trkpt lat="43.77647" lon="3.83259">
        <ele>454.8</ele>
        <time>2026-05-21T10:57:44.999Z</time>
      </trkpt>
      <trkpt lat="43.77647" lon="3.83259">
        <ele>454.8</ele>
        <time>2026-05-21T10:57:45.999Z</time>
      </trkpt>
      <trkpt lat="43.77647" lon="3.83259">
        <ele>454.9</ele>
        <time>2026-05-21T10:57:46.999Z</time>
      </trkpt>
      <trkpt lat="43.77647" lon="3.83259">
        <ele>455</ele>
        <time>2026-05-21T10:57:47.999Z</time>
      </trkpt>
      <trkpt lat="43.77647" lon="3.83259">
        <ele>455.1</ele>
        <time>2026-05-21T10:57:48.999Z</time>
      </trkpt>
      <trkpt lat="43.77647" lon="3.83259">
        <ele>455.1</ele>
        <time>2026-05-21T10:57:49.999Z</time>
      </trkpt>
      <trkpt lat="43.77647" lon="3.83259">
        <ele>455.1</ele>
        <time>2026-05-21T10:57:50.999Z</time>
      </trkpt>
      <trkpt lat="43.77647" lon="3.83259">
        <ele>455.2</ele>
        <time>2026-05-21T10:57:51.999Z</time>
      </trkpt>
      <trkpt lat="43.77647" lon="3.83259">
        <ele>455.3</ele>
        <time>2026-05-21T10:57:52.999Z</time>
      </trkpt>
      <trkpt lat="43.77647" lon="3.83259">
        <ele>455.4</ele>
        <time>2026-05-21T10:57:53.999Z</time>
      </trkpt>
      <trkpt lat="43.77647" lon="3.83259">
        <ele>455.5</ele>
        <time>2026-05-21T10:57:54.999Z</time>
      </trkpt>
      <trkpt lat="43.77647" lon="3.83259">
        <ele>455.5</ele>
        <time>2026-05-21T10:57:55.999Z</time>
      </trkpt>
      <trkpt lat="43.77647" lon="3.83259">
        <ele>455.5</ele>
        <time>2026-05-21T10:57:56.999Z</time>
      </trkpt>
      <trkpt lat="43.77647" lon="3.83259">
        <ele>455.6</ele>
        <time>2026-05-21T10:57:57.999Z</time>
      </trkpt>
      <trkpt lat="43.77647" lon="3.83259">
        <ele>455.7</ele>
        <time>2026-05-21T10:57:58.999Z</time>
      </trkpt>
      <trkpt lat="43.77647" lon="3.83259">
        <ele>455.8</ele>
        <time>2026-05-21T10:57:59.999Z</time>
      </trkpt>
      <trkpt lat="43.77647" lon="3.83259">
        <ele>455.8</ele>
        <time>2026-05-21T10:58:00.999Z</time>
      </trkpt>
      <trkpt lat="43.77647" lon="3.83259">
        <ele>455.8</ele>
        <time>2026-05-21T10:58:01.999Z</time>
      </trkpt>
      <trkpt lat="43.77647" lon="3.83259">
        <ele>455.7</ele>
        <time>2026-05-21T10:58:02.999Z</time>
      </trkpt>
      <trkpt lat="43.77647" lon="3.83259">
        <ele>455.7</ele>
        <time>2026-05-21T10:58:03.999Z</time>
      </trkpt>
      <trkpt lat="43.77647" lon="3.83259">
        <ele>455.6</ele>
        <time>2026-05-21T10:58:04.999Z</time>
      </trkpt>
      <trkpt lat="43.77647" lon="3.83259">
        <ele>455.4</ele>
        <time>2026-05-21T10:58:05.999Z</time>
      </trkpt>
      <trkpt lat="43.77647" lon="3.83259">
        <ele>455.2</ele>
        <time>2026-05-21T10:58:06.999Z</time>
      </trkpt>
      <trkpt lat="43.77647" lon="3.83259">
        <ele>455</ele>
        <time>2026-05-21T10:58:07.999Z</time>
      </trkpt>
      <trkpt lat="43.77647" lon="3.83259">
        <ele>454.9</ele>
        <time>2026-05-21T10:58:08.999Z</time>
      </trkpt>
      <trkpt lat="43.77647" lon="3.83259">
        <ele>454.7</ele>
        <time>2026-05-21T10:58:09.999Z</time>
      </trkpt>
      <trkpt lat="43.77647" lon="3.83259">
        <ele>454.6</ele>
        <time>2026-05-21T10:58:10.999Z</time>
      </trkpt>
      <trkpt lat="43.77647" lon="3.83259">
        <ele>454.5</ele>
        <time>2026-05-21T10:58:11.999Z</time>
      </trkpt>
      <trkpt lat="43.77647" lon="3.83259">
        <ele>454.5</ele>
        <time>2026-05-21T10:58:12.999Z</time>
      </trkpt>
      <trkpt lat="43.77647" lon="3.83259">
        <ele>454.4</ele>
        <time>2026-05-21T10:58:13.999Z</time>
      </trkpt>
      <trkpt lat="43.77647" lon="3.83259">
        <ele>454.5</ele>
        <time>2026-05-21T10:58:14.999Z</time>
      </trkpt>
      <trkpt lat="43.77647" lon="3.83259">
        <ele>454.5</ele>
        <time>2026-05-21T10:58:15.999Z</time>
      </trkpt>
      <trkpt lat="43.77647" lon="3.83259">
        <ele>454.5</ele>
        <time>2026-05-21T10:58:16.999Z</time>
      </trkpt>
      <trkpt lat="43.77647" lon="3.83259">
        <ele>454.4</ele>
        <time>2026-05-21T10:58:17.999Z</time>
      </trkpt>
      <trkpt lat="43.77647" lon="3.83259">
        <ele>454.4</ele>
        <time>2026-05-21T10:58:18.999Z</time>
      </trkpt>
      <trkpt lat="43.77647" lon="3.83259">
        <ele>454.4</ele>
        <time>2026-05-21T10:58:19.999Z</time>
      </trkpt>
      <trkpt lat="43.77647" lon="3.83259">
        <ele>454.4</ele>
        <time>2026-05-21T10:58:20.999Z</time>
      </trkpt>
      <trkpt lat="43.77647" lon="3.83259">
        <ele>454.3</ele>
        <time>2026-05-21T10:58:21.999Z</time>
      </trkpt>
      <trkpt lat="43.77647" lon="3.83259">
        <ele>454.4</ele>
        <time>2026-05-21T10:58:22.999Z</time>
      </trkpt>
      <trkpt lat="43.77647" lon="3.83259">
        <ele>454.3</ele>
        <time>2026-05-21T10:58:23.999Z</time>
      </trkpt>
      <trkpt lat="43.77647" lon="3.83259">
        <ele>454.3</ele>
        <time>2026-05-21T10:58:24.999Z</time>
      </trkpt>
      <trkpt lat="43.77647" lon="3.83259">
        <ele>454.3</ele>
        <time>2026-05-21T10:58:25.999Z</time>
      </trkpt>
      <trkpt lat="43.77647" lon="3.83259">
        <ele>454.3</ele>
        <time>2026-05-21T10:58:26.999Z</time>
      </trkpt>
      <trkpt lat="43.77647" lon="3.83259">
        <ele>454.3</ele>
        <time>2026-05-21T10:58:27.999Z</time>
      </trkpt>
      <trkpt lat="43.77647" lon="3.83259">
        <ele>454.3</ele>
        <time>2026-05-21T10:58:28.999Z</time>
      </trkpt>
      <trkpt lat="43.77647" lon="3.83259">
        <ele>454.3</ele>
        <time>2026-05-21T10:58:29.999Z</time>
      </trkpt>
      <trkpt lat="43.77647" lon="3.83259">
        <ele>454.3</ele>
        <time>2026-05-21T10:58:30.999Z</time>
      </trkpt>
      <trkpt lat="43.77647" lon="3.83259">
        <ele>454.3</ele>
        <time>2026-05-21T10:58:31.999Z</time>
      </trkpt>
      <trkpt lat="43.77647" lon="3.83259">
        <ele>454.4</ele>
        <time>2026-05-21T10:58:32.999Z</time>
      </trkpt>
      <trkpt lat="43.77647" lon="3.83259">
        <ele>454.5</ele>
        <time>2026-05-21T10:58:33.999Z</time>
      </trkpt>
      <trkpt lat="43.77647" lon="3.83259">
        <ele>454.6</ele>
        <time>2026-05-21T10:58:34.999Z</time>
      </trkpt>
      <trkpt lat="43.77648" lon="3.83259">
        <ele>454.6</ele>
        <time>2026-05-21T10:58:35.999Z</time>
      </trkpt>
      <trkpt lat="43.77648" lon="3.83259">
        <ele>454.5</ele>
        <time>2026-05-21T10:58:36.999Z</time>
      </trkpt>
      <trkpt lat="43.77647" lon="3.83259">
        <ele>454.4</ele>
        <time>2026-05-21T10:58:37.999Z</time>
      </trkpt>
      <trkpt lat="43.77647" lon="3.83259">
        <ele>454.2</ele>
        <time>2026-05-21T10:58:38.999Z</time>
      </trkpt>
      <trkpt lat="43.77647" lon="3.83259">
        <ele>454</ele>
        <time>2026-05-21T10:58:39.999Z</time>
      </trkpt>
      <trkpt lat="43.77647" lon="3.83259">
        <ele>453.8</ele>
        <time>2026-05-21T10:58:40.999Z</time>
      </trkpt>
      <trkpt lat="43.77647" lon="3.83259">
        <ele>453.8</ele>
        <time>2026-05-21T10:58:41.999Z</time>
      </trkpt>
      <trkpt lat="43.77647" lon="3.83259">
        <ele>453.8</ele>
        <time>2026-05-21T10:58:42.999Z</time>
      </trkpt>
      <trkpt lat="43.77647" lon="3.83259">
        <ele>453.8</ele>
        <time>2026-05-21T10:58:43.999Z</time>
      </trkpt>
      <trkpt lat="43.77647" lon="3.83259">
        <ele>453.8</ele>
        <time>2026-05-21T10:58:44.999Z</time>
      </trkpt>
      <trkpt lat="43.77647" lon="3.83259">
        <ele>453.8</ele>
        <time>2026-05-21T10:58:46.000Z</time>
      </trkpt>
      <trkpt lat="43.77647" lon="3.83259">
        <ele>453.7</ele>
        <time>2026-05-21T10:58:47.000Z</time>
      </trkpt>
      <trkpt lat="43.77647" lon="3.83259">
        <ele>453.6</ele>
        <time>2026-05-21T10:58:48.000Z</time>
      </trkpt>
      <trkpt lat="43.77647" lon="3.83259">
        <ele>453.6</ele>
        <time>2026-05-21T10:58:49.000Z</time>
      </trkpt>
      <trkpt lat="43.77647" lon="3.83259">
        <ele>453.6</ele>
        <time>2026-05-21T10:58:50.000Z</time>
      </trkpt>
      <trkpt lat="43.77647" lon="3.83259">
        <ele>453.6</ele>
        <time>2026-05-21T10:58:51.000Z</time>
      </trkpt>
      <trkpt lat="43.77647" lon="3.83259">
        <ele>453.5</ele>
        <time>2026-05-21T10:58:52.000Z</time>
      </trkpt>
      <trkpt lat="43.77647" lon="3.83259">
        <ele>453.5</ele>
        <time>2026-05-21T10:58:53.000Z</time>
      </trkpt>
      <trkpt lat="43.77647" lon="3.83259">
        <ele>453.4</ele>
        <time>2026-05-21T10:58:54.000Z</time>
      </trkpt>
      <trkpt lat="43.77647" lon="3.83259">
        <ele>453.4</ele>
        <time>2026-05-21T10:58:55.000Z</time>
      </trkpt>
      <trkpt lat="43.77647" lon="3.83259">
        <ele>453.3</ele>
        <time>2026-05-21T10:58:56.000Z</time>
      </trkpt>
      <trkpt lat="43.77647" lon="3.83259">
        <ele>453.4</ele>
        <time>2026-05-21T10:58:57.000Z</time>
      </trkpt>
      <trkpt lat="43.77647" lon="3.83259">
        <ele>453.5</ele>
        <time>2026-05-21T10:58:58.000Z</time>
      </trkpt>
      <trkpt lat="43.77647" lon="3.83259">
        <ele>453.6</ele>
        <time>2026-05-21T10:58:59.000Z</time>
      </trkpt>
      <trkpt lat="43.77647" lon="3.83259">
        <ele>453.7</ele>
        <time>2026-05-21T10:59:00.000Z</time>
      </trkpt>
      <trkpt lat="43.77647" lon="3.83259">
        <ele>453.8</ele>
        <time>2026-05-21T10:59:01.000Z</time>
      </trkpt>
      <trkpt lat="43.77647" lon="3.83259">
        <ele>453.8</ele>
        <time>2026-05-21T10:59:02.000Z</time>
      </trkpt>
      <trkpt lat="43.77647" lon="3.83259">
        <ele>453.9</ele>
        <time>2026-05-21T10:59:03.000Z</time>
      </trkpt>
      <trkpt lat="43.77647" lon="3.83259">
        <ele>453.9</ele>
        <time>2026-05-21T10:59:04.000Z</time>
      </trkpt>
      <trkpt lat="43.77647" lon="3.83259">
        <ele>454</ele>
        <time>2026-05-21T10:59:05.000Z</time>
      </trkpt>
      <trkpt lat="43.77647" lon="3.83259">
        <ele>453.9</ele>
        <time>2026-05-21T10:59:06.000Z</time>
      </trkpt>
      <trkpt lat="43.77647" lon="3.83259">
        <ele>453.7</ele>
        <time>2026-05-21T10:59:07.000Z</time>
      </trkpt>
      <trkpt lat="43.77647" lon="3.83259">
        <ele>453.7</ele>
        <time>2026-05-21T10:59:08.000Z</time>
      </trkpt>
      <trkpt lat="43.77647" lon="3.83258">
        <ele>453.8</ele>
        <time>2026-05-21T10:59:09.000Z</time>
      </trkpt>
      <trkpt lat="43.77647" lon="3.83259">
        <ele>453.7</ele>
        <time>2026-05-21T10:59:10.000Z</time>
      </trkpt>
      <trkpt lat="43.77647" lon="3.83259">
        <ele>453.5</ele>
        <time>2026-05-21T10:59:11.000Z</time>
      </trkpt>
      <trkpt lat="43.77647" lon="3.83259">
        <ele>453.3</ele>
        <time>2026-05-21T10:59:12.000Z</time>
      </trkpt>
      <trkpt lat="43.77647" lon="3.83259">
        <ele>453.3</ele>
        <time>2026-05-21T10:59:13.000Z</time>
      </trkpt>
      <trkpt lat="43.77648" lon="3.83259">
        <ele>453.3</ele>
        <time>2026-05-21T10:59:14.000Z</time>
      </trkpt>
      <trkpt lat="43.77648" lon="3.83259">
        <ele>453.3</ele>
        <time>2026-05-21T10:59:15.000Z</time>
      </trkpt>
      <trkpt lat="43.77648" lon="3.8326">
        <ele>453.3</ele>
        <time>2026-05-21T10:59:16.000Z</time>
      </trkpt>
      <trkpt lat="43.77648" lon="3.8326">
        <ele>453.3</ele>
        <time>2026-05-21T10:59:17.000Z</time>
      </trkpt>
      <trkpt lat="43.77648" lon="3.8326">
        <ele>453.3</ele>
        <time>2026-05-21T10:59:18.000Z</time>
      </trkpt>
      <trkpt lat="43.77648" lon="3.8326">
        <ele>453.4</ele>
        <time>2026-05-21T10:59:19.000Z</time>
      </trkpt>
      <trkpt lat="43.77648" lon="3.8326">
        <ele>453.5</ele>
        <time>2026-05-21T10:59:20.000Z</time>
      </trkpt>
      <trkpt lat="43.77648" lon="3.83259">
        <ele>453.5</ele>
        <time>2026-05-21T10:59:21.000Z</time>
      </trkpt>
      <trkpt lat="43.77648" lon="3.83259">
        <ele>453.5</ele>
        <time>2026-05-21T10:59:22.000Z</time>
      </trkpt>
      <trkpt lat="43.77648" lon="3.83259">
        <ele>453.5</ele>
        <time>2026-05-21T10:59:23.000Z</time>
      </trkpt>
      <trkpt lat="43.77648" lon="3.83259">
        <ele>453.5</ele>
        <time>2026-05-21T10:59:24.000Z</time>
      </trkpt>
      <trkpt lat="43.77648" lon="3.83259">
        <ele>453.6</ele>
        <time>2026-05-21T10:59:25.000Z</time>
      </trkpt>
      <trkpt lat="43.77648" lon="3.83259">
        <ele>453.5</ele>
        <time>2026-05-21T10:59:26.000Z</time>
      </trkpt>
      <trkpt lat="43.77648" lon="3.83259">
        <ele>453.4</ele>
        <time>2026-05-21T10:59:27.000Z</time>
      </trkpt>
      <trkpt lat="43.77648" lon="3.83259">
        <ele>453.2</ele>
        <time>2026-05-21T10:59:28.000Z</time>
      </trkpt>
      <trkpt lat="43.77648" lon="3.83259">
        <ele>453.1</ele>
        <time>2026-05-21T10:59:29.000Z</time>
      </trkpt>
      <trkpt lat="43.77648" lon="3.83259">
        <ele>453</ele>
        <time>2026-05-21T10:59:30.000Z</time>
      </trkpt>
      <trkpt lat="43.77648" lon="3.83259">
        <ele>452.9</ele>
        <time>2026-05-21T10:59:31.000Z</time>
      </trkpt>
      <trkpt lat="43.77648" lon="3.83259">
        <ele>452.7</ele>
        <time>2026-05-21T10:59:32.000Z</time>
      </trkpt>
      <trkpt lat="43.77648" lon="3.83259">
        <ele>452.6</ele>
        <time>2026-05-21T10:59:33.000Z</time>
      </trkpt>
      <trkpt lat="43.77648" lon="3.83259">
        <ele>452.7</ele>
        <time>2026-05-21T10:59:34.000Z</time>
      </trkpt>
      <trkpt lat="43.77648" lon="3.83259">
        <ele>452.6</ele>
        <time>2026-05-21T10:59:35.000Z</time>
      </trkpt>
      <trkpt lat="43.77648" lon="3.83259">
        <ele>452.6</ele>
        <time>2026-05-21T10:59:36.000Z</time>
      </trkpt>
      <trkpt lat="43.77648" lon="3.83259">
        <ele>452.5</ele>
        <time>2026-05-21T10:59:37.000Z</time>
      </trkpt>
      <trkpt lat="43.77648" lon="3.83259">
        <ele>452.5</ele>
        <time>2026-05-21T10:59:38.000Z</time>
      </trkpt>
      <trkpt lat="43.77648" lon="3.83259">
        <ele>452.4</ele>
        <time>2026-05-21T10:59:39.000Z</time>
      </trkpt>
      <trkpt lat="43.77648" lon="3.83259">
        <ele>452.3</ele>
        <time>2026-05-21T10:59:40.000Z</time>
      </trkpt>
      <trkpt lat="43.77648" lon="3.83259">
        <ele>452.4</ele>
        <time>2026-05-21T10:59:41.000Z</time>
      </trkpt>
      <trkpt lat="43.77648" lon="3.8326">
        <ele>452.6</ele>
        <time>2026-05-21T10:59:42.000Z</time>
      </trkpt>
      <trkpt lat="43.77648" lon="3.8326">
        <ele>452.6</ele>
        <time>2026-05-21T10:59:43.000Z</time>
      </trkpt>
      <trkpt lat="43.77648" lon="3.8326">
        <ele>452.7</ele>
        <time>2026-05-21T10:59:44.000Z</time>
      </trkpt>
      <trkpt lat="43.77648" lon="3.8326">
        <ele>452.8</ele>
        <time>2026-05-21T10:59:45.000Z</time>
      </trkpt>
      <trkpt lat="43.77648" lon="3.8326">
        <ele>452.8</ele>
        <time>2026-05-21T10:59:46.000Z</time>
      </trkpt>
      <trkpt lat="43.77648" lon="3.8326">
        <ele>452.7</ele>
        <time>2026-05-21T10:59:47.000Z</time>
      </trkpt>
      <trkpt lat="43.77648" lon="3.8326">
        <ele>452.8</ele>
        <time>2026-05-21T10:59:48.000Z</time>
      </trkpt>
      <trkpt lat="43.77648" lon="3.8326">
        <ele>452.9</ele>
        <time>2026-05-21T10:59:49.000Z</time>
      </trkpt>
      <trkpt lat="43.77648" lon="3.8326">
        <ele>453</ele>
        <time>2026-05-21T10:59:50.000Z</time>
      </trkpt>
      <trkpt lat="43.77648" lon="3.8326">
        <ele>453.1</ele>
        <time>2026-05-21T10:59:51.000Z</time>
      </trkpt>
      <trkpt lat="43.77648" lon="3.8326">
        <ele>452.9</ele>
        <time>2026-05-21T10:59:52.000Z</time>
      </trkpt>
      <trkpt lat="43.77648" lon="3.8326">
        <ele>452.9</ele>
        <time>2026-05-21T10:59:53.000Z</time>
      </trkpt>
      <trkpt lat="43.77648" lon="3.8326">
        <ele>452.9</ele>
        <time>2026-05-21T10:59:54.000Z</time>
      </trkpt>
      <trkpt lat="43.77648" lon="3.8326">
        <ele>452.9</ele>
        <time>2026-05-21T10:59:55.000Z</time>
      </trkpt>
      <trkpt lat="43.77648" lon="3.8326">
        <ele>452.9</ele>
        <time>2026-05-21T10:59:56.000Z</time>
      </trkpt>
      <trkpt lat="43.77648" lon="3.8326">
        <ele>452.8</ele>
        <time>2026-05-21T10:59:57.000Z</time>
      </trkpt>
      <trkpt lat="43.77648" lon="3.8326">
        <ele>452.6</ele>
        <time>2026-05-21T10:59:58.000Z</time>
      </trkpt>
      <trkpt lat="43.77648" lon="3.8326">
        <ele>452.5</ele>
        <time>2026-05-21T10:59:59.000Z</time>
      </trkpt>
      <trkpt lat="43.77649" lon="3.8326">
        <ele>452.4</ele>
        <time>2026-05-21T11:00:00.000Z</time>
      </trkpt>
      <trkpt lat="43.77649" lon="3.8326">
        <ele>452.4</ele>
        <time>2026-05-21T11:00:01.000Z</time>
      </trkpt>
      <trkpt lat="43.77649" lon="3.8326">
        <ele>452.3</ele>
        <time>2026-05-21T11:00:02.000Z</time>
      </trkpt>
      <trkpt lat="43.77649" lon="3.8326">
        <ele>452.3</ele>
        <time>2026-05-21T11:00:03.000Z</time>
      </trkpt>
      <trkpt lat="43.77649" lon="3.8326">
        <ele>452.5</ele>
        <time>2026-05-21T11:00:04.000Z</time>
      </trkpt>
      <trkpt lat="43.77649" lon="3.8326">
        <ele>452.7</ele>
        <time>2026-05-21T11:00:05.000Z</time>
      </trkpt>
      <trkpt lat="43.77649" lon="3.8326">
        <ele>453</ele>
        <time>2026-05-21T11:00:06.000Z</time>
      </trkpt>
      <trkpt lat="43.77649" lon="3.8326">
        <ele>453.2</ele>
        <time>2026-05-21T11:00:07.000Z</time>
      </trkpt>
      <trkpt lat="43.77649" lon="3.8326">
        <ele>453.4</ele>
        <time>2026-05-21T11:00:08.000Z</time>
      </trkpt>
      <trkpt lat="43.77649" lon="3.8326">
        <ele>453.5</ele>
        <time>2026-05-21T11:00:09.000Z</time>
      </trkpt>
      <trkpt lat="43.77649" lon="3.8326">
        <ele>453.6</ele>
        <time>2026-05-21T11:00:10.000Z</time>
      </trkpt>
      <trkpt lat="43.77649" lon="3.8326">
        <ele>453.9</ele>
        <time>2026-05-21T11:00:11.000Z</time>
      </trkpt>
      <trkpt lat="43.77649" lon="3.8326">
        <ele>454.2</ele>
        <time>2026-05-21T11:00:12.000Z</time>
      </trkpt>
      <trkpt lat="43.77648" lon="3.8326">
        <ele>454.3</ele>
        <time>2026-05-21T11:00:13.000Z</time>
      </trkpt>
      <trkpt lat="43.77648" lon="3.8326">
        <ele>454.4</ele>
        <time>2026-05-21T11:00:14.000Z</time>
      </trkpt>
      <trkpt lat="43.77648" lon="3.8326">
        <ele>454.5</ele>
        <time>2026-05-21T11:00:15.000Z</time>
      </trkpt>
      <trkpt lat="43.77648" lon="3.8326">
        <ele>454.6</ele>
        <time>2026-05-21T11:00:16.000Z</time>
      </trkpt>
      <trkpt lat="43.77648" lon="3.8326">
        <ele>454.7</ele>
        <time>2026-05-21T11:00:17.000Z</time>
      </trkpt>
      <trkpt lat="43.77648" lon="3.8326">
        <ele>454.8</ele>
        <time>2026-05-21T11:00:18.000Z</time>
      </trkpt>
      <trkpt lat="43.77648" lon="3.8326">
        <ele>454.8</ele>
        <time>2026-05-21T11:00:19.000Z</time>
      </trkpt>
      <trkpt lat="43.77648" lon="3.83259">
        <ele>454.8</ele>
        <time>2026-05-21T11:00:20.000Z</time>
      </trkpt>
      <trkpt lat="43.77648" lon="3.83259">
        <ele>454.7</ele>
        <time>2026-05-21T11:00:21.000Z</time>
      </trkpt>
      <trkpt lat="43.77648" lon="3.83259">
        <ele>454.7</ele>
        <time>2026-05-21T11:00:22.000Z</time>
      </trkpt>
      <trkpt lat="43.77648" lon="3.83259">
        <ele>454.7</ele>
        <time>2026-05-21T11:00:23.000Z</time>
      </trkpt>
      <trkpt lat="43.77648" lon="3.83259">
        <ele>454.9</ele>
        <time>2026-05-21T11:00:24.000Z</time>
      </trkpt>
      <trkpt lat="43.77648" lon="3.8326">
        <ele>455</ele>
        <time>2026-05-21T11:00:25.000Z</time>
      </trkpt>
      <trkpt lat="43.77648" lon="3.8326">
        <ele>455.2</ele>
        <time>2026-05-21T11:00:26.000Z</time>
      </trkpt>
      <trkpt lat="43.77648" lon="3.8326">
        <ele>455.2</ele>
        <time>2026-05-21T11:00:27.000Z</time>
      </trkpt>
      <trkpt lat="43.77647" lon="3.8326">
        <ele>455.2</ele>
        <time>2026-05-21T11:00:28.000Z</time>
      </trkpt>
      <trkpt lat="43.77647" lon="3.8326">
        <ele>455.2</ele>
        <time>2026-05-21T11:00:29.000Z</time>
      </trkpt>
      <trkpt lat="43.77647" lon="3.8326">
        <ele>455.2</ele>
        <time>2026-05-21T11:00:30.000Z</time>
      </trkpt>
      <trkpt lat="43.77647" lon="3.8326">
        <ele>455.1</ele>
        <time>2026-05-21T11:00:31.000Z</time>
      </trkpt>
      <trkpt lat="43.77647" lon="3.8326">
        <ele>455.4</ele>
        <time>2026-05-21T11:00:32.000Z</time>
      </trkpt>
      <trkpt lat="43.77647" lon="3.8326">
        <ele>455.7</ele>
        <time>2026-05-21T11:00:33.000Z</time>
      </trkpt>
      <trkpt lat="43.77647" lon="3.8326">
        <ele>455.9</ele>
        <time>2026-05-21T11:00:34.000Z</time>
      </trkpt>
      <trkpt lat="43.77647" lon="3.8326">
        <ele>456.1</ele>
        <time>2026-05-21T11:00:35.000Z</time>
      </trkpt>
      <trkpt lat="43.77647" lon="3.8326">
        <ele>456.3</ele>
        <time>2026-05-21T11:00:36.000Z</time>
      </trkpt>
      <trkpt lat="43.77647" lon="3.8326">
        <ele>456.4</ele>
        <time>2026-05-21T11:00:37.000Z</time>
      </trkpt>
      <trkpt lat="43.77647" lon="3.8326">
        <ele>456.5</ele>
        <time>2026-05-21T11:00:38.000Z</time>
      </trkpt>
      <trkpt lat="43.77647" lon="3.8326">
        <ele>456.5</ele>
        <time>2026-05-21T11:00:39.000Z</time>
      </trkpt>
      <trkpt lat="43.77647" lon="3.8326">
        <ele>456.6</ele>
        <time>2026-05-21T11:00:40.000Z</time>
      </trkpt>
      <trkpt lat="43.77647" lon="3.83259">
        <ele>456.6</ele>
        <time>2026-05-21T11:00:41.000Z</time>
      </trkpt>
      <trkpt lat="43.77647" lon="3.83259">
        <ele>456.6</ele>
        <time>2026-05-21T11:00:42.000Z</time>
      </trkpt>
      <trkpt lat="43.77647" lon="3.83259">
        <ele>456.8</ele>
        <time>2026-05-21T11:00:43.000Z</time>
      </trkpt>
      <trkpt lat="43.77647" lon="3.83259">
        <ele>456.8</ele>
        <time>2026-05-21T11:00:44.000Z</time>
      </trkpt>
      <trkpt lat="43.77647" lon="3.83259">
        <ele>457</ele>
        <time>2026-05-21T11:00:45.000Z</time>
      </trkpt>
      <trkpt lat="43.77647" lon="3.83259">
        <ele>457</ele>
        <time>2026-05-21T11:00:46.000Z</time>
      </trkpt>
      <trkpt lat="43.77647" lon="3.83259">
        <ele>457.1</ele>
        <time>2026-05-21T11:00:47.000Z</time>
      </trkpt>
      <trkpt lat="43.77647" lon="3.83259">
        <ele>457.1</ele>
        <time>2026-05-21T11:00:48.000Z</time>
      </trkpt>
      <trkpt lat="43.77647" lon="3.83259">
        <ele>457.1</ele>
        <time>2026-05-21T11:00:49.000Z</time>
      </trkpt>
      <trkpt lat="43.77647" lon="3.83259">
        <ele>457</ele>
        <time>2026-05-21T11:00:50.000Z</time>
      </trkpt>
      <trkpt lat="43.77647" lon="3.83259">
        <ele>457</ele>
        <time>2026-05-21T11:00:51.000Z</time>
      </trkpt>
      <trkpt lat="43.77647" lon="3.83259">
        <ele>457.1</ele>
        <time>2026-05-21T11:00:52.000Z</time>
      </trkpt>
      <trkpt lat="43.77647" lon="3.83259">
        <ele>457.2</ele>
        <time>2026-05-21T11:00:53.000Z</time>
      </trkpt>
      <trkpt lat="43.77647" lon="3.83259">
        <ele>457.4</ele>
        <time>2026-05-21T11:00:54.000Z</time>
      </trkpt>
      <trkpt lat="43.77647" lon="3.83259">
        <ele>457.5</ele>
        <time>2026-05-21T11:00:55.000Z</time>
      </trkpt>
      <trkpt lat="43.77647" lon="3.83259">
        <ele>457.5</ele>
        <time>2026-05-21T11:00:56.000Z</time>
      </trkpt>
      <trkpt lat="43.77647" lon="3.83259">
        <ele>457.4</ele>
        <time>2026-05-21T11:00:57.000Z</time>
      </trkpt>
      <trkpt lat="43.77647" lon="3.83259">
        <ele>457.3</ele>
        <time>2026-05-21T11:00:58.000Z</time>
      </trkpt>
      <trkpt lat="43.77647" lon="3.83258">
        <ele>457.2</ele>
        <time>2026-05-21T11:00:59.000Z</time>
      </trkpt>
      <trkpt lat="43.77647" lon="3.83258">
        <ele>457.2</ele>
        <time>2026-05-21T11:01:00.000Z</time>
      </trkpt>
      <trkpt lat="43.77647" lon="3.83258">
        <ele>457.2</ele>
        <time>2026-05-21T11:01:01.000Z</time>
      </trkpt>
      <trkpt lat="43.77647" lon="3.83258">
        <ele>457.3</ele>
        <time>2026-05-21T11:01:02.000Z</time>
      </trkpt>
      <trkpt lat="43.77647" lon="3.83258">
        <ele>457.3</ele>
        <time>2026-05-21T11:01:03.000Z</time>
      </trkpt>
      <trkpt lat="43.77647" lon="3.83258">
        <ele>457.4</ele>
        <time>2026-05-21T11:01:04.000Z</time>
      </trkpt>
      <trkpt lat="43.77647" lon="3.83258">
        <ele>457.5</ele>
        <time>2026-05-21T11:01:05.000Z</time>
      </trkpt>
      <trkpt lat="43.77647" lon="3.83258">
        <ele>457.6</ele>
        <time>2026-05-21T11:01:06.000Z</time>
      </trkpt>
      <trkpt lat="43.77647" lon="3.83258">
        <ele>457.7</ele>
        <time>2026-05-21T11:01:07.000Z</time>
      </trkpt>
      <trkpt lat="43.77647" lon="3.83258">
        <ele>457.7</ele>
        <time>2026-05-21T11:01:08.000Z</time>
      </trkpt>
      <trkpt lat="43.77647" lon="3.83258">
        <ele>457.6</ele>
        <time>2026-05-21T11:01:09.000Z</time>
      </trkpt>
      <trkpt lat="43.77647" lon="3.83257">
        <ele>457.7</ele>
        <time>2026-05-21T11:01:10.000Z</time>
      </trkpt>
      <trkpt lat="43.77647" lon="3.83257">
        <ele>457.9</ele>
        <time>2026-05-21T11:01:11.000Z</time>
      </trkpt>
      <trkpt lat="43.77647" lon="3.83257">
        <ele>457.9</ele>
        <time>2026-05-21T11:01:12.000Z</time>
      </trkpt>
      <trkpt lat="43.77647" lon="3.83257">
        <ele>457.9</ele>
        <time>2026-05-21T11:01:13.000Z</time>
      </trkpt>
      <trkpt lat="43.77647" lon="3.83257">
        <ele>457.9</ele>
        <time>2026-05-21T11:01:14.000Z</time>
      </trkpt>
      <trkpt lat="43.77647" lon="3.83257">
        <ele>457.8</ele>
        <time>2026-05-21T11:01:15.000Z</time>
      </trkpt>
      <trkpt lat="43.77647" lon="3.83257">
        <ele>457.9</ele>
        <time>2026-05-21T11:01:16.000Z</time>
      </trkpt>
      <trkpt lat="43.77647" lon="3.83257">
        <ele>458.1</ele>
        <time>2026-05-21T11:01:17.000Z</time>
      </trkpt>
      <trkpt lat="43.77647" lon="3.83257">
        <ele>458</ele>
        <time>2026-05-21T11:01:18.000Z</time>
      </trkpt>
      <trkpt lat="43.77647" lon="3.83257">
        <ele>457.7</ele>
        <time>2026-05-21T11:01:19.000Z</time>
      </trkpt>
      <trkpt lat="43.77647" lon="3.83257">
        <ele>457.5</ele>
        <time>2026-05-21T11:01:20.000Z</time>
      </trkpt>
      <trkpt lat="43.77647" lon="3.83257">
        <ele>457.3</ele>
        <time>2026-05-21T11:01:21.000Z</time>
      </trkpt>
      <trkpt lat="43.77647" lon="3.83257">
        <ele>457.3</ele>
        <time>2026-05-21T11:01:22.000Z</time>
      </trkpt>
      <trkpt lat="43.77647" lon="3.83257">
        <ele>457.2</ele>
        <time>2026-05-21T11:01:23.000Z</time>
      </trkpt>
      <trkpt lat="43.77647" lon="3.83257">
        <ele>457.1</ele>
        <time>2026-05-21T11:01:24.000Z</time>
      </trkpt>
      <trkpt lat="43.77647" lon="3.83257">
        <ele>457</ele>
        <time>2026-05-21T11:01:25.000Z</time>
      </trkpt>
      <trkpt lat="43.77647" lon="3.83257">
        <ele>457</ele>
        <time>2026-05-21T11:01:26.000Z</time>
      </trkpt>
      <trkpt lat="43.77647" lon="3.83257">
        <ele>456.9</ele>
        <time>2026-05-21T11:01:27.000Z</time>
      </trkpt>
      <trkpt lat="43.77647" lon="3.83257">
        <ele>456.9</ele>
        <time>2026-05-21T11:01:28.000Z</time>
      </trkpt>
      <trkpt lat="43.77647" lon="3.83257">
        <ele>457</ele>
        <time>2026-05-21T11:01:29.000Z</time>
      </trkpt>
      <trkpt lat="43.77647" lon="3.83257">
        <ele>457.2</ele>
        <time>2026-05-21T11:01:30.000Z</time>
      </trkpt>
      <trkpt lat="43.77647" lon="3.83257">
        <ele>457.4</ele>
        <time>2026-05-21T11:01:31.000Z</time>
      </trkpt>
      <trkpt lat="43.77647" lon="3.83257">
        <ele>457.5</ele>
        <time>2026-05-21T11:01:32.000Z</time>
      </trkpt>
      <trkpt lat="43.77647" lon="3.83257">
        <ele>457.6</ele>
        <time>2026-05-21T11:01:33.000Z</time>
      </trkpt>
      <trkpt lat="43.77647" lon="3.83257">
        <ele>457.6</ele>
        <time>2026-05-21T11:01:34.000Z</time>
      </trkpt>
      <trkpt lat="43.77648" lon="3.83257">
        <ele>457.5</ele>
        <time>2026-05-21T11:01:35.000Z</time>
      </trkpt>
      <trkpt lat="43.77648" lon="3.83257">
        <ele>457.5</ele>
        <time>2026-05-21T11:01:36.000Z</time>
      </trkpt>
      <trkpt lat="43.77648" lon="3.83257">
        <ele>457.4</ele>
        <time>2026-05-21T11:01:37.000Z</time>
      </trkpt>
      <trkpt lat="43.77648" lon="3.83257">
        <ele>457.5</ele>
        <time>2026-05-21T11:01:38.000Z</time>
      </trkpt>
      <trkpt lat="43.77648" lon="3.83257">
        <ele>457.5</ele>
        <time>2026-05-21T11:01:39.000Z</time>
      </trkpt>
      <trkpt lat="43.77648" lon="3.83257">
        <ele>457.4</ele>
        <time>2026-05-21T11:01:40.000Z</time>
      </trkpt>
      <trkpt lat="43.77648" lon="3.83257">
        <ele>457.3</ele>
        <time>2026-05-21T11:01:41.000Z</time>
      </trkpt>
      <trkpt lat="43.77648" lon="3.83257">
        <ele>457.2</ele>
        <time>2026-05-21T11:01:42.000Z</time>
      </trkpt>
      <trkpt lat="43.77648" lon="3.83257">
        <ele>456.9</ele>
        <time>2026-05-21T11:01:43.000Z</time>
      </trkpt>
      <trkpt lat="43.77648" lon="3.83257">
        <ele>456.6</ele>
        <time>2026-05-21T11:01:44.000Z</time>
      </trkpt>
      <trkpt lat="43.77648" lon="3.83258">
        <ele>456.3</ele>
        <time>2026-05-21T11:01:45.000Z</time>
      </trkpt>
      <trkpt lat="43.77648" lon="3.83258">
        <ele>456.1</ele>
        <time>2026-05-21T11:01:46.000Z</time>
      </trkpt>
      <trkpt lat="43.77647" lon="3.83258">
        <ele>455.9</ele>
        <time>2026-05-21T11:01:47.000Z</time>
      </trkpt>
      <trkpt lat="43.77647" lon="3.83258">
        <ele>455.6</ele>
        <time>2026-05-21T11:01:48.000Z</time>
      </trkpt>
      <trkpt lat="43.77647" lon="3.83258">
        <ele>455.3</ele>
        <time>2026-05-21T11:01:49.000Z</time>
      </trkpt>
      <trkpt lat="43.77647" lon="3.83258">
        <ele>455.2</ele>
        <time>2026-05-21T11:01:50.000Z</time>
      </trkpt>
      <trkpt lat="43.77647" lon="3.83257">
        <ele>455.1</ele>
        <time>2026-05-21T11:01:51.000Z</time>
      </trkpt>
      <trkpt lat="43.77647" lon="3.83257">
        <ele>455.1</ele>
        <time>2026-05-21T11:01:52.000Z</time>
      </trkpt>
      <trkpt lat="43.77647" lon="3.83256">
        <ele>455</ele>
        <time>2026-05-21T11:01:53.000Z</time>
      </trkpt>
      <trkpt lat="43.77647" lon="3.83256">
        <ele>455</ele>
        <time>2026-05-21T11:01:54.000Z</time>
      </trkpt>
      <trkpt lat="43.77647" lon="3.83256">
        <ele>455</ele>
        <time>2026-05-21T11:01:55.000Z</time>
      </trkpt>
      <trkpt lat="43.77647" lon="3.83256">
        <ele>455</ele>
        <time>2026-05-21T11:01:56.000Z</time>
      </trkpt>
      <trkpt lat="43.77647" lon="3.83257">
        <ele>454.9</ele>
        <time>2026-05-21T11:01:57.000Z</time>
      </trkpt>
      <trkpt lat="43.77647" lon="3.83257">
        <ele>454.9</ele>
        <time>2026-05-21T11:01:58.000Z</time>
      </trkpt>
      <trkpt lat="43.77647" lon="3.83257">
        <ele>454.8</ele>
        <time>2026-05-21T11:01:59.000Z</time>
      </trkpt>
      <trkpt lat="43.77647" lon="3.83257">
        <ele>455</ele>
        <time>2026-05-21T11:02:00.000Z</time>
      </trkpt>
      <trkpt lat="43.77647" lon="3.83257">
        <ele>455.2</ele>
        <time>2026-05-21T11:02:01.000Z</time>
      </trkpt>
      <trkpt lat="43.77648" lon="3.83257">
        <ele>455.3</ele>
        <time>2026-05-21T11:02:02.000Z</time>
      </trkpt>
      <trkpt lat="43.77648" lon="3.83257">
        <ele>455.5</ele>
        <time>2026-05-21T11:02:03.000Z</time>
      </trkpt>
      <trkpt lat="43.77648" lon="3.83257">
        <ele>455.5</ele>
        <time>2026-05-21T11:02:04.000Z</time>
      </trkpt>
      <trkpt lat="43.77648" lon="3.83257">
        <ele>455.5</ele>
        <time>2026-05-21T11:02:05.000Z</time>
      </trkpt>
      <trkpt lat="43.77648" lon="3.83257">
        <ele>455.4</ele>
        <time>2026-05-21T11:02:06.000Z</time>
      </trkpt>
      <trkpt lat="43.77648" lon="3.83257">
        <ele>455.4</ele>
        <time>2026-05-21T11:02:07.000Z</time>
      </trkpt>
      <trkpt lat="43.77648" lon="3.83257">
        <ele>455.3</ele>
        <time>2026-05-21T11:02:08.000Z</time>
      </trkpt>
      <trkpt lat="43.77648" lon="3.83257">
        <ele>455.3</ele>
        <time>2026-05-21T11:02:09.000Z</time>
      </trkpt>
      <trkpt lat="43.77648" lon="3.83257">
        <ele>455.4</ele>
        <time>2026-05-21T11:02:10.000Z</time>
      </trkpt>
      <trkpt lat="43.77648" lon="3.83257">
        <ele>455.4</ele>
        <time>2026-05-21T11:02:11.000Z</time>
      </trkpt>
      <trkpt lat="43.77648" lon="3.83257">
        <ele>455.4</ele>
        <time>2026-05-21T11:02:12.000Z</time>
      </trkpt>
      <trkpt lat="43.77648" lon="3.83257">
        <ele>455.6</ele>
        <time>2026-05-21T11:02:13.000Z</time>
      </trkpt>
      <trkpt lat="43.77648" lon="3.83257">
        <ele>455.6</ele>
        <time>2026-05-21T11:02:14.000Z</time>
      </trkpt>
      <trkpt lat="43.77648" lon="3.83257">
        <ele>455.8</ele>
        <time>2026-05-21T11:02:15.000Z</time>
      </trkpt>
      <trkpt lat="43.77648" lon="3.83257">
        <ele>455.9</ele>
        <time>2026-05-21T11:02:16.000Z</time>
      </trkpt>
      <trkpt lat="43.77648" lon="3.83257">
        <ele>456</ele>
        <time>2026-05-21T11:02:17.000Z</time>
      </trkpt>
      <trkpt lat="43.77648" lon="3.83257">
        <ele>455.9</ele>
        <time>2026-05-21T11:02:18.000Z</time>
      </trkpt>
      <trkpt lat="43.77648" lon="3.83257">
        <ele>455.9</ele>
        <time>2026-05-21T11:02:19.000Z</time>
      </trkpt>
      <trkpt lat="43.77649" lon="3.83256">
        <ele>456</ele>
        <time>2026-05-21T11:02:20.000Z</time>
      </trkpt>
      <trkpt lat="43.77649" lon="3.83256">
        <ele>456.2</ele>
        <time>2026-05-21T11:02:21.000Z</time>
      </trkpt>
      <trkpt lat="43.7765" lon="3.83256">
        <ele>456.3</ele>
        <time>2026-05-21T11:02:22.000Z</time>
      </trkpt>
      <trkpt lat="43.7765" lon="3.83256">
        <ele>456.5</ele>
        <time>2026-05-21T11:02:23.000Z</time>
      </trkpt>
      <trkpt lat="43.7765" lon="3.83256">
        <ele>456.6</ele>
        <time>2026-05-21T11:02:24.000Z</time>
      </trkpt>
      <trkpt lat="43.7765" lon="3.83256">
        <ele>456.8</ele>
        <time>2026-05-21T11:02:25.000Z</time>
      </trkpt>
      <trkpt lat="43.7765" lon="3.83255">
        <ele>456.8</ele>
        <time>2026-05-21T11:02:26.000Z</time>
      </trkpt>
      <trkpt lat="43.7765" lon="3.83256">
        <ele>457</ele>
        <time>2026-05-21T11:02:27.000Z</time>
      </trkpt>
      <trkpt lat="43.7765" lon="3.83256">
        <ele>457.1</ele>
        <time>2026-05-21T11:02:28.000Z</time>
      </trkpt>
      <trkpt lat="43.7765" lon="3.83256">
        <ele>457.1</ele>
        <time>2026-05-21T11:02:29.000Z</time>
      </trkpt>
      <trkpt lat="43.7765" lon="3.83256">
        <ele>457.1</ele>
        <time>2026-05-21T11:02:30.000Z</time>
      </trkpt>
      <trkpt lat="43.77649" lon="3.83256">
        <ele>457</ele>
        <time>2026-05-21T11:02:31.000Z</time>
      </trkpt>
      <trkpt lat="43.77649" lon="3.83256">
        <ele>456.7</ele>
        <time>2026-05-21T11:02:32.000Z</time>
      </trkpt>
      <trkpt lat="43.77649" lon="3.83256">
        <ele>456.7</ele>
        <time>2026-05-21T11:02:33.000Z</time>
      </trkpt>
      <trkpt lat="43.77649" lon="3.83256">
        <ele>456.8</ele>
        <time>2026-05-21T11:02:34.000Z</time>
      </trkpt>
      <trkpt lat="43.77649" lon="3.83256">
        <ele>456.7</ele>
        <time>2026-05-21T11:02:35.000Z</time>
      </trkpt>
      <trkpt lat="43.77649" lon="3.83256">
        <ele>456.8</ele>
        <time>2026-05-21T11:02:36.000Z</time>
      </trkpt>
      <trkpt lat="43.7765" lon="3.83256">
        <ele>456.9</ele>
        <time>2026-05-21T11:02:37.000Z</time>
      </trkpt>
      <trkpt lat="43.77649" lon="3.83256">
        <ele>456.9</ele>
        <time>2026-05-21T11:02:38.000Z</time>
      </trkpt>
      <trkpt lat="43.77649" lon="3.83256">
        <ele>456.9</ele>
        <time>2026-05-21T11:02:39.000Z</time>
      </trkpt>
      <trkpt lat="43.77649" lon="3.83256">
        <ele>457</ele>
        <time>2026-05-21T11:02:40.000Z</time>
      </trkpt>
      <trkpt lat="43.77649" lon="3.83256">
        <ele>457</ele>
        <time>2026-05-21T11:02:41.000Z</time>
      </trkpt>
      <trkpt lat="43.77649" lon="3.83256">
        <ele>457.2</ele>
        <time>2026-05-21T11:02:42.000Z</time>
      </trkpt>
      <trkpt lat="43.77649" lon="3.83256">
        <ele>457.1</ele>
        <time>2026-05-21T11:02:43.000Z</time>
      </trkpt>
      <trkpt lat="43.77649" lon="3.83256">
        <ele>457.1</ele>
        <time>2026-05-21T11:02:44.000Z</time>
      </trkpt>
      <trkpt lat="43.77649" lon="3.83256">
        <ele>457</ele>
        <time>2026-05-21T11:02:45.000Z</time>
      </trkpt>
      <trkpt lat="43.77649" lon="3.83256">
        <ele>456.9</ele>
        <time>2026-05-21T11:02:46.000Z</time>
      </trkpt>
      <trkpt lat="43.77649" lon="3.83256">
        <ele>456.8</ele>
        <time>2026-05-21T11:02:47.000Z</time>
      </trkpt>
      <trkpt lat="43.77649" lon="3.83256">
        <ele>456.8</ele>
        <time>2026-05-21T11:02:48.000Z</time>
      </trkpt>
      <trkpt lat="43.77649" lon="3.83256">
        <ele>456.7</ele>
        <time>2026-05-21T11:02:49.000Z</time>
      </trkpt>
      <trkpt lat="43.77649" lon="3.83256">
        <ele>456.7</ele>
        <time>2026-05-21T11:02:50.000Z</time>
      </trkpt>
      <trkpt lat="43.77649" lon="3.83256">
        <ele>456.6</ele>
        <time>2026-05-21T11:02:51.000Z</time>
      </trkpt>
      <trkpt lat="43.77649" lon="3.83256">
        <ele>456.6</ele>
        <time>2026-05-21T11:02:52.000Z</time>
      </trkpt>
      <trkpt lat="43.77649" lon="3.83256">
        <ele>456.6</ele>
        <time>2026-05-21T11:02:53.000Z</time>
      </trkpt>
      <trkpt lat="43.77649" lon="3.83256">
        <ele>456.5</ele>
        <time>2026-05-21T11:02:54.000Z</time>
      </trkpt>
      <trkpt lat="43.77649" lon="3.83256">
        <ele>456.5</ele>
        <time>2026-05-21T11:02:55.000Z</time>
      </trkpt>
      <trkpt lat="43.77649" lon="3.83256">
        <ele>456.4</ele>
        <time>2026-05-21T11:02:56.000Z</time>
      </trkpt>
      <trkpt lat="43.77649" lon="3.83256">
        <ele>456.3</ele>
        <time>2026-05-21T11:02:57.000Z</time>
      </trkpt>
      <trkpt lat="43.77649" lon="3.83256">
        <ele>456.4</ele>
        <time>2026-05-21T11:02:58.000Z</time>
      </trkpt>
      <trkpt lat="43.77649" lon="3.83256">
        <ele>456.3</ele>
        <time>2026-05-21T11:02:59.000Z</time>
      </trkpt>
      <trkpt lat="43.77649" lon="3.83257">
        <ele>456.3</ele>
        <time>2026-05-21T11:03:00.000Z</time>
      </trkpt>
      <trkpt lat="43.77649" lon="3.83257">
        <ele>456.3</ele>
        <time>2026-05-21T11:03:01.000Z</time>
      </trkpt>
      <trkpt lat="43.77649" lon="3.83257">
        <ele>456.3</ele>
        <time>2026-05-21T11:03:02.000Z</time>
      </trkpt>
      <trkpt lat="43.77649" lon="3.83257">
        <ele>456.2</ele>
        <time>2026-05-21T11:03:03.000Z</time>
      </trkpt>
      <trkpt lat="43.77649" lon="3.83257">
        <ele>456.2</ele>
        <time>2026-05-21T11:03:04.000Z</time>
      </trkpt>
      <trkpt lat="43.77649" lon="3.83257">
        <ele>456.1</ele>
        <time>2026-05-21T11:03:05.000Z</time>
      </trkpt>
      <trkpt lat="43.77649" lon="3.83257">
        <ele>456.1</ele>
        <time>2026-05-21T11:03:06.000Z</time>
      </trkpt>
      <trkpt lat="43.77649" lon="3.83257">
        <ele>456</ele>
        <time>2026-05-21T11:03:07.000Z</time>
      </trkpt>
      <trkpt lat="43.77649" lon="3.83257">
        <ele>456</ele>
        <time>2026-05-21T11:03:08.000Z</time>
      </trkpt>
      <trkpt lat="43.77649" lon="3.83257">
        <ele>455.9</ele>
        <time>2026-05-21T11:03:09.000Z</time>
      </trkpt>
      <trkpt lat="43.77649" lon="3.83257">
        <ele>455.8</ele>
        <time>2026-05-21T11:03:10.000Z</time>
      </trkpt>
      <trkpt lat="43.77648" lon="3.83257">
        <ele>455.8</ele>
        <time>2026-05-21T11:03:11.000Z</time>
      </trkpt>
      <trkpt lat="43.77648" lon="3.83257">
        <ele>456</ele>
        <time>2026-05-21T11:03:12.000Z</time>
      </trkpt>
      <trkpt lat="43.77649" lon="3.83257">
        <ele>456.1</ele>
        <time>2026-05-21T11:03:13.000Z</time>
      </trkpt>
      <trkpt lat="43.77649" lon="3.83257">
        <ele>456.2</ele>
        <time>2026-05-21T11:03:14.000Z</time>
      </trkpt>
      <trkpt lat="43.77649" lon="3.83257">
        <ele>456.4</ele>
        <time>2026-05-21T11:03:15.000Z</time>
      </trkpt>
      <trkpt lat="43.77648" lon="3.83257">
        <ele>456.4</ele>
        <time>2026-05-21T11:03:16.000Z</time>
      </trkpt>
      <trkpt lat="43.77648" lon="3.83257">
        <ele>456.6</ele>
        <time>2026-05-21T11:03:17.000Z</time>
      </trkpt>
      <trkpt lat="43.77648" lon="3.83257">
        <ele>456.8</ele>
        <time>2026-05-21T11:03:18.000Z</time>
      </trkpt>
      <trkpt lat="43.77648" lon="3.83257">
        <ele>456.8</ele>
        <time>2026-05-21T11:03:19.000Z</time>
      </trkpt>
      <trkpt lat="43.77648" lon="3.83257">
        <ele>456.7</ele>
        <time>2026-05-21T11:03:20.000Z</time>
      </trkpt>
      <trkpt lat="43.77648" lon="3.83257">
        <ele>456.6</ele>
        <time>2026-05-21T11:03:21.000Z</time>
      </trkpt>
      <trkpt lat="43.77648" lon="3.83257">
        <ele>456.5</ele>
        <time>2026-05-21T11:03:22.000Z</time>
      </trkpt>
      <trkpt lat="43.77648" lon="3.83257">
        <ele>456.5</ele>
        <time>2026-05-21T11:03:23.000Z</time>
      </trkpt>
      <trkpt lat="43.77648" lon="3.83257">
        <ele>456.3</ele>
        <time>2026-05-21T11:03:24.000Z</time>
      </trkpt>
      <trkpt lat="43.77648" lon="3.83257">
        <ele>456.2</ele>
        <time>2026-05-21T11:03:25.000Z</time>
      </trkpt>
      <trkpt lat="43.77648" lon="3.83257">
        <ele>456.3</ele>
        <time>2026-05-21T11:03:26.000Z</time>
      </trkpt>
      <trkpt lat="43.77648" lon="3.83257">
        <ele>456.4</ele>
        <time>2026-05-21T11:03:27.000Z</time>
      </trkpt>
      <trkpt lat="43.77648" lon="3.83257">
        <ele>456.4</ele>
        <time>2026-05-21T11:03:28.000Z</time>
      </trkpt>
      <trkpt lat="43.77648" lon="3.83257">
        <ele>456.3</ele>
        <time>2026-05-21T11:03:29.000Z</time>
      </trkpt>
      <trkpt lat="43.77648" lon="3.83257">
        <ele>456.2</ele>
        <time>2026-05-21T11:03:30.000Z</time>
      </trkpt>
      <trkpt lat="43.77648" lon="3.83257">
        <ele>456.1</ele>
        <time>2026-05-21T11:03:31.000Z</time>
      </trkpt>
      <trkpt lat="43.77648" lon="3.83257">
        <ele>456.2</ele>
        <time>2026-05-21T11:03:32.000Z</time>
      </trkpt>
      <trkpt lat="43.77648" lon="3.83257">
        <ele>456.1</ele>
        <time>2026-05-21T11:03:33.000Z</time>
      </trkpt>
      <trkpt lat="43.77648" lon="3.83257">
        <ele>456.1</ele>
        <time>2026-05-21T11:03:34.000Z</time>
      </trkpt>
      <trkpt lat="43.77648" lon="3.83257">
        <ele>456.1</ele>
        <time>2026-05-21T11:03:35.000Z</time>
      </trkpt>
      <trkpt lat="43.77648" lon="3.83257">
        <ele>456</ele>
        <time>2026-05-21T11:03:36.000Z</time>
      </trkpt>
      <trkpt lat="43.77648" lon="3.83257">
        <ele>456</ele>
        <time>2026-05-21T11:03:37.000Z</time>
      </trkpt>
      <trkpt lat="43.77648" lon="3.83257">
        <ele>455.9</ele>
        <time>2026-05-21T11:03:38.000Z</time>
      </trkpt>
      <trkpt lat="43.77648" lon="3.83257">
        <ele>455.8</ele>
        <time>2026-05-21T11:03:39.000Z</time>
      </trkpt>
      <trkpt lat="43.77648" lon="3.83258">
        <ele>455.8</ele>
        <time>2026-05-21T11:03:40.000Z</time>
      </trkpt>
      <trkpt lat="43.77648" lon="3.83258">
        <ele>455.8</ele>
        <time>2026-05-21T11:03:41.000Z</time>
      </trkpt>
      <trkpt lat="43.77648" lon="3.83258">
        <ele>455.8</ele>
        <time>2026-05-21T11:03:42.000Z</time>
      </trkpt>
      <trkpt lat="43.77648" lon="3.83258">
        <ele>455.7</ele>
        <time>2026-05-21T11:03:43.000Z</time>
      </trkpt>
      <trkpt lat="43.77648" lon="3.83258">
        <ele>455.7</ele>
        <time>2026-05-21T11:03:44.000Z</time>
      </trkpt>
      <trkpt lat="43.77648" lon="3.83258">
        <ele>455.6</ele>
        <time>2026-05-21T11:03:45.000Z</time>
      </trkpt>
      <trkpt lat="43.77648" lon="3.83258">
        <ele>455.7</ele>
        <time>2026-05-21T11:03:46.000Z</time>
      </trkpt>
      <trkpt lat="43.77648" lon="3.83258">
        <ele>455.8</ele>
        <time>2026-05-21T11:03:47.000Z</time>
      </trkpt>
      <trkpt lat="43.77648" lon="3.83258">
        <ele>455.9</ele>
        <time>2026-05-21T11:03:48.000Z</time>
      </trkpt>
      <trkpt lat="43.77648" lon="3.83258">
        <ele>456</ele>
        <time>2026-05-21T11:03:49.000Z</time>
      </trkpt>
      <trkpt lat="43.77648" lon="3.83258">
        <ele>456.1</ele>
        <time>2026-05-21T11:03:50.000Z</time>
      </trkpt>
      <trkpt lat="43.77648" lon="3.83258">
        <ele>456.1</ele>
        <time>2026-05-21T11:03:51.000Z</time>
      </trkpt>
      <trkpt lat="43.77648" lon="3.83258">
        <ele>456.1</ele>
        <time>2026-05-21T11:03:52.000Z</time>
      </trkpt>
      <trkpt lat="43.77648" lon="3.83258">
        <ele>456.1</ele>
        <time>2026-05-21T11:03:53.000Z</time>
      </trkpt>
      <trkpt lat="43.77648" lon="3.83258">
        <ele>456.2</ele>
        <time>2026-05-21T11:03:54.000Z</time>
      </trkpt>
      <trkpt lat="43.77648" lon="3.83258">
        <ele>456.2</ele>
        <time>2026-05-21T11:03:55.000Z</time>
      </trkpt>
      <trkpt lat="43.77647" lon="3.83258">
        <ele>456.2</ele>
        <time>2026-05-21T11:03:56.000Z</time>
      </trkpt>
      <trkpt lat="43.77647" lon="3.83257">
        <ele>456.3</ele>
        <time>2026-05-21T11:03:57.000Z</time>
      </trkpt>
      <trkpt lat="43.77647" lon="3.83257">
        <ele>456.2</ele>
        <time>2026-05-21T11:03:58.000Z</time>
      </trkpt>
      <trkpt lat="43.77646" lon="3.83257">
        <ele>456.1</ele>
        <time>2026-05-21T11:03:59.000Z</time>
      </trkpt>
      <trkpt lat="43.77647" lon="3.83257">
        <ele>456.1</ele>
        <time>2026-05-21T11:04:00.000Z</time>
      </trkpt>
      <trkpt lat="43.77647" lon="3.83257">
        <ele>456.1</ele>
        <time>2026-05-21T11:04:01.000Z</time>
      </trkpt>
      <trkpt lat="43.77647" lon="3.83258">
        <ele>456.3</ele>
        <time>2026-05-21T11:04:02.000Z</time>
      </trkpt>
      <trkpt lat="43.77647" lon="3.83258">
        <ele>456.3</ele>
        <time>2026-05-21T11:04:03.000Z</time>
      </trkpt>
      <trkpt lat="43.77647" lon="3.83258">
        <ele>456.3</ele>
        <time>2026-05-21T11:04:04.000Z</time>
      </trkpt>
      <trkpt lat="43.77647" lon="3.83258">
        <ele>456.2</ele>
        <time>2026-05-21T11:04:05.000Z</time>
      </trkpt>
      <trkpt lat="43.77647" lon="3.83258">
        <ele>456.2</ele>
        <time>2026-05-21T11:04:06.000Z</time>
      </trkpt>
      <trkpt lat="43.77647" lon="3.83258">
        <ele>456.1</ele>
        <time>2026-05-21T11:04:07.000Z</time>
      </trkpt>
      <trkpt lat="43.77647" lon="3.83258">
        <ele>455.9</ele>
        <time>2026-05-21T11:04:08.000Z</time>
      </trkpt>
      <trkpt lat="43.77647" lon="3.83258">
        <ele>455.8</ele>
        <time>2026-05-21T11:04:09.000Z</time>
      </trkpt>
      <trkpt lat="43.77647" lon="3.83258">
        <ele>455.7</ele>
        <time>2026-05-21T11:04:10.000Z</time>
      </trkpt>
      <trkpt lat="43.77647" lon="3.83258">
        <ele>455.6</ele>
        <time>2026-05-21T11:04:11.000Z</time>
      </trkpt>
      <trkpt lat="43.77647" lon="3.83258">
        <ele>455.6</ele>
        <time>2026-05-21T11:04:12.000Z</time>
      </trkpt>
      <trkpt lat="43.77647" lon="3.83258">
        <ele>455.7</ele>
        <time>2026-05-21T11:04:13.000Z</time>
      </trkpt>
      <trkpt lat="43.77648" lon="3.83257">
        <ele>455.8</ele>
        <time>2026-05-21T11:04:14.000Z</time>
      </trkpt>
      <trkpt lat="43.77648" lon="3.83257">
        <ele>455.9</ele>
        <time>2026-05-21T11:04:15.000Z</time>
      </trkpt>
      <trkpt lat="43.77648" lon="3.83257">
        <ele>456</ele>
        <time>2026-05-21T11:04:16.000Z</time>
      </trkpt>
      <trkpt lat="43.77648" lon="3.83257">
        <ele>456</ele>
        <time>2026-05-21T11:04:17.000Z</time>
      </trkpt>
      <trkpt lat="43.77648" lon="3.83257">
        <ele>456.1</ele>
        <time>2026-05-21T11:04:18.000Z</time>
      </trkpt>
      <trkpt lat="43.77648" lon="3.83257">
        <ele>456.1</ele>
        <time>2026-05-21T11:04:19.000Z</time>
      </trkpt>
      <trkpt lat="43.77648" lon="3.83257">
        <ele>456.2</ele>
        <time>2026-05-21T11:04:20.000Z</time>
      </trkpt>
      <trkpt lat="43.77648" lon="3.83257">
        <ele>456.2</ele>
        <time>2026-05-21T11:04:21.000Z</time>
      </trkpt>
      <trkpt lat="43.77648" lon="3.83257">
        <ele>456.2</ele>
        <time>2026-05-21T11:04:22.000Z</time>
      </trkpt>
      <trkpt lat="43.77648" lon="3.83257">
        <ele>456.1</ele>
        <time>2026-05-21T11:04:23.000Z</time>
      </trkpt>
      <trkpt lat="43.77648" lon="3.83257">
        <ele>455.9</ele>
        <time>2026-05-21T11:04:24.000Z</time>
      </trkpt>
      <trkpt lat="43.77648" lon="3.83257">
        <ele>455.7</ele>
        <time>2026-05-21T11:04:25.000Z</time>
      </trkpt>
      <trkpt lat="43.77648" lon="3.83257">
        <ele>455.7</ele>
        <time>2026-05-21T11:04:26.000Z</time>
      </trkpt>
      <trkpt lat="43.77648" lon="3.83257">
        <ele>455.7</ele>
        <time>2026-05-21T11:04:27.000Z</time>
      </trkpt>
      <trkpt lat="43.77648" lon="3.83256">
        <ele>455.6</ele>
        <time>2026-05-21T11:04:28.000Z</time>
      </trkpt>
      <trkpt lat="43.77648" lon="3.83256">
        <ele>455.6</ele>
        <time>2026-05-21T11:04:29.000Z</time>
      </trkpt>
      <trkpt lat="43.77648" lon="3.83256">
        <ele>455.6</ele>
        <time>2026-05-21T11:04:30.000Z</time>
      </trkpt>
      <trkpt lat="43.77648" lon="3.83257">
        <ele>455.5</ele>
        <time>2026-05-21T11:04:31.000Z</time>
      </trkpt>
      <trkpt lat="43.77648" lon="3.83257">
        <ele>455.6</ele>
        <time>2026-05-21T11:04:32.000Z</time>
      </trkpt>
      <trkpt lat="43.77648" lon="3.83257">
        <ele>455.5</ele>
        <time>2026-05-21T11:04:33.000Z</time>
      </trkpt>
      <trkpt lat="43.77649" lon="3.83257">
        <ele>455.5</ele>
        <time>2026-05-21T11:04:34.000Z</time>
      </trkpt>
      <trkpt lat="43.77649" lon="3.83256">
        <ele>455.6</ele>
        <time>2026-05-21T11:04:35.000Z</time>
      </trkpt>
      <trkpt lat="43.77649" lon="3.83256">
        <ele>455.7</ele>
        <time>2026-05-21T11:04:36.000Z</time>
      </trkpt>
      <trkpt lat="43.77649" lon="3.83256">
        <ele>455.8</ele>
        <time>2026-05-21T11:04:37.000Z</time>
      </trkpt>
      <trkpt lat="43.77649" lon="3.83256">
        <ele>456</ele>
        <time>2026-05-21T11:04:38.000Z</time>
      </trkpt>
      <trkpt lat="43.77649" lon="3.83256">
        <ele>456.2</ele>
        <time>2026-05-21T11:04:39.000Z</time>
      </trkpt>
      <trkpt lat="43.77649" lon="3.83256">
        <ele>456.1</ele>
        <time>2026-05-21T11:04:40.000Z</time>
      </trkpt>
      <trkpt lat="43.77649" lon="3.83256">
        <ele>456</ele>
        <time>2026-05-21T11:04:41.000Z</time>
      </trkpt>
      <trkpt lat="43.77649" lon="3.83256">
        <ele>456</ele>
        <time>2026-05-21T11:04:42.000Z</time>
      </trkpt>
      <trkpt lat="43.77649" lon="3.83256">
        <ele>455.8</ele>
        <time>2026-05-21T11:04:43.000Z</time>
      </trkpt>
      <trkpt lat="43.77649" lon="3.83256">
        <ele>455.9</ele>
        <time>2026-05-21T11:04:44.000Z</time>
      </trkpt>
      <trkpt lat="43.77649" lon="3.83256">
        <ele>455.9</ele>
        <time>2026-05-21T11:04:45.000Z</time>
      </trkpt>
      <trkpt lat="43.77649" lon="3.83256">
        <ele>455.8</ele>
        <time>2026-05-21T11:04:46.000Z</time>
      </trkpt>
      <trkpt lat="43.77649" lon="3.83256">
        <ele>455.6</ele>
        <time>2026-05-21T11:04:47.000Z</time>
      </trkpt>
      <trkpt lat="43.77649" lon="3.83256">
        <ele>455.5</ele>
        <time>2026-05-21T11:04:48.000Z</time>
      </trkpt>
      <trkpt lat="43.77649" lon="3.83256">
        <ele>455.5</ele>
        <time>2026-05-21T11:04:49.000Z</time>
      </trkpt>
      <trkpt lat="43.77649" lon="3.83256">
        <ele>455.5</ele>
        <time>2026-05-21T11:04:50.000Z</time>
      </trkpt>
      <trkpt lat="43.77649" lon="3.83256">
        <ele>455.4</ele>
        <time>2026-05-21T11:04:51.000Z</time>
      </trkpt>
      <trkpt lat="43.77649" lon="3.83256">
        <ele>455.3</ele>
        <time>2026-05-21T11:04:52.000Z</time>
      </trkpt>
      <trkpt lat="43.77649" lon="3.83256">
        <ele>455.3</ele>
        <time>2026-05-21T11:04:53.000Z</time>
      </trkpt>
      <trkpt lat="43.77649" lon="3.83256">
        <ele>455.1</ele>
        <time>2026-05-21T11:04:54.000Z</time>
      </trkpt>
      <trkpt lat="43.77649" lon="3.83256">
        <ele>455.1</ele>
        <time>2026-05-21T11:04:55.000Z</time>
      </trkpt>
      <trkpt lat="43.77649" lon="3.83256">
        <ele>455</ele>
        <time>2026-05-21T11:04:56.000Z</time>
      </trkpt>
      <trkpt lat="43.77649" lon="3.83256">
        <ele>455</ele>
        <time>2026-05-21T11:04:57.000Z</time>
      </trkpt>
      <trkpt lat="43.77648" lon="3.83256">
        <ele>454.9</ele>
        <time>2026-05-21T11:04:58.000Z</time>
      </trkpt>
      <trkpt lat="43.77648" lon="3.83256">
        <ele>454.8</ele>
        <time>2026-05-21T11:04:59.000Z</time>
      </trkpt>
      <trkpt lat="43.77648" lon="3.83256">
        <ele>454.7</ele>
        <time>2026-05-21T11:05:00.000Z</time>
      </trkpt>
      <trkpt lat="43.77648" lon="3.83256">
        <ele>454.6</ele>
        <time>2026-05-21T11:05:01.000Z</time>
      </trkpt>
      <trkpt lat="43.77648" lon="3.83256">
        <ele>454.6</ele>
        <time>2026-05-21T11:05:02.000Z</time>
      </trkpt>
      <trkpt lat="43.77648" lon="3.83256">
        <ele>454.5</ele>
        <time>2026-05-21T11:05:03.000Z</time>
      </trkpt>
      <trkpt lat="43.77648" lon="3.83256">
        <ele>454.5</ele>
        <time>2026-05-21T11:05:04.000Z</time>
      </trkpt>
      <trkpt lat="43.77648" lon="3.83256">
        <ele>454.7</ele>
        <time>2026-05-21T11:05:05.000Z</time>
      </trkpt>
      <trkpt lat="43.77648" lon="3.83256">
        <ele>454.7</ele>
        <time>2026-05-21T11:05:06.000Z</time>
      </trkpt>
      <trkpt lat="43.77648" lon="3.83257">
        <ele>454.7</ele>
        <time>2026-05-21T11:05:07.000Z</time>
      </trkpt>
      <trkpt lat="43.77648" lon="3.83257">
        <ele>454.7</ele>
        <time>2026-05-21T11:05:08.000Z</time>
      </trkpt>
      <trkpt lat="43.77648" lon="3.83257">
        <ele>454.6</ele>
        <time>2026-05-21T11:05:09.000Z</time>
      </trkpt>
      <trkpt lat="43.77648" lon="3.83257">
        <ele>454.7</ele>
        <time>2026-05-21T11:05:10.000Z</time>
      </trkpt>
      <trkpt lat="43.77648" lon="3.83257">
        <ele>454.7</ele>
        <time>2026-05-21T11:05:11.000Z</time>
      </trkpt>
      <trkpt lat="43.77648" lon="3.83257">
        <ele>454.7</ele>
        <time>2026-05-21T11:05:12.000Z</time>
      </trkpt>
      <trkpt lat="43.77648" lon="3.83257">
        <ele>454.8</ele>
        <time>2026-05-21T11:05:13.000Z</time>
      </trkpt>
      <trkpt lat="43.77648" lon="3.83257">
        <ele>454.8</ele>
        <time>2026-05-21T11:05:14.000Z</time>
      </trkpt>
      <trkpt lat="43.77648" lon="3.83257">
        <ele>454.7</ele>
        <time>2026-05-21T11:05:15.000Z</time>
      </trkpt>
      <trkpt lat="43.77648" lon="3.83257">
        <ele>454.6</ele>
        <time>2026-05-21T11:05:16.000Z</time>
      </trkpt>
      <trkpt lat="43.77648" lon="3.83257">
        <ele>454.6</ele>
        <time>2026-05-21T11:05:17.000Z</time>
      </trkpt>
      <trkpt lat="43.77648" lon="3.83257">
        <ele>454.6</ele>
        <time>2026-05-21T11:05:18.000Z</time>
      </trkpt>
      <trkpt lat="43.77648" lon="3.83257">
        <ele>454.6</ele>
        <time>2026-05-21T11:05:19.000Z</time>
      </trkpt>
      <trkpt lat="43.77648" lon="3.83257">
        <ele>454.6</ele>
        <time>2026-05-21T11:05:20.000Z</time>
      </trkpt>
      <trkpt lat="43.77648" lon="3.83257">
        <ele>454.5</ele>
        <time>2026-05-21T11:05:21.000Z</time>
      </trkpt>
      <trkpt lat="43.77648" lon="3.83257">
        <ele>454.5</ele>
        <time>2026-05-21T11:05:22.000Z</time>
      </trkpt>
      <trkpt lat="43.77648" lon="3.83257">
        <ele>454.4</ele>
        <time>2026-05-21T11:05:23.000Z</time>
      </trkpt>
      <trkpt lat="43.77648" lon="3.83257">
        <ele>454.4</ele>
        <time>2026-05-21T11:05:24.000Z</time>
      </trkpt>
      <trkpt lat="43.77648" lon="3.83257">
        <ele>454.4</ele>
        <time>2026-05-21T11:05:25.000Z</time>
      </trkpt>
      <trkpt lat="43.77648" lon="3.83257">
        <ele>454.3</ele>
        <time>2026-05-21T11:05:26.000Z</time>
      </trkpt>
      <trkpt lat="43.77648" lon="3.83257">
        <ele>454.3</ele>
        <time>2026-05-21T11:05:27.000Z</time>
      </trkpt>
      <trkpt lat="43.77648" lon="3.83257">
        <ele>454.2</ele>
        <time>2026-05-21T11:05:28.000Z</time>
      </trkpt>
      <trkpt lat="43.77648" lon="3.83257">
        <ele>454.1</ele>
        <time>2026-05-21T11:05:29.000Z</time>
      </trkpt>
      <trkpt lat="43.77648" lon="3.83257">
        <ele>454</ele>
        <time>2026-05-21T11:05:30.000Z</time>
      </trkpt>
      <trkpt lat="43.77648" lon="3.83257">
        <ele>453.9</ele>
        <time>2026-05-21T11:05:31.000Z</time>
      </trkpt>
      <trkpt lat="43.77648" lon="3.83257">
        <ele>453.8</ele>
        <time>2026-05-21T11:05:32.000Z</time>
      </trkpt>
      <trkpt lat="43.77648" lon="3.83257">
        <ele>453.7</ele>
        <time>2026-05-21T11:05:33.000Z</time>
      </trkpt>
      <trkpt lat="43.77648" lon="3.83257">
        <ele>453.7</ele>
        <time>2026-05-21T11:05:34.000Z</time>
      </trkpt>
      <trkpt lat="43.77648" lon="3.83257">
        <ele>453.7</ele>
        <time>2026-05-21T11:05:35.000Z</time>
      </trkpt>
      <trkpt lat="43.77648" lon="3.83257">
        <ele>453.7</ele>
        <time>2026-05-21T11:05:36.000Z</time>
      </trkpt>
      <trkpt lat="43.77648" lon="3.83257">
        <ele>453.6</ele>
        <time>2026-05-21T11:05:37.000Z</time>
      </trkpt>
      <trkpt lat="43.77648" lon="3.83257">
        <ele>453.4</ele>
        <time>2026-05-21T11:05:38.000Z</time>
      </trkpt>
      <trkpt lat="43.77648" lon="3.83257">
        <ele>453.2</ele>
        <time>2026-05-21T11:05:39.000Z</time>
      </trkpt>
      <trkpt lat="43.77648" lon="3.83257">
        <ele>453.2</ele>
        <time>2026-05-21T11:05:40.000Z</time>
      </trkpt>
      <trkpt lat="43.77648" lon="3.83257">
        <ele>453.3</ele>
        <time>2026-05-21T11:05:41.000Z</time>
      </trkpt>
      <trkpt lat="43.77649" lon="3.83257">
        <ele>453.5</ele>
        <time>2026-05-21T11:05:42.000Z</time>
      </trkpt>
      <trkpt lat="43.77649" lon="3.83257">
        <ele>453.4</ele>
        <time>2026-05-21T11:05:43.000Z</time>
      </trkpt>
      <trkpt lat="43.77649" lon="3.83257">
        <ele>453.5</ele>
        <time>2026-05-21T11:05:44.000Z</time>
      </trkpt>
      <trkpt lat="43.77649" lon="3.83257">
        <ele>453.6</ele>
        <time>2026-05-21T11:05:45.000Z</time>
      </trkpt>
      <trkpt lat="43.77649" lon="3.83257">
        <ele>453.7</ele>
        <time>2026-05-21T11:05:46.000Z</time>
      </trkpt>
      <trkpt lat="43.77649" lon="3.83257">
        <ele>453.9</ele>
        <time>2026-05-21T11:05:47.000Z</time>
      </trkpt>
      <trkpt lat="43.77649" lon="3.83257">
        <ele>453.9</ele>
        <time>2026-05-21T11:05:48.000Z</time>
      </trkpt>
      <trkpt lat="43.77649" lon="3.83257">
        <ele>453.8</ele>
        <time>2026-05-21T11:05:49.000Z</time>
      </trkpt>
      <trkpt lat="43.77649" lon="3.83257">
        <ele>453.8</ele>
        <time>2026-05-21T11:05:50.000Z</time>
      </trkpt>
      <trkpt lat="43.77649" lon="3.83257">
        <ele>453.7</ele>
        <time>2026-05-21T11:05:51.000Z</time>
      </trkpt>
      <trkpt lat="43.77649" lon="3.83257">
        <ele>453.7</ele>
        <time>2026-05-21T11:05:52.000Z</time>
      </trkpt>
      <trkpt lat="43.77649" lon="3.83257">
        <ele>453.6</ele>
        <time>2026-05-21T11:05:53.000Z</time>
      </trkpt>
      <trkpt lat="43.77649" lon="3.83257">
        <ele>453.7</ele>
        <time>2026-05-21T11:05:54.000Z</time>
      </trkpt>
      <trkpt lat="43.77649" lon="3.83257">
        <ele>453.7</ele>
        <time>2026-05-21T11:05:55.000Z</time>
      </trkpt>
      <trkpt lat="43.77649" lon="3.83257">
        <ele>453.6</ele>
        <time>2026-05-21T11:05:56.000Z</time>
      </trkpt>
      <trkpt lat="43.77649" lon="3.83257">
        <ele>453.5</ele>
        <time>2026-05-21T11:05:57.000Z</time>
      </trkpt>
      <trkpt lat="43.77649" lon="3.83257">
        <ele>453.4</ele>
        <time>2026-05-21T11:05:58.000Z</time>
      </trkpt>
      <trkpt lat="43.77649" lon="3.83257">
        <ele>453.4</ele>
        <time>2026-05-21T11:05:59.000Z</time>
      </trkpt>
      <trkpt lat="43.77649" lon="3.83257">
        <ele>453.4</ele>
        <time>2026-05-21T11:06:00.000Z</time>
      </trkpt>
      <trkpt lat="43.77649" lon="3.83257">
        <ele>453.4</ele>
        <time>2026-05-21T11:06:01.000Z</time>
      </trkpt>
      <trkpt lat="43.77649" lon="3.83257">
        <ele>453.4</ele>
        <time>2026-05-21T11:06:02.000Z</time>
      </trkpt>
      <trkpt lat="43.77649" lon="3.83257">
        <ele>453.4</ele>
        <time>2026-05-21T11:06:03.000Z</time>
      </trkpt>
      <trkpt lat="43.77649" lon="3.83257">
        <ele>453.5</ele>
        <time>2026-05-21T11:06:04.000Z</time>
      </trkpt>
      <trkpt lat="43.77649" lon="3.83257">
        <ele>453.4</ele>
        <time>2026-05-21T11:06:05.000Z</time>
      </trkpt>
      <trkpt lat="43.77649" lon="3.83257">
        <ele>453.3</ele>
        <time>2026-05-21T11:06:06.000Z</time>
      </trkpt>
      <trkpt lat="43.77649" lon="3.83257">
        <ele>453.1</ele>
        <time>2026-05-21T11:06:07.000Z</time>
      </trkpt>
      <trkpt lat="43.77649" lon="3.83257">
        <ele>453.1</ele>
        <time>2026-05-21T11:06:08.000Z</time>
      </trkpt>
      <trkpt lat="43.77649" lon="3.83257">
        <ele>452.8</ele>
        <time>2026-05-21T11:06:09.000Z</time>
      </trkpt>
      <trkpt lat="43.77649" lon="3.83257">
        <ele>452.7</ele>
        <time>2026-05-21T11:06:10.000Z</time>
      </trkpt>
      <trkpt lat="43.77649" lon="3.83257">
        <ele>452.6</ele>
        <time>2026-05-21T11:06:11.000Z</time>
      </trkpt>
      <trkpt lat="43.77649" lon="3.83257">
        <ele>452.6</ele>
        <time>2026-05-21T11:06:12.000Z</time>
      </trkpt>
      <trkpt lat="43.77649" lon="3.83257">
        <ele>452.6</ele>
        <time>2026-05-21T11:06:13.000Z</time>
      </trkpt>
      <trkpt lat="43.77649" lon="3.83257">
        <ele>452.5</ele>
        <time>2026-05-21T11:06:14.000Z</time>
      </trkpt>
      <trkpt lat="43.77649" lon="3.83257">
        <ele>452.5</ele>
        <time>2026-05-21T11:06:15.000Z</time>
      </trkpt>
      <trkpt lat="43.77649" lon="3.83257">
        <ele>452.6</ele>
        <time>2026-05-21T11:06:16.000Z</time>
      </trkpt>
      <trkpt lat="43.77649" lon="3.83257">
        <ele>452.6</ele>
        <time>2026-05-21T11:06:17.000Z</time>
      </trkpt>
      <trkpt lat="43.77649" lon="3.83257">
        <ele>452.8</ele>
        <time>2026-05-21T11:06:18.000Z</time>
      </trkpt>
      <trkpt lat="43.77649" lon="3.83257">
        <ele>452.9</ele>
        <time>2026-05-21T11:06:19.000Z</time>
      </trkpt>
      <trkpt lat="43.77649" lon="3.83257">
        <ele>452.9</ele>
        <time>2026-05-21T11:06:20.000Z</time>
      </trkpt>
      <trkpt lat="43.77649" lon="3.83257">
        <ele>453</ele>
        <time>2026-05-21T11:06:21.000Z</time>
      </trkpt>
      <trkpt lat="43.77649" lon="3.83257">
        <ele>453</ele>
        <time>2026-05-21T11:06:22.000Z</time>
      </trkpt>
      <trkpt lat="43.77649" lon="3.83257">
        <ele>453</ele>
        <time>2026-05-21T11:06:23.000Z</time>
      </trkpt>
      <trkpt lat="43.77649" lon="3.83257">
        <ele>453.2</ele>
        <time>2026-05-21T11:06:24.000Z</time>
      </trkpt>
      <trkpt lat="43.77649" lon="3.83257">
        <ele>453.2</ele>
        <time>2026-05-21T11:06:25.000Z</time>
      </trkpt>
      <trkpt lat="43.77649" lon="3.83258">
        <ele>453.3</ele>
        <time>2026-05-21T11:06:26.000Z</time>
      </trkpt>
      <trkpt lat="43.77649" lon="3.83257">
        <ele>453.3</ele>
        <time>2026-05-21T11:06:27.000Z</time>
      </trkpt>
      <trkpt lat="43.77649" lon="3.83257">
        <ele>453.4</ele>
        <time>2026-05-21T11:06:28.000Z</time>
      </trkpt>
      <trkpt lat="43.77649" lon="3.83257">
        <ele>453.5</ele>
        <time>2026-05-21T11:06:29.000Z</time>
      </trkpt>
      <trkpt lat="43.77649" lon="3.83258">
        <ele>453.4</ele>
        <time>2026-05-21T11:06:30.000Z</time>
      </trkpt>
      <trkpt lat="43.77649" lon="3.83257">
        <ele>453.4</ele>
        <time>2026-05-21T11:06:31.000Z</time>
      </trkpt>
      <trkpt lat="43.77649" lon="3.83257">
        <ele>453.5</ele>
        <time>2026-05-21T11:06:32.000Z</time>
      </trkpt>
      <trkpt lat="43.77649" lon="3.83257">
        <ele>453.4</ele>
        <time>2026-05-21T11:06:33.000Z</time>
      </trkpt>
      <trkpt lat="43.77649" lon="3.83257">
        <ele>453.3</ele>
        <time>2026-05-21T11:06:34.000Z</time>
      </trkpt>
      <trkpt lat="43.77649" lon="3.83257">
        <ele>453.4</ele>
        <time>2026-05-21T11:06:35.000Z</time>
      </trkpt>
      <trkpt lat="43.77649" lon="3.83257">
        <ele>453.5</ele>
        <time>2026-05-21T11:06:36.000Z</time>
      </trkpt>
      <trkpt lat="43.77649" lon="3.83257">
        <ele>453.5</ele>
        <time>2026-05-21T11:06:37.000Z</time>
      </trkpt>
      <trkpt lat="43.77649" lon="3.83257">
        <ele>453.6</ele>
        <time>2026-05-21T11:06:38.000Z</time>
      </trkpt>
      <trkpt lat="43.77649" lon="3.83257">
        <ele>453.5</ele>
        <time>2026-05-21T11:06:39.000Z</time>
      </trkpt>
      <trkpt lat="43.77649" lon="3.83257">
        <ele>453.3</ele>
        <time>2026-05-21T11:06:40.000Z</time>
      </trkpt>
      <trkpt lat="43.77649" lon="3.83257">
        <ele>453.4</ele>
        <time>2026-05-21T11:06:41.000Z</time>
      </trkpt>
      <trkpt lat="43.77649" lon="3.83257">
        <ele>453.3</ele>
        <time>2026-05-21T11:06:42.000Z</time>
      </trkpt>
      <trkpt lat="43.77649" lon="3.83257">
        <ele>453.3</ele>
        <time>2026-05-21T11:06:43.000Z</time>
      </trkpt>
      <trkpt lat="43.77649" lon="3.83257">
        <ele>453.3</ele>
        <time>2026-05-21T11:06:44.000Z</time>
      </trkpt>
      <trkpt lat="43.77649" lon="3.83257">
        <ele>453.3</ele>
        <time>2026-05-21T11:06:45.000Z</time>
      </trkpt>
      <trkpt lat="43.77649" lon="3.83257">
        <ele>453.3</ele>
        <time>2026-05-21T11:06:46.000Z</time>
      </trkpt>
      <trkpt lat="43.77649" lon="3.83257">
        <ele>453.3</ele>
        <time>2026-05-21T11:06:47.000Z</time>
      </trkpt>
      <trkpt lat="43.77649" lon="3.83257">
        <ele>453.2</ele>
        <time>2026-05-21T11:06:48.000Z</time>
      </trkpt>
      <trkpt lat="43.77649" lon="3.83257">
        <ele>453.2</ele>
        <time>2026-05-21T11:06:49.000Z</time>
      </trkpt>
      <trkpt lat="43.77649" lon="3.83257">
        <ele>453.3</ele>
        <time>2026-05-21T11:06:50.000Z</time>
      </trkpt>
      <trkpt lat="43.77649" lon="3.83257">
        <ele>453.5</ele>
        <time>2026-05-21T11:06:51.000Z</time>
      </trkpt>
      <trkpt lat="43.77649" lon="3.83257">
        <ele>453.7</ele>
        <time>2026-05-21T11:06:52.000Z</time>
      </trkpt>
      <trkpt lat="43.77649" lon="3.83257">
        <ele>453.9</ele>
        <time>2026-05-21T11:06:53.000Z</time>
      </trkpt>
      <trkpt lat="43.77649" lon="3.83257">
        <ele>454.1</ele>
        <time>2026-05-21T11:06:54.000Z</time>
      </trkpt>
      <trkpt lat="43.77649" lon="3.83257">
        <ele>454.2</ele>
        <time>2026-05-21T11:06:55.000Z</time>
      </trkpt>
      <trkpt lat="43.77649" lon="3.83257">
        <ele>454.2</ele>
        <time>2026-05-21T11:06:56.000Z</time>
      </trkpt>
      <trkpt lat="43.77649" lon="3.83257">
        <ele>454.3</ele>
        <time>2026-05-21T11:06:57.000Z</time>
      </trkpt>
      <trkpt lat="43.77649" lon="3.83257">
        <ele>454.3</ele>
        <time>2026-05-21T11:06:58.000Z</time>
      </trkpt>
      <trkpt lat="43.77649" lon="3.83257">
        <ele>454.3</ele>
        <time>2026-05-21T11:06:59.000Z</time>
      </trkpt>
      <trkpt lat="43.77649" lon="3.83257">
        <ele>454.3</ele>
        <time>2026-05-21T11:07:00.000Z</time>
      </trkpt>
      <trkpt lat="43.77649" lon="3.83257">
        <ele>454.1</ele>
        <time>2026-05-21T11:07:01.000Z</time>
      </trkpt>
      <trkpt lat="43.7765" lon="3.83257">
        <ele>454.2</ele>
        <time>2026-05-21T11:07:02.000Z</time>
      </trkpt>
      <trkpt lat="43.7765" lon="3.83257">
        <ele>454.2</ele>
        <time>2026-05-21T11:07:03.000Z</time>
      </trkpt>
      <trkpt lat="43.7765" lon="3.83257">
        <ele>454.1</ele>
        <time>2026-05-21T11:07:04.000Z</time>
      </trkpt>
      <trkpt lat="43.7765" lon="3.83257">
        <ele>454</ele>
        <time>2026-05-21T11:07:05.000Z</time>
      </trkpt>
      <trkpt lat="43.7765" lon="3.83257">
        <ele>453.7</ele>
        <time>2026-05-21T11:07:06.000Z</time>
      </trkpt>
      <trkpt lat="43.7765" lon="3.83257">
        <ele>453.4</ele>
        <time>2026-05-21T11:07:07.000Z</time>
      </trkpt>
      <trkpt lat="43.7765" lon="3.83257">
        <ele>453.2</ele>
        <time>2026-05-21T11:07:08.000Z</time>
      </trkpt>
      <trkpt lat="43.7765" lon="3.83257">
        <ele>453</ele>
        <time>2026-05-21T11:07:09.000Z</time>
      </trkpt>
      <trkpt lat="43.7765" lon="3.83257">
        <ele>452.9</ele>
        <time>2026-05-21T11:07:10.000Z</time>
      </trkpt>
      <trkpt lat="43.7765" lon="3.83257">
        <ele>452.8</ele>
        <time>2026-05-21T11:07:11.000Z</time>
      </trkpt>
      <trkpt lat="43.7765" lon="3.83257">
        <ele>452.7</ele>
        <time>2026-05-21T11:07:12.000Z</time>
      </trkpt>
      <trkpt lat="43.7765" lon="3.83257">
        <ele>452.8</ele>
        <time>2026-05-21T11:07:13.000Z</time>
      </trkpt>
      <trkpt lat="43.7765" lon="3.83257">
        <ele>452.8</ele>
        <time>2026-05-21T11:07:14.000Z</time>
      </trkpt>
      <trkpt lat="43.7765" lon="3.83258">
        <ele>452.8</ele>
        <time>2026-05-21T11:07:15.000Z</time>
      </trkpt>
      <trkpt lat="43.7765" lon="3.83258">
        <ele>452.7</ele>
        <time>2026-05-21T11:07:16.000Z</time>
      </trkpt>
      <trkpt lat="43.7765" lon="3.83258">
        <ele>452.8</ele>
        <time>2026-05-21T11:07:17.000Z</time>
      </trkpt>
      <trkpt lat="43.7765" lon="3.83258">
        <ele>452.9</ele>
        <time>2026-05-21T11:07:18.000Z</time>
      </trkpt>
      <trkpt lat="43.7765" lon="3.83258">
        <ele>453</ele>
        <time>2026-05-21T11:07:19.000Z</time>
      </trkpt>
      <trkpt lat="43.7765" lon="3.83258">
        <ele>453.2</ele>
        <time>2026-05-21T11:07:20.000Z</time>
      </trkpt>
      <trkpt lat="43.7765" lon="3.83258">
        <ele>453.4</ele>
        <time>2026-05-21T11:07:21.000Z</time>
      </trkpt>
      <trkpt lat="43.7765" lon="3.83258">
        <ele>453.7</ele>
        <time>2026-05-21T11:07:22.000Z</time>
      </trkpt>
      <trkpt lat="43.7765" lon="3.83258">
        <ele>453.7</ele>
        <time>2026-05-21T11:07:23.000Z</time>
      </trkpt>
      <trkpt lat="43.7765" lon="3.83258">
        <ele>453.8</ele>
        <time>2026-05-21T11:07:24.000Z</time>
      </trkpt>
      <trkpt lat="43.7765" lon="3.83258">
        <ele>453.8</ele>
        <time>2026-05-21T11:07:25.000Z</time>
      </trkpt>
      <trkpt lat="43.7765" lon="3.83258">
        <ele>453.7</ele>
        <time>2026-05-21T11:07:26.000Z</time>
      </trkpt>
      <trkpt lat="43.7765" lon="3.83258">
        <ele>453.7</ele>
        <time>2026-05-21T11:07:27.000Z</time>
      </trkpt>
      <trkpt lat="43.7765" lon="3.83258">
        <ele>453.8</ele>
        <time>2026-05-21T11:07:28.000Z</time>
      </trkpt>
      <trkpt lat="43.7765" lon="3.83258">
        <ele>453.9</ele>
        <time>2026-05-21T11:07:29.000Z</time>
      </trkpt>
      <trkpt lat="43.7765" lon="3.83258">
        <ele>453.9</ele>
        <time>2026-05-21T11:07:30.000Z</time>
      </trkpt>
      <trkpt lat="43.7765" lon="3.83258">
        <ele>453.9</ele>
        <time>2026-05-21T11:07:31.000Z</time>
      </trkpt>
      <trkpt lat="43.7765" lon="3.83258">
        <ele>453.8</ele>
        <time>2026-05-21T11:07:32.000Z</time>
      </trkpt>
      <trkpt lat="43.7765" lon="3.83259">
        <ele>453.9</ele>
        <time>2026-05-21T11:07:33.000Z</time>
      </trkpt>
      <trkpt lat="43.7765" lon="3.83259">
        <ele>453.9</ele>
        <time>2026-05-21T11:07:34.000Z</time>
      </trkpt>
      <trkpt lat="43.7765" lon="3.83259">
        <ele>453.9</ele>
        <time>2026-05-21T11:07:35.000Z</time>
      </trkpt>
      <trkpt lat="43.7765" lon="3.83259">
        <ele>453.8</ele>
        <time>2026-05-21T11:07:36.000Z</time>
      </trkpt>
      <trkpt lat="43.7765" lon="3.83259">
        <ele>453.7</ele>
        <time>2026-05-21T11:07:37.000Z</time>
      </trkpt>
      <trkpt lat="43.7765" lon="3.83259">
        <ele>453.7</ele>
        <time>2026-05-21T11:07:38.000Z</time>
      </trkpt>
      <trkpt lat="43.7765" lon="3.83258">
        <ele>453.8</ele>
        <time>2026-05-21T11:07:39.000Z</time>
      </trkpt>
      <trkpt lat="43.7765" lon="3.83258">
        <ele>454.1</ele>
        <time>2026-05-21T11:07:40.000Z</time>
      </trkpt>
      <trkpt lat="43.7765" lon="3.83258">
        <ele>454.2</ele>
        <time>2026-05-21T11:07:41.000Z</time>
      </trkpt>
      <trkpt lat="43.7765" lon="3.83258">
        <ele>454.2</ele>
        <time>2026-05-21T11:07:42.000Z</time>
      </trkpt>
      <trkpt lat="43.7765" lon="3.83258">
        <ele>454.3</ele>
        <time>2026-05-21T11:07:43.000Z</time>
      </trkpt>
      <trkpt lat="43.7765" lon="3.83258">
        <ele>454.5</ele>
        <time>2026-05-21T11:07:44.000Z</time>
      </trkpt>
      <trkpt lat="43.7765" lon="3.83258">
        <ele>454.5</ele>
        <time>2026-05-21T11:07:45.000Z</time>
      </trkpt>
      <trkpt lat="43.7765" lon="3.83258">
        <ele>454.4</ele>
        <time>2026-05-21T11:07:46.000Z</time>
      </trkpt>
      <trkpt lat="43.7765" lon="3.83258">
        <ele>454.5</ele>
        <time>2026-05-21T11:07:47.000Z</time>
      </trkpt>
      <trkpt lat="43.7765" lon="3.83258">
        <ele>454.7</ele>
        <time>2026-05-21T11:07:48.000Z</time>
      </trkpt>
      <trkpt lat="43.7765" lon="3.83258">
        <ele>454.7</ele>
        <time>2026-05-21T11:07:49.000Z</time>
      </trkpt>
      <trkpt lat="43.7765" lon="3.83258">
        <ele>454.7</ele>
        <time>2026-05-21T11:07:50.000Z</time>
      </trkpt>
      <trkpt lat="43.7765" lon="3.83258">
        <ele>454.6</ele>
        <time>2026-05-21T11:07:51.000Z</time>
      </trkpt>
      <trkpt lat="43.7765" lon="3.83258">
        <ele>454.6</ele>
        <time>2026-05-21T11:07:52.000Z</time>
      </trkpt>
      <trkpt lat="43.7765" lon="3.83258">
        <ele>454.5</ele>
        <time>2026-05-21T11:07:53.000Z</time>
      </trkpt>
      <trkpt lat="43.7765" lon="3.83258">
        <ele>454.5</ele>
        <time>2026-05-21T11:07:54.000Z</time>
      </trkpt>
      <trkpt lat="43.7765" lon="3.83258">
        <ele>454.5</ele>
        <time>2026-05-21T11:07:55.000Z</time>
      </trkpt>
      <trkpt lat="43.7765" lon="3.83258">
        <ele>454.6</ele>
        <time>2026-05-21T11:07:56.000Z</time>
      </trkpt>
      <trkpt lat="43.7765" lon="3.83258">
        <ele>454.6</ele>
        <time>2026-05-21T11:07:57.000Z</time>
      </trkpt>
      <trkpt lat="43.7765" lon="3.83258">
        <ele>454.8</ele>
        <time>2026-05-21T11:07:58.000Z</time>
      </trkpt>
      <trkpt lat="43.7765" lon="3.83258">
        <ele>454.8</ele>
        <time>2026-05-21T11:07:59.000Z</time>
      </trkpt>
      <trkpt lat="43.7765" lon="3.83258">
        <ele>454.7</ele>
        <time>2026-05-21T11:08:00.000Z</time>
      </trkpt>
      <trkpt lat="43.7765" lon="3.83258">
        <ele>454.5</ele>
        <time>2026-05-21T11:08:01.000Z</time>
      </trkpt>
      <trkpt lat="43.7765" lon="3.83258">
        <ele>454.4</ele>
        <time>2026-05-21T11:08:02.000Z</time>
      </trkpt>
      <trkpt lat="43.7765" lon="3.83258">
        <ele>454.3</ele>
        <time>2026-05-21T11:08:03.000Z</time>
      </trkpt>
      <trkpt lat="43.7765" lon="3.83258">
        <ele>454.2</ele>
        <time>2026-05-21T11:08:04.000Z</time>
      </trkpt>
      <trkpt lat="43.7765" lon="3.83258">
        <ele>454.1</ele>
        <time>2026-05-21T11:08:05.000Z</time>
      </trkpt>
      <trkpt lat="43.7765" lon="3.83258">
        <ele>453.8</ele>
        <time>2026-05-21T11:08:06.000Z</time>
      </trkpt>
      <trkpt lat="43.7765" lon="3.83258">
        <ele>453.7</ele>
        <time>2026-05-21T11:08:07.000Z</time>
      </trkpt>
      <trkpt lat="43.7765" lon="3.83258">
        <ele>453.6</ele>
        <time>2026-05-21T11:08:08.000Z</time>
      </trkpt>
      <trkpt lat="43.7765" lon="3.83258">
        <ele>453.6</ele>
        <time>2026-05-21T11:08:09.000Z</time>
      </trkpt>
      <trkpt lat="43.7765" lon="3.83258">
        <ele>453.6</ele>
        <time>2026-05-21T11:08:10.000Z</time>
      </trkpt>
      <trkpt lat="43.7765" lon="3.83258">
        <ele>453.5</ele>
        <time>2026-05-21T11:08:11.000Z</time>
      </trkpt>
      <trkpt lat="43.7765" lon="3.83258">
        <ele>453.4</ele>
        <time>2026-05-21T11:08:12.000Z</time>
      </trkpt>
      <trkpt lat="43.7765" lon="3.83258">
        <ele>453.3</ele>
        <time>2026-05-21T11:08:13.000Z</time>
      </trkpt>
      <trkpt lat="43.7765" lon="3.83258">
        <ele>453.2</ele>
        <time>2026-05-21T11:08:14.000Z</time>
      </trkpt>
      <trkpt lat="43.7765" lon="3.83258">
        <ele>453.2</ele>
        <time>2026-05-21T11:08:15.000Z</time>
      </trkpt>
      <trkpt lat="43.7765" lon="3.83258">
        <ele>453.3</ele>
        <time>2026-05-21T11:08:16.000Z</time>
      </trkpt>
      <trkpt lat="43.7765" lon="3.83258">
        <ele>453.3</ele>
        <time>2026-05-21T11:08:17.000Z</time>
      </trkpt>
      <trkpt lat="43.7765" lon="3.83258">
        <ele>453.1</ele>
        <time>2026-05-21T11:08:18.000Z</time>
      </trkpt>
      <trkpt lat="43.7765" lon="3.83258">
        <ele>453</ele>
        <time>2026-05-21T11:08:19.000Z</time>
      </trkpt>
      <trkpt lat="43.7765" lon="3.83258">
        <ele>452.9</ele>
        <time>2026-05-21T11:08:20.000Z</time>
      </trkpt>
      <trkpt lat="43.7765" lon="3.83258">
        <ele>452.9</ele>
        <time>2026-05-21T11:08:21.000Z</time>
      </trkpt>
      <trkpt lat="43.7765" lon="3.83258">
        <ele>452.8</ele>
        <time>2026-05-21T11:08:22.000Z</time>
      </trkpt>
      <trkpt lat="43.7765" lon="3.83258">
        <ele>452.9</ele>
        <time>2026-05-21T11:08:23.000Z</time>
      </trkpt>
      <trkpt lat="43.7765" lon="3.83258">
        <ele>452.8</ele>
        <time>2026-05-21T11:08:24.000Z</time>
      </trkpt>
      <trkpt lat="43.7765" lon="3.83258">
        <ele>452.9</ele>
        <time>2026-05-21T11:08:25.000Z</time>
      </trkpt>
      <trkpt lat="43.7765" lon="3.83258">
        <ele>452.9</ele>
        <time>2026-05-21T11:08:26.000Z</time>
      </trkpt>
      <trkpt lat="43.7765" lon="3.83258">
        <ele>452.8</ele>
        <time>2026-05-21T11:08:27.000Z</time>
      </trkpt>
      <trkpt lat="43.7765" lon="3.83258">
        <ele>452.7</ele>
        <time>2026-05-21T11:08:28.000Z</time>
      </trkpt>
      <trkpt lat="43.7765" lon="3.83258">
        <ele>452.5</ele>
        <time>2026-05-21T11:08:29.000Z</time>
      </trkpt>
      <trkpt lat="43.7765" lon="3.83258">
        <ele>452.4</ele>
        <time>2026-05-21T11:08:30.000Z</time>
      </trkpt>
      <trkpt lat="43.7765" lon="3.83258">
        <ele>452.4</ele>
        <time>2026-05-21T11:08:31.000Z</time>
      </trkpt>
      <trkpt lat="43.7765" lon="3.83258">
        <ele>452.4</ele>
        <time>2026-05-21T11:08:32.000Z</time>
      </trkpt>
      <trkpt lat="43.7765" lon="3.83258">
        <ele>452.4</ele>
        <time>2026-05-21T11:08:33.000Z</time>
      </trkpt>
      <trkpt lat="43.7765" lon="3.83258">
        <ele>452.4</ele>
        <time>2026-05-21T11:08:34.000Z</time>
      </trkpt>
      <trkpt lat="43.7765" lon="3.83257">
        <ele>452.7</ele>
        <time>2026-05-21T11:08:35.000Z</time>
      </trkpt>
      <trkpt lat="43.7765" lon="3.83257">
        <ele>452.9</ele>
        <time>2026-05-21T11:08:36.000Z</time>
      </trkpt>
      <trkpt lat="43.7765" lon="3.83257">
        <ele>453.1</ele>
        <time>2026-05-21T11:08:37.000Z</time>
      </trkpt>
      <trkpt lat="43.7765" lon="3.83257">
        <ele>453.3</ele>
        <time>2026-05-21T11:08:38.000Z</time>
      </trkpt>
      <trkpt lat="43.7765" lon="3.83257">
        <ele>453.5</ele>
        <time>2026-05-21T11:08:39.000Z</time>
      </trkpt>
      <trkpt lat="43.7765" lon="3.83257">
        <ele>453.6</ele>
        <time>2026-05-21T11:08:40.000Z</time>
      </trkpt>
      <trkpt lat="43.7765" lon="3.83257">
        <ele>453.6</ele>
        <time>2026-05-21T11:08:41.000Z</time>
      </trkpt>
      <trkpt lat="43.7765" lon="3.83257">
        <ele>453.5</ele>
        <time>2026-05-21T11:08:42.000Z</time>
      </trkpt>
      <trkpt lat="43.7765" lon="3.83257">
        <ele>453.6</ele>
        <time>2026-05-21T11:08:43.000Z</time>
      </trkpt>
      <trkpt lat="43.7765" lon="3.83257">
        <ele>453.5</ele>
        <time>2026-05-21T11:08:44.000Z</time>
      </trkpt>
      <trkpt lat="43.7765" lon="3.83257">
        <ele>453.4</ele>
        <time>2026-05-21T11:08:45.000Z</time>
      </trkpt>
      <trkpt lat="43.7765" lon="3.83257">
        <ele>453.5</ele>
        <time>2026-05-21T11:08:46.000Z</time>
      </trkpt>
      <trkpt lat="43.7765" lon="3.83257">
        <ele>453.5</ele>
        <time>2026-05-21T11:08:47.000Z</time>
      </trkpt>
      <trkpt lat="43.7765" lon="3.83257">
        <ele>453.5</ele>
        <time>2026-05-21T11:08:48.000Z</time>
      </trkpt>
      <trkpt lat="43.7765" lon="3.83257">
        <ele>453.6</ele>
        <time>2026-05-21T11:08:49.000Z</time>
      </trkpt>
      <trkpt lat="43.7765" lon="3.83257">
        <ele>453.5</ele>
        <time>2026-05-21T11:08:50.000Z</time>
      </trkpt>
      <trkpt lat="43.7765" lon="3.83257">
        <ele>453.4</ele>
        <time>2026-05-21T11:08:51.000Z</time>
      </trkpt>
      <trkpt lat="43.7765" lon="3.83257">
        <ele>453.3</ele>
        <time>2026-05-21T11:08:52.000Z</time>
      </trkpt>
      <trkpt lat="43.7765" lon="3.83257">
        <ele>453.2</ele>
        <time>2026-05-21T11:08:53.000Z</time>
      </trkpt>
      <trkpt lat="43.7765" lon="3.83257">
        <ele>453.2</ele>
        <time>2026-05-21T11:08:54.000Z</time>
      </trkpt>
      <trkpt lat="43.7765" lon="3.83257">
        <ele>453.4</ele>
        <time>2026-05-21T11:08:55.000Z</time>
      </trkpt>
      <trkpt lat="43.7765" lon="3.83257">
        <ele>453.6</ele>
        <time>2026-05-21T11:08:56.000Z</time>
      </trkpt>
      <trkpt lat="43.7765" lon="3.83257">
        <ele>453.5</ele>
        <time>2026-05-21T11:08:57.000Z</time>
      </trkpt>
      <trkpt lat="43.77649" lon="3.83257">
        <ele>453.5</ele>
        <time>2026-05-21T11:08:58.000Z</time>
      </trkpt>
      <trkpt lat="43.77649" lon="3.83257">
        <ele>453.6</ele>
        <time>2026-05-21T11:08:59.000Z</time>
      </trkpt>
      <trkpt lat="43.77649" lon="3.83257">
        <ele>453.7</ele>
        <time>2026-05-21T11:09:00.000Z</time>
      </trkpt>
      <trkpt lat="43.77649" lon="3.83257">
        <ele>453.7</ele>
        <time>2026-05-21T11:09:01.000Z</time>
      </trkpt>
      <trkpt lat="43.77649" lon="3.83257">
        <ele>453.5</ele>
        <time>2026-05-21T11:09:02.000Z</time>
      </trkpt>
      <trkpt lat="43.77649" lon="3.83257">
        <ele>453.2</ele>
        <time>2026-05-21T11:09:03.000Z</time>
      </trkpt>
      <trkpt lat="43.77649" lon="3.83257">
        <ele>453.2</ele>
        <time>2026-05-21T11:09:04.000Z</time>
      </trkpt>
      <trkpt lat="43.77649" lon="3.83257">
        <ele>453.2</ele>
        <time>2026-05-21T11:09:05.000Z</time>
      </trkpt>
      <trkpt lat="43.77649" lon="3.83257">
        <ele>453.1</ele>
        <time>2026-05-21T11:09:06.000Z</time>
      </trkpt>
      <trkpt lat="43.77649" lon="3.83257">
        <ele>453</ele>
        <time>2026-05-21T11:09:07.000Z</time>
      </trkpt>
      <trkpt lat="43.77649" lon="3.83257">
        <ele>452.7</ele>
        <time>2026-05-21T11:09:08.000Z</time>
      </trkpt>
      <trkpt lat="43.77649" lon="3.83257">
        <ele>452.5</ele>
        <time>2026-05-21T11:09:09.000Z</time>
      </trkpt>
      <trkpt lat="43.77649" lon="3.83257">
        <ele>452.5</ele>
        <time>2026-05-21T11:09:10.000Z</time>
      </trkpt>
      <trkpt lat="43.77649" lon="3.83257">
        <ele>452.6</ele>
        <time>2026-05-21T11:09:11.000Z</time>
      </trkpt>
      <trkpt lat="43.77649" lon="3.83257">
        <ele>452.7</ele>
        <time>2026-05-21T11:09:12.000Z</time>
      </trkpt>
      <trkpt lat="43.77649" lon="3.83257">
        <ele>452.5</ele>
        <time>2026-05-21T11:09:13.000Z</time>
      </trkpt>
      <trkpt lat="43.77649" lon="3.83257">
        <ele>452.6</ele>
        <time>2026-05-21T11:09:14.000Z</time>
      </trkpt>
      <trkpt lat="43.77649" lon="3.83257">
        <ele>452.8</ele>
        <time>2026-05-21T11:09:15.000Z</time>
      </trkpt>
      <trkpt lat="43.77649" lon="3.83258">
        <ele>452.8</ele>
        <time>2026-05-21T11:09:16.000Z</time>
      </trkpt>
      <trkpt lat="43.77649" lon="3.83258">
        <ele>452.9</ele>
        <time>2026-05-21T11:09:17.000Z</time>
      </trkpt>
      <trkpt lat="43.77649" lon="3.83257">
        <ele>452.8</ele>
        <time>2026-05-21T11:09:18.000Z</time>
      </trkpt>
      <trkpt lat="43.77649" lon="3.83257">
        <ele>452.7</ele>
        <time>2026-05-21T11:09:19.000Z</time>
      </trkpt>
      <trkpt lat="43.77649" lon="3.83257">
        <ele>452.8</ele>
        <time>2026-05-21T11:09:20.000Z</time>
      </trkpt>
      <trkpt lat="43.77649" lon="3.83257">
        <ele>452.9</ele>
        <time>2026-05-21T11:09:21.000Z</time>
      </trkpt>
      <trkpt lat="43.77649" lon="3.83257">
        <ele>453.1</ele>
        <time>2026-05-21T11:09:22.000Z</time>
      </trkpt>
      <trkpt lat="43.77649" lon="3.83257">
        <ele>453</ele>
        <time>2026-05-21T11:09:23.000Z</time>
      </trkpt>
      <trkpt lat="43.77649" lon="3.83257">
        <ele>452.9</ele>
        <time>2026-05-21T11:09:24.000Z</time>
      </trkpt>
      <trkpt lat="43.77649" lon="3.83257">
        <ele>452.9</ele>
        <time>2026-05-21T11:09:25.000Z</time>
      </trkpt>
      <trkpt lat="43.77649" lon="3.83257">
        <ele>453</ele>
        <time>2026-05-21T11:09:26.000Z</time>
      </trkpt>
      <trkpt lat="43.77649" lon="3.83257">
        <ele>453.2</ele>
        <time>2026-05-21T11:09:27.000Z</time>
      </trkpt>
      <trkpt lat="43.77649" lon="3.83257">
        <ele>453.3</ele>
        <time>2026-05-21T11:09:28.000Z</time>
      </trkpt>
      <trkpt lat="43.77649" lon="3.83257">
        <ele>453.5</ele>
        <time>2026-05-21T11:09:29.000Z</time>
      </trkpt>
      <trkpt lat="43.77649" lon="3.83257">
        <ele>453.5</ele>
        <time>2026-05-21T11:09:30.000Z</time>
      </trkpt>
      <trkpt lat="43.77649" lon="3.83257">
        <ele>453.3</ele>
        <time>2026-05-21T11:09:31.000Z</time>
      </trkpt>
      <trkpt lat="43.77649" lon="3.83256">
        <ele>453.1</ele>
        <time>2026-05-21T11:09:32.000Z</time>
      </trkpt>
      <trkpt lat="43.77649" lon="3.83256">
        <ele>453.1</ele>
        <time>2026-05-21T11:09:33.000Z</time>
      </trkpt>
      <trkpt lat="43.77649" lon="3.83256">
        <ele>453.1</ele>
        <time>2026-05-21T11:09:34.000Z</time>
      </trkpt>
      <trkpt lat="43.77649" lon="3.83256">
        <ele>453</ele>
        <time>2026-05-21T11:09:35.000Z</time>
      </trkpt>
      <trkpt lat="43.77649" lon="3.83256">
        <ele>452.9</ele>
        <time>2026-05-21T11:09:36.000Z</time>
      </trkpt>
      <trkpt lat="43.77649" lon="3.83256">
        <ele>453.1</ele>
        <time>2026-05-21T11:09:37.000Z</time>
      </trkpt>
      <trkpt lat="43.77649" lon="3.83256">
        <ele>453.3</ele>
        <time>2026-05-21T11:09:38.000Z</time>
      </trkpt>
      <trkpt lat="43.77649" lon="3.83256">
        <ele>453.3</ele>
        <time>2026-05-21T11:09:39.000Z</time>
      </trkpt>
      <trkpt lat="43.77649" lon="3.83256">
        <ele>453.5</ele>
        <time>2026-05-21T11:09:40.000Z</time>
      </trkpt>
      <trkpt lat="43.77649" lon="3.83256">
        <ele>453.6</ele>
        <time>2026-05-21T11:09:41.000Z</time>
      </trkpt>
      <trkpt lat="43.77649" lon="3.83256">
        <ele>453.9</ele>
        <time>2026-05-21T11:09:42.000Z</time>
      </trkpt>
      <trkpt lat="43.77649" lon="3.83256">
        <ele>453.9</ele>
        <time>2026-05-21T11:09:43.000Z</time>
      </trkpt>
      <trkpt lat="43.77649" lon="3.83256">
        <ele>454</ele>
        <time>2026-05-21T11:09:44.000Z</time>
      </trkpt>
      <trkpt lat="43.77649" lon="3.83256">
        <ele>454.1</ele>
        <time>2026-05-21T11:09:45.000Z</time>
      </trkpt>
      <trkpt lat="43.77649" lon="3.83256">
        <ele>454.2</ele>
        <time>2026-05-21T11:09:46.000Z</time>
      </trkpt>
      <trkpt lat="43.77649" lon="3.83256">
        <ele>454.1</ele>
        <time>2026-05-21T11:09:47.000Z</time>
      </trkpt>
      <trkpt lat="43.77649" lon="3.83256">
        <ele>454.2</ele>
        <time>2026-05-21T11:09:48.000Z</time>
      </trkpt>
      <trkpt lat="43.77649" lon="3.83256">
        <ele>454.5</ele>
        <time>2026-05-21T11:09:49.000Z</time>
      </trkpt>
      <trkpt lat="43.77649" lon="3.83256">
        <ele>454.6</ele>
        <time>2026-05-21T11:09:50.000Z</time>
      </trkpt>
      <trkpt lat="43.77649" lon="3.83256">
        <ele>454.6</ele>
        <time>2026-05-21T11:09:51.000Z</time>
      </trkpt>
      <trkpt lat="43.77649" lon="3.83256">
        <ele>454.8</ele>
        <time>2026-05-21T11:09:52.000Z</time>
      </trkpt>
      <trkpt lat="43.77649" lon="3.83256">
        <ele>454.9</ele>
        <time>2026-05-21T11:09:53.000Z</time>
      </trkpt>
      <trkpt lat="43.77649" lon="3.83256">
        <ele>454.6</ele>
        <time>2026-05-21T11:09:54.000Z</time>
      </trkpt>
      <trkpt lat="43.77649" lon="3.83256">
        <ele>454.5</ele>
        <time>2026-05-21T11:09:55.000Z</time>
      </trkpt>
      <trkpt lat="43.77649" lon="3.83256">
        <ele>454.4</ele>
        <time>2026-05-21T11:09:56.000Z</time>
      </trkpt>
      <trkpt lat="43.77649" lon="3.83256">
        <ele>454.4</ele>
        <time>2026-05-21T11:09:57.000Z</time>
      </trkpt>
      <trkpt lat="43.77649" lon="3.83256">
        <ele>454.4</ele>
        <time>2026-05-21T11:09:58.000Z</time>
      </trkpt>
      <trkpt lat="43.77649" lon="3.83256">
        <ele>454.6</ele>
        <time>2026-05-21T11:09:59.000Z</time>
      </trkpt>
      <trkpt lat="43.77649" lon="3.83256">
        <ele>454.7</ele>
        <time>2026-05-21T11:10:00.000Z</time>
      </trkpt>
      <trkpt lat="43.77649" lon="3.83256">
        <ele>454.7</ele>
        <time>2026-05-21T11:10:01.000Z</time>
      </trkpt>
      <trkpt lat="43.77649" lon="3.83256">
        <ele>454.8</ele>
        <time>2026-05-21T11:10:02.000Z</time>
      </trkpt>
      <trkpt lat="43.77649" lon="3.83256">
        <ele>454.7</ele>
        <time>2026-05-21T11:10:03.000Z</time>
      </trkpt>
      <trkpt lat="43.77649" lon="3.83256">
        <ele>454.7</ele>
        <time>2026-05-21T11:10:04.000Z</time>
      </trkpt>
      <trkpt lat="43.77649" lon="3.83256">
        <ele>454.6</ele>
        <time>2026-05-21T11:10:05.000Z</time>
      </trkpt>
      <trkpt lat="43.77649" lon="3.83256">
        <ele>454.4</ele>
        <time>2026-05-21T11:10:06.000Z</time>
      </trkpt>
      <trkpt lat="43.77649" lon="3.83256">
        <ele>454.5</ele>
        <time>2026-05-21T11:10:07.000Z</time>
      </trkpt>
      <trkpt lat="43.77649" lon="3.83256">
        <ele>454.4</ele>
        <time>2026-05-21T11:10:08.000Z</time>
      </trkpt>
      <trkpt lat="43.77649" lon="3.83256">
        <ele>454.4</ele>
        <time>2026-05-21T11:10:09.000Z</time>
      </trkpt>
      <trkpt lat="43.77649" lon="3.83256">
        <ele>454.5</ele>
        <time>2026-05-21T11:10:10.000Z</time>
      </trkpt>
      <trkpt lat="43.77649" lon="3.83256">
        <ele>454.8</ele>
        <time>2026-05-21T11:10:11.000Z</time>
      </trkpt>
      <trkpt lat="43.7765" lon="3.83255">
        <ele>455</ele>
        <time>2026-05-21T11:10:12.000Z</time>
      </trkpt>
      <trkpt lat="43.7765" lon="3.83256">
        <ele>455.2</ele>
        <time>2026-05-21T11:10:13.000Z</time>
      </trkpt>
      <trkpt lat="43.7765" lon="3.83256">
        <ele>455.3</ele>
        <time>2026-05-21T11:10:14.000Z</time>
      </trkpt>
      <trkpt lat="43.7765" lon="3.83256">
        <ele>455.4</ele>
        <time>2026-05-21T11:10:15.000Z</time>
      </trkpt>
      <trkpt lat="43.7765" lon="3.83256">
        <ele>455.4</ele>
        <time>2026-05-21T11:10:16.000Z</time>
      </trkpt>
      <trkpt lat="43.7765" lon="3.83255">
        <ele>455.3</ele>
        <time>2026-05-21T11:10:17.000Z</time>
      </trkpt>
      <trkpt lat="43.77649" lon="3.83255">
        <ele>455.3</ele>
        <time>2026-05-21T11:10:18.000Z</time>
      </trkpt>
      <trkpt lat="43.77649" lon="3.83255">
        <ele>455.3</ele>
        <time>2026-05-21T11:10:19.000Z</time>
      </trkpt>
      <trkpt lat="43.77649" lon="3.83255">
        <ele>455.4</ele>
        <time>2026-05-21T11:10:20.000Z</time>
      </trkpt>
      <trkpt lat="43.77649" lon="3.83255">
        <ele>455.2</ele>
        <time>2026-05-21T11:10:21.000Z</time>
      </trkpt>
      <trkpt lat="43.77649" lon="3.83255">
        <ele>455.1</ele>
        <time>2026-05-21T11:10:22.000Z</time>
      </trkpt>
      <trkpt lat="43.77649" lon="3.83255">
        <ele>455.2</ele>
        <time>2026-05-21T11:10:23.000Z</time>
      </trkpt>
      <trkpt lat="43.7765" lon="3.83255">
        <ele>455.3</ele>
        <time>2026-05-21T11:10:24.000Z</time>
      </trkpt>
      <trkpt lat="43.7765" lon="3.83255">
        <ele>455.5</ele>
        <time>2026-05-21T11:10:25.000Z</time>
      </trkpt>
      <trkpt lat="43.7765" lon="3.83255">
        <ele>455.6</ele>
        <time>2026-05-21T11:10:26.000Z</time>
      </trkpt>
      <trkpt lat="43.7765" lon="3.83255">
        <ele>455.7</ele>
        <time>2026-05-21T11:10:27.000Z</time>
      </trkpt>
      <trkpt lat="43.7765" lon="3.83256">
        <ele>455.7</ele>
        <time>2026-05-21T11:10:28.000Z</time>
      </trkpt>
      <trkpt lat="43.7765" lon="3.83256">
        <ele>455.7</ele>
        <time>2026-05-21T11:10:29.000Z</time>
      </trkpt>
      <trkpt lat="43.7765" lon="3.83256">
        <ele>455.7</ele>
        <time>2026-05-21T11:10:30.000Z</time>
      </trkpt>
      <trkpt lat="43.7765" lon="3.83256">
        <ele>455.9</ele>
        <time>2026-05-21T11:10:31.000Z</time>
      </trkpt>
      <trkpt lat="43.7765" lon="3.83256">
        <ele>456</ele>
        <time>2026-05-21T11:10:32.000Z</time>
      </trkpt>
      <trkpt lat="43.7765" lon="3.83256">
        <ele>456.1</ele>
        <time>2026-05-21T11:10:33.000Z</time>
      </trkpt>
      <trkpt lat="43.7765" lon="3.83256">
        <ele>456.1</ele>
        <time>2026-05-21T11:10:34.000Z</time>
      </trkpt>
      <trkpt lat="43.7765" lon="3.83256">
        <ele>456.2</ele>
        <time>2026-05-21T11:10:35.000Z</time>
      </trkpt>
      <trkpt lat="43.7765" lon="3.83256">
        <ele>456.3</ele>
        <time>2026-05-21T11:10:36.000Z</time>
      </trkpt>
      <trkpt lat="43.7765" lon="3.83256">
        <ele>456.3</ele>
        <time>2026-05-21T11:10:37.000Z</time>
      </trkpt>
      <trkpt lat="43.7765" lon="3.83256">
        <ele>456.3</ele>
        <time>2026-05-21T11:10:38.000Z</time>
      </trkpt>
      <trkpt lat="43.7765" lon="3.83256">
        <ele>456.3</ele>
        <time>2026-05-21T11:10:39.000Z</time>
      </trkpt>
      <trkpt lat="43.7765" lon="3.83256">
        <ele>456.5</ele>
        <time>2026-05-21T11:10:40.000Z</time>
      </trkpt>
      <trkpt lat="43.7765" lon="3.83256">
        <ele>456.5</ele>
        <time>2026-05-21T11:10:41.000Z</time>
      </trkpt>
      <trkpt lat="43.7765" lon="3.83256">
        <ele>456.3</ele>
        <time>2026-05-21T11:10:42.000Z</time>
      </trkpt>
      <trkpt lat="43.7765" lon="3.83256">
        <ele>456.3</ele>
        <time>2026-05-21T11:10:43.000Z</time>
      </trkpt>
      <trkpt lat="43.7765" lon="3.83256">
        <ele>456.1</ele>
        <time>2026-05-21T11:10:44.000Z</time>
      </trkpt>
      <trkpt lat="43.7765" lon="3.83256">
        <ele>456.1</ele>
        <time>2026-05-21T11:10:45.000Z</time>
      </trkpt>
      <trkpt lat="43.7765" lon="3.83256">
        <ele>455.9</ele>
        <time>2026-05-21T11:10:46.000Z</time>
      </trkpt>
      <trkpt lat="43.7765" lon="3.83256">
        <ele>456</ele>
        <time>2026-05-21T11:10:47.000Z</time>
      </trkpt>
      <trkpt lat="43.7765" lon="3.83256">
        <ele>456</ele>
        <time>2026-05-21T11:10:48.000Z</time>
      </trkpt>
      <trkpt lat="43.7765" lon="3.83256">
        <ele>456</ele>
        <time>2026-05-21T11:10:49.000Z</time>
      </trkpt>
      <trkpt lat="43.7765" lon="3.83256">
        <ele>456</ele>
        <time>2026-05-21T11:10:50.000Z</time>
      </trkpt>
      <trkpt lat="43.7765" lon="3.83256">
        <ele>456.1</ele>
        <time>2026-05-21T11:10:51.000Z</time>
      </trkpt>
      <trkpt lat="43.7765" lon="3.83256">
        <ele>456.1</ele>
        <time>2026-05-21T11:10:52.000Z</time>
      </trkpt>
      <trkpt lat="43.7765" lon="3.83256">
        <ele>456</ele>
        <time>2026-05-21T11:10:53.000Z</time>
      </trkpt>
      <trkpt lat="43.7765" lon="3.83256">
        <ele>455.8</ele>
        <time>2026-05-21T11:10:54.000Z</time>
      </trkpt>
      <trkpt lat="43.7765" lon="3.83256">
        <ele>455.9</ele>
        <time>2026-05-21T11:10:55.000Z</time>
      </trkpt>
      <trkpt lat="43.7765" lon="3.83256">
        <ele>455.9</ele>
        <time>2026-05-21T11:10:56.000Z</time>
      </trkpt>
      <trkpt lat="43.7765" lon="3.83256">
        <ele>455.9</ele>
        <time>2026-05-21T11:10:57.000Z</time>
      </trkpt>
      <trkpt lat="43.7765" lon="3.83256">
        <ele>456</ele>
        <time>2026-05-21T11:10:58.000Z</time>
      </trkpt>
      <trkpt lat="43.7765" lon="3.83256">
        <ele>456</ele>
        <time>2026-05-21T11:10:59.000Z</time>
      </trkpt>
      <trkpt lat="43.7765" lon="3.83256">
        <ele>455.9</ele>
        <time>2026-05-21T11:11:00.000Z</time>
      </trkpt>
      <trkpt lat="43.7765" lon="3.83256">
        <ele>456</ele>
        <time>2026-05-21T11:11:01.000Z</time>
      </trkpt>
      <trkpt lat="43.7765" lon="3.83256">
        <ele>456.2</ele>
        <time>2026-05-21T11:11:02.000Z</time>
      </trkpt>
      <trkpt lat="43.7765" lon="3.83256">
        <ele>456.2</ele>
        <time>2026-05-21T11:11:03.000Z</time>
      </trkpt>
      <trkpt lat="43.7765" lon="3.83256">
        <ele>456.2</ele>
        <time>2026-05-21T11:11:04.000Z</time>
      </trkpt>
      <trkpt lat="43.7765" lon="3.83256">
        <ele>456.3</ele>
        <time>2026-05-21T11:11:05.000Z</time>
      </trkpt>
      <trkpt lat="43.77651" lon="3.83257">
        <ele>456.3</ele>
        <time>2026-05-21T11:11:06.000Z</time>
      </trkpt>
      <trkpt lat="43.77651" lon="3.83256">
        <ele>456.3</ele>
        <time>2026-05-21T11:11:07.999Z</time>
      </trkpt>
      <trkpt lat="43.77652" lon="3.83256">
        <ele>456.2</ele>
        <time>2026-05-21T11:11:08.999Z</time>
      </trkpt>
      <trkpt lat="43.77651" lon="3.83256">
        <ele>456</ele>
        <time>2026-05-21T11:11:09.999Z</time>
      </trkpt>
      <trkpt lat="43.77651" lon="3.83256">
        <ele>456</ele>
        <time>2026-05-21T11:11:10.999Z</time>
      </trkpt>
      <trkpt lat="43.77651" lon="3.83256">
        <ele>456.1</ele>
        <time>2026-05-21T11:11:11.999Z</time>
      </trkpt>
      <trkpt lat="43.77651" lon="3.83256">
        <ele>456</ele>
        <time>2026-05-21T11:11:12.999Z</time>
      </trkpt>
      <trkpt lat="43.77651" lon="3.83256">
        <ele>455.9</ele>
        <time>2026-05-21T11:11:13.999Z</time>
      </trkpt>
      <trkpt lat="43.77651" lon="3.83256">
        <ele>455.9</ele>
        <time>2026-05-21T11:11:14.999Z</time>
      </trkpt>
      <trkpt lat="43.77651" lon="3.83256">
        <ele>455.9</ele>
        <time>2026-05-21T11:11:15.999Z</time>
      </trkpt>
      <trkpt lat="43.77651" lon="3.83256">
        <ele>455.7</ele>
        <time>2026-05-21T11:11:16.999Z</time>
      </trkpt>
      <trkpt lat="43.77651" lon="3.83256">
        <ele>455.5</ele>
        <time>2026-05-21T11:11:17.999Z</time>
      </trkpt>
      <trkpt lat="43.77651" lon="3.83256">
        <ele>455.5</ele>
        <time>2026-05-21T11:11:18.999Z</time>
      </trkpt>
      <trkpt lat="43.77651" lon="3.83256">
        <ele>455.6</ele>
        <time>2026-05-21T11:11:19.999Z</time>
      </trkpt>
      <trkpt lat="43.77651" lon="3.83256">
        <ele>455.6</ele>
        <time>2026-05-21T11:11:20.999Z</time>
      </trkpt>
      <trkpt lat="43.77651" lon="3.83256">
        <ele>455.6</ele>
        <time>2026-05-21T11:11:21.999Z</time>
      </trkpt>
      <trkpt lat="43.77651" lon="3.83257">
        <ele>455.7</ele>
        <time>2026-05-21T11:11:22.999Z</time>
      </trkpt>
      <trkpt lat="43.77651" lon="3.83256">
        <ele>455.7</ele>
        <time>2026-05-21T11:11:23.999Z</time>
      </trkpt>
      <trkpt lat="43.77651" lon="3.83256">
        <ele>455.8</ele>
        <time>2026-05-21T11:11:24.999Z</time>
      </trkpt>
      <trkpt lat="43.77651" lon="3.83257">
        <ele>456</ele>
        <time>2026-05-21T11:11:25.999Z</time>
      </trkpt>
      <trkpt lat="43.77651" lon="3.83257">
        <ele>455.8</ele>
        <time>2026-05-21T11:11:26.999Z</time>
      </trkpt>
      <trkpt lat="43.77651" lon="3.83257">
        <ele>455.8</ele>
        <time>2026-05-21T11:11:27.999Z</time>
      </trkpt>
      <trkpt lat="43.7765" lon="3.83257">
        <ele>455.6</ele>
        <time>2026-05-21T11:11:28.999Z</time>
      </trkpt>
      <trkpt lat="43.7765" lon="3.83257">
        <ele>455.5</ele>
        <time>2026-05-21T11:11:29.999Z</time>
      </trkpt>
      <trkpt lat="43.7765" lon="3.83257">
        <ele>455.6</ele>
        <time>2026-05-21T11:11:30.999Z</time>
      </trkpt>
      <trkpt lat="43.7765" lon="3.83257">
        <ele>455.8</ele>
        <time>2026-05-21T11:11:31.999Z</time>
      </trkpt>
      <trkpt lat="43.7765" lon="3.83257">
        <ele>455.8</ele>
        <time>2026-05-21T11:11:32.999Z</time>
      </trkpt>
      <trkpt lat="43.7765" lon="3.83258">
        <ele>455.5</ele>
        <time>2026-05-21T11:11:33.999Z</time>
      </trkpt>
      <trkpt lat="43.77649" lon="3.83259">
        <ele>455.3</ele>
        <time>2026-05-21T11:11:34.999Z</time>
      </trkpt>
      <trkpt lat="43.77649" lon="3.83259">
        <ele>455.1</ele>
        <time>2026-05-21T11:11:35.999Z</time>
      </trkpt>
      <trkpt lat="43.77649" lon="3.83259">
        <ele>454.9</ele>
        <time>2026-05-21T11:11:36.999Z</time>
      </trkpt>
      <trkpt lat="43.77649" lon="3.83259">
        <ele>455.1</ele>
        <time>2026-05-21T11:11:37.999Z</time>
      </trkpt>
      <trkpt lat="43.77649" lon="3.83259">
        <ele>454.9</ele>
        <time>2026-05-21T11:11:38.999Z</time>
      </trkpt>
      <trkpt lat="43.77649" lon="3.83259">
        <ele>455</ele>
        <time>2026-05-21T11:11:39.999Z</time>
      </trkpt>
      <trkpt lat="43.77649" lon="3.83259">
        <ele>455.1</ele>
        <time>2026-05-21T11:11:40.999Z</time>
      </trkpt>
      <trkpt lat="43.77649" lon="3.83259">
        <ele>455</ele>
        <time>2026-05-21T11:11:41.999Z</time>
      </trkpt>
      <trkpt lat="43.77649" lon="3.83259">
        <ele>455.1</ele>
        <time>2026-05-21T11:11:42.999Z</time>
      </trkpt>
      <trkpt lat="43.77649" lon="3.83259">
        <ele>454.9</ele>
        <time>2026-05-21T11:11:43.999Z</time>
      </trkpt>
      <trkpt lat="43.77649" lon="3.83259">
        <ele>455</ele>
        <time>2026-05-21T11:11:44.999Z</time>
      </trkpt>
      <trkpt lat="43.77649" lon="3.83259">
        <ele>455.2</ele>
        <time>2026-05-21T11:11:45.999Z</time>
      </trkpt>
      <trkpt lat="43.77649" lon="3.83259">
        <ele>455.2</ele>
        <time>2026-05-21T11:11:46.999Z</time>
      </trkpt>
      <trkpt lat="43.77649" lon="3.83259">
        <ele>455.3</ele>
        <time>2026-05-21T11:11:47.999Z</time>
      </trkpt>
      <trkpt lat="43.77649" lon="3.83259">
        <ele>455.3</ele>
        <time>2026-05-21T11:11:48.999Z</time>
      </trkpt>
      <trkpt lat="43.77649" lon="3.83259">
        <ele>455.3</ele>
        <time>2026-05-21T11:11:49.999Z</time>
      </trkpt>
      <trkpt lat="43.77649" lon="3.83259">
        <ele>455.3</ele>
        <time>2026-05-21T11:11:50.999Z</time>
      </trkpt>
      <trkpt lat="43.77649" lon="3.83259">
        <ele>455.3</ele>
        <time>2026-05-21T11:11:51.999Z</time>
      </trkpt>
      <trkpt lat="43.77649" lon="3.83259">
        <ele>455.3</ele>
        <time>2026-05-21T11:11:52.999Z</time>
      </trkpt>
      <trkpt lat="43.77649" lon="3.83259">
        <ele>455.3</ele>
        <time>2026-05-21T11:11:53.999Z</time>
      </trkpt>
      <trkpt lat="43.77649" lon="3.83259">
        <ele>455.3</ele>
        <time>2026-05-21T11:11:54.999Z</time>
      </trkpt>
      <trkpt lat="43.77649" lon="3.83259">
        <ele>455.6</ele>
        <time>2026-05-21T11:11:55.999Z</time>
      </trkpt>
      <trkpt lat="43.77649" lon="3.83259">
        <ele>455.7</ele>
        <time>2026-05-21T11:11:56.999Z</time>
      </trkpt>
      <trkpt lat="43.77649" lon="3.83259">
        <ele>455.9</ele>
        <time>2026-05-21T11:11:57.999Z</time>
      </trkpt>
      <trkpt lat="43.77649" lon="3.83258">
        <ele>455.8</ele>
        <time>2026-05-21T11:11:58.999Z</time>
      </trkpt>
      <trkpt lat="43.77649" lon="3.83258">
        <ele>455.9</ele>
        <time>2026-05-21T11:11:59.999Z</time>
      </trkpt>
      <trkpt lat="43.77649" lon="3.83258">
        <ele>455.9</ele>
        <time>2026-05-21T11:12:00.999Z</time>
      </trkpt>
      <trkpt lat="43.77649" lon="3.83258">
        <ele>455.9</ele>
        <time>2026-05-21T11:12:01.999Z</time>
      </trkpt>
      <trkpt lat="43.77649" lon="3.83258">
        <ele>456</ele>
        <time>2026-05-21T11:12:02.999Z</time>
      </trkpt>
      <trkpt lat="43.77649" lon="3.83258">
        <ele>456</ele>
        <time>2026-05-21T11:12:03.999Z</time>
      </trkpt>
      <trkpt lat="43.77649" lon="3.83258">
        <ele>456.2</ele>
        <time>2026-05-21T11:12:04.999Z</time>
      </trkpt>
      <trkpt lat="43.77649" lon="3.83258">
        <ele>456.3</ele>
        <time>2026-05-21T11:12:05.999Z</time>
      </trkpt>
      <trkpt lat="43.77649" lon="3.83258">
        <ele>456.6</ele>
        <time>2026-05-21T11:12:06.999Z</time>
      </trkpt>
      <trkpt lat="43.7765" lon="3.83258">
        <ele>456.8</ele>
        <time>2026-05-21T11:12:07.999Z</time>
      </trkpt>
      <trkpt lat="43.7765" lon="3.83258">
        <ele>456.9</ele>
        <time>2026-05-21T11:12:08.999Z</time>
      </trkpt>
      <trkpt lat="43.7765" lon="3.83258">
        <ele>456.9</ele>
        <time>2026-05-21T11:12:09.999Z</time>
      </trkpt>
      <trkpt lat="43.7765" lon="3.83258">
        <ele>456.8</ele>
        <time>2026-05-21T11:12:10.999Z</time>
      </trkpt>
      <trkpt lat="43.7765" lon="3.83258">
        <ele>456.8</ele>
        <time>2026-05-21T11:12:11.999Z</time>
      </trkpt>
      <trkpt lat="43.7765" lon="3.83258">
        <ele>457</ele>
        <time>2026-05-21T11:12:12.999Z</time>
      </trkpt>
      <trkpt lat="43.7765" lon="3.83258">
        <ele>457</ele>
        <time>2026-05-21T11:12:13.999Z</time>
      </trkpt>
      <trkpt lat="43.7765" lon="3.83258">
        <ele>456.8</ele>
        <time>2026-05-21T11:12:14.999Z</time>
      </trkpt>
      <trkpt lat="43.7765" lon="3.83258">
        <ele>456.7</ele>
        <time>2026-05-21T11:12:15.999Z</time>
      </trkpt>
      <trkpt lat="43.77649" lon="3.83258">
        <ele>456.6</ele>
        <time>2026-05-21T11:12:16.999Z</time>
      </trkpt>
      <trkpt lat="43.77649" lon="3.83258">
        <ele>456.4</ele>
        <time>2026-05-21T11:12:17.999Z</time>
      </trkpt>
      <trkpt lat="43.77649" lon="3.83258">
        <ele>456.4</ele>
        <time>2026-05-21T11:12:18.999Z</time>
      </trkpt>
      <trkpt lat="43.77649" lon="3.83258">
        <ele>456.5</ele>
        <time>2026-05-21T11:12:19.999Z</time>
      </trkpt>
      <trkpt lat="43.77649" lon="3.83258">
        <ele>456.3</ele>
        <time>2026-05-21T11:12:20.999Z</time>
      </trkpt>
      <trkpt lat="43.77649" lon="3.83259">
        <ele>456.2</ele>
        <time>2026-05-21T11:12:21.999Z</time>
      </trkpt>
      <trkpt lat="43.77649" lon="3.83259">
        <ele>456.1</ele>
        <time>2026-05-21T11:12:22.999Z</time>
      </trkpt>
      <trkpt lat="43.77649" lon="3.83259">
        <ele>456</ele>
        <time>2026-05-21T11:12:23.999Z</time>
      </trkpt>
      <trkpt lat="43.77649" lon="3.83259">
        <ele>455.7</ele>
        <time>2026-05-21T11:12:24.999Z</time>
      </trkpt>
      <trkpt lat="43.77649" lon="3.83259">
        <ele>455.6</ele>
        <time>2026-05-21T11:12:25.999Z</time>
      </trkpt>
      <trkpt lat="43.77649" lon="3.83259">
        <ele>455.4</ele>
        <time>2026-05-21T11:12:26.999Z</time>
      </trkpt>
      <trkpt lat="43.77649" lon="3.83259">
        <ele>455.4</ele>
        <time>2026-05-21T11:12:27.999Z</time>
      </trkpt>
      <trkpt lat="43.77649" lon="3.83259">
        <ele>455.2</ele>
        <time>2026-05-21T11:12:28.999Z</time>
      </trkpt>
      <trkpt lat="43.77649" lon="3.83259">
        <ele>455.1</ele>
        <time>2026-05-21T11:12:29.999Z</time>
      </trkpt>
      <trkpt lat="43.77649" lon="3.83259">
        <ele>455</ele>
        <time>2026-05-21T11:12:30.999Z</time>
      </trkpt>
      <trkpt lat="43.77649" lon="3.83259">
        <ele>454.9</ele>
        <time>2026-05-21T11:12:31.999Z</time>
      </trkpt>
      <trkpt lat="43.77649" lon="3.83259">
        <ele>454.9</ele>
        <time>2026-05-21T11:12:32.999Z</time>
      </trkpt>
      <trkpt lat="43.77649" lon="3.83259">
        <ele>454.9</ele>
        <time>2026-05-21T11:12:33.999Z</time>
      </trkpt>
      <trkpt lat="43.77649" lon="3.83259">
        <ele>454.9</ele>
        <time>2026-05-21T11:12:34.999Z</time>
      </trkpt>
      <trkpt lat="43.77649" lon="3.83259">
        <ele>454.8</ele>
        <time>2026-05-21T11:12:35.999Z</time>
      </trkpt>
      <trkpt lat="43.77649" lon="3.83259">
        <ele>454.8</ele>
        <time>2026-05-21T11:12:36.999Z</time>
      </trkpt>
      <trkpt lat="43.77649" lon="3.83258">
        <ele>454.9</ele>
        <time>2026-05-21T11:12:37.999Z</time>
      </trkpt>
      <trkpt lat="43.77649" lon="3.83257">
        <ele>455</ele>
        <time>2026-05-21T11:12:38.999Z</time>
      </trkpt>
      <trkpt lat="43.77649" lon="3.83256">
        <ele>454.9</ele>
        <time>2026-05-21T11:12:39.999Z</time>
      </trkpt>
      <trkpt lat="43.7765" lon="3.83255">
        <ele>455.3</ele>
        <time>2026-05-21T11:12:40.999Z</time>
      </trkpt>
      <trkpt lat="43.7765" lon="3.83255">
        <ele>455</ele>
        <time>2026-05-21T11:12:41.999Z</time>
      </trkpt>
      <trkpt lat="43.7765" lon="3.83256">
        <ele>455.2</ele>
        <time>2026-05-21T11:12:42.999Z</time>
      </trkpt>
      <trkpt lat="43.7765" lon="3.83255">
        <ele>455.2</ele>
        <time>2026-05-21T11:12:43.999Z</time>
      </trkpt>
      <trkpt lat="43.77649" lon="3.83255">
        <ele>455.2</ele>
        <time>2026-05-21T11:12:44.999Z</time>
      </trkpt>
      <trkpt lat="43.77649" lon="3.83255">
        <ele>455.4</ele>
        <time>2026-05-21T11:12:45.999Z</time>
      </trkpt>
      <trkpt lat="43.77649" lon="3.83255">
        <ele>455.3</ele>
        <time>2026-05-21T11:12:46.999Z</time>
      </trkpt>
      <trkpt lat="43.77649" lon="3.83255">
        <ele>455.5</ele>
        <time>2026-05-21T11:12:47.999Z</time>
      </trkpt>
      <trkpt lat="43.77649" lon="3.83255">
        <ele>455.3</ele>
        <time>2026-05-21T11:12:48.999Z</time>
      </trkpt>
      <trkpt lat="43.77649" lon="3.83255">
        <ele>455.2</ele>
        <time>2026-05-21T11:12:49.999Z</time>
      </trkpt>
      <trkpt lat="43.77649" lon="3.83255">
        <ele>454.8</ele>
        <time>2026-05-21T11:12:50.999Z</time>
      </trkpt>
      <trkpt lat="43.77648" lon="3.83256">
        <ele>454.5</ele>
        <time>2026-05-21T11:12:51.999Z</time>
      </trkpt>
      <trkpt lat="43.77647" lon="3.83257">
        <ele>454.3</ele>
        <time>2026-05-21T11:12:52.999Z</time>
      </trkpt>
      <trkpt lat="43.77647" lon="3.83257">
        <ele>454.1</ele>
        <time>2026-05-21T11:12:53.999Z</time>
      </trkpt>
      <trkpt lat="43.77648" lon="3.83257">
        <ele>453.8</ele>
        <time>2026-05-21T11:12:54.999Z</time>
      </trkpt>
      <trkpt lat="43.77648" lon="3.83258">
        <ele>453.8</ele>
        <time>2026-05-21T11:12:55.999Z</time>
      </trkpt>
      <trkpt lat="43.77648" lon="3.83258">
        <ele>454.2</ele>
        <time>2026-05-21T11:12:56.999Z</time>
      </trkpt>
      <trkpt lat="43.77649" lon="3.83258">
        <ele>454.2</ele>
        <time>2026-05-21T11:12:57.999Z</time>
      </trkpt>
      <trkpt lat="43.77649" lon="3.83258">
        <ele>454.4</ele>
        <time>2026-05-21T11:12:58.999Z</time>
      </trkpt>
      <trkpt lat="43.77649" lon="3.83258">
        <ele>454.5</ele>
        <time>2026-05-21T11:12:59.999Z</time>
      </trkpt>
      <trkpt lat="43.77649" lon="3.83258">
        <ele>454.6</ele>
        <time>2026-05-21T11:13:00.999Z</time>
      </trkpt>
      <trkpt lat="43.77649" lon="3.83258">
        <ele>454.8</ele>
        <time>2026-05-21T11:13:01.999Z</time>
      </trkpt>
      <trkpt lat="43.77649" lon="3.83258">
        <ele>454.8</ele>
        <time>2026-05-21T11:13:02.999Z</time>
      </trkpt>
      <trkpt lat="43.77649" lon="3.83258">
        <ele>454.7</ele>
        <time>2026-05-21T11:13:03.999Z</time>
      </trkpt>
      <trkpt lat="43.77648" lon="3.83257">
        <ele>454.6</ele>
        <time>2026-05-21T11:13:04.999Z</time>
      </trkpt>
      <trkpt lat="43.77648" lon="3.83257">
        <ele>454.6</ele>
        <time>2026-05-21T11:13:05.999Z</time>
      </trkpt>
      <trkpt lat="43.77648" lon="3.83257">
        <ele>454.5</ele>
        <time>2026-05-21T11:13:06.999Z</time>
      </trkpt>
      <trkpt lat="43.77648" lon="3.83255">
        <ele>454.5</ele>
        <time>2026-05-21T11:13:07.999Z</time>
      </trkpt>
      <trkpt lat="43.77648" lon="3.83254">
        <ele>454.5</ele>
        <time>2026-05-21T11:13:08.999Z</time>
      </trkpt>
      <trkpt lat="43.77648" lon="3.83254">
        <ele>454.4</ele>
        <time>2026-05-21T11:13:09.999Z</time>
      </trkpt>
      <trkpt lat="43.77648" lon="3.83254">
        <ele>454.3</ele>
        <time>2026-05-21T11:13:10.999Z</time>
      </trkpt>
      <trkpt lat="43.77648" lon="3.83254">
        <ele>454.3</ele>
        <time>2026-05-21T11:13:11.999Z</time>
      </trkpt>
      <trkpt lat="43.77648" lon="3.83254">
        <ele>454.2</ele>
        <time>2026-05-21T11:13:12.999Z</time>
      </trkpt>
      <trkpt lat="43.77648" lon="3.83254">
        <ele>454.1</ele>
        <time>2026-05-21T11:13:13.999Z</time>
      </trkpt>
      <trkpt lat="43.77647" lon="3.83254">
        <ele>453.9</ele>
        <time>2026-05-21T11:13:14.999Z</time>
      </trkpt>
      <trkpt lat="43.77647" lon="3.83255">
        <ele>453.8</ele>
        <time>2026-05-21T11:13:15.999Z</time>
      </trkpt>
      <trkpt lat="43.77648" lon="3.83255">
        <ele>453.9</ele>
        <time>2026-05-21T11:13:16.999Z</time>
      </trkpt>
      <trkpt lat="43.77648" lon="3.83255">
        <ele>454.2</ele>
        <time>2026-05-21T11:13:17.999Z</time>
      </trkpt>
      <trkpt lat="43.77648" lon="3.83255">
        <ele>454.6</ele>
        <time>2026-05-21T11:13:18.999Z</time>
      </trkpt>
      <trkpt lat="43.77648" lon="3.83255">
        <ele>454.9</ele>
        <time>2026-05-21T11:13:19.999Z</time>
      </trkpt>
      <trkpt lat="43.77648" lon="3.83255">
        <ele>455.2</ele>
        <time>2026-05-21T11:13:20.999Z</time>
      </trkpt>
      <trkpt lat="43.77648" lon="3.83255">
        <ele>455.3</ele>
        <time>2026-05-21T11:13:21.999Z</time>
      </trkpt>
      <trkpt lat="43.77648" lon="3.83255">
        <ele>455.1</ele>
        <time>2026-05-21T11:13:22.999Z</time>
      </trkpt>
      <trkpt lat="43.77648" lon="3.83255">
        <ele>455</ele>
        <time>2026-05-21T11:13:23.999Z</time>
      </trkpt>
      <trkpt lat="43.77648" lon="3.83255">
        <ele>455</ele>
        <time>2026-05-21T11:13:24.999Z</time>
      </trkpt>
      <trkpt lat="43.77648" lon="3.83255">
        <ele>455.2</ele>
        <time>2026-05-21T11:13:25.999Z</time>
      </trkpt>
      <trkpt lat="43.77648" lon="3.83255">
        <ele>455.3</ele>
        <time>2026-05-21T11:13:26.999Z</time>
      </trkpt>
      <trkpt lat="43.77648" lon="3.83255">
        <ele>455.6</ele>
        <time>2026-05-21T11:13:27.999Z</time>
      </trkpt>
      <trkpt lat="43.77649" lon="3.83254">
        <ele>455.6</ele>
        <time>2026-05-21T11:13:28.999Z</time>
      </trkpt>
      <trkpt lat="43.77649" lon="3.83253">
        <ele>455.6</ele>
        <time>2026-05-21T11:13:29.999Z</time>
      </trkpt>
      <trkpt lat="43.77649" lon="3.83252">
        <ele>455.5</ele>
        <time>2026-05-21T11:13:30.999Z</time>
      </trkpt>
      <trkpt lat="43.7765" lon="3.83251">
        <ele>455.6</ele>
        <time>2026-05-21T11:13:31.999Z</time>
      </trkpt>
      <trkpt lat="43.7765" lon="3.83251">
        <ele>455.8</ele>
        <time>2026-05-21T11:13:32.999Z</time>
      </trkpt>
      <trkpt lat="43.7765" lon="3.83251">
        <ele>455.9</ele>
        <time>2026-05-21T11:13:33.999Z</time>
      </trkpt>
      <trkpt lat="43.7765" lon="3.83251">
        <ele>456.1</ele>
        <time>2026-05-21T11:13:34.999Z</time>
      </trkpt>
      <trkpt lat="43.7765" lon="3.83251">
        <ele>456.1</ele>
        <time>2026-05-21T11:13:35.999Z</time>
      </trkpt>
      <trkpt lat="43.7765" lon="3.83251">
        <ele>456.3</ele>
        <time>2026-05-21T11:13:36.999Z</time>
      </trkpt>
      <trkpt lat="43.7765" lon="3.83251">
        <ele>456.3</ele>
        <time>2026-05-21T11:13:37.999Z</time>
      </trkpt>
      <trkpt lat="43.7765" lon="3.83251">
        <ele>456.3</ele>
        <time>2026-05-21T11:13:38.999Z</time>
      </trkpt>
      <trkpt lat="43.7765" lon="3.83251">
        <ele>456.6</ele>
        <time>2026-05-21T11:13:39.999Z</time>
      </trkpt>
      <trkpt lat="43.7765" lon="3.83251">
        <ele>456.6</ele>
        <time>2026-05-21T11:13:40.999Z</time>
      </trkpt>
      <trkpt lat="43.7765" lon="3.83251">
        <ele>456.6</ele>
        <time>2026-05-21T11:13:41.999Z</time>
      </trkpt>
      <trkpt lat="43.7765" lon="3.83251">
        <ele>456.6</ele>
        <time>2026-05-21T11:13:42.999Z</time>
      </trkpt>
      <trkpt lat="43.7765" lon="3.83251">
        <ele>456.8</ele>
        <time>2026-05-21T11:13:43.999Z</time>
      </trkpt>
      <trkpt lat="43.7765" lon="3.83251">
        <ele>456.9</ele>
        <time>2026-05-21T11:13:44.999Z</time>
      </trkpt>
      <trkpt lat="43.7765" lon="3.8325">
        <ele>457</ele>
        <time>2026-05-21T11:13:45.999Z</time>
      </trkpt>
      <trkpt lat="43.7765" lon="3.8325">
        <ele>457.1</ele>
        <time>2026-05-21T11:13:46.999Z</time>
      </trkpt>
      <trkpt lat="43.7765" lon="3.8325">
        <ele>457.3</ele>
        <time>2026-05-21T11:13:47.999Z</time>
      </trkpt>
      <trkpt lat="43.7765" lon="3.8325">
        <ele>457.7</ele>
        <time>2026-05-21T11:13:48.999Z</time>
      </trkpt>
      <trkpt lat="43.7765" lon="3.8325">
        <ele>457.9</ele>
        <time>2026-05-21T11:13:49.999Z</time>
      </trkpt>
      <trkpt lat="43.7765" lon="3.8325">
        <ele>458.1</ele>
        <time>2026-05-21T11:13:50.999Z</time>
      </trkpt>
      <trkpt lat="43.7765" lon="3.8325">
        <ele>458.2</ele>
        <time>2026-05-21T11:13:51.999Z</time>
      </trkpt>
      <trkpt lat="43.7765" lon="3.8325">
        <ele>458.3</ele>
        <time>2026-05-21T11:13:52.999Z</time>
      </trkpt>
      <trkpt lat="43.7765" lon="3.83251">
        <ele>458.3</ele>
        <time>2026-05-21T11:13:53.999Z</time>
      </trkpt>
      <trkpt lat="43.77651" lon="3.83251">
        <ele>458.3</ele>
        <time>2026-05-21T11:13:54.999Z</time>
      </trkpt>
      <trkpt lat="43.77651" lon="3.83251">
        <ele>458.2</ele>
        <time>2026-05-21T11:13:55.999Z</time>
      </trkpt>
      <trkpt lat="43.77651" lon="3.83251">
        <ele>458.1</ele>
        <time>2026-05-21T11:13:56.999Z</time>
      </trkpt>
      <trkpt lat="43.77651" lon="3.83251">
        <ele>458.1</ele>
        <time>2026-05-21T11:13:57.999Z</time>
      </trkpt>
      <trkpt lat="43.77651" lon="3.83251">
        <ele>457.9</ele>
        <time>2026-05-21T11:13:58.999Z</time>
      </trkpt>
      <trkpt lat="43.77651" lon="3.83251">
        <ele>458.1</ele>
        <time>2026-05-21T11:13:59.999Z</time>
      </trkpt>
      <trkpt lat="43.77651" lon="3.83251">
        <ele>457.9</ele>
        <time>2026-05-21T11:14:00.999Z</time>
      </trkpt>
      <trkpt lat="43.7765" lon="3.83251">
        <ele>457.8</ele>
        <time>2026-05-21T11:14:01.999Z</time>
      </trkpt>
      <trkpt lat="43.7765" lon="3.83251">
        <ele>457.8</ele>
        <time>2026-05-21T11:14:02.999Z</time>
      </trkpt>
      <trkpt lat="43.7765" lon="3.83251">
        <ele>457.6</ele>
        <time>2026-05-21T11:14:03.999Z</time>
      </trkpt>
      <trkpt lat="43.7765" lon="3.83251">
        <ele>457.5</ele>
        <time>2026-05-21T11:14:04.999Z</time>
      </trkpt>
      <trkpt lat="43.7765" lon="3.83252">
        <ele>457.5</ele>
        <time>2026-05-21T11:14:05.999Z</time>
      </trkpt>
      <trkpt lat="43.7765" lon="3.83252">
        <ele>457.5</ele>
        <time>2026-05-21T11:14:06.999Z</time>
      </trkpt>
      <trkpt lat="43.7765" lon="3.83252">
        <ele>457.6</ele>
        <time>2026-05-21T11:14:07.999Z</time>
      </trkpt>
      <trkpt lat="43.7765" lon="3.83252">
        <ele>457.6</ele>
        <time>2026-05-21T11:14:08.999Z</time>
      </trkpt>
      <trkpt lat="43.7765" lon="3.83252">
        <ele>457.4</ele>
        <time>2026-05-21T11:14:09.999Z</time>
      </trkpt>
      <trkpt lat="43.7765" lon="3.83252">
        <ele>457.5</ele>
        <time>2026-05-21T11:14:10.999Z</time>
      </trkpt>
      <trkpt lat="43.7765" lon="3.83252">
        <ele>457.5</ele>
        <time>2026-05-21T11:14:11.999Z</time>
      </trkpt>
      <trkpt lat="43.7765" lon="3.83252">
        <ele>457.5</ele>
        <time>2026-05-21T11:14:12.999Z</time>
      </trkpt>
      <trkpt lat="43.7765" lon="3.83252">
        <ele>457.5</ele>
        <time>2026-05-21T11:14:13.999Z</time>
      </trkpt>
      <trkpt lat="43.7765" lon="3.83252">
        <ele>457.6</ele>
        <time>2026-05-21T11:14:14.999Z</time>
      </trkpt>
      <trkpt lat="43.7765" lon="3.83253">
        <ele>457.6</ele>
        <time>2026-05-21T11:14:15.999Z</time>
      </trkpt>
      <trkpt lat="43.7765" lon="3.83253">
        <ele>457.5</ele>
        <time>2026-05-21T11:14:16.999Z</time>
      </trkpt>
      <trkpt lat="43.7765" lon="3.83253">
        <ele>457.7</ele>
        <time>2026-05-21T11:14:17.999Z</time>
      </trkpt>
      <trkpt lat="43.7765" lon="3.83253">
        <ele>457.6</ele>
        <time>2026-05-21T11:14:18.999Z</time>
      </trkpt>
      <trkpt lat="43.7765" lon="3.83253">
        <ele>457.2</ele>
        <time>2026-05-21T11:14:19.999Z</time>
      </trkpt>
      <trkpt lat="43.7765" lon="3.83253">
        <ele>457.2</ele>
        <time>2026-05-21T11:14:20.999Z</time>
      </trkpt>
      <trkpt lat="43.7765" lon="3.83253">
        <ele>456.7</ele>
        <time>2026-05-21T11:14:21.999Z</time>
      </trkpt>
      <trkpt lat="43.7765" lon="3.83253">
        <ele>456.1</ele>
        <time>2026-05-21T11:14:22.999Z</time>
      </trkpt>
      <trkpt lat="43.7765" lon="3.83253">
        <ele>455.6</ele>
        <time>2026-05-21T11:14:23.999Z</time>
      </trkpt>
      <trkpt lat="43.77649" lon="3.83254">
        <ele>455.3</ele>
        <time>2026-05-21T11:14:24.999Z</time>
      </trkpt>
      <trkpt lat="43.77649" lon="3.83254">
        <ele>455.1</ele>
        <time>2026-05-21T11:14:25.999Z</time>
      </trkpt>
      <trkpt lat="43.77649" lon="3.83254">
        <ele>454.8</ele>
        <time>2026-05-21T11:14:26.999Z</time>
      </trkpt>
      <trkpt lat="43.77649" lon="3.83254">
        <ele>454.5</ele>
        <time>2026-05-21T11:14:27.999Z</time>
      </trkpt>
      <trkpt lat="43.77649" lon="3.83254">
        <ele>454.4</ele>
        <time>2026-05-21T11:14:28.999Z</time>
      </trkpt>
      <trkpt lat="43.77649" lon="3.83254">
        <ele>454.4</ele>
        <time>2026-05-21T11:14:29.999Z</time>
      </trkpt>
      <trkpt lat="43.77649" lon="3.83254">
        <ele>454.5</ele>
        <time>2026-05-21T11:14:30.999Z</time>
      </trkpt>
      <trkpt lat="43.77649" lon="3.83254">
        <ele>454.4</ele>
        <time>2026-05-21T11:14:31.999Z</time>
      </trkpt>
      <trkpt lat="43.77649" lon="3.83254">
        <ele>454.3</ele>
        <time>2026-05-21T11:14:32.999Z</time>
      </trkpt>
      <trkpt lat="43.77649" lon="3.83254">
        <ele>454.1</ele>
        <time>2026-05-21T11:14:33.999Z</time>
      </trkpt>
      <trkpt lat="43.77649" lon="3.83254">
        <ele>454</ele>
        <time>2026-05-21T11:14:34.999Z</time>
      </trkpt>
      <trkpt lat="43.77649" lon="3.83254">
        <ele>453.9</ele>
        <time>2026-05-21T11:14:35.999Z</time>
      </trkpt>
      <trkpt lat="43.77649" lon="3.83254">
        <ele>454</ele>
        <time>2026-05-21T11:14:36.999Z</time>
      </trkpt>
      <trkpt lat="43.77649" lon="3.83254">
        <ele>453.8</ele>
        <time>2026-05-21T11:14:37.999Z</time>
      </trkpt>
      <trkpt lat="43.77649" lon="3.83254">
        <ele>453.7</ele>
        <time>2026-05-21T11:14:38.999Z</time>
      </trkpt>
      <trkpt lat="43.77649" lon="3.83254">
        <ele>453.4</ele>
        <time>2026-05-21T11:14:39.999Z</time>
      </trkpt>
      <trkpt lat="43.77649" lon="3.83254">
        <ele>453.3</ele>
        <time>2026-05-21T11:14:40.999Z</time>
      </trkpt>
      <trkpt lat="43.77649" lon="3.83255">
        <ele>453.2</ele>
        <time>2026-05-21T11:14:41.999Z</time>
      </trkpt>
      <trkpt lat="43.77649" lon="3.83255">
        <ele>453.4</ele>
        <time>2026-05-21T11:14:42.999Z</time>
      </trkpt>
      <trkpt lat="43.77649" lon="3.83255">
        <ele>453.5</ele>
        <time>2026-05-21T11:14:43.999Z</time>
      </trkpt>
      <trkpt lat="43.77649" lon="3.83255">
        <ele>453.5</ele>
        <time>2026-05-21T11:14:44.999Z</time>
      </trkpt>
      <trkpt lat="43.77649" lon="3.83255">
        <ele>453.4</ele>
        <time>2026-05-21T11:14:45.999Z</time>
      </trkpt>
      <trkpt lat="43.77649" lon="3.83255">
        <ele>453.4</ele>
        <time>2026-05-21T11:14:46.999Z</time>
      </trkpt>
      <trkpt lat="43.77648" lon="3.83255">
        <ele>453.3</ele>
        <time>2026-05-21T11:14:47.999Z</time>
      </trkpt>
      <trkpt lat="43.77648" lon="3.83255">
        <ele>453.2</ele>
        <time>2026-05-21T11:14:48.999Z</time>
      </trkpt>
      <trkpt lat="43.77648" lon="3.83255">
        <ele>453.2</ele>
        <time>2026-05-21T11:14:49.999Z</time>
      </trkpt>
      <trkpt lat="43.77648" lon="3.83255">
        <ele>452.9</ele>
        <time>2026-05-21T11:14:50.999Z</time>
      </trkpt>
      <trkpt lat="43.77648" lon="3.83255">
        <ele>452.9</ele>
        <time>2026-05-21T11:14:51.999Z</time>
      </trkpt>
      <trkpt lat="43.77648" lon="3.83255">
        <ele>452.8</ele>
        <time>2026-05-21T11:14:52.999Z</time>
      </trkpt>
      <trkpt lat="43.77648" lon="3.83255">
        <ele>452.9</ele>
        <time>2026-05-21T11:14:53.999Z</time>
      </trkpt>
      <trkpt lat="43.77648" lon="3.83255">
        <ele>453.1</ele>
        <time>2026-05-21T11:14:54.999Z</time>
      </trkpt>
      <trkpt lat="43.77648" lon="3.83256">
        <ele>453.2</ele>
        <time>2026-05-21T11:14:55.999Z</time>
      </trkpt>
      <trkpt lat="43.77648" lon="3.83256">
        <ele>453.1</ele>
        <time>2026-05-21T11:14:56.999Z</time>
      </trkpt>
      <trkpt lat="43.77648" lon="3.83256">
        <ele>453</ele>
        <time>2026-05-21T11:14:57.999Z</time>
      </trkpt>
      <trkpt lat="43.77648" lon="3.83256">
        <ele>453.2</ele>
        <time>2026-05-21T11:14:58.999Z</time>
      </trkpt>
      <trkpt lat="43.77648" lon="3.83256">
        <ele>453.4</ele>
        <time>2026-05-21T11:14:59.999Z</time>
      </trkpt>
      <trkpt lat="43.77648" lon="3.83256">
        <ele>453.5</ele>
        <time>2026-05-21T11:15:00.999Z</time>
      </trkpt>
      <trkpt lat="43.77648" lon="3.83256">
        <ele>453.4</ele>
        <time>2026-05-21T11:15:01.999Z</time>
      </trkpt>
      <trkpt lat="43.77648" lon="3.83256">
        <ele>453.1</ele>
        <time>2026-05-21T11:15:02.999Z</time>
      </trkpt>
      <trkpt lat="43.77648" lon="3.83256">
        <ele>453.2</ele>
        <time>2026-05-21T11:15:03.999Z</time>
      </trkpt>
      <trkpt lat="43.77648" lon="3.83256">
        <ele>453.5</ele>
        <time>2026-05-21T11:15:04.999Z</time>
      </trkpt>
      <trkpt lat="43.77648" lon="3.83256">
        <ele>454</ele>
        <time>2026-05-21T11:15:05.999Z</time>
      </trkpt>
      <trkpt lat="43.77648" lon="3.83256">
        <ele>454.3</ele>
        <time>2026-05-21T11:15:06.999Z</time>
      </trkpt>
      <trkpt lat="43.77648" lon="3.83256">
        <ele>454.6</ele>
        <time>2026-05-21T11:15:07.999Z</time>
      </trkpt>
      <trkpt lat="43.77648" lon="3.83256">
        <ele>454.6</ele>
        <time>2026-05-21T11:15:08.999Z</time>
      </trkpt>
      <trkpt lat="43.77648" lon="3.83256">
        <ele>454.6</ele>
        <time>2026-05-21T11:15:09.999Z</time>
      </trkpt>
      <trkpt lat="43.77648" lon="3.83256">
        <ele>454.6</ele>
        <time>2026-05-21T11:15:10.999Z</time>
      </trkpt>
      <trkpt lat="43.77648" lon="3.83256">
        <ele>454.6</ele>
        <time>2026-05-21T11:15:11.999Z</time>
      </trkpt>
      <trkpt lat="43.77648" lon="3.83256">
        <ele>454.6</ele>
        <time>2026-05-21T11:15:12.999Z</time>
      </trkpt>
      <trkpt lat="43.77648" lon="3.83256">
        <ele>454.7</ele>
        <time>2026-05-21T11:15:13.999Z</time>
      </trkpt>
      <trkpt lat="43.77648" lon="3.83256">
        <ele>454.8</ele>
        <time>2026-05-21T11:15:14.999Z</time>
      </trkpt>
      <trkpt lat="43.77648" lon="3.83256">
        <ele>454.7</ele>
        <time>2026-05-21T11:15:15.999Z</time>
      </trkpt>
      <trkpt lat="43.77648" lon="3.83256">
        <ele>454.6</ele>
        <time>2026-05-21T11:15:16.999Z</time>
      </trkpt>
      <trkpt lat="43.77648" lon="3.83256">
        <ele>454.7</ele>
        <time>2026-05-21T11:15:17.999Z</time>
      </trkpt>
      <trkpt lat="43.77648" lon="3.83256">
        <ele>455</ele>
        <time>2026-05-21T11:15:18.999Z</time>
      </trkpt>
      <trkpt lat="43.77648" lon="3.83256">
        <ele>454.8</ele>
        <time>2026-05-21T11:15:19.999Z</time>
      </trkpt>
      <trkpt lat="43.77648" lon="3.83256">
        <ele>454.9</ele>
        <time>2026-05-21T11:15:20.999Z</time>
      </trkpt>
      <trkpt lat="43.77648" lon="3.83256">
        <ele>454.9</ele>
        <time>2026-05-21T11:15:21.999Z</time>
      </trkpt>
      <trkpt lat="43.77648" lon="3.83256">
        <ele>454.9</ele>
        <time>2026-05-21T11:15:22.999Z</time>
      </trkpt>
      <trkpt lat="43.77648" lon="3.83256">
        <ele>454.7</ele>
        <time>2026-05-21T11:15:23.999Z</time>
      </trkpt>
      <trkpt lat="43.77648" lon="3.83256">
        <ele>454.4</ele>
        <time>2026-05-21T11:15:24.999Z</time>
      </trkpt>
      <trkpt lat="43.77648" lon="3.83256">
        <ele>454.3</ele>
        <time>2026-05-21T11:15:25.999Z</time>
      </trkpt>
      <trkpt lat="43.77648" lon="3.83256">
        <ele>454.3</ele>
        <time>2026-05-21T11:15:26.999Z</time>
      </trkpt>
      <trkpt lat="43.77648" lon="3.83256">
        <ele>454.1</ele>
        <time>2026-05-21T11:15:27.999Z</time>
      </trkpt>
      <trkpt lat="43.77648" lon="3.83256">
        <ele>454</ele>
        <time>2026-05-21T11:15:28.999Z</time>
      </trkpt>
      <trkpt lat="43.77648" lon="3.83256">
        <ele>453.9</ele>
        <time>2026-05-21T11:15:29.999Z</time>
      </trkpt>
      <trkpt lat="43.77648" lon="3.83256">
        <ele>453.8</ele>
        <time>2026-05-21T11:15:30.999Z</time>
      </trkpt>
      <trkpt lat="43.77648" lon="3.83257">
        <ele>453.7</ele>
        <time>2026-05-21T11:15:31.999Z</time>
      </trkpt>
      <trkpt lat="43.77648" lon="3.83257">
        <ele>453.8</ele>
        <time>2026-05-21T11:15:32.999Z</time>
      </trkpt>
      <trkpt lat="43.77648" lon="3.83257">
        <ele>453.7</ele>
        <time>2026-05-21T11:15:33.999Z</time>
      </trkpt>
      <trkpt lat="43.77648" lon="3.83257">
        <ele>453.6</ele>
        <time>2026-05-21T11:15:34.999Z</time>
      </trkpt>
      <trkpt lat="43.77648" lon="3.83257">
        <ele>453.7</ele>
        <time>2026-05-21T11:15:35.999Z</time>
      </trkpt>
      <trkpt lat="43.77648" lon="3.83257">
        <ele>453.7</ele>
        <time>2026-05-21T11:15:36.999Z</time>
      </trkpt>
      <trkpt lat="43.77648" lon="3.83257">
        <ele>453.6</ele>
        <time>2026-05-21T11:15:37.999Z</time>
      </trkpt>
      <trkpt lat="43.77648" lon="3.83257">
        <ele>453.6</ele>
        <time>2026-05-21T11:15:38.999Z</time>
      </trkpt>
      <trkpt lat="43.77648" lon="3.83257">
        <ele>453.8</ele>
        <time>2026-05-21T11:15:39.999Z</time>
      </trkpt>
      <trkpt lat="43.77648" lon="3.83257">
        <ele>453.9</ele>
        <time>2026-05-21T11:15:40.999Z</time>
      </trkpt>
      <trkpt lat="43.77648" lon="3.83257">
        <ele>453.9</ele>
        <time>2026-05-21T11:15:41.999Z</time>
      </trkpt>
      <trkpt lat="43.77648" lon="3.83257">
        <ele>453.8</ele>
        <time>2026-05-21T11:15:42.999Z</time>
      </trkpt>
      <trkpt lat="43.77648" lon="3.83257">
        <ele>453.6</ele>
        <time>2026-05-21T11:15:43.999Z</time>
      </trkpt>
      <trkpt lat="43.77648" lon="3.83257">
        <ele>453.6</ele>
        <time>2026-05-21T11:15:44.999Z</time>
      </trkpt>
      <trkpt lat="43.77648" lon="3.83257">
        <ele>453.5</ele>
        <time>2026-05-21T11:15:45.999Z</time>
      </trkpt>
      <trkpt lat="43.77647" lon="3.83257">
        <ele>453.3</ele>
        <time>2026-05-21T11:15:46.999Z</time>
      </trkpt>
      <trkpt lat="43.77647" lon="3.83257">
        <ele>453.1</ele>
        <time>2026-05-21T11:15:47.999Z</time>
      </trkpt>
      <trkpt lat="43.77647" lon="3.83257">
        <ele>453</ele>
        <time>2026-05-21T11:15:48.999Z</time>
      </trkpt>
      <trkpt lat="43.77647" lon="3.83257">
        <ele>452.9</ele>
        <time>2026-05-21T11:15:49.999Z</time>
      </trkpt>
      <trkpt lat="43.77647" lon="3.83257">
        <ele>452.9</ele>
        <time>2026-05-21T11:15:50.999Z</time>
      </trkpt>
      <trkpt lat="43.77647" lon="3.83257">
        <ele>452.6</ele>
        <time>2026-05-21T11:15:51.999Z</time>
      </trkpt>
      <trkpt lat="43.77647" lon="3.83257">
        <ele>452.3</ele>
        <time>2026-05-21T11:15:52.999Z</time>
      </trkpt>
      <trkpt lat="43.77647" lon="3.83257">
        <ele>452.3</ele>
        <time>2026-05-21T11:15:53.999Z</time>
      </trkpt>
      <trkpt lat="43.77647" lon="3.83257">
        <ele>452.4</ele>
        <time>2026-05-21T11:15:54.999Z</time>
      </trkpt>
      <trkpt lat="43.77647" lon="3.83257">
        <ele>452.5</ele>
        <time>2026-05-21T11:15:55.999Z</time>
      </trkpt>
      <trkpt lat="43.77647" lon="3.83257">
        <ele>452.4</ele>
        <time>2026-05-21T11:15:56.999Z</time>
      </trkpt>
      <trkpt lat="43.77647" lon="3.83258">
        <ele>452.6</ele>
        <time>2026-05-21T11:15:57.999Z</time>
      </trkpt>
      <trkpt lat="43.77647" lon="3.83258">
        <ele>452.6</ele>
        <time>2026-05-21T11:15:58.999Z</time>
      </trkpt>
      <trkpt lat="43.77648" lon="3.83258">
        <ele>452.8</ele>
        <time>2026-05-21T11:15:59.999Z</time>
      </trkpt>
      <trkpt lat="43.77649" lon="3.83259">
        <ele>452.7</ele>
        <time>2026-05-21T11:16:00.999Z</time>
      </trkpt>
      <trkpt lat="43.77649" lon="3.83259">
        <ele>452.3</ele>
        <time>2026-05-21T11:16:01.999Z</time>
      </trkpt>
      <trkpt lat="43.77649" lon="3.83259">
        <ele>452.3</ele>
        <time>2026-05-21T11:16:02.999Z</time>
      </trkpt>
      <trkpt lat="43.77648" lon="3.83259">
        <ele>452.3</ele>
        <time>2026-05-21T11:16:03.999Z</time>
      </trkpt>
      <trkpt lat="43.77648" lon="3.83259">
        <ele>452.2</ele>
        <time>2026-05-21T11:16:04.999Z</time>
      </trkpt>
      <trkpt lat="43.77648" lon="3.83259">
        <ele>452.2</ele>
        <time>2026-05-21T11:16:05.999Z</time>
      </trkpt>
      <trkpt lat="43.77648" lon="3.83259">
        <ele>451.9</ele>
        <time>2026-05-21T11:16:06.999Z</time>
      </trkpt>
      <trkpt lat="43.77648" lon="3.83259">
        <ele>451.8</ele>
        <time>2026-05-21T11:16:07.999Z</time>
      </trkpt>
      <trkpt lat="43.77648" lon="3.83259">
        <ele>452</ele>
        <time>2026-05-21T11:16:08.999Z</time>
      </trkpt>
      <trkpt lat="43.77648" lon="3.83259">
        <ele>452.2</ele>
        <time>2026-05-21T11:16:09.999Z</time>
      </trkpt>
      <trkpt lat="43.77648" lon="3.83259">
        <ele>452.2</ele>
        <time>2026-05-21T11:16:10.999Z</time>
      </trkpt>
      <trkpt lat="43.77648" lon="3.83259">
        <ele>452</ele>
        <time>2026-05-21T11:16:11.999Z</time>
      </trkpt>
      <trkpt lat="43.77648" lon="3.83259">
        <ele>451.8</ele>
        <time>2026-05-21T11:16:12.999Z</time>
      </trkpt>
      <trkpt lat="43.77648" lon="3.83259">
        <ele>451.7</ele>
        <time>2026-05-21T11:16:13.999Z</time>
      </trkpt>
      <trkpt lat="43.77648" lon="3.83259">
        <ele>451.7</ele>
        <time>2026-05-21T11:16:14.999Z</time>
      </trkpt>
      <trkpt lat="43.77648" lon="3.83259">
        <ele>451.6</ele>
        <time>2026-05-21T11:16:15.999Z</time>
      </trkpt>
      <trkpt lat="43.77648" lon="3.83259">
        <ele>451.5</ele>
        <time>2026-05-21T11:16:16.999Z</time>
      </trkpt>
      <trkpt lat="43.77648" lon="3.83259">
        <ele>451.3</ele>
        <time>2026-05-21T11:16:17.999Z</time>
      </trkpt>
      <trkpt lat="43.77648" lon="3.83259">
        <ele>450.9</ele>
        <time>2026-05-21T11:16:18.999Z</time>
      </trkpt>
      <trkpt lat="43.77648" lon="3.83259">
        <ele>450.8</ele>
        <time>2026-05-21T11:16:19.999Z</time>
      </trkpt>
      <trkpt lat="43.77648" lon="3.83259">
        <ele>451</ele>
        <time>2026-05-21T11:16:20.999Z</time>
      </trkpt>
      <trkpt lat="43.77648" lon="3.83259">
        <ele>450.8</ele>
        <time>2026-05-21T11:16:21.999Z</time>
      </trkpt>
      <trkpt lat="43.77648" lon="3.83259">
        <ele>450.6</ele>
        <time>2026-05-21T11:16:22.999Z</time>
      </trkpt>
      <trkpt lat="43.77648" lon="3.83259">
        <ele>450.1</ele>
        <time>2026-05-21T11:16:23.999Z</time>
      </trkpt>
      <trkpt lat="43.77648" lon="3.83259">
        <ele>449.6</ele>
        <time>2026-05-21T11:16:24.999Z</time>
      </trkpt>
      <trkpt lat="43.77648" lon="3.83258">
        <ele>449.3</ele>
        <time>2026-05-21T11:16:25.999Z</time>
      </trkpt>
      <trkpt lat="43.77648" lon="3.83258">
        <ele>449.3</ele>
        <time>2026-05-21T11:16:26.999Z</time>
      </trkpt>
      <trkpt lat="43.77648" lon="3.83258">
        <ele>449.4</ele>
        <time>2026-05-21T11:16:27.999Z</time>
      </trkpt>
      <trkpt lat="43.77648" lon="3.83258">
        <ele>449.3</ele>
        <time>2026-05-21T11:16:28.999Z</time>
      </trkpt>
      <trkpt lat="43.77648" lon="3.83258">
        <ele>449.3</ele>
        <time>2026-05-21T11:16:29.999Z</time>
      </trkpt>
      <trkpt lat="43.77648" lon="3.83258">
        <ele>449.3</ele>
        <time>2026-05-21T11:16:30.999Z</time>
      </trkpt>
      <trkpt lat="43.77648" lon="3.83258">
        <ele>449.4</ele>
        <time>2026-05-21T11:16:31.999Z</time>
      </trkpt>
      <trkpt lat="43.77648" lon="3.83258">
        <ele>449.4</ele>
        <time>2026-05-21T11:16:32.999Z</time>
      </trkpt>
      <trkpt lat="43.77648" lon="3.83258">
        <ele>449.1</ele>
        <time>2026-05-21T11:16:33.999Z</time>
      </trkpt>
      <trkpt lat="43.77648" lon="3.83258">
        <ele>448.8</ele>
        <time>2026-05-21T11:16:34.999Z</time>
      </trkpt>
      <trkpt lat="43.77648" lon="3.83258">
        <ele>448.7</ele>
        <time>2026-05-21T11:16:35.999Z</time>
      </trkpt>
      <trkpt lat="43.77648" lon="3.83258">
        <ele>448.8</ele>
        <time>2026-05-21T11:16:36.999Z</time>
      </trkpt>
      <trkpt lat="43.77648" lon="3.83258">
        <ele>449.2</ele>
        <time>2026-05-21T11:16:37.999Z</time>
      </trkpt>
      <trkpt lat="43.77648" lon="3.83258">
        <ele>449.3</ele>
        <time>2026-05-21T11:16:38.999Z</time>
      </trkpt>
      <trkpt lat="43.77648" lon="3.83258">
        <ele>449.4</ele>
        <time>2026-05-21T11:16:39.999Z</time>
      </trkpt>
      <trkpt lat="43.77648" lon="3.83258">
        <ele>449.5</ele>
        <time>2026-05-21T11:16:40.999Z</time>
      </trkpt>
      <trkpt lat="43.77648" lon="3.83258">
        <ele>449.5</ele>
        <time>2026-05-21T11:16:41.999Z</time>
      </trkpt>
      <trkpt lat="43.77648" lon="3.83258">
        <ele>449.4</ele>
        <time>2026-05-21T11:16:42.999Z</time>
      </trkpt>
      <trkpt lat="43.77648" lon="3.83258">
        <ele>449.5</ele>
        <time>2026-05-21T11:16:43.999Z</time>
      </trkpt>
      <trkpt lat="43.77648" lon="3.83258">
        <ele>449.6</ele>
        <time>2026-05-21T11:16:44.999Z</time>
      </trkpt>
      <trkpt lat="43.77648" lon="3.83258">
        <ele>449.9</ele>
        <time>2026-05-21T11:16:45.999Z</time>
      </trkpt>
      <trkpt lat="43.77648" lon="3.83258">
        <ele>450.1</ele>
        <time>2026-05-21T11:16:46.999Z</time>
      </trkpt>
      <trkpt lat="43.77648" lon="3.83258">
        <ele>450.2</ele>
        <time>2026-05-21T11:16:47.999Z</time>
      </trkpt>
      <trkpt lat="43.77647" lon="3.83258">
        <ele>450.6</ele>
        <time>2026-05-21T11:16:48.999Z</time>
      </trkpt>
      <trkpt lat="43.77647" lon="3.83258">
        <ele>450.8</ele>
        <time>2026-05-21T11:16:49.999Z</time>
      </trkpt>
      <trkpt lat="43.77647" lon="3.83258">
        <ele>451</ele>
        <time>2026-05-21T11:16:50.999Z</time>
      </trkpt>
      <trkpt lat="43.77647" lon="3.83258">
        <ele>451.1</ele>
        <time>2026-05-21T11:16:51.999Z</time>
      </trkpt>
      <trkpt lat="43.77647" lon="3.83258">
        <ele>451.2</ele>
        <time>2026-05-21T11:16:52.999Z</time>
      </trkpt>
      <trkpt lat="43.77647" lon="3.83258">
        <ele>451.1</ele>
        <time>2026-05-21T11:16:53.999Z</time>
      </trkpt>
      <trkpt lat="43.77647" lon="3.83258">
        <ele>451</ele>
        <time>2026-05-21T11:16:54.999Z</time>
      </trkpt>
      <trkpt lat="43.77647" lon="3.83258">
        <ele>451</ele>
        <time>2026-05-21T11:16:55.999Z</time>
      </trkpt>
      <trkpt lat="43.77647" lon="3.83258">
        <ele>450.9</ele>
        <time>2026-05-21T11:16:56.999Z</time>
      </trkpt>
      <trkpt lat="43.77647" lon="3.83258">
        <ele>450.8</ele>
        <time>2026-05-21T11:16:57.999Z</time>
      </trkpt>
      <trkpt lat="43.77647" lon="3.83258">
        <ele>450.7</ele>
        <time>2026-05-21T11:16:58.999Z</time>
      </trkpt>
      <trkpt lat="43.77648" lon="3.83258">
        <ele>451</ele>
        <time>2026-05-21T11:16:59.999Z</time>
      </trkpt>
      <trkpt lat="43.77648" lon="3.83258">
        <ele>451</ele>
        <time>2026-05-21T11:17:00.999Z</time>
      </trkpt>
      <trkpt lat="43.77648" lon="3.83258">
        <ele>451</ele>
        <time>2026-05-21T11:17:01.999Z</time>
      </trkpt>
      <trkpt lat="43.77648" lon="3.83258">
        <ele>451.1</ele>
        <time>2026-05-21T11:17:02.999Z</time>
      </trkpt>
      <trkpt lat="43.77648" lon="3.83258">
        <ele>451.2</ele>
        <time>2026-05-21T11:17:03.999Z</time>
      </trkpt>
      <trkpt lat="43.77648" lon="3.83258">
        <ele>451.1</ele>
        <time>2026-05-21T11:17:04.999Z</time>
      </trkpt>
      <trkpt lat="43.77648" lon="3.83258">
        <ele>451.2</ele>
        <time>2026-05-21T11:17:05.999Z</time>
      </trkpt>
      <trkpt lat="43.77648" lon="3.83258">
        <ele>451.1</ele>
        <time>2026-05-21T11:17:06.999Z</time>
      </trkpt>
      <trkpt lat="43.77648" lon="3.83258">
        <ele>451.3</ele>
        <time>2026-05-21T11:17:07.999Z</time>
      </trkpt>
      <trkpt lat="43.77648" lon="3.83258">
        <ele>451.3</ele>
        <time>2026-05-21T11:17:08.999Z</time>
      </trkpt>
      <trkpt lat="43.77648" lon="3.83258">
        <ele>451.2</ele>
        <time>2026-05-21T11:17:09.999Z</time>
      </trkpt>
      <trkpt lat="43.77648" lon="3.83258">
        <ele>451</ele>
        <time>2026-05-21T11:17:10.999Z</time>
      </trkpt>
      <trkpt lat="43.77648" lon="3.83258">
        <ele>450.9</ele>
        <time>2026-05-21T11:17:11.999Z</time>
      </trkpt>
      <trkpt lat="43.77647" lon="3.83258">
        <ele>450.8</ele>
        <time>2026-05-21T11:17:12.999Z</time>
      </trkpt>
      <trkpt lat="43.77647" lon="3.83258">
        <ele>450.7</ele>
        <time>2026-05-21T11:17:13.999Z</time>
      </trkpt>
      <trkpt lat="43.77647" lon="3.83258">
        <ele>451</ele>
        <time>2026-05-21T11:17:14.999Z</time>
      </trkpt>
      <trkpt lat="43.77647" lon="3.83258">
        <ele>451.3</ele>
        <time>2026-05-21T11:17:15.999Z</time>
      </trkpt>
      <trkpt lat="43.77647" lon="3.83258">
        <ele>451.4</ele>
        <time>2026-05-21T11:17:16.999Z</time>
      </trkpt>
      <trkpt lat="43.77647" lon="3.83258">
        <ele>451.4</ele>
        <time>2026-05-21T11:17:17.999Z</time>
      </trkpt>
      <trkpt lat="43.77647" lon="3.83258">
        <ele>451.4</ele>
        <time>2026-05-21T11:17:18.999Z</time>
      </trkpt>
      <trkpt lat="43.77647" lon="3.83258">
        <ele>451.3</ele>
        <time>2026-05-21T11:17:19.999Z</time>
      </trkpt>
      <trkpt lat="43.77647" lon="3.83258">
        <ele>451.3</ele>
        <time>2026-05-21T11:17:20.999Z</time>
      </trkpt>
      <trkpt lat="43.77647" lon="3.83258">
        <ele>451.3</ele>
        <time>2026-05-21T11:17:21.999Z</time>
      </trkpt>
      <trkpt lat="43.77647" lon="3.83258">
        <ele>451.2</ele>
        <time>2026-05-21T11:17:22.999Z</time>
      </trkpt>
      <trkpt lat="43.77647" lon="3.83258">
        <ele>451.3</ele>
        <time>2026-05-21T11:17:23.999Z</time>
      </trkpt>
      <trkpt lat="43.77647" lon="3.83258">
        <ele>451.2</ele>
        <time>2026-05-21T11:17:24.999Z</time>
      </trkpt>
      <trkpt lat="43.77647" lon="3.83258">
        <ele>451.1</ele>
        <time>2026-05-21T11:17:25.999Z</time>
      </trkpt>
      <trkpt lat="43.77647" lon="3.83258">
        <ele>450.9</ele>
        <time>2026-05-21T11:17:26.999Z</time>
      </trkpt>
      <trkpt lat="43.77647" lon="3.83257">
        <ele>450.9</ele>
        <time>2026-05-21T11:17:27.999Z</time>
      </trkpt>
      <trkpt lat="43.77647" lon="3.83257">
        <ele>450.8</ele>
        <time>2026-05-21T11:17:28.999Z</time>
      </trkpt>
      <trkpt lat="43.77647" lon="3.83257">
        <ele>450.8</ele>
        <time>2026-05-21T11:17:29.999Z</time>
      </trkpt>
      <trkpt lat="43.77647" lon="3.83257">
        <ele>450.8</ele>
        <time>2026-05-21T11:17:30.999Z</time>
      </trkpt>
      <trkpt lat="43.77647" lon="3.83257">
        <ele>450.5</ele>
        <time>2026-05-21T11:17:31.999Z</time>
      </trkpt>
      <trkpt lat="43.77647" lon="3.83257">
        <ele>450.5</ele>
        <time>2026-05-21T11:17:32.999Z</time>
      </trkpt>
      <trkpt lat="43.77647" lon="3.83257">
        <ele>450.6</ele>
        <time>2026-05-21T11:17:33.999Z</time>
      </trkpt>
      <trkpt lat="43.77647" lon="3.83257">
        <ele>450.7</ele>
        <time>2026-05-21T11:17:34.999Z</time>
      </trkpt>
      <trkpt lat="43.77647" lon="3.83257">
        <ele>450.9</ele>
        <time>2026-05-21T11:17:35.999Z</time>
      </trkpt>
      <trkpt lat="43.77647" lon="3.83257">
        <ele>451.1</ele>
        <time>2026-05-21T11:17:36.999Z</time>
      </trkpt>
      <trkpt lat="43.77647" lon="3.83257">
        <ele>451.3</ele>
        <time>2026-05-21T11:17:37.999Z</time>
      </trkpt>
      <trkpt lat="43.77647" lon="3.83257">
        <ele>451.4</ele>
        <time>2026-05-21T11:17:38.999Z</time>
      </trkpt>
      <trkpt lat="43.77647" lon="3.83257">
        <ele>451.3</ele>
        <time>2026-05-21T11:17:39.999Z</time>
      </trkpt>
      <trkpt lat="43.77647" lon="3.83257">
        <ele>451.2</ele>
        <time>2026-05-21T11:17:40.999Z</time>
      </trkpt>
      <trkpt lat="43.77647" lon="3.83257">
        <ele>451.1</ele>
        <time>2026-05-21T11:17:41.999Z</time>
      </trkpt>
      <trkpt lat="43.77647" lon="3.83257">
        <ele>450.9</ele>
        <time>2026-05-21T11:17:42.999Z</time>
      </trkpt>
      <trkpt lat="43.77647" lon="3.83257">
        <ele>450.6</ele>
        <time>2026-05-21T11:17:43.999Z</time>
      </trkpt>
      <trkpt lat="43.77647" lon="3.83257">
        <ele>450.7</ele>
        <time>2026-05-21T11:17:44.999Z</time>
      </trkpt>
      <trkpt lat="43.77647" lon="3.83257">
        <ele>450.9</ele>
        <time>2026-05-21T11:17:45.999Z</time>
      </trkpt>
      <trkpt lat="43.77647" lon="3.83257">
        <ele>451.1</ele>
        <time>2026-05-21T11:17:46.999Z</time>
      </trkpt>
      <trkpt lat="43.77647" lon="3.83257">
        <ele>451.2</ele>
        <time>2026-05-21T11:17:47.999Z</time>
      </trkpt>
      <trkpt lat="43.77647" lon="3.83257">
        <ele>451.2</ele>
        <time>2026-05-21T11:17:48.999Z</time>
      </trkpt>
      <trkpt lat="43.77647" lon="3.83257">
        <ele>451.4</ele>
        <time>2026-05-21T11:17:49.999Z</time>
      </trkpt>
      <trkpt lat="43.77647" lon="3.83257">
        <ele>451.3</ele>
        <time>2026-05-21T11:17:50.999Z</time>
      </trkpt>
      <trkpt lat="43.77647" lon="3.83257">
        <ele>451</ele>
        <time>2026-05-21T11:17:51.999Z</time>
      </trkpt>
      <trkpt lat="43.77647" lon="3.83257">
        <ele>450.8</ele>
        <time>2026-05-21T11:17:52.999Z</time>
      </trkpt>
      <trkpt lat="43.77647" lon="3.83257">
        <ele>450.6</ele>
        <time>2026-05-21T11:17:53.999Z</time>
      </trkpt>
      <trkpt lat="43.77647" lon="3.83257">
        <ele>450.4</ele>
        <time>2026-05-21T11:17:54.999Z</time>
      </trkpt>
      <trkpt lat="43.77647" lon="3.83257">
        <ele>450.4</ele>
        <time>2026-05-21T11:17:55.999Z</time>
      </trkpt>
      <trkpt lat="43.77647" lon="3.83257">
        <ele>450.4</ele>
        <time>2026-05-21T11:17:56.999Z</time>
      </trkpt>
      <trkpt lat="43.77647" lon="3.83257">
        <ele>450.5</ele>
        <time>2026-05-21T11:17:57.999Z</time>
      </trkpt>
      <trkpt lat="43.77647" lon="3.83257">
        <ele>450.5</ele>
        <time>2026-05-21T11:17:58.999Z</time>
      </trkpt>
      <trkpt lat="43.77647" lon="3.83257">
        <ele>450.5</ele>
        <time>2026-05-21T11:17:59.999Z</time>
      </trkpt>
      <trkpt lat="43.77648" lon="3.83257">
        <ele>450.7</ele>
        <time>2026-05-21T11:18:00.999Z</time>
      </trkpt>
      <trkpt lat="43.77648" lon="3.83257">
        <ele>451.1</ele>
        <time>2026-05-21T11:18:01.999Z</time>
      </trkpt>
      <trkpt lat="43.77648" lon="3.83257">
        <ele>451.4</ele>
        <time>2026-05-21T11:18:02.999Z</time>
      </trkpt>
      <trkpt lat="43.77648" lon="3.83257">
        <ele>451.4</ele>
        <time>2026-05-21T11:18:03.999Z</time>
      </trkpt>
      <trkpt lat="43.77648" lon="3.83257">
        <ele>451.5</ele>
        <time>2026-05-21T11:18:04.999Z</time>
      </trkpt>
      <trkpt lat="43.77648" lon="3.83257">
        <ele>451.5</ele>
        <time>2026-05-21T11:18:05.999Z</time>
      </trkpt>
      <trkpt lat="43.77647" lon="3.83257">
        <ele>450.9</ele>
        <time>2026-05-21T11:18:06.999Z</time>
      </trkpt>
      <trkpt lat="43.77647" lon="3.83257">
        <ele>450.7</ele>
        <time>2026-05-21T11:18:07.999Z</time>
      </trkpt>
      <trkpt lat="43.77647" lon="3.83257">
        <ele>450.9</ele>
        <time>2026-05-21T11:18:08.999Z</time>
      </trkpt>
      <trkpt lat="43.77647" lon="3.83257">
        <ele>450.9</ele>
        <time>2026-05-21T11:18:09.999Z</time>
      </trkpt>
      <trkpt lat="43.77647" lon="3.83257">
        <ele>450.9</ele>
        <time>2026-05-21T11:18:10.999Z</time>
      </trkpt>
      <trkpt lat="43.77647" lon="3.83257">
        <ele>450.9</ele>
        <time>2026-05-21T11:18:11.999Z</time>
      </trkpt>
      <trkpt lat="43.77647" lon="3.83257">
        <ele>451.2</ele>
        <time>2026-05-21T11:18:12.999Z</time>
      </trkpt>
      <trkpt lat="43.77647" lon="3.83257">
        <ele>451.2</ele>
        <time>2026-05-21T11:18:13.999Z</time>
      </trkpt>
      <trkpt lat="43.77647" lon="3.83256">
        <ele>451.4</ele>
        <time>2026-05-21T11:18:14.999Z</time>
      </trkpt>
      <trkpt lat="43.77647" lon="3.83256">
        <ele>451.5</ele>
        <time>2026-05-21T11:18:15.999Z</time>
      </trkpt>
      <trkpt lat="43.77647" lon="3.83256">
        <ele>451.5</ele>
        <time>2026-05-21T11:18:16.999Z</time>
      </trkpt>
      <trkpt lat="43.77647" lon="3.83256">
        <ele>451.7</ele>
        <time>2026-05-21T11:18:17.999Z</time>
      </trkpt>
      <trkpt lat="43.77647" lon="3.83256">
        <ele>451.7</ele>
        <time>2026-05-21T11:18:18.999Z</time>
      </trkpt>
      <trkpt lat="43.77647" lon="3.83256">
        <ele>451.8</ele>
        <time>2026-05-21T11:18:19.999Z</time>
      </trkpt>
      <trkpt lat="43.77647" lon="3.83256">
        <ele>451.8</ele>
        <time>2026-05-21T11:18:20.999Z</time>
      </trkpt>
      <trkpt lat="43.77647" lon="3.83256">
        <ele>451.8</ele>
        <time>2026-05-21T11:18:21.999Z</time>
      </trkpt>
      <trkpt lat="43.77647" lon="3.83256">
        <ele>451.6</ele>
        <time>2026-05-21T11:18:22.999Z</time>
      </trkpt>
      <trkpt lat="43.77647" lon="3.83256">
        <ele>451.6</ele>
        <time>2026-05-21T11:18:23.999Z</time>
      </trkpt>
      <trkpt lat="43.77647" lon="3.83256">
        <ele>451.7</ele>
        <time>2026-05-21T11:18:24.999Z</time>
      </trkpt>
      <trkpt lat="43.77647" lon="3.83256">
        <ele>451.9</ele>
        <time>2026-05-21T11:18:25.999Z</time>
      </trkpt>
      <trkpt lat="43.77647" lon="3.83256">
        <ele>452.1</ele>
        <time>2026-05-21T11:18:26.999Z</time>
      </trkpt>
      <trkpt lat="43.77647" lon="3.83256">
        <ele>452.3</ele>
        <time>2026-05-21T11:18:27.999Z</time>
      </trkpt>
      <trkpt lat="43.77647" lon="3.83256">
        <ele>452.4</ele>
        <time>2026-05-21T11:18:28.999Z</time>
      </trkpt>
      <trkpt lat="43.77647" lon="3.83256">
        <ele>452.7</ele>
        <time>2026-05-21T11:18:29.999Z</time>
      </trkpt>
      <trkpt lat="43.77647" lon="3.83256">
        <ele>452.7</ele>
        <time>2026-05-21T11:18:30.999Z</time>
      </trkpt>
      <trkpt lat="43.77647" lon="3.83256">
        <ele>452.7</ele>
        <time>2026-05-21T11:18:31.999Z</time>
      </trkpt>
      <trkpt lat="43.77647" lon="3.83256">
        <ele>452.6</ele>
        <time>2026-05-21T11:18:32.999Z</time>
      </trkpt>
      <trkpt lat="43.77647" lon="3.83256">
        <ele>452.5</ele>
        <time>2026-05-21T11:18:33.999Z</time>
      </trkpt>
      <trkpt lat="43.77647" lon="3.83256">
        <ele>452.3</ele>
        <time>2026-05-21T11:18:34.999Z</time>
      </trkpt>
      <trkpt lat="43.77647" lon="3.83256">
        <ele>452.2</ele>
        <time>2026-05-21T11:18:35.999Z</time>
      </trkpt>
      <trkpt lat="43.77647" lon="3.83256">
        <ele>452.1</ele>
        <time>2026-05-21T11:18:36.999Z</time>
      </trkpt>
      <trkpt lat="43.77647" lon="3.83256">
        <ele>452.2</ele>
        <time>2026-05-21T11:18:37.999Z</time>
      </trkpt>
      <trkpt lat="43.77647" lon="3.83256">
        <ele>452.3</ele>
        <time>2026-05-21T11:18:38.999Z</time>
      </trkpt>
      <trkpt lat="43.77647" lon="3.83256">
        <ele>452</ele>
        <time>2026-05-21T11:18:39.999Z</time>
      </trkpt>
      <trkpt lat="43.77647" lon="3.83256">
        <ele>451.8</ele>
        <time>2026-05-21T11:18:40.999Z</time>
      </trkpt>
      <trkpt lat="43.77647" lon="3.83256">
        <ele>451.8</ele>
        <time>2026-05-21T11:18:41.999Z</time>
      </trkpt>
      <trkpt lat="43.77647" lon="3.83256">
        <ele>451.8</ele>
        <time>2026-05-21T11:18:42.999Z</time>
      </trkpt>
      <trkpt lat="43.77647" lon="3.83256">
        <ele>451.8</ele>
        <time>2026-05-21T11:18:43.999Z</time>
      </trkpt>
      <trkpt lat="43.77647" lon="3.83256">
        <ele>451.6</ele>
        <time>2026-05-21T11:18:44.999Z</time>
      </trkpt>
      <trkpt lat="43.77647" lon="3.83256">
        <ele>451.5</ele>
        <time>2026-05-21T11:18:45.999Z</time>
      </trkpt>
      <trkpt lat="43.77647" lon="3.83255">
        <ele>451.5</ele>
        <time>2026-05-21T11:18:46.999Z</time>
      </trkpt>
      <trkpt lat="43.77647" lon="3.83255">
        <ele>451.3</ele>
        <time>2026-05-21T11:18:47.999Z</time>
      </trkpt>
      <trkpt lat="43.77647" lon="3.83255">
        <ele>451.2</ele>
        <time>2026-05-21T11:18:48.999Z</time>
      </trkpt>
      <trkpt lat="43.77647" lon="3.83255">
        <ele>451.2</ele>
        <time>2026-05-21T11:18:49.999Z</time>
      </trkpt>
      <trkpt lat="43.77647" lon="3.83255">
        <ele>451</ele>
        <time>2026-05-21T11:18:50.999Z</time>
      </trkpt>
      <trkpt lat="43.77647" lon="3.83255">
        <ele>450.9</ele>
        <time>2026-05-21T11:18:51.999Z</time>
      </trkpt>
      <trkpt lat="43.77647" lon="3.83255">
        <ele>451.1</ele>
        <time>2026-05-21T11:18:52.999Z</time>
      </trkpt>
      <trkpt lat="43.77646" lon="3.83255">
        <ele>451</ele>
        <time>2026-05-21T11:18:53.999Z</time>
      </trkpt>
      <trkpt lat="43.77646" lon="3.83255">
        <ele>450.9</ele>
        <time>2026-05-21T11:18:54.999Z</time>
      </trkpt>
      <trkpt lat="43.77646" lon="3.83255">
        <ele>451</ele>
        <time>2026-05-21T11:18:55.999Z</time>
      </trkpt>
      <trkpt lat="43.77646" lon="3.83255">
        <ele>451</ele>
        <time>2026-05-21T11:18:56.999Z</time>
      </trkpt>
      <trkpt lat="43.77646" lon="3.83255">
        <ele>450.9</ele>
        <time>2026-05-21T11:18:57.999Z</time>
      </trkpt>
      <trkpt lat="43.77646" lon="3.83255">
        <ele>451</ele>
        <time>2026-05-21T11:18:58.999Z</time>
      </trkpt>
      <trkpt lat="43.77646" lon="3.83255">
        <ele>451.1</ele>
        <time>2026-05-21T11:18:59.999Z</time>
      </trkpt>
      <trkpt lat="43.77646" lon="3.83255">
        <ele>451.2</ele>
        <time>2026-05-21T11:19:00.999Z</time>
      </trkpt>
      <trkpt lat="43.77646" lon="3.83255">
        <ele>451.3</ele>
        <time>2026-05-21T11:19:01.999Z</time>
      </trkpt>
      <trkpt lat="43.77646" lon="3.83255">
        <ele>451.2</ele>
        <time>2026-05-21T11:19:02.999Z</time>
      </trkpt>
      <trkpt lat="43.77646" lon="3.83255">
        <ele>451.2</ele>
        <time>2026-05-21T11:19:03.999Z</time>
      </trkpt>
      <trkpt lat="43.77646" lon="3.83255">
        <ele>451.2</ele>
        <time>2026-05-21T11:19:04.999Z</time>
      </trkpt>
      <trkpt lat="43.77646" lon="3.83255">
        <ele>451.1</ele>
        <time>2026-05-21T11:19:05.999Z</time>
      </trkpt>
      <trkpt lat="43.77646" lon="3.83255">
        <ele>450.9</ele>
        <time>2026-05-21T11:19:06.999Z</time>
      </trkpt>
      <trkpt lat="43.77646" lon="3.83255">
        <ele>450.9</ele>
        <time>2026-05-21T11:19:07.999Z</time>
      </trkpt>
      <trkpt lat="43.77646" lon="3.83255">
        <ele>451.1</ele>
        <time>2026-05-21T11:19:08.999Z</time>
      </trkpt>
      <trkpt lat="43.77646" lon="3.83255">
        <ele>451.2</ele>
        <time>2026-05-21T11:19:09.999Z</time>
      </trkpt>
      <trkpt lat="43.77646" lon="3.83255">
        <ele>451.1</ele>
        <time>2026-05-21T11:19:10.999Z</time>
      </trkpt>
      <trkpt lat="43.77646" lon="3.83256">
        <ele>450.9</ele>
        <time>2026-05-21T11:19:11.999Z</time>
      </trkpt>
      <trkpt lat="43.77647" lon="3.83256">
        <ele>450.8</ele>
        <time>2026-05-21T11:19:12.999Z</time>
      </trkpt>
      <trkpt lat="43.77647" lon="3.83256">
        <ele>450.9</ele>
        <time>2026-05-21T11:19:13.999Z</time>
      </trkpt>
      <trkpt lat="43.77647" lon="3.83256">
        <ele>451</ele>
        <time>2026-05-21T11:19:14.999Z</time>
      </trkpt>
      <trkpt lat="43.77647" lon="3.83256">
        <ele>451</ele>
        <time>2026-05-21T11:19:15.999Z</time>
      </trkpt>
      <trkpt lat="43.77647" lon="3.83256">
        <ele>450.5</ele>
        <time>2026-05-21T11:19:16.999Z</time>
      </trkpt>
      <trkpt lat="43.77647" lon="3.83256">
        <ele>450.4</ele>
        <time>2026-05-21T11:19:17.999Z</time>
      </trkpt>
      <trkpt lat="43.77647" lon="3.83256">
        <ele>450.3</ele>
        <time>2026-05-21T11:19:18.999Z</time>
      </trkpt>
      <trkpt lat="43.77647" lon="3.83256">
        <ele>450.3</ele>
        <time>2026-05-21T11:19:19.999Z</time>
      </trkpt>
      <trkpt lat="43.77647" lon="3.83256">
        <ele>450.3</ele>
        <time>2026-05-21T11:19:20.999Z</time>
      </trkpt>
      <trkpt lat="43.77647" lon="3.83256">
        <ele>450.4</ele>
        <time>2026-05-21T11:19:21.999Z</time>
      </trkpt>
      <trkpt lat="43.77647" lon="3.83256">
        <ele>450.7</ele>
        <time>2026-05-21T11:19:22.999Z</time>
      </trkpt>
      <trkpt lat="43.77647" lon="3.83256">
        <ele>450.8</ele>
        <time>2026-05-21T11:19:23.999Z</time>
      </trkpt>
      <trkpt lat="43.77647" lon="3.83256">
        <ele>451</ele>
        <time>2026-05-21T11:19:24.999Z</time>
      </trkpt>
      <trkpt lat="43.77647" lon="3.83256">
        <ele>451.3</ele>
        <time>2026-05-21T11:19:25.999Z</time>
      </trkpt>
      <trkpt lat="43.77647" lon="3.83256">
        <ele>451.4</ele>
        <time>2026-05-21T11:19:26.999Z</time>
      </trkpt>
      <trkpt lat="43.77647" lon="3.83256">
        <ele>451.4</ele>
        <time>2026-05-21T11:19:27.999Z</time>
      </trkpt>
      <trkpt lat="43.77647" lon="3.83256">
        <ele>451.2</ele>
        <time>2026-05-21T11:19:28.999Z</time>
      </trkpt>
      <trkpt lat="43.77647" lon="3.83256">
        <ele>451.1</ele>
        <time>2026-05-21T11:19:29.999Z</time>
      </trkpt>
      <trkpt lat="43.77647" lon="3.83256">
        <ele>451.1</ele>
        <time>2026-05-21T11:19:30.999Z</time>
      </trkpt>
      <trkpt lat="43.77647" lon="3.83256">
        <ele>451</ele>
        <time>2026-05-21T11:19:31.999Z</time>
      </trkpt>
      <trkpt lat="43.77647" lon="3.83255">
        <ele>450.9</ele>
        <time>2026-05-21T11:19:32.999Z</time>
      </trkpt>
      <trkpt lat="43.77647" lon="3.83255">
        <ele>451.1</ele>
        <time>2026-05-21T11:19:33.999Z</time>
      </trkpt>
      <trkpt lat="43.77647" lon="3.83256">
        <ele>451.3</ele>
        <time>2026-05-21T11:19:34.999Z</time>
      </trkpt>
      <trkpt lat="43.77647" lon="3.83256">
        <ele>451.5</ele>
        <time>2026-05-21T11:19:35.999Z</time>
      </trkpt>
      <trkpt lat="43.77647" lon="3.83256">
        <ele>451.9</ele>
        <time>2026-05-21T11:19:36.999Z</time>
      </trkpt>
      <trkpt lat="43.77647" lon="3.83256">
        <ele>452.4</ele>
        <time>2026-05-21T11:19:37.999Z</time>
      </trkpt>
      <trkpt lat="43.77647" lon="3.83256">
        <ele>452.5</ele>
        <time>2026-05-21T11:19:38.999Z</time>
      </trkpt>
      <trkpt lat="43.77647" lon="3.83256">
        <ele>452.5</ele>
        <time>2026-05-21T11:19:39.999Z</time>
      </trkpt>
      <trkpt lat="43.77647" lon="3.83255">
        <ele>452.7</ele>
        <time>2026-05-21T11:19:40.999Z</time>
      </trkpt>
      <trkpt lat="43.77647" lon="3.83255">
        <ele>452.9</ele>
        <time>2026-05-21T11:19:41.999Z</time>
      </trkpt>
      <trkpt lat="43.77647" lon="3.83256">
        <ele>453</ele>
        <time>2026-05-21T11:19:42.999Z</time>
      </trkpt>
      <trkpt lat="43.77647" lon="3.83256">
        <ele>453.2</ele>
        <time>2026-05-21T11:19:43.999Z</time>
      </trkpt>
      <trkpt lat="43.77647" lon="3.83256">
        <ele>453.3</ele>
        <time>2026-05-21T11:19:44.999Z</time>
      </trkpt>
      <trkpt lat="43.77647" lon="3.83256">
        <ele>453.4</ele>
        <time>2026-05-21T11:19:45.999Z</time>
      </trkpt>
      <trkpt lat="43.77647" lon="3.83256">
        <ele>453.3</ele>
        <time>2026-05-21T11:19:46.999Z</time>
      </trkpt>
      <trkpt lat="43.77647" lon="3.83256">
        <ele>453.2</ele>
        <time>2026-05-21T11:19:47.999Z</time>
      </trkpt>
      <trkpt lat="43.77647" lon="3.83257">
        <ele>453.1</ele>
        <time>2026-05-21T11:19:48.999Z</time>
      </trkpt>
      <trkpt lat="43.77647" lon="3.83258">
        <ele>453</ele>
        <time>2026-05-21T11:19:49.999Z</time>
      </trkpt>
      <trkpt lat="43.77647" lon="3.83258">
        <ele>453</ele>
        <time>2026-05-21T11:19:50.999Z</time>
      </trkpt>
      <trkpt lat="43.77647" lon="3.83258">
        <ele>453.2</ele>
        <time>2026-05-21T11:19:51.999Z</time>
      </trkpt>
      <trkpt lat="43.77647" lon="3.83258">
        <ele>453.1</ele>
        <time>2026-05-21T11:19:52.999Z</time>
      </trkpt>
      <trkpt lat="43.77647" lon="3.83258">
        <ele>453.1</ele>
        <time>2026-05-21T11:19:53.999Z</time>
      </trkpt>
      <trkpt lat="43.77647" lon="3.83258">
        <ele>453.1</ele>
        <time>2026-05-21T11:19:54.999Z</time>
      </trkpt>
      <trkpt lat="43.77647" lon="3.83258">
        <ele>453.2</ele>
        <time>2026-05-21T11:19:55.999Z</time>
      </trkpt>
      <trkpt lat="43.77647" lon="3.83258">
        <ele>453.1</ele>
        <time>2026-05-21T11:19:56.999Z</time>
      </trkpt>
      <trkpt lat="43.77647" lon="3.83258">
        <ele>453.1</ele>
        <time>2026-05-21T11:19:57.999Z</time>
      </trkpt>
      <trkpt lat="43.77647" lon="3.83258">
        <ele>453.1</ele>
        <time>2026-05-21T11:19:58.999Z</time>
      </trkpt>
      <trkpt lat="43.77647" lon="3.83258">
        <ele>453.1</ele>
        <time>2026-05-21T11:19:59.999Z</time>
      </trkpt>
      <trkpt lat="43.77647" lon="3.83258">
        <ele>453.1</ele>
        <time>2026-05-21T11:20:00.999Z</time>
      </trkpt>
      <trkpt lat="43.77648" lon="3.83258">
        <ele>453</ele>
        <time>2026-05-21T11:20:01.999Z</time>
      </trkpt>
      <trkpt lat="43.77648" lon="3.83257">
        <ele>452.9</ele>
        <time>2026-05-21T11:20:02.999Z</time>
      </trkpt>
      <trkpt lat="43.77648" lon="3.83257">
        <ele>453</ele>
        <time>2026-05-21T11:20:03.999Z</time>
      </trkpt>
      <trkpt lat="43.77648" lon="3.83257">
        <ele>453.3</ele>
        <time>2026-05-21T11:20:04.999Z</time>
      </trkpt>
      <trkpt lat="43.77648" lon="3.83257">
        <ele>453.7</ele>
        <time>2026-05-21T11:20:05.999Z</time>
      </trkpt>
      <trkpt lat="43.77648" lon="3.83258">
        <ele>454.1</ele>
        <time>2026-05-21T11:20:06.999Z</time>
      </trkpt>
      <trkpt lat="43.77648" lon="3.83257">
        <ele>454.4</ele>
        <time>2026-05-21T11:20:07.999Z</time>
      </trkpt>
      <trkpt lat="43.77648" lon="3.83257">
        <ele>454.5</ele>
        <time>2026-05-21T11:20:08.999Z</time>
      </trkpt>
      <trkpt lat="43.77648" lon="3.83257">
        <ele>454.5</ele>
        <time>2026-05-21T11:20:09.999Z</time>
      </trkpt>
      <trkpt lat="43.77648" lon="3.83257">
        <ele>454.2</ele>
        <time>2026-05-21T11:20:10.999Z</time>
      </trkpt>
      <trkpt lat="43.77648" lon="3.83257">
        <ele>454</ele>
        <time>2026-05-21T11:20:11.999Z</time>
      </trkpt>
      <trkpt lat="43.77648" lon="3.83257">
        <ele>453.7</ele>
        <time>2026-05-21T11:20:12.999Z</time>
      </trkpt>
      <trkpt lat="43.77648" lon="3.83257">
        <ele>453.4</ele>
        <time>2026-05-21T11:20:13.999Z</time>
      </trkpt>
      <trkpt lat="43.77647" lon="3.83257">
        <ele>453.3</ele>
        <time>2026-05-21T11:20:14.999Z</time>
      </trkpt>
      <trkpt lat="43.77647" lon="3.83257">
        <ele>453.4</ele>
        <time>2026-05-21T11:20:15.999Z</time>
      </trkpt>
      <trkpt lat="43.77647" lon="3.83257">
        <ele>453.2</ele>
        <time>2026-05-21T11:20:16.999Z</time>
      </trkpt>
      <trkpt lat="43.77647" lon="3.83257">
        <ele>453.2</ele>
        <time>2026-05-21T11:20:17.999Z</time>
      </trkpt>
      <trkpt lat="43.77648" lon="3.83257">
        <ele>453.3</ele>
        <time>2026-05-21T11:20:18.999Z</time>
      </trkpt>
      <trkpt lat="43.77648" lon="3.83257">
        <ele>453.4</ele>
        <time>2026-05-21T11:20:19.999Z</time>
      </trkpt>
      <trkpt lat="43.77648" lon="3.83257">
        <ele>453.4</ele>
        <time>2026-05-21T11:20:20.999Z</time>
      </trkpt>
      <trkpt lat="43.77648" lon="3.83257">
        <ele>453.3</ele>
        <time>2026-05-21T11:20:21.999Z</time>
      </trkpt>
      <trkpt lat="43.77648" lon="3.83257">
        <ele>453.2</ele>
        <time>2026-05-21T11:20:22.999Z</time>
      </trkpt>
      <trkpt lat="43.77648" lon="3.83257">
        <ele>453.2</ele>
        <time>2026-05-21T11:20:23.999Z</time>
      </trkpt>
      <trkpt lat="43.77648" lon="3.83257">
        <ele>453.3</ele>
        <time>2026-05-21T11:20:24.999Z</time>
      </trkpt>
      <trkpt lat="43.77648" lon="3.83257">
        <ele>453.6</ele>
        <time>2026-05-21T11:20:25.999Z</time>
      </trkpt>
      <trkpt lat="43.77648" lon="3.83257">
        <ele>453.6</ele>
        <time>2026-05-21T11:20:26.999Z</time>
      </trkpt>
      <trkpt lat="43.77648" lon="3.83257">
        <ele>453.5</ele>
        <time>2026-05-21T11:20:27.999Z</time>
      </trkpt>
      <trkpt lat="43.77648" lon="3.83257">
        <ele>453.5</ele>
        <time>2026-05-21T11:20:28.999Z</time>
      </trkpt>
      <trkpt lat="43.77648" lon="3.83257">
        <ele>453.5</ele>
        <time>2026-05-21T11:20:29.999Z</time>
      </trkpt>
      <trkpt lat="43.77648" lon="3.83257">
        <ele>453.5</ele>
        <time>2026-05-21T11:20:30.999Z</time>
      </trkpt>
      <trkpt lat="43.77648" lon="3.83257">
        <ele>453.5</ele>
        <time>2026-05-21T11:20:31.999Z</time>
      </trkpt>
      <trkpt lat="43.77648" lon="3.83257">
        <ele>453.6</ele>
        <time>2026-05-21T11:20:32.999Z</time>
      </trkpt>
      <trkpt lat="43.77648" lon="3.83257">
        <ele>453.8</ele>
        <time>2026-05-21T11:20:33.999Z</time>
      </trkpt>
      <trkpt lat="43.77648" lon="3.83257">
        <ele>454.1</ele>
        <time>2026-05-21T11:20:34.999Z</time>
      </trkpt>
      <trkpt lat="43.77648" lon="3.83257">
        <ele>454.2</ele>
        <time>2026-05-21T11:20:35.999Z</time>
      </trkpt>
      <trkpt lat="43.77648" lon="3.83257">
        <ele>454.4</ele>
        <time>2026-05-21T11:20:36.999Z</time>
      </trkpt>
      <trkpt lat="43.77648" lon="3.83257">
        <ele>454.3</ele>
        <time>2026-05-21T11:20:37.999Z</time>
      </trkpt>
      <trkpt lat="43.77648" lon="3.83257">
        <ele>454.2</ele>
        <time>2026-05-21T11:20:38.999Z</time>
      </trkpt>
      <trkpt lat="43.77648" lon="3.83257">
        <ele>454.1</ele>
        <time>2026-05-21T11:20:39.999Z</time>
      </trkpt>
      <trkpt lat="43.77648" lon="3.83257">
        <ele>454.2</ele>
        <time>2026-05-21T11:20:40.999Z</time>
      </trkpt>
      <trkpt lat="43.77648" lon="3.83257">
        <ele>453.9</ele>
        <time>2026-05-21T11:20:41.999Z</time>
      </trkpt>
      <trkpt lat="43.77648" lon="3.83257">
        <ele>453.7</ele>
        <time>2026-05-21T11:20:42.999Z</time>
      </trkpt>
      <trkpt lat="43.77648" lon="3.83257">
        <ele>453.5</ele>
        <time>2026-05-21T11:20:43.999Z</time>
      </trkpt>
      <trkpt lat="43.77648" lon="3.83257">
        <ele>453.6</ele>
        <time>2026-05-21T11:20:44.999Z</time>
      </trkpt>
      <trkpt lat="43.77648" lon="3.83257">
        <ele>453.6</ele>
        <time>2026-05-21T11:20:45.999Z</time>
      </trkpt>
      <trkpt lat="43.77648" lon="3.83257">
        <ele>453.4</ele>
        <time>2026-05-21T11:20:46.999Z</time>
      </trkpt>
      <trkpt lat="43.77648" lon="3.83257">
        <ele>452.9</ele>
        <time>2026-05-21T11:20:47.999Z</time>
      </trkpt>
      <trkpt lat="43.77648" lon="3.83257">
        <ele>452.6</ele>
        <time>2026-05-21T11:20:48.999Z</time>
      </trkpt>
      <trkpt lat="43.77648" lon="3.83257">
        <ele>452.3</ele>
        <time>2026-05-21T11:20:49.999Z</time>
      </trkpt>
      <trkpt lat="43.77648" lon="3.83257">
        <ele>452.1</ele>
        <time>2026-05-21T11:20:50.999Z</time>
      </trkpt>
      <trkpt lat="43.77647" lon="3.83257">
        <ele>452.1</ele>
        <time>2026-05-21T11:20:51.999Z</time>
      </trkpt>
      <trkpt lat="43.77647" lon="3.83257">
        <ele>452</ele>
        <time>2026-05-21T11:20:52.999Z</time>
      </trkpt>
      <trkpt lat="43.77647" lon="3.83257">
        <ele>452.1</ele>
        <time>2026-05-21T11:20:53.999Z</time>
      </trkpt>
      <trkpt lat="43.77647" lon="3.83257">
        <ele>452.1</ele>
        <time>2026-05-21T11:20:54.999Z</time>
      </trkpt>
      <trkpt lat="43.77647" lon="3.83257">
        <ele>452.1</ele>
        <time>2026-05-21T11:20:55.999Z</time>
      </trkpt>
      <trkpt lat="43.77647" lon="3.83257">
        <ele>452</ele>
        <time>2026-05-21T11:20:56.999Z</time>
      </trkpt>
      <trkpt lat="43.77647" lon="3.83257">
        <ele>452.1</ele>
        <time>2026-05-21T11:20:57.999Z</time>
      </trkpt>
      <trkpt lat="43.77647" lon="3.83257">
        <ele>452.2</ele>
        <time>2026-05-21T11:20:58.999Z</time>
      </trkpt>
      <trkpt lat="43.77647" lon="3.83257">
        <ele>452.5</ele>
        <time>2026-05-21T11:20:59.999Z</time>
      </trkpt>
      <trkpt lat="43.77647" lon="3.83257">
        <ele>452.6</ele>
        <time>2026-05-21T11:21:00.999Z</time>
      </trkpt>
      <trkpt lat="43.77647" lon="3.83257">
        <ele>452.3</ele>
        <time>2026-05-21T11:21:01.999Z</time>
      </trkpt>
      <trkpt lat="43.77647" lon="3.83257">
        <ele>452.1</ele>
        <time>2026-05-21T11:21:02.999Z</time>
      </trkpt>
      <trkpt lat="43.77647" lon="3.83257">
        <ele>451.7</ele>
        <time>2026-05-21T11:21:03.999Z</time>
      </trkpt>
      <trkpt lat="43.77647" lon="3.83257">
        <ele>451.2</ele>
        <time>2026-05-21T11:21:04.999Z</time>
      </trkpt>
      <trkpt lat="43.77647" lon="3.83257">
        <ele>450.9</ele>
        <time>2026-05-21T11:21:05.999Z</time>
      </trkpt>
      <trkpt lat="43.77647" lon="3.83257">
        <ele>450.4</ele>
        <time>2026-05-21T11:21:06.999Z</time>
      </trkpt>
      <trkpt lat="43.77647" lon="3.83257">
        <ele>450</ele>
        <time>2026-05-21T11:21:07.999Z</time>
      </trkpt>
      <trkpt lat="43.77647" lon="3.83257">
        <ele>449.7</ele>
        <time>2026-05-21T11:21:08.999Z</time>
      </trkpt>
      <trkpt lat="43.77647" lon="3.83257">
        <ele>449.4</ele>
        <time>2026-05-21T11:21:09.999Z</time>
      </trkpt>
      <trkpt lat="43.77647" lon="3.83257">
        <ele>449.2</ele>
        <time>2026-05-21T11:21:10.999Z</time>
      </trkpt>
      <trkpt lat="43.77647" lon="3.83257">
        <ele>449.1</ele>
        <time>2026-05-21T11:21:11.999Z</time>
      </trkpt>
      <trkpt lat="43.77647" lon="3.83258">
        <ele>448.9</ele>
        <time>2026-05-21T11:21:12.999Z</time>
      </trkpt>
      <trkpt lat="43.77647" lon="3.83257">
        <ele>448.6</ele>
        <time>2026-05-21T11:21:13.999Z</time>
      </trkpt>
      <trkpt lat="43.77647" lon="3.83258">
        <ele>448.4</ele>
        <time>2026-05-21T11:21:14.999Z</time>
      </trkpt>
      <trkpt lat="43.77647" lon="3.83258">
        <ele>448.4</ele>
        <time>2026-05-21T11:21:15.999Z</time>
      </trkpt>
      <trkpt lat="43.77647" lon="3.83257">
        <ele>448.1</ele>
        <time>2026-05-21T11:21:16.999Z</time>
      </trkpt>
      <trkpt lat="43.77647" lon="3.83257">
        <ele>448</ele>
        <time>2026-05-21T11:21:17.999Z</time>
      </trkpt>
      <trkpt lat="43.77647" lon="3.83257">
        <ele>447.9</ele>
        <time>2026-05-21T11:21:18.999Z</time>
      </trkpt>
      <trkpt lat="43.77647" lon="3.83257">
        <ele>447.8</ele>
        <time>2026-05-21T11:21:19.999Z</time>
      </trkpt>
      <trkpt lat="43.77647" lon="3.83257">
        <ele>447.6</ele>
        <time>2026-05-21T11:21:20.999Z</time>
      </trkpt>
      <trkpt lat="43.77647" lon="3.83257">
        <ele>447.4</ele>
        <time>2026-05-21T11:21:21.999Z</time>
      </trkpt>
      <trkpt lat="43.77647" lon="3.83257">
        <ele>447.4</ele>
        <time>2026-05-21T11:21:22.999Z</time>
      </trkpt>
      <trkpt lat="43.77647" lon="3.83257">
        <ele>447.4</ele>
        <time>2026-05-21T11:21:23.999Z</time>
      </trkpt>
      <trkpt lat="43.77647" lon="3.83257">
        <ele>447.3</ele>
        <time>2026-05-21T11:21:24.999Z</time>
      </trkpt>
      <trkpt lat="43.77647" lon="3.83258">
        <ele>447</ele>
        <time>2026-05-21T11:21:25.999Z</time>
      </trkpt>
      <trkpt lat="43.77647" lon="3.83258">
        <ele>446.9</ele>
        <time>2026-05-21T11:21:26.999Z</time>
      </trkpt>
      <trkpt lat="43.77647" lon="3.83258">
        <ele>446.8</ele>
        <time>2026-05-21T11:21:27.999Z</time>
      </trkpt>
      <trkpt lat="43.77647" lon="3.83258">
        <ele>446.7</ele>
        <time>2026-05-21T11:21:28.999Z</time>
      </trkpt>
      <trkpt lat="43.77647" lon="3.83258">
        <ele>446.9</ele>
        <time>2026-05-21T11:21:29.999Z</time>
      </trkpt>
      <trkpt lat="43.77647" lon="3.83258">
        <ele>446.9</ele>
        <time>2026-05-21T11:21:30.999Z</time>
      </trkpt>
      <trkpt lat="43.77647" lon="3.83258">
        <ele>447</ele>
        <time>2026-05-21T11:21:31.999Z</time>
      </trkpt>
      <trkpt lat="43.77647" lon="3.83257">
        <ele>447.2</ele>
        <time>2026-05-21T11:21:32.999Z</time>
      </trkpt>
      <trkpt lat="43.77647" lon="3.83257">
        <ele>447.2</ele>
        <time>2026-05-21T11:21:33.999Z</time>
      </trkpt>
      <trkpt lat="43.77647" lon="3.83257">
        <ele>447.4</ele>
        <time>2026-05-21T11:21:34.999Z</time>
      </trkpt>
      <trkpt lat="43.77647" lon="3.83257">
        <ele>447.5</ele>
        <time>2026-05-21T11:21:35.999Z</time>
      </trkpt>
      <trkpt lat="43.77647" lon="3.83257">
        <ele>447.8</ele>
        <time>2026-05-21T11:21:36.999Z</time>
      </trkpt>
      <trkpt lat="43.77647" lon="3.83257">
        <ele>447.9</ele>
        <time>2026-05-21T11:21:37.999Z</time>
      </trkpt>
      <trkpt lat="43.77647" lon="3.83257">
        <ele>447.9</ele>
        <time>2026-05-21T11:21:38.999Z</time>
      </trkpt>
      <trkpt lat="43.77647" lon="3.83257">
        <ele>448.4</ele>
        <time>2026-05-21T11:21:39.999Z</time>
      </trkpt>
      <trkpt lat="43.77647" lon="3.83257">
        <ele>448.7</ele>
        <time>2026-05-21T11:21:40.999Z</time>
      </trkpt>
      <trkpt lat="43.77647" lon="3.83257">
        <ele>448.8</ele>
        <time>2026-05-21T11:21:41.999Z</time>
      </trkpt>
      <trkpt lat="43.77647" lon="3.83257">
        <ele>449</ele>
        <time>2026-05-21T11:21:42.999Z</time>
      </trkpt>
      <trkpt lat="43.77647" lon="3.83257">
        <ele>449.1</ele>
        <time>2026-05-21T11:21:43.999Z</time>
      </trkpt>
      <trkpt lat="43.77647" lon="3.83257">
        <ele>449.2</ele>
        <time>2026-05-21T11:21:44.999Z</time>
      </trkpt>
      <trkpt lat="43.77647" lon="3.83257">
        <ele>449.3</ele>
        <time>2026-05-21T11:21:45.999Z</time>
      </trkpt>
      <trkpt lat="43.77647" lon="3.83257">
        <ele>449.5</ele>
        <time>2026-05-21T11:21:46.999Z</time>
      </trkpt>
      <trkpt lat="43.77647" lon="3.83257">
        <ele>449.6</ele>
        <time>2026-05-21T11:21:47.999Z</time>
      </trkpt>
      <trkpt lat="43.77647" lon="3.83257">
        <ele>449.5</ele>
        <time>2026-05-21T11:21:48.999Z</time>
      </trkpt>
      <trkpt lat="43.77647" lon="3.83257">
        <ele>449.8</ele>
        <time>2026-05-21T11:21:49.999Z</time>
      </trkpt>
      <trkpt lat="43.77647" lon="3.83257">
        <ele>449.8</ele>
        <time>2026-05-21T11:21:50.999Z</time>
      </trkpt>
      <trkpt lat="43.77647" lon="3.83257">
        <ele>449.7</ele>
        <time>2026-05-21T11:21:51.999Z</time>
      </trkpt>
      <trkpt lat="43.77647" lon="3.83257">
        <ele>449.5</ele>
        <time>2026-05-21T11:21:52.999Z</time>
      </trkpt>
      <trkpt lat="43.77647" lon="3.83257">
        <ele>449.1</ele>
        <time>2026-05-21T11:21:53.999Z</time>
      </trkpt>
      <trkpt lat="43.77647" lon="3.83257">
        <ele>449</ele>
        <time>2026-05-21T11:21:54.999Z</time>
      </trkpt>
      <trkpt lat="43.77647" lon="3.83257">
        <ele>448.9</ele>
        <time>2026-05-21T11:21:55.999Z</time>
      </trkpt>
      <trkpt lat="43.77647" lon="3.83257">
        <ele>449.1</ele>
        <time>2026-05-21T11:21:56.999Z</time>
      </trkpt>
      <trkpt lat="43.77647" lon="3.83257">
        <ele>449.3</ele>
        <time>2026-05-21T11:21:57.999Z</time>
      </trkpt>
      <trkpt lat="43.77647" lon="3.83257">
        <ele>449.4</ele>
        <time>2026-05-21T11:21:58.999Z</time>
      </trkpt>
      <trkpt lat="43.77647" lon="3.83257">
        <ele>449.4</ele>
        <time>2026-05-21T11:21:59.999Z</time>
      </trkpt>
      <trkpt lat="43.77647" lon="3.83258">
        <ele>449.4</ele>
        <time>2026-05-21T11:22:00.999Z</time>
      </trkpt>
      <trkpt lat="43.77647" lon="3.83258">
        <ele>449.7</ele>
        <time>2026-05-21T11:22:01.999Z</time>
      </trkpt>
      <trkpt lat="43.77647" lon="3.83258">
        <ele>450.1</ele>
        <time>2026-05-21T11:22:02.999Z</time>
      </trkpt>
      <trkpt lat="43.77647" lon="3.83258">
        <ele>450.2</ele>
        <time>2026-05-21T11:22:03.999Z</time>
      </trkpt>
      <trkpt lat="43.77647" lon="3.83258">
        <ele>450.2</ele>
        <time>2026-05-21T11:22:04.999Z</time>
      </trkpt>
      <trkpt lat="43.77647" lon="3.83258">
        <ele>450</ele>
        <time>2026-05-21T11:22:05.999Z</time>
      </trkpt>
      <trkpt lat="43.77647" lon="3.83258">
        <ele>449.6</ele>
        <time>2026-05-21T11:22:06.999Z</time>
      </trkpt>
      <trkpt lat="43.77647" lon="3.83258">
        <ele>449.3</ele>
        <time>2026-05-21T11:22:07.999Z</time>
      </trkpt>
      <trkpt lat="43.77647" lon="3.83258">
        <ele>449.1</ele>
        <time>2026-05-21T11:22:08.999Z</time>
      </trkpt>
      <trkpt lat="43.77647" lon="3.83258">
        <ele>448.9</ele>
        <time>2026-05-21T11:22:09.999Z</time>
      </trkpt>
      <trkpt lat="43.77648" lon="3.83258">
        <ele>448.9</ele>
        <time>2026-05-21T11:22:10.999Z</time>
      </trkpt>
      <trkpt lat="43.77648" lon="3.83257">
        <ele>448.7</ele>
        <time>2026-05-21T11:22:11.999Z</time>
      </trkpt>
      <trkpt lat="43.77648" lon="3.83257">
        <ele>448.7</ele>
        <time>2026-05-21T11:22:12.999Z</time>
      </trkpt>
      <trkpt lat="43.77648" lon="3.83257">
        <ele>448.6</ele>
        <time>2026-05-21T11:22:13.999Z</time>
      </trkpt>
      <trkpt lat="43.77648" lon="3.83257">
        <ele>448.4</ele>
        <time>2026-05-21T11:22:14.999Z</time>
      </trkpt>
      <trkpt lat="43.77648" lon="3.83257">
        <ele>448.1</ele>
        <time>2026-05-21T11:22:15.999Z</time>
      </trkpt>
      <trkpt lat="43.77648" lon="3.83257">
        <ele>448</ele>
        <time>2026-05-21T11:22:16.999Z</time>
      </trkpt>
      <trkpt lat="43.77648" lon="3.83257">
        <ele>447.7</ele>
        <time>2026-05-21T11:22:17.999Z</time>
      </trkpt>
      <trkpt lat="43.77648" lon="3.83257">
        <ele>447.7</ele>
        <time>2026-05-21T11:22:18.999Z</time>
      </trkpt>
      <trkpt lat="43.77648" lon="3.83257">
        <ele>447.7</ele>
        <time>2026-05-21T11:22:19.999Z</time>
      </trkpt>
      <trkpt lat="43.77648" lon="3.83257">
        <ele>447.9</ele>
        <time>2026-05-21T11:22:20.999Z</time>
      </trkpt>
      <trkpt lat="43.77648" lon="3.83257">
        <ele>448.1</ele>
        <time>2026-05-21T11:22:21.999Z</time>
      </trkpt>
      <trkpt lat="43.77648" lon="3.83257">
        <ele>448.1</ele>
        <time>2026-05-21T11:22:22.999Z</time>
      </trkpt>
      <trkpt lat="43.77648" lon="3.83257">
        <ele>448</ele>
        <time>2026-05-21T11:22:23.999Z</time>
      </trkpt>
      <trkpt lat="43.77648" lon="3.83257">
        <ele>448</ele>
        <time>2026-05-21T11:22:24.999Z</time>
      </trkpt>
      <trkpt lat="43.77648" lon="3.83257">
        <ele>448.2</ele>
        <time>2026-05-21T11:22:25.999Z</time>
      </trkpt>
      <trkpt lat="43.77648" lon="3.83257">
        <ele>448.4</ele>
        <time>2026-05-21T11:22:26.999Z</time>
      </trkpt>
      <trkpt lat="43.77648" lon="3.83257">
        <ele>448.3</ele>
        <time>2026-05-21T11:22:27.999Z</time>
      </trkpt>
      <trkpt lat="43.77648" lon="3.83257">
        <ele>448.3</ele>
        <time>2026-05-21T11:22:28.999Z</time>
      </trkpt>
      <trkpt lat="43.77648" lon="3.83257">
        <ele>448.5</ele>
        <time>2026-05-21T11:22:29.999Z</time>
      </trkpt>
      <trkpt lat="43.77648" lon="3.83257">
        <ele>448.9</ele>
        <time>2026-05-21T11:22:30.999Z</time>
      </trkpt>
      <trkpt lat="43.77648" lon="3.83257">
        <ele>449</ele>
        <time>2026-05-21T11:22:31.999Z</time>
      </trkpt>
      <trkpt lat="43.77648" lon="3.83256">
        <ele>449.4</ele>
        <time>2026-05-21T11:22:32.999Z</time>
      </trkpt>
      <trkpt lat="43.77648" lon="3.83256">
        <ele>449.8</ele>
        <time>2026-05-21T11:22:33.999Z</time>
      </trkpt>
      <trkpt lat="43.77648" lon="3.83256">
        <ele>450</ele>
        <time>2026-05-21T11:22:34.999Z</time>
      </trkpt>
      <trkpt lat="43.77648" lon="3.83256">
        <ele>450.3</ele>
        <time>2026-05-21T11:22:35.999Z</time>
      </trkpt>
      <trkpt lat="43.77648" lon="3.83256">
        <ele>450.5</ele>
        <time>2026-05-21T11:22:36.999Z</time>
      </trkpt>
      <trkpt lat="43.77648" lon="3.83257">
        <ele>450.8</ele>
        <time>2026-05-21T11:22:37.999Z</time>
      </trkpt>
      <trkpt lat="43.77648" lon="3.83257">
        <ele>450.7</ele>
        <time>2026-05-21T11:22:38.999Z</time>
      </trkpt>
      <trkpt lat="43.77648" lon="3.83256">
        <ele>450.8</ele>
        <time>2026-05-21T11:22:39.999Z</time>
      </trkpt>
      <trkpt lat="43.77648" lon="3.83256">
        <ele>450.8</ele>
        <time>2026-05-21T11:22:40.999Z</time>
      </trkpt>
      <trkpt lat="43.77648" lon="3.83256">
        <ele>450.8</ele>
        <time>2026-05-21T11:22:41.999Z</time>
      </trkpt>
      <trkpt lat="43.77648" lon="3.83256">
        <ele>450.8</ele>
        <time>2026-05-21T11:22:42.999Z</time>
      </trkpt>
      <trkpt lat="43.77648" lon="3.83256">
        <ele>450.9</ele>
        <time>2026-05-21T11:22:43.999Z</time>
      </trkpt>
      <trkpt lat="43.77648" lon="3.83256">
        <ele>451.1</ele>
        <time>2026-05-21T11:22:44.999Z</time>
      </trkpt>
      <trkpt lat="43.77648" lon="3.83256">
        <ele>451</ele>
        <time>2026-05-21T11:22:45.999Z</time>
      </trkpt>
      <trkpt lat="43.77648" lon="3.83256">
        <ele>451</ele>
        <time>2026-05-21T11:22:46.999Z</time>
      </trkpt>
      <trkpt lat="43.77648" lon="3.83256">
        <ele>451</ele>
        <time>2026-05-21T11:22:47.999Z</time>
      </trkpt>
      <trkpt lat="43.77648" lon="3.83256">
        <ele>450.8</ele>
        <time>2026-05-21T11:22:48.999Z</time>
      </trkpt>
      <trkpt lat="43.77648" lon="3.83256">
        <ele>450.8</ele>
        <time>2026-05-21T11:22:49.999Z</time>
      </trkpt>
      <trkpt lat="43.77648" lon="3.83256">
        <ele>451.1</ele>
        <time>2026-05-21T11:22:50.999Z</time>
      </trkpt>
      <trkpt lat="43.77648" lon="3.83256">
        <ele>451.3</ele>
        <time>2026-05-21T11:22:51.999Z</time>
      </trkpt>
      <trkpt lat="43.77648" lon="3.83256">
        <ele>451.5</ele>
        <time>2026-05-21T11:22:52.999Z</time>
      </trkpt>
      <trkpt lat="43.77648" lon="3.83256">
        <ele>451.4</ele>
        <time>2026-05-21T11:22:53.999Z</time>
      </trkpt>
      <trkpt lat="43.77648" lon="3.83255">
        <ele>451.2</ele>
        <time>2026-05-21T11:22:54.999Z</time>
      </trkpt>
      <trkpt lat="43.77648" lon="3.83255">
        <ele>451.1</ele>
        <time>2026-05-21T11:22:55.999Z</time>
      </trkpt>
      <trkpt lat="43.77648" lon="3.83255">
        <ele>451.2</ele>
        <time>2026-05-21T11:22:56.999Z</time>
      </trkpt>
      <trkpt lat="43.77648" lon="3.83255">
        <ele>451.2</ele>
        <time>2026-05-21T11:22:57.999Z</time>
      </trkpt>
      <trkpt lat="43.77648" lon="3.83255">
        <ele>451.2</ele>
        <time>2026-05-21T11:22:58.999Z</time>
      </trkpt>
      <trkpt lat="43.77648" lon="3.83255">
        <ele>451.2</ele>
        <time>2026-05-21T11:22:59.999Z</time>
      </trkpt>
      <trkpt lat="43.77648" lon="3.83255">
        <ele>451.1</ele>
        <time>2026-05-21T11:23:00.999Z</time>
      </trkpt>
      <trkpt lat="43.77648" lon="3.83255">
        <ele>451</ele>
        <time>2026-05-21T11:23:01.999Z</time>
      </trkpt>
      <trkpt lat="43.77648" lon="3.83255">
        <ele>450.9</ele>
        <time>2026-05-21T11:23:02.999Z</time>
      </trkpt>
      <trkpt lat="43.77648" lon="3.83255">
        <ele>450.8</ele>
        <time>2026-05-21T11:23:04.000Z</time>
      </trkpt>
      <trkpt lat="43.77648" lon="3.83255">
        <ele>450.6</ele>
        <time>2026-05-21T11:23:05.000Z</time>
      </trkpt>
      <trkpt lat="43.77648" lon="3.83255">
        <ele>450.7</ele>
        <time>2026-05-21T11:23:06.000Z</time>
      </trkpt>
      <trkpt lat="43.77648" lon="3.83255">
        <ele>450.4</ele>
        <time>2026-05-21T11:23:07.000Z</time>
      </trkpt>
      <trkpt lat="43.77648" lon="3.83255">
        <ele>450.4</ele>
        <time>2026-05-21T11:23:08.000Z</time>
      </trkpt>
      <trkpt lat="43.77648" lon="3.83255">
        <ele>450.4</ele>
        <time>2026-05-21T11:23:09.000Z</time>
      </trkpt>
      <trkpt lat="43.77648" lon="3.83255">
        <ele>450.6</ele>
        <time>2026-05-21T11:23:10.000Z</time>
      </trkpt>
      <trkpt lat="43.77648" lon="3.83255">
        <ele>450.6</ele>
        <time>2026-05-21T11:23:11.000Z</time>
      </trkpt>
      <trkpt lat="43.77648" lon="3.83255">
        <ele>450.7</ele>
        <time>2026-05-21T11:23:12.000Z</time>
      </trkpt>
      <trkpt lat="43.77648" lon="3.83255">
        <ele>450.6</ele>
        <time>2026-05-21T11:23:13.000Z</time>
      </trkpt>
      <trkpt lat="43.77648" lon="3.83255">
        <ele>450.6</ele>
        <time>2026-05-21T11:23:14.000Z</time>
      </trkpt>
      <trkpt lat="43.77648" lon="3.83255">
        <ele>450.5</ele>
        <time>2026-05-21T11:23:15.000Z</time>
      </trkpt>
      <trkpt lat="43.77648" lon="3.83255">
        <ele>450.5</ele>
        <time>2026-05-21T11:23:16.000Z</time>
      </trkpt>
      <trkpt lat="43.77648" lon="3.83254">
        <ele>450.5</ele>
        <time>2026-05-21T11:23:17.000Z</time>
      </trkpt>
      <trkpt lat="43.77648" lon="3.83254">
        <ele>450.4</ele>
        <time>2026-05-21T11:23:18.000Z</time>
      </trkpt>
      <trkpt lat="43.77648" lon="3.83254">
        <ele>450.2</ele>
        <time>2026-05-21T11:23:19.000Z</time>
      </trkpt>
      <trkpt lat="43.77648" lon="3.83254">
        <ele>450.1</ele>
        <time>2026-05-21T11:23:20.000Z</time>
      </trkpt>
      <trkpt lat="43.77648" lon="3.83254">
        <ele>450</ele>
        <time>2026-05-21T11:23:21.000Z</time>
      </trkpt>
      <trkpt lat="43.77648" lon="3.83254">
        <ele>449.8</ele>
        <time>2026-05-21T11:23:22.000Z</time>
      </trkpt>
      <trkpt lat="43.77648" lon="3.83254">
        <ele>449.7</ele>
        <time>2026-05-21T11:23:23.000Z</time>
      </trkpt>
      <trkpt lat="43.77648" lon="3.83254">
        <ele>449.7</ele>
        <time>2026-05-21T11:23:24.000Z</time>
      </trkpt>
      <trkpt lat="43.77648" lon="3.83254">
        <ele>449.9</ele>
        <time>2026-05-21T11:23:25.000Z</time>
      </trkpt>
      <trkpt lat="43.77648" lon="3.83254">
        <ele>450.1</ele>
        <time>2026-05-21T11:23:26.000Z</time>
      </trkpt>
      <trkpt lat="43.77648" lon="3.83254">
        <ele>450.1</ele>
        <time>2026-05-21T11:23:27.000Z</time>
      </trkpt>
      <trkpt lat="43.77648" lon="3.83254">
        <ele>450.1</ele>
        <time>2026-05-21T11:23:28.000Z</time>
      </trkpt>
      <trkpt lat="43.77648" lon="3.83254">
        <ele>450</ele>
        <time>2026-05-21T11:23:29.000Z</time>
      </trkpt>
      <trkpt lat="43.77648" lon="3.83254">
        <ele>450.1</ele>
        <time>2026-05-21T11:23:30.000Z</time>
      </trkpt>
      <trkpt lat="43.77648" lon="3.83254">
        <ele>450</ele>
        <time>2026-05-21T11:23:31.000Z</time>
      </trkpt>
      <trkpt lat="43.77648" lon="3.83254">
        <ele>449.9</ele>
        <time>2026-05-21T11:23:32.000Z</time>
      </trkpt>
      <trkpt lat="43.77648" lon="3.83254">
        <ele>450</ele>
        <time>2026-05-21T11:23:33.000Z</time>
      </trkpt>
      <trkpt lat="43.77648" lon="3.83254">
        <ele>449.8</ele>
        <time>2026-05-21T11:23:34.000Z</time>
      </trkpt>
      <trkpt lat="43.77648" lon="3.83254">
        <ele>449.8</ele>
        <time>2026-05-21T11:23:35.000Z</time>
      </trkpt>
      <trkpt lat="43.77648" lon="3.83254">
        <ele>449.7</ele>
        <time>2026-05-21T11:23:36.000Z</time>
      </trkpt>
      <trkpt lat="43.77648" lon="3.83254">
        <ele>449.9</ele>
        <time>2026-05-21T11:23:37.000Z</time>
      </trkpt>
      <trkpt lat="43.77648" lon="3.83254">
        <ele>450.1</ele>
        <time>2026-05-21T11:23:38.000Z</time>
      </trkpt>
      <trkpt lat="43.77648" lon="3.83254">
        <ele>450.1</ele>
        <time>2026-05-21T11:23:39.000Z</time>
      </trkpt>
      <trkpt lat="43.77648" lon="3.83254">
        <ele>450</ele>
        <time>2026-05-21T11:23:40.000Z</time>
      </trkpt>
      <trkpt lat="43.77648" lon="3.83254">
        <ele>449.8</ele>
        <time>2026-05-21T11:23:41.000Z</time>
      </trkpt>
      <trkpt lat="43.77648" lon="3.83254">
        <ele>449.7</ele>
        <time>2026-05-21T11:23:42.000Z</time>
      </trkpt>
      <trkpt lat="43.77648" lon="3.83254">
        <ele>449.6</ele>
        <time>2026-05-21T11:23:43.000Z</time>
      </trkpt>
      <trkpt lat="43.77648" lon="3.83254">
        <ele>449.4</ele>
        <time>2026-05-21T11:23:44.000Z</time>
      </trkpt>
      <trkpt lat="43.77648" lon="3.83254">
        <ele>449.4</ele>
        <time>2026-05-21T11:23:45.000Z</time>
      </trkpt>
      <trkpt lat="43.77648" lon="3.83254">
        <ele>449.5</ele>
        <time>2026-05-21T11:23:46.000Z</time>
      </trkpt>
      <trkpt lat="43.77648" lon="3.83254">
        <ele>449.3</ele>
        <time>2026-05-21T11:23:47.000Z</time>
      </trkpt>
      <trkpt lat="43.77648" lon="3.83254">
        <ele>449.2</ele>
        <time>2026-05-21T11:23:48.000Z</time>
      </trkpt>
      <trkpt lat="43.77648" lon="3.83254">
        <ele>449.1</ele>
        <time>2026-05-21T11:23:49.000Z</time>
      </trkpt>
      <trkpt lat="43.77648" lon="3.83254">
        <ele>448.9</ele>
        <time>2026-05-21T11:23:50.000Z</time>
      </trkpt>
      <trkpt lat="43.77648" lon="3.83254">
        <ele>448.8</ele>
        <time>2026-05-21T11:23:51.000Z</time>
      </trkpt>
      <trkpt lat="43.77648" lon="3.83254">
        <ele>448.6</ele>
        <time>2026-05-21T11:23:52.000Z</time>
      </trkpt>
      <trkpt lat="43.77648" lon="3.83254">
        <ele>448.6</ele>
        <time>2026-05-21T11:23:53.000Z</time>
      </trkpt>
      <trkpt lat="43.77648" lon="3.83254">
        <ele>448.7</ele>
        <time>2026-05-21T11:23:54.000Z</time>
      </trkpt>
      <trkpt lat="43.77648" lon="3.83254">
        <ele>448.7</ele>
        <time>2026-05-21T11:23:55.000Z</time>
      </trkpt>
      <trkpt lat="43.77648" lon="3.83254">
        <ele>448.7</ele>
        <time>2026-05-21T11:23:56.000Z</time>
      </trkpt>
      <trkpt lat="43.77648" lon="3.83254">
        <ele>448.7</ele>
        <time>2026-05-21T11:23:57.000Z</time>
      </trkpt>
      <trkpt lat="43.77648" lon="3.83254">
        <ele>448.7</ele>
        <time>2026-05-21T11:23:58.000Z</time>
      </trkpt>
      <trkpt lat="43.77648" lon="3.83254">
        <ele>448.4</ele>
        <time>2026-05-21T11:23:59.000Z</time>
      </trkpt>
      <trkpt lat="43.77648" lon="3.83254">
        <ele>448.3</ele>
        <time>2026-05-21T11:24:00.000Z</time>
      </trkpt>
      <trkpt lat="43.77648" lon="3.83254">
        <ele>448.4</ele>
        <time>2026-05-21T11:24:01.000Z</time>
      </trkpt>
      <trkpt lat="43.77648" lon="3.83254">
        <ele>448.4</ele>
        <time>2026-05-21T11:24:02.000Z</time>
      </trkpt>
      <trkpt lat="43.77648" lon="3.83254">
        <ele>448.6</ele>
        <time>2026-05-21T11:24:03.000Z</time>
      </trkpt>
      <trkpt lat="43.77648" lon="3.83254">
        <ele>448.7</ele>
        <time>2026-05-21T11:24:04.000Z</time>
      </trkpt>
      <trkpt lat="43.77648" lon="3.83254">
        <ele>448.6</ele>
        <time>2026-05-21T11:24:05.000Z</time>
      </trkpt>
      <trkpt lat="43.77648" lon="3.83254">
        <ele>448.5</ele>
        <time>2026-05-21T11:24:06.000Z</time>
      </trkpt>
      <trkpt lat="43.77648" lon="3.83253">
        <ele>448.4</ele>
        <time>2026-05-21T11:24:07.000Z</time>
      </trkpt>
      <trkpt lat="43.77648" lon="3.83253">
        <ele>448.4</ele>
        <time>2026-05-21T11:24:08.000Z</time>
      </trkpt>
      <trkpt lat="43.77648" lon="3.83253">
        <ele>448.4</ele>
        <time>2026-05-21T11:24:09.000Z</time>
      </trkpt>
      <trkpt lat="43.77648" lon="3.83253">
        <ele>448.3</ele>
        <time>2026-05-21T11:24:10.000Z</time>
      </trkpt>
      <trkpt lat="43.77648" lon="3.83253">
        <ele>448.2</ele>
        <time>2026-05-21T11:24:11.000Z</time>
      </trkpt>
      <trkpt lat="43.77648" lon="3.83253">
        <ele>448</ele>
        <time>2026-05-21T11:24:12.000Z</time>
      </trkpt>
      <trkpt lat="43.77648" lon="3.83253">
        <ele>447.9</ele>
        <time>2026-05-21T11:24:13.000Z</time>
      </trkpt>
      <trkpt lat="43.77648" lon="3.83252">
        <ele>447.8</ele>
        <time>2026-05-21T11:24:14.000Z</time>
      </trkpt>
      <trkpt lat="43.77648" lon="3.83252">
        <ele>447.6</ele>
        <time>2026-05-21T11:24:15.000Z</time>
      </trkpt>
      <trkpt lat="43.77648" lon="3.83252">
        <ele>447.6</ele>
        <time>2026-05-21T11:24:16.000Z</time>
      </trkpt>
      <trkpt lat="43.77648" lon="3.83252">
        <ele>447.7</ele>
        <time>2026-05-21T11:24:17.000Z</time>
      </trkpt>
      <trkpt lat="43.77648" lon="3.83252">
        <ele>447.5</ele>
        <time>2026-05-21T11:24:18.000Z</time>
      </trkpt>
      <trkpt lat="43.77648" lon="3.83252">
        <ele>447.4</ele>
        <time>2026-05-21T11:24:19.000Z</time>
      </trkpt>
      <trkpt lat="43.77648" lon="3.83252">
        <ele>447.5</ele>
        <time>2026-05-21T11:24:20.000Z</time>
      </trkpt>
      <trkpt lat="43.77648" lon="3.83252">
        <ele>447.6</ele>
        <time>2026-05-21T11:24:21.000Z</time>
      </trkpt>
      <trkpt lat="43.77648" lon="3.83252">
        <ele>447.6</ele>
        <time>2026-05-21T11:24:22.000Z</time>
      </trkpt>
      <trkpt lat="43.77648" lon="3.83251">
        <ele>447.5</ele>
        <time>2026-05-21T11:24:23.000Z</time>
      </trkpt>
      <trkpt lat="43.77648" lon="3.83251">
        <ele>447.6</ele>
        <time>2026-05-21T11:24:24.000Z</time>
      </trkpt>
      <trkpt lat="43.77648" lon="3.83251">
        <ele>447.6</ele>
        <time>2026-05-21T11:24:25.000Z</time>
      </trkpt>
      <trkpt lat="43.77648" lon="3.83251">
        <ele>447.8</ele>
        <time>2026-05-21T11:24:26.000Z</time>
      </trkpt>
      <trkpt lat="43.77648" lon="3.83251">
        <ele>447.6</ele>
        <time>2026-05-21T11:24:27.000Z</time>
      </trkpt>
      <trkpt lat="43.77648" lon="3.83251">
        <ele>447.5</ele>
        <time>2026-05-21T11:24:28.000Z</time>
      </trkpt>
      <trkpt lat="43.77648" lon="3.83251">
        <ele>447.5</ele>
        <time>2026-05-21T11:24:29.000Z</time>
      </trkpt>
      <trkpt lat="43.77648" lon="3.83251">
        <ele>447.4</ele>
        <time>2026-05-21T11:24:30.000Z</time>
      </trkpt>
      <trkpt lat="43.77648" lon="3.83251">
        <ele>447.4</ele>
        <time>2026-05-21T11:24:31.000Z</time>
      </trkpt>
      <trkpt lat="43.77648" lon="3.8325">
        <ele>447.3</ele>
        <time>2026-05-21T11:24:32.000Z</time>
      </trkpt>
      <trkpt lat="43.77648" lon="3.8325">
        <ele>447.3</ele>
        <time>2026-05-21T11:24:33.000Z</time>
      </trkpt>
      <trkpt lat="43.77648" lon="3.8325">
        <ele>447.1</ele>
        <time>2026-05-21T11:24:34.000Z</time>
      </trkpt>
      <trkpt lat="43.77648" lon="3.8325">
        <ele>447.3</ele>
        <time>2026-05-21T11:24:35.000Z</time>
      </trkpt>
      <trkpt lat="43.77648" lon="3.8325">
        <ele>447.5</ele>
        <time>2026-05-21T11:24:36.000Z</time>
      </trkpt>
      <trkpt lat="43.77648" lon="3.8325">
        <ele>447.7</ele>
        <time>2026-05-21T11:24:37.000Z</time>
      </trkpt>
      <trkpt lat="43.77648" lon="3.8325">
        <ele>447.6</ele>
        <time>2026-05-21T11:24:38.000Z</time>
      </trkpt>
      <trkpt lat="43.77648" lon="3.8325">
        <ele>447.5</ele>
        <time>2026-05-21T11:24:39.000Z</time>
      </trkpt>
      <trkpt lat="43.77648" lon="3.8325">
        <ele>447.5</ele>
        <time>2026-05-21T11:24:40.000Z</time>
      </trkpt>
      <trkpt lat="43.77648" lon="3.8325">
        <ele>447.5</ele>
        <time>2026-05-21T11:24:41.000Z</time>
      </trkpt>
      <trkpt lat="43.77648" lon="3.8325">
        <ele>447.4</ele>
        <time>2026-05-21T11:24:42.000Z</time>
      </trkpt>
      <trkpt lat="43.77648" lon="3.83249">
        <ele>447.4</ele>
        <time>2026-05-21T11:24:43.000Z</time>
      </trkpt>
      <trkpt lat="43.77648" lon="3.83249">
        <ele>447.4</ele>
        <time>2026-05-21T11:24:44.000Z</time>
      </trkpt>
      <trkpt lat="43.77648" lon="3.83249">
        <ele>447.2</ele>
        <time>2026-05-21T11:24:45.000Z</time>
      </trkpt>
      <trkpt lat="43.77648" lon="3.83249">
        <ele>447.3</ele>
        <time>2026-05-21T11:24:46.000Z</time>
      </trkpt>
      <trkpt lat="43.77648" lon="3.83249">
        <ele>447.3</ele>
        <time>2026-05-21T11:24:47.000Z</time>
      </trkpt>
      <trkpt lat="43.77648" lon="3.83249">
        <ele>447.1</ele>
        <time>2026-05-21T11:24:48.000Z</time>
      </trkpt>
      <trkpt lat="43.77648" lon="3.83249">
        <ele>446.9</ele>
        <time>2026-05-21T11:24:49.000Z</time>
      </trkpt>
      <trkpt lat="43.77648" lon="3.83249">
        <ele>446.7</ele>
        <time>2026-05-21T11:24:50.000Z</time>
      </trkpt>
      <trkpt lat="43.77648" lon="3.83249">
        <ele>446.6</ele>
        <time>2026-05-21T11:24:51.000Z</time>
      </trkpt>
      <trkpt lat="43.77648" lon="3.83249">
        <ele>446.5</ele>
        <time>2026-05-21T11:24:52.000Z</time>
      </trkpt>
      <trkpt lat="43.77648" lon="3.83249">
        <ele>446.5</ele>
        <time>2026-05-21T11:24:53.000Z</time>
      </trkpt>
      <trkpt lat="43.77648" lon="3.83249">
        <ele>446.6</ele>
        <time>2026-05-21T11:24:54.000Z</time>
      </trkpt>
      <trkpt lat="43.77648" lon="3.83249">
        <ele>446.5</ele>
        <time>2026-05-21T11:24:55.000Z</time>
      </trkpt>
      <trkpt lat="43.77648" lon="3.83248">
        <ele>446.6</ele>
        <time>2026-05-21T11:24:56.000Z</time>
      </trkpt>
      <trkpt lat="43.77648" lon="3.83248">
        <ele>446.7</ele>
        <time>2026-05-21T11:24:57.000Z</time>
      </trkpt>
      <trkpt lat="43.77648" lon="3.83248">
        <ele>446.8</ele>
        <time>2026-05-21T11:24:58.000Z</time>
      </trkpt>
      <trkpt lat="43.77648" lon="3.83248">
        <ele>446.8</ele>
        <time>2026-05-21T11:24:59.000Z</time>
      </trkpt>
      <trkpt lat="43.77648" lon="3.83248">
        <ele>446.9</ele>
        <time>2026-05-21T11:25:00.000Z</time>
      </trkpt>
      <trkpt lat="43.77648" lon="3.83248">
        <ele>446.8</ele>
        <time>2026-05-21T11:25:01.000Z</time>
      </trkpt>
      <trkpt lat="43.77649" lon="3.83248">
        <ele>446.9</ele>
        <time>2026-05-21T11:25:02.000Z</time>
      </trkpt>
      <trkpt lat="43.77649" lon="3.83248">
        <ele>446.9</ele>
        <time>2026-05-21T11:25:03.000Z</time>
      </trkpt>
      <trkpt lat="43.77649" lon="3.83248">
        <ele>446.8</ele>
        <time>2026-05-21T11:25:04.000Z</time>
      </trkpt>
      <trkpt lat="43.77649" lon="3.83248">
        <ele>446.8</ele>
        <time>2026-05-21T11:25:05.000Z</time>
      </trkpt>
      <trkpt lat="43.77649" lon="3.83248">
        <ele>446.8</ele>
        <time>2026-05-21T11:25:06.000Z</time>
      </trkpt>
      <trkpt lat="43.77649" lon="3.83247">
        <ele>446.7</ele>
        <time>2026-05-21T11:25:07.000Z</time>
      </trkpt>
      <trkpt lat="43.77649" lon="3.83247">
        <ele>446.6</ele>
        <time>2026-05-21T11:25:08.000Z</time>
      </trkpt>
      <trkpt lat="43.77649" lon="3.83247">
        <ele>446.6</ele>
        <time>2026-05-21T11:25:09.000Z</time>
      </trkpt>
      <trkpt lat="43.77649" lon="3.83247">
        <ele>446.5</ele>
        <time>2026-05-21T11:25:10.000Z</time>
      </trkpt>
      <trkpt lat="43.77649" lon="3.83247">
        <ele>446.6</ele>
        <time>2026-05-21T11:25:11.000Z</time>
      </trkpt>
      <trkpt lat="43.77649" lon="3.83247">
        <ele>446.6</ele>
        <time>2026-05-21T11:25:12.000Z</time>
      </trkpt>
      <trkpt lat="43.77649" lon="3.83247">
        <ele>446.5</ele>
        <time>2026-05-21T11:25:13.000Z</time>
      </trkpt>
      <trkpt lat="43.77649" lon="3.83247">
        <ele>446.5</ele>
        <time>2026-05-21T11:25:14.000Z</time>
      </trkpt>
      <trkpt lat="43.77649" lon="3.83247">
        <ele>446.5</ele>
        <time>2026-05-21T11:25:15.000Z</time>
      </trkpt>
      <trkpt lat="43.77649" lon="3.83247">
        <ele>446.6</ele>
        <time>2026-05-21T11:25:16.000Z</time>
      </trkpt>
      <trkpt lat="43.77649" lon="3.83247">
        <ele>446.6</ele>
        <time>2026-05-21T11:25:17.000Z</time>
      </trkpt>
      <trkpt lat="43.77649" lon="3.83247">
        <ele>446.6</ele>
        <time>2026-05-21T11:25:18.000Z</time>
      </trkpt>
      <trkpt lat="43.7765" lon="3.83246">
        <ele>446.7</ele>
        <time>2026-05-21T11:25:19.000Z</time>
      </trkpt>
      <trkpt lat="43.7765" lon="3.83246">
        <ele>446.9</ele>
        <time>2026-05-21T11:25:20.000Z</time>
      </trkpt>
      <trkpt lat="43.7765" lon="3.83246">
        <ele>446.8</ele>
        <time>2026-05-21T11:25:21.000Z</time>
      </trkpt>
      <trkpt lat="43.7765" lon="3.83246">
        <ele>446.5</ele>
        <time>2026-05-21T11:25:22.000Z</time>
      </trkpt>
      <trkpt lat="43.7765" lon="3.83245">
        <ele>446.5</ele>
        <time>2026-05-21T11:25:23.000Z</time>
      </trkpt>
      <trkpt lat="43.7765" lon="3.83245">
        <ele>446.3</ele>
        <time>2026-05-21T11:25:24.000Z</time>
      </trkpt>
      <trkpt lat="43.7765" lon="3.83245">
        <ele>446.6</ele>
        <time>2026-05-21T11:25:25.000Z</time>
      </trkpt>
      <trkpt lat="43.7765" lon="3.83245">
        <ele>446.9</ele>
        <time>2026-05-21T11:25:26.000Z</time>
      </trkpt>
      <trkpt lat="43.7765" lon="3.83245">
        <ele>447.1</ele>
        <time>2026-05-21T11:25:27.000Z</time>
      </trkpt>
      <trkpt lat="43.7765" lon="3.83245">
        <ele>447.2</ele>
        <time>2026-05-21T11:25:28.000Z</time>
      </trkpt>
      <trkpt lat="43.77651" lon="3.83244">
        <ele>447.2</ele>
        <time>2026-05-21T11:25:29.000Z</time>
      </trkpt>
      <trkpt lat="43.77651" lon="3.83244">
        <ele>447.3</ele>
        <time>2026-05-21T11:25:30.000Z</time>
      </trkpt>
      <trkpt lat="43.77651" lon="3.83244">
        <ele>447.4</ele>
        <time>2026-05-21T11:25:31.000Z</time>
      </trkpt>
      <trkpt lat="43.77651" lon="3.83244">
        <ele>447.3</ele>
        <time>2026-05-21T11:25:32.000Z</time>
      </trkpt>
      <trkpt lat="43.77651" lon="3.83244">
        <ele>447.1</ele>
        <time>2026-05-21T11:25:33.000Z</time>
      </trkpt>
      <trkpt lat="43.77651" lon="3.83243">
        <ele>447</ele>
        <time>2026-05-21T11:25:34.000Z</time>
      </trkpt>
      <trkpt lat="43.77651" lon="3.83243">
        <ele>446.9</ele>
        <time>2026-05-21T11:25:35.000Z</time>
      </trkpt>
      <trkpt lat="43.77652" lon="3.83243">
        <ele>447.1</ele>
        <time>2026-05-21T11:25:36.000Z</time>
      </trkpt>
      <trkpt lat="43.77652" lon="3.83243">
        <ele>447.1</ele>
        <time>2026-05-21T11:25:37.000Z</time>
      </trkpt>
      <trkpt lat="43.77652" lon="3.83243">
        <ele>447.1</ele>
        <time>2026-05-21T11:25:38.000Z</time>
      </trkpt>
      <trkpt lat="43.77652" lon="3.83243">
        <ele>447</ele>
        <time>2026-05-21T11:25:39.000Z</time>
      </trkpt>
      <trkpt lat="43.77652" lon="3.83242">
        <ele>446.8</ele>
        <time>2026-05-21T11:25:40.000Z</time>
      </trkpt>
      <trkpt lat="43.77652" lon="3.83242">
        <ele>446.7</ele>
        <time>2026-05-21T11:25:41.000Z</time>
      </trkpt>
      <trkpt lat="43.77652" lon="3.83242">
        <ele>446.7</ele>
        <time>2026-05-21T11:25:42.000Z</time>
      </trkpt>
      <trkpt lat="43.77652" lon="3.83242">
        <ele>446.5</ele>
        <time>2026-05-21T11:25:43.000Z</time>
      </trkpt>
      <trkpt lat="43.77652" lon="3.83242">
        <ele>446.4</ele>
        <time>2026-05-21T11:25:44.000Z</time>
      </trkpt>
      <trkpt lat="43.77652" lon="3.83242">
        <ele>446.5</ele>
        <time>2026-05-21T11:25:45.000Z</time>
      </trkpt>
      <trkpt lat="43.77652" lon="3.83242">
        <ele>446.7</ele>
        <time>2026-05-21T11:25:46.000Z</time>
      </trkpt>
      <trkpt lat="43.77652" lon="3.83242">
        <ele>446.6</ele>
        <time>2026-05-21T11:25:47.000Z</time>
      </trkpt>
      <trkpt lat="43.77652" lon="3.83242">
        <ele>446.2</ele>
        <time>2026-05-21T11:25:48.000Z</time>
      </trkpt>
      <trkpt lat="43.77653" lon="3.83242">
        <ele>446</ele>
        <time>2026-05-21T11:25:49.000Z</time>
      </trkpt>
      <trkpt lat="43.77653" lon="3.83242">
        <ele>445.9</ele>
        <time>2026-05-21T11:25:50.000Z</time>
      </trkpt>
      <trkpt lat="43.77653" lon="3.83242">
        <ele>445.8</ele>
        <time>2026-05-21T11:25:51.000Z</time>
      </trkpt>
      <trkpt lat="43.77653" lon="3.83241">
        <ele>445.9</ele>
        <time>2026-05-21T11:25:52.000Z</time>
      </trkpt>
      <trkpt lat="43.77653" lon="3.83241">
        <ele>446.1</ele>
        <time>2026-05-21T11:25:53.000Z</time>
      </trkpt>
      <trkpt lat="43.77653" lon="3.83241">
        <ele>446.1</ele>
        <time>2026-05-21T11:25:54.000Z</time>
      </trkpt>
      <trkpt lat="43.77653" lon="3.83241">
        <ele>446</ele>
        <time>2026-05-21T11:25:55.000Z</time>
      </trkpt>
      <trkpt lat="43.77653" lon="3.83241">
        <ele>445.9</ele>
        <time>2026-05-21T11:25:56.000Z</time>
      </trkpt>
      <trkpt lat="43.77653" lon="3.83241">
        <ele>445.8</ele>
        <time>2026-05-21T11:25:57.000Z</time>
      </trkpt>
      <trkpt lat="43.77653" lon="3.83241">
        <ele>445.8</ele>
        <time>2026-05-21T11:25:58.000Z</time>
      </trkpt>
      <trkpt lat="43.77653" lon="3.83241">
        <ele>445.9</ele>
        <time>2026-05-21T11:25:59.000Z</time>
      </trkpt>
      <trkpt lat="43.77653" lon="3.83241">
        <ele>446</ele>
        <time>2026-05-21T11:26:00.000Z</time>
      </trkpt>
      <trkpt lat="43.77654" lon="3.83241">
        <ele>445.8</ele>
        <time>2026-05-21T11:26:01.000Z</time>
      </trkpt>
      <trkpt lat="43.77654" lon="3.83241">
        <ele>445.5</ele>
        <time>2026-05-21T11:26:02.000Z</time>
      </trkpt>
      <trkpt lat="43.77654" lon="3.83241">
        <ele>445.2</ele>
        <time>2026-05-21T11:26:03.000Z</time>
      </trkpt>
      <trkpt lat="43.77654" lon="3.83241">
        <ele>445.2</ele>
        <time>2026-05-21T11:26:04.000Z</time>
      </trkpt>
      <trkpt lat="43.77654" lon="3.8324">
        <ele>445</ele>
        <time>2026-05-21T11:26:05.000Z</time>
      </trkpt>
      <trkpt lat="43.77654" lon="3.8324">
        <ele>445.2</ele>
        <time>2026-05-21T11:26:06.000Z</time>
      </trkpt>
      <trkpt lat="43.77654" lon="3.8324">
        <ele>445.1</ele>
        <time>2026-05-21T11:26:07.000Z</time>
      </trkpt>
      <trkpt lat="43.77654" lon="3.8324">
        <ele>445.1</ele>
        <time>2026-05-21T11:26:08.000Z</time>
      </trkpt>
      <trkpt lat="43.77654" lon="3.8324">
        <ele>445.2</ele>
        <time>2026-05-21T11:26:09.000Z</time>
      </trkpt>
      <trkpt lat="43.77654" lon="3.8324">
        <ele>445.3</ele>
        <time>2026-05-21T11:26:10.000Z</time>
      </trkpt>
      <trkpt lat="43.77654" lon="3.8324">
        <ele>445.3</ele>
        <time>2026-05-21T11:26:11.000Z</time>
      </trkpt>
      <trkpt lat="43.77654" lon="3.83239">
        <ele>445.4</ele>
        <time>2026-05-21T11:26:12.000Z</time>
      </trkpt>
      <trkpt lat="43.77654" lon="3.83239">
        <ele>445.3</ele>
        <time>2026-05-21T11:26:13.000Z</time>
      </trkpt>
      <trkpt lat="43.77655" lon="3.83237">
        <ele>445.2</ele>
        <time>2026-05-21T11:26:14.000Z</time>
      </trkpt>
      <trkpt lat="43.77656" lon="3.83236">
        <ele>445.1</ele>
        <time>2026-05-21T11:26:15.000Z</time>
      </trkpt>
      <trkpt lat="43.77656" lon="3.83235">
        <ele>445.3</ele>
        <time>2026-05-21T11:26:16.000Z</time>
      </trkpt>
      <trkpt lat="43.77656" lon="3.83235">
        <ele>445.5</ele>
        <time>2026-05-21T11:26:17.000Z</time>
      </trkpt>
      <trkpt lat="43.77656" lon="3.83235">
        <ele>445.5</ele>
        <time>2026-05-21T11:26:18.000Z</time>
      </trkpt>
      <trkpt lat="43.77656" lon="3.83235">
        <ele>445.7</ele>
        <time>2026-05-21T11:26:19.000Z</time>
      </trkpt>
      <trkpt lat="43.77656" lon="3.83235">
        <ele>445.5</ele>
        <time>2026-05-21T11:26:20.000Z</time>
      </trkpt>
      <trkpt lat="43.77656" lon="3.83235">
        <ele>445.4</ele>
        <time>2026-05-21T11:26:21.000Z</time>
      </trkpt>
      <trkpt lat="43.77656" lon="3.83235">
        <ele>445.4</ele>
        <time>2026-05-21T11:26:22.000Z</time>
      </trkpt>
      <trkpt lat="43.77656" lon="3.83235">
        <ele>445.6</ele>
        <time>2026-05-21T11:26:23.000Z</time>
      </trkpt>
      <trkpt lat="43.77656" lon="3.83235">
        <ele>445.7</ele>
        <time>2026-05-21T11:26:24.000Z</time>
      </trkpt>
      <trkpt lat="43.77656" lon="3.83235">
        <ele>445.9</ele>
        <time>2026-05-21T11:26:25.000Z</time>
      </trkpt>
      <trkpt lat="43.77656" lon="3.83235">
        <ele>445.8</ele>
        <time>2026-05-21T11:26:26.000Z</time>
      </trkpt>
      <trkpt lat="43.77656" lon="3.83235">
        <ele>445.9</ele>
        <time>2026-05-21T11:26:27.000Z</time>
      </trkpt>
      <trkpt lat="43.77656" lon="3.83235">
        <ele>446</ele>
        <time>2026-05-21T11:26:28.000Z</time>
      </trkpt>
      <trkpt lat="43.77656" lon="3.83235">
        <ele>446</ele>
        <time>2026-05-21T11:26:29.000Z</time>
      </trkpt>
      <trkpt lat="43.77656" lon="3.83235">
        <ele>446</ele>
        <time>2026-05-21T11:26:30.000Z</time>
      </trkpt>
      <trkpt lat="43.77656" lon="3.83235">
        <ele>445.8</ele>
        <time>2026-05-21T11:26:31.000Z</time>
      </trkpt>
      <trkpt lat="43.77656" lon="3.83235">
        <ele>445.8</ele>
        <time>2026-05-21T11:26:32.000Z</time>
      </trkpt>
      <trkpt lat="43.77657" lon="3.83235">
        <ele>445.8</ele>
        <time>2026-05-21T11:26:33.000Z</time>
      </trkpt>
      <trkpt lat="43.77657" lon="3.83235">
        <ele>445.9</ele>
        <time>2026-05-21T11:26:34.000Z</time>
      </trkpt>
      <trkpt lat="43.77657" lon="3.83235">
        <ele>445.9</ele>
        <time>2026-05-21T11:26:35.000Z</time>
      </trkpt>
      <trkpt lat="43.77657" lon="3.83235">
        <ele>445.8</ele>
        <time>2026-05-21T11:26:36.000Z</time>
      </trkpt>
      <trkpt lat="43.77656" lon="3.83235">
        <ele>445.7</ele>
        <time>2026-05-21T11:26:37.000Z</time>
      </trkpt>
      <trkpt lat="43.77657" lon="3.83235">
        <ele>446.4</ele>
        <time>2026-05-21T11:26:38.000Z</time>
      </trkpt>
      <trkpt lat="43.77657" lon="3.83236">
        <ele>446.4</ele>
        <time>2026-05-21T11:26:39.000Z</time>
      </trkpt>
      <trkpt lat="43.77657" lon="3.83236">
        <ele>446.4</ele>
        <time>2026-05-21T11:26:40.000Z</time>
      </trkpt>
      <trkpt lat="43.77657" lon="3.83236">
        <ele>446.3</ele>
        <time>2026-05-21T11:26:41.000Z</time>
      </trkpt>
      <trkpt lat="43.77657" lon="3.83236">
        <ele>446</ele>
        <time>2026-05-21T11:26:42.000Z</time>
      </trkpt>
      <trkpt lat="43.77657" lon="3.83236">
        <ele>445.6</ele>
        <time>2026-05-21T11:26:43.000Z</time>
      </trkpt>
      <trkpt lat="43.77657" lon="3.83236">
        <ele>445.4</ele>
        <time>2026-05-21T11:26:44.000Z</time>
      </trkpt>
      <trkpt lat="43.77657" lon="3.83236">
        <ele>445.5</ele>
        <time>2026-05-21T11:26:45.000Z</time>
      </trkpt>
      <trkpt lat="43.77657" lon="3.83236">
        <ele>445.5</ele>
        <time>2026-05-21T11:26:46.000Z</time>
      </trkpt>
      <trkpt lat="43.77657" lon="3.83236">
        <ele>445.6</ele>
        <time>2026-05-21T11:26:47.000Z</time>
      </trkpt>
      <trkpt lat="43.77657" lon="3.83236">
        <ele>445.8</ele>
        <time>2026-05-21T11:26:48.000Z</time>
      </trkpt>
      <trkpt lat="43.77657" lon="3.83236">
        <ele>445.8</ele>
        <time>2026-05-21T11:26:49.000Z</time>
      </trkpt>
      <trkpt lat="43.77657" lon="3.83236">
        <ele>445.8</ele>
        <time>2026-05-21T11:26:50.000Z</time>
      </trkpt>
      <trkpt lat="43.77657" lon="3.83236">
        <ele>445.8</ele>
        <time>2026-05-21T11:26:51.000Z</time>
      </trkpt>
      <trkpt lat="43.77656" lon="3.83236">
        <ele>445.8</ele>
        <time>2026-05-21T11:26:52.000Z</time>
      </trkpt>
      <trkpt lat="43.77657" lon="3.83236">
        <ele>445.5</ele>
        <time>2026-05-21T11:26:53.000Z</time>
      </trkpt>
      <trkpt lat="43.77657" lon="3.83236">
        <ele>445.4</ele>
        <time>2026-05-21T11:26:54.000Z</time>
      </trkpt>
      <trkpt lat="43.77656" lon="3.83236">
        <ele>445.1</ele>
        <time>2026-05-21T11:26:55.000Z</time>
      </trkpt>
      <trkpt lat="43.77656" lon="3.83236">
        <ele>445.2</ele>
        <time>2026-05-21T11:26:56.000Z</time>
      </trkpt>
      <trkpt lat="43.77656" lon="3.83236">
        <ele>445.2</ele>
        <time>2026-05-21T11:26:57.000Z</time>
      </trkpt>
      <trkpt lat="43.77656" lon="3.83236">
        <ele>445.2</ele>
        <time>2026-05-21T11:26:58.000Z</time>
      </trkpt>
      <trkpt lat="43.77656" lon="3.83236">
        <ele>445.4</ele>
        <time>2026-05-21T11:26:59.000Z</time>
      </trkpt>
      <trkpt lat="43.77656" lon="3.83236">
        <ele>445.4</ele>
        <time>2026-05-21T11:27:00.000Z</time>
      </trkpt>
      <trkpt lat="43.77656" lon="3.83236">
        <ele>445.4</ele>
        <time>2026-05-21T11:27:01.000Z</time>
      </trkpt>
      <trkpt lat="43.77656" lon="3.83236">
        <ele>445.3</ele>
        <time>2026-05-21T11:27:02.000Z</time>
      </trkpt>
      <trkpt lat="43.77656" lon="3.83236">
        <ele>445.1</ele>
        <time>2026-05-21T11:27:03.000Z</time>
      </trkpt>
      <trkpt lat="43.77656" lon="3.83236">
        <ele>445</ele>
        <time>2026-05-21T11:27:04.000Z</time>
      </trkpt>
      <trkpt lat="43.77656" lon="3.83236">
        <ele>445.1</ele>
        <time>2026-05-21T11:27:05.000Z</time>
      </trkpt>
      <trkpt lat="43.77656" lon="3.83236">
        <ele>445</ele>
        <time>2026-05-21T11:27:06.000Z</time>
      </trkpt>
      <trkpt lat="43.77656" lon="3.83236">
        <ele>445</ele>
        <time>2026-05-21T11:27:07.000Z</time>
      </trkpt>
      <trkpt lat="43.77656" lon="3.83236">
        <ele>445.2</ele>
        <time>2026-05-21T11:27:08.000Z</time>
      </trkpt>
      <trkpt lat="43.77656" lon="3.83236">
        <ele>445.3</ele>
        <time>2026-05-21T11:27:09.000Z</time>
      </trkpt>
      <trkpt lat="43.77656" lon="3.83236">
        <ele>445.4</ele>
        <time>2026-05-21T11:27:10.000Z</time>
      </trkpt>
      <trkpt lat="43.77656" lon="3.83236">
        <ele>445.4</ele>
        <time>2026-05-21T11:27:11.000Z</time>
      </trkpt>
      <trkpt lat="43.77656" lon="3.83236">
        <ele>445.5</ele>
        <time>2026-05-21T11:27:12.000Z</time>
      </trkpt>
      <trkpt lat="43.77656" lon="3.83236">
        <ele>445.6</ele>
        <time>2026-05-21T11:27:13.000Z</time>
      </trkpt>
      <trkpt lat="43.77656" lon="3.83236">
        <ele>445.7</ele>
        <time>2026-05-21T11:27:14.000Z</time>
      </trkpt>
      <trkpt lat="43.77656" lon="3.83236">
        <ele>445.6</ele>
        <time>2026-05-21T11:27:15.000Z</time>
      </trkpt>
      <trkpt lat="43.77656" lon="3.83235">
        <ele>445.3</ele>
        <time>2026-05-21T11:27:16.000Z</time>
      </trkpt>
      <trkpt lat="43.77656" lon="3.83235">
        <ele>445.2</ele>
        <time>2026-05-21T11:27:17.000Z</time>
      </trkpt>
      <trkpt lat="43.77656" lon="3.83235">
        <ele>445.3</ele>
        <time>2026-05-21T11:27:18.000Z</time>
      </trkpt>
      <trkpt lat="43.77656" lon="3.83235">
        <ele>445.3</ele>
        <time>2026-05-21T11:27:19.000Z</time>
      </trkpt>
      <trkpt lat="43.77656" lon="3.83235">
        <ele>445.4</ele>
        <time>2026-05-21T11:27:20.000Z</time>
      </trkpt>
      <trkpt lat="43.77656" lon="3.83235">
        <ele>445.6</ele>
        <time>2026-05-21T11:27:21.000Z</time>
      </trkpt>
      <trkpt lat="43.77656" lon="3.83235">
        <ele>445.6</ele>
        <time>2026-05-21T11:27:22.000Z</time>
      </trkpt>
      <trkpt lat="43.77656" lon="3.83235">
        <ele>445.6</ele>
        <time>2026-05-21T11:27:23.000Z</time>
      </trkpt>
      <trkpt lat="43.77656" lon="3.83235">
        <ele>445.5</ele>
        <time>2026-05-21T11:27:24.000Z</time>
      </trkpt>
      <trkpt lat="43.77656" lon="3.83235">
        <ele>445.5</ele>
        <time>2026-05-21T11:27:25.000Z</time>
      </trkpt>
      <trkpt lat="43.77656" lon="3.83235">
        <ele>445.6</ele>
        <time>2026-05-21T11:27:26.000Z</time>
      </trkpt>
      <trkpt lat="43.77656" lon="3.83235">
        <ele>445.7</ele>
        <time>2026-05-21T11:27:27.000Z</time>
      </trkpt>
      <trkpt lat="43.77656" lon="3.83235">
        <ele>445.8</ele>
        <time>2026-05-21T11:27:28.000Z</time>
      </trkpt>
      <trkpt lat="43.77656" lon="3.83235">
        <ele>445.9</ele>
        <time>2026-05-21T11:27:29.000Z</time>
      </trkpt>
      <trkpt lat="43.77656" lon="3.83235">
        <ele>445.9</ele>
        <time>2026-05-21T11:27:30.000Z</time>
      </trkpt>
      <trkpt lat="43.77655" lon="3.83235">
        <ele>445.9</ele>
        <time>2026-05-21T11:27:31.000Z</time>
      </trkpt>
      <trkpt lat="43.77655" lon="3.83235">
        <ele>446</ele>
        <time>2026-05-21T11:27:32.000Z</time>
      </trkpt>
      <trkpt lat="43.77655" lon="3.83235">
        <ele>446.1</ele>
        <time>2026-05-21T11:27:33.000Z</time>
      </trkpt>
      <trkpt lat="43.77655" lon="3.83235">
        <ele>446.1</ele>
        <time>2026-05-21T11:27:34.000Z</time>
      </trkpt>
      <trkpt lat="43.77655" lon="3.83235">
        <ele>446.1</ele>
        <time>2026-05-21T11:27:35.000Z</time>
      </trkpt>
      <trkpt lat="43.77655" lon="3.83235">
        <ele>446</ele>
        <time>2026-05-21T11:27:36.000Z</time>
      </trkpt>
      <trkpt lat="43.77655" lon="3.83235">
        <ele>446.1</ele>
        <time>2026-05-21T11:27:37.000Z</time>
      </trkpt>
      <trkpt lat="43.77655" lon="3.83235">
        <ele>446.1</ele>
        <time>2026-05-21T11:27:38.000Z</time>
      </trkpt>
      <trkpt lat="43.77655" lon="3.83235">
        <ele>446.2</ele>
        <time>2026-05-21T11:27:39.000Z</time>
      </trkpt>
      <trkpt lat="43.77655" lon="3.83235">
        <ele>446.2</ele>
        <time>2026-05-21T11:27:40.000Z</time>
      </trkpt>
      <trkpt lat="43.77655" lon="3.83235">
        <ele>446</ele>
        <time>2026-05-21T11:27:41.000Z</time>
      </trkpt>
      <trkpt lat="43.77655" lon="3.83235">
        <ele>446.1</ele>
        <time>2026-05-21T11:27:42.000Z</time>
      </trkpt>
      <trkpt lat="43.77655" lon="3.83235">
        <ele>445.9</ele>
        <time>2026-05-21T11:27:43.000Z</time>
      </trkpt>
      <trkpt lat="43.77655" lon="3.83235">
        <ele>445.7</ele>
        <time>2026-05-21T11:27:44.000Z</time>
      </trkpt>
      <trkpt lat="43.77655" lon="3.83235">
        <ele>445.7</ele>
        <time>2026-05-21T11:27:45.000Z</time>
      </trkpt>
      <trkpt lat="43.77655" lon="3.83235">
        <ele>445.6</ele>
        <time>2026-05-21T11:27:46.000Z</time>
      </trkpt>
      <trkpt lat="43.77655" lon="3.83235">
        <ele>445.6</ele>
        <time>2026-05-21T11:27:47.000Z</time>
      </trkpt>
      <trkpt lat="43.77655" lon="3.83235">
        <ele>445.6</ele>
        <time>2026-05-21T11:27:48.000Z</time>
      </trkpt>
      <trkpt lat="43.77655" lon="3.83235">
        <ele>445.7</ele>
        <time>2026-05-21T11:27:49.000Z</time>
      </trkpt>
      <trkpt lat="43.77655" lon="3.83235">
        <ele>445.5</ele>
        <time>2026-05-21T11:27:50.000Z</time>
      </trkpt>
      <trkpt lat="43.77655" lon="3.83235">
        <ele>445.5</ele>
        <time>2026-05-21T11:27:51.000Z</time>
      </trkpt>
      <trkpt lat="43.77656" lon="3.83234">
        <ele>445.3</ele>
        <time>2026-05-21T11:27:52.000Z</time>
      </trkpt>
      <trkpt lat="43.77656" lon="3.83234">
        <ele>445.3</ele>
        <time>2026-05-21T11:27:53.000Z</time>
      </trkpt>
      <trkpt lat="43.77656" lon="3.83234">
        <ele>445.1</ele>
        <time>2026-05-21T11:27:54.000Z</time>
      </trkpt>
      <trkpt lat="43.77656" lon="3.83234">
        <ele>444.9</ele>
        <time>2026-05-21T11:27:55.000Z</time>
      </trkpt>
      <trkpt lat="43.77656" lon="3.83234">
        <ele>444.7</ele>
        <time>2026-05-21T11:27:56.000Z</time>
      </trkpt>
      <trkpt lat="43.77656" lon="3.83234">
        <ele>444.7</ele>
        <time>2026-05-21T11:27:57.000Z</time>
      </trkpt>
      <trkpt lat="43.77656" lon="3.83234">
        <ele>444.5</ele>
        <time>2026-05-21T11:27:58.000Z</time>
      </trkpt>
      <trkpt lat="43.77656" lon="3.83234">
        <ele>444.5</ele>
        <time>2026-05-21T11:27:59.000Z</time>
      </trkpt>
      <trkpt lat="43.77656" lon="3.83234">
        <ele>444.4</ele>
        <time>2026-05-21T11:28:00.000Z</time>
      </trkpt>
      <trkpt lat="43.77656" lon="3.83234">
        <ele>444.4</ele>
        <time>2026-05-21T11:28:01.000Z</time>
      </trkpt>
      <trkpt lat="43.77656" lon="3.83233">
        <ele>444.4</ele>
        <time>2026-05-21T11:28:02.000Z</time>
      </trkpt>
      <trkpt lat="43.77656" lon="3.83233">
        <ele>444.2</ele>
        <time>2026-05-21T11:28:03.000Z</time>
      </trkpt>
      <trkpt lat="43.77656" lon="3.83233">
        <ele>443.9</ele>
        <time>2026-05-21T11:28:04.000Z</time>
      </trkpt>
      <trkpt lat="43.77656" lon="3.83233">
        <ele>443.6</ele>
        <time>2026-05-21T11:28:05.000Z</time>
      </trkpt>
      <trkpt lat="43.77656" lon="3.83233">
        <ele>443.6</ele>
        <time>2026-05-21T11:28:06.000Z</time>
      </trkpt>
      <trkpt lat="43.77656" lon="3.83232">
        <ele>443.7</ele>
        <time>2026-05-21T11:28:07.000Z</time>
      </trkpt>
      <trkpt lat="43.77656" lon="3.83232">
        <ele>443.5</ele>
        <time>2026-05-21T11:28:08.000Z</time>
      </trkpt>
      <trkpt lat="43.77656" lon="3.83232">
        <ele>443.4</ele>
        <time>2026-05-21T11:28:09.000Z</time>
      </trkpt>
      <trkpt lat="43.77656" lon="3.83232">
        <ele>443.2</ele>
        <time>2026-05-21T11:28:10.000Z</time>
      </trkpt>
      <trkpt lat="43.77656" lon="3.83232">
        <ele>443.1</ele>
        <time>2026-05-21T11:28:11.000Z</time>
      </trkpt>
      <trkpt lat="43.77656" lon="3.83232">
        <ele>442.8</ele>
        <time>2026-05-21T11:28:12.000Z</time>
      </trkpt>
      <trkpt lat="43.77656" lon="3.83232">
        <ele>443</ele>
        <time>2026-05-21T11:28:13.000Z</time>
      </trkpt>
      <trkpt lat="43.77656" lon="3.83232">
        <ele>443.2</ele>
        <time>2026-05-21T11:28:14.000Z</time>
      </trkpt>
      <trkpt lat="43.77656" lon="3.83232">
        <ele>443.2</ele>
        <time>2026-05-21T11:28:15.000Z</time>
      </trkpt>
      <trkpt lat="43.77656" lon="3.83232">
        <ele>443</ele>
        <time>2026-05-21T11:28:16.000Z</time>
      </trkpt>
      <trkpt lat="43.77656" lon="3.83232">
        <ele>442.8</ele>
        <time>2026-05-21T11:28:17.000Z</time>
      </trkpt>
      <trkpt lat="43.77656" lon="3.83232">
        <ele>442.9</ele>
        <time>2026-05-21T11:28:18.000Z</time>
      </trkpt>
      <trkpt lat="43.77656" lon="3.83232">
        <ele>442.7</ele>
        <time>2026-05-21T11:28:19.000Z</time>
      </trkpt>
      <trkpt lat="43.77656" lon="3.83231">
        <ele>442.6</ele>
        <time>2026-05-21T11:28:20.000Z</time>
      </trkpt>
      <trkpt lat="43.77656" lon="3.83231">
        <ele>442.5</ele>
        <time>2026-05-21T11:28:21.000Z</time>
      </trkpt>
      <trkpt lat="43.77656" lon="3.83231">
        <ele>442.4</ele>
        <time>2026-05-21T11:28:22.000Z</time>
      </trkpt>
      <trkpt lat="43.77656" lon="3.83231">
        <ele>442.4</ele>
        <time>2026-05-21T11:28:23.000Z</time>
      </trkpt>
      <trkpt lat="43.77656" lon="3.83231">
        <ele>442.4</ele>
        <time>2026-05-21T11:28:24.000Z</time>
      </trkpt>
      <trkpt lat="43.77656" lon="3.83231">
        <ele>442.3</ele>
        <time>2026-05-21T11:28:25.000Z</time>
      </trkpt>
      <trkpt lat="43.77656" lon="3.83231">
        <ele>442</ele>
        <time>2026-05-21T11:28:26.000Z</time>
      </trkpt>
      <trkpt lat="43.77656" lon="3.83231">
        <ele>441.8</ele>
        <time>2026-05-21T11:28:27.000Z</time>
      </trkpt>
      <trkpt lat="43.77656" lon="3.83231">
        <ele>441.7</ele>
        <time>2026-05-21T11:28:28.000Z</time>
      </trkpt>
      <trkpt lat="43.77655" lon="3.83231">
        <ele>441.6</ele>
        <time>2026-05-21T11:28:29.000Z</time>
      </trkpt>
      <trkpt lat="43.77655" lon="3.83231">
        <ele>441.6</ele>
        <time>2026-05-21T11:28:30.000Z</time>
      </trkpt>
      <trkpt lat="43.77655" lon="3.83231">
        <ele>441.6</ele>
        <time>2026-05-21T11:28:31.000Z</time>
      </trkpt>
      <trkpt lat="43.77655" lon="3.83231">
        <ele>441.7</ele>
        <time>2026-05-21T11:28:32.000Z</time>
      </trkpt>
      <trkpt lat="43.77656" lon="3.83231">
        <ele>441.7</ele>
        <time>2026-05-21T11:28:33.000Z</time>
      </trkpt>
      <trkpt lat="43.77656" lon="3.83231">
        <ele>441.6</ele>
        <time>2026-05-21T11:28:34.000Z</time>
      </trkpt>
      <trkpt lat="43.77655" lon="3.83231">
        <ele>441.5</ele>
        <time>2026-05-21T11:28:35.000Z</time>
      </trkpt>
      <trkpt lat="43.77655" lon="3.8323">
        <ele>441.4</ele>
        <time>2026-05-21T11:28:36.000Z</time>
      </trkpt>
      <trkpt lat="43.77655" lon="3.8323">
        <ele>441.5</ele>
        <time>2026-05-21T11:28:37.000Z</time>
      </trkpt>
      <trkpt lat="43.77655" lon="3.8323">
        <ele>441.7</ele>
        <time>2026-05-21T11:28:38.000Z</time>
      </trkpt>
      <trkpt lat="43.77655" lon="3.8323">
        <ele>441.7</ele>
        <time>2026-05-21T11:28:39.000Z</time>
      </trkpt>
      <trkpt lat="43.77655" lon="3.8323">
        <ele>441.6</ele>
        <time>2026-05-21T11:28:40.000Z</time>
      </trkpt>
      <trkpt lat="43.77655" lon="3.8323">
        <ele>441.4</ele>
        <time>2026-05-21T11:28:41.000Z</time>
      </trkpt>
      <trkpt lat="43.77655" lon="3.8323">
        <ele>441.3</ele>
        <time>2026-05-21T11:28:42.000Z</time>
      </trkpt>
      <trkpt lat="43.77655" lon="3.8323">
        <ele>441.2</ele>
        <time>2026-05-21T11:28:43.000Z</time>
      </trkpt>
      <trkpt lat="43.77655" lon="3.8323">
        <ele>440.8</ele>
        <time>2026-05-21T11:28:44.000Z</time>
      </trkpt>
      <trkpt lat="43.77656" lon="3.8323">
        <ele>440.8</ele>
        <time>2026-05-21T11:28:45.000Z</time>
      </trkpt>
      <trkpt lat="43.77656" lon="3.8323">
        <ele>440.6</ele>
        <time>2026-05-21T11:28:46.000Z</time>
      </trkpt>
      <trkpt lat="43.77656" lon="3.83229">
        <ele>440.5</ele>
        <time>2026-05-21T11:28:47.000Z</time>
      </trkpt>
      <trkpt lat="43.77656" lon="3.83229">
        <ele>440.5</ele>
        <time>2026-05-21T11:28:48.000Z</time>
      </trkpt>
      <trkpt lat="43.77656" lon="3.83229">
        <ele>440.6</ele>
        <time>2026-05-21T11:28:49.000Z</time>
      </trkpt>
      <trkpt lat="43.77656" lon="3.83229">
        <ele>440.7</ele>
        <time>2026-05-21T11:28:50.000Z</time>
      </trkpt>
      <trkpt lat="43.77656" lon="3.83228">
        <ele>440.5</ele>
        <time>2026-05-21T11:28:51.000Z</time>
      </trkpt>
      <trkpt lat="43.77655" lon="3.83228">
        <ele>440.2</ele>
        <time>2026-05-21T11:28:52.000Z</time>
      </trkpt>
      <trkpt lat="43.77655" lon="3.83228">
        <ele>440.2</ele>
        <time>2026-05-21T11:28:53.000Z</time>
      </trkpt>
      <trkpt lat="43.77654" lon="3.83227">
        <ele>440.2</ele>
        <time>2026-05-21T11:28:54.000Z</time>
      </trkpt>
      <trkpt lat="43.77654" lon="3.83227">
        <ele>440.2</ele>
        <time>2026-05-21T11:28:55.000Z</time>
      </trkpt>
      <trkpt lat="43.77654" lon="3.83227">
        <ele>440.2</ele>
        <time>2026-05-21T11:28:56.000Z</time>
      </trkpt>
      <trkpt lat="43.77654" lon="3.83227">
        <ele>440.2</ele>
        <time>2026-05-21T11:28:57.000Z</time>
      </trkpt>
      <trkpt lat="43.77654" lon="3.83227">
        <ele>440.2</ele>
        <time>2026-05-21T11:28:58.000Z</time>
      </trkpt>
      <trkpt lat="43.77654" lon="3.83227">
        <ele>440.4</ele>
        <time>2026-05-21T11:28:59.000Z</time>
      </trkpt>
      <trkpt lat="43.77654" lon="3.83227">
        <ele>440.6</ele>
        <time>2026-05-21T11:29:00.000Z</time>
      </trkpt>
      <trkpt lat="43.77654" lon="3.83227">
        <ele>440.6</ele>
        <time>2026-05-21T11:29:01.000Z</time>
      </trkpt>
      <trkpt lat="43.77654" lon="3.83227">
        <ele>440.6</ele>
        <time>2026-05-21T11:29:02.000Z</time>
      </trkpt>
      <trkpt lat="43.77654" lon="3.83227">
        <ele>440.6</ele>
        <time>2026-05-21T11:29:03.000Z</time>
      </trkpt>
      <trkpt lat="43.77654" lon="3.83227">
        <ele>440.6</ele>
        <time>2026-05-21T11:29:04.000Z</time>
      </trkpt>
      <trkpt lat="43.77654" lon="3.83227">
        <ele>440.8</ele>
        <time>2026-05-21T11:29:05.000Z</time>
      </trkpt>
      <trkpt lat="43.77654" lon="3.83226">
        <ele>441</ele>
        <time>2026-05-21T11:29:06.000Z</time>
      </trkpt>
      <trkpt lat="43.77655" lon="3.83226">
        <ele>441.2</ele>
        <time>2026-05-21T11:29:07.000Z</time>
      </trkpt>
      <trkpt lat="43.77655" lon="3.83225">
        <ele>441.2</ele>
        <time>2026-05-21T11:29:08.000Z</time>
      </trkpt>
      <trkpt lat="43.77655" lon="3.83225">
        <ele>441.1</ele>
        <time>2026-05-21T11:29:09.000Z</time>
      </trkpt>
      <trkpt lat="43.77655" lon="3.83225">
        <ele>441.2</ele>
        <time>2026-05-21T11:29:10.000Z</time>
      </trkpt>
      <trkpt lat="43.77655" lon="3.83225">
        <ele>441.5</ele>
        <time>2026-05-21T11:29:11.000Z</time>
      </trkpt>
      <trkpt lat="43.77655" lon="3.83225">
        <ele>441.7</ele>
        <time>2026-05-21T11:29:12.000Z</time>
      </trkpt>
      <trkpt lat="43.77655" lon="3.83225">
        <ele>441.9</ele>
        <time>2026-05-21T11:29:13.000Z</time>
      </trkpt>
      <trkpt lat="43.77655" lon="3.83225">
        <ele>442</ele>
        <time>2026-05-21T11:29:14.000Z</time>
      </trkpt>
      <trkpt lat="43.77654" lon="3.83226">
        <ele>442.1</ele>
        <time>2026-05-21T11:29:15.000Z</time>
      </trkpt>
      <trkpt lat="43.77654" lon="3.83225">
        <ele>442.1</ele>
        <time>2026-05-21T11:29:16.000Z</time>
      </trkpt>
      <trkpt lat="43.77654" lon="3.83225">
        <ele>442.3</ele>
        <time>2026-05-21T11:29:17.000Z</time>
      </trkpt>
      <trkpt lat="43.77654" lon="3.83226">
        <ele>442.5</ele>
        <time>2026-05-21T11:29:18.000Z</time>
      </trkpt>
      <trkpt lat="43.77654" lon="3.83226">
        <ele>442.6</ele>
        <time>2026-05-21T11:29:19.000Z</time>
      </trkpt>
      <trkpt lat="43.77654" lon="3.83226">
        <ele>442.7</ele>
        <time>2026-05-21T11:29:20.000Z</time>
      </trkpt>
      <trkpt lat="43.77653" lon="3.83226">
        <ele>442.6</ele>
        <time>2026-05-21T11:29:21.000Z</time>
      </trkpt>
      <trkpt lat="43.77653" lon="3.83227">
        <ele>442.6</ele>
        <time>2026-05-21T11:29:22.000Z</time>
      </trkpt>
      <trkpt lat="43.77652" lon="3.83228">
        <ele>442.6</ele>
        <time>2026-05-21T11:29:23.000Z</time>
      </trkpt>
      <trkpt lat="43.77652" lon="3.83228">
        <ele>442.5</ele>
        <time>2026-05-21T11:29:24.000Z</time>
      </trkpt>
      <trkpt lat="43.77652" lon="3.83228">
        <ele>442.4</ele>
        <time>2026-05-21T11:29:25.000Z</time>
      </trkpt>
      <trkpt lat="43.77652" lon="3.83228">
        <ele>442.6</ele>
        <time>2026-05-21T11:29:26.000Z</time>
      </trkpt>
      <trkpt lat="43.77652" lon="3.83228">
        <ele>442.7</ele>
        <time>2026-05-21T11:29:27.000Z</time>
      </trkpt>
      <trkpt lat="43.77652" lon="3.83228">
        <ele>442.9</ele>
        <time>2026-05-21T11:29:28.000Z</time>
      </trkpt>
      <trkpt lat="43.77652" lon="3.83228">
        <ele>442.8</ele>
        <time>2026-05-21T11:29:29.000Z</time>
      </trkpt>
      <trkpt lat="43.77652" lon="3.83228">
        <ele>442.7</ele>
        <time>2026-05-21T11:29:30.000Z</time>
      </trkpt>
      <trkpt lat="43.77652" lon="3.83228">
        <ele>442.4</ele>
        <time>2026-05-21T11:29:31.000Z</time>
      </trkpt>
      <trkpt lat="43.77652" lon="3.83228">
        <ele>442.4</ele>
        <time>2026-05-21T11:29:32.000Z</time>
      </trkpt>
      <trkpt lat="43.77652" lon="3.83228">
        <ele>442.3</ele>
        <time>2026-05-21T11:29:33.000Z</time>
      </trkpt>
      <trkpt lat="43.77652" lon="3.83227">
        <ele>442.3</ele>
        <time>2026-05-21T11:29:34.000Z</time>
      </trkpt>
      <trkpt lat="43.77652" lon="3.83227">
        <ele>442.2</ele>
        <time>2026-05-21T11:29:35.000Z</time>
      </trkpt>
      <trkpt lat="43.77652" lon="3.83227">
        <ele>442.3</ele>
        <time>2026-05-21T11:29:36.000Z</time>
      </trkpt>
      <trkpt lat="43.77652" lon="3.83227">
        <ele>442.4</ele>
        <time>2026-05-21T11:29:37.000Z</time>
      </trkpt>
      <trkpt lat="43.77652" lon="3.83227">
        <ele>442.6</ele>
        <time>2026-05-21T11:29:38.000Z</time>
      </trkpt>
      <trkpt lat="43.77652" lon="3.83227">
        <ele>442.8</ele>
        <time>2026-05-21T11:29:39.000Z</time>
      </trkpt>
      <trkpt lat="43.77652" lon="3.83227">
        <ele>443</ele>
        <time>2026-05-21T11:29:40.000Z</time>
      </trkpt>
      <trkpt lat="43.77652" lon="3.83227">
        <ele>442.9</ele>
        <time>2026-05-21T11:29:41.000Z</time>
      </trkpt>
      <trkpt lat="43.77653" lon="3.83226">
        <ele>442.8</ele>
        <time>2026-05-21T11:29:42.000Z</time>
      </trkpt>
      <trkpt lat="43.77653" lon="3.83226">
        <ele>442.7</ele>
        <time>2026-05-21T11:29:43.000Z</time>
      </trkpt>
      <trkpt lat="43.77653" lon="3.83226">
        <ele>442.7</ele>
        <time>2026-05-21T11:29:44.000Z</time>
      </trkpt>
      <trkpt lat="43.77653" lon="3.83226">
        <ele>442.7</ele>
        <time>2026-05-21T11:29:45.000Z</time>
      </trkpt>
      <trkpt lat="43.77653" lon="3.83226">
        <ele>442.6</ele>
        <time>2026-05-21T11:29:46.000Z</time>
      </trkpt>
      <trkpt lat="43.77653" lon="3.83226">
        <ele>442.6</ele>
        <time>2026-05-21T11:29:47.000Z</time>
      </trkpt>
      <trkpt lat="43.77653" lon="3.83226">
        <ele>442.5</ele>
        <time>2026-05-21T11:29:48.000Z</time>
      </trkpt>
      <trkpt lat="43.77653" lon="3.83226">
        <ele>442.5</ele>
        <time>2026-05-21T11:29:49.000Z</time>
      </trkpt>
      <trkpt lat="43.77653" lon="3.83226">
        <ele>442.4</ele>
        <time>2026-05-21T11:29:50.000Z</time>
      </trkpt>
      <trkpt lat="43.77653" lon="3.83226">
        <ele>442.2</ele>
        <time>2026-05-21T11:29:51.000Z</time>
      </trkpt>
      <trkpt lat="43.77652" lon="3.83226">
        <ele>441.8</ele>
        <time>2026-05-21T11:29:52.000Z</time>
      </trkpt>
      <trkpt lat="43.77652" lon="3.83226">
        <ele>441.6</ele>
        <time>2026-05-21T11:29:53.000Z</time>
      </trkpt>
      <trkpt lat="43.77652" lon="3.83226">
        <ele>441.4</ele>
        <time>2026-05-21T11:29:54.000Z</time>
      </trkpt>
      <trkpt lat="43.77652" lon="3.83226">
        <ele>441.2</ele>
        <time>2026-05-21T11:29:55.000Z</time>
      </trkpt>
      <trkpt lat="43.77653" lon="3.83226">
        <ele>441.3</ele>
        <time>2026-05-21T11:29:56.000Z</time>
      </trkpt>
      <trkpt lat="43.77653" lon="3.83226">
        <ele>441.3</ele>
        <time>2026-05-21T11:29:57.000Z</time>
      </trkpt>
      <trkpt lat="43.77653" lon="3.83226">
        <ele>441.3</ele>
        <time>2026-05-21T11:29:58.000Z</time>
      </trkpt>
      <trkpt lat="43.77653" lon="3.83226">
        <ele>441.3</ele>
        <time>2026-05-21T11:29:59.000Z</time>
      </trkpt>
      <trkpt lat="43.77653" lon="3.83226">
        <ele>441.1</ele>
        <time>2026-05-21T11:30:00.000Z</time>
      </trkpt>
      <trkpt lat="43.77653" lon="3.83226">
        <ele>441.1</ele>
        <time>2026-05-21T11:30:01.000Z</time>
      </trkpt>
      <trkpt lat="43.77653" lon="3.83226">
        <ele>441.1</ele>
        <time>2026-05-21T11:30:02.000Z</time>
      </trkpt>
      <trkpt lat="43.77653" lon="3.83226">
        <ele>441.3</ele>
        <time>2026-05-21T11:30:03.000Z</time>
      </trkpt>
      <trkpt lat="43.77653" lon="3.83226">
        <ele>441.4</ele>
        <time>2026-05-21T11:30:04.000Z</time>
      </trkpt>
      <trkpt lat="43.77653" lon="3.83226">
        <ele>441.5</ele>
        <time>2026-05-21T11:30:05.000Z</time>
      </trkpt>
      <trkpt lat="43.77653" lon="3.83226">
        <ele>441.6</ele>
        <time>2026-05-21T11:30:06.000Z</time>
      </trkpt>
      <trkpt lat="43.77653" lon="3.83226">
        <ele>441.6</ele>
        <time>2026-05-21T11:30:07.000Z</time>
      </trkpt>
      <trkpt lat="43.77653" lon="3.83225">
        <ele>441.7</ele>
        <time>2026-05-21T11:30:08.000Z</time>
      </trkpt>
      <trkpt lat="43.77653" lon="3.83225">
        <ele>441.7</ele>
        <time>2026-05-21T11:30:09.000Z</time>
      </trkpt>
      <trkpt lat="43.77653" lon="3.83225">
        <ele>441.7</ele>
        <time>2026-05-21T11:30:10.000Z</time>
      </trkpt>
      <trkpt lat="43.77653" lon="3.83225">
        <ele>441.6</ele>
        <time>2026-05-21T11:30:11.000Z</time>
      </trkpt>
      <trkpt lat="43.77653" lon="3.83225">
        <ele>441.5</ele>
        <time>2026-05-21T11:30:12.000Z</time>
      </trkpt>
      <trkpt lat="43.77653" lon="3.83225">
        <ele>441.4</ele>
        <time>2026-05-21T11:30:13.000Z</time>
      </trkpt>
      <trkpt lat="43.77653" lon="3.83225">
        <ele>441.3</ele>
        <time>2026-05-21T11:30:14.000Z</time>
      </trkpt>
      <trkpt lat="43.77653" lon="3.83225">
        <ele>441.4</ele>
        <time>2026-05-21T11:30:15.000Z</time>
      </trkpt>
      <trkpt lat="43.77653" lon="3.83225">
        <ele>441.5</ele>
        <time>2026-05-21T11:30:16.000Z</time>
      </trkpt>
      <trkpt lat="43.77653" lon="3.83225">
        <ele>441.6</ele>
        <time>2026-05-21T11:30:17.000Z</time>
      </trkpt>
      <trkpt lat="43.77653" lon="3.83225">
        <ele>441.5</ele>
        <time>2026-05-21T11:30:18.000Z</time>
      </trkpt>
      <trkpt lat="43.77653" lon="3.83225">
        <ele>441.5</ele>
        <time>2026-05-21T11:30:19.000Z</time>
      </trkpt>
      <trkpt lat="43.77653" lon="3.83225">
        <ele>441.4</ele>
        <time>2026-05-21T11:30:20.000Z</time>
      </trkpt>
      <trkpt lat="43.77653" lon="3.83225">
        <ele>441.4</ele>
        <time>2026-05-21T11:30:21.000Z</time>
      </trkpt>
      <trkpt lat="43.77653" lon="3.83225">
        <ele>441.4</ele>
        <time>2026-05-21T11:30:22.000Z</time>
      </trkpt>
      <trkpt lat="43.77653" lon="3.83225">
        <ele>441.5</ele>
        <time>2026-05-21T11:30:23.000Z</time>
      </trkpt>
      <trkpt lat="43.77653" lon="3.83225">
        <ele>441.7</ele>
        <time>2026-05-21T11:30:24.000Z</time>
      </trkpt>
      <trkpt lat="43.77653" lon="3.83225">
        <ele>441.8</ele>
        <time>2026-05-21T11:30:25.000Z</time>
      </trkpt>
      <trkpt lat="43.77653" lon="3.83225">
        <ele>441.9</ele>
        <time>2026-05-21T11:30:26.000Z</time>
      </trkpt>
      <trkpt lat="43.77653" lon="3.83225">
        <ele>441.9</ele>
        <time>2026-05-21T11:30:27.000Z</time>
      </trkpt>
      <trkpt lat="43.77653" lon="3.83225">
        <ele>441.7</ele>
        <time>2026-05-21T11:30:28.000Z</time>
      </trkpt>
      <trkpt lat="43.77653" lon="3.83225">
        <ele>441.6</ele>
        <time>2026-05-21T11:30:29.000Z</time>
      </trkpt>
      <trkpt lat="43.77653" lon="3.83224">
        <ele>441.6</ele>
        <time>2026-05-21T11:30:30.000Z</time>
      </trkpt>
      <trkpt lat="43.77653" lon="3.83224">
        <ele>441.7</ele>
        <time>2026-05-21T11:30:31.000Z</time>
      </trkpt>
      <trkpt lat="43.77653" lon="3.83224">
        <ele>441.6</ele>
        <time>2026-05-21T11:30:32.000Z</time>
      </trkpt>
      <trkpt lat="43.77653" lon="3.83224">
        <ele>441.4</ele>
        <time>2026-05-21T11:30:33.000Z</time>
      </trkpt>
      <trkpt lat="43.77652" lon="3.83224">
        <ele>441.2</ele>
        <time>2026-05-21T11:30:34.000Z</time>
      </trkpt>
      <trkpt lat="43.77652" lon="3.83224">
        <ele>441.1</ele>
        <time>2026-05-21T11:30:35.000Z</time>
      </trkpt>
      <trkpt lat="43.77652" lon="3.83224">
        <ele>440.9</ele>
        <time>2026-05-21T11:30:36.000Z</time>
      </trkpt>
      <trkpt lat="43.77652" lon="3.83224">
        <ele>440.8</ele>
        <time>2026-05-21T11:30:37.000Z</time>
      </trkpt>
      <trkpt lat="43.77652" lon="3.83224">
        <ele>440.7</ele>
        <time>2026-05-21T11:30:38.000Z</time>
      </trkpt>
      <trkpt lat="43.77652" lon="3.83224">
        <ele>440.5</ele>
        <time>2026-05-21T11:30:39.000Z</time>
      </trkpt>
      <trkpt lat="43.77652" lon="3.83224">
        <ele>440.2</ele>
        <time>2026-05-21T11:30:40.000Z</time>
      </trkpt>
      <trkpt lat="43.77652" lon="3.83224">
        <ele>440.1</ele>
        <time>2026-05-21T11:30:41.000Z</time>
      </trkpt>
      <trkpt lat="43.77651" lon="3.83224">
        <ele>439.9</ele>
        <time>2026-05-21T11:30:42.000Z</time>
      </trkpt>
      <trkpt lat="43.77651" lon="3.83223">
        <ele>439.8</ele>
        <time>2026-05-21T11:30:43.000Z</time>
      </trkpt>
      <trkpt lat="43.77651" lon="3.83223">
        <ele>439.8</ele>
        <time>2026-05-21T11:30:44.000Z</time>
      </trkpt>
      <trkpt lat="43.77651" lon="3.83223">
        <ele>439.7</ele>
        <time>2026-05-21T11:30:45.000Z</time>
      </trkpt>
      <trkpt lat="43.77651" lon="3.83223">
        <ele>439.6</ele>
        <time>2026-05-21T11:30:46.000Z</time>
      </trkpt>
      <trkpt lat="43.77651" lon="3.83223">
        <ele>439.4</ele>
        <time>2026-05-21T11:30:47.000Z</time>
      </trkpt>
      <trkpt lat="43.77651" lon="3.83223">
        <ele>439.3</ele>
        <time>2026-05-21T11:30:48.000Z</time>
      </trkpt>
      <trkpt lat="43.77651" lon="3.83223">
        <ele>439.3</ele>
        <time>2026-05-21T11:30:49.000Z</time>
      </trkpt>
      <trkpt lat="43.77651" lon="3.83222">
        <ele>439.2</ele>
        <time>2026-05-21T11:30:50.000Z</time>
      </trkpt>
      <trkpt lat="43.77651" lon="3.83222">
        <ele>439.2</ele>
        <time>2026-05-21T11:30:51.000Z</time>
      </trkpt>
      <trkpt lat="43.77651" lon="3.83221">
        <ele>439.2</ele>
        <time>2026-05-21T11:30:52.000Z</time>
      </trkpt>
      <trkpt lat="43.77651" lon="3.83221">
        <ele>439.1</ele>
        <time>2026-05-21T11:30:53.000Z</time>
      </trkpt>
      <trkpt lat="43.77651" lon="3.8322">
        <ele>438.9</ele>
        <time>2026-05-21T11:30:54.000Z</time>
      </trkpt>
      <trkpt lat="43.77651" lon="3.8322">
        <ele>438.7</ele>
        <time>2026-05-21T11:30:55.000Z</time>
      </trkpt>
      <trkpt lat="43.77651" lon="3.83219">
        <ele>438.5</ele>
        <time>2026-05-21T11:30:56.000Z</time>
      </trkpt>
      <trkpt lat="43.77651" lon="3.8322">
        <ele>438.4</ele>
        <time>2026-05-21T11:30:57.000Z</time>
      </trkpt>
      <trkpt lat="43.77651" lon="3.83219">
        <ele>438.4</ele>
        <time>2026-05-21T11:30:58.000Z</time>
      </trkpt>
      <trkpt lat="43.77651" lon="3.83219">
        <ele>438.2</ele>
        <time>2026-05-21T11:30:59.000Z</time>
      </trkpt>
      <trkpt lat="43.77651" lon="3.83219">
        <ele>438</ele>
        <time>2026-05-21T11:31:00.000Z</time>
      </trkpt>
      <trkpt lat="43.77651" lon="3.83219">
        <ele>438</ele>
        <time>2026-05-21T11:31:01.000Z</time>
      </trkpt>
      <trkpt lat="43.77651" lon="3.83219">
        <ele>437.6</ele>
        <time>2026-05-21T11:31:02.000Z</time>
      </trkpt>
      <trkpt lat="43.77651" lon="3.83219">
        <ele>437.2</ele>
        <time>2026-05-21T11:31:03.000Z</time>
      </trkpt>
      <trkpt lat="43.77651" lon="3.83219">
        <ele>436.9</ele>
        <time>2026-05-21T11:31:04.000Z</time>
      </trkpt>
      <trkpt lat="43.77651" lon="3.83219">
        <ele>436.6</ele>
        <time>2026-05-21T11:31:05.000Z</time>
      </trkpt>
      <trkpt lat="43.77651" lon="3.83218">
        <ele>436.4</ele>
        <time>2026-05-21T11:31:06.000Z</time>
      </trkpt>
      <trkpt lat="43.77651" lon="3.83218">
        <ele>436.2</ele>
        <time>2026-05-21T11:31:07.000Z</time>
      </trkpt>
      <trkpt lat="43.77651" lon="3.83218">
        <ele>436</ele>
        <time>2026-05-21T11:31:08.000Z</time>
      </trkpt>
      <trkpt lat="43.77651" lon="3.83217">
        <ele>435.9</ele>
        <time>2026-05-21T11:31:09.000Z</time>
      </trkpt>
      <trkpt lat="43.77652" lon="3.83216">
        <ele>435.6</ele>
        <time>2026-05-21T11:31:10.000Z</time>
      </trkpt>
      <trkpt lat="43.77652" lon="3.83215">
        <ele>435.5</ele>
        <time>2026-05-21T11:31:11.000Z</time>
      </trkpt>
      <trkpt lat="43.77651" lon="3.83214">
        <ele>435.3</ele>
        <time>2026-05-21T11:31:12.000Z</time>
      </trkpt>
      <trkpt lat="43.77651" lon="3.83213">
        <ele>435.5</ele>
        <time>2026-05-21T11:31:13.000Z</time>
      </trkpt>
      <trkpt lat="43.77651" lon="3.83212">
        <ele>435.6</ele>
        <time>2026-05-21T11:31:14.000Z</time>
      </trkpt>
      <trkpt lat="43.7765" lon="3.83212">
        <ele>435.9</ele>
        <time>2026-05-21T11:31:15.000Z</time>
      </trkpt>
      <trkpt lat="43.7765" lon="3.83212">
        <ele>436</ele>
        <time>2026-05-21T11:31:16.000Z</time>
      </trkpt>
      <trkpt lat="43.7765" lon="3.83212">
        <ele>436.1</ele>
        <time>2026-05-21T11:31:17.000Z</time>
      </trkpt>
      <trkpt lat="43.7765" lon="3.83212">
        <ele>436.2</ele>
        <time>2026-05-21T11:31:18.000Z</time>
      </trkpt>
      <trkpt lat="43.7765" lon="3.83212">
        <ele>436.3</ele>
        <time>2026-05-21T11:31:19.000Z</time>
      </trkpt>
      <trkpt lat="43.7765" lon="3.83212">
        <ele>436.5</ele>
        <time>2026-05-21T11:31:20.000Z</time>
      </trkpt>
      <trkpt lat="43.7765" lon="3.83211">
        <ele>436.6</ele>
        <time>2026-05-21T11:31:21.000Z</time>
      </trkpt>
      <trkpt lat="43.7765" lon="3.83211">
        <ele>436.5</ele>
        <time>2026-05-21T11:31:22.000Z</time>
      </trkpt>
      <trkpt lat="43.7765" lon="3.83211">
        <ele>436.4</ele>
        <time>2026-05-21T11:31:23.000Z</time>
      </trkpt>
      <trkpt lat="43.7765" lon="3.83211">
        <ele>436.2</ele>
        <time>2026-05-21T11:31:24.000Z</time>
      </trkpt>
      <trkpt lat="43.7765" lon="3.83211">
        <ele>436.1</ele>
        <time>2026-05-21T11:31:25.000Z</time>
      </trkpt>
      <trkpt lat="43.7765" lon="3.83211">
        <ele>436</ele>
        <time>2026-05-21T11:31:26.000Z</time>
      </trkpt>
      <trkpt lat="43.7765" lon="3.83211">
        <ele>435.9</ele>
        <time>2026-05-21T11:31:27.000Z</time>
      </trkpt>
      <trkpt lat="43.7765" lon="3.83211">
        <ele>435.7</ele>
        <time>2026-05-21T11:31:28.000Z</time>
      </trkpt>
      <trkpt lat="43.7765" lon="3.83211">
        <ele>435.3</ele>
        <time>2026-05-21T11:31:29.000Z</time>
      </trkpt>
      <trkpt lat="43.7765" lon="3.83211">
        <ele>435.1</ele>
        <time>2026-05-21T11:31:30.000Z</time>
      </trkpt>
      <trkpt lat="43.7765" lon="3.83211">
        <ele>435</ele>
        <time>2026-05-21T11:31:31.000Z</time>
      </trkpt>
      <trkpt lat="43.7765" lon="3.83211">
        <ele>435</ele>
        <time>2026-05-21T11:31:32.000Z</time>
      </trkpt>
      <trkpt lat="43.7765" lon="3.8321">
        <ele>435.1</ele>
        <time>2026-05-21T11:31:33.000Z</time>
      </trkpt>
      <trkpt lat="43.7765" lon="3.8321">
        <ele>435.2</ele>
        <time>2026-05-21T11:31:34.000Z</time>
      </trkpt>
      <trkpt lat="43.7765" lon="3.8321">
        <ele>435.2</ele>
        <time>2026-05-21T11:31:35.000Z</time>
      </trkpt>
      <trkpt lat="43.7765" lon="3.8321">
        <ele>435</ele>
        <time>2026-05-21T11:31:36.000Z</time>
      </trkpt>
      <trkpt lat="43.7765" lon="3.8321">
        <ele>434.9</ele>
        <time>2026-05-21T11:31:37.000Z</time>
      </trkpt>
      <trkpt lat="43.7765" lon="3.8321">
        <ele>434.8</ele>
        <time>2026-05-21T11:31:38.000Z</time>
      </trkpt>
      <trkpt lat="43.7765" lon="3.8321">
        <ele>434.9</ele>
        <time>2026-05-21T11:31:39.000Z</time>
      </trkpt>
      <trkpt lat="43.7765" lon="3.8321">
        <ele>434.8</ele>
        <time>2026-05-21T11:31:40.000Z</time>
      </trkpt>
      <trkpt lat="43.7765" lon="3.8321">
        <ele>434.4</ele>
        <time>2026-05-21T11:31:41.000Z</time>
      </trkpt>
      <trkpt lat="43.7765" lon="3.8321">
        <ele>434.3</ele>
        <time>2026-05-21T11:31:42.000Z</time>
      </trkpt>
      <trkpt lat="43.7765" lon="3.8321">
        <ele>434.1</ele>
        <time>2026-05-21T11:31:43.000Z</time>
      </trkpt>
      <trkpt lat="43.7765" lon="3.8321">
        <ele>434.2</ele>
        <time>2026-05-21T11:31:44.000Z</time>
      </trkpt>
      <trkpt lat="43.7765" lon="3.8321">
        <ele>434.2</ele>
        <time>2026-05-21T11:31:45.000Z</time>
      </trkpt>
      <trkpt lat="43.7765" lon="3.83209">
        <ele>433.9</ele>
        <time>2026-05-21T11:31:46.000Z</time>
      </trkpt>
      <trkpt lat="43.7765" lon="3.83209">
        <ele>433.6</ele>
        <time>2026-05-21T11:31:47.000Z</time>
      </trkpt>
      <trkpt lat="43.7765" lon="3.83209">
        <ele>433.4</ele>
        <time>2026-05-21T11:31:48.000Z</time>
      </trkpt>
      <trkpt lat="43.7765" lon="3.83209">
        <ele>433.3</ele>
        <time>2026-05-21T11:31:49.000Z</time>
      </trkpt>
      <trkpt lat="43.7765" lon="3.83209">
        <ele>433.3</ele>
        <time>2026-05-21T11:31:50.000Z</time>
      </trkpt>
      <trkpt lat="43.7765" lon="3.83208">
        <ele>433.4</ele>
        <time>2026-05-21T11:31:51.000Z</time>
      </trkpt>
      <trkpt lat="43.7765" lon="3.83208">
        <ele>433.4</ele>
        <time>2026-05-21T11:31:52.000Z</time>
      </trkpt>
      <trkpt lat="43.7765" lon="3.83208">
        <ele>433.6</ele>
        <time>2026-05-21T11:31:53.000Z</time>
      </trkpt>
      <trkpt lat="43.7765" lon="3.83208">
        <ele>433.4</ele>
        <time>2026-05-21T11:31:54.000Z</time>
      </trkpt>
      <trkpt lat="43.7765" lon="3.83208">
        <ele>433.2</ele>
        <time>2026-05-21T11:31:55.000Z</time>
      </trkpt>
      <trkpt lat="43.7765" lon="3.83207">
        <ele>433</ele>
        <time>2026-05-21T11:31:56.000Z</time>
      </trkpt>
      <trkpt lat="43.7765" lon="3.83207">
        <ele>433</ele>
        <time>2026-05-21T11:31:57.000Z</time>
      </trkpt>
      <trkpt lat="43.7765" lon="3.83207">
        <ele>432.9</ele>
        <time>2026-05-21T11:31:58.000Z</time>
      </trkpt>
      <trkpt lat="43.7765" lon="3.83207">
        <ele>432.8</ele>
        <time>2026-05-21T11:31:59.000Z</time>
      </trkpt>
      <trkpt lat="43.77651" lon="3.83207">
        <ele>432.7</ele>
        <time>2026-05-21T11:32:00.000Z</time>
      </trkpt>
      <trkpt lat="43.77651" lon="3.83206">
        <ele>432.9</ele>
        <time>2026-05-21T11:32:01.000Z</time>
      </trkpt>
      <trkpt lat="43.77651" lon="3.83206">
        <ele>433.1</ele>
        <time>2026-05-21T11:32:02.000Z</time>
      </trkpt>
      <trkpt lat="43.77651" lon="3.83206">
        <ele>433.1</ele>
        <time>2026-05-21T11:32:03.000Z</time>
      </trkpt>
      <trkpt lat="43.77651" lon="3.83206">
        <ele>433.1</ele>
        <time>2026-05-21T11:32:04.000Z</time>
      </trkpt>
      <trkpt lat="43.77651" lon="3.83206">
        <ele>433.1</ele>
        <time>2026-05-21T11:32:05.000Z</time>
      </trkpt>
      <trkpt lat="43.77651" lon="3.83205">
        <ele>433.2</ele>
        <time>2026-05-21T11:32:06.000Z</time>
      </trkpt>
      <trkpt lat="43.77651" lon="3.83203">
        <ele>432.9</ele>
        <time>2026-05-21T11:32:07.000Z</time>
      </trkpt>
      <trkpt lat="43.77651" lon="3.83201">
        <ele>432.7</ele>
        <time>2026-05-21T11:32:08.000Z</time>
      </trkpt>
      <trkpt lat="43.77651" lon="3.83199">
        <ele>432.6</ele>
        <time>2026-05-21T11:32:09.000Z</time>
      </trkpt>
      <trkpt lat="43.77651" lon="3.83198">
        <ele>432.4</ele>
        <time>2026-05-21T11:32:10.000Z</time>
      </trkpt>
      <trkpt lat="43.77651" lon="3.83197">
        <ele>432.4</ele>
        <time>2026-05-21T11:32:11.000Z</time>
      </trkpt>
      <trkpt lat="43.77651" lon="3.83197">
        <ele>432.6</ele>
        <time>2026-05-21T11:32:12.000Z</time>
      </trkpt>
      <trkpt lat="43.77651" lon="3.83197">
        <ele>432.5</ele>
        <time>2026-05-21T11:32:13.000Z</time>
      </trkpt>
      <trkpt lat="43.77651" lon="3.83197">
        <ele>432.4</ele>
        <time>2026-05-21T11:32:14.000Z</time>
      </trkpt>
      <trkpt lat="43.77651" lon="3.83197">
        <ele>432.4</ele>
        <time>2026-05-21T11:32:15.000Z</time>
      </trkpt>
      <trkpt lat="43.77651" lon="3.83197">
        <ele>432.5</ele>
        <time>2026-05-21T11:32:16.000Z</time>
      </trkpt>
      <trkpt lat="43.77651" lon="3.83197">
        <ele>432.4</ele>
        <time>2026-05-21T11:32:17.000Z</time>
      </trkpt>
      <trkpt lat="43.77651" lon="3.83197">
        <ele>432.5</ele>
        <time>2026-05-21T11:32:18.000Z</time>
      </trkpt>
      <trkpt lat="43.77651" lon="3.83197">
        <ele>432.4</ele>
        <time>2026-05-21T11:32:19.000Z</time>
      </trkpt>
      <trkpt lat="43.77651" lon="3.83197">
        <ele>432.5</ele>
        <time>2026-05-21T11:32:20.000Z</time>
      </trkpt>
      <trkpt lat="43.77651" lon="3.83197">
        <ele>432.3</ele>
        <time>2026-05-21T11:32:21.000Z</time>
      </trkpt>
      <trkpt lat="43.77651" lon="3.83197">
        <ele>432.1</ele>
        <time>2026-05-21T11:32:22.000Z</time>
      </trkpt>
      <trkpt lat="43.77651" lon="3.83197">
        <ele>431.8</ele>
        <time>2026-05-21T11:32:23.000Z</time>
      </trkpt>
      <trkpt lat="43.77651" lon="3.83197">
        <ele>431.5</ele>
        <time>2026-05-21T11:32:24.000Z</time>
      </trkpt>
      <trkpt lat="43.77651" lon="3.83197">
        <ele>431.3</ele>
        <time>2026-05-21T11:32:25.000Z</time>
      </trkpt>
      <trkpt lat="43.77651" lon="3.83197">
        <ele>431.3</ele>
        <time>2026-05-21T11:32:26.000Z</time>
      </trkpt>
      <trkpt lat="43.77651" lon="3.83197">
        <ele>431.3</ele>
        <time>2026-05-21T11:32:27.000Z</time>
      </trkpt>
      <trkpt lat="43.77651" lon="3.83197">
        <ele>431.3</ele>
        <time>2026-05-21T11:32:28.000Z</time>
      </trkpt>
      <trkpt lat="43.77651" lon="3.83197">
        <ele>431.1</ele>
        <time>2026-05-21T11:32:29.000Z</time>
      </trkpt>
      <trkpt lat="43.77651" lon="3.83197">
        <ele>431.1</ele>
        <time>2026-05-21T11:32:30.000Z</time>
      </trkpt>
      <trkpt lat="43.77651" lon="3.83197">
        <ele>431.2</ele>
        <time>2026-05-21T11:32:31.000Z</time>
      </trkpt>
      <trkpt lat="43.77651" lon="3.83197">
        <ele>431.1</ele>
        <time>2026-05-21T11:32:32.000Z</time>
      </trkpt>
      <trkpt lat="43.77651" lon="3.83197">
        <ele>431</ele>
        <time>2026-05-21T11:32:33.000Z</time>
      </trkpt>
      <trkpt lat="43.77651" lon="3.83197">
        <ele>431.1</ele>
        <time>2026-05-21T11:32:34.000Z</time>
      </trkpt>
      <trkpt lat="43.77651" lon="3.83197">
        <ele>431</ele>
        <time>2026-05-21T11:32:35.000Z</time>
      </trkpt>
      <trkpt lat="43.77651" lon="3.83197">
        <ele>431.1</ele>
        <time>2026-05-21T11:32:36.000Z</time>
      </trkpt>
      <trkpt lat="43.77651" lon="3.83197">
        <ele>431</ele>
        <time>2026-05-21T11:32:37.000Z</time>
      </trkpt>
      <trkpt lat="43.77651" lon="3.83197">
        <ele>430.9</ele>
        <time>2026-05-21T11:32:38.000Z</time>
      </trkpt>
      <trkpt lat="43.77651" lon="3.83197">
        <ele>431</ele>
        <time>2026-05-21T11:32:39.000Z</time>
      </trkpt>
      <trkpt lat="43.77651" lon="3.83197">
        <ele>430.9</ele>
        <time>2026-05-21T11:32:40.000Z</time>
      </trkpt>
      <trkpt lat="43.7765" lon="3.83197">
        <ele>430.8</ele>
        <time>2026-05-21T11:32:41.000Z</time>
      </trkpt>
      <trkpt lat="43.7765" lon="3.83197">
        <ele>430.5</ele>
        <time>2026-05-21T11:32:42.000Z</time>
      </trkpt>
      <trkpt lat="43.7765" lon="3.83197">
        <ele>430.4</ele>
        <time>2026-05-21T11:32:43.000Z</time>
      </trkpt>
      <trkpt lat="43.7765" lon="3.83197">
        <ele>430.3</ele>
        <time>2026-05-21T11:32:44.000Z</time>
      </trkpt>
      <trkpt lat="43.7765" lon="3.83197">
        <ele>430.3</ele>
        <time>2026-05-21T11:32:45.000Z</time>
      </trkpt>
      <trkpt lat="43.7765" lon="3.83196">
        <ele>430.3</ele>
        <time>2026-05-21T11:32:46.000Z</time>
      </trkpt>
      <trkpt lat="43.7765" lon="3.83196">
        <ele>430.5</ele>
        <time>2026-05-21T11:32:47.000Z</time>
      </trkpt>
      <trkpt lat="43.7765" lon="3.83196">
        <ele>430.4</ele>
        <time>2026-05-21T11:32:48.000Z</time>
      </trkpt>
      <trkpt lat="43.7765" lon="3.83196">
        <ele>430.4</ele>
        <time>2026-05-21T11:32:49.000Z</time>
      </trkpt>
      <trkpt lat="43.7765" lon="3.83196">
        <ele>430.6</ele>
        <time>2026-05-21T11:32:50.000Z</time>
      </trkpt>
      <trkpt lat="43.7765" lon="3.83196">
        <ele>430.6</ele>
        <time>2026-05-21T11:32:51.000Z</time>
      </trkpt>
      <trkpt lat="43.7765" lon="3.83196">
        <ele>430.6</ele>
        <time>2026-05-21T11:32:52.000Z</time>
      </trkpt>
      <trkpt lat="43.7765" lon="3.83196">
        <ele>430.6</ele>
        <time>2026-05-21T11:32:53.000Z</time>
      </trkpt>
      <trkpt lat="43.77651" lon="3.83195">
        <ele>430.5</ele>
        <time>2026-05-21T11:32:54.000Z</time>
      </trkpt>
      <trkpt lat="43.77651" lon="3.83194">
        <ele>430.5</ele>
        <time>2026-05-21T11:32:55.000Z</time>
      </trkpt>
      <trkpt lat="43.77651" lon="3.83193">
        <ele>430.6</ele>
        <time>2026-05-21T11:32:56.000Z</time>
      </trkpt>
      <trkpt lat="43.77651" lon="3.83193">
        <ele>430.9</ele>
        <time>2026-05-21T11:32:57.000Z</time>
      </trkpt>
      <trkpt lat="43.77652" lon="3.83192">
        <ele>431.2</ele>
        <time>2026-05-21T11:32:58.000Z</time>
      </trkpt>
      <trkpt lat="43.77652" lon="3.83191">
        <ele>431.4</ele>
        <time>2026-05-21T11:32:59.000Z</time>
      </trkpt>
      <trkpt lat="43.77652" lon="3.83191">
        <ele>431.6</ele>
        <time>2026-05-21T11:33:00.000Z</time>
      </trkpt>
      <trkpt lat="43.77653" lon="3.8319">
        <ele>431.7</ele>
        <time>2026-05-21T11:33:01.000Z</time>
      </trkpt>
      <trkpt lat="43.77653" lon="3.8319">
        <ele>431.8</ele>
        <time>2026-05-21T11:33:02.000Z</time>
      </trkpt>
      <trkpt lat="43.77653" lon="3.83189">
        <ele>431.9</ele>
        <time>2026-05-21T11:33:03.000Z</time>
      </trkpt>
      <trkpt lat="43.77653" lon="3.83189">
        <ele>432</ele>
        <time>2026-05-21T11:33:04.000Z</time>
      </trkpt>
      <trkpt lat="43.77653" lon="3.83189">
        <ele>432.1</ele>
        <time>2026-05-21T11:33:05.000Z</time>
      </trkpt>
      <trkpt lat="43.77653" lon="3.83189">
        <ele>432.2</ele>
        <time>2026-05-21T11:33:06.000Z</time>
      </trkpt>
      <trkpt lat="43.77653" lon="3.83189">
        <ele>432.2</ele>
        <time>2026-05-21T11:33:07.000Z</time>
      </trkpt>
      <trkpt lat="43.77653" lon="3.83189">
        <ele>432.1</ele>
        <time>2026-05-21T11:33:08.000Z</time>
      </trkpt>
      <trkpt lat="43.77653" lon="3.83189">
        <ele>432</ele>
        <time>2026-05-21T11:33:09.000Z</time>
      </trkpt>
      <trkpt lat="43.77653" lon="3.83189">
        <ele>432</ele>
        <time>2026-05-21T11:33:10.000Z</time>
      </trkpt>
      <trkpt lat="43.77653" lon="3.83189">
        <ele>432.1</ele>
        <time>2026-05-21T11:33:11.000Z</time>
      </trkpt>
      <trkpt lat="43.77654" lon="3.83188">
        <ele>432.2</ele>
        <time>2026-05-21T11:33:12.000Z</time>
      </trkpt>
      <trkpt lat="43.77654" lon="3.83188">
        <ele>432.4</ele>
        <time>2026-05-21T11:33:13.000Z</time>
      </trkpt>
      <trkpt lat="43.77654" lon="3.83188">
        <ele>432.5</ele>
        <time>2026-05-21T11:33:14.000Z</time>
      </trkpt>
      <trkpt lat="43.77654" lon="3.83188">
        <ele>432.4</ele>
        <time>2026-05-21T11:33:15.000Z</time>
      </trkpt>
      <trkpt lat="43.77654" lon="3.83188">
        <ele>432.3</ele>
        <time>2026-05-21T11:33:16.000Z</time>
      </trkpt>
      <trkpt lat="43.77654" lon="3.83188">
        <ele>432.2</ele>
        <time>2026-05-21T11:33:17.000Z</time>
      </trkpt>
      <trkpt lat="43.77654" lon="3.83188">
        <ele>432.2</ele>
        <time>2026-05-21T11:33:18.000Z</time>
      </trkpt>
      <trkpt lat="43.77654" lon="3.83188">
        <ele>432.1</ele>
        <time>2026-05-21T11:33:19.000Z</time>
      </trkpt>
      <trkpt lat="43.77654" lon="3.83188">
        <ele>432</ele>
        <time>2026-05-21T11:33:20.000Z</time>
      </trkpt>
      <trkpt lat="43.77654" lon="3.83188">
        <ele>432.1</ele>
        <time>2026-05-21T11:33:21.000Z</time>
      </trkpt>
      <trkpt lat="43.77654" lon="3.83187">
        <ele>432.2</ele>
        <time>2026-05-21T11:33:22.000Z</time>
      </trkpt>
      <trkpt lat="43.77654" lon="3.83187">
        <ele>432.4</ele>
        <time>2026-05-21T11:33:23.000Z</time>
      </trkpt>
      <trkpt lat="43.77655" lon="3.83187">
        <ele>432.4</ele>
        <time>2026-05-21T11:33:24.000Z</time>
      </trkpt>
      <trkpt lat="43.77655" lon="3.83186">
        <ele>432.2</ele>
        <time>2026-05-21T11:33:25.000Z</time>
      </trkpt>
      <trkpt lat="43.77655" lon="3.83185">
        <ele>432.2</ele>
        <time>2026-05-21T11:33:26.000Z</time>
      </trkpt>
      <trkpt lat="43.77655" lon="3.83185">
        <ele>432.2</ele>
        <time>2026-05-21T11:33:27.000Z</time>
      </trkpt>
      <trkpt lat="43.77655" lon="3.83185">
        <ele>432.1</ele>
        <time>2026-05-21T11:33:28.000Z</time>
      </trkpt>
      <trkpt lat="43.77655" lon="3.83184">
        <ele>432</ele>
        <time>2026-05-21T11:33:29.000Z</time>
      </trkpt>
      <trkpt lat="43.77655" lon="3.83184">
        <ele>432.3</ele>
        <time>2026-05-21T11:33:30.000Z</time>
      </trkpt>
      <trkpt lat="43.77655" lon="3.83184">
        <ele>432.6</ele>
        <time>2026-05-21T11:33:31.000Z</time>
      </trkpt>
      <trkpt lat="43.77655" lon="3.83184">
        <ele>432.8</ele>
        <time>2026-05-21T11:33:32.000Z</time>
      </trkpt>
      <trkpt lat="43.77655" lon="3.83184">
        <ele>432.9</ele>
        <time>2026-05-21T11:33:33.000Z</time>
      </trkpt>
      <trkpt lat="43.77655" lon="3.83184">
        <ele>432.9</ele>
        <time>2026-05-21T11:33:34.000Z</time>
      </trkpt>
      <trkpt lat="43.77655" lon="3.83184">
        <ele>432.9</ele>
        <time>2026-05-21T11:33:35.000Z</time>
      </trkpt>
      <trkpt lat="43.77655" lon="3.83184">
        <ele>432.9</ele>
        <time>2026-05-21T11:33:36.000Z</time>
      </trkpt>
      <trkpt lat="43.77655" lon="3.83184">
        <ele>432.8</ele>
        <time>2026-05-21T11:33:37.000Z</time>
      </trkpt>
      <trkpt lat="43.77655" lon="3.83184">
        <ele>432.8</ele>
        <time>2026-05-21T11:33:38.000Z</time>
      </trkpt>
      <trkpt lat="43.77655" lon="3.83185">
        <ele>432.8</ele>
        <time>2026-05-21T11:33:39.000Z</time>
      </trkpt>
      <trkpt lat="43.77655" lon="3.83185">
        <ele>432.8</ele>
        <time>2026-05-21T11:33:40.000Z</time>
      </trkpt>
      <trkpt lat="43.77655" lon="3.83185">
        <ele>433</ele>
        <time>2026-05-21T11:33:41.000Z</time>
      </trkpt>
      <trkpt lat="43.77655" lon="3.83185">
        <ele>433.2</ele>
        <time>2026-05-21T11:33:42.000Z</time>
      </trkpt>
      <trkpt lat="43.77655" lon="3.83185">
        <ele>433.5</ele>
        <time>2026-05-21T11:33:43.000Z</time>
      </trkpt>
      <trkpt lat="43.77655" lon="3.83185">
        <ele>433.7</ele>
        <time>2026-05-21T11:33:44.000Z</time>
      </trkpt>
      <trkpt lat="43.77655" lon="3.83184">
        <ele>434</ele>
        <time>2026-05-21T11:33:45.000Z</time>
      </trkpt>
      <trkpt lat="43.77655" lon="3.83184">
        <ele>434.2</ele>
        <time>2026-05-21T11:33:46.000Z</time>
      </trkpt>
      <trkpt lat="43.77655" lon="3.83184">
        <ele>434.4</ele>
        <time>2026-05-21T11:33:47.000Z</time>
      </trkpt>
      <trkpt lat="43.77655" lon="3.83184">
        <ele>434.3</ele>
        <time>2026-05-21T11:33:48.000Z</time>
      </trkpt>
      <trkpt lat="43.77655" lon="3.83184">
        <ele>434.2</ele>
        <time>2026-05-21T11:33:49.000Z</time>
      </trkpt>
      <trkpt lat="43.77656" lon="3.83184">
        <ele>434.3</ele>
        <time>2026-05-21T11:33:50.000Z</time>
      </trkpt>
      <trkpt lat="43.77656" lon="3.83184">
        <ele>434.2</ele>
        <time>2026-05-21T11:33:51.000Z</time>
      </trkpt>
      <trkpt lat="43.77656" lon="3.83184">
        <ele>434.3</ele>
        <time>2026-05-21T11:33:52.000Z</time>
      </trkpt>
      <trkpt lat="43.77656" lon="3.83184">
        <ele>434.4</ele>
        <time>2026-05-21T11:33:53.000Z</time>
      </trkpt>
      <trkpt lat="43.77656" lon="3.83184">
        <ele>434.5</ele>
        <time>2026-05-21T11:33:54.000Z</time>
      </trkpt>
      <trkpt lat="43.77656" lon="3.83184">
        <ele>434.7</ele>
        <time>2026-05-21T11:33:55.000Z</time>
      </trkpt>
      <trkpt lat="43.77656" lon="3.83184">
        <ele>434.8</ele>
        <time>2026-05-21T11:33:56.000Z</time>
      </trkpt>
      <trkpt lat="43.77656" lon="3.83184">
        <ele>435</ele>
        <time>2026-05-21T11:33:57.000Z</time>
      </trkpt>
      <trkpt lat="43.77656" lon="3.83184">
        <ele>435.1</ele>
        <time>2026-05-21T11:33:58.000Z</time>
      </trkpt>
      <trkpt lat="43.77656" lon="3.83184">
        <ele>435.2</ele>
        <time>2026-05-21T11:33:59.000Z</time>
      </trkpt>
      <trkpt lat="43.77656" lon="3.83184">
        <ele>435.2</ele>
        <time>2026-05-21T11:34:00.000Z</time>
      </trkpt>
      <trkpt lat="43.77656" lon="3.83184">
        <ele>435.2</ele>
        <time>2026-05-21T11:34:01.000Z</time>
      </trkpt>
      <trkpt lat="43.77656" lon="3.83184">
        <ele>435.1</ele>
        <time>2026-05-21T11:34:02.000Z</time>
      </trkpt>
      <trkpt lat="43.77656" lon="3.83184">
        <ele>435</ele>
        <time>2026-05-21T11:34:03.000Z</time>
      </trkpt>
      <trkpt lat="43.77656" lon="3.83183">
        <ele>434.9</ele>
        <time>2026-05-21T11:34:04.000Z</time>
      </trkpt>
      <trkpt lat="43.77656" lon="3.83183">
        <ele>434.7</ele>
        <time>2026-05-21T11:34:05.999Z</time>
      </trkpt>
      <trkpt lat="43.77656" lon="3.83183">
        <ele>434.7</ele>
        <time>2026-05-21T11:34:06.999Z</time>
      </trkpt>
      <trkpt lat="43.77656" lon="3.83183">
        <ele>434.7</ele>
        <time>2026-05-21T11:34:07.999Z</time>
      </trkpt>
      <trkpt lat="43.77656" lon="3.83183">
        <ele>435</ele>
        <time>2026-05-21T11:34:08.999Z</time>
      </trkpt>
      <trkpt lat="43.77656" lon="3.83183">
        <ele>435.2</ele>
        <time>2026-05-21T11:34:09.999Z</time>
      </trkpt>
      <trkpt lat="43.77656" lon="3.83183">
        <ele>435.4</ele>
        <time>2026-05-21T11:34:10.999Z</time>
      </trkpt>
      <trkpt lat="43.77656" lon="3.83183">
        <ele>435.3</ele>
        <time>2026-05-21T11:34:11.999Z</time>
      </trkpt>
      <trkpt lat="43.77656" lon="3.83183">
        <ele>435.3</ele>
        <time>2026-05-21T11:34:12.999Z</time>
      </trkpt>
      <trkpt lat="43.77656" lon="3.83183">
        <ele>435.2</ele>
        <time>2026-05-21T11:34:14.999Z</time>
      </trkpt>
      <trkpt lat="43.77656" lon="3.83183">
        <ele>435.4</ele>
        <time>2026-05-21T11:34:15.999Z</time>
      </trkpt>
      <trkpt lat="43.77656" lon="3.83182">
        <ele>435.5</ele>
        <time>2026-05-21T11:34:16.999Z</time>
      </trkpt>
      <trkpt lat="43.77656" lon="3.83182">
        <ele>435.5</ele>
        <time>2026-05-21T11:34:17.999Z</time>
      </trkpt>
      <trkpt lat="43.77656" lon="3.83182">
        <ele>435.5</ele>
        <time>2026-05-21T11:34:18.999Z</time>
      </trkpt>
      <trkpt lat="43.77656" lon="3.83182">
        <ele>435.5</ele>
        <time>2026-05-21T11:34:19.999Z</time>
      </trkpt>
      <trkpt lat="43.77656" lon="3.83182">
        <ele>435.4</ele>
        <time>2026-05-21T11:34:20.999Z</time>
      </trkpt>
      <trkpt lat="43.77656" lon="3.83182">
        <ele>435.4</ele>
        <time>2026-05-21T11:34:21.999Z</time>
      </trkpt>
      <trkpt lat="43.77656" lon="3.83181">
        <ele>435.4</ele>
        <time>2026-05-21T11:34:22.999Z</time>
      </trkpt>
      <trkpt lat="43.77656" lon="3.8318">
        <ele>435.4</ele>
        <time>2026-05-21T11:34:23.999Z</time>
      </trkpt>
      <trkpt lat="43.77656" lon="3.83179">
        <ele>435.3</ele>
        <time>2026-05-21T11:34:24.999Z</time>
      </trkpt>
      <trkpt lat="43.77656" lon="3.83178">
        <ele>435.1</ele>
        <time>2026-05-21T11:34:25.999Z</time>
      </trkpt>
      <trkpt lat="43.77656" lon="3.83178">
        <ele>435</ele>
        <time>2026-05-21T11:34:26.999Z</time>
      </trkpt>
      <trkpt lat="43.77656" lon="3.83178">
        <ele>435.1</ele>
        <time>2026-05-21T11:34:27.999Z</time>
      </trkpt>
      <trkpt lat="43.77656" lon="3.83178">
        <ele>435.2</ele>
        <time>2026-05-21T11:34:28.999Z</time>
      </trkpt>
      <trkpt lat="43.77656" lon="3.83178">
        <ele>435.4</ele>
        <time>2026-05-21T11:34:29.999Z</time>
      </trkpt>
      <trkpt lat="43.77656" lon="3.83178">
        <ele>435.4</ele>
        <time>2026-05-21T11:34:30.999Z</time>
      </trkpt>
      <trkpt lat="43.77656" lon="3.83178">
        <ele>435.2</ele>
        <time>2026-05-21T11:34:31.999Z</time>
      </trkpt>
      <trkpt lat="43.77656" lon="3.83178">
        <ele>435.1</ele>
        <time>2026-05-21T11:34:32.999Z</time>
      </trkpt>
      <trkpt lat="43.77656" lon="3.83177">
        <ele>435</ele>
        <time>2026-05-21T11:34:33.999Z</time>
      </trkpt>
      <trkpt lat="43.77656" lon="3.83176">
        <ele>434.8</ele>
        <time>2026-05-21T11:34:34.999Z</time>
      </trkpt>
      <trkpt lat="43.77657" lon="3.83175">
        <ele>434.7</ele>
        <time>2026-05-21T11:34:35.999Z</time>
      </trkpt>
      <trkpt lat="43.77657" lon="3.83174">
        <ele>434.8</ele>
        <time>2026-05-21T11:34:36.999Z</time>
      </trkpt>
      <trkpt lat="43.77657" lon="3.83174">
        <ele>434.8</ele>
        <time>2026-05-21T11:34:37.999Z</time>
      </trkpt>
      <trkpt lat="43.77657" lon="3.83173">
        <ele>434.8</ele>
        <time>2026-05-21T11:34:38.999Z</time>
      </trkpt>
      <trkpt lat="43.77657" lon="3.83172">
        <ele>434.7</ele>
        <time>2026-05-21T11:34:39.999Z</time>
      </trkpt>
      <trkpt lat="43.77658" lon="3.8317">
        <ele>434.9</ele>
        <time>2026-05-21T11:34:40.999Z</time>
      </trkpt>
      <trkpt lat="43.77658" lon="3.8317">
        <ele>434.8</ele>
        <time>2026-05-21T11:34:41.999Z</time>
      </trkpt>
      <trkpt lat="43.77658" lon="3.8317">
        <ele>434.8</ele>
        <time>2026-05-21T11:34:42.999Z</time>
      </trkpt>
      <trkpt lat="43.77658" lon="3.8317">
        <ele>435.1</ele>
        <time>2026-05-21T11:34:43.999Z</time>
      </trkpt>
      <trkpt lat="43.77658" lon="3.8317">
        <ele>435.2</ele>
        <time>2026-05-21T11:34:44.999Z</time>
      </trkpt>
      <trkpt lat="43.77657" lon="3.8317">
        <ele>435.3</ele>
        <time>2026-05-21T11:34:45.999Z</time>
      </trkpt>
      <trkpt lat="43.77657" lon="3.8317">
        <ele>435.7</ele>
        <time>2026-05-21T11:34:46.999Z</time>
      </trkpt>
      <trkpt lat="43.77657" lon="3.8317">
        <ele>435.6</ele>
        <time>2026-05-21T11:34:47.999Z</time>
      </trkpt>
      <trkpt lat="43.77657" lon="3.8317">
        <ele>435.6</ele>
        <time>2026-05-21T11:34:48.999Z</time>
      </trkpt>
      <trkpt lat="43.77657" lon="3.8317">
        <ele>435.6</ele>
        <time>2026-05-21T11:34:49.999Z</time>
      </trkpt>
      <trkpt lat="43.77657" lon="3.8317">
        <ele>435.7</ele>
        <time>2026-05-21T11:34:50.999Z</time>
      </trkpt>
      <trkpt lat="43.77657" lon="3.8317">
        <ele>435.7</ele>
        <time>2026-05-21T11:34:51.999Z</time>
      </trkpt>
      <trkpt lat="43.77657" lon="3.83169">
        <ele>435.6</ele>
        <time>2026-05-21T11:34:52.999Z</time>
      </trkpt>
      <trkpt lat="43.77657" lon="3.83169">
        <ele>435.8</ele>
        <time>2026-05-21T11:34:53.999Z</time>
      </trkpt>
      <trkpt lat="43.77657" lon="3.83169">
        <ele>435.9</ele>
        <time>2026-05-21T11:34:54.999Z</time>
      </trkpt>
      <trkpt lat="43.77657" lon="3.83169">
        <ele>435.9</ele>
        <time>2026-05-21T11:34:55.999Z</time>
      </trkpt>
      <trkpt lat="43.77657" lon="3.83169">
        <ele>436</ele>
        <time>2026-05-21T11:34:56.999Z</time>
      </trkpt>
      <trkpt lat="43.77657" lon="3.83169">
        <ele>435.9</ele>
        <time>2026-05-21T11:34:57.999Z</time>
      </trkpt>
      <trkpt lat="43.77657" lon="3.83168">
        <ele>436</ele>
        <time>2026-05-21T11:34:58.999Z</time>
      </trkpt>
      <trkpt lat="43.77657" lon="3.83167">
        <ele>436</ele>
        <time>2026-05-21T11:34:59.999Z</time>
      </trkpt>
      <trkpt lat="43.77657" lon="3.83166">
        <ele>435.9</ele>
        <time>2026-05-21T11:35:00.999Z</time>
      </trkpt>
      <trkpt lat="43.77657" lon="3.83165">
        <ele>436</ele>
        <time>2026-05-21T11:35:01.999Z</time>
      </trkpt>
      <trkpt lat="43.77656" lon="3.83164">
        <ele>436</ele>
        <time>2026-05-21T11:35:02.999Z</time>
      </trkpt>
      <trkpt lat="43.77656" lon="3.83163">
        <ele>436.1</ele>
        <time>2026-05-21T11:35:03.999Z</time>
      </trkpt>
      <trkpt lat="43.77656" lon="3.83162">
        <ele>435.9</ele>
        <time>2026-05-21T11:35:04.999Z</time>
      </trkpt>
      <trkpt lat="43.77655" lon="3.83162">
        <ele>436.1</ele>
        <time>2026-05-21T11:35:05.999Z</time>
      </trkpt>
      <trkpt lat="43.77656" lon="3.83162">
        <ele>436.2</ele>
        <time>2026-05-21T11:35:06.999Z</time>
      </trkpt>
      <trkpt lat="43.77656" lon="3.83162">
        <ele>436.2</ele>
        <time>2026-05-21T11:35:07.999Z</time>
      </trkpt>
      <trkpt lat="43.77656" lon="3.83163">
        <ele>436.2</ele>
        <time>2026-05-21T11:35:08.999Z</time>
      </trkpt>
      <trkpt lat="43.77656" lon="3.83163">
        <ele>436.5</ele>
        <time>2026-05-21T11:35:09.999Z</time>
      </trkpt>
      <trkpt lat="43.77656" lon="3.83163">
        <ele>436.7</ele>
        <time>2026-05-21T11:35:10.999Z</time>
      </trkpt>
      <trkpt lat="43.77656" lon="3.83163">
        <ele>436.7</ele>
        <time>2026-05-21T11:35:11.999Z</time>
      </trkpt>
      <trkpt lat="43.77656" lon="3.83163">
        <ele>436.8</ele>
        <time>2026-05-21T11:35:12.999Z</time>
      </trkpt>
      <trkpt lat="43.77656" lon="3.83163">
        <ele>436.7</ele>
        <time>2026-05-21T11:35:13.999Z</time>
      </trkpt>
      <trkpt lat="43.77656" lon="3.83163">
        <ele>436.6</ele>
        <time>2026-05-21T11:35:14.999Z</time>
      </trkpt>
      <trkpt lat="43.77656" lon="3.83163">
        <ele>436.7</ele>
        <time>2026-05-21T11:35:15.999Z</time>
      </trkpt>
      <trkpt lat="43.77656" lon="3.83163">
        <ele>436.7</ele>
        <time>2026-05-21T11:35:16.999Z</time>
      </trkpt>
      <trkpt lat="43.77656" lon="3.83163">
        <ele>436.7</ele>
        <time>2026-05-21T11:35:17.999Z</time>
      </trkpt>
      <trkpt lat="43.77656" lon="3.83163">
        <ele>436.8</ele>
        <time>2026-05-21T11:35:18.999Z</time>
      </trkpt>
      <trkpt lat="43.77656" lon="3.83163">
        <ele>436.9</ele>
        <time>2026-05-21T11:35:19.999Z</time>
      </trkpt>
      <trkpt lat="43.77656" lon="3.83163">
        <ele>436.9</ele>
        <time>2026-05-21T11:35:20.999Z</time>
      </trkpt>
      <trkpt lat="43.77656" lon="3.83163">
        <ele>437</ele>
        <time>2026-05-21T11:35:21.999Z</time>
      </trkpt>
      <trkpt lat="43.77656" lon="3.83163">
        <ele>437</ele>
        <time>2026-05-21T11:35:22.999Z</time>
      </trkpt>
      <trkpt lat="43.77656" lon="3.83163">
        <ele>437.1</ele>
        <time>2026-05-21T11:35:23.999Z</time>
      </trkpt>
      <trkpt lat="43.77656" lon="3.83163">
        <ele>437.1</ele>
        <time>2026-05-21T11:35:24.999Z</time>
      </trkpt>
      <trkpt lat="43.77657" lon="3.83163">
        <ele>437.4</ele>
        <time>2026-05-21T11:35:25.999Z</time>
      </trkpt>
      <trkpt lat="43.77657" lon="3.83163">
        <ele>437.6</ele>
        <time>2026-05-21T11:35:26.999Z</time>
      </trkpt>
      <trkpt lat="43.77657" lon="3.83163">
        <ele>437.7</ele>
        <time>2026-05-21T11:35:27.999Z</time>
      </trkpt>
      <trkpt lat="43.77657" lon="3.83163">
        <ele>437.4</ele>
        <time>2026-05-21T11:35:28.999Z</time>
      </trkpt>
      <trkpt lat="43.77657" lon="3.83163">
        <ele>437.5</ele>
        <time>2026-05-21T11:35:29.999Z</time>
      </trkpt>
      <trkpt lat="43.77656" lon="3.83163">
        <ele>437.6</ele>
        <time>2026-05-21T11:35:30.999Z</time>
      </trkpt>
      <trkpt lat="43.77656" lon="3.83163">
        <ele>437.7</ele>
        <time>2026-05-21T11:35:31.999Z</time>
      </trkpt>
      <trkpt lat="43.77656" lon="3.83162">
        <ele>437.9</ele>
        <time>2026-05-21T11:35:32.999Z</time>
      </trkpt>
      <trkpt lat="43.77656" lon="3.83162">
        <ele>438.1</ele>
        <time>2026-05-21T11:35:33.999Z</time>
      </trkpt>
      <trkpt lat="43.77656" lon="3.83161">
        <ele>438.4</ele>
        <time>2026-05-21T11:35:34.999Z</time>
      </trkpt>
      <trkpt lat="43.77656" lon="3.83161">
        <ele>438.6</ele>
        <time>2026-05-21T11:35:35.999Z</time>
      </trkpt>
      <trkpt lat="43.77656" lon="3.83161">
        <ele>438.8</ele>
        <time>2026-05-21T11:35:36.999Z</time>
      </trkpt>
      <trkpt lat="43.77656" lon="3.83161">
        <ele>438.8</ele>
        <time>2026-05-21T11:35:37.999Z</time>
      </trkpt>
      <trkpt lat="43.77656" lon="3.83161">
        <ele>438.8</ele>
        <time>2026-05-21T11:35:38.999Z</time>
      </trkpt>
      <trkpt lat="43.77656" lon="3.83161">
        <ele>438.7</ele>
        <time>2026-05-21T11:35:39.999Z</time>
      </trkpt>
      <trkpt lat="43.77656" lon="3.83161">
        <ele>438.8</ele>
        <time>2026-05-21T11:35:40.999Z</time>
      </trkpt>
      <trkpt lat="43.77656" lon="3.83161">
        <ele>439</ele>
        <time>2026-05-21T11:35:41.999Z</time>
      </trkpt>
      <trkpt lat="43.77656" lon="3.83161">
        <ele>439.1</ele>
        <time>2026-05-21T11:35:42.999Z</time>
      </trkpt>
      <trkpt lat="43.77656" lon="3.8316">
        <ele>439.4</ele>
        <time>2026-05-21T11:35:43.999Z</time>
      </trkpt>
      <trkpt lat="43.77656" lon="3.8316">
        <ele>439.6</ele>
        <time>2026-05-21T11:35:44.999Z</time>
      </trkpt>
      <trkpt lat="43.77656" lon="3.8316">
        <ele>439.5</ele>
        <time>2026-05-21T11:35:45.999Z</time>
      </trkpt>
      <trkpt lat="43.77656" lon="3.8316">
        <ele>439.4</ele>
        <time>2026-05-21T11:35:46.999Z</time>
      </trkpt>
      <trkpt lat="43.77656" lon="3.8316">
        <ele>439.6</ele>
        <time>2026-05-21T11:35:47.999Z</time>
      </trkpt>
      <trkpt lat="43.77656" lon="3.8316">
        <ele>439.4</ele>
        <time>2026-05-21T11:35:48.999Z</time>
      </trkpt>
      <trkpt lat="43.77656" lon="3.83159">
        <ele>439.5</ele>
        <time>2026-05-21T11:35:49.999Z</time>
      </trkpt>
      <trkpt lat="43.77656" lon="3.83159">
        <ele>439.6</ele>
        <time>2026-05-21T11:35:50.999Z</time>
      </trkpt>
      <trkpt lat="43.77656" lon="3.83159">
        <ele>439.5</ele>
        <time>2026-05-21T11:35:51.999Z</time>
      </trkpt>
      <trkpt lat="43.77656" lon="3.83158">
        <ele>439.6</ele>
        <time>2026-05-21T11:35:52.999Z</time>
      </trkpt>
      <trkpt lat="43.77656" lon="3.83158">
        <ele>439.9</ele>
        <time>2026-05-21T11:35:53.999Z</time>
      </trkpt>
      <trkpt lat="43.77656" lon="3.83158">
        <ele>440.1</ele>
        <time>2026-05-21T11:35:54.999Z</time>
      </trkpt>
      <trkpt lat="43.77656" lon="3.83158">
        <ele>440.2</ele>
        <time>2026-05-21T11:35:55.999Z</time>
      </trkpt>
      <trkpt lat="43.77656" lon="3.83157">
        <ele>440.3</ele>
        <time>2026-05-21T11:35:56.999Z</time>
      </trkpt>
      <trkpt lat="43.77656" lon="3.83157">
        <ele>440.3</ele>
        <time>2026-05-21T11:35:57.999Z</time>
      </trkpt>
      <trkpt lat="43.77656" lon="3.83156">
        <ele>440.5</ele>
        <time>2026-05-21T11:35:58.999Z</time>
      </trkpt>
      <trkpt lat="43.77656" lon="3.83156">
        <ele>440.5</ele>
        <time>2026-05-21T11:35:59.999Z</time>
      </trkpt>
      <trkpt lat="43.77656" lon="3.83156">
        <ele>440.5</ele>
        <time>2026-05-21T11:36:00.999Z</time>
      </trkpt>
      <trkpt lat="43.77656" lon="3.83156">
        <ele>440.4</ele>
        <time>2026-05-21T11:36:01.999Z</time>
      </trkpt>
      <trkpt lat="43.77656" lon="3.83156">
        <ele>440.5</ele>
        <time>2026-05-21T11:36:02.999Z</time>
      </trkpt>
      <trkpt lat="43.77656" lon="3.83156">
        <ele>440.5</ele>
        <time>2026-05-21T11:36:03.999Z</time>
      </trkpt>
      <trkpt lat="43.77655" lon="3.83156">
        <ele>440.4</ele>
        <time>2026-05-21T11:36:04.999Z</time>
      </trkpt>
      <trkpt lat="43.77656" lon="3.83156">
        <ele>440.2</ele>
        <time>2026-05-21T11:36:05.999Z</time>
      </trkpt>
      <trkpt lat="43.77656" lon="3.83155">
        <ele>440</ele>
        <time>2026-05-21T11:36:06.999Z</time>
      </trkpt>
      <trkpt lat="43.77655" lon="3.83155">
        <ele>439.8</ele>
        <time>2026-05-21T11:36:07.999Z</time>
      </trkpt>
      <trkpt lat="43.77655" lon="3.83155">
        <ele>439.7</ele>
        <time>2026-05-21T11:36:08.999Z</time>
      </trkpt>
      <trkpt lat="43.77655" lon="3.83155">
        <ele>439.7</ele>
        <time>2026-05-21T11:36:09.999Z</time>
      </trkpt>
      <trkpt lat="43.77655" lon="3.83155">
        <ele>439.5</ele>
        <time>2026-05-21T11:36:10.999Z</time>
      </trkpt>
      <trkpt lat="43.77655" lon="3.83155">
        <ele>439.5</ele>
        <time>2026-05-21T11:36:11.999Z</time>
      </trkpt>
      <trkpt lat="43.77655" lon="3.83155">
        <ele>439.6</ele>
        <time>2026-05-21T11:36:12.999Z</time>
      </trkpt>
      <trkpt lat="43.77655" lon="3.83154">
        <ele>439.8</ele>
        <time>2026-05-21T11:36:13.999Z</time>
      </trkpt>
      <trkpt lat="43.77655" lon="3.83154">
        <ele>440.1</ele>
        <time>2026-05-21T11:36:14.999Z</time>
      </trkpt>
      <trkpt lat="43.77655" lon="3.83154">
        <ele>440</ele>
        <time>2026-05-21T11:36:15.999Z</time>
      </trkpt>
      <trkpt lat="43.77655" lon="3.83154">
        <ele>439.9</ele>
        <time>2026-05-21T11:36:16.999Z</time>
      </trkpt>
      <trkpt lat="43.77655" lon="3.83154">
        <ele>439.7</ele>
        <time>2026-05-21T11:36:17.999Z</time>
      </trkpt>
      <trkpt lat="43.77655" lon="3.83154">
        <ele>440</ele>
        <time>2026-05-21T11:36:18.999Z</time>
      </trkpt>
      <trkpt lat="43.77655" lon="3.83154">
        <ele>440.1</ele>
        <time>2026-05-21T11:36:19.999Z</time>
      </trkpt>
      <trkpt lat="43.77655" lon="3.83153">
        <ele>440.2</ele>
        <time>2026-05-21T11:36:20.999Z</time>
      </trkpt>
      <trkpt lat="43.77655" lon="3.83153">
        <ele>440.3</ele>
        <time>2026-05-21T11:36:21.999Z</time>
      </trkpt>
      <trkpt lat="43.77655" lon="3.83153">
        <ele>440.2</ele>
        <time>2026-05-21T11:36:22.999Z</time>
      </trkpt>
      <trkpt lat="43.77655" lon="3.83153">
        <ele>440.1</ele>
        <time>2026-05-21T11:36:23.999Z</time>
      </trkpt>
      <trkpt lat="43.77655" lon="3.83153">
        <ele>440.1</ele>
        <time>2026-05-21T11:36:24.999Z</time>
      </trkpt>
      <trkpt lat="43.77655" lon="3.83153">
        <ele>439.8</ele>
        <time>2026-05-21T11:36:25.999Z</time>
      </trkpt>
      <trkpt lat="43.77655" lon="3.83152">
        <ele>439.8</ele>
        <time>2026-05-21T11:36:26.999Z</time>
      </trkpt>
      <trkpt lat="43.77655" lon="3.83152">
        <ele>439.6</ele>
        <time>2026-05-21T11:36:27.999Z</time>
      </trkpt>
      <trkpt lat="43.77655" lon="3.83152">
        <ele>439.6</ele>
        <time>2026-05-21T11:36:28.999Z</time>
      </trkpt>
      <trkpt lat="43.77655" lon="3.83152">
        <ele>439.7</ele>
        <time>2026-05-21T11:36:29.999Z</time>
      </trkpt>
      <trkpt lat="43.77655" lon="3.83152">
        <ele>439.8</ele>
        <time>2026-05-21T11:36:30.999Z</time>
      </trkpt>
      <trkpt lat="43.77655" lon="3.83152">
        <ele>439.8</ele>
        <time>2026-05-21T11:36:31.999Z</time>
      </trkpt>
      <trkpt lat="43.77655" lon="3.83151">
        <ele>439.8</ele>
        <time>2026-05-21T11:36:32.999Z</time>
      </trkpt>
      <trkpt lat="43.77655" lon="3.83151">
        <ele>439.7</ele>
        <time>2026-05-21T11:36:33.999Z</time>
      </trkpt>
      <trkpt lat="43.77655" lon="3.83151">
        <ele>439.9</ele>
        <time>2026-05-21T11:36:34.999Z</time>
      </trkpt>
      <trkpt lat="43.77655" lon="3.83151">
        <ele>439.9</ele>
        <time>2026-05-21T11:36:35.999Z</time>
      </trkpt>
      <trkpt lat="43.77655" lon="3.83151">
        <ele>440</ele>
        <time>2026-05-21T11:36:36.999Z</time>
      </trkpt>
      <trkpt lat="43.77655" lon="3.83151">
        <ele>440</ele>
        <time>2026-05-21T11:36:37.999Z</time>
      </trkpt>
      <trkpt lat="43.77655" lon="3.8315">
        <ele>440.1</ele>
        <time>2026-05-21T11:36:38.999Z</time>
      </trkpt>
      <trkpt lat="43.77655" lon="3.8315">
        <ele>440.1</ele>
        <time>2026-05-21T11:36:39.999Z</time>
      </trkpt>
      <trkpt lat="43.77655" lon="3.8315">
        <ele>440.1</ele>
        <time>2026-05-21T11:36:40.999Z</time>
      </trkpt>
      <trkpt lat="43.77655" lon="3.83149">
        <ele>439.8</ele>
        <time>2026-05-21T11:36:41.999Z</time>
      </trkpt>
      <trkpt lat="43.77655" lon="3.83149">
        <ele>439.8</ele>
        <time>2026-05-21T11:36:42.999Z</time>
      </trkpt>
      <trkpt lat="43.77655" lon="3.83149">
        <ele>439.9</ele>
        <time>2026-05-21T11:36:43.999Z</time>
      </trkpt>
      <trkpt lat="43.77655" lon="3.83149">
        <ele>439.9</ele>
        <time>2026-05-21T11:36:44.999Z</time>
      </trkpt>
      <trkpt lat="43.77655" lon="3.83148">
        <ele>439.8</ele>
        <time>2026-05-21T11:36:45.999Z</time>
      </trkpt>
      <trkpt lat="43.77655" lon="3.83148">
        <ele>439.7</ele>
        <time>2026-05-21T11:36:46.999Z</time>
      </trkpt>
      <trkpt lat="43.77655" lon="3.83148">
        <ele>439.6</ele>
        <time>2026-05-21T11:36:47.999Z</time>
      </trkpt>
      <trkpt lat="43.77655" lon="3.83148">
        <ele>439.5</ele>
        <time>2026-05-21T11:36:48.999Z</time>
      </trkpt>
      <trkpt lat="43.77655" lon="3.83148">
        <ele>439.5</ele>
        <time>2026-05-21T11:36:49.999Z</time>
      </trkpt>
      <trkpt lat="43.77655" lon="3.83148">
        <ele>439.4</ele>
        <time>2026-05-21T11:36:50.999Z</time>
      </trkpt>
      <trkpt lat="43.77655" lon="3.83148">
        <ele>439.4</ele>
        <time>2026-05-21T11:36:51.999Z</time>
      </trkpt>
      <trkpt lat="43.77655" lon="3.83147">
        <ele>439.3</ele>
        <time>2026-05-21T11:36:52.999Z</time>
      </trkpt>
      <trkpt lat="43.77655" lon="3.83147">
        <ele>439.3</ele>
        <time>2026-05-21T11:36:53.999Z</time>
      </trkpt>
      <trkpt lat="43.77655" lon="3.83147">
        <ele>439.3</ele>
        <time>2026-05-21T11:36:54.999Z</time>
      </trkpt>
      <trkpt lat="43.77655" lon="3.83147">
        <ele>439.1</ele>
        <time>2026-05-21T11:36:55.999Z</time>
      </trkpt>
      <trkpt lat="43.77655" lon="3.83147">
        <ele>438.9</ele>
        <time>2026-05-21T11:36:56.999Z</time>
      </trkpt>
      <trkpt lat="43.77655" lon="3.83147">
        <ele>438.7</ele>
        <time>2026-05-21T11:36:57.999Z</time>
      </trkpt>
      <trkpt lat="43.77655" lon="3.83146">
        <ele>438.7</ele>
        <time>2026-05-21T11:36:58.999Z</time>
      </trkpt>
      <trkpt lat="43.77655" lon="3.83146">
        <ele>438.6</ele>
        <time>2026-05-21T11:36:59.999Z</time>
      </trkpt>
      <trkpt lat="43.77655" lon="3.83146">
        <ele>438.7</ele>
        <time>2026-05-21T11:37:00.999Z</time>
      </trkpt>
      <trkpt lat="43.77655" lon="3.83146">
        <ele>438.7</ele>
        <time>2026-05-21T11:37:01.999Z</time>
      </trkpt>
      <trkpt lat="43.77655" lon="3.83145">
        <ele>438.8</ele>
        <time>2026-05-21T11:37:02.999Z</time>
      </trkpt>
      <trkpt lat="43.77655" lon="3.83145">
        <ele>438.9</ele>
        <time>2026-05-21T11:37:03.999Z</time>
      </trkpt>
      <trkpt lat="43.77655" lon="3.83145">
        <ele>439</ele>
        <time>2026-05-21T11:37:04.999Z</time>
      </trkpt>
      <trkpt lat="43.77655" lon="3.83144">
        <ele>438.8</ele>
        <time>2026-05-21T11:37:05.999Z</time>
      </trkpt>
      <trkpt lat="43.77655" lon="3.83144">
        <ele>438.7</ele>
        <time>2026-05-21T11:37:06.999Z</time>
      </trkpt>
      <trkpt lat="43.77655" lon="3.83144">
        <ele>438.7</ele>
        <time>2026-05-21T11:37:07.999Z</time>
      </trkpt>
      <trkpt lat="43.77655" lon="3.83144">
        <ele>438.8</ele>
        <time>2026-05-21T11:37:08.999Z</time>
      </trkpt>
      <trkpt lat="43.77655" lon="3.83143">
        <ele>438.8</ele>
        <time>2026-05-21T11:37:09.999Z</time>
      </trkpt>
      <trkpt lat="43.77655" lon="3.83143">
        <ele>438.8</ele>
        <time>2026-05-21T11:37:10.999Z</time>
      </trkpt>
      <trkpt lat="43.77655" lon="3.83143">
        <ele>438.5</ele>
        <time>2026-05-21T11:37:11.999Z</time>
      </trkpt>
      <trkpt lat="43.77655" lon="3.83143">
        <ele>438.4</ele>
        <time>2026-05-21T11:37:12.999Z</time>
      </trkpt>
      <trkpt lat="43.77655" lon="3.83143">
        <ele>438.4</ele>
        <time>2026-05-21T11:37:13.999Z</time>
      </trkpt>
      <trkpt lat="43.77655" lon="3.83143">
        <ele>438.6</ele>
        <time>2026-05-21T11:37:14.999Z</time>
      </trkpt>
      <trkpt lat="43.77655" lon="3.83142">
        <ele>438.8</ele>
        <time>2026-05-21T11:37:15.999Z</time>
      </trkpt>
      <trkpt lat="43.77655" lon="3.83142">
        <ele>438.9</ele>
        <time>2026-05-21T11:37:16.999Z</time>
      </trkpt>
      <trkpt lat="43.77655" lon="3.83142">
        <ele>438.9</ele>
        <time>2026-05-21T11:37:17.999Z</time>
      </trkpt>
      <trkpt lat="43.77655" lon="3.83142">
        <ele>439</ele>
        <time>2026-05-21T11:37:18.999Z</time>
      </trkpt>
      <trkpt lat="43.77655" lon="3.83142">
        <ele>439</ele>
        <time>2026-05-21T11:37:19.999Z</time>
      </trkpt>
      <trkpt lat="43.77655" lon="3.83141">
        <ele>438.8</ele>
        <time>2026-05-21T11:37:20.999Z</time>
      </trkpt>
      <trkpt lat="43.77655" lon="3.83141">
        <ele>438.8</ele>
        <time>2026-05-21T11:37:21.999Z</time>
      </trkpt>
      <trkpt lat="43.77655" lon="3.83141">
        <ele>438.7</ele>
        <time>2026-05-21T11:37:22.999Z</time>
      </trkpt>
      <trkpt lat="43.77655" lon="3.83141">
        <ele>438.8</ele>
        <time>2026-05-21T11:37:23.999Z</time>
      </trkpt>
      <trkpt lat="43.77655" lon="3.83141">
        <ele>438.9</ele>
        <time>2026-05-21T11:37:24.999Z</time>
      </trkpt>
      <trkpt lat="43.77655" lon="3.83141">
        <ele>438.8</ele>
        <time>2026-05-21T11:37:25.999Z</time>
      </trkpt>
      <trkpt lat="43.77655" lon="3.83141">
        <ele>438.7</ele>
        <time>2026-05-21T11:37:26.999Z</time>
      </trkpt>
      <trkpt lat="43.77655" lon="3.83141">
        <ele>438.7</ele>
        <time>2026-05-21T11:37:27.999Z</time>
      </trkpt>
      <trkpt lat="43.77655" lon="3.83141">
        <ele>438.8</ele>
        <time>2026-05-21T11:37:28.999Z</time>
      </trkpt>
      <trkpt lat="43.77655" lon="3.83141">
        <ele>438.9</ele>
        <time>2026-05-21T11:37:29.999Z</time>
      </trkpt>
      <trkpt lat="43.77655" lon="3.8314">
        <ele>438.9</ele>
        <time>2026-05-21T11:37:30.999Z</time>
      </trkpt>
      <trkpt lat="43.77654" lon="3.8314">
        <ele>438.9</ele>
        <time>2026-05-21T11:37:31.999Z</time>
      </trkpt>
      <trkpt lat="43.77654" lon="3.8314">
        <ele>438.8</ele>
        <time>2026-05-21T11:37:32.999Z</time>
      </trkpt>
      <trkpt lat="43.77654" lon="3.8314">
        <ele>438.6</ele>
        <time>2026-05-21T11:37:33.999Z</time>
      </trkpt>
      <trkpt lat="43.77654" lon="3.8314">
        <ele>438.6</ele>
        <time>2026-05-21T11:37:34.999Z</time>
      </trkpt>
      <trkpt lat="43.77654" lon="3.8314">
        <ele>438.9</ele>
        <time>2026-05-21T11:37:35.999Z</time>
      </trkpt>
      <trkpt lat="43.77654" lon="3.8314">
        <ele>438.9</ele>
        <time>2026-05-21T11:37:36.999Z</time>
      </trkpt>
      <trkpt lat="43.77654" lon="3.8314">
        <ele>438.9</ele>
        <time>2026-05-21T11:37:37.999Z</time>
      </trkpt>
      <trkpt lat="43.77654" lon="3.8314">
        <ele>438.8</ele>
        <time>2026-05-21T11:37:38.999Z</time>
      </trkpt>
      <trkpt lat="43.77654" lon="3.8314">
        <ele>439.1</ele>
        <time>2026-05-21T11:37:40.999Z</time>
      </trkpt>
      <trkpt lat="43.77654" lon="3.83139">
        <ele>439.3</ele>
        <time>2026-05-21T11:37:41.999Z</time>
      </trkpt>
      <trkpt lat="43.77654" lon="3.83139">
        <ele>439.3</ele>
        <time>2026-05-21T11:37:42.999Z</time>
      </trkpt>
      <trkpt lat="43.77654" lon="3.83139">
        <ele>439.4</ele>
        <time>2026-05-21T11:37:43.999Z</time>
      </trkpt>
      <trkpt lat="43.77654" lon="3.83139">
        <ele>439.3</ele>
        <time>2026-05-21T11:37:44.999Z</time>
      </trkpt>
      <trkpt lat="43.77654" lon="3.83138">
        <ele>439.3</ele>
        <time>2026-05-21T11:37:45.999Z</time>
      </trkpt>
      <trkpt lat="43.77654" lon="3.83138">
        <ele>439.3</ele>
        <time>2026-05-21T11:37:46.999Z</time>
      </trkpt>
      <trkpt lat="43.77654" lon="3.83138">
        <ele>439.2</ele>
        <time>2026-05-21T11:37:47.999Z</time>
      </trkpt>
      <trkpt lat="43.77654" lon="3.83138">
        <ele>439.1</ele>
        <time>2026-05-21T11:37:48.999Z</time>
      </trkpt>
      <trkpt lat="43.77654" lon="3.83138">
        <ele>439.1</ele>
        <time>2026-05-21T11:37:49.999Z</time>
      </trkpt>
      <trkpt lat="43.77654" lon="3.83137">
        <ele>439.1</ele>
        <time>2026-05-21T11:37:50.999Z</time>
      </trkpt>
      <trkpt lat="43.77654" lon="3.83136">
        <ele>439.3</ele>
        <time>2026-05-21T11:37:51.999Z</time>
      </trkpt>
      <trkpt lat="43.77653" lon="3.83134">
        <ele>439.2</ele>
        <time>2026-05-21T11:37:52.999Z</time>
      </trkpt>
      <trkpt lat="43.77653" lon="3.83133">
        <ele>439</ele>
        <time>2026-05-21T11:37:53.999Z</time>
      </trkpt>
      <trkpt lat="43.77653" lon="3.83132">
        <ele>439</ele>
        <time>2026-05-21T11:37:54.999Z</time>
      </trkpt>
      <trkpt lat="43.77653" lon="3.83131">
        <ele>438.9</ele>
        <time>2026-05-21T11:37:55.999Z</time>
      </trkpt>
      <trkpt lat="43.77653" lon="3.83131">
        <ele>438.9</ele>
        <time>2026-05-21T11:37:56.999Z</time>
      </trkpt>
      <trkpt lat="43.77653" lon="3.8313">
        <ele>438.7</ele>
        <time>2026-05-21T11:37:57.999Z</time>
      </trkpt>
      <trkpt lat="43.77653" lon="3.8313">
        <ele>438.6</ele>
        <time>2026-05-21T11:37:58.999Z</time>
      </trkpt>
      <trkpt lat="43.77653" lon="3.83129">
        <ele>438.7</ele>
        <time>2026-05-21T11:37:59.999Z</time>
      </trkpt>
      <trkpt lat="43.77653" lon="3.83128">
        <ele>438.7</ele>
        <time>2026-05-21T11:38:00.999Z</time>
      </trkpt>
      <trkpt lat="43.77652" lon="3.83128">
        <ele>438.7</ele>
        <time>2026-05-21T11:38:01.999Z</time>
      </trkpt>
      <trkpt lat="43.77652" lon="3.83128">
        <ele>438.6</ele>
        <time>2026-05-21T11:38:02.999Z</time>
      </trkpt>
      <trkpt lat="43.77652" lon="3.83128">
        <ele>438.4</ele>
        <time>2026-05-21T11:38:03.999Z</time>
      </trkpt>
      <trkpt lat="43.77652" lon="3.83128">
        <ele>438.3</ele>
        <time>2026-05-21T11:38:04.999Z</time>
      </trkpt>
      <trkpt lat="43.77652" lon="3.83128">
        <ele>438.3</ele>
        <time>2026-05-21T11:38:05.999Z</time>
      </trkpt>
      <trkpt lat="43.77652" lon="3.83128">
        <ele>438.1</ele>
        <time>2026-05-21T11:38:06.999Z</time>
      </trkpt>
      <trkpt lat="43.77652" lon="3.83128">
        <ele>438.1</ele>
        <time>2026-05-21T11:38:07.999Z</time>
      </trkpt>
      <trkpt lat="43.77652" lon="3.83127">
        <ele>438.2</ele>
        <time>2026-05-21T11:38:08.999Z</time>
      </trkpt>
      <trkpt lat="43.77652" lon="3.83126">
        <ele>438.2</ele>
        <time>2026-05-21T11:38:09.999Z</time>
      </trkpt>
      <trkpt lat="43.77652" lon="3.83125">
        <ele>438.2</ele>
        <time>2026-05-21T11:38:10.999Z</time>
      </trkpt>
      <trkpt lat="43.77651" lon="3.83124">
        <ele>438.1</ele>
        <time>2026-05-21T11:38:11.999Z</time>
      </trkpt>
      <trkpt lat="43.77651" lon="3.83124">
        <ele>438</ele>
        <time>2026-05-21T11:38:12.999Z</time>
      </trkpt>
      <trkpt lat="43.77651" lon="3.83123">
        <ele>437.9</ele>
        <time>2026-05-21T11:38:13.999Z</time>
      </trkpt>
      <trkpt lat="43.77651" lon="3.83123">
        <ele>437.7</ele>
        <time>2026-05-21T11:38:14.999Z</time>
      </trkpt>
      <trkpt lat="43.77651" lon="3.83123">
        <ele>437.5</ele>
        <time>2026-05-21T11:38:15.999Z</time>
      </trkpt>
      <trkpt lat="43.77651" lon="3.83123">
        <ele>437.4</ele>
        <time>2026-05-21T11:38:16.999Z</time>
      </trkpt>
      <trkpt lat="43.77651" lon="3.83123">
        <ele>437.4</ele>
        <time>2026-05-21T11:38:17.999Z</time>
      </trkpt>
      <trkpt lat="43.77651" lon="3.83123">
        <ele>437.5</ele>
        <time>2026-05-21T11:38:18.999Z</time>
      </trkpt>
      <trkpt lat="43.77651" lon="3.83123">
        <ele>437.3</ele>
        <time>2026-05-21T11:38:19.999Z</time>
      </trkpt>
      <trkpt lat="43.77651" lon="3.83122">
        <ele>437.2</ele>
        <time>2026-05-21T11:38:20.999Z</time>
      </trkpt>
      <trkpt lat="43.77651" lon="3.83122">
        <ele>437</ele>
        <time>2026-05-21T11:38:21.999Z</time>
      </trkpt>
      <trkpt lat="43.77651" lon="3.83122">
        <ele>437</ele>
        <time>2026-05-21T11:38:22.999Z</time>
      </trkpt>
      <trkpt lat="43.77651" lon="3.83122">
        <ele>436.9</ele>
        <time>2026-05-21T11:38:23.999Z</time>
      </trkpt>
      <trkpt lat="43.77651" lon="3.83122">
        <ele>436.9</ele>
        <time>2026-05-21T11:38:24.999Z</time>
      </trkpt>
      <trkpt lat="43.77651" lon="3.83122">
        <ele>436.6</ele>
        <time>2026-05-21T11:38:25.999Z</time>
      </trkpt>
      <trkpt lat="43.77651" lon="3.83122">
        <ele>436.3</ele>
        <time>2026-05-21T11:38:26.999Z</time>
      </trkpt>
      <trkpt lat="43.77651" lon="3.83121">
        <ele>436.2</ele>
        <time>2026-05-21T11:38:27.999Z</time>
      </trkpt>
      <trkpt lat="43.77651" lon="3.83121">
        <ele>436.2</ele>
        <time>2026-05-21T11:38:28.999Z</time>
      </trkpt>
      <trkpt lat="43.77651" lon="3.83121">
        <ele>436.2</ele>
        <time>2026-05-21T11:38:29.999Z</time>
      </trkpt>
      <trkpt lat="43.77651" lon="3.83121">
        <ele>436.3</ele>
        <time>2026-05-21T11:38:30.999Z</time>
      </trkpt>
      <trkpt lat="43.77651" lon="3.8312">
        <ele>436.4</ele>
        <time>2026-05-21T11:38:31.999Z</time>
      </trkpt>
      <trkpt lat="43.77651" lon="3.8312">
        <ele>436.5</ele>
        <time>2026-05-21T11:38:32.999Z</time>
      </trkpt>
      <trkpt lat="43.77651" lon="3.8312">
        <ele>436.4</ele>
        <time>2026-05-21T11:38:33.999Z</time>
      </trkpt>
      <trkpt lat="43.77651" lon="3.8312">
        <ele>436.4</ele>
        <time>2026-05-21T11:38:34.999Z</time>
      </trkpt>
      <trkpt lat="43.77651" lon="3.8312">
        <ele>436.5</ele>
        <time>2026-05-21T11:38:35.999Z</time>
      </trkpt>
      <trkpt lat="43.77651" lon="3.83119">
        <ele>436.7</ele>
        <time>2026-05-21T11:38:36.999Z</time>
      </trkpt>
      <trkpt lat="43.77651" lon="3.83119">
        <ele>436.8</ele>
        <time>2026-05-21T11:38:37.999Z</time>
      </trkpt>
      <trkpt lat="43.77651" lon="3.83119">
        <ele>436.6</ele>
        <time>2026-05-21T11:38:38.999Z</time>
      </trkpt>
      <trkpt lat="43.77651" lon="3.83119">
        <ele>436.7</ele>
        <time>2026-05-21T11:38:39.999Z</time>
      </trkpt>
      <trkpt lat="43.77651" lon="3.83118">
        <ele>436.6</ele>
        <time>2026-05-21T11:38:40.999Z</time>
      </trkpt>
      <trkpt lat="43.77651" lon="3.83118">
        <ele>436.5</ele>
        <time>2026-05-21T11:38:41.999Z</time>
      </trkpt>
      <trkpt lat="43.77651" lon="3.83118">
        <ele>436.6</ele>
        <time>2026-05-21T11:38:42.999Z</time>
      </trkpt>
      <trkpt lat="43.77651" lon="3.83118">
        <ele>436.5</ele>
        <time>2026-05-21T11:38:43.999Z</time>
      </trkpt>
      <trkpt lat="43.77651" lon="3.83118">
        <ele>436.5</ele>
        <time>2026-05-21T11:38:44.999Z</time>
      </trkpt>
      <trkpt lat="43.77651" lon="3.83118">
        <ele>436.6</ele>
        <time>2026-05-21T11:38:45.999Z</time>
      </trkpt>
      <trkpt lat="43.77651" lon="3.83118">
        <ele>436.7</ele>
        <time>2026-05-21T11:38:46.999Z</time>
      </trkpt>
      <trkpt lat="43.77651" lon="3.83118">
        <ele>436.6</ele>
        <time>2026-05-21T11:38:47.999Z</time>
      </trkpt>
      <trkpt lat="43.77651" lon="3.83117">
        <ele>436.7</ele>
        <time>2026-05-21T11:38:48.999Z</time>
      </trkpt>
      <trkpt lat="43.77651" lon="3.83117">
        <ele>436.7</ele>
        <time>2026-05-21T11:38:49.999Z</time>
      </trkpt>
      <trkpt lat="43.77651" lon="3.83117">
        <ele>436.8</ele>
        <time>2026-05-21T11:38:50.999Z</time>
      </trkpt>
      <trkpt lat="43.77651" lon="3.83117">
        <ele>436.8</ele>
        <time>2026-05-21T11:38:51.999Z</time>
      </trkpt>
      <trkpt lat="43.77651" lon="3.83116">
        <ele>436.7</ele>
        <time>2026-05-21T11:38:52.999Z</time>
      </trkpt>
      <trkpt lat="43.77651" lon="3.83116">
        <ele>436.5</ele>
        <time>2026-05-21T11:38:53.999Z</time>
      </trkpt>
      <trkpt lat="43.77651" lon="3.83116">
        <ele>436.4</ele>
        <time>2026-05-21T11:38:54.999Z</time>
      </trkpt>
      <trkpt lat="43.77651" lon="3.83116">
        <ele>436.4</ele>
        <time>2026-05-21T11:38:55.999Z</time>
      </trkpt>
      <trkpt lat="43.77651" lon="3.83116">
        <ele>436.4</ele>
        <time>2026-05-21T11:38:56.999Z</time>
      </trkpt>
      <trkpt lat="43.77651" lon="3.83116">
        <ele>436.6</ele>
        <time>2026-05-21T11:38:57.999Z</time>
      </trkpt>
      <trkpt lat="43.77651" lon="3.83116">
        <ele>436.5</ele>
        <time>2026-05-21T11:38:58.999Z</time>
      </trkpt>
      <trkpt lat="43.77651" lon="3.83116">
        <ele>436.4</ele>
        <time>2026-05-21T11:38:59.999Z</time>
      </trkpt>
      <trkpt lat="43.77651" lon="3.83115">
        <ele>436.4</ele>
        <time>2026-05-21T11:39:00.999Z</time>
      </trkpt>
      <trkpt lat="43.77651" lon="3.83115">
        <ele>436.3</ele>
        <time>2026-05-21T11:39:01.999Z</time>
      </trkpt>
      <trkpt lat="43.77651" lon="3.83115">
        <ele>436.4</ele>
        <time>2026-05-21T11:39:02.999Z</time>
      </trkpt>
      <trkpt lat="43.77651" lon="3.83115">
        <ele>436.4</ele>
        <time>2026-05-21T11:39:03.999Z</time>
      </trkpt>
      <trkpt lat="43.77651" lon="3.83115">
        <ele>436.6</ele>
        <time>2026-05-21T11:39:04.999Z</time>
      </trkpt>
      <trkpt lat="43.77651" lon="3.83115">
        <ele>436.7</ele>
        <time>2026-05-21T11:39:05.999Z</time>
      </trkpt>
      <trkpt lat="43.77651" lon="3.83115">
        <ele>436.8</ele>
        <time>2026-05-21T11:39:06.999Z</time>
      </trkpt>
      <trkpt lat="43.77651" lon="3.83115">
        <ele>436.8</ele>
        <time>2026-05-21T11:39:07.999Z</time>
      </trkpt>
      <trkpt lat="43.77651" lon="3.83115">
        <ele>437</ele>
        <time>2026-05-21T11:39:08.999Z</time>
      </trkpt>
      <trkpt lat="43.77651" lon="3.83114">
        <ele>437.3</ele>
        <time>2026-05-21T11:39:09.999Z</time>
      </trkpt>
      <trkpt lat="43.77651" lon="3.83114">
        <ele>437.6</ele>
        <time>2026-05-21T11:39:10.999Z</time>
      </trkpt>
      <trkpt lat="43.77651" lon="3.83114">
        <ele>437.7</ele>
        <time>2026-05-21T11:39:11.999Z</time>
      </trkpt>
      <trkpt lat="43.77651" lon="3.83114">
        <ele>437.8</ele>
        <time>2026-05-21T11:39:12.999Z</time>
      </trkpt>
      <trkpt lat="43.77651" lon="3.83114">
        <ele>438.3</ele>
        <time>2026-05-21T11:39:13.999Z</time>
      </trkpt>
      <trkpt lat="43.77651" lon="3.83114">
        <ele>438.4</ele>
        <time>2026-05-21T11:39:14.999Z</time>
      </trkpt>
      <trkpt lat="43.77651" lon="3.83114">
        <ele>438.4</ele>
        <time>2026-05-21T11:39:15.999Z</time>
      </trkpt>
      <trkpt lat="43.77651" lon="3.83114">
        <ele>438.4</ele>
        <time>2026-05-21T11:39:16.999Z</time>
      </trkpt>
      <trkpt lat="43.77651" lon="3.83114">
        <ele>438.2</ele>
        <time>2026-05-21T11:39:17.999Z</time>
      </trkpt>
      <trkpt lat="43.77651" lon="3.83114">
        <ele>438.2</ele>
        <time>2026-05-21T11:39:18.999Z</time>
      </trkpt>
      <trkpt lat="43.77651" lon="3.83114">
        <ele>438.2</ele>
        <time>2026-05-21T11:39:19.999Z</time>
      </trkpt>
      <trkpt lat="43.77651" lon="3.83114">
        <ele>438.2</ele>
        <time>2026-05-21T11:39:20.999Z</time>
      </trkpt>
      <trkpt lat="43.77651" lon="3.83113">
        <ele>438.2</ele>
        <time>2026-05-21T11:39:21.999Z</time>
      </trkpt>
      <trkpt lat="43.77651" lon="3.83113">
        <ele>438.2</ele>
        <time>2026-05-21T11:39:22.999Z</time>
      </trkpt>
      <trkpt lat="43.77651" lon="3.83113">
        <ele>438.2</ele>
        <time>2026-05-21T11:39:23.999Z</time>
      </trkpt>
      <trkpt lat="43.77651" lon="3.83113">
        <ele>438.2</ele>
        <time>2026-05-21T11:39:24.999Z</time>
      </trkpt>
      <trkpt lat="43.77651" lon="3.83113">
        <ele>438.2</ele>
        <time>2026-05-21T11:39:25.999Z</time>
      </trkpt>
      <trkpt lat="43.77651" lon="3.83113">
        <ele>438.2</ele>
        <time>2026-05-21T11:39:26.999Z</time>
      </trkpt>
      <trkpt lat="43.77651" lon="3.83113">
        <ele>438.2</ele>
        <time>2026-05-21T11:39:27.999Z</time>
      </trkpt>
      <trkpt lat="43.77651" lon="3.83113">
        <ele>438.2</ele>
        <time>2026-05-21T11:39:28.999Z</time>
      </trkpt>
      <trkpt lat="43.77651" lon="3.83113">
        <ele>438.3</ele>
        <time>2026-05-21T11:39:29.999Z</time>
      </trkpt>
      <trkpt lat="43.77651" lon="3.83113">
        <ele>438.3</ele>
        <time>2026-05-21T11:39:30.999Z</time>
      </trkpt>
      <trkpt lat="43.77651" lon="3.83113">
        <ele>438.3</ele>
        <time>2026-05-21T11:39:31.999Z</time>
      </trkpt>
      <trkpt lat="43.77651" lon="3.83113">
        <ele>438.3</ele>
        <time>2026-05-21T11:39:32.999Z</time>
      </trkpt>
      <trkpt lat="43.77651" lon="3.83113">
        <ele>438.3</ele>
        <time>2026-05-21T11:39:33.999Z</time>
      </trkpt>
      <trkpt lat="43.77651" lon="3.83113">
        <ele>438.3</ele>
        <time>2026-05-21T11:39:34.999Z</time>
      </trkpt>
      <trkpt lat="43.77651" lon="3.83113">
        <ele>438.2</ele>
        <time>2026-05-21T11:39:35.999Z</time>
      </trkpt>
      <trkpt lat="43.77651" lon="3.83113">
        <ele>438.2</ele>
        <time>2026-05-21T11:39:36.999Z</time>
      </trkpt>
      <trkpt lat="43.77651" lon="3.83113">
        <ele>438.1</ele>
        <time>2026-05-21T11:39:37.999Z</time>
      </trkpt>
      <trkpt lat="43.77651" lon="3.83113">
        <ele>438.1</ele>
        <time>2026-05-21T11:39:38.999Z</time>
      </trkpt>
      <trkpt lat="43.77651" lon="3.83112">
        <ele>438</ele>
        <time>2026-05-21T11:39:39.999Z</time>
      </trkpt>
      <trkpt lat="43.77651" lon="3.83112">
        <ele>438</ele>
        <time>2026-05-21T11:39:40.999Z</time>
      </trkpt>
      <trkpt lat="43.77651" lon="3.83112">
        <ele>437.9</ele>
        <time>2026-05-21T11:39:41.999Z</time>
      </trkpt>
      <trkpt lat="43.77651" lon="3.83112">
        <ele>437.9</ele>
        <time>2026-05-21T11:39:42.999Z</time>
      </trkpt>
      <trkpt lat="43.77651" lon="3.83112">
        <ele>437.9</ele>
        <time>2026-05-21T11:39:43.999Z</time>
      </trkpt>
      <trkpt lat="43.77651" lon="3.83112">
        <ele>437.9</ele>
        <time>2026-05-21T11:39:44.999Z</time>
      </trkpt>
      <trkpt lat="43.77651" lon="3.83112">
        <ele>437.9</ele>
        <time>2026-05-21T11:39:45.999Z</time>
      </trkpt>
      <trkpt lat="43.77651" lon="3.83112">
        <ele>437.9</ele>
        <time>2026-05-21T11:39:46.999Z</time>
      </trkpt>
      <trkpt lat="43.77651" lon="3.83112">
        <ele>438</ele>
        <time>2026-05-21T11:39:47.999Z</time>
      </trkpt>
      <trkpt lat="43.77651" lon="3.83112">
        <ele>438</ele>
        <time>2026-05-21T11:39:48.999Z</time>
      </trkpt>
      <trkpt lat="43.77651" lon="3.83112">
        <ele>437.9</ele>
        <time>2026-05-21T11:39:49.999Z</time>
      </trkpt>
      <trkpt lat="43.77651" lon="3.83112">
        <ele>437.9</ele>
        <time>2026-05-21T11:39:50.999Z</time>
      </trkpt>
      <trkpt lat="43.77651" lon="3.83112">
        <ele>438.1</ele>
        <time>2026-05-21T11:39:51.999Z</time>
      </trkpt>
      <trkpt lat="43.77651" lon="3.83113">
        <ele>438.3</ele>
        <time>2026-05-21T11:39:52.999Z</time>
      </trkpt>
      <trkpt lat="43.77651" lon="3.83113">
        <ele>438.3</ele>
        <time>2026-05-21T11:39:53.999Z</time>
      </trkpt>
      <trkpt lat="43.77651" lon="3.83113">
        <ele>438.2</ele>
        <time>2026-05-21T11:39:54.999Z</time>
      </trkpt>
      <trkpt lat="43.77651" lon="3.83113">
        <ele>438.2</ele>
        <time>2026-05-21T11:39:55.999Z</time>
      </trkpt>
      <trkpt lat="43.77651" lon="3.83112">
        <ele>438.1</ele>
        <time>2026-05-21T11:39:56.999Z</time>
      </trkpt>
      <trkpt lat="43.77651" lon="3.83112">
        <ele>438.1</ele>
        <time>2026-05-21T11:39:57.999Z</time>
      </trkpt>
      <trkpt lat="43.77651" lon="3.83112">
        <ele>438.1</ele>
        <time>2026-05-21T11:39:58.999Z</time>
      </trkpt>
      <trkpt lat="43.77651" lon="3.83112">
        <ele>438.1</ele>
        <time>2026-05-21T11:39:59.999Z</time>
      </trkpt>
      <trkpt lat="43.77651" lon="3.83112">
        <ele>438.1</ele>
        <time>2026-05-21T11:40:00.999Z</time>
      </trkpt>
      <trkpt lat="43.77651" lon="3.83112">
        <ele>438.2</ele>
        <time>2026-05-21T11:40:01.999Z</time>
      </trkpt>
      <trkpt lat="43.77651" lon="3.83112">
        <ele>438.2</ele>
        <time>2026-05-21T11:40:02.999Z</time>
      </trkpt>
      <trkpt lat="43.77651" lon="3.83112">
        <ele>438.2</ele>
        <time>2026-05-21T11:40:03.999Z</time>
      </trkpt>
      <trkpt lat="43.77651" lon="3.83112">
        <ele>438.1</ele>
        <time>2026-05-21T11:40:04.999Z</time>
      </trkpt>
      <trkpt lat="43.77651" lon="3.83111">
        <ele>438.1</ele>
        <time>2026-05-21T11:40:05.999Z</time>
      </trkpt>
      <trkpt lat="43.77651" lon="3.83111">
        <ele>437.8</ele>
        <time>2026-05-21T11:40:06.999Z</time>
      </trkpt>
      <trkpt lat="43.77651" lon="3.83111">
        <ele>437.8</ele>
        <time>2026-05-21T11:40:07.999Z</time>
      </trkpt>
      <trkpt lat="43.77651" lon="3.83111">
        <ele>437.8</ele>
        <time>2026-05-21T11:40:08.999Z</time>
      </trkpt>
      <trkpt lat="43.77651" lon="3.83111">
        <ele>437.6</ele>
        <time>2026-05-21T11:40:09.999Z</time>
      </trkpt>
      <trkpt lat="43.77651" lon="3.83111">
        <ele>437.7</ele>
        <time>2026-05-21T11:40:10.999Z</time>
      </trkpt>
      <trkpt lat="43.77651" lon="3.83111">
        <ele>437.6</ele>
        <time>2026-05-21T11:40:11.999Z</time>
      </trkpt>
      <trkpt lat="43.77651" lon="3.83111">
        <ele>437.6</ele>
        <time>2026-05-21T11:40:12.999Z</time>
      </trkpt>
      <trkpt lat="43.7765" lon="3.83111">
        <ele>437.4</ele>
        <time>2026-05-21T11:40:13.999Z</time>
      </trkpt>
      <trkpt lat="43.7765" lon="3.83111">
        <ele>437.3</ele>
        <time>2026-05-21T11:40:14.999Z</time>
      </trkpt>
      <trkpt lat="43.7765" lon="3.83111">
        <ele>437.2</ele>
        <time>2026-05-21T11:40:15.999Z</time>
      </trkpt>
      <trkpt lat="43.7765" lon="3.8311">
        <ele>437</ele>
        <time>2026-05-21T11:40:16.999Z</time>
      </trkpt>
      <trkpt lat="43.7765" lon="3.83109">
        <ele>436.9</ele>
        <time>2026-05-21T11:40:17.999Z</time>
      </trkpt>
      <trkpt lat="43.7765" lon="3.83109">
        <ele>437</ele>
        <time>2026-05-21T11:40:18.999Z</time>
      </trkpt>
      <trkpt lat="43.77651" lon="3.83109">
        <ele>437</ele>
        <time>2026-05-21T11:40:19.999Z</time>
      </trkpt>
      <trkpt lat="43.77651" lon="3.83109">
        <ele>436.9</ele>
        <time>2026-05-21T11:40:20.999Z</time>
      </trkpt>
      <trkpt lat="43.77651" lon="3.83108">
        <ele>436.9</ele>
        <time>2026-05-21T11:40:21.999Z</time>
      </trkpt>
      <trkpt lat="43.77651" lon="3.83107">
        <ele>437.2</ele>
        <time>2026-05-21T11:40:22.999Z</time>
      </trkpt>
      <trkpt lat="43.77652" lon="3.83107">
        <ele>437.5</ele>
        <time>2026-05-21T11:40:24.999Z</time>
      </trkpt>
      <trkpt lat="43.77652" lon="3.83107">
        <ele>437.2</ele>
        <time>2026-05-21T11:40:25.999Z</time>
      </trkpt>
      <trkpt lat="43.77652" lon="3.83107">
        <ele>437.3</ele>
        <time>2026-05-21T11:40:26.999Z</time>
      </trkpt>
      <trkpt lat="43.77652" lon="3.83107">
        <ele>437.1</ele>
        <time>2026-05-21T11:40:27.999Z</time>
      </trkpt>
      <trkpt lat="43.77652" lon="3.83107">
        <ele>436.9</ele>
        <time>2026-05-21T11:40:28.999Z</time>
      </trkpt>
      <trkpt lat="43.77652" lon="3.83107">
        <ele>437</ele>
        <time>2026-05-21T11:40:29.999Z</time>
      </trkpt>
      <trkpt lat="43.77652" lon="3.83106">
        <ele>436.9</ele>
        <time>2026-05-21T11:40:30.999Z</time>
      </trkpt>
      <trkpt lat="43.77652" lon="3.83106">
        <ele>436.7</ele>
        <time>2026-05-21T11:40:31.999Z</time>
      </trkpt>
      <trkpt lat="43.77652" lon="3.83106">
        <ele>436.7</ele>
        <time>2026-05-21T11:40:32.999Z</time>
      </trkpt>
      <trkpt lat="43.77652" lon="3.83106">
        <ele>437</ele>
        <time>2026-05-21T11:40:33.999Z</time>
      </trkpt>
      <trkpt lat="43.77652" lon="3.83106">
        <ele>437.1</ele>
        <time>2026-05-21T11:40:34.999Z</time>
      </trkpt>
      <trkpt lat="43.77652" lon="3.83105">
        <ele>437.2</ele>
        <time>2026-05-21T11:40:35.999Z</time>
      </trkpt>
      <trkpt lat="43.77651" lon="3.83104">
        <ele>437.1</ele>
        <time>2026-05-21T11:40:36.999Z</time>
      </trkpt>
      <trkpt lat="43.77651" lon="3.83104">
        <ele>437.4</ele>
        <time>2026-05-21T11:40:37.999Z</time>
      </trkpt>
      <trkpt lat="43.77651" lon="3.83105">
        <ele>437.4</ele>
        <time>2026-05-21T11:40:38.999Z</time>
      </trkpt>
      <trkpt lat="43.7765" lon="3.83104">
        <ele>437.5</ele>
        <time>2026-05-21T11:40:39.999Z</time>
      </trkpt>
      <trkpt lat="43.7765" lon="3.83103">
        <ele>437.6</ele>
        <time>2026-05-21T11:40:41.999Z</time>
      </trkpt>
      <trkpt lat="43.7765" lon="3.83103">
        <ele>437.7</ele>
        <time>2026-05-21T11:40:42.999Z</time>
      </trkpt>
      <trkpt lat="43.7765" lon="3.83103">
        <ele>437.7</ele>
        <time>2026-05-21T11:40:43.999Z</time>
      </trkpt>
      <trkpt lat="43.7765" lon="3.83103">
        <ele>437.8</ele>
        <time>2026-05-21T11:40:44.999Z</time>
      </trkpt>
      <trkpt lat="43.7765" lon="3.83103">
        <ele>437.9</ele>
        <time>2026-05-21T11:40:45.999Z</time>
      </trkpt>
      <trkpt lat="43.7765" lon="3.83103">
        <ele>437.9</ele>
        <time>2026-05-21T11:40:46.999Z</time>
      </trkpt>
      <trkpt lat="43.7765" lon="3.83103">
        <ele>438</ele>
        <time>2026-05-21T11:40:47.999Z</time>
      </trkpt>
      <trkpt lat="43.7765" lon="3.83103">
        <ele>438</ele>
        <time>2026-05-21T11:40:48.999Z</time>
      </trkpt>
      <trkpt lat="43.7765" lon="3.83103">
        <ele>438.1</ele>
        <time>2026-05-21T11:40:49.999Z</time>
      </trkpt>
      <trkpt lat="43.7765" lon="3.83103">
        <ele>438.1</ele>
        <time>2026-05-21T11:40:50.999Z</time>
      </trkpt>
      <trkpt lat="43.7765" lon="3.83103">
        <ele>437.9</ele>
        <time>2026-05-21T11:40:51.999Z</time>
      </trkpt>
      <trkpt lat="43.7765" lon="3.83103">
        <ele>437.7</ele>
        <time>2026-05-21T11:40:52.999Z</time>
      </trkpt>
      <trkpt lat="43.7765" lon="3.83103">
        <ele>437.7</ele>
        <time>2026-05-21T11:40:53.999Z</time>
      </trkpt>
      <trkpt lat="43.7765" lon="3.83103">
        <ele>437.7</ele>
        <time>2026-05-21T11:40:54.999Z</time>
      </trkpt>
      <trkpt lat="43.7765" lon="3.83104">
        <ele>437.8</ele>
        <time>2026-05-21T11:40:55.999Z</time>
      </trkpt>
      <trkpt lat="43.7765" lon="3.83104">
        <ele>437.8</ele>
        <time>2026-05-21T11:40:56.999Z</time>
      </trkpt>
      <trkpt lat="43.7765" lon="3.83103">
        <ele>437.8</ele>
        <time>2026-05-21T11:40:57.999Z</time>
      </trkpt>
      <trkpt lat="43.7765" lon="3.83103">
        <ele>438</ele>
        <time>2026-05-21T11:40:58.999Z</time>
      </trkpt>
      <trkpt lat="43.7765" lon="3.83104">
        <ele>437.9</ele>
        <time>2026-05-21T11:40:59.999Z</time>
      </trkpt>
      <trkpt lat="43.7765" lon="3.83104">
        <ele>437.9</ele>
        <time>2026-05-21T11:41:00.999Z</time>
      </trkpt>
      <trkpt lat="43.7765" lon="3.83104">
        <ele>437.9</ele>
        <time>2026-05-21T11:41:01.999Z</time>
      </trkpt>
      <trkpt lat="43.7765" lon="3.83104">
        <ele>438</ele>
        <time>2026-05-21T11:41:02.999Z</time>
      </trkpt>
      <trkpt lat="43.7765" lon="3.83104">
        <ele>438</ele>
        <time>2026-05-21T11:41:03.999Z</time>
      </trkpt>
      <trkpt lat="43.7765" lon="3.83104">
        <ele>437.9</ele>
        <time>2026-05-21T11:41:04.999Z</time>
      </trkpt>
      <trkpt lat="43.7765" lon="3.83104">
        <ele>437.8</ele>
        <time>2026-05-21T11:41:05.999Z</time>
      </trkpt>
      <trkpt lat="43.77649" lon="3.83104">
        <ele>437.8</ele>
        <time>2026-05-21T11:41:06.999Z</time>
      </trkpt>
      <trkpt lat="43.7765" lon="3.83105">
        <ele>437.9</ele>
        <time>2026-05-21T11:41:07.999Z</time>
      </trkpt>
      <trkpt lat="43.7765" lon="3.83105">
        <ele>437.8</ele>
        <time>2026-05-21T11:41:08.999Z</time>
      </trkpt>
      <trkpt lat="43.7765" lon="3.83106">
        <ele>437.7</ele>
        <time>2026-05-21T11:41:09.999Z</time>
      </trkpt>
      <trkpt lat="43.7765" lon="3.83106">
        <ele>437.6</ele>
        <time>2026-05-21T11:41:10.999Z</time>
      </trkpt>
      <trkpt lat="43.7765" lon="3.83106">
        <ele>437.5</ele>
        <time>2026-05-21T11:41:11.999Z</time>
      </trkpt>
      <trkpt lat="43.7765" lon="3.83106">
        <ele>437.5</ele>
        <time>2026-05-21T11:41:12.999Z</time>
      </trkpt>
      <trkpt lat="43.7765" lon="3.83106">
        <ele>437.5</ele>
        <time>2026-05-21T11:41:13.999Z</time>
      </trkpt>
      <trkpt lat="43.7765" lon="3.83106">
        <ele>437.4</ele>
        <time>2026-05-21T11:41:14.999Z</time>
      </trkpt>
      <trkpt lat="43.77649" lon="3.83105">
        <ele>437.2</ele>
        <time>2026-05-21T11:41:15.999Z</time>
      </trkpt>
      <trkpt lat="43.77649" lon="3.83104">
        <ele>437.3</ele>
        <time>2026-05-21T11:41:17.999Z</time>
      </trkpt>
      <trkpt lat="43.77649" lon="3.83104">
        <ele>437.3</ele>
        <time>2026-05-21T11:41:18.999Z</time>
      </trkpt>
      <trkpt lat="43.77649" lon="3.83104">
        <ele>437.1</ele>
        <time>2026-05-21T11:41:19.999Z</time>
      </trkpt>
      <trkpt lat="43.77649" lon="3.83104">
        <ele>437.3</ele>
        <time>2026-05-21T11:41:20.999Z</time>
      </trkpt>
      <trkpt lat="43.77649" lon="3.83104">
        <ele>436.8</ele>
        <time>2026-05-21T11:41:21.999Z</time>
      </trkpt>
      <trkpt lat="43.77649" lon="3.83104">
        <ele>436.8</ele>
        <time>2026-05-21T11:41:22.999Z</time>
      </trkpt>
      <trkpt lat="43.77649" lon="3.83104">
        <ele>436.7</ele>
        <time>2026-05-21T11:41:23.999Z</time>
      </trkpt>
      <trkpt lat="43.77649" lon="3.83105">
        <ele>436.6</ele>
        <time>2026-05-21T11:41:24.999Z</time>
      </trkpt>
      <trkpt lat="43.77649" lon="3.83105">
        <ele>436.8</ele>
        <time>2026-05-21T11:41:25.999Z</time>
      </trkpt>
      <trkpt lat="43.77649" lon="3.83105">
        <ele>436.9</ele>
        <time>2026-05-21T11:41:26.999Z</time>
      </trkpt>
      <trkpt lat="43.77649" lon="3.83105">
        <ele>436.9</ele>
        <time>2026-05-21T11:41:27.999Z</time>
      </trkpt>
      <trkpt lat="43.7765" lon="3.83106">
        <ele>437</ele>
        <time>2026-05-21T11:41:29.999Z</time>
      </trkpt>
      <trkpt lat="43.7765" lon="3.83106">
        <ele>437.1</ele>
        <time>2026-05-21T11:41:30.999Z</time>
      </trkpt>
      <trkpt lat="43.77649" lon="3.83106">
        <ele>437.3</ele>
        <time>2026-05-21T11:41:31.999Z</time>
      </trkpt>
      <trkpt lat="43.77649" lon="3.83106">
        <ele>437.4</ele>
        <time>2026-05-21T11:41:32.999Z</time>
      </trkpt>
      <trkpt lat="43.77649" lon="3.83106">
        <ele>437.4</ele>
        <time>2026-05-21T11:41:33.999Z</time>
      </trkpt>
      <trkpt lat="43.77649" lon="3.83106">
        <ele>437.3</ele>
        <time>2026-05-21T11:41:34.999Z</time>
      </trkpt>
      <trkpt lat="43.77649" lon="3.83106">
        <ele>437.4</ele>
        <time>2026-05-21T11:41:35.999Z</time>
      </trkpt>
      <trkpt lat="43.77649" lon="3.83106">
        <ele>437.6</ele>
        <time>2026-05-21T11:41:37.999Z</time>
      </trkpt>
      <trkpt lat="43.77649" lon="3.83106">
        <ele>437.7</ele>
        <time>2026-05-21T11:41:38.999Z</time>
      </trkpt>
      <trkpt lat="43.77649" lon="3.83106">
        <ele>437.6</ele>
        <time>2026-05-21T11:41:39.999Z</time>
      </trkpt>
      <trkpt lat="43.7765" lon="3.83106">
        <ele>437.7</ele>
        <time>2026-05-21T11:41:40.999Z</time>
      </trkpt>
      <trkpt lat="43.7765" lon="3.83106">
        <ele>437.7</ele>
        <time>2026-05-21T11:41:41.999Z</time>
      </trkpt>
      <trkpt lat="43.7765" lon="3.83106">
        <ele>437.9</ele>
        <time>2026-05-21T11:41:42.999Z</time>
      </trkpt>
      <trkpt lat="43.7765" lon="3.83107">
        <ele>437.9</ele>
        <time>2026-05-21T11:41:43.999Z</time>
      </trkpt>
      <trkpt lat="43.7765" lon="3.83107">
        <ele>437.9</ele>
        <time>2026-05-21T11:41:44.999Z</time>
      </trkpt>
      <trkpt lat="43.77651" lon="3.83108">
        <ele>437.9</ele>
        <time>2026-05-21T11:41:45.999Z</time>
      </trkpt>
      <trkpt lat="43.7765" lon="3.83108">
        <ele>437.6</ele>
        <time>2026-05-21T11:41:46.999Z</time>
      </trkpt>
      <trkpt lat="43.7765" lon="3.83107">
        <ele>437.5</ele>
        <time>2026-05-21T11:41:47.999Z</time>
      </trkpt>
      <trkpt lat="43.7765" lon="3.83107">
        <ele>437.6</ele>
        <time>2026-05-21T11:41:48.999Z</time>
      </trkpt>
      <trkpt lat="43.7765" lon="3.83106">
        <ele>437.5</ele>
        <time>2026-05-21T11:41:49.999Z</time>
      </trkpt>
      <trkpt lat="43.7765" lon="3.83106">
        <ele>437.4</ele>
        <time>2026-05-21T11:41:50.999Z</time>
      </trkpt>
      <trkpt lat="43.7765" lon="3.83106">
        <ele>437.3</ele>
        <time>2026-05-21T11:41:51.999Z</time>
      </trkpt>
      <trkpt lat="43.7765" lon="3.83106">
        <ele>437.2</ele>
        <time>2026-05-21T11:41:52.999Z</time>
      </trkpt>
      <trkpt lat="43.7765" lon="3.83106">
        <ele>437.1</ele>
        <time>2026-05-21T11:41:53.999Z</time>
      </trkpt>
      <trkpt lat="43.7765" lon="3.83106">
        <ele>437.1</ele>
        <time>2026-05-21T11:41:54.999Z</time>
      </trkpt>
      <trkpt lat="43.7765" lon="3.83106">
        <ele>437</ele>
        <time>2026-05-21T11:41:55.999Z</time>
      </trkpt>
      <trkpt lat="43.7765" lon="3.83106">
        <ele>437.1</ele>
        <time>2026-05-21T11:41:56.999Z</time>
      </trkpt>
      <trkpt lat="43.7765" lon="3.83106">
        <ele>437.3</ele>
        <time>2026-05-21T11:41:57.999Z</time>
      </trkpt>
      <trkpt lat="43.7765" lon="3.83106">
        <ele>437.4</ele>
        <time>2026-05-21T11:41:58.999Z</time>
      </trkpt>
      <trkpt lat="43.7765" lon="3.83105">
        <ele>437.6</ele>
        <time>2026-05-21T11:41:59.999Z</time>
      </trkpt>
      <trkpt lat="43.7765" lon="3.83106">
        <ele>437.5</ele>
        <time>2026-05-21T11:42:00.999Z</time>
      </trkpt>
      <trkpt lat="43.7765" lon="3.83107">
        <ele>437.6</ele>
        <time>2026-05-21T11:42:01.999Z</time>
      </trkpt>
      <trkpt lat="43.7765" lon="3.83107">
        <ele>437.5</ele>
        <time>2026-05-21T11:42:02.999Z</time>
      </trkpt>
      <trkpt lat="43.7765" lon="3.83106">
        <ele>437.5</ele>
        <time>2026-05-21T11:42:03.999Z</time>
      </trkpt>
      <trkpt lat="43.7765" lon="3.83106">
        <ele>437.5</ele>
        <time>2026-05-21T11:42:04.999Z</time>
      </trkpt>
      <trkpt lat="43.7765" lon="3.83105">
        <ele>437.6</ele>
        <time>2026-05-21T11:42:05.999Z</time>
      </trkpt>
      <trkpt lat="43.7765" lon="3.83106">
        <ele>438</ele>
        <time>2026-05-21T11:42:06.999Z</time>
      </trkpt>
      <trkpt lat="43.77651" lon="3.83106">
        <ele>438.2</ele>
        <time>2026-05-21T11:42:07.999Z</time>
      </trkpt>
      <trkpt lat="43.77651" lon="3.83106">
        <ele>438.4</ele>
        <time>2026-05-21T11:42:08.999Z</time>
      </trkpt>
      <trkpt lat="43.77651" lon="3.83106">
        <ele>438.6</ele>
        <time>2026-05-21T11:42:09.999Z</time>
      </trkpt>
      <trkpt lat="43.77651" lon="3.83106">
        <ele>438.5</ele>
        <time>2026-05-21T11:42:11.999Z</time>
      </trkpt>
      <trkpt lat="43.77651" lon="3.83106">
        <ele>438.4</ele>
        <time>2026-05-21T11:42:12.999Z</time>
      </trkpt>
      <trkpt lat="43.77651" lon="3.83106">
        <ele>438.2</ele>
        <time>2026-05-21T11:42:13.999Z</time>
      </trkpt>
      <trkpt lat="43.77651" lon="3.83106">
        <ele>438.4</ele>
        <time>2026-05-21T11:42:14.999Z</time>
      </trkpt>
      <trkpt lat="43.77651" lon="3.83106">
        <ele>437.9</ele>
        <time>2026-05-21T11:42:15.999Z</time>
      </trkpt>
      <trkpt lat="43.77651" lon="3.83106">
        <ele>437.9</ele>
        <time>2026-05-21T11:42:16.999Z</time>
      </trkpt>
      <trkpt lat="43.77651" lon="3.83106">
        <ele>437.8</ele>
        <time>2026-05-21T11:42:17.999Z</time>
      </trkpt>
      <trkpt lat="43.77651" lon="3.83106">
        <ele>437.8</ele>
        <time>2026-05-21T11:42:18.999Z</time>
      </trkpt>
      <trkpt lat="43.77651" lon="3.83106">
        <ele>437.9</ele>
        <time>2026-05-21T11:42:19.999Z</time>
      </trkpt>
      <trkpt lat="43.77651" lon="3.83106">
        <ele>437.9</ele>
        <time>2026-05-21T11:42:20.999Z</time>
      </trkpt>
      <trkpt lat="43.77651" lon="3.83106">
        <ele>437.9</ele>
        <time>2026-05-21T11:42:21.999Z</time>
      </trkpt>
      <trkpt lat="43.77651" lon="3.83106">
        <ele>438</ele>
        <time>2026-05-21T11:42:22.999Z</time>
      </trkpt>
      <trkpt lat="43.77651" lon="3.83106">
        <ele>438</ele>
        <time>2026-05-21T11:42:23.999Z</time>
      </trkpt>
      <trkpt lat="43.77651" lon="3.83106">
        <ele>438</ele>
        <time>2026-05-21T11:42:24.999Z</time>
      </trkpt>
      <trkpt lat="43.77651" lon="3.83107">
        <ele>438.1</ele>
        <time>2026-05-21T11:42:25.999Z</time>
      </trkpt>
      <trkpt lat="43.77651" lon="3.83108">
        <ele>438</ele>
        <time>2026-05-21T11:42:26.999Z</time>
      </trkpt>
      <trkpt lat="43.77651" lon="3.83109">
        <ele>438</ele>
        <time>2026-05-21T11:42:27.999Z</time>
      </trkpt>
      <trkpt lat="43.7765" lon="3.83108">
        <ele>437.9</ele>
        <time>2026-05-21T11:42:28.999Z</time>
      </trkpt>
      <trkpt lat="43.7765" lon="3.83108">
        <ele>437.9</ele>
        <time>2026-05-21T11:42:29.999Z</time>
      </trkpt>
      <trkpt lat="43.7765" lon="3.83108">
        <ele>437.8</ele>
        <time>2026-05-21T11:42:30.999Z</time>
      </trkpt>
      <trkpt lat="43.7765" lon="3.83108">
        <ele>437.8</ele>
        <time>2026-05-21T11:42:31.999Z</time>
      </trkpt>
      <trkpt lat="43.7765" lon="3.83108">
        <ele>437.8</ele>
        <time>2026-05-21T11:42:32.999Z</time>
      </trkpt>
      <trkpt lat="43.7765" lon="3.83108">
        <ele>437.6</ele>
        <time>2026-05-21T11:42:33.999Z</time>
      </trkpt>
      <trkpt lat="43.7765" lon="3.83108">
        <ele>437.5</ele>
        <time>2026-05-21T11:42:34.999Z</time>
      </trkpt>
      <trkpt lat="43.7765" lon="3.83108">
        <ele>437.6</ele>
        <time>2026-05-21T11:42:35.999Z</time>
      </trkpt>
      <trkpt lat="43.7765" lon="3.83108">
        <ele>437.8</ele>
        <time>2026-05-21T11:42:36.999Z</time>
      </trkpt>
      <trkpt lat="43.7765" lon="3.83108">
        <ele>437.8</ele>
        <time>2026-05-21T11:42:37.999Z</time>
      </trkpt>
      <trkpt lat="43.7765" lon="3.83108">
        <ele>437.7</ele>
        <time>2026-05-21T11:42:38.999Z</time>
      </trkpt>
      <trkpt lat="43.7765" lon="3.83107">
        <ele>437.5</ele>
        <time>2026-05-21T11:42:39.999Z</time>
      </trkpt>
      <trkpt lat="43.7765" lon="3.83107">
        <ele>437.7</ele>
        <time>2026-05-21T11:42:40.999Z</time>
      </trkpt>
      <trkpt lat="43.7765" lon="3.83107">
        <ele>437.6</ele>
        <time>2026-05-21T11:42:41.999Z</time>
      </trkpt>
      <trkpt lat="43.7765" lon="3.83107">
        <ele>437.6</ele>
        <time>2026-05-21T11:42:42.999Z</time>
      </trkpt>
      <trkpt lat="43.7765" lon="3.83107">
        <ele>437.6</ele>
        <time>2026-05-21T11:42:43.999Z</time>
      </trkpt>
      <trkpt lat="43.7765" lon="3.83107">
        <ele>437.6</ele>
        <time>2026-05-21T11:42:44.999Z</time>
      </trkpt>
      <trkpt lat="43.7765" lon="3.83107">
        <ele>437.7</ele>
        <time>2026-05-21T11:42:45.999Z</time>
      </trkpt>
      <trkpt lat="43.7765" lon="3.83107">
        <ele>437.7</ele>
        <time>2026-05-21T11:42:46.999Z</time>
      </trkpt>
      <trkpt lat="43.7765" lon="3.83107">
        <ele>437.7</ele>
        <time>2026-05-21T11:42:47.999Z</time>
      </trkpt>
      <trkpt lat="43.7765" lon="3.83107">
        <ele>437.8</ele>
        <time>2026-05-21T11:42:48.999Z</time>
      </trkpt>
      <trkpt lat="43.7765" lon="3.83107">
        <ele>437.8</ele>
        <time>2026-05-21T11:42:49.999Z</time>
      </trkpt>
      <trkpt lat="43.7765" lon="3.83107">
        <ele>437.5</ele>
        <time>2026-05-21T11:42:50.999Z</time>
      </trkpt>
      <trkpt lat="43.7765" lon="3.83107">
        <ele>437.4</ele>
        <time>2026-05-21T11:42:51.999Z</time>
      </trkpt>
      <trkpt lat="43.7765" lon="3.83107">
        <ele>437.2</ele>
        <time>2026-05-21T11:42:52.999Z</time>
      </trkpt>
      <trkpt lat="43.7765" lon="3.83107">
        <ele>437.1</ele>
        <time>2026-05-21T11:42:53.999Z</time>
      </trkpt>
      <trkpt lat="43.7765" lon="3.83107">
        <ele>437</ele>
        <time>2026-05-21T11:42:54.999Z</time>
      </trkpt>
      <trkpt lat="43.7765" lon="3.83107">
        <ele>437.1</ele>
        <time>2026-05-21T11:42:55.999Z</time>
      </trkpt>
      <trkpt lat="43.7765" lon="3.83107">
        <ele>437.1</ele>
        <time>2026-05-21T11:42:56.999Z</time>
      </trkpt>
      <trkpt lat="43.7765" lon="3.83107">
        <ele>437</ele>
        <time>2026-05-21T11:42:57.999Z</time>
      </trkpt>
      <trkpt lat="43.7765" lon="3.83107">
        <ele>437.1</ele>
        <time>2026-05-21T11:42:58.999Z</time>
      </trkpt>
      <trkpt lat="43.7765" lon="3.83107">
        <ele>437</ele>
        <time>2026-05-21T11:42:59.999Z</time>
      </trkpt>
      <trkpt lat="43.7765" lon="3.83107">
        <ele>437</ele>
        <time>2026-05-21T11:43:00.999Z</time>
      </trkpt>
      <trkpt lat="43.7765" lon="3.83107">
        <ele>436.9</ele>
        <time>2026-05-21T11:43:01.999Z</time>
      </trkpt>
      <trkpt lat="43.7765" lon="3.83107">
        <ele>436.4</ele>
        <time>2026-05-21T11:43:02.999Z</time>
      </trkpt>
      <trkpt lat="43.7765" lon="3.83107">
        <ele>435.9</ele>
        <time>2026-05-21T11:43:03.999Z</time>
      </trkpt>
      <trkpt lat="43.7765" lon="3.83107">
        <ele>436</ele>
        <time>2026-05-21T11:43:04.999Z</time>
      </trkpt>
      <trkpt lat="43.7765" lon="3.83107">
        <ele>436.2</ele>
        <time>2026-05-21T11:43:05.999Z</time>
      </trkpt>
      <trkpt lat="43.7765" lon="3.83107">
        <ele>436.4</ele>
        <time>2026-05-21T11:43:06.999Z</time>
      </trkpt>
      <trkpt lat="43.7765" lon="3.83106">
        <ele>436.8</ele>
        <time>2026-05-21T11:43:07.999Z</time>
      </trkpt>
      <trkpt lat="43.7765" lon="3.83106">
        <ele>436.5</ele>
        <time>2026-05-21T11:43:08.999Z</time>
      </trkpt>
      <trkpt lat="43.7765" lon="3.83106">
        <ele>436.3</ele>
        <time>2026-05-21T11:43:09.999Z</time>
      </trkpt>
      <trkpt lat="43.7765" lon="3.83106">
        <ele>436.2</ele>
        <time>2026-05-21T11:43:10.999Z</time>
      </trkpt>
      <trkpt lat="43.7765" lon="3.83106">
        <ele>436.2</ele>
        <time>2026-05-21T11:43:11.999Z</time>
      </trkpt>
      <trkpt lat="43.7765" lon="3.83106">
        <ele>436.2</ele>
        <time>2026-05-21T11:43:12.999Z</time>
      </trkpt>
      <trkpt lat="43.7765" lon="3.83106">
        <ele>436.2</ele>
        <time>2026-05-21T11:43:13.999Z</time>
      </trkpt>
      <trkpt lat="43.7765" lon="3.83106">
        <ele>436.4</ele>
        <time>2026-05-21T11:43:14.999Z</time>
      </trkpt>
      <trkpt lat="43.7765" lon="3.83106">
        <ele>436.3</ele>
        <time>2026-05-21T11:43:15.999Z</time>
      </trkpt>
      <trkpt lat="43.7765" lon="3.83106">
        <ele>435.7</ele>
        <time>2026-05-21T11:43:16.999Z</time>
      </trkpt>
      <trkpt lat="43.7765" lon="3.83106">
        <ele>435.5</ele>
        <time>2026-05-21T11:43:17.999Z</time>
      </trkpt>
      <trkpt lat="43.7765" lon="3.83106">
        <ele>435.6</ele>
        <time>2026-05-21T11:43:18.999Z</time>
      </trkpt>
      <trkpt lat="43.7765" lon="3.83106">
        <ele>435.6</ele>
        <time>2026-05-21T11:43:19.999Z</time>
      </trkpt>
      <trkpt lat="43.7765" lon="3.83105">
        <ele>435.5</ele>
        <time>2026-05-21T11:43:20.999Z</time>
      </trkpt>
      <trkpt lat="43.7765" lon="3.83104">
        <ele>435.4</ele>
        <time>2026-05-21T11:43:21.999Z</time>
      </trkpt>
      <trkpt lat="43.7765" lon="3.83103">
        <ele>435.2</ele>
        <time>2026-05-21T11:43:22.999Z</time>
      </trkpt>
      <trkpt lat="43.7765" lon="3.83102">
        <ele>435.2</ele>
        <time>2026-05-21T11:43:23.999Z</time>
      </trkpt>
      <trkpt lat="43.7765" lon="3.83102">
        <ele>435.3</ele>
        <time>2026-05-21T11:43:24.999Z</time>
      </trkpt>
      <trkpt lat="43.7765" lon="3.83102">
        <ele>435.2</ele>
        <time>2026-05-21T11:43:25.999Z</time>
      </trkpt>
      <trkpt lat="43.7765" lon="3.83102">
        <ele>435.3</ele>
        <time>2026-05-21T11:43:26.999Z</time>
      </trkpt>
      <trkpt lat="43.7765" lon="3.83102">
        <ele>435.3</ele>
        <time>2026-05-21T11:43:27.999Z</time>
      </trkpt>
      <trkpt lat="43.7765" lon="3.83102">
        <ele>435.4</ele>
        <time>2026-05-21T11:43:28.999Z</time>
      </trkpt>
      <trkpt lat="43.7765" lon="3.83101">
        <ele>435.3</ele>
        <time>2026-05-21T11:43:29.999Z</time>
      </trkpt>
      <trkpt lat="43.7765" lon="3.83101">
        <ele>435.2</ele>
        <time>2026-05-21T11:43:30.999Z</time>
      </trkpt>
      <trkpt lat="43.7765" lon="3.83101">
        <ele>435.2</ele>
        <time>2026-05-21T11:43:31.999Z</time>
      </trkpt>
      <trkpt lat="43.7765" lon="3.83101">
        <ele>435.4</ele>
        <time>2026-05-21T11:43:32.999Z</time>
      </trkpt>
      <trkpt lat="43.7765" lon="3.83101">
        <ele>435.4</ele>
        <time>2026-05-21T11:43:33.999Z</time>
      </trkpt>
      <trkpt lat="43.7765" lon="3.83101">
        <ele>435.2</ele>
        <time>2026-05-21T11:43:34.999Z</time>
      </trkpt>
      <trkpt lat="43.7765" lon="3.831">
        <ele>435.3</ele>
        <time>2026-05-21T11:43:35.999Z</time>
      </trkpt>
      <trkpt lat="43.7765" lon="3.831">
        <ele>435.3</ele>
        <time>2026-05-21T11:43:36.999Z</time>
      </trkpt>
      <trkpt lat="43.7765" lon="3.831">
        <ele>435.3</ele>
        <time>2026-05-21T11:43:37.999Z</time>
      </trkpt>
      <trkpt lat="43.7765" lon="3.831">
        <ele>435.3</ele>
        <time>2026-05-21T11:43:38.999Z</time>
      </trkpt>
      <trkpt lat="43.7765" lon="3.831">
        <ele>435.1</ele>
        <time>2026-05-21T11:43:39.999Z</time>
      </trkpt>
      <trkpt lat="43.7765" lon="3.83099">
        <ele>435</ele>
        <time>2026-05-21T11:43:40.999Z</time>
      </trkpt>
      <trkpt lat="43.77651" lon="3.83099">
        <ele>434.5</ele>
        <time>2026-05-21T11:43:41.999Z</time>
      </trkpt>
      <trkpt lat="43.77651" lon="3.83097">
        <ele>434.2</ele>
        <time>2026-05-21T11:43:42.999Z</time>
      </trkpt>
      <trkpt lat="43.77651" lon="3.83095">
        <ele>433.8</ele>
        <time>2026-05-21T11:43:43.999Z</time>
      </trkpt>
      <trkpt lat="43.77651" lon="3.83093">
        <ele>433.7</ele>
        <time>2026-05-21T11:43:44.999Z</time>
      </trkpt>
      <trkpt lat="43.77651" lon="3.83093">
        <ele>433.7</ele>
        <time>2026-05-21T11:43:45.999Z</time>
      </trkpt>
      <trkpt lat="43.77651" lon="3.83093">
        <ele>433.6</ele>
        <time>2026-05-21T11:43:46.999Z</time>
      </trkpt>
      <trkpt lat="43.77651" lon="3.83093">
        <ele>433.7</ele>
        <time>2026-05-21T11:43:47.999Z</time>
      </trkpt>
      <trkpt lat="43.77651" lon="3.83093">
        <ele>433.7</ele>
        <time>2026-05-21T11:43:48.999Z</time>
      </trkpt>
      <trkpt lat="43.77651" lon="3.83093">
        <ele>433.7</ele>
        <time>2026-05-21T11:43:49.999Z</time>
      </trkpt>
      <trkpt lat="43.77651" lon="3.83093">
        <ele>433.6</ele>
        <time>2026-05-21T11:43:50.999Z</time>
      </trkpt>
      <trkpt lat="43.77651" lon="3.83093">
        <ele>433.5</ele>
        <time>2026-05-21T11:43:51.999Z</time>
      </trkpt>
      <trkpt lat="43.77651" lon="3.83093">
        <ele>433.3</ele>
        <time>2026-05-21T11:43:52.999Z</time>
      </trkpt>
      <trkpt lat="43.77651" lon="3.83092">
        <ele>433.1</ele>
        <time>2026-05-21T11:43:53.999Z</time>
      </trkpt>
      <trkpt lat="43.77651" lon="3.83092">
        <ele>433</ele>
        <time>2026-05-21T11:43:54.999Z</time>
      </trkpt>
      <trkpt lat="43.77651" lon="3.83092">
        <ele>433</ele>
        <time>2026-05-21T11:43:55.999Z</time>
      </trkpt>
      <trkpt lat="43.77651" lon="3.83092">
        <ele>433</ele>
        <time>2026-05-21T11:43:56.999Z</time>
      </trkpt>
      <trkpt lat="43.77651" lon="3.83091">
        <ele>432.8</ele>
        <time>2026-05-21T11:43:57.999Z</time>
      </trkpt>
      <trkpt lat="43.77651" lon="3.83091">
        <ele>432.8</ele>
        <time>2026-05-21T11:43:58.999Z</time>
      </trkpt>
      <trkpt lat="43.77651" lon="3.83091">
        <ele>432.5</ele>
        <time>2026-05-21T11:43:59.999Z</time>
      </trkpt>
      <trkpt lat="43.77651" lon="3.83091">
        <ele>432.3</ele>
        <time>2026-05-21T11:44:00.999Z</time>
      </trkpt>
      <trkpt lat="43.77651" lon="3.83091">
        <ele>432.1</ele>
        <time>2026-05-21T11:44:01.999Z</time>
      </trkpt>
      <trkpt lat="43.77651" lon="3.83091">
        <ele>432.2</ele>
        <time>2026-05-21T11:44:02.999Z</time>
      </trkpt>
      <trkpt lat="43.77651" lon="3.83091">
        <ele>432.4</ele>
        <time>2026-05-21T11:44:03.999Z</time>
      </trkpt>
      <trkpt lat="43.77651" lon="3.83091">
        <ele>432.4</ele>
        <time>2026-05-21T11:44:04.999Z</time>
      </trkpt>
      <trkpt lat="43.77651" lon="3.8309">
        <ele>432.3</ele>
        <time>2026-05-21T11:44:05.999Z</time>
      </trkpt>
      <trkpt lat="43.77651" lon="3.8309">
        <ele>432.3</ele>
        <time>2026-05-21T11:44:06.999Z</time>
      </trkpt>
      <trkpt lat="43.77651" lon="3.8309">
        <ele>432.2</ele>
        <time>2026-05-21T11:44:07.999Z</time>
      </trkpt>
      <trkpt lat="43.77651" lon="3.83089">
        <ele>432.2</ele>
        <time>2026-05-21T11:44:08.999Z</time>
      </trkpt>
      <trkpt lat="43.77651" lon="3.83089">
        <ele>432.1</ele>
        <time>2026-05-21T11:44:09.999Z</time>
      </trkpt>
      <trkpt lat="43.77651" lon="3.83089">
        <ele>432.2</ele>
        <time>2026-05-21T11:44:10.999Z</time>
      </trkpt>
      <trkpt lat="43.77651" lon="3.83089">
        <ele>432.2</ele>
        <time>2026-05-21T11:44:11.999Z</time>
      </trkpt>
      <trkpt lat="43.77651" lon="3.83089">
        <ele>432.3</ele>
        <time>2026-05-21T11:44:12.999Z</time>
      </trkpt>
      <trkpt lat="43.77651" lon="3.83089">
        <ele>432</ele>
        <time>2026-05-21T11:44:13.999Z</time>
      </trkpt>
      <trkpt lat="43.77651" lon="3.83089">
        <ele>431.6</ele>
        <time>2026-05-21T11:44:14.999Z</time>
      </trkpt>
      <trkpt lat="43.77651" lon="3.83088">
        <ele>431.4</ele>
        <time>2026-05-21T11:44:15.999Z</time>
      </trkpt>
      <trkpt lat="43.77651" lon="3.83088">
        <ele>431.2</ele>
        <time>2026-05-21T11:44:16.999Z</time>
      </trkpt>
      <trkpt lat="43.77651" lon="3.83088">
        <ele>431.1</ele>
        <time>2026-05-21T11:44:17.999Z</time>
      </trkpt>
      <trkpt lat="43.77651" lon="3.83088">
        <ele>430.7</ele>
        <time>2026-05-21T11:44:18.999Z</time>
      </trkpt>
      <trkpt lat="43.77651" lon="3.83088">
        <ele>430.5</ele>
        <time>2026-05-21T11:44:19.999Z</time>
      </trkpt>
      <trkpt lat="43.77651" lon="3.83087">
        <ele>430.4</ele>
        <time>2026-05-21T11:44:20.999Z</time>
      </trkpt>
      <trkpt lat="43.77651" lon="3.83087">
        <ele>430.3</ele>
        <time>2026-05-21T11:44:21.999Z</time>
      </trkpt>
      <trkpt lat="43.77651" lon="3.83087">
        <ele>430.4</ele>
        <time>2026-05-21T11:44:22.999Z</time>
      </trkpt>
      <trkpt lat="43.77651" lon="3.83087">
        <ele>430.5</ele>
        <time>2026-05-21T11:44:23.999Z</time>
      </trkpt>
      <trkpt lat="43.77651" lon="3.83087">
        <ele>430.6</ele>
        <time>2026-05-21T11:44:24.999Z</time>
      </trkpt>
      <trkpt lat="43.77651" lon="3.83086">
        <ele>430.8</ele>
        <time>2026-05-21T11:44:25.999Z</time>
      </trkpt>
      <trkpt lat="43.77651" lon="3.83086">
        <ele>430.9</ele>
        <time>2026-05-21T11:44:26.999Z</time>
      </trkpt>
      <trkpt lat="43.77651" lon="3.83086">
        <ele>430.9</ele>
        <time>2026-05-21T11:44:27.999Z</time>
      </trkpt>
      <trkpt lat="43.77651" lon="3.83086">
        <ele>431</ele>
        <time>2026-05-21T11:44:28.999Z</time>
      </trkpt>
      <trkpt lat="43.77651" lon="3.83086">
        <ele>431.1</ele>
        <time>2026-05-21T11:44:29.999Z</time>
      </trkpt>
      <trkpt lat="43.77651" lon="3.83086">
        <ele>431.1</ele>
        <time>2026-05-21T11:44:30.999Z</time>
      </trkpt>
      <trkpt lat="43.77651" lon="3.83085">
        <ele>431.1</ele>
        <time>2026-05-21T11:44:31.999Z</time>
      </trkpt>
      <trkpt lat="43.77651" lon="3.83085">
        <ele>431.2</ele>
        <time>2026-05-21T11:44:32.999Z</time>
      </trkpt>
      <trkpt lat="43.77651" lon="3.83085">
        <ele>431</ele>
        <time>2026-05-21T11:44:33.999Z</time>
      </trkpt>
      <trkpt lat="43.77651" lon="3.83085">
        <ele>430.9</ele>
        <time>2026-05-21T11:44:34.999Z</time>
      </trkpt>
      <trkpt lat="43.77651" lon="3.83085">
        <ele>430.5</ele>
        <time>2026-05-21T11:44:35.999Z</time>
      </trkpt>
      <trkpt lat="43.77651" lon="3.83085">
        <ele>430.2</ele>
        <time>2026-05-21T11:44:36.999Z</time>
      </trkpt>
      <trkpt lat="43.77651" lon="3.83085">
        <ele>429.9</ele>
        <time>2026-05-21T11:44:37.999Z</time>
      </trkpt>
      <trkpt lat="43.77651" lon="3.83084">
        <ele>429.6</ele>
        <time>2026-05-21T11:44:38.999Z</time>
      </trkpt>
      <trkpt lat="43.77651" lon="3.83084">
        <ele>429.4</ele>
        <time>2026-05-21T11:44:39.999Z</time>
      </trkpt>
      <trkpt lat="43.77651" lon="3.83083">
        <ele>429.5</ele>
        <time>2026-05-21T11:44:40.999Z</time>
      </trkpt>
      <trkpt lat="43.77651" lon="3.83083">
        <ele>429.6</ele>
        <time>2026-05-21T11:44:41.999Z</time>
      </trkpt>
      <trkpt lat="43.77651" lon="3.83082">
        <ele>429.5</ele>
        <time>2026-05-21T11:44:42.999Z</time>
      </trkpt>
      <trkpt lat="43.77651" lon="3.83081">
        <ele>429.3</ele>
        <time>2026-05-21T11:44:43.999Z</time>
      </trkpt>
      <trkpt lat="43.77651" lon="3.83079">
        <ele>429</ele>
        <time>2026-05-21T11:44:44.999Z</time>
      </trkpt>
      <trkpt lat="43.7765" lon="3.83078">
        <ele>428.9</ele>
        <time>2026-05-21T11:44:45.999Z</time>
      </trkpt>
      <trkpt lat="43.7765" lon="3.83077">
        <ele>428.9</ele>
        <time>2026-05-21T11:44:46.999Z</time>
      </trkpt>
      <trkpt lat="43.77649" lon="3.83076">
        <ele>428.7</ele>
        <time>2026-05-21T11:44:47.999Z</time>
      </trkpt>
      <trkpt lat="43.77649" lon="3.83076">
        <ele>428.5</ele>
        <time>2026-05-21T11:44:48.999Z</time>
      </trkpt>
      <trkpt lat="43.77649" lon="3.83074">
        <ele>428.4</ele>
        <time>2026-05-21T11:44:49.999Z</time>
      </trkpt>
      <trkpt lat="43.77649" lon="3.83073">
        <ele>428.4</ele>
        <time>2026-05-21T11:44:50.999Z</time>
      </trkpt>
      <trkpt lat="43.77649" lon="3.83073">
        <ele>428.4</ele>
        <time>2026-05-21T11:44:51.999Z</time>
      </trkpt>
      <trkpt lat="43.77649" lon="3.83072">
        <ele>428.1</ele>
        <time>2026-05-21T11:44:52.999Z</time>
      </trkpt>
      <trkpt lat="43.7765" lon="3.83072">
        <ele>427.8</ele>
        <time>2026-05-21T11:44:53.999Z</time>
      </trkpt>
      <trkpt lat="43.7765" lon="3.83072">
        <ele>427.8</ele>
        <time>2026-05-21T11:44:54.999Z</time>
      </trkpt>
      <trkpt lat="43.77649" lon="3.83072">
        <ele>427.8</ele>
        <time>2026-05-21T11:44:55.999Z</time>
      </trkpt>
      <trkpt lat="43.77649" lon="3.83072">
        <ele>427.8</ele>
        <time>2026-05-21T11:44:56.999Z</time>
      </trkpt>
      <trkpt lat="43.77649" lon="3.83072">
        <ele>427.8</ele>
        <time>2026-05-21T11:44:57.999Z</time>
      </trkpt>
      <trkpt lat="43.77649" lon="3.83071">
        <ele>427.6</ele>
        <time>2026-05-21T11:44:58.999Z</time>
      </trkpt>
      <trkpt lat="43.77649" lon="3.83071">
        <ele>427.5</ele>
        <time>2026-05-21T11:45:00.000Z</time>
      </trkpt>
      <trkpt lat="43.77649" lon="3.83071">
        <ele>427.4</ele>
        <time>2026-05-21T11:45:01.000Z</time>
      </trkpt>
      <trkpt lat="43.77649" lon="3.83071">
        <ele>427.6</ele>
        <time>2026-05-21T11:45:02.000Z</time>
      </trkpt>
      <trkpt lat="43.77649" lon="3.83071">
        <ele>427.7</ele>
        <time>2026-05-21T11:45:03.000Z</time>
      </trkpt>
      <trkpt lat="43.77649" lon="3.83071">
        <ele>427.4</ele>
        <time>2026-05-21T11:45:04.000Z</time>
      </trkpt>
      <trkpt lat="43.77649" lon="3.83071">
        <ele>427.4</ele>
        <time>2026-05-21T11:45:05.000Z</time>
      </trkpt>
      <trkpt lat="43.77649" lon="3.83071">
        <ele>427.5</ele>
        <time>2026-05-21T11:45:06.000Z</time>
      </trkpt>
      <trkpt lat="43.77649" lon="3.83071">
        <ele>427.7</ele>
        <time>2026-05-21T11:45:07.000Z</time>
      </trkpt>
      <trkpt lat="43.77649" lon="3.83071">
        <ele>428</ele>
        <time>2026-05-21T11:45:08.000Z</time>
      </trkpt>
      <trkpt lat="43.77649" lon="3.83071">
        <ele>428.3</ele>
        <time>2026-05-21T11:45:09.000Z</time>
      </trkpt>
      <trkpt lat="43.77649" lon="3.83071">
        <ele>428.3</ele>
        <time>2026-05-21T11:45:10.000Z</time>
      </trkpt>
      <trkpt lat="43.77649" lon="3.83071">
        <ele>428</ele>
        <time>2026-05-21T11:45:11.000Z</time>
      </trkpt>
      <trkpt lat="43.77649" lon="3.83071">
        <ele>427.8</ele>
        <time>2026-05-21T11:45:12.000Z</time>
      </trkpt>
      <trkpt lat="43.77649" lon="3.83071">
        <ele>427.5</ele>
        <time>2026-05-21T11:45:13.000Z</time>
      </trkpt>
      <trkpt lat="43.77649" lon="3.83071">
        <ele>427.3</ele>
        <time>2026-05-21T11:45:14.000Z</time>
      </trkpt>
      <trkpt lat="43.77649" lon="3.83071">
        <ele>427.2</ele>
        <time>2026-05-21T11:45:15.000Z</time>
      </trkpt>
      <trkpt lat="43.77649" lon="3.83071">
        <ele>427.1</ele>
        <time>2026-05-21T11:45:16.000Z</time>
      </trkpt>
      <trkpt lat="43.77649" lon="3.83071">
        <ele>427.1</ele>
        <time>2026-05-21T11:45:17.000Z</time>
      </trkpt>
      <trkpt lat="43.77649" lon="3.83071">
        <ele>427.1</ele>
        <time>2026-05-21T11:45:18.000Z</time>
      </trkpt>
      <trkpt lat="43.77649" lon="3.83071">
        <ele>427.1</ele>
        <time>2026-05-21T11:45:19.000Z</time>
      </trkpt>
      <trkpt lat="43.77649" lon="3.83071">
        <ele>427</ele>
        <time>2026-05-21T11:45:20.000Z</time>
      </trkpt>
      <trkpt lat="43.77649" lon="3.83071">
        <ele>427.1</ele>
        <time>2026-05-21T11:45:21.000Z</time>
      </trkpt>
      <trkpt lat="43.77649" lon="3.83071">
        <ele>427.2</ele>
        <time>2026-05-21T11:45:22.000Z</time>
      </trkpt>
      <trkpt lat="43.77649" lon="3.83071">
        <ele>427.4</ele>
        <time>2026-05-21T11:45:23.000Z</time>
      </trkpt>
      <trkpt lat="43.77649" lon="3.83071">
        <ele>427.5</ele>
        <time>2026-05-21T11:45:24.000Z</time>
      </trkpt>
      <trkpt lat="43.77649" lon="3.83071">
        <ele>427.5</ele>
        <time>2026-05-21T11:45:25.000Z</time>
      </trkpt>
      <trkpt lat="43.77649" lon="3.83072">
        <ele>427.6</ele>
        <time>2026-05-21T11:45:26.000Z</time>
      </trkpt>
      <trkpt lat="43.77649" lon="3.83072">
        <ele>427.6</ele>
        <time>2026-05-21T11:45:27.000Z</time>
      </trkpt>
      <trkpt lat="43.77649" lon="3.83072">
        <ele>427.5</ele>
        <time>2026-05-21T11:45:28.000Z</time>
      </trkpt>
      <trkpt lat="43.77649" lon="3.83072">
        <ele>427.5</ele>
        <time>2026-05-21T11:45:29.000Z</time>
      </trkpt>
      <trkpt lat="43.77649" lon="3.83072">
        <ele>427.5</ele>
        <time>2026-05-21T11:45:30.000Z</time>
      </trkpt>
      <trkpt lat="43.77649" lon="3.83072">
        <ele>427.4</ele>
        <time>2026-05-21T11:45:31.000Z</time>
      </trkpt>
      <trkpt lat="43.77649" lon="3.83072">
        <ele>427.4</ele>
        <time>2026-05-21T11:45:32.000Z</time>
      </trkpt>
      <trkpt lat="43.77649" lon="3.83072">
        <ele>427.5</ele>
        <time>2026-05-21T11:45:33.000Z</time>
      </trkpt>
      <trkpt lat="43.77649" lon="3.83072">
        <ele>427.5</ele>
        <time>2026-05-21T11:45:34.000Z</time>
      </trkpt>
      <trkpt lat="43.77649" lon="3.83072">
        <ele>427.5</ele>
        <time>2026-05-21T11:45:35.000Z</time>
      </trkpt>
      <trkpt lat="43.77649" lon="3.83072">
        <ele>427.6</ele>
        <time>2026-05-21T11:45:36.000Z</time>
      </trkpt>
      <trkpt lat="43.77649" lon="3.83072">
        <ele>427.6</ele>
        <time>2026-05-21T11:45:37.000Z</time>
      </trkpt>
      <trkpt lat="43.77649" lon="3.83072">
        <ele>427.5</ele>
        <time>2026-05-21T11:45:38.000Z</time>
      </trkpt>
      <trkpt lat="43.77649" lon="3.83072">
        <ele>427.5</ele>
        <time>2026-05-21T11:45:39.000Z</time>
      </trkpt>
      <trkpt lat="43.77649" lon="3.83072">
        <ele>427.5</ele>
        <time>2026-05-21T11:45:40.000Z</time>
      </trkpt>
      <trkpt lat="43.77649" lon="3.83072">
        <ele>427.5</ele>
        <time>2026-05-21T11:45:41.000Z</time>
      </trkpt>
      <trkpt lat="43.77649" lon="3.83072">
        <ele>427.5</ele>
        <time>2026-05-21T11:45:42.000Z</time>
      </trkpt>
      <trkpt lat="43.77649" lon="3.83072">
        <ele>427.5</ele>
        <time>2026-05-21T11:45:43.000Z</time>
      </trkpt>
      <trkpt lat="43.77649" lon="3.83072">
        <ele>427.7</ele>
        <time>2026-05-21T11:45:44.000Z</time>
      </trkpt>
      <trkpt lat="43.77649" lon="3.83072">
        <ele>428</ele>
        <time>2026-05-21T11:45:45.000Z</time>
      </trkpt>
      <trkpt lat="43.77649" lon="3.83072">
        <ele>428.2</ele>
        <time>2026-05-21T11:45:46.000Z</time>
      </trkpt>
      <trkpt lat="43.77649" lon="3.83072">
        <ele>428.3</ele>
        <time>2026-05-21T11:45:47.000Z</time>
      </trkpt>
      <trkpt lat="43.77649" lon="3.83072">
        <ele>428.5</ele>
        <time>2026-05-21T11:45:48.000Z</time>
      </trkpt>
      <trkpt lat="43.77649" lon="3.83072">
        <ele>428.6</ele>
        <time>2026-05-21T11:45:49.000Z</time>
      </trkpt>
      <trkpt lat="43.77649" lon="3.83072">
        <ele>428.7</ele>
        <time>2026-05-21T11:45:50.000Z</time>
      </trkpt>
      <trkpt lat="43.77649" lon="3.83072">
        <ele>428.7</ele>
        <time>2026-05-21T11:45:51.000Z</time>
      </trkpt>
      <trkpt lat="43.77649" lon="3.83072">
        <ele>428.7</ele>
        <time>2026-05-21T11:45:52.000Z</time>
      </trkpt>
      <trkpt lat="43.77649" lon="3.83072">
        <ele>428.8</ele>
        <time>2026-05-21T11:45:53.000Z</time>
      </trkpt>
      <trkpt lat="43.77649" lon="3.83072">
        <ele>428.7</ele>
        <time>2026-05-21T11:45:54.000Z</time>
      </trkpt>
      <trkpt lat="43.77649" lon="3.83072">
        <ele>428.7</ele>
        <time>2026-05-21T11:45:55.000Z</time>
      </trkpt>
      <trkpt lat="43.77649" lon="3.83072">
        <ele>428.7</ele>
        <time>2026-05-21T11:45:56.000Z</time>
      </trkpt>
      <trkpt lat="43.77649" lon="3.83072">
        <ele>428.7</ele>
        <time>2026-05-21T11:45:57.000Z</time>
      </trkpt>
      <trkpt lat="43.77649" lon="3.83072">
        <ele>428.7</ele>
        <time>2026-05-21T11:45:58.000Z</time>
      </trkpt>
      <trkpt lat="43.77649" lon="3.83071">
        <ele>428.6</ele>
        <time>2026-05-21T11:45:59.000Z</time>
      </trkpt>
      <trkpt lat="43.77649" lon="3.83071">
        <ele>428.6</ele>
        <time>2026-05-21T11:46:00.000Z</time>
      </trkpt>
      <trkpt lat="43.77649" lon="3.83071">
        <ele>428.5</ele>
        <time>2026-05-21T11:46:01.000Z</time>
      </trkpt>
      <trkpt lat="43.77649" lon="3.83071">
        <ele>428.5</ele>
        <time>2026-05-21T11:46:02.000Z</time>
      </trkpt>
      <trkpt lat="43.77649" lon="3.83071">
        <ele>428.4</ele>
        <time>2026-05-21T11:46:03.000Z</time>
      </trkpt>
      <trkpt lat="43.77649" lon="3.83071">
        <ele>428.4</ele>
        <time>2026-05-21T11:46:04.000Z</time>
      </trkpt>
      <trkpt lat="43.77649" lon="3.83071">
        <ele>428.4</ele>
        <time>2026-05-21T11:46:05.000Z</time>
      </trkpt>
      <trkpt lat="43.77649" lon="3.83071">
        <ele>428.5</ele>
        <time>2026-05-21T11:46:06.000Z</time>
      </trkpt>
      <trkpt lat="43.77649" lon="3.83071">
        <ele>428.6</ele>
        <time>2026-05-21T11:46:07.000Z</time>
      </trkpt>
      <trkpt lat="43.77649" lon="3.83071">
        <ele>428.9</ele>
        <time>2026-05-21T11:46:09.000Z</time>
      </trkpt>
      <trkpt lat="43.77649" lon="3.83071">
        <ele>428.8</ele>
        <time>2026-05-21T11:46:10.000Z</time>
      </trkpt>
      <trkpt lat="43.77649" lon="3.83072">
        <ele>428.7</ele>
        <time>2026-05-21T11:46:11.000Z</time>
      </trkpt>
      <trkpt lat="43.77649" lon="3.83071">
        <ele>428.5</ele>
        <time>2026-05-21T11:46:12.000Z</time>
      </trkpt>
      <trkpt lat="43.77649" lon="3.83072">
        <ele>428.3</ele>
        <time>2026-05-21T11:46:13.000Z</time>
      </trkpt>
      <trkpt lat="43.77649" lon="3.83072">
        <ele>428.3</ele>
        <time>2026-05-21T11:46:14.000Z</time>
      </trkpt>
      <trkpt lat="43.77649" lon="3.83072">
        <ele>428.2</ele>
        <time>2026-05-21T11:46:15.000Z</time>
      </trkpt>
      <trkpt lat="43.77649" lon="3.83072">
        <ele>428.1</ele>
        <time>2026-05-21T11:46:16.000Z</time>
      </trkpt>
      <trkpt lat="43.77649" lon="3.83072">
        <ele>428</ele>
        <time>2026-05-21T11:46:17.000Z</time>
      </trkpt>
      <trkpt lat="43.77649" lon="3.83072">
        <ele>428</ele>
        <time>2026-05-21T11:46:18.000Z</time>
      </trkpt>
      <trkpt lat="43.77649" lon="3.83072">
        <ele>428.1</ele>
        <time>2026-05-21T11:46:19.000Z</time>
      </trkpt>
      <trkpt lat="43.77649" lon="3.83072">
        <ele>428.1</ele>
        <time>2026-05-21T11:46:20.000Z</time>
      </trkpt>
      <trkpt lat="43.77649" lon="3.83072">
        <ele>428.2</ele>
        <time>2026-05-21T11:46:21.000Z</time>
      </trkpt>
      <trkpt lat="43.77649" lon="3.83072">
        <ele>428.2</ele>
        <time>2026-05-21T11:46:22.000Z</time>
      </trkpt>
      <trkpt lat="43.77649" lon="3.83072">
        <ele>428.2</ele>
        <time>2026-05-21T11:46:23.000Z</time>
      </trkpt>
      <trkpt lat="43.77649" lon="3.83072">
        <ele>428.3</ele>
        <time>2026-05-21T11:46:24.000Z</time>
      </trkpt>
      <trkpt lat="43.77649" lon="3.83072">
        <ele>428.3</ele>
        <time>2026-05-21T11:46:25.000Z</time>
      </trkpt>
      <trkpt lat="43.77649" lon="3.83072">
        <ele>428.3</ele>
        <time>2026-05-21T11:46:26.000Z</time>
      </trkpt>
      <trkpt lat="43.77649" lon="3.83072">
        <ele>428.5</ele>
        <time>2026-05-21T11:46:27.000Z</time>
      </trkpt>
      <trkpt lat="43.77649" lon="3.83072">
        <ele>428.6</ele>
        <time>2026-05-21T11:46:28.000Z</time>
      </trkpt>
      <trkpt lat="43.77649" lon="3.83071">
        <ele>428.7</ele>
        <time>2026-05-21T11:46:29.000Z</time>
      </trkpt>
      <trkpt lat="43.77649" lon="3.83071">
        <ele>428.7</ele>
        <time>2026-05-21T11:46:30.000Z</time>
      </trkpt>
      <trkpt lat="43.77649" lon="3.83071">
        <ele>428.6</ele>
        <time>2026-05-21T11:46:31.000Z</time>
      </trkpt>
      <trkpt lat="43.77649" lon="3.83071">
        <ele>428.5</ele>
        <time>2026-05-21T11:46:32.000Z</time>
      </trkpt>
      <trkpt lat="43.77649" lon="3.83071">
        <ele>428.4</ele>
        <time>2026-05-21T11:46:33.000Z</time>
      </trkpt>
      <trkpt lat="43.77649" lon="3.83071">
        <ele>428.4</ele>
        <time>2026-05-21T11:46:34.000Z</time>
      </trkpt>
      <trkpt lat="43.77649" lon="3.83071">
        <ele>428.5</ele>
        <time>2026-05-21T11:46:35.000Z</time>
      </trkpt>
      <trkpt lat="43.77649" lon="3.83071">
        <ele>428.3</ele>
        <time>2026-05-21T11:46:36.000Z</time>
      </trkpt>
      <trkpt lat="43.77649" lon="3.83071">
        <ele>428.2</ele>
        <time>2026-05-21T11:46:37.000Z</time>
      </trkpt>
      <trkpt lat="43.77649" lon="3.83071">
        <ele>428.1</ele>
        <time>2026-05-21T11:46:38.000Z</time>
      </trkpt>
      <trkpt lat="43.77649" lon="3.83071">
        <ele>428.1</ele>
        <time>2026-05-21T11:46:39.000Z</time>
      </trkpt>
      <trkpt lat="43.77649" lon="3.83071">
        <ele>428</ele>
        <time>2026-05-21T11:46:40.000Z</time>
      </trkpt>
      <trkpt lat="43.77649" lon="3.83071">
        <ele>427.9</ele>
        <time>2026-05-21T11:46:41.000Z</time>
      </trkpt>
      <trkpt lat="43.77649" lon="3.83071">
        <ele>428</ele>
        <time>2026-05-21T11:46:42.000Z</time>
      </trkpt>
      <trkpt lat="43.77649" lon="3.83071">
        <ele>428</ele>
        <time>2026-05-21T11:46:43.000Z</time>
      </trkpt>
      <trkpt lat="43.77649" lon="3.83071">
        <ele>427.9</ele>
        <time>2026-05-21T11:46:44.000Z</time>
      </trkpt>
      <trkpt lat="43.77649" lon="3.83071">
        <ele>428</ele>
        <time>2026-05-21T11:46:45.000Z</time>
      </trkpt>
      <trkpt lat="43.77649" lon="3.83071">
        <ele>428</ele>
        <time>2026-05-21T11:46:46.000Z</time>
      </trkpt>
      <trkpt lat="43.77649" lon="3.83071">
        <ele>428</ele>
        <time>2026-05-21T11:46:47.000Z</time>
      </trkpt>
      <trkpt lat="43.77649" lon="3.83071">
        <ele>428.1</ele>
        <time>2026-05-21T11:46:48.000Z</time>
      </trkpt>
      <trkpt lat="43.77649" lon="3.83071">
        <ele>428.1</ele>
        <time>2026-05-21T11:46:49.000Z</time>
      </trkpt>
      <trkpt lat="43.77649" lon="3.83071">
        <ele>428.1</ele>
        <time>2026-05-21T11:46:50.000Z</time>
      </trkpt>
      <trkpt lat="43.77649" lon="3.83071">
        <ele>428.1</ele>
        <time>2026-05-21T11:46:51.000Z</time>
      </trkpt>
      <trkpt lat="43.77649" lon="3.8307">
        <ele>428.1</ele>
        <time>2026-05-21T11:46:52.000Z</time>
      </trkpt>
      <trkpt lat="43.77649" lon="3.8307">
        <ele>428.1</ele>
        <time>2026-05-21T11:46:53.000Z</time>
      </trkpt>
      <trkpt lat="43.77649" lon="3.8307">
        <ele>428.1</ele>
        <time>2026-05-21T11:46:54.000Z</time>
      </trkpt>
      <trkpt lat="43.77649" lon="3.83069">
        <ele>428.2</ele>
        <time>2026-05-21T11:46:55.000Z</time>
      </trkpt>
      <trkpt lat="43.77649" lon="3.83069">
        <ele>428.1</ele>
        <time>2026-05-21T11:46:56.000Z</time>
      </trkpt>
      <trkpt lat="43.77649" lon="3.83069">
        <ele>428.2</ele>
        <time>2026-05-21T11:46:57.000Z</time>
      </trkpt>
      <trkpt lat="43.77649" lon="3.83069">
        <ele>428.2</ele>
        <time>2026-05-21T11:46:58.000Z</time>
      </trkpt>
      <trkpt lat="43.77649" lon="3.83069">
        <ele>428</ele>
        <time>2026-05-21T11:46:59.000Z</time>
      </trkpt>
      <trkpt lat="43.77649" lon="3.83068">
        <ele>427.8</ele>
        <time>2026-05-21T11:47:00.000Z</time>
      </trkpt>
      <trkpt lat="43.77649" lon="3.83068">
        <ele>427.7</ele>
        <time>2026-05-21T11:47:01.000Z</time>
      </trkpt>
      <trkpt lat="43.77649" lon="3.83068">
        <ele>427.4</ele>
        <time>2026-05-21T11:47:02.000Z</time>
      </trkpt>
      <trkpt lat="43.77649" lon="3.83067">
        <ele>427.4</ele>
        <time>2026-05-21T11:47:03.000Z</time>
      </trkpt>
      <trkpt lat="43.77649" lon="3.83067">
        <ele>427.4</ele>
        <time>2026-05-21T11:47:04.000Z</time>
      </trkpt>
      <trkpt lat="43.77649" lon="3.83067">
        <ele>427.3</ele>
        <time>2026-05-21T11:47:05.000Z</time>
      </trkpt>
      <trkpt lat="43.77649" lon="3.83066">
        <ele>427</ele>
        <time>2026-05-21T11:47:06.000Z</time>
      </trkpt>
      <trkpt lat="43.77649" lon="3.83066">
        <ele>426.8</ele>
        <time>2026-05-21T11:47:07.000Z</time>
      </trkpt>
      <trkpt lat="43.77649" lon="3.83066">
        <ele>426.8</ele>
        <time>2026-05-21T11:47:08.000Z</time>
      </trkpt>
      <trkpt lat="43.77649" lon="3.83066">
        <ele>426.9</ele>
        <time>2026-05-21T11:47:09.000Z</time>
      </trkpt>
      <trkpt lat="43.77649" lon="3.83066">
        <ele>427.1</ele>
        <time>2026-05-21T11:47:10.000Z</time>
      </trkpt>
      <trkpt lat="43.77649" lon="3.83065">
        <ele>427</ele>
        <time>2026-05-21T11:47:11.000Z</time>
      </trkpt>
      <trkpt lat="43.77649" lon="3.83063">
        <ele>426.9</ele>
        <time>2026-05-21T11:47:12.000Z</time>
      </trkpt>
      <trkpt lat="43.77649" lon="3.83063">
        <ele>426.8</ele>
        <time>2026-05-21T11:47:13.000Z</time>
      </trkpt>
      <trkpt lat="43.77649" lon="3.83062">
        <ele>426.7</ele>
        <time>2026-05-21T11:47:14.000Z</time>
      </trkpt>
      <trkpt lat="43.77649" lon="3.83062">
        <ele>426.8</ele>
        <time>2026-05-21T11:47:15.000Z</time>
      </trkpt>
      <trkpt lat="43.77649" lon="3.83062">
        <ele>426.8</ele>
        <time>2026-05-21T11:47:16.000Z</time>
      </trkpt>
      <trkpt lat="43.77649" lon="3.83062">
        <ele>426.8</ele>
        <time>2026-05-21T11:47:17.000Z</time>
      </trkpt>
      <trkpt lat="43.77649" lon="3.83062">
        <ele>426.9</ele>
        <time>2026-05-21T11:47:18.000Z</time>
      </trkpt>
      <trkpt lat="43.77649" lon="3.83062">
        <ele>426.9</ele>
        <time>2026-05-21T11:47:19.000Z</time>
      </trkpt>
      <trkpt lat="43.77649" lon="3.83062">
        <ele>427</ele>
        <time>2026-05-21T11:47:20.000Z</time>
      </trkpt>
      <trkpt lat="43.77649" lon="3.83062">
        <ele>427</ele>
        <time>2026-05-21T11:47:21.000Z</time>
      </trkpt>
      <trkpt lat="43.77649" lon="3.83062">
        <ele>427.1</ele>
        <time>2026-05-21T11:47:22.000Z</time>
      </trkpt>
      <trkpt lat="43.77649" lon="3.83062">
        <ele>427.1</ele>
        <time>2026-05-21T11:47:23.000Z</time>
      </trkpt>
      <trkpt lat="43.77649" lon="3.83062">
        <ele>427.1</ele>
        <time>2026-05-21T11:47:24.000Z</time>
      </trkpt>
      <trkpt lat="43.77649" lon="3.83062">
        <ele>427.3</ele>
        <time>2026-05-21T11:47:25.000Z</time>
      </trkpt>
      <trkpt lat="43.77649" lon="3.83062">
        <ele>427.5</ele>
        <time>2026-05-21T11:47:26.000Z</time>
      </trkpt>
      <trkpt lat="43.77649" lon="3.83062">
        <ele>427.5</ele>
        <time>2026-05-21T11:47:27.000Z</time>
      </trkpt>
      <trkpt lat="43.77649" lon="3.83061">
        <ele>427.5</ele>
        <time>2026-05-21T11:47:28.000Z</time>
      </trkpt>
      <trkpt lat="43.77649" lon="3.83061">
        <ele>427.6</ele>
        <time>2026-05-21T11:47:29.000Z</time>
      </trkpt>
      <trkpt lat="43.77649" lon="3.83061">
        <ele>427.6</ele>
        <time>2026-05-21T11:47:30.000Z</time>
      </trkpt>
      <trkpt lat="43.77649" lon="3.83061">
        <ele>427.3</ele>
        <time>2026-05-21T11:47:31.000Z</time>
      </trkpt>
      <trkpt lat="43.77649" lon="3.83061">
        <ele>427.5</ele>
        <time>2026-05-21T11:47:32.000Z</time>
      </trkpt>
      <trkpt lat="43.77649" lon="3.83061">
        <ele>427.7</ele>
        <time>2026-05-21T11:47:33.000Z</time>
      </trkpt>
      <trkpt lat="43.77649" lon="3.83061">
        <ele>427.8</ele>
        <time>2026-05-21T11:47:34.000Z</time>
      </trkpt>
      <trkpt lat="43.77649" lon="3.83061">
        <ele>427.7</ele>
        <time>2026-05-21T11:47:35.000Z</time>
      </trkpt>
      <trkpt lat="43.77649" lon="3.83061">
        <ele>427.5</ele>
        <time>2026-05-21T11:47:36.000Z</time>
      </trkpt>
      <trkpt lat="43.77649" lon="3.83061">
        <ele>427.5</ele>
        <time>2026-05-21T11:47:37.000Z</time>
      </trkpt>
      <trkpt lat="43.77649" lon="3.83061">
        <ele>427.2</ele>
        <time>2026-05-21T11:47:38.000Z</time>
      </trkpt>
      <trkpt lat="43.77649" lon="3.83061">
        <ele>427.2</ele>
        <time>2026-05-21T11:47:39.000Z</time>
      </trkpt>
      <trkpt lat="43.77649" lon="3.83061">
        <ele>427.2</ele>
        <time>2026-05-21T11:47:40.000Z</time>
      </trkpt>
      <trkpt lat="43.77649" lon="3.83061">
        <ele>427.1</ele>
        <time>2026-05-21T11:47:41.000Z</time>
      </trkpt>
      <trkpt lat="43.77649" lon="3.8306">
        <ele>426.8</ele>
        <time>2026-05-21T11:47:42.000Z</time>
      </trkpt>
      <trkpt lat="43.77649" lon="3.8306">
        <ele>426.6</ele>
        <time>2026-05-21T11:47:43.000Z</time>
      </trkpt>
      <trkpt lat="43.77649" lon="3.8306">
        <ele>426.7</ele>
        <time>2026-05-21T11:47:44.000Z</time>
      </trkpt>
      <trkpt lat="43.77649" lon="3.8306">
        <ele>426.8</ele>
        <time>2026-05-21T11:47:45.000Z</time>
      </trkpt>
      <trkpt lat="43.77649" lon="3.8306">
        <ele>426.7</ele>
        <time>2026-05-21T11:47:46.000Z</time>
      </trkpt>
      <trkpt lat="43.77649" lon="3.83059">
        <ele>426.6</ele>
        <time>2026-05-21T11:47:47.000Z</time>
      </trkpt>
      <trkpt lat="43.77649" lon="3.83059">
        <ele>426.4</ele>
        <time>2026-05-21T11:47:48.000Z</time>
      </trkpt>
      <trkpt lat="43.77649" lon="3.83059">
        <ele>426.5</ele>
        <time>2026-05-21T11:47:49.000Z</time>
      </trkpt>
      <trkpt lat="43.77649" lon="3.83059">
        <ele>426.3</ele>
        <time>2026-05-21T11:47:50.000Z</time>
      </trkpt>
      <trkpt lat="43.77649" lon="3.83059">
        <ele>426.2</ele>
        <time>2026-05-21T11:47:51.000Z</time>
      </trkpt>
      <trkpt lat="43.77649" lon="3.83059">
        <ele>426.1</ele>
        <time>2026-05-21T11:47:52.000Z</time>
      </trkpt>
      <trkpt lat="43.77649" lon="3.83059">
        <ele>426</ele>
        <time>2026-05-21T11:47:53.000Z</time>
      </trkpt>
      <trkpt lat="43.77649" lon="3.83059">
        <ele>425.8</ele>
        <time>2026-05-21T11:47:54.000Z</time>
      </trkpt>
      <trkpt lat="43.77649" lon="3.83059">
        <ele>425.5</ele>
        <time>2026-05-21T11:47:55.000Z</time>
      </trkpt>
      <trkpt lat="43.77649" lon="3.83059">
        <ele>425.4</ele>
        <time>2026-05-21T11:47:56.000Z</time>
      </trkpt>
      <trkpt lat="43.77649" lon="3.83059">
        <ele>425.1</ele>
        <time>2026-05-21T11:47:57.000Z</time>
      </trkpt>
      <trkpt lat="43.77649" lon="3.83059">
        <ele>424.8</ele>
        <time>2026-05-21T11:47:58.000Z</time>
      </trkpt>
      <trkpt lat="43.77649" lon="3.83059">
        <ele>424.7</ele>
        <time>2026-05-21T11:47:59.000Z</time>
      </trkpt>
      <trkpt lat="43.77648" lon="3.83059">
        <ele>424.6</ele>
        <time>2026-05-21T11:48:00.000Z</time>
      </trkpt>
      <trkpt lat="43.77648" lon="3.83059">
        <ele>424.4</ele>
        <time>2026-05-21T11:48:01.000Z</time>
      </trkpt>
      <trkpt lat="43.77648" lon="3.83059">
        <ele>424.2</ele>
        <time>2026-05-21T11:48:02.000Z</time>
      </trkpt>
      <trkpt lat="43.77648" lon="3.83058">
        <ele>424.1</ele>
        <time>2026-05-21T11:48:03.000Z</time>
      </trkpt>
      <trkpt lat="43.77648" lon="3.83058">
        <ele>423.9</ele>
        <time>2026-05-21T11:48:04.000Z</time>
      </trkpt>
      <trkpt lat="43.77648" lon="3.83058">
        <ele>423.6</ele>
        <time>2026-05-21T11:48:05.000Z</time>
      </trkpt>
      <trkpt lat="43.77648" lon="3.83058">
        <ele>423.7</ele>
        <time>2026-05-21T11:48:06.000Z</time>
      </trkpt>
      <trkpt lat="43.77648" lon="3.83058">
        <ele>423.7</ele>
        <time>2026-05-21T11:48:07.000Z</time>
      </trkpt>
      <trkpt lat="43.77648" lon="3.83058">
        <ele>423.8</ele>
        <time>2026-05-21T11:48:08.000Z</time>
      </trkpt>
      <trkpt lat="43.77648" lon="3.83058">
        <ele>423.8</ele>
        <time>2026-05-21T11:48:09.000Z</time>
      </trkpt>
      <trkpt lat="43.77648" lon="3.83058">
        <ele>423.8</ele>
        <time>2026-05-21T11:48:10.000Z</time>
      </trkpt>
      <trkpt lat="43.77648" lon="3.83058">
        <ele>423.8</ele>
        <time>2026-05-21T11:48:11.000Z</time>
      </trkpt>
      <trkpt lat="43.77648" lon="3.83058">
        <ele>423.9</ele>
        <time>2026-05-21T11:48:12.000Z</time>
      </trkpt>
      <trkpt lat="43.77648" lon="3.83058">
        <ele>423.7</ele>
        <time>2026-05-21T11:48:13.000Z</time>
      </trkpt>
      <trkpt lat="43.77648" lon="3.83058">
        <ele>423.6</ele>
        <time>2026-05-21T11:48:14.000Z</time>
      </trkpt>
      <trkpt lat="43.77648" lon="3.83058">
        <ele>423.5</ele>
        <time>2026-05-21T11:48:15.000Z</time>
      </trkpt>
      <trkpt lat="43.77648" lon="3.83058">
        <ele>423.7</ele>
        <time>2026-05-21T11:48:16.000Z</time>
      </trkpt>
      <trkpt lat="43.77648" lon="3.83057">
        <ele>423.8</ele>
        <time>2026-05-21T11:48:17.000Z</time>
      </trkpt>
      <trkpt lat="43.77648" lon="3.83057">
        <ele>423.9</ele>
        <time>2026-05-21T11:48:18.000Z</time>
      </trkpt>
      <trkpt lat="43.77648" lon="3.83057">
        <ele>423.8</ele>
        <time>2026-05-21T11:48:19.000Z</time>
      </trkpt>
      <trkpt lat="43.77648" lon="3.83057">
        <ele>423.9</ele>
        <time>2026-05-21T11:48:20.000Z</time>
      </trkpt>
      <trkpt lat="43.77648" lon="3.83057">
        <ele>423.8</ele>
        <time>2026-05-21T11:48:21.000Z</time>
      </trkpt>
      <trkpt lat="43.77647" lon="3.83057">
        <ele>423.7</ele>
        <time>2026-05-21T11:48:22.000Z</time>
      </trkpt>
      <trkpt lat="43.77647" lon="3.83057">
        <ele>423.7</ele>
        <time>2026-05-21T11:48:23.000Z</time>
      </trkpt>
      <trkpt lat="43.77647" lon="3.83057">
        <ele>423.6</ele>
        <time>2026-05-21T11:48:24.000Z</time>
      </trkpt>
      <trkpt lat="43.77647" lon="3.83057">
        <ele>423.6</ele>
        <time>2026-05-21T11:48:25.000Z</time>
      </trkpt>
      <trkpt lat="43.77647" lon="3.83057">
        <ele>423.6</ele>
        <time>2026-05-21T11:48:26.000Z</time>
      </trkpt>
      <trkpt lat="43.77647" lon="3.83057">
        <ele>423.4</ele>
        <time>2026-05-21T11:48:27.000Z</time>
      </trkpt>
      <trkpt lat="43.77647" lon="3.83057">
        <ele>423.3</ele>
        <time>2026-05-21T11:48:28.000Z</time>
      </trkpt>
      <trkpt lat="43.77647" lon="3.83057">
        <ele>423.2</ele>
        <time>2026-05-21T11:48:29.000Z</time>
      </trkpt>
      <trkpt lat="43.77648" lon="3.83057">
        <ele>423.1</ele>
        <time>2026-05-21T11:48:30.000Z</time>
      </trkpt>
      <trkpt lat="43.77648" lon="3.83056">
        <ele>423.2</ele>
        <time>2026-05-21T11:48:31.000Z</time>
      </trkpt>
      <trkpt lat="43.77648" lon="3.83056">
        <ele>423.1</ele>
        <time>2026-05-21T11:48:32.000Z</time>
      </trkpt>
      <trkpt lat="43.77648" lon="3.83056">
        <ele>423.1</ele>
        <time>2026-05-21T11:48:33.000Z</time>
      </trkpt>
      <trkpt lat="43.77648" lon="3.83056">
        <ele>423.2</ele>
        <time>2026-05-21T11:48:34.000Z</time>
      </trkpt>
      <trkpt lat="43.77648" lon="3.83056">
        <ele>423.2</ele>
        <time>2026-05-21T11:48:35.000Z</time>
      </trkpt>
      <trkpt lat="43.77648" lon="3.83056">
        <ele>423.2</ele>
        <time>2026-05-21T11:48:36.000Z</time>
      </trkpt>
      <trkpt lat="43.77648" lon="3.83056">
        <ele>423.1</ele>
        <time>2026-05-21T11:48:37.000Z</time>
      </trkpt>
      <trkpt lat="43.77648" lon="3.83056">
        <ele>422.8</ele>
        <time>2026-05-21T11:48:38.000Z</time>
      </trkpt>
      <trkpt lat="43.77648" lon="3.83056">
        <ele>422.6</ele>
        <time>2026-05-21T11:48:39.000Z</time>
      </trkpt>
      <trkpt lat="43.77648" lon="3.83056">
        <ele>422.6</ele>
        <time>2026-05-21T11:48:40.000Z</time>
      </trkpt>
      <trkpt lat="43.77648" lon="3.83056">
        <ele>422.6</ele>
        <time>2026-05-21T11:48:41.000Z</time>
      </trkpt>
      <trkpt lat="43.77648" lon="3.83055">
        <ele>422.7</ele>
        <time>2026-05-21T11:48:42.000Z</time>
      </trkpt>
      <trkpt lat="43.77648" lon="3.83055">
        <ele>422.8</ele>
        <time>2026-05-21T11:48:43.000Z</time>
      </trkpt>
      <trkpt lat="43.77648" lon="3.83055">
        <ele>423</ele>
        <time>2026-05-21T11:48:44.000Z</time>
      </trkpt>
      <trkpt lat="43.77648" lon="3.83055">
        <ele>422.9</ele>
        <time>2026-05-21T11:48:45.000Z</time>
      </trkpt>
      <trkpt lat="43.77648" lon="3.83055">
        <ele>422.8</ele>
        <time>2026-05-21T11:48:46.000Z</time>
      </trkpt>
      <trkpt lat="43.77648" lon="3.83055">
        <ele>422.8</ele>
        <time>2026-05-21T11:48:47.000Z</time>
      </trkpt>
      <trkpt lat="43.77648" lon="3.83055">
        <ele>422.6</ele>
        <time>2026-05-21T11:48:48.000Z</time>
      </trkpt>
      <trkpt lat="43.77648" lon="3.83055">
        <ele>422.7</ele>
        <time>2026-05-21T11:48:49.000Z</time>
      </trkpt>
      <trkpt lat="43.77648" lon="3.83055">
        <ele>422.7</ele>
        <time>2026-05-21T11:48:50.000Z</time>
      </trkpt>
      <trkpt lat="43.77648" lon="3.83055">
        <ele>422.8</ele>
        <time>2026-05-21T11:48:51.000Z</time>
      </trkpt>
      <trkpt lat="43.77647" lon="3.83055">
        <ele>423.1</ele>
        <time>2026-05-21T11:48:52.000Z</time>
      </trkpt>
      <trkpt lat="43.77647" lon="3.83055">
        <ele>423.1</ele>
        <time>2026-05-21T11:48:53.000Z</time>
      </trkpt>
      <trkpt lat="43.77647" lon="3.83054">
        <ele>423</ele>
        <time>2026-05-21T11:48:54.000Z</time>
      </trkpt>
      <trkpt lat="43.77647" lon="3.83054">
        <ele>422.8</ele>
        <time>2026-05-21T11:48:55.000Z</time>
      </trkpt>
      <trkpt lat="43.77647" lon="3.83054">
        <ele>422.9</ele>
        <time>2026-05-21T11:48:56.000Z</time>
      </trkpt>
      <trkpt lat="43.77647" lon="3.83054">
        <ele>423</ele>
        <time>2026-05-21T11:48:57.000Z</time>
      </trkpt>
      <trkpt lat="43.77647" lon="3.83054">
        <ele>423</ele>
        <time>2026-05-21T11:48:58.000Z</time>
      </trkpt>
      <trkpt lat="43.77647" lon="3.83054">
        <ele>422.9</ele>
        <time>2026-05-21T11:48:59.000Z</time>
      </trkpt>
      <trkpt lat="43.77647" lon="3.83054">
        <ele>422.7</ele>
        <time>2026-05-21T11:49:00.000Z</time>
      </trkpt>
      <trkpt lat="43.77647" lon="3.83054">
        <ele>422.7</ele>
        <time>2026-05-21T11:49:01.000Z</time>
      </trkpt>
      <trkpt lat="43.77647" lon="3.83054">
        <ele>422.7</ele>
        <time>2026-05-21T11:49:02.000Z</time>
      </trkpt>
      <trkpt lat="43.77647" lon="3.83054">
        <ele>422.9</ele>
        <time>2026-05-21T11:49:03.000Z</time>
      </trkpt>
      <trkpt lat="43.77647" lon="3.83054">
        <ele>422.9</ele>
        <time>2026-05-21T11:49:04.000Z</time>
      </trkpt>
      <trkpt lat="43.77647" lon="3.83053">
        <ele>423</ele>
        <time>2026-05-21T11:49:05.000Z</time>
      </trkpt>
      <trkpt lat="43.77647" lon="3.83053">
        <ele>422.8</ele>
        <time>2026-05-21T11:49:06.000Z</time>
      </trkpt>
      <trkpt lat="43.77647" lon="3.83053">
        <ele>423</ele>
        <time>2026-05-21T11:49:07.000Z</time>
      </trkpt>
      <trkpt lat="43.77647" lon="3.83053">
        <ele>423.1</ele>
        <time>2026-05-21T11:49:08.000Z</time>
      </trkpt>
      <trkpt lat="43.77647" lon="3.83053">
        <ele>422.9</ele>
        <time>2026-05-21T11:49:09.000Z</time>
      </trkpt>
      <trkpt lat="43.77647" lon="3.83053">
        <ele>422.7</ele>
        <time>2026-05-21T11:49:10.000Z</time>
      </trkpt>
      <trkpt lat="43.77647" lon="3.83053">
        <ele>422.6</ele>
        <time>2026-05-21T11:49:11.000Z</time>
      </trkpt>
      <trkpt lat="43.77647" lon="3.83053">
        <ele>422.6</ele>
        <time>2026-05-21T11:49:12.000Z</time>
      </trkpt>
      <trkpt lat="43.77647" lon="3.83053">
        <ele>422.5</ele>
        <time>2026-05-21T11:49:13.000Z</time>
      </trkpt>
      <trkpt lat="43.77647" lon="3.83053">
        <ele>422.6</ele>
        <time>2026-05-21T11:49:14.000Z</time>
      </trkpt>
      <trkpt lat="43.77647" lon="3.83052">
        <ele>422.7</ele>
        <time>2026-05-21T11:49:15.000Z</time>
      </trkpt>
      <trkpt lat="43.77647" lon="3.83052">
        <ele>422.9</ele>
        <time>2026-05-21T11:49:16.000Z</time>
      </trkpt>
      <trkpt lat="43.77647" lon="3.83052">
        <ele>422.9</ele>
        <time>2026-05-21T11:49:17.000Z</time>
      </trkpt>
      <trkpt lat="43.77647" lon="3.83052">
        <ele>422.9</ele>
        <time>2026-05-21T11:49:18.000Z</time>
      </trkpt>
      <trkpt lat="43.77647" lon="3.83052">
        <ele>422.7</ele>
        <time>2026-05-21T11:49:19.000Z</time>
      </trkpt>
      <trkpt lat="43.77647" lon="3.83052">
        <ele>422.6</ele>
        <time>2026-05-21T11:49:20.000Z</time>
      </trkpt>
      <trkpt lat="43.77647" lon="3.83052">
        <ele>422.3</ele>
        <time>2026-05-21T11:49:21.000Z</time>
      </trkpt>
      <trkpt lat="43.77647" lon="3.83051">
        <ele>422</ele>
        <time>2026-05-21T11:49:22.000Z</time>
      </trkpt>
      <trkpt lat="43.77647" lon="3.83051">
        <ele>421.7</ele>
        <time>2026-05-21T11:49:23.000Z</time>
      </trkpt>
      <trkpt lat="43.77647" lon="3.83051">
        <ele>421.4</ele>
        <time>2026-05-21T11:49:24.000Z</time>
      </trkpt>
      <trkpt lat="43.77647" lon="3.83051">
        <ele>421.4</ele>
        <time>2026-05-21T11:49:25.000Z</time>
      </trkpt>
      <trkpt lat="43.77647" lon="3.83051">
        <ele>421.6</ele>
        <time>2026-05-21T11:49:26.000Z</time>
      </trkpt>
      <trkpt lat="43.77647" lon="3.83051">
        <ele>421.6</ele>
        <time>2026-05-21T11:49:27.000Z</time>
      </trkpt>
      <trkpt lat="43.77647" lon="3.83051">
        <ele>421.7</ele>
        <time>2026-05-21T11:49:28.000Z</time>
      </trkpt>
      <trkpt lat="43.77647" lon="3.83051">
        <ele>421.7</ele>
        <time>2026-05-21T11:49:29.000Z</time>
      </trkpt>
      <trkpt lat="43.77647" lon="3.83051">
        <ele>421.5</ele>
        <time>2026-05-21T11:49:30.000Z</time>
      </trkpt>
      <trkpt lat="43.77647" lon="3.8305">
        <ele>421.4</ele>
        <time>2026-05-21T11:49:31.000Z</time>
      </trkpt>
      <trkpt lat="43.77647" lon="3.83049">
        <ele>421.3</ele>
        <time>2026-05-21T11:49:32.000Z</time>
      </trkpt>
      <trkpt lat="43.77647" lon="3.83048">
        <ele>421.2</ele>
        <time>2026-05-21T11:49:33.000Z</time>
      </trkpt>
      <trkpt lat="43.77647" lon="3.83047">
        <ele>421.2</ele>
        <time>2026-05-21T11:49:34.000Z</time>
      </trkpt>
      <trkpt lat="43.77647" lon="3.83047">
        <ele>421.3</ele>
        <time>2026-05-21T11:49:35.000Z</time>
      </trkpt>
      <trkpt lat="43.77647" lon="3.83047">
        <ele>421.3</ele>
        <time>2026-05-21T11:49:36.000Z</time>
      </trkpt>
      <trkpt lat="43.77647" lon="3.83047">
        <ele>421.3</ele>
        <time>2026-05-21T11:49:37.000Z</time>
      </trkpt>
      <trkpt lat="43.77647" lon="3.83047">
        <ele>421.1</ele>
        <time>2026-05-21T11:49:38.000Z</time>
      </trkpt>
      <trkpt lat="43.77647" lon="3.83047">
        <ele>420.7</ele>
        <time>2026-05-21T11:49:39.000Z</time>
      </trkpt>
      <trkpt lat="43.77647" lon="3.83047">
        <ele>420.5</ele>
        <time>2026-05-21T11:49:40.000Z</time>
      </trkpt>
      <trkpt lat="43.77647" lon="3.83047">
        <ele>420.5</ele>
        <time>2026-05-21T11:49:41.000Z</time>
      </trkpt>
      <trkpt lat="43.77647" lon="3.83046">
        <ele>420.7</ele>
        <time>2026-05-21T11:49:42.000Z</time>
      </trkpt>
      <trkpt lat="43.77647" lon="3.83046">
        <ele>420.5</ele>
        <time>2026-05-21T11:49:43.000Z</time>
      </trkpt>
      <trkpt lat="43.77647" lon="3.83046">
        <ele>420.6</ele>
        <time>2026-05-21T11:49:44.000Z</time>
      </trkpt>
      <trkpt lat="43.77647" lon="3.83046">
        <ele>420.6</ele>
        <time>2026-05-21T11:49:45.000Z</time>
      </trkpt>
      <trkpt lat="43.77647" lon="3.83046">
        <ele>420.5</ele>
        <time>2026-05-21T11:49:46.000Z</time>
      </trkpt>
      <trkpt lat="43.77647" lon="3.83046">
        <ele>420.5</ele>
        <time>2026-05-21T11:49:47.000Z</time>
      </trkpt>
      <trkpt lat="43.77647" lon="3.83046">
        <ele>420.6</ele>
        <time>2026-05-21T11:49:48.000Z</time>
      </trkpt>
      <trkpt lat="43.77647" lon="3.83046">
        <ele>420.5</ele>
        <time>2026-05-21T11:49:49.000Z</time>
      </trkpt>
      <trkpt lat="43.77647" lon="3.83045">
        <ele>420.5</ele>
        <time>2026-05-21T11:49:50.000Z</time>
      </trkpt>
      <trkpt lat="43.77647" lon="3.83045">
        <ele>420.5</ele>
        <time>2026-05-21T11:49:51.000Z</time>
      </trkpt>
      <trkpt lat="43.77647" lon="3.83045">
        <ele>420.6</ele>
        <time>2026-05-21T11:49:52.000Z</time>
      </trkpt>
      <trkpt lat="43.77647" lon="3.83045">
        <ele>420.2</ele>
        <time>2026-05-21T11:49:53.000Z</time>
      </trkpt>
      <trkpt lat="43.77647" lon="3.83044">
        <ele>420.2</ele>
        <time>2026-05-21T11:49:54.000Z</time>
      </trkpt>
      <trkpt lat="43.77647" lon="3.83044">
        <ele>420.3</ele>
        <time>2026-05-21T11:49:55.000Z</time>
      </trkpt>
      <trkpt lat="43.77647" lon="3.83044">
        <ele>420.4</ele>
        <time>2026-05-21T11:49:56.000Z</time>
      </trkpt>
      <trkpt lat="43.77646" lon="3.83044">
        <ele>420.4</ele>
        <time>2026-05-21T11:49:57.000Z</time>
      </trkpt>
      <trkpt lat="43.77646" lon="3.83044">
        <ele>420.5</ele>
        <time>2026-05-21T11:49:58.000Z</time>
      </trkpt>
      <trkpt lat="43.77646" lon="3.83043">
        <ele>420.1</ele>
        <time>2026-05-21T11:49:59.000Z</time>
      </trkpt>
      <trkpt lat="43.77646" lon="3.83043">
        <ele>419.7</ele>
        <time>2026-05-21T11:50:00.000Z</time>
      </trkpt>
      <trkpt lat="43.77646" lon="3.83043">
        <ele>419.6</ele>
        <time>2026-05-21T11:50:01.000Z</time>
      </trkpt>
      <trkpt lat="43.77646" lon="3.83043">
        <ele>419.5</ele>
        <time>2026-05-21T11:50:02.000Z</time>
      </trkpt>
      <trkpt lat="43.77646" lon="3.83043">
        <ele>419.6</ele>
        <time>2026-05-21T11:50:03.000Z</time>
      </trkpt>
      <trkpt lat="43.77646" lon="3.83043">
        <ele>419.7</ele>
        <time>2026-05-21T11:50:04.000Z</time>
      </trkpt>
      <trkpt lat="43.77646" lon="3.83042">
        <ele>419.8</ele>
        <time>2026-05-21T11:50:05.000Z</time>
      </trkpt>
      <trkpt lat="43.77646" lon="3.83042">
        <ele>419.9</ele>
        <time>2026-05-21T11:50:06.000Z</time>
      </trkpt>
      <trkpt lat="43.77646" lon="3.83042">
        <ele>419.9</ele>
        <time>2026-05-21T11:50:07.000Z</time>
      </trkpt>
      <trkpt lat="43.77646" lon="3.83042">
        <ele>419.7</ele>
        <time>2026-05-21T11:50:08.000Z</time>
      </trkpt>
      <trkpt lat="43.77646" lon="3.83042">
        <ele>419.6</ele>
        <time>2026-05-21T11:50:09.000Z</time>
      </trkpt>
      <trkpt lat="43.77646" lon="3.83042">
        <ele>419.4</ele>
        <time>2026-05-21T11:50:10.000Z</time>
      </trkpt>
      <trkpt lat="43.77646" lon="3.83042">
        <ele>419.5</ele>
        <time>2026-05-21T11:50:11.000Z</time>
      </trkpt>
      <trkpt lat="43.77646" lon="3.83042">
        <ele>419.4</ele>
        <time>2026-05-21T11:50:12.000Z</time>
      </trkpt>
      <trkpt lat="43.77646" lon="3.83042">
        <ele>419.5</ele>
        <time>2026-05-21T11:50:13.000Z</time>
      </trkpt>
      <trkpt lat="43.77646" lon="3.83042">
        <ele>419.6</ele>
        <time>2026-05-21T11:50:14.000Z</time>
      </trkpt>
      <trkpt lat="43.77646" lon="3.83042">
        <ele>419.6</ele>
        <time>2026-05-21T11:50:15.000Z</time>
      </trkpt>
      <trkpt lat="43.77646" lon="3.83042">
        <ele>419.5</ele>
        <time>2026-05-21T11:50:16.000Z</time>
      </trkpt>
      <trkpt lat="43.77646" lon="3.83041">
        <ele>419.5</ele>
        <time>2026-05-21T11:50:17.000Z</time>
      </trkpt>
      <trkpt lat="43.77646" lon="3.83041">
        <ele>419.5</ele>
        <time>2026-05-21T11:50:18.000Z</time>
      </trkpt>
      <trkpt lat="43.77646" lon="3.83041">
        <ele>419.4</ele>
        <time>2026-05-21T11:50:19.000Z</time>
      </trkpt>
      <trkpt lat="43.77646" lon="3.83041">
        <ele>419.4</ele>
        <time>2026-05-21T11:50:20.000Z</time>
      </trkpt>
      <trkpt lat="43.77646" lon="3.83041">
        <ele>419.4</ele>
        <time>2026-05-21T11:50:21.000Z</time>
      </trkpt>
      <trkpt lat="43.77646" lon="3.83041">
        <ele>419.4</ele>
        <time>2026-05-21T11:50:22.000Z</time>
      </trkpt>
      <trkpt lat="43.77646" lon="3.83041">
        <ele>419.5</ele>
        <time>2026-05-21T11:50:23.000Z</time>
      </trkpt>
      <trkpt lat="43.77646" lon="3.83041">
        <ele>419.6</ele>
        <time>2026-05-21T11:50:24.000Z</time>
      </trkpt>
      <trkpt lat="43.77646" lon="3.83041">
        <ele>419.4</ele>
        <time>2026-05-21T11:50:25.000Z</time>
      </trkpt>
      <trkpt lat="43.77646" lon="3.8304">
        <ele>419.3</ele>
        <time>2026-05-21T11:50:26.000Z</time>
      </trkpt>
      <trkpt lat="43.77646" lon="3.8304">
        <ele>419.2</ele>
        <time>2026-05-21T11:50:27.000Z</time>
      </trkpt>
      <trkpt lat="43.77645" lon="3.8304">
        <ele>419.4</ele>
        <time>2026-05-21T11:50:28.000Z</time>
      </trkpt>
      <trkpt lat="43.77645" lon="3.83039">
        <ele>419.5</ele>
        <time>2026-05-21T11:50:29.000Z</time>
      </trkpt>
      <trkpt lat="43.77644" lon="3.83039">
        <ele>419.4</ele>
        <time>2026-05-21T11:50:30.000Z</time>
      </trkpt>
      <trkpt lat="43.77644" lon="3.83039">
        <ele>419.5</ele>
        <time>2026-05-21T11:50:31.000Z</time>
      </trkpt>
      <trkpt lat="43.77644" lon="3.83038">
        <ele>419.7</ele>
        <time>2026-05-21T11:50:32.000Z</time>
      </trkpt>
      <trkpt lat="43.77644" lon="3.83038">
        <ele>419.8</ele>
        <time>2026-05-21T11:50:33.000Z</time>
      </trkpt>
      <trkpt lat="43.77643" lon="3.83038">
        <ele>420</ele>
        <time>2026-05-21T11:50:34.000Z</time>
      </trkpt>
      <trkpt lat="43.77643" lon="3.83038">
        <ele>420.1</ele>
        <time>2026-05-21T11:50:35.000Z</time>
      </trkpt>
      <trkpt lat="43.77643" lon="3.83038">
        <ele>420.2</ele>
        <time>2026-05-21T11:50:36.000Z</time>
      </trkpt>
      <trkpt lat="43.77643" lon="3.83038">
        <ele>420.4</ele>
        <time>2026-05-21T11:50:37.000Z</time>
      </trkpt>
      <trkpt lat="43.77643" lon="3.83038">
        <ele>420.4</ele>
        <time>2026-05-21T11:50:38.000Z</time>
      </trkpt>
      <trkpt lat="43.77643" lon="3.83038">
        <ele>420.4</ele>
        <time>2026-05-21T11:50:39.000Z</time>
      </trkpt>
      <trkpt lat="43.77643" lon="3.83038">
        <ele>420.5</ele>
        <time>2026-05-21T11:50:40.000Z</time>
      </trkpt>
      <trkpt lat="43.77643" lon="3.83038">
        <ele>420.6</ele>
        <time>2026-05-21T11:50:41.000Z</time>
      </trkpt>
      <trkpt lat="43.77643" lon="3.83038">
        <ele>420.6</ele>
        <time>2026-05-21T11:50:42.000Z</time>
      </trkpt>
      <trkpt lat="43.77643" lon="3.83038">
        <ele>420.5</ele>
        <time>2026-05-21T11:50:43.000Z</time>
      </trkpt>
      <trkpt lat="43.77643" lon="3.83038">
        <ele>420.5</ele>
        <time>2026-05-21T11:50:44.000Z</time>
      </trkpt>
      <trkpt lat="43.77643" lon="3.83038">
        <ele>420.3</ele>
        <time>2026-05-21T11:50:46.000Z</time>
      </trkpt>
      <trkpt lat="43.77643" lon="3.83038">
        <ele>420.2</ele>
        <time>2026-05-21T11:50:47.000Z</time>
      </trkpt>
      <trkpt lat="43.77643" lon="3.83038">
        <ele>420.2</ele>
        <time>2026-05-21T11:50:48.000Z</time>
      </trkpt>
      <trkpt lat="43.77643" lon="3.83038">
        <ele>420.3</ele>
        <time>2026-05-21T11:50:49.000Z</time>
      </trkpt>
      <trkpt lat="43.77642" lon="3.83038">
        <ele>420.4</ele>
        <time>2026-05-21T11:50:50.000Z</time>
      </trkpt>
      <trkpt lat="43.77642" lon="3.83037">
        <ele>420.4</ele>
        <time>2026-05-21T11:50:51.000Z</time>
      </trkpt>
      <trkpt lat="43.77642" lon="3.83037">
        <ele>420.5</ele>
        <time>2026-05-21T11:50:52.000Z</time>
      </trkpt>
      <trkpt lat="43.77642" lon="3.83037">
        <ele>420.5</ele>
        <time>2026-05-21T11:50:53.000Z</time>
      </trkpt>
      <trkpt lat="43.77642" lon="3.83037">
        <ele>420.4</ele>
        <time>2026-05-21T11:50:54.000Z</time>
      </trkpt>
      <trkpt lat="43.77642" lon="3.83037">
        <ele>420.4</ele>
        <time>2026-05-21T11:50:55.000Z</time>
      </trkpt>
      <trkpt lat="43.77642" lon="3.83037">
        <ele>420.4</ele>
        <time>2026-05-21T11:50:56.000Z</time>
      </trkpt>
      <trkpt lat="43.77642" lon="3.83037">
        <ele>420.4</ele>
        <time>2026-05-21T11:50:57.000Z</time>
      </trkpt>
      <trkpt lat="43.77643" lon="3.83037">
        <ele>420.4</ele>
        <time>2026-05-21T11:50:58.000Z</time>
      </trkpt>
      <trkpt lat="43.77643" lon="3.83037">
        <ele>420.5</ele>
        <time>2026-05-21T11:50:59.000Z</time>
      </trkpt>
      <trkpt lat="43.77643" lon="3.83037">
        <ele>420.5</ele>
        <time>2026-05-21T11:51:00.000Z</time>
      </trkpt>
      <trkpt lat="43.77643" lon="3.83037">
        <ele>420.5</ele>
        <time>2026-05-21T11:51:01.000Z</time>
      </trkpt>
      <trkpt lat="43.77643" lon="3.83037">
        <ele>420.6</ele>
        <time>2026-05-21T11:51:02.000Z</time>
      </trkpt>
      <trkpt lat="43.77642" lon="3.83037">
        <ele>420.5</ele>
        <time>2026-05-21T11:51:03.000Z</time>
      </trkpt>
      <trkpt lat="43.77642" lon="3.83037">
        <ele>420.4</ele>
        <time>2026-05-21T11:51:04.000Z</time>
      </trkpt>
      <trkpt lat="43.77642" lon="3.83037">
        <ele>420.5</ele>
        <time>2026-05-21T11:51:05.000Z</time>
      </trkpt>
      <trkpt lat="43.77642" lon="3.83036">
        <ele>420.6</ele>
        <time>2026-05-21T11:51:06.000Z</time>
      </trkpt>
      <trkpt lat="43.77642" lon="3.83037">
        <ele>420.6</ele>
        <time>2026-05-21T11:51:07.000Z</time>
      </trkpt>
      <trkpt lat="43.77642" lon="3.83036">
        <ele>420.6</ele>
        <time>2026-05-21T11:51:08.000Z</time>
      </trkpt>
      <trkpt lat="43.77642" lon="3.83036">
        <ele>420.6</ele>
        <time>2026-05-21T11:51:09.000Z</time>
      </trkpt>
      <trkpt lat="43.77642" lon="3.83036">
        <ele>419.5</ele>
        <time>2026-05-21T11:51:10.000Z</time>
      </trkpt>
      <trkpt lat="43.77642" lon="3.83035">
        <ele>419.3</ele>
        <time>2026-05-21T11:51:11.000Z</time>
      </trkpt>
      <trkpt lat="43.77642" lon="3.83035">
        <ele>419.6</ele>
        <time>2026-05-21T11:51:12.000Z</time>
      </trkpt>
      <trkpt lat="43.77642" lon="3.83035">
        <ele>419.1</ele>
        <time>2026-05-21T11:51:13.000Z</time>
      </trkpt>
      <trkpt lat="43.77641" lon="3.83034">
        <ele>420.1</ele>
        <time>2026-05-21T11:51:14.000Z</time>
      </trkpt>
      <trkpt lat="43.77641" lon="3.83034">
        <ele>420.7</ele>
        <time>2026-05-21T11:51:15.000Z</time>
      </trkpt>
      <trkpt lat="43.77641" lon="3.83034">
        <ele>421.1</ele>
        <time>2026-05-21T11:51:16.000Z</time>
      </trkpt>
      <trkpt lat="43.77641" lon="3.83035">
        <ele>421.6</ele>
        <time>2026-05-21T11:51:17.000Z</time>
      </trkpt>
      <trkpt lat="43.77641" lon="3.83034">
        <ele>422.1</ele>
        <time>2026-05-21T11:51:18.000Z</time>
      </trkpt>
      <trkpt lat="43.77643" lon="3.83034">
        <ele>421.9</ele>
        <time>2026-05-21T11:51:19.000Z</time>
      </trkpt>
      <trkpt lat="43.77642" lon="3.83032">
        <ele>421.5</ele>
        <time>2026-05-21T11:51:20.000Z</time>
      </trkpt>
      <trkpt lat="43.77642" lon="3.83032">
        <ele>420.7</ele>
        <time>2026-05-21T11:51:21.000Z</time>
      </trkpt>
      <trkpt lat="43.77642" lon="3.83032">
        <ele>421.1</ele>
        <time>2026-05-21T11:51:22.000Z</time>
      </trkpt>
      <trkpt lat="43.77642" lon="3.83032">
        <ele>421.3</ele>
        <time>2026-05-21T11:51:23.000Z</time>
      </trkpt>
      <trkpt lat="43.77642" lon="3.83032">
        <ele>421.4</ele>
        <time>2026-05-21T11:51:24.000Z</time>
      </trkpt>
      <trkpt lat="43.77642" lon="3.83032">
        <ele>421.2</ele>
        <time>2026-05-21T11:51:25.000Z</time>
      </trkpt>
      <trkpt lat="43.77642" lon="3.83032">
        <ele>421.1</ele>
        <time>2026-05-21T11:51:26.000Z</time>
      </trkpt>
      <trkpt lat="43.77642" lon="3.83032">
        <ele>420.8</ele>
        <time>2026-05-21T11:51:27.000Z</time>
      </trkpt>
      <trkpt lat="43.77642" lon="3.83032">
        <ele>420.5</ele>
        <time>2026-05-21T11:51:29.000Z</time>
      </trkpt>
      <trkpt lat="43.77643" lon="3.83032">
        <ele>420.5</ele>
        <time>2026-05-21T11:51:30.000Z</time>
      </trkpt>
      <trkpt lat="43.77643" lon="3.83032">
        <ele>420.5</ele>
        <time>2026-05-21T11:51:31.000Z</time>
      </trkpt>
      <trkpt lat="43.77643" lon="3.83032">
        <ele>420.8</ele>
        <time>2026-05-21T11:51:32.000Z</time>
      </trkpt>
      <trkpt lat="43.77643" lon="3.83032">
        <ele>420.8</ele>
        <time>2026-05-21T11:51:33.000Z</time>
      </trkpt>
      <trkpt lat="43.77643" lon="3.83032">
        <ele>420.9</ele>
        <time>2026-05-21T11:51:34.000Z</time>
      </trkpt>
      <trkpt lat="43.77643" lon="3.83032">
        <ele>420.9</ele>
        <time>2026-05-21T11:51:35.000Z</time>
      </trkpt>
      <trkpt lat="43.77643" lon="3.83033">
        <ele>420.9</ele>
        <time>2026-05-21T11:51:36.000Z</time>
      </trkpt>
      <trkpt lat="43.77643" lon="3.83033">
        <ele>420.9</ele>
        <time>2026-05-21T11:51:37.000Z</time>
      </trkpt>
      <trkpt lat="43.77643" lon="3.83033">
        <ele>420.9</ele>
        <time>2026-05-21T11:51:38.000Z</time>
      </trkpt>
      <trkpt lat="43.77643" lon="3.83033">
        <ele>421</ele>
        <time>2026-05-21T11:51:39.000Z</time>
      </trkpt>
      <trkpt lat="43.77643" lon="3.83033">
        <ele>420.9</ele>
        <time>2026-05-21T11:51:40.000Z</time>
      </trkpt>
      <trkpt lat="43.77643" lon="3.83033">
        <ele>420.7</ele>
        <time>2026-05-21T11:51:41.000Z</time>
      </trkpt>
      <trkpt lat="43.77643" lon="3.83033">
        <ele>420.7</ele>
        <time>2026-05-21T11:51:42.000Z</time>
      </trkpt>
      <trkpt lat="43.77643" lon="3.83033">
        <ele>420.4</ele>
        <time>2026-05-21T11:51:43.000Z</time>
      </trkpt>
      <trkpt lat="43.77643" lon="3.83033">
        <ele>420.2</ele>
        <time>2026-05-21T11:51:44.000Z</time>
      </trkpt>
      <trkpt lat="43.77643" lon="3.83033">
        <ele>420</ele>
        <time>2026-05-21T11:51:45.000Z</time>
      </trkpt>
      <trkpt lat="43.77642" lon="3.83033">
        <ele>419.9</ele>
        <time>2026-05-21T11:51:46.000Z</time>
      </trkpt>
      <trkpt lat="43.77642" lon="3.83032">
        <ele>419.8</ele>
        <time>2026-05-21T11:51:47.000Z</time>
      </trkpt>
      <trkpt lat="43.77642" lon="3.83034">
        <ele>420</ele>
        <time>2026-05-21T11:51:48.000Z</time>
      </trkpt>
      <trkpt lat="43.77642" lon="3.83034">
        <ele>420.1</ele>
        <time>2026-05-21T11:51:49.000Z</time>
      </trkpt>
      <trkpt lat="43.77642" lon="3.83035">
        <ele>420</ele>
        <time>2026-05-21T11:51:50.000Z</time>
      </trkpt>
      <trkpt lat="43.77642" lon="3.83035">
        <ele>420</ele>
        <time>2026-05-21T11:51:51.000Z</time>
      </trkpt>
      <trkpt lat="43.77642" lon="3.83035">
        <ele>419.9</ele>
        <time>2026-05-21T11:51:52.000Z</time>
      </trkpt>
      <trkpt lat="43.77642" lon="3.83035">
        <ele>419.7</ele>
        <time>2026-05-21T11:51:53.000Z</time>
      </trkpt>
      <trkpt lat="43.77642" lon="3.83035">
        <ele>419.6</ele>
        <time>2026-05-21T11:51:54.000Z</time>
      </trkpt>
      <trkpt lat="43.77642" lon="3.83035">
        <ele>419.7</ele>
        <time>2026-05-21T11:51:55.000Z</time>
      </trkpt>
      <trkpt lat="43.77642" lon="3.83034">
        <ele>419.8</ele>
        <time>2026-05-21T11:51:56.000Z</time>
      </trkpt>
      <trkpt lat="43.77642" lon="3.83034">
        <ele>419.7</ele>
        <time>2026-05-21T11:51:57.000Z</time>
      </trkpt>
      <trkpt lat="43.77641" lon="3.83033">
        <ele>419.8</ele>
        <time>2026-05-21T11:51:58.000Z</time>
      </trkpt>
      <trkpt lat="43.77641" lon="3.83033">
        <ele>420</ele>
        <time>2026-05-21T11:51:59.000Z</time>
      </trkpt>
      <trkpt lat="43.77641" lon="3.83033">
        <ele>420.2</ele>
        <time>2026-05-21T11:52:00.000Z</time>
      </trkpt>
      <trkpt lat="43.77641" lon="3.83033">
        <ele>420.1</ele>
        <time>2026-05-21T11:52:01.000Z</time>
      </trkpt>
      <trkpt lat="43.77641" lon="3.83033">
        <ele>419.9</ele>
        <time>2026-05-21T11:52:02.000Z</time>
      </trkpt>
      <trkpt lat="43.77641" lon="3.83033">
        <ele>419.8</ele>
        <time>2026-05-21T11:52:03.000Z</time>
      </trkpt>
      <trkpt lat="43.77641" lon="3.83033">
        <ele>419.7</ele>
        <time>2026-05-21T11:52:04.000Z</time>
      </trkpt>
      <trkpt lat="43.77641" lon="3.83033">
        <ele>419.6</ele>
        <time>2026-05-21T11:52:05.000Z</time>
      </trkpt>
      <trkpt lat="43.77641" lon="3.83033">
        <ele>419.5</ele>
        <time>2026-05-21T11:52:06.000Z</time>
      </trkpt>
      <trkpt lat="43.77641" lon="3.83033">
        <ele>419.3</ele>
        <time>2026-05-21T11:52:07.000Z</time>
      </trkpt>
      <trkpt lat="43.77641" lon="3.83033">
        <ele>419.2</ele>
        <time>2026-05-21T11:52:09.000Z</time>
      </trkpt>
      <trkpt lat="43.77641" lon="3.83033">
        <ele>419.3</ele>
        <time>2026-05-21T11:52:10.000Z</time>
      </trkpt>
      <trkpt lat="43.77641" lon="3.83034">
        <ele>419.5</ele>
        <time>2026-05-21T11:52:11.000Z</time>
      </trkpt>
      <trkpt lat="43.7764" lon="3.83034">
        <ele>419.9</ele>
        <time>2026-05-21T11:52:12.000Z</time>
      </trkpt>
      <trkpt lat="43.7764" lon="3.83033">
        <ele>419.9</ele>
        <time>2026-05-21T11:52:13.000Z</time>
      </trkpt>
      <trkpt lat="43.77639" lon="3.83033">
        <ele>420</ele>
        <time>2026-05-21T11:52:14.000Z</time>
      </trkpt>
      <trkpt lat="43.77639" lon="3.83033">
        <ele>420.2</ele>
        <time>2026-05-21T11:52:15.000Z</time>
      </trkpt>
      <trkpt lat="43.77639" lon="3.83033">
        <ele>419.8</ele>
        <time>2026-05-21T11:52:16.000Z</time>
      </trkpt>
      <trkpt lat="43.77639" lon="3.83033">
        <ele>419.6</ele>
        <time>2026-05-21T11:52:17.000Z</time>
      </trkpt>
      <trkpt lat="43.77638" lon="3.83033">
        <ele>419.5</ele>
        <time>2026-05-21T11:52:18.000Z</time>
      </trkpt>
      <trkpt lat="43.77637" lon="3.83032">
        <ele>419.6</ele>
        <time>2026-05-21T11:52:19.000Z</time>
      </trkpt>
      <trkpt lat="43.77638" lon="3.83032">
        <ele>419.5</ele>
        <time>2026-05-21T11:52:20.000Z</time>
      </trkpt>
      <trkpt lat="43.77638" lon="3.83032">
        <ele>419.3</ele>
        <time>2026-05-21T11:52:21.000Z</time>
      </trkpt>
      <trkpt lat="43.77638" lon="3.83032">
        <ele>419.1</ele>
        <time>2026-05-21T11:52:22.000Z</time>
      </trkpt>
      <trkpt lat="43.77638" lon="3.83032">
        <ele>418.9</ele>
        <time>2026-05-21T11:52:23.000Z</time>
      </trkpt>
      <trkpt lat="43.77638" lon="3.83032">
        <ele>418.8</ele>
        <time>2026-05-21T11:52:24.000Z</time>
      </trkpt>
      <trkpt lat="43.77638" lon="3.83032">
        <ele>418.8</ele>
        <time>2026-05-21T11:52:25.000Z</time>
      </trkpt>
      <trkpt lat="43.77638" lon="3.83032">
        <ele>419.1</ele>
        <time>2026-05-21T11:52:26.000Z</time>
      </trkpt>
      <trkpt lat="43.77638" lon="3.83032">
        <ele>418.9</ele>
        <time>2026-05-21T11:52:27.000Z</time>
      </trkpt>
      <trkpt lat="43.77638" lon="3.83032">
        <ele>418.9</ele>
        <time>2026-05-21T11:52:28.000Z</time>
      </trkpt>
      <trkpt lat="43.77638" lon="3.83032">
        <ele>418.6</ele>
        <time>2026-05-21T11:52:29.000Z</time>
      </trkpt>
      <trkpt lat="43.77638" lon="3.83032">
        <ele>418.4</ele>
        <time>2026-05-21T11:52:30.000Z</time>
      </trkpt>
      <trkpt lat="43.77638" lon="3.83032">
        <ele>418.2</ele>
        <time>2026-05-21T11:52:31.000Z</time>
      </trkpt>
      <trkpt lat="43.77638" lon="3.83032">
        <ele>418</ele>
        <time>2026-05-21T11:52:32.000Z</time>
      </trkpt>
      <trkpt lat="43.77638" lon="3.83032">
        <ele>418.2</ele>
        <time>2026-05-21T11:52:33.000Z</time>
      </trkpt>
      <trkpt lat="43.77638" lon="3.83032">
        <ele>418.3</ele>
        <time>2026-05-21T11:52:34.000Z</time>
      </trkpt>
      <trkpt lat="43.77638" lon="3.83032">
        <ele>418.2</ele>
        <time>2026-05-21T11:52:35.000Z</time>
      </trkpt>
      <trkpt lat="43.77638" lon="3.83032">
        <ele>418.3</ele>
        <time>2026-05-21T11:52:36.000Z</time>
      </trkpt>
      <trkpt lat="43.77638" lon="3.83032">
        <ele>418.2</ele>
        <time>2026-05-21T11:52:37.000Z</time>
      </trkpt>
      <trkpt lat="43.77638" lon="3.83032">
        <ele>418</ele>
        <time>2026-05-21T11:52:38.000Z</time>
      </trkpt>
      <trkpt lat="43.77638" lon="3.83033">
        <ele>417.8</ele>
        <time>2026-05-21T11:52:39.000Z</time>
      </trkpt>
      <trkpt lat="43.77638" lon="3.83033">
        <ele>417.6</ele>
        <time>2026-05-21T11:52:40.000Z</time>
      </trkpt>
      <trkpt lat="43.77638" lon="3.83033">
        <ele>417.5</ele>
        <time>2026-05-21T11:52:41.000Z</time>
      </trkpt>
      <trkpt lat="43.77637" lon="3.83034">
        <ele>417.3</ele>
        <time>2026-05-21T11:52:42.000Z</time>
      </trkpt>
      <trkpt lat="43.77637" lon="3.83034">
        <ele>417.2</ele>
        <time>2026-05-21T11:52:43.000Z</time>
      </trkpt>
      <trkpt lat="43.77637" lon="3.83035">
        <ele>417.1</ele>
        <time>2026-05-21T11:52:44.000Z</time>
      </trkpt>
      <trkpt lat="43.77637" lon="3.83037">
        <ele>417.1</ele>
        <time>2026-05-21T11:52:45.000Z</time>
      </trkpt>
      <trkpt lat="43.77637" lon="3.83037">
        <ele>417.1</ele>
        <time>2026-05-21T11:52:46.000Z</time>
      </trkpt>
      <trkpt lat="43.77637" lon="3.83037">
        <ele>417</ele>
        <time>2026-05-21T11:52:47.000Z</time>
      </trkpt>
      <trkpt lat="43.77637" lon="3.83037">
        <ele>416.9</ele>
        <time>2026-05-21T11:52:48.000Z</time>
      </trkpt>
      <trkpt lat="43.77637" lon="3.83037">
        <ele>416.8</ele>
        <time>2026-05-21T11:52:49.000Z</time>
      </trkpt>
      <trkpt lat="43.77637" lon="3.83038">
        <ele>416.8</ele>
        <time>2026-05-21T11:52:50.000Z</time>
      </trkpt>
      <trkpt lat="43.77637" lon="3.83038">
        <ele>416.7</ele>
        <time>2026-05-21T11:52:51.000Z</time>
      </trkpt>
      <trkpt lat="43.77637" lon="3.83038">
        <ele>416.6</ele>
        <time>2026-05-21T11:52:52.000Z</time>
      </trkpt>
      <trkpt lat="43.77637" lon="3.83038">
        <ele>416.8</ele>
        <time>2026-05-21T11:52:53.000Z</time>
      </trkpt>
      <trkpt lat="43.77637" lon="3.83038">
        <ele>416.8</ele>
        <time>2026-05-21T11:52:54.000Z</time>
      </trkpt>
      <trkpt lat="43.77637" lon="3.83038">
        <ele>416.9</ele>
        <time>2026-05-21T11:52:55.000Z</time>
      </trkpt>
      <trkpt lat="43.77637" lon="3.83038">
        <ele>416.9</ele>
        <time>2026-05-21T11:52:56.000Z</time>
      </trkpt>
      <trkpt lat="43.77637" lon="3.83039">
        <ele>416.9</ele>
        <time>2026-05-21T11:52:57.000Z</time>
      </trkpt>
      <trkpt lat="43.77637" lon="3.83039">
        <ele>417</ele>
        <time>2026-05-21T11:52:58.000Z</time>
      </trkpt>
      <trkpt lat="43.77637" lon="3.83039">
        <ele>417.1</ele>
        <time>2026-05-21T11:52:59.000Z</time>
      </trkpt>
      <trkpt lat="43.77637" lon="3.83039">
        <ele>417.2</ele>
        <time>2026-05-21T11:53:00.000Z</time>
      </trkpt>
      <trkpt lat="43.77637" lon="3.83039">
        <ele>417.2</ele>
        <time>2026-05-21T11:53:01.000Z</time>
      </trkpt>
      <trkpt lat="43.77637" lon="3.83039">
        <ele>417.4</ele>
        <time>2026-05-21T11:53:02.000Z</time>
      </trkpt>
      <trkpt lat="43.77637" lon="3.83039">
        <ele>417.4</ele>
        <time>2026-05-21T11:53:03.000Z</time>
      </trkpt>
      <trkpt lat="43.77637" lon="3.83039">
        <ele>417.5</ele>
        <time>2026-05-21T11:53:04.000Z</time>
      </trkpt>
      <trkpt lat="43.77637" lon="3.83039">
        <ele>417.4</ele>
        <time>2026-05-21T11:53:05.000Z</time>
      </trkpt>
      <trkpt lat="43.77637" lon="3.83039">
        <ele>417.4</ele>
        <time>2026-05-21T11:53:06.000Z</time>
      </trkpt>
      <trkpt lat="43.77637" lon="3.83039">
        <ele>417.5</ele>
        <time>2026-05-21T11:53:07.000Z</time>
      </trkpt>
      <trkpt lat="43.77637" lon="3.83038">
        <ele>417.4</ele>
        <time>2026-05-21T11:53:08.000Z</time>
      </trkpt>
      <trkpt lat="43.77637" lon="3.83038">
        <ele>417.2</ele>
        <time>2026-05-21T11:53:09.000Z</time>
      </trkpt>
      <trkpt lat="43.77637" lon="3.83038">
        <ele>417.1</ele>
        <time>2026-05-21T11:53:10.000Z</time>
      </trkpt>
      <trkpt lat="43.77637" lon="3.83038">
        <ele>417.2</ele>
        <time>2026-05-21T11:53:11.000Z</time>
      </trkpt>
      <trkpt lat="43.77637" lon="3.83038">
        <ele>417.2</ele>
        <time>2026-05-21T11:53:12.000Z</time>
      </trkpt>
      <trkpt lat="43.77637" lon="3.83038">
        <ele>417.1</ele>
        <time>2026-05-21T11:53:13.000Z</time>
      </trkpt>
      <trkpt lat="43.77637" lon="3.83039">
        <ele>417.1</ele>
        <time>2026-05-21T11:53:14.000Z</time>
      </trkpt>
      <trkpt lat="43.77637" lon="3.83039">
        <ele>417.1</ele>
        <time>2026-05-21T11:53:15.000Z</time>
      </trkpt>
      <trkpt lat="43.77637" lon="3.83039">
        <ele>417.1</ele>
        <time>2026-05-21T11:53:16.000Z</time>
      </trkpt>
      <trkpt lat="43.77636" lon="3.83039">
        <ele>417.1</ele>
        <time>2026-05-21T11:53:17.000Z</time>
      </trkpt>
      <trkpt lat="43.77636" lon="3.83039">
        <ele>417.1</ele>
        <time>2026-05-21T11:53:18.000Z</time>
      </trkpt>
      <trkpt lat="43.77636" lon="3.83039">
        <ele>416.9</ele>
        <time>2026-05-21T11:53:19.000Z</time>
      </trkpt>
      <trkpt lat="43.77636" lon="3.83039">
        <ele>416.7</ele>
        <time>2026-05-21T11:53:20.000Z</time>
      </trkpt>
      <trkpt lat="43.77636" lon="3.83039">
        <ele>416.6</ele>
        <time>2026-05-21T11:53:21.000Z</time>
      </trkpt>
      <trkpt lat="43.77636" lon="3.83039">
        <ele>416.4</ele>
        <time>2026-05-21T11:53:22.000Z</time>
      </trkpt>
      <trkpt lat="43.77636" lon="3.83039">
        <ele>416.2</ele>
        <time>2026-05-21T11:53:23.000Z</time>
      </trkpt>
      <trkpt lat="43.77636" lon="3.83039">
        <ele>416</ele>
        <time>2026-05-21T11:53:24.000Z</time>
      </trkpt>
      <trkpt lat="43.77636" lon="3.83039">
        <ele>415.8</ele>
        <time>2026-05-21T11:53:25.000Z</time>
      </trkpt>
      <trkpt lat="43.77636" lon="3.83039">
        <ele>415.7</ele>
        <time>2026-05-21T11:53:26.000Z</time>
      </trkpt>
      <trkpt lat="43.77636" lon="3.8304">
        <ele>415.6</ele>
        <time>2026-05-21T11:53:27.000Z</time>
      </trkpt>
      <trkpt lat="43.77636" lon="3.8304">
        <ele>415.4</ele>
        <time>2026-05-21T11:53:28.000Z</time>
      </trkpt>
      <trkpt lat="43.77636" lon="3.8304">
        <ele>415.2</ele>
        <time>2026-05-21T11:53:29.000Z</time>
      </trkpt>
      <trkpt lat="43.77635" lon="3.8304">
        <ele>415</ele>
        <time>2026-05-21T11:53:30.000Z</time>
      </trkpt>
      <trkpt lat="43.77635" lon="3.8304">
        <ele>415</ele>
        <time>2026-05-21T11:53:31.000Z</time>
      </trkpt>
      <trkpt lat="43.77635" lon="3.83041">
        <ele>415.1</ele>
        <time>2026-05-21T11:53:32.000Z</time>
      </trkpt>
      <trkpt lat="43.77634" lon="3.83041">
        <ele>415</ele>
        <time>2026-05-21T11:53:33.000Z</time>
      </trkpt>
      <trkpt lat="43.77634" lon="3.83042">
        <ele>415</ele>
        <time>2026-05-21T11:53:34.000Z</time>
      </trkpt>
      <trkpt lat="43.77633" lon="3.83043">
        <ele>415</ele>
        <time>2026-05-21T11:53:35.000Z</time>
      </trkpt>
      <trkpt lat="43.77633" lon="3.83042">
        <ele>415.1</ele>
        <time>2026-05-21T11:53:36.000Z</time>
      </trkpt>
      <trkpt lat="43.77633" lon="3.83043">
        <ele>415.2</ele>
        <time>2026-05-21T11:53:37.000Z</time>
      </trkpt>
      <trkpt lat="43.77632" lon="3.83043">
        <ele>415.3</ele>
        <time>2026-05-21T11:53:38.000Z</time>
      </trkpt>
      <trkpt lat="43.77632" lon="3.83043">
        <ele>415.3</ele>
        <time>2026-05-21T11:53:39.000Z</time>
      </trkpt>
      <trkpt lat="43.77632" lon="3.83043">
        <ele>415.2</ele>
        <time>2026-05-21T11:53:40.000Z</time>
      </trkpt>
      <trkpt lat="43.77632" lon="3.83043">
        <ele>414.8</ele>
        <time>2026-05-21T11:53:41.000Z</time>
      </trkpt>
      <trkpt lat="43.77632" lon="3.83043">
        <ele>414.4</ele>
        <time>2026-05-21T11:53:42.000Z</time>
      </trkpt>
      <trkpt lat="43.77632" lon="3.83043">
        <ele>414.2</ele>
        <time>2026-05-21T11:53:43.000Z</time>
      </trkpt>
      <trkpt lat="43.77632" lon="3.83043">
        <ele>414</ele>
        <time>2026-05-21T11:53:44.000Z</time>
      </trkpt>
      <trkpt lat="43.77632" lon="3.83043">
        <ele>413.9</ele>
        <time>2026-05-21T11:53:45.000Z</time>
      </trkpt>
      <trkpt lat="43.77632" lon="3.83044">
        <ele>413.9</ele>
        <time>2026-05-21T11:53:46.000Z</time>
      </trkpt>
      <trkpt lat="43.77632" lon="3.83044">
        <ele>413.8</ele>
        <time>2026-05-21T11:53:47.000Z</time>
      </trkpt>
      <trkpt lat="43.77632" lon="3.83044">
        <ele>413.8</ele>
        <time>2026-05-21T11:53:48.000Z</time>
      </trkpt>
      <trkpt lat="43.77632" lon="3.83044">
        <ele>413.7</ele>
        <time>2026-05-21T11:53:49.000Z</time>
      </trkpt>
      <trkpt lat="43.77632" lon="3.83044">
        <ele>413.8</ele>
        <time>2026-05-21T11:53:50.000Z</time>
      </trkpt>
      <trkpt lat="43.77632" lon="3.83044">
        <ele>413.8</ele>
        <time>2026-05-21T11:53:51.000Z</time>
      </trkpt>
      <trkpt lat="43.77632" lon="3.83044">
        <ele>413.9</ele>
        <time>2026-05-21T11:53:52.000Z</time>
      </trkpt>
      <trkpt lat="43.77632" lon="3.83044">
        <ele>413.9</ele>
        <time>2026-05-21T11:53:53.000Z</time>
      </trkpt>
      <trkpt lat="43.77632" lon="3.83044">
        <ele>414</ele>
        <time>2026-05-21T11:53:54.000Z</time>
      </trkpt>
      <trkpt lat="43.77632" lon="3.83044">
        <ele>414.1</ele>
        <time>2026-05-21T11:53:55.000Z</time>
      </trkpt>
      <trkpt lat="43.77632" lon="3.83044">
        <ele>414.2</ele>
        <time>2026-05-21T11:53:56.000Z</time>
      </trkpt>
      <trkpt lat="43.77632" lon="3.83045">
        <ele>414.2</ele>
        <time>2026-05-21T11:53:57.000Z</time>
      </trkpt>
      <trkpt lat="43.77632" lon="3.83045">
        <ele>414.2</ele>
        <time>2026-05-21T11:53:58.000Z</time>
      </trkpt>
      <trkpt lat="43.77632" lon="3.83045">
        <ele>414.3</ele>
        <time>2026-05-21T11:53:59.000Z</time>
      </trkpt>
      <trkpt lat="43.77632" lon="3.83045">
        <ele>414.1</ele>
        <time>2026-05-21T11:54:00.000Z</time>
      </trkpt>
      <trkpt lat="43.77631" lon="3.83045">
        <ele>413.7</ele>
        <time>2026-05-21T11:54:01.000Z</time>
      </trkpt>
      <trkpt lat="43.77631" lon="3.83044">
        <ele>413.3</ele>
        <time>2026-05-21T11:54:02.000Z</time>
      </trkpt>
      <trkpt lat="43.77631" lon="3.83044">
        <ele>412.9</ele>
        <time>2026-05-21T11:54:03.000Z</time>
      </trkpt>
      <trkpt lat="43.77631" lon="3.83044">
        <ele>412.5</ele>
        <time>2026-05-21T11:54:04.000Z</time>
      </trkpt>
      <trkpt lat="43.7763" lon="3.83044">
        <ele>412.1</ele>
        <time>2026-05-21T11:54:05.000Z</time>
      </trkpt>
      <trkpt lat="43.7763" lon="3.83044">
        <ele>411.9</ele>
        <time>2026-05-21T11:54:06.000Z</time>
      </trkpt>
      <trkpt lat="43.7763" lon="3.83043">
        <ele>411.8</ele>
        <time>2026-05-21T11:54:07.000Z</time>
      </trkpt>
      <trkpt lat="43.77631" lon="3.83043">
        <ele>411.8</ele>
        <time>2026-05-21T11:54:08.000Z</time>
      </trkpt>
      <trkpt lat="43.77631" lon="3.83043">
        <ele>411.7</ele>
        <time>2026-05-21T11:54:09.000Z</time>
      </trkpt>
      <trkpt lat="43.77631" lon="3.83043">
        <ele>411.5</ele>
        <time>2026-05-21T11:54:10.000Z</time>
      </trkpt>
      <trkpt lat="43.77631" lon="3.83043">
        <ele>411.4</ele>
        <time>2026-05-21T11:54:11.000Z</time>
      </trkpt>
      <trkpt lat="43.77631" lon="3.83044">
        <ele>411.3</ele>
        <time>2026-05-21T11:54:12.000Z</time>
      </trkpt>
      <trkpt lat="43.77631" lon="3.83044">
        <ele>411.2</ele>
        <time>2026-05-21T11:54:13.000Z</time>
      </trkpt>
      <trkpt lat="43.77631" lon="3.83044">
        <ele>411.3</ele>
        <time>2026-05-21T11:54:14.000Z</time>
      </trkpt>
      <trkpt lat="43.77631" lon="3.83044">
        <ele>411.3</ele>
        <time>2026-05-21T11:54:15.000Z</time>
      </trkpt>
      <trkpt lat="43.77631" lon="3.83044">
        <ele>411.5</ele>
        <time>2026-05-21T11:54:16.000Z</time>
      </trkpt>
      <trkpt lat="43.77631" lon="3.83044">
        <ele>411.7</ele>
        <time>2026-05-21T11:54:17.000Z</time>
      </trkpt>
      <trkpt lat="43.77631" lon="3.83044">
        <ele>411.7</ele>
        <time>2026-05-21T11:54:18.000Z</time>
      </trkpt>
      <trkpt lat="43.77631" lon="3.83044">
        <ele>411.7</ele>
        <time>2026-05-21T11:54:19.000Z</time>
      </trkpt>
      <trkpt lat="43.77632" lon="3.83044">
        <ele>411.7</ele>
        <time>2026-05-21T11:54:20.000Z</time>
      </trkpt>
      <trkpt lat="43.77632" lon="3.83044">
        <ele>411.8</ele>
        <time>2026-05-21T11:54:21.000Z</time>
      </trkpt>
      <trkpt lat="43.77632" lon="3.83044">
        <ele>412</ele>
        <time>2026-05-21T11:54:22.000Z</time>
      </trkpt>
      <trkpt lat="43.77632" lon="3.83044">
        <ele>412.1</ele>
        <time>2026-05-21T11:54:23.000Z</time>
      </trkpt>
      <trkpt lat="43.77632" lon="3.83044">
        <ele>412.3</ele>
        <time>2026-05-21T11:54:24.000Z</time>
      </trkpt>
      <trkpt lat="43.77632" lon="3.83044">
        <ele>412.1</ele>
        <time>2026-05-21T11:54:25.000Z</time>
      </trkpt>
      <trkpt lat="43.77631" lon="3.83043">
        <ele>412.1</ele>
        <time>2026-05-21T11:54:26.000Z</time>
      </trkpt>
      <trkpt lat="43.77631" lon="3.83042">
        <ele>412</ele>
        <time>2026-05-21T11:54:27.000Z</time>
      </trkpt>
      <trkpt lat="43.7763" lon="3.83042">
        <ele>411.8</ele>
        <time>2026-05-21T11:54:28.000Z</time>
      </trkpt>
      <trkpt lat="43.7763" lon="3.83041">
        <ele>412</ele>
        <time>2026-05-21T11:54:29.000Z</time>
      </trkpt>
      <trkpt lat="43.77629" lon="3.83041">
        <ele>412</ele>
        <time>2026-05-21T11:54:30.000Z</time>
      </trkpt>
      <trkpt lat="43.77628" lon="3.8304">
        <ele>412.5</ele>
        <time>2026-05-21T11:54:31.000Z</time>
      </trkpt>
      <trkpt lat="43.77626" lon="3.83037">
        <ele>413.3</ele>
        <time>2026-05-21T11:54:33.000Z</time>
      </trkpt>
      <trkpt lat="43.77626" lon="3.83037">
        <ele>413.2</ele>
        <time>2026-05-21T11:54:34.000Z</time>
      </trkpt>
      <trkpt lat="43.77627" lon="3.83038">
        <ele>412.9</ele>
        <time>2026-05-21T11:54:35.000Z</time>
      </trkpt>
      <trkpt lat="43.77627" lon="3.83037">
        <ele>412.6</ele>
        <time>2026-05-21T11:54:36.000Z</time>
      </trkpt>
      <trkpt lat="43.77628" lon="3.83037">
        <ele>412.5</ele>
        <time>2026-05-21T11:54:37.000Z</time>
      </trkpt>
      <trkpt lat="43.77629" lon="3.83038">
        <ele>411.7</ele>
        <time>2026-05-21T11:54:38.000Z</time>
      </trkpt>
      <trkpt lat="43.7763" lon="3.83039">
        <ele>410.9</ele>
        <time>2026-05-21T11:54:39.000Z</time>
      </trkpt>
      <trkpt lat="43.7763" lon="3.83039">
        <ele>405.6</ele>
        <time>2026-05-21T11:54:40.000Z</time>
      </trkpt>
      <trkpt lat="43.7763" lon="3.83039">
        <ele>405.7</ele>
        <time>2026-05-21T11:54:41.000Z</time>
      </trkpt>
      <trkpt lat="43.7763" lon="3.8304">
        <ele>406.5</ele>
        <time>2026-05-21T11:54:43.000Z</time>
      </trkpt>
      <trkpt lat="43.7763" lon="3.8304">
        <ele>406.8</ele>
        <time>2026-05-21T11:54:44.000Z</time>
      </trkpt>
      <trkpt lat="43.7763" lon="3.8304">
        <ele>407.2</ele>
        <time>2026-05-21T11:54:45.000Z</time>
      </trkpt>
      <trkpt lat="43.7763" lon="3.83041">
        <ele>407.6</ele>
        <time>2026-05-21T11:54:46.000Z</time>
      </trkpt>
      <trkpt lat="43.77631" lon="3.83041">
        <ele>407.6</ele>
        <time>2026-05-21T11:54:47.000Z</time>
      </trkpt>
      <trkpt lat="43.77631" lon="3.83041">
        <ele>407.3</ele>
        <time>2026-05-21T11:54:48.000Z</time>
      </trkpt>
      <trkpt lat="43.77631" lon="3.83041">
        <ele>407.1</ele>
        <time>2026-05-21T11:54:49.000Z</time>
      </trkpt>
      <trkpt lat="43.77631" lon="3.83041">
        <ele>407</ele>
        <time>2026-05-21T11:54:50.000Z</time>
      </trkpt>
      <trkpt lat="43.77631" lon="3.83041">
        <ele>406.6</ele>
        <time>2026-05-21T11:54:51.000Z</time>
      </trkpt>
      <trkpt lat="43.77631" lon="3.83041">
        <ele>406.4</ele>
        <time>2026-05-21T11:54:52.000Z</time>
      </trkpt>
      <trkpt lat="43.77631" lon="3.83041">
        <ele>406</ele>
        <time>2026-05-21T11:54:53.000Z</time>
      </trkpt>
      <trkpt lat="43.77631" lon="3.83041">
        <ele>405.7</ele>
        <time>2026-05-21T11:54:54.000Z</time>
      </trkpt>
      <trkpt lat="43.77631" lon="3.83041">
        <ele>405.5</ele>
        <time>2026-05-21T11:54:55.000Z</time>
      </trkpt>
      <trkpt lat="43.77631" lon="3.83041">
        <ele>405.4</ele>
        <time>2026-05-21T11:54:56.000Z</time>
      </trkpt>
      <trkpt lat="43.77631" lon="3.83041">
        <ele>405.3</ele>
        <time>2026-05-21T11:54:57.000Z</time>
      </trkpt>
      <trkpt lat="43.77631" lon="3.83041">
        <ele>405.3</ele>
        <time>2026-05-21T11:54:58.000Z</time>
      </trkpt>
      <trkpt lat="43.77631" lon="3.83041">
        <ele>405.4</ele>
        <time>2026-05-21T11:54:59.000Z</time>
      </trkpt>
      <trkpt lat="43.77631" lon="3.83041">
        <ele>405.5</ele>
        <time>2026-05-21T11:55:00.000Z</time>
      </trkpt>
      <trkpt lat="43.77631" lon="3.83041">
        <ele>405.7</ele>
        <time>2026-05-21T11:55:01.000Z</time>
      </trkpt>
      <trkpt lat="43.77631" lon="3.83041">
        <ele>405.8</ele>
        <time>2026-05-21T11:55:02.000Z</time>
      </trkpt>
      <trkpt lat="43.77631" lon="3.83041">
        <ele>405.9</ele>
        <time>2026-05-21T11:55:03.000Z</time>
      </trkpt>
      <trkpt lat="43.77631" lon="3.83041">
        <ele>405.8</ele>
        <time>2026-05-21T11:55:04.000Z</time>
      </trkpt>
      <trkpt lat="43.77631" lon="3.83041">
        <ele>405.9</ele>
        <time>2026-05-21T11:55:05.000Z</time>
      </trkpt>
      <trkpt lat="43.77631" lon="3.83041">
        <ele>405.9</ele>
        <time>2026-05-21T11:55:06.000Z</time>
      </trkpt>
      <trkpt lat="43.77631" lon="3.83041">
        <ele>405.8</ele>
        <time>2026-05-21T11:55:07.000Z</time>
      </trkpt>
      <trkpt lat="43.77631" lon="3.8304">
        <ele>405.6</ele>
        <time>2026-05-21T11:55:08.000Z</time>
      </trkpt>
      <trkpt lat="43.77631" lon="3.83039">
        <ele>405.6</ele>
        <time>2026-05-21T11:55:09.000Z</time>
      </trkpt>
      <trkpt lat="43.77631" lon="3.83038">
        <ele>405.6</ele>
        <time>2026-05-21T11:55:10.000Z</time>
      </trkpt>
      <trkpt lat="43.77631" lon="3.83038">
        <ele>405.5</ele>
        <time>2026-05-21T11:55:11.000Z</time>
      </trkpt>
      <trkpt lat="43.77631" lon="3.83038">
        <ele>405.2</ele>
        <time>2026-05-21T11:55:12.000Z</time>
      </trkpt>
      <trkpt lat="43.77631" lon="3.83038">
        <ele>405</ele>
        <time>2026-05-21T11:55:13.000Z</time>
      </trkpt>
      <trkpt lat="43.77631" lon="3.83038">
        <ele>404.8</ele>
        <time>2026-05-21T11:55:14.000Z</time>
      </trkpt>
      <trkpt lat="43.77631" lon="3.83038">
        <ele>404.6</ele>
        <time>2026-05-21T11:55:15.000Z</time>
      </trkpt>
      <trkpt lat="43.77631" lon="3.83037">
        <ele>404.5</ele>
        <time>2026-05-21T11:55:16.000Z</time>
      </trkpt>
      <trkpt lat="43.77631" lon="3.83037">
        <ele>404.3</ele>
        <time>2026-05-21T11:55:17.000Z</time>
      </trkpt>
      <trkpt lat="43.77631" lon="3.83036">
        <ele>404.1</ele>
        <time>2026-05-21T11:55:18.000Z</time>
      </trkpt>
      <trkpt lat="43.77631" lon="3.83036">
        <ele>404</ele>
        <time>2026-05-21T11:55:19.000Z</time>
      </trkpt>
      <trkpt lat="43.77631" lon="3.83035">
        <ele>403.9</ele>
        <time>2026-05-21T11:55:20.000Z</time>
      </trkpt>
      <trkpt lat="43.77632" lon="3.83035">
        <ele>403.5</ele>
        <time>2026-05-21T11:55:21.000Z</time>
      </trkpt>
      <trkpt lat="43.77632" lon="3.83035">
        <ele>403.4</ele>
        <time>2026-05-21T11:55:22.000Z</time>
      </trkpt>
      <trkpt lat="43.77632" lon="3.83036">
        <ele>403.2</ele>
        <time>2026-05-21T11:55:23.000Z</time>
      </trkpt>
      <trkpt lat="43.77631" lon="3.83036">
        <ele>402.8</ele>
        <time>2026-05-21T11:55:24.000Z</time>
      </trkpt>
      <trkpt lat="43.77631" lon="3.83036">
        <ele>402.8</ele>
        <time>2026-05-21T11:55:25.000Z</time>
      </trkpt>
      <trkpt lat="43.7763" lon="3.83037">
        <ele>402.9</ele>
        <time>2026-05-21T11:55:26.000Z</time>
      </trkpt>
      <trkpt lat="43.77629" lon="3.83037">
        <ele>403</ele>
        <time>2026-05-21T11:55:27.000Z</time>
      </trkpt>
      <trkpt lat="43.77629" lon="3.83038">
        <ele>403.7</ele>
        <time>2026-05-21T11:55:28.000Z</time>
      </trkpt>
      <trkpt lat="43.77629" lon="3.83038">
        <ele>403.8</ele>
        <time>2026-05-21T11:55:29.000Z</time>
      </trkpt>
      <trkpt lat="43.77629" lon="3.83037">
        <ele>403.8</ele>
        <time>2026-05-21T11:55:30.000Z</time>
      </trkpt>
      <trkpt lat="43.77629" lon="3.83036">
        <ele>403.8</ele>
        <time>2026-05-21T11:55:31.000Z</time>
      </trkpt>
      <trkpt lat="43.77629" lon="3.83035">
        <ele>403.7</ele>
        <time>2026-05-21T11:55:32.000Z</time>
      </trkpt>
      <trkpt lat="43.77629" lon="3.83035">
        <ele>403.8</ele>
        <time>2026-05-21T11:55:33.000Z</time>
      </trkpt>
      <trkpt lat="43.7763" lon="3.83034">
        <ele>403.3</ele>
        <time>2026-05-21T11:55:35.000Z</time>
      </trkpt>
      <trkpt lat="43.77631" lon="3.83033">
        <ele>403.2</ele>
        <time>2026-05-21T11:55:36.000Z</time>
      </trkpt>
      <trkpt lat="43.77631" lon="3.83034">
        <ele>403.2</ele>
        <time>2026-05-21T11:55:37.000Z</time>
      </trkpt>
      <trkpt lat="43.77631" lon="3.83033">
        <ele>403.1</ele>
        <time>2026-05-21T11:55:38.000Z</time>
      </trkpt>
      <trkpt lat="43.77631" lon="3.83033">
        <ele>403</ele>
        <time>2026-05-21T11:55:39.000Z</time>
      </trkpt>
      <trkpt lat="43.77631" lon="3.83033">
        <ele>403</ele>
        <time>2026-05-21T11:55:40.000Z</time>
      </trkpt>
      <trkpt lat="43.77631" lon="3.83033">
        <ele>403.2</ele>
        <time>2026-05-21T11:55:41.000Z</time>
      </trkpt>
      <trkpt lat="43.77631" lon="3.83033">
        <ele>403.3</ele>
        <time>2026-05-21T11:55:42.000Z</time>
      </trkpt>
      <trkpt lat="43.77631" lon="3.83033">
        <ele>403.4</ele>
        <time>2026-05-21T11:55:43.000Z</time>
      </trkpt>
      <trkpt lat="43.77631" lon="3.83033">
        <ele>403.4</ele>
        <time>2026-05-21T11:55:44.000Z</time>
      </trkpt>
      <trkpt lat="43.77631" lon="3.83033">
        <ele>403.2</ele>
        <time>2026-05-21T11:55:45.000Z</time>
      </trkpt>
      <trkpt lat="43.77631" lon="3.83033">
        <ele>403.1</ele>
        <time>2026-05-21T11:55:46.000Z</time>
      </trkpt>
      <trkpt lat="43.77631" lon="3.83033">
        <ele>402.9</ele>
        <time>2026-05-21T11:55:47.000Z</time>
      </trkpt>
      <trkpt lat="43.77631" lon="3.83033">
        <ele>402.7</ele>
        <time>2026-05-21T11:55:48.000Z</time>
      </trkpt>
      <trkpt lat="43.77631" lon="3.83033">
        <ele>402.6</ele>
        <time>2026-05-21T11:55:49.000Z</time>
      </trkpt>
      <trkpt lat="43.77631" lon="3.83033">
        <ele>402.7</ele>
        <time>2026-05-21T11:55:50.000Z</time>
      </trkpt>
      <trkpt lat="43.77631" lon="3.83033">
        <ele>402.6</ele>
        <time>2026-05-21T11:55:51.000Z</time>
      </trkpt>
      <trkpt lat="43.77631" lon="3.83033">
        <ele>402.4</ele>
        <time>2026-05-21T11:55:52.000Z</time>
      </trkpt>
      <trkpt lat="43.77631" lon="3.83033">
        <ele>402.3</ele>
        <time>2026-05-21T11:55:53.000Z</time>
      </trkpt>
      <trkpt lat="43.77631" lon="3.83033">
        <ele>402.3</ele>
        <time>2026-05-21T11:55:54.000Z</time>
      </trkpt>
      <trkpt lat="43.77631" lon="3.83033">
        <ele>402.2</ele>
        <time>2026-05-21T11:55:55.000Z</time>
      </trkpt>
      <trkpt lat="43.77632" lon="3.83032">
        <ele>402.4</ele>
        <time>2026-05-21T11:55:56.000Z</time>
      </trkpt>
      <trkpt lat="43.77633" lon="3.8303">
        <ele>402.6</ele>
        <time>2026-05-21T11:55:57.000Z</time>
      </trkpt>
      <trkpt lat="43.77635" lon="3.8303">
        <ele>402.5</ele>
        <time>2026-05-21T11:55:58.000Z</time>
      </trkpt>
      <trkpt lat="43.77635" lon="3.8303">
        <ele>402.4</ele>
        <time>2026-05-21T11:55:59.000Z</time>
      </trkpt>
      <trkpt lat="43.77635" lon="3.8303">
        <ele>402.6</ele>
        <time>2026-05-21T11:56:00.000Z</time>
      </trkpt>
      <trkpt lat="43.77635" lon="3.8303">
        <ele>402.6</ele>
        <time>2026-05-21T11:56:01.000Z</time>
      </trkpt>
      <trkpt lat="43.77635" lon="3.8303">
        <ele>402.6</ele>
        <time>2026-05-21T11:56:02.000Z</time>
      </trkpt>
      <trkpt lat="43.77635" lon="3.8303">
        <ele>402.7</ele>
        <time>2026-05-21T11:56:03.000Z</time>
      </trkpt>
      <trkpt lat="43.77635" lon="3.8303">
        <ele>402.7</ele>
        <time>2026-05-21T11:56:04.000Z</time>
      </trkpt>
      <trkpt lat="43.77635" lon="3.8303">
        <ele>402.6</ele>
        <time>2026-05-21T11:56:05.000Z</time>
      </trkpt>
      <trkpt lat="43.77634" lon="3.83029">
        <ele>402.4</ele>
        <time>2026-05-21T11:56:06.000Z</time>
      </trkpt>
      <trkpt lat="43.77634" lon="3.83028">
        <ele>402.2</ele>
        <time>2026-05-21T11:56:07.000Z</time>
      </trkpt>
      <trkpt lat="43.77634" lon="3.83028">
        <ele>402</ele>
        <time>2026-05-21T11:56:08.000Z</time>
      </trkpt>
      <trkpt lat="43.77633" lon="3.83028">
        <ele>402</ele>
        <time>2026-05-21T11:56:09.000Z</time>
      </trkpt>
      <trkpt lat="43.77633" lon="3.83028">
        <ele>401.9</ele>
        <time>2026-05-21T11:56:10.000Z</time>
      </trkpt>
      <trkpt lat="43.77633" lon="3.83027">
        <ele>401.9</ele>
        <time>2026-05-21T11:56:11.000Z</time>
      </trkpt>
      <trkpt lat="43.77633" lon="3.83027">
        <ele>401.9</ele>
        <time>2026-05-21T11:56:12.999Z</time>
      </trkpt>
      <trkpt lat="43.77633" lon="3.83027">
        <ele>401.9</ele>
        <time>2026-05-21T11:56:13.999Z</time>
      </trkpt>
      <trkpt lat="43.77633" lon="3.83027">
        <ele>401.9</ele>
        <time>2026-05-21T11:56:14.999Z</time>
      </trkpt>
      <trkpt lat="43.77633" lon="3.83027">
        <ele>402</ele>
        <time>2026-05-21T11:56:15.999Z</time>
      </trkpt>
      <trkpt lat="43.77633" lon="3.83026">
        <ele>401.9</ele>
        <time>2026-05-21T11:56:16.999Z</time>
      </trkpt>
      <trkpt lat="43.77633" lon="3.83026">
        <ele>401.9</ele>
        <time>2026-05-21T11:56:17.999Z</time>
      </trkpt>
      <trkpt lat="43.77633" lon="3.83026">
        <ele>401.5</ele>
        <time>2026-05-21T11:56:18.999Z</time>
      </trkpt>
      <trkpt lat="43.77633" lon="3.83026">
        <ele>401.2</ele>
        <time>2026-05-21T11:56:19.999Z</time>
      </trkpt>
      <trkpt lat="43.77633" lon="3.83026">
        <ele>401.2</ele>
        <time>2026-05-21T11:56:20.999Z</time>
      </trkpt>
      <trkpt lat="43.77633" lon="3.83026">
        <ele>401</ele>
        <time>2026-05-21T11:56:21.999Z</time>
      </trkpt>
      <trkpt lat="43.77633" lon="3.83026">
        <ele>400.9</ele>
        <time>2026-05-21T11:56:22.999Z</time>
      </trkpt>
      <trkpt lat="43.77633" lon="3.83026">
        <ele>400.7</ele>
        <time>2026-05-21T11:56:23.999Z</time>
      </trkpt>
      <trkpt lat="43.77633" lon="3.83026">
        <ele>400.6</ele>
        <time>2026-05-21T11:56:24.999Z</time>
      </trkpt>
      <trkpt lat="43.77632" lon="3.83026">
        <ele>400.7</ele>
        <time>2026-05-21T11:56:25.999Z</time>
      </trkpt>
      <trkpt lat="43.77632" lon="3.83026">
        <ele>400.8</ele>
        <time>2026-05-21T11:56:26.999Z</time>
      </trkpt>
      <trkpt lat="43.77632" lon="3.83026">
        <ele>401.1</ele>
        <time>2026-05-21T11:56:27.999Z</time>
      </trkpt>
      <trkpt lat="43.77632" lon="3.83026">
        <ele>401</ele>
        <time>2026-05-21T11:56:28.999Z</time>
      </trkpt>
      <trkpt lat="43.77632" lon="3.83025">
        <ele>400.9</ele>
        <time>2026-05-21T11:56:29.999Z</time>
      </trkpt>
      <trkpt lat="43.77632" lon="3.83026">
        <ele>401.1</ele>
        <time>2026-05-21T11:56:30.999Z</time>
      </trkpt>
      <trkpt lat="43.77632" lon="3.83026">
        <ele>401.2</ele>
        <time>2026-05-21T11:56:31.999Z</time>
      </trkpt>
      <trkpt lat="43.77632" lon="3.83026">
        <ele>401.2</ele>
        <time>2026-05-21T11:56:32.999Z</time>
      </trkpt>
      <trkpt lat="43.77632" lon="3.83026">
        <ele>401.2</ele>
        <time>2026-05-21T11:56:33.999Z</time>
      </trkpt>
      <trkpt lat="43.77632" lon="3.83026">
        <ele>401.2</ele>
        <time>2026-05-21T11:56:34.999Z</time>
      </trkpt>
      <trkpt lat="43.77632" lon="3.83026">
        <ele>401.3</ele>
        <time>2026-05-21T11:56:35.999Z</time>
      </trkpt>
      <trkpt lat="43.77632" lon="3.83026">
        <ele>401.4</ele>
        <time>2026-05-21T11:56:36.999Z</time>
      </trkpt>
      <trkpt lat="43.77632" lon="3.83026">
        <ele>401.6</ele>
        <time>2026-05-21T11:56:37.999Z</time>
      </trkpt>
      <trkpt lat="43.77632" lon="3.83026">
        <ele>401.7</ele>
        <time>2026-05-21T11:56:38.999Z</time>
      </trkpt>
      <trkpt lat="43.77632" lon="3.83026">
        <ele>401.5</ele>
        <time>2026-05-21T11:56:39.999Z</time>
      </trkpt>
      <trkpt lat="43.77632" lon="3.83026">
        <ele>401.6</ele>
        <time>2026-05-21T11:56:40.999Z</time>
      </trkpt>
      <trkpt lat="43.77632" lon="3.83026">
        <ele>401.7</ele>
        <time>2026-05-21T11:56:41.999Z</time>
      </trkpt>
      <trkpt lat="43.77632" lon="3.83026">
        <ele>401.7</ele>
        <time>2026-05-21T11:56:42.999Z</time>
      </trkpt>
      <trkpt lat="43.77632" lon="3.83026">
        <ele>401.8</ele>
        <time>2026-05-21T11:56:43.999Z</time>
      </trkpt>
      <trkpt lat="43.77632" lon="3.83026">
        <ele>401.9</ele>
        <time>2026-05-21T11:56:44.999Z</time>
      </trkpt>
      <trkpt lat="43.77632" lon="3.83026">
        <ele>401.9</ele>
        <time>2026-05-21T11:56:45.999Z</time>
      </trkpt>
      <trkpt lat="43.77632" lon="3.83026">
        <ele>401.7</ele>
        <time>2026-05-21T11:56:46.999Z</time>
      </trkpt>
      <trkpt lat="43.77632" lon="3.83026">
        <ele>401.7</ele>
        <time>2026-05-21T11:56:47.999Z</time>
      </trkpt>
      <trkpt lat="43.77632" lon="3.83026">
        <ele>401.9</ele>
        <time>2026-05-21T11:56:48.999Z</time>
      </trkpt>
      <trkpt lat="43.77632" lon="3.83026">
        <ele>401.8</ele>
        <time>2026-05-21T11:56:49.999Z</time>
      </trkpt>
      <trkpt lat="43.77632" lon="3.83026">
        <ele>401.7</ele>
        <time>2026-05-21T11:56:50.999Z</time>
      </trkpt>
      <trkpt lat="43.77631" lon="3.83026">
        <ele>401.6</ele>
        <time>2026-05-21T11:56:51.999Z</time>
      </trkpt>
      <trkpt lat="43.77631" lon="3.83026">
        <ele>401.8</ele>
        <time>2026-05-21T11:56:52.999Z</time>
      </trkpt>
      <trkpt lat="43.77631" lon="3.83026">
        <ele>401.9</ele>
        <time>2026-05-21T11:56:53.999Z</time>
      </trkpt>
      <trkpt lat="43.77631" lon="3.83025">
        <ele>401.7</ele>
        <time>2026-05-21T11:56:54.999Z</time>
      </trkpt>
      <trkpt lat="43.77632" lon="3.83025">
        <ele>401.5</ele>
        <time>2026-05-21T11:56:55.999Z</time>
      </trkpt>
      <trkpt lat="43.77632" lon="3.83025">
        <ele>401.3</ele>
        <time>2026-05-21T11:56:56.999Z</time>
      </trkpt>
      <trkpt lat="43.77631" lon="3.83023">
        <ele>400.7</ele>
        <time>2026-05-21T11:56:57.999Z</time>
      </trkpt>
      <trkpt lat="43.77631" lon="3.83022">
        <ele>400.3</ele>
        <time>2026-05-21T11:56:58.999Z</time>
      </trkpt>
      <trkpt lat="43.7763" lon="3.8302">
        <ele>399.9</ele>
        <time>2026-05-21T11:56:59.999Z</time>
      </trkpt>
      <trkpt lat="43.7763" lon="3.8302">
        <ele>399.8</ele>
        <time>2026-05-21T11:57:00.999Z</time>
      </trkpt>
      <trkpt lat="43.7763" lon="3.83019">
        <ele>399.7</ele>
        <time>2026-05-21T11:57:01.999Z</time>
      </trkpt>
      <trkpt lat="43.7763" lon="3.83019">
        <ele>399.7</ele>
        <time>2026-05-21T11:57:02.999Z</time>
      </trkpt>
      <trkpt lat="43.7763" lon="3.83019">
        <ele>399.7</ele>
        <time>2026-05-21T11:57:03.999Z</time>
      </trkpt>
      <trkpt lat="43.7763" lon="3.83019">
        <ele>399.7</ele>
        <time>2026-05-21T11:57:04.999Z</time>
      </trkpt>
      <trkpt lat="43.7763" lon="3.83019">
        <ele>399.7</ele>
        <time>2026-05-21T11:57:05.999Z</time>
      </trkpt>
      <trkpt lat="43.7763" lon="3.83019">
        <ele>399.7</ele>
        <time>2026-05-21T11:57:06.999Z</time>
      </trkpt>
      <trkpt lat="43.77631" lon="3.83019">
        <ele>399.8</ele>
        <time>2026-05-21T11:57:07.999Z</time>
      </trkpt>
      <trkpt lat="43.77631" lon="3.83019">
        <ele>399.5</ele>
        <time>2026-05-21T11:57:08.999Z</time>
      </trkpt>
      <trkpt lat="43.77631" lon="3.83018">
        <ele>399.4</ele>
        <time>2026-05-21T11:57:09.999Z</time>
      </trkpt>
      <trkpt lat="43.77631" lon="3.83018">
        <ele>399.4</ele>
        <time>2026-05-21T11:57:10.999Z</time>
      </trkpt>
      <trkpt lat="43.77631" lon="3.83018">
        <ele>399.6</ele>
        <time>2026-05-21T11:57:11.999Z</time>
      </trkpt>
      <trkpt lat="43.77631" lon="3.83017">
        <ele>399.8</ele>
        <time>2026-05-21T11:57:12.999Z</time>
      </trkpt>
      <trkpt lat="43.77631" lon="3.83017">
        <ele>399.8</ele>
        <time>2026-05-21T11:57:13.999Z</time>
      </trkpt>
      <trkpt lat="43.77631" lon="3.83017">
        <ele>399.7</ele>
        <time>2026-05-21T11:57:14.999Z</time>
      </trkpt>
      <trkpt lat="43.77632" lon="3.83017">
        <ele>399.7</ele>
        <time>2026-05-21T11:57:15.999Z</time>
      </trkpt>
      <trkpt lat="43.77632" lon="3.83016">
        <ele>399.8</ele>
        <time>2026-05-21T11:57:16.999Z</time>
      </trkpt>
      <trkpt lat="43.77632" lon="3.83016">
        <ele>399.9</ele>
        <time>2026-05-21T11:57:17.999Z</time>
      </trkpt>
      <trkpt lat="43.77633" lon="3.83015">
        <ele>400.1</ele>
        <time>2026-05-21T11:57:18.999Z</time>
      </trkpt>
      <trkpt lat="43.77634" lon="3.83015">
        <ele>400.4</ele>
        <time>2026-05-21T11:57:19.999Z</time>
      </trkpt>
      <trkpt lat="43.77634" lon="3.83015">
        <ele>400.6</ele>
        <time>2026-05-21T11:57:20.999Z</time>
      </trkpt>
      <trkpt lat="43.77634" lon="3.83014">
        <ele>400.9</ele>
        <time>2026-05-21T11:57:21.999Z</time>
      </trkpt>
      <trkpt lat="43.77634" lon="3.83014">
        <ele>401.2</ele>
        <time>2026-05-21T11:57:22.999Z</time>
      </trkpt>
      <trkpt lat="43.77634" lon="3.83014">
        <ele>401.3</ele>
        <time>2026-05-21T11:57:23.999Z</time>
      </trkpt>
      <trkpt lat="43.77634" lon="3.83014">
        <ele>401.3</ele>
        <time>2026-05-21T11:57:24.999Z</time>
      </trkpt>
      <trkpt lat="43.77634" lon="3.83014">
        <ele>401.6</ele>
        <time>2026-05-21T11:57:25.999Z</time>
      </trkpt>
      <trkpt lat="43.77634" lon="3.83014">
        <ele>401.6</ele>
        <time>2026-05-21T11:57:26.999Z</time>
      </trkpt>
      <trkpt lat="43.77634" lon="3.83013">
        <ele>401.8</ele>
        <time>2026-05-21T11:57:27.999Z</time>
      </trkpt>
      <trkpt lat="43.77634" lon="3.83013">
        <ele>402.3</ele>
        <time>2026-05-21T11:57:28.999Z</time>
      </trkpt>
      <trkpt lat="43.77634" lon="3.83013">
        <ele>402.9</ele>
        <time>2026-05-21T11:57:29.999Z</time>
      </trkpt>
      <trkpt lat="43.77634" lon="3.83013">
        <ele>403</ele>
        <time>2026-05-21T11:57:30.999Z</time>
      </trkpt>
      <trkpt lat="43.77634" lon="3.83013">
        <ele>402.9</ele>
        <time>2026-05-21T11:57:31.999Z</time>
      </trkpt>
      <trkpt lat="43.77634" lon="3.83013">
        <ele>403</ele>
        <time>2026-05-21T11:57:32.999Z</time>
      </trkpt>
      <trkpt lat="43.77634" lon="3.83013">
        <ele>403.2</ele>
        <time>2026-05-21T11:57:33.999Z</time>
      </trkpt>
      <trkpt lat="43.77634" lon="3.83013">
        <ele>403.3</ele>
        <time>2026-05-21T11:57:34.999Z</time>
      </trkpt>
      <trkpt lat="43.77634" lon="3.83011">
        <ele>403.4</ele>
        <time>2026-05-21T11:57:35.999Z</time>
      </trkpt>
      <trkpt lat="43.77633" lon="3.83012">
        <ele>403.8</ele>
        <time>2026-05-21T11:57:36.999Z</time>
      </trkpt>
      <trkpt lat="43.77634" lon="3.83012">
        <ele>404.1</ele>
        <time>2026-05-21T11:57:37.999Z</time>
      </trkpt>
      <trkpt lat="43.77634" lon="3.83012">
        <ele>404.3</ele>
        <time>2026-05-21T11:57:38.999Z</time>
      </trkpt>
      <trkpt lat="43.77634" lon="3.83012">
        <ele>404.3</ele>
        <time>2026-05-21T11:57:39.999Z</time>
      </trkpt>
      <trkpt lat="43.77634" lon="3.83012">
        <ele>404.3</ele>
        <time>2026-05-21T11:57:40.999Z</time>
      </trkpt>
      <trkpt lat="43.77634" lon="3.83012">
        <ele>404.4</ele>
        <time>2026-05-21T11:57:41.999Z</time>
      </trkpt>
      <trkpt lat="43.77634" lon="3.83013">
        <ele>404.3</ele>
        <time>2026-05-21T11:57:42.999Z</time>
      </trkpt>
      <trkpt lat="43.77634" lon="3.83013">
        <ele>404.4</ele>
        <time>2026-05-21T11:57:43.999Z</time>
      </trkpt>
      <trkpt lat="43.77634" lon="3.83013">
        <ele>404.6</ele>
        <time>2026-05-21T11:57:44.999Z</time>
      </trkpt>
      <trkpt lat="43.77634" lon="3.83013">
        <ele>404.9</ele>
        <time>2026-05-21T11:57:45.999Z</time>
      </trkpt>
      <trkpt lat="43.77633" lon="3.83013">
        <ele>405.1</ele>
        <time>2026-05-21T11:57:46.999Z</time>
      </trkpt>
      <trkpt lat="43.77633" lon="3.83013">
        <ele>405.3</ele>
        <time>2026-05-21T11:57:47.999Z</time>
      </trkpt>
      <trkpt lat="43.77633" lon="3.83013">
        <ele>405.4</ele>
        <time>2026-05-21T11:57:48.999Z</time>
      </trkpt>
      <trkpt lat="43.77633" lon="3.83013">
        <ele>405.4</ele>
        <time>2026-05-21T11:57:49.999Z</time>
      </trkpt>
      <trkpt lat="43.77634" lon="3.83013">
        <ele>405.4</ele>
        <time>2026-05-21T11:57:50.999Z</time>
      </trkpt>
      <trkpt lat="43.77634" lon="3.83013">
        <ele>405.4</ele>
        <time>2026-05-21T11:57:51.999Z</time>
      </trkpt>
      <trkpt lat="43.77634" lon="3.83013">
        <ele>405.5</ele>
        <time>2026-05-21T11:57:52.999Z</time>
      </trkpt>
      <trkpt lat="43.77634" lon="3.83013">
        <ele>405.5</ele>
        <time>2026-05-21T11:57:53.999Z</time>
      </trkpt>
      <trkpt lat="43.77634" lon="3.83013">
        <ele>405.6</ele>
        <time>2026-05-21T11:57:54.999Z</time>
      </trkpt>
      <trkpt lat="43.77634" lon="3.83013">
        <ele>405.7</ele>
        <time>2026-05-21T11:57:55.999Z</time>
      </trkpt>
      <trkpt lat="43.77634" lon="3.83013">
        <ele>405.8</ele>
        <time>2026-05-21T11:57:56.999Z</time>
      </trkpt>
      <trkpt lat="43.77634" lon="3.83012">
        <ele>405.6</ele>
        <time>2026-05-21T11:57:57.999Z</time>
      </trkpt>
      <trkpt lat="43.77634" lon="3.83012">
        <ele>405.7</ele>
        <time>2026-05-21T11:57:58.999Z</time>
      </trkpt>
      <trkpt lat="43.77634" lon="3.83011">
        <ele>405.7</ele>
        <time>2026-05-21T11:57:59.999Z</time>
      </trkpt>
      <trkpt lat="43.77634" lon="3.83011">
        <ele>405.7</ele>
        <time>2026-05-21T11:58:00.999Z</time>
      </trkpt>
      <trkpt lat="43.77634" lon="3.8301">
        <ele>405.7</ele>
        <time>2026-05-21T11:58:01.999Z</time>
      </trkpt>
      <trkpt lat="43.77634" lon="3.8301">
        <ele>405.6</ele>
        <time>2026-05-21T11:58:02.999Z</time>
      </trkpt>
      <trkpt lat="43.77634" lon="3.83009">
        <ele>405.6</ele>
        <time>2026-05-21T11:58:03.999Z</time>
      </trkpt>
      <trkpt lat="43.77634" lon="3.83009">
        <ele>405.9</ele>
        <time>2026-05-21T11:58:04.999Z</time>
      </trkpt>
      <trkpt lat="43.77634" lon="3.83008">
        <ele>406.3</ele>
        <time>2026-05-21T11:58:05.999Z</time>
      </trkpt>
      <trkpt lat="43.77634" lon="3.83008">
        <ele>406.5</ele>
        <time>2026-05-21T11:58:06.999Z</time>
      </trkpt>
      <trkpt lat="43.77634" lon="3.83008">
        <ele>406.5</ele>
        <time>2026-05-21T11:58:07.999Z</time>
      </trkpt>
      <trkpt lat="43.77634" lon="3.83007">
        <ele>406.7</ele>
        <time>2026-05-21T11:58:08.999Z</time>
      </trkpt>
      <trkpt lat="43.77635" lon="3.83007">
        <ele>406.8</ele>
        <time>2026-05-21T11:58:09.999Z</time>
      </trkpt>
      <trkpt lat="43.77635" lon="3.83007">
        <ele>406.7</ele>
        <time>2026-05-21T11:58:10.999Z</time>
      </trkpt>
      <trkpt lat="43.77635" lon="3.83006">
        <ele>406.8</ele>
        <time>2026-05-21T11:58:11.999Z</time>
      </trkpt>
      <trkpt lat="43.77635" lon="3.83006">
        <ele>406.8</ele>
        <time>2026-05-21T11:58:12.999Z</time>
      </trkpt>
      <trkpt lat="43.77635" lon="3.83006">
        <ele>406.7</ele>
        <time>2026-05-21T11:58:13.999Z</time>
      </trkpt>
      <trkpt lat="43.77635" lon="3.83006">
        <ele>406.7</ele>
        <time>2026-05-21T11:58:14.999Z</time>
      </trkpt>
      <trkpt lat="43.77635" lon="3.83005">
        <ele>406.9</ele>
        <time>2026-05-21T11:58:15.999Z</time>
      </trkpt>
      <trkpt lat="43.77636" lon="3.83005">
        <ele>407.1</ele>
        <time>2026-05-21T11:58:16.999Z</time>
      </trkpt>
      <trkpt lat="43.77636" lon="3.83004">
        <ele>407.1</ele>
        <time>2026-05-21T11:58:17.999Z</time>
      </trkpt>
      <trkpt lat="43.77636" lon="3.83004">
        <ele>407.1</ele>
        <time>2026-05-21T11:58:18.999Z</time>
      </trkpt>
      <trkpt lat="43.77636" lon="3.83004">
        <ele>407.2</ele>
        <time>2026-05-21T11:58:19.999Z</time>
      </trkpt>
      <trkpt lat="43.77636" lon="3.83004">
        <ele>407.2</ele>
        <time>2026-05-21T11:58:20.999Z</time>
      </trkpt>
      <trkpt lat="43.77636" lon="3.83004">
        <ele>407.3</ele>
        <time>2026-05-21T11:58:21.999Z</time>
      </trkpt>
      <trkpt lat="43.77636" lon="3.83004">
        <ele>407.4</ele>
        <time>2026-05-21T11:58:22.999Z</time>
      </trkpt>
      <trkpt lat="43.77636" lon="3.83003">
        <ele>407.5</ele>
        <time>2026-05-21T11:58:23.999Z</time>
      </trkpt>
      <trkpt lat="43.77636" lon="3.83003">
        <ele>407.4</ele>
        <time>2026-05-21T11:58:24.999Z</time>
      </trkpt>
      <trkpt lat="43.77636" lon="3.83003">
        <ele>407.4</ele>
        <time>2026-05-21T11:58:25.999Z</time>
      </trkpt>
      <trkpt lat="43.77637" lon="3.83003">
        <ele>407.5</ele>
        <time>2026-05-21T11:58:26.999Z</time>
      </trkpt>
      <trkpt lat="43.77637" lon="3.83002">
        <ele>407.5</ele>
        <time>2026-05-21T11:58:27.999Z</time>
      </trkpt>
      <trkpt lat="43.77637" lon="3.83002">
        <ele>407.7</ele>
        <time>2026-05-21T11:58:28.999Z</time>
      </trkpt>
      <trkpt lat="43.77637" lon="3.83002">
        <ele>407.4</ele>
        <time>2026-05-21T11:58:29.999Z</time>
      </trkpt>
      <trkpt lat="43.77637" lon="3.83001">
        <ele>407.3</ele>
        <time>2026-05-21T11:58:30.999Z</time>
      </trkpt>
      <trkpt lat="43.77637" lon="3.83">
        <ele>407.2</ele>
        <time>2026-05-21T11:58:31.999Z</time>
      </trkpt>
      <trkpt lat="43.77638" lon="3.82999">
        <ele>407.2</ele>
        <time>2026-05-21T11:58:32.999Z</time>
      </trkpt>
      <trkpt lat="43.77638" lon="3.82997">
        <ele>407.1</ele>
        <time>2026-05-21T11:58:33.999Z</time>
      </trkpt>
      <trkpt lat="43.77639" lon="3.82995">
        <ele>406.8</ele>
        <time>2026-05-21T11:58:34.999Z</time>
      </trkpt>
      <trkpt lat="43.77639" lon="3.82994">
        <ele>406.8</ele>
        <time>2026-05-21T11:58:35.999Z</time>
      </trkpt>
      <trkpt lat="43.77639" lon="3.82993">
        <ele>406.7</ele>
        <time>2026-05-21T11:58:36.999Z</time>
      </trkpt>
      <trkpt lat="43.77639" lon="3.82993">
        <ele>406.8</ele>
        <time>2026-05-21T11:58:37.999Z</time>
      </trkpt>
      <trkpt lat="43.77639" lon="3.82994">
        <ele>406.8</ele>
        <time>2026-05-21T11:58:38.999Z</time>
      </trkpt>
      <trkpt lat="43.77639" lon="3.82994">
        <ele>406.8</ele>
        <time>2026-05-21T11:58:39.999Z</time>
      </trkpt>
      <trkpt lat="43.77639" lon="3.82994">
        <ele>406.7</ele>
        <time>2026-05-21T11:58:40.999Z</time>
      </trkpt>
      <trkpt lat="43.77639" lon="3.82994">
        <ele>406.4</ele>
        <time>2026-05-21T11:58:41.999Z</time>
      </trkpt>
      <trkpt lat="43.77639" lon="3.82994">
        <ele>406.2</ele>
        <time>2026-05-21T11:58:42.999Z</time>
      </trkpt>
      <trkpt lat="43.77639" lon="3.82994">
        <ele>406.1</ele>
        <time>2026-05-21T11:58:43.999Z</time>
      </trkpt>
      <trkpt lat="43.77639" lon="3.82993">
        <ele>405.8</ele>
        <time>2026-05-21T11:58:44.999Z</time>
      </trkpt>
      <trkpt lat="43.7764" lon="3.82993">
        <ele>405.8</ele>
        <time>2026-05-21T11:58:45.999Z</time>
      </trkpt>
      <trkpt lat="43.7764" lon="3.82993">
        <ele>405.7</ele>
        <time>2026-05-21T11:58:46.999Z</time>
      </trkpt>
      <trkpt lat="43.7764" lon="3.82993">
        <ele>405.7</ele>
        <time>2026-05-21T11:58:47.999Z</time>
      </trkpt>
      <trkpt lat="43.7764" lon="3.82993">
        <ele>405.9</ele>
        <time>2026-05-21T11:58:49.999Z</time>
      </trkpt>
      <trkpt lat="43.7764" lon="3.82993">
        <ele>406.1</ele>
        <time>2026-05-21T11:58:50.999Z</time>
      </trkpt>
      <trkpt lat="43.7764" lon="3.82993">
        <ele>406.2</ele>
        <time>2026-05-21T11:58:51.999Z</time>
      </trkpt>
      <trkpt lat="43.7764" lon="3.82993">
        <ele>406.3</ele>
        <time>2026-05-21T11:58:52.999Z</time>
      </trkpt>
      <trkpt lat="43.7764" lon="3.82993">
        <ele>406.3</ele>
        <time>2026-05-21T11:58:53.999Z</time>
      </trkpt>
      <trkpt lat="43.7764" lon="3.82993">
        <ele>406.3</ele>
        <time>2026-05-21T11:58:54.999Z</time>
      </trkpt>
      <trkpt lat="43.7764" lon="3.82993">
        <ele>406.4</ele>
        <time>2026-05-21T11:58:55.999Z</time>
      </trkpt>
      <trkpt lat="43.7764" lon="3.82993">
        <ele>406.6</ele>
        <time>2026-05-21T11:58:56.999Z</time>
      </trkpt>
      <trkpt lat="43.7764" lon="3.82993">
        <ele>406.7</ele>
        <time>2026-05-21T11:58:57.999Z</time>
      </trkpt>
      <trkpt lat="43.7764" lon="3.82993">
        <ele>406.8</ele>
        <time>2026-05-21T11:58:58.999Z</time>
      </trkpt>
      <trkpt lat="43.7764" lon="3.82993">
        <ele>406.9</ele>
        <time>2026-05-21T11:58:59.999Z</time>
      </trkpt>
      <trkpt lat="43.7764" lon="3.82993">
        <ele>406.9</ele>
        <time>2026-05-21T11:59:00.999Z</time>
      </trkpt>
      <trkpt lat="43.7764" lon="3.82993">
        <ele>406.8</ele>
        <time>2026-05-21T11:59:01.999Z</time>
      </trkpt>
      <trkpt lat="43.7764" lon="3.82993">
        <ele>406.6</ele>
        <time>2026-05-21T11:59:02.999Z</time>
      </trkpt>
      <trkpt lat="43.7764" lon="3.82992">
        <ele>406.6</ele>
        <time>2026-05-21T11:59:03.999Z</time>
      </trkpt>
      <trkpt lat="43.7764" lon="3.82992">
        <ele>406.5</ele>
        <time>2026-05-21T11:59:04.999Z</time>
      </trkpt>
      <trkpt lat="43.7764" lon="3.82992">
        <ele>406.2</ele>
        <time>2026-05-21T11:59:05.999Z</time>
      </trkpt>
      <trkpt lat="43.7764" lon="3.82992">
        <ele>406.2</ele>
        <time>2026-05-21T11:59:06.999Z</time>
      </trkpt>
      <trkpt lat="43.7764" lon="3.82992">
        <ele>406.1</ele>
        <time>2026-05-21T11:59:07.999Z</time>
      </trkpt>
      <trkpt lat="43.7764" lon="3.82992">
        <ele>406.2</ele>
        <time>2026-05-21T11:59:08.999Z</time>
      </trkpt>
      <trkpt lat="43.7764" lon="3.82992">
        <ele>406.3</ele>
        <time>2026-05-21T11:59:09.999Z</time>
      </trkpt>
      <trkpt lat="43.7764" lon="3.82992">
        <ele>406.4</ele>
        <time>2026-05-21T11:59:10.999Z</time>
      </trkpt>
      <trkpt lat="43.7764" lon="3.82992">
        <ele>406.5</ele>
        <time>2026-05-21T11:59:11.999Z</time>
      </trkpt>
      <trkpt lat="43.7764" lon="3.82992">
        <ele>406.7</ele>
        <time>2026-05-21T11:59:12.999Z</time>
      </trkpt>
      <trkpt lat="43.7764" lon="3.82992">
        <ele>406.8</ele>
        <time>2026-05-21T11:59:13.999Z</time>
      </trkpt>
      <trkpt lat="43.7764" lon="3.82992">
        <ele>406.8</ele>
        <time>2026-05-21T11:59:14.999Z</time>
      </trkpt>
      <trkpt lat="43.7764" lon="3.82993">
        <ele>407</ele>
        <time>2026-05-21T11:59:15.999Z</time>
      </trkpt>
      <trkpt lat="43.7764" lon="3.82993">
        <ele>407.3</ele>
        <time>2026-05-21T11:59:16.999Z</time>
      </trkpt>
      <trkpt lat="43.7764" lon="3.82993">
        <ele>407.8</ele>
        <time>2026-05-21T11:59:17.999Z</time>
      </trkpt>
      <trkpt lat="43.77639" lon="3.82993">
        <ele>407.7</ele>
        <time>2026-05-21T11:59:18.999Z</time>
      </trkpt>
      <trkpt lat="43.7764" lon="3.82992">
        <ele>407.9</ele>
        <time>2026-05-21T11:59:19.999Z</time>
      </trkpt>
      <trkpt lat="43.7764" lon="3.82991">
        <ele>408.1</ele>
        <time>2026-05-21T11:59:20.999Z</time>
      </trkpt>
      <trkpt lat="43.7764" lon="3.82991">
        <ele>408.2</ele>
        <time>2026-05-21T11:59:21.999Z</time>
      </trkpt>
      <trkpt lat="43.7764" lon="3.82991">
        <ele>407.9</ele>
        <time>2026-05-21T11:59:22.999Z</time>
      </trkpt>
      <trkpt lat="43.7764" lon="3.82991">
        <ele>407.9</ele>
        <time>2026-05-21T11:59:23.999Z</time>
      </trkpt>
      <trkpt lat="43.7764" lon="3.82991">
        <ele>407.9</ele>
        <time>2026-05-21T11:59:24.999Z</time>
      </trkpt>
      <trkpt lat="43.7764" lon="3.82991">
        <ele>407.9</ele>
        <time>2026-05-21T11:59:25.999Z</time>
      </trkpt>
      <trkpt lat="43.7764" lon="3.82991">
        <ele>408</ele>
        <time>2026-05-21T11:59:26.999Z</time>
      </trkpt>
      <trkpt lat="43.7764" lon="3.82991">
        <ele>408.1</ele>
        <time>2026-05-21T11:59:27.999Z</time>
      </trkpt>
      <trkpt lat="43.7764" lon="3.8299">
        <ele>408.1</ele>
        <time>2026-05-21T11:59:28.999Z</time>
      </trkpt>
      <trkpt lat="43.7764" lon="3.8299">
        <ele>408.2</ele>
        <time>2026-05-21T11:59:29.999Z</time>
      </trkpt>
      <trkpt lat="43.7764" lon="3.8299">
        <ele>408</ele>
        <time>2026-05-21T11:59:30.999Z</time>
      </trkpt>
      <trkpt lat="43.7764" lon="3.82989">
        <ele>407.9</ele>
        <time>2026-05-21T11:59:31.999Z</time>
      </trkpt>
      <trkpt lat="43.7764" lon="3.82988">
        <ele>408</ele>
        <time>2026-05-21T11:59:32.999Z</time>
      </trkpt>
      <trkpt lat="43.7764" lon="3.82988">
        <ele>408.1</ele>
        <time>2026-05-21T11:59:33.999Z</time>
      </trkpt>
      <trkpt lat="43.7764" lon="3.82988">
        <ele>408.3</ele>
        <time>2026-05-21T11:59:34.999Z</time>
      </trkpt>
      <trkpt lat="43.7764" lon="3.82988">
        <ele>408.1</ele>
        <time>2026-05-21T11:59:35.999Z</time>
      </trkpt>
      <trkpt lat="43.7764" lon="3.82988">
        <ele>408.1</ele>
        <time>2026-05-21T11:59:36.999Z</time>
      </trkpt>
      <trkpt lat="43.7764" lon="3.82988">
        <ele>408.2</ele>
        <time>2026-05-21T11:59:37.999Z</time>
      </trkpt>
      <trkpt lat="43.7764" lon="3.82988">
        <ele>408.3</ele>
        <time>2026-05-21T11:59:38.999Z</time>
      </trkpt>
      <trkpt lat="43.7764" lon="3.82988">
        <ele>408.5</ele>
        <time>2026-05-21T11:59:39.999Z</time>
      </trkpt>
      <trkpt lat="43.7764" lon="3.82988">
        <ele>408.7</ele>
        <time>2026-05-21T11:59:40.999Z</time>
      </trkpt>
      <trkpt lat="43.7764" lon="3.82988">
        <ele>408.9</ele>
        <time>2026-05-21T11:59:41.999Z</time>
      </trkpt>
      <trkpt lat="43.7764" lon="3.82988">
        <ele>408.9</ele>
        <time>2026-05-21T11:59:42.999Z</time>
      </trkpt>
      <trkpt lat="43.7764" lon="3.82988">
        <ele>408.9</ele>
        <time>2026-05-21T11:59:43.999Z</time>
      </trkpt>
      <trkpt lat="43.7764" lon="3.82987">
        <ele>408.7</ele>
        <time>2026-05-21T11:59:44.999Z</time>
      </trkpt>
      <trkpt lat="43.7764" lon="3.82987">
        <ele>408.5</ele>
        <time>2026-05-21T11:59:45.999Z</time>
      </trkpt>
      <trkpt lat="43.7764" lon="3.82987">
        <ele>408.5</ele>
        <time>2026-05-21T11:59:46.999Z</time>
      </trkpt>
      <trkpt lat="43.7764" lon="3.82987">
        <ele>408.4</ele>
        <time>2026-05-21T11:59:47.999Z</time>
      </trkpt>
      <trkpt lat="43.7764" lon="3.82987">
        <ele>408.2</ele>
        <time>2026-05-21T11:59:48.999Z</time>
      </trkpt>
      <trkpt lat="43.7764" lon="3.82987">
        <ele>408</ele>
        <time>2026-05-21T11:59:49.999Z</time>
      </trkpt>
      <trkpt lat="43.7764" lon="3.82986">
        <ele>407.7</ele>
        <time>2026-05-21T11:59:50.999Z</time>
      </trkpt>
      <trkpt lat="43.7764" lon="3.82986">
        <ele>407.6</ele>
        <time>2026-05-21T11:59:51.999Z</time>
      </trkpt>
      <trkpt lat="43.7764" lon="3.82986">
        <ele>407.4</ele>
        <time>2026-05-21T11:59:52.999Z</time>
      </trkpt>
      <trkpt lat="43.7764" lon="3.82986">
        <ele>407.1</ele>
        <time>2026-05-21T11:59:53.999Z</time>
      </trkpt>
      <trkpt lat="43.7764" lon="3.82985">
        <ele>407.1</ele>
        <time>2026-05-21T11:59:54.999Z</time>
      </trkpt>
      <trkpt lat="43.7764" lon="3.82985">
        <ele>407.1</ele>
        <time>2026-05-21T11:59:55.999Z</time>
      </trkpt>
      <trkpt lat="43.7764" lon="3.82984">
        <ele>407.1</ele>
        <time>2026-05-21T11:59:56.999Z</time>
      </trkpt>
      <trkpt lat="43.7764" lon="3.82984">
        <ele>407.2</ele>
        <time>2026-05-21T11:59:57.999Z</time>
      </trkpt>
      <trkpt lat="43.7764" lon="3.82984">
        <ele>407.2</ele>
        <time>2026-05-21T11:59:58.999Z</time>
      </trkpt>
      <trkpt lat="43.7764" lon="3.82984">
        <ele>407.1</ele>
        <time>2026-05-21T11:59:59.999Z</time>
      </trkpt>
      <trkpt lat="43.77641" lon="3.82984">
        <ele>406.9</ele>
        <time>2026-05-21T12:00:00.999Z</time>
      </trkpt>
      <trkpt lat="43.77641" lon="3.82983">
        <ele>406.7</ele>
        <time>2026-05-21T12:00:01.999Z</time>
      </trkpt>
      <trkpt lat="43.77641" lon="3.82983">
        <ele>406.6</ele>
        <time>2026-05-21T12:00:02.999Z</time>
      </trkpt>
      <trkpt lat="43.77641" lon="3.82983">
        <ele>406.7</ele>
        <time>2026-05-21T12:00:03.999Z</time>
      </trkpt>
      <trkpt lat="43.77641" lon="3.82983">
        <ele>406.6</ele>
        <time>2026-05-21T12:00:04.999Z</time>
      </trkpt>
      <trkpt lat="43.77641" lon="3.82982">
        <ele>406.6</ele>
        <time>2026-05-21T12:00:05.999Z</time>
      </trkpt>
      <trkpt lat="43.77641" lon="3.82982">
        <ele>406.6</ele>
        <time>2026-05-21T12:00:06.999Z</time>
      </trkpt>
      <trkpt lat="43.77641" lon="3.82982">
        <ele>406.7</ele>
        <time>2026-05-21T12:00:07.999Z</time>
      </trkpt>
      <trkpt lat="43.77641" lon="3.82982">
        <ele>406.7</ele>
        <time>2026-05-21T12:00:08.999Z</time>
      </trkpt>
      <trkpt lat="43.77641" lon="3.82982">
        <ele>406.8</ele>
        <time>2026-05-21T12:00:09.999Z</time>
      </trkpt>
      <trkpt lat="43.77641" lon="3.82982">
        <ele>406.9</ele>
        <time>2026-05-21T12:00:10.999Z</time>
      </trkpt>
      <trkpt lat="43.77641" lon="3.82982">
        <ele>406.7</ele>
        <time>2026-05-21T12:00:11.999Z</time>
      </trkpt>
      <trkpt lat="43.77641" lon="3.82982">
        <ele>406.7</ele>
        <time>2026-05-21T12:00:12.999Z</time>
      </trkpt>
      <trkpt lat="43.77641" lon="3.82982">
        <ele>406.6</ele>
        <time>2026-05-21T12:00:13.999Z</time>
      </trkpt>
      <trkpt lat="43.77641" lon="3.82982">
        <ele>406.5</ele>
        <time>2026-05-21T12:00:14.999Z</time>
      </trkpt>
      <trkpt lat="43.77641" lon="3.82982">
        <ele>406.4</ele>
        <time>2026-05-21T12:00:15.999Z</time>
      </trkpt>
      <trkpt lat="43.77641" lon="3.82981">
        <ele>406.3</ele>
        <time>2026-05-21T12:00:16.999Z</time>
      </trkpt>
      <trkpt lat="43.77641" lon="3.82981">
        <ele>406.3</ele>
        <time>2026-05-21T12:00:17.999Z</time>
      </trkpt>
      <trkpt lat="43.77642" lon="3.82981">
        <ele>406.4</ele>
        <time>2026-05-21T12:00:18.999Z</time>
      </trkpt>
      <trkpt lat="43.77642" lon="3.82981">
        <ele>406.8</ele>
        <time>2026-05-21T12:00:19.999Z</time>
      </trkpt>
      <trkpt lat="43.77642" lon="3.82981">
        <ele>407</ele>
        <time>2026-05-21T12:00:20.999Z</time>
      </trkpt>
      <trkpt lat="43.77642" lon="3.8298">
        <ele>407.1</ele>
        <time>2026-05-21T12:00:21.999Z</time>
      </trkpt>
      <trkpt lat="43.77642" lon="3.8298">
        <ele>407.2</ele>
        <time>2026-05-21T12:00:22.999Z</time>
      </trkpt>
      <trkpt lat="43.77642" lon="3.8298">
        <ele>407.2</ele>
        <time>2026-05-21T12:00:23.999Z</time>
      </trkpt>
      <trkpt lat="43.77642" lon="3.8298">
        <ele>407.2</ele>
        <time>2026-05-21T12:00:24.999Z</time>
      </trkpt>
      <trkpt lat="43.77642" lon="3.8298">
        <ele>407.3</ele>
        <time>2026-05-21T12:00:25.999Z</time>
      </trkpt>
      <trkpt lat="43.77642" lon="3.8298">
        <ele>407.2</ele>
        <time>2026-05-21T12:00:26.999Z</time>
      </trkpt>
      <trkpt lat="43.77642" lon="3.8298">
        <ele>407.2</ele>
        <time>2026-05-21T12:00:27.999Z</time>
      </trkpt>
      <trkpt lat="43.77642" lon="3.8298">
        <ele>407.3</ele>
        <time>2026-05-21T12:00:28.999Z</time>
      </trkpt>
      <trkpt lat="43.77642" lon="3.8298">
        <ele>407.2</ele>
        <time>2026-05-21T12:00:29.999Z</time>
      </trkpt>
      <trkpt lat="43.77642" lon="3.8298">
        <ele>407.3</ele>
        <time>2026-05-21T12:00:30.999Z</time>
      </trkpt>
      <trkpt lat="43.77642" lon="3.8298">
        <ele>407.5</ele>
        <time>2026-05-21T12:00:31.999Z</time>
      </trkpt>
      <trkpt lat="43.77642" lon="3.8298">
        <ele>407.7</ele>
        <time>2026-05-21T12:00:32.999Z</time>
      </trkpt>
      <trkpt lat="43.77642" lon="3.8298">
        <ele>407.9</ele>
        <time>2026-05-21T12:00:33.999Z</time>
      </trkpt>
      <trkpt lat="43.77642" lon="3.8298">
        <ele>408</ele>
        <time>2026-05-21T12:00:34.999Z</time>
      </trkpt>
      <trkpt lat="43.77642" lon="3.8298">
        <ele>408</ele>
        <time>2026-05-21T12:00:35.999Z</time>
      </trkpt>
      <trkpt lat="43.77642" lon="3.8298">
        <ele>408</ele>
        <time>2026-05-21T12:00:36.999Z</time>
      </trkpt>
      <trkpt lat="43.77642" lon="3.8298">
        <ele>408</ele>
        <time>2026-05-21T12:00:37.999Z</time>
      </trkpt>
      <trkpt lat="43.77642" lon="3.8298">
        <ele>408.1</ele>
        <time>2026-05-21T12:00:38.999Z</time>
      </trkpt>
      <trkpt lat="43.77642" lon="3.8298">
        <ele>408</ele>
        <time>2026-05-21T12:00:39.999Z</time>
      </trkpt>
      <trkpt lat="43.77642" lon="3.8298">
        <ele>408</ele>
        <time>2026-05-21T12:00:40.999Z</time>
      </trkpt>
      <trkpt lat="43.77642" lon="3.8298">
        <ele>408.1</ele>
        <time>2026-05-21T12:00:41.999Z</time>
      </trkpt>
      <trkpt lat="43.77642" lon="3.8298">
        <ele>408.1</ele>
        <time>2026-05-21T12:00:42.999Z</time>
      </trkpt>
      <trkpt lat="43.77642" lon="3.8298">
        <ele>408.1</ele>
        <time>2026-05-21T12:00:43.999Z</time>
      </trkpt>
      <trkpt lat="43.77642" lon="3.8298">
        <ele>408</ele>
        <time>2026-05-21T12:00:44.999Z</time>
      </trkpt>
      <trkpt lat="43.77642" lon="3.82979">
        <ele>408</ele>
        <time>2026-05-21T12:00:45.999Z</time>
      </trkpt>
      <trkpt lat="43.77642" lon="3.82979">
        <ele>408</ele>
        <time>2026-05-21T12:00:46.999Z</time>
      </trkpt>
      <trkpt lat="43.77642" lon="3.82979">
        <ele>408</ele>
        <time>2026-05-21T12:00:47.999Z</time>
      </trkpt>
      <trkpt lat="43.77642" lon="3.82979">
        <ele>408</ele>
        <time>2026-05-21T12:00:48.999Z</time>
      </trkpt>
      <trkpt lat="43.77642" lon="3.82979">
        <ele>408</ele>
        <time>2026-05-21T12:00:49.999Z</time>
      </trkpt>
      <trkpt lat="43.77642" lon="3.82979">
        <ele>408</ele>
        <time>2026-05-21T12:00:50.999Z</time>
      </trkpt>
      <trkpt lat="43.77642" lon="3.82979">
        <ele>408.1</ele>
        <time>2026-05-21T12:00:51.999Z</time>
      </trkpt>
      <trkpt lat="43.77642" lon="3.82979">
        <ele>407.9</ele>
        <time>2026-05-21T12:00:52.999Z</time>
      </trkpt>
      <trkpt lat="43.77642" lon="3.82979">
        <ele>407.8</ele>
        <time>2026-05-21T12:00:53.999Z</time>
      </trkpt>
      <trkpt lat="43.77642" lon="3.82979">
        <ele>407.6</ele>
        <time>2026-05-21T12:00:54.999Z</time>
      </trkpt>
      <trkpt lat="43.77642" lon="3.82979">
        <ele>407.6</ele>
        <time>2026-05-21T12:00:55.999Z</time>
      </trkpt>
      <trkpt lat="43.77642" lon="3.82979">
        <ele>407.6</ele>
        <time>2026-05-21T12:00:56.999Z</time>
      </trkpt>
      <trkpt lat="43.77642" lon="3.82979">
        <ele>407.7</ele>
        <time>2026-05-21T12:00:57.999Z</time>
      </trkpt>
      <trkpt lat="43.77642" lon="3.82979">
        <ele>407.6</ele>
        <time>2026-05-21T12:00:58.999Z</time>
      </trkpt>
      <trkpt lat="43.77642" lon="3.82979">
        <ele>407.8</ele>
        <time>2026-05-21T12:00:59.999Z</time>
      </trkpt>
      <trkpt lat="43.77642" lon="3.82979">
        <ele>407.8</ele>
        <time>2026-05-21T12:01:00.999Z</time>
      </trkpt>
      <trkpt lat="43.77642" lon="3.82978">
        <ele>407.9</ele>
        <time>2026-05-21T12:01:01.999Z</time>
      </trkpt>
      <trkpt lat="43.77642" lon="3.82978">
        <ele>408</ele>
        <time>2026-05-21T12:01:02.999Z</time>
      </trkpt>
      <trkpt lat="43.77642" lon="3.82978">
        <ele>408.2</ele>
        <time>2026-05-21T12:01:03.999Z</time>
      </trkpt>
      <trkpt lat="43.77642" lon="3.82978">
        <ele>408.3</ele>
        <time>2026-05-21T12:01:04.999Z</time>
      </trkpt>
      <trkpt lat="43.77642" lon="3.82978">
        <ele>408.2</ele>
        <time>2026-05-21T12:01:05.999Z</time>
      </trkpt>
      <trkpt lat="43.77642" lon="3.82978">
        <ele>408.3</ele>
        <time>2026-05-21T12:01:06.999Z</time>
      </trkpt>
      <trkpt lat="43.77642" lon="3.82978">
        <ele>408.5</ele>
        <time>2026-05-21T12:01:07.999Z</time>
      </trkpt>
      <trkpt lat="43.77642" lon="3.82978">
        <ele>408.5</ele>
        <time>2026-05-21T12:01:08.999Z</time>
      </trkpt>
      <trkpt lat="43.77642" lon="3.82978">
        <ele>408.6</ele>
        <time>2026-05-21T12:01:09.999Z</time>
      </trkpt>
      <trkpt lat="43.77642" lon="3.82978">
        <ele>408.7</ele>
        <time>2026-05-21T12:01:10.999Z</time>
      </trkpt>
      <trkpt lat="43.77642" lon="3.82978">
        <ele>408.5</ele>
        <time>2026-05-21T12:01:11.999Z</time>
      </trkpt>
      <trkpt lat="43.77642" lon="3.82978">
        <ele>408.6</ele>
        <time>2026-05-21T12:01:12.999Z</time>
      </trkpt>
      <trkpt lat="43.77642" lon="3.82978">
        <ele>408.5</ele>
        <time>2026-05-21T12:01:13.999Z</time>
      </trkpt>
      <trkpt lat="43.77642" lon="3.82978">
        <ele>408.6</ele>
        <time>2026-05-21T12:01:14.999Z</time>
      </trkpt>
      <trkpt lat="43.77642" lon="3.82978">
        <ele>408.6</ele>
        <time>2026-05-21T12:01:15.999Z</time>
      </trkpt>
      <trkpt lat="43.77642" lon="3.82978">
        <ele>408.7</ele>
        <time>2026-05-21T12:01:16.999Z</time>
      </trkpt>
      <trkpt lat="43.77642" lon="3.82978">
        <ele>408.8</ele>
        <time>2026-05-21T12:01:17.999Z</time>
      </trkpt>
      <trkpt lat="43.77642" lon="3.82978">
        <ele>408.9</ele>
        <time>2026-05-21T12:01:18.999Z</time>
      </trkpt>
      <trkpt lat="43.77642" lon="3.82978">
        <ele>409</ele>
        <time>2026-05-21T12:01:19.999Z</time>
      </trkpt>
      <trkpt lat="43.77642" lon="3.82978">
        <ele>409</ele>
        <time>2026-05-21T12:01:20.999Z</time>
      </trkpt>
      <trkpt lat="43.77642" lon="3.82978">
        <ele>409.1</ele>
        <time>2026-05-21T12:01:21.999Z</time>
      </trkpt>
      <trkpt lat="43.77642" lon="3.82978">
        <ele>409.2</ele>
        <time>2026-05-21T12:01:22.999Z</time>
      </trkpt>
      <trkpt lat="43.77642" lon="3.82978">
        <ele>409.3</ele>
        <time>2026-05-21T12:01:23.999Z</time>
      </trkpt>
      <trkpt lat="43.77642" lon="3.82978">
        <ele>409.5</ele>
        <time>2026-05-21T12:01:24.999Z</time>
      </trkpt>
      <trkpt lat="43.77642" lon="3.82977">
        <ele>409.5</ele>
        <time>2026-05-21T12:01:25.999Z</time>
      </trkpt>
      <trkpt lat="43.77642" lon="3.82977">
        <ele>409.4</ele>
        <time>2026-05-21T12:01:26.999Z</time>
      </trkpt>
      <trkpt lat="43.77642" lon="3.82977">
        <ele>409.5</ele>
        <time>2026-05-21T12:01:27.999Z</time>
      </trkpt>
      <trkpt lat="43.77642" lon="3.82977">
        <ele>409.4</ele>
        <time>2026-05-21T12:01:28.999Z</time>
      </trkpt>
      <trkpt lat="43.77642" lon="3.82977">
        <ele>409.2</ele>
        <time>2026-05-21T12:01:29.999Z</time>
      </trkpt>
      <trkpt lat="43.77642" lon="3.82977">
        <ele>409.1</ele>
        <time>2026-05-21T12:01:30.999Z</time>
      </trkpt>
      <trkpt lat="43.77642" lon="3.82977">
        <ele>409.2</ele>
        <time>2026-05-21T12:01:31.999Z</time>
      </trkpt>
      <trkpt lat="43.77642" lon="3.82977">
        <ele>409.2</ele>
        <time>2026-05-21T12:01:32.999Z</time>
      </trkpt>
      <trkpt lat="43.77642" lon="3.82977">
        <ele>409.3</ele>
        <time>2026-05-21T12:01:33.999Z</time>
      </trkpt>
      <trkpt lat="43.77643" lon="3.82977">
        <ele>409.2</ele>
        <time>2026-05-21T12:01:34.999Z</time>
      </trkpt>
      <trkpt lat="43.77643" lon="3.82977">
        <ele>409.2</ele>
        <time>2026-05-21T12:01:35.999Z</time>
      </trkpt>
      <trkpt lat="43.77643" lon="3.82977">
        <ele>409.1</ele>
        <time>2026-05-21T12:01:36.999Z</time>
      </trkpt>
      <trkpt lat="43.77643" lon="3.82977">
        <ele>409.1</ele>
        <time>2026-05-21T12:01:37.999Z</time>
      </trkpt>
      <trkpt lat="43.77643" lon="3.82977">
        <ele>409.2</ele>
        <time>2026-05-21T12:01:38.999Z</time>
      </trkpt>
      <trkpt lat="43.77643" lon="3.82977">
        <ele>409.3</ele>
        <time>2026-05-21T12:01:39.999Z</time>
      </trkpt>
      <trkpt lat="43.77643" lon="3.82977">
        <ele>409.3</ele>
        <time>2026-05-21T12:01:40.999Z</time>
      </trkpt>
      <trkpt lat="43.77643" lon="3.82977">
        <ele>409.3</ele>
        <time>2026-05-21T12:01:41.999Z</time>
      </trkpt>
      <trkpt lat="43.77643" lon="3.82977">
        <ele>409.2</ele>
        <time>2026-05-21T12:01:42.999Z</time>
      </trkpt>
      <trkpt lat="43.77643" lon="3.82977">
        <ele>408.9</ele>
        <time>2026-05-21T12:01:43.999Z</time>
      </trkpt>
      <trkpt lat="43.77643" lon="3.82977">
        <ele>408.7</ele>
        <time>2026-05-21T12:01:44.999Z</time>
      </trkpt>
      <trkpt lat="43.77643" lon="3.82977">
        <ele>408.6</ele>
        <time>2026-05-21T12:01:45.999Z</time>
      </trkpt>
      <trkpt lat="43.77643" lon="3.82977">
        <ele>408.7</ele>
        <time>2026-05-21T12:01:46.999Z</time>
      </trkpt>
      <trkpt lat="43.77642" lon="3.82977">
        <ele>408.7</ele>
        <time>2026-05-21T12:01:47.999Z</time>
      </trkpt>
      <trkpt lat="43.77642" lon="3.82977">
        <ele>408.6</ele>
        <time>2026-05-21T12:01:48.999Z</time>
      </trkpt>
      <trkpt lat="43.77642" lon="3.82977">
        <ele>408.7</ele>
        <time>2026-05-21T12:01:49.999Z</time>
      </trkpt>
      <trkpt lat="43.77642" lon="3.82977">
        <ele>408.7</ele>
        <time>2026-05-21T12:01:50.999Z</time>
      </trkpt>
      <trkpt lat="43.77642" lon="3.82977">
        <ele>408.7</ele>
        <time>2026-05-21T12:01:51.999Z</time>
      </trkpt>
      <trkpt lat="43.77642" lon="3.82977">
        <ele>408.6</ele>
        <time>2026-05-21T12:01:52.999Z</time>
      </trkpt>
      <trkpt lat="43.77642" lon="3.82977">
        <ele>408.6</ele>
        <time>2026-05-21T12:01:53.999Z</time>
      </trkpt>
      <trkpt lat="43.77642" lon="3.82977">
        <ele>408.5</ele>
        <time>2026-05-21T12:01:54.999Z</time>
      </trkpt>
      <trkpt lat="43.77642" lon="3.82977">
        <ele>408.3</ele>
        <time>2026-05-21T12:01:55.999Z</time>
      </trkpt>
      <trkpt lat="43.77642" lon="3.82977">
        <ele>408.3</ele>
        <time>2026-05-21T12:01:56.999Z</time>
      </trkpt>
      <trkpt lat="43.77642" lon="3.82977">
        <ele>408.2</ele>
        <time>2026-05-21T12:01:57.999Z</time>
      </trkpt>
      <trkpt lat="43.77642" lon="3.82977">
        <ele>408.1</ele>
        <time>2026-05-21T12:01:58.999Z</time>
      </trkpt>
      <trkpt lat="43.77642" lon="3.82977">
        <ele>408.1</ele>
        <time>2026-05-21T12:01:59.999Z</time>
      </trkpt>
      <trkpt lat="43.77642" lon="3.82977">
        <ele>407.9</ele>
        <time>2026-05-21T12:02:00.999Z</time>
      </trkpt>
      <trkpt lat="43.77642" lon="3.82977">
        <ele>407.8</ele>
        <time>2026-05-21T12:02:01.999Z</time>
      </trkpt>
      <trkpt lat="43.77642" lon="3.82976">
        <ele>407.8</ele>
        <time>2026-05-21T12:02:02.999Z</time>
      </trkpt>
      <trkpt lat="43.77642" lon="3.82977">
        <ele>407.9</ele>
        <time>2026-05-21T12:02:03.999Z</time>
      </trkpt>
      <trkpt lat="43.77642" lon="3.82976">
        <ele>407.9</ele>
        <time>2026-05-21T12:02:04.999Z</time>
      </trkpt>
      <trkpt lat="43.77642" lon="3.82977">
        <ele>407.9</ele>
        <time>2026-05-21T12:02:05.999Z</time>
      </trkpt>
      <trkpt lat="43.77642" lon="3.82977">
        <ele>408</ele>
        <time>2026-05-21T12:02:06.999Z</time>
      </trkpt>
      <trkpt lat="43.77642" lon="3.82976">
        <ele>408.1</ele>
        <time>2026-05-21T12:02:07.999Z</time>
      </trkpt>
      <trkpt lat="43.77642" lon="3.82976">
        <ele>408.2</ele>
        <time>2026-05-21T12:02:08.999Z</time>
      </trkpt>
      <trkpt lat="43.77642" lon="3.82976">
        <ele>408.3</ele>
        <time>2026-05-21T12:02:09.999Z</time>
      </trkpt>
      <trkpt lat="43.77642" lon="3.82976">
        <ele>408.4</ele>
        <time>2026-05-21T12:02:10.999Z</time>
      </trkpt>
      <trkpt lat="43.77642" lon="3.82976">
        <ele>408.5</ele>
        <time>2026-05-21T12:02:11.999Z</time>
      </trkpt>
      <trkpt lat="43.77642" lon="3.82976">
        <ele>408.5</ele>
        <time>2026-05-21T12:02:12.999Z</time>
      </trkpt>
      <trkpt lat="43.77642" lon="3.82976">
        <ele>408.4</ele>
        <time>2026-05-21T12:02:13.999Z</time>
      </trkpt>
      <trkpt lat="43.77642" lon="3.82976">
        <ele>408.4</ele>
        <time>2026-05-21T12:02:14.999Z</time>
      </trkpt>
      <trkpt lat="43.77642" lon="3.82976">
        <ele>408.4</ele>
        <time>2026-05-21T12:02:15.999Z</time>
      </trkpt>
      <trkpt lat="43.77642" lon="3.82976">
        <ele>408.5</ele>
        <time>2026-05-21T12:02:16.999Z</time>
      </trkpt>
      <trkpt lat="43.77642" lon="3.82976">
        <ele>408.6</ele>
        <time>2026-05-21T12:02:17.999Z</time>
      </trkpt>
      <trkpt lat="43.77642" lon="3.82976">
        <ele>408.7</ele>
        <time>2026-05-21T12:02:19.999Z</time>
      </trkpt>
      <trkpt lat="43.77642" lon="3.82976">
        <ele>408.8</ele>
        <time>2026-05-21T12:02:20.999Z</time>
      </trkpt>
      <trkpt lat="43.77642" lon="3.82976">
        <ele>408.8</ele>
        <time>2026-05-21T12:02:21.999Z</time>
      </trkpt>
      <trkpt lat="43.77642" lon="3.82976">
        <ele>408.9</ele>
        <time>2026-05-21T12:02:22.999Z</time>
      </trkpt>
      <trkpt lat="43.77642" lon="3.82976">
        <ele>409</ele>
        <time>2026-05-21T12:02:23.999Z</time>
      </trkpt>
      <trkpt lat="43.77642" lon="3.82976">
        <ele>409</ele>
        <time>2026-05-21T12:02:24.999Z</time>
      </trkpt>
      <trkpt lat="43.77642" lon="3.82976">
        <ele>409.3</ele>
        <time>2026-05-21T12:02:25.999Z</time>
      </trkpt>
      <trkpt lat="43.77642" lon="3.82976">
        <ele>409.3</ele>
        <time>2026-05-21T12:02:26.999Z</time>
      </trkpt>
      <trkpt lat="43.77642" lon="3.82976">
        <ele>409.5</ele>
        <time>2026-05-21T12:02:27.999Z</time>
      </trkpt>
      <trkpt lat="43.77642" lon="3.82976">
        <ele>409.6</ele>
        <time>2026-05-21T12:02:28.999Z</time>
      </trkpt>
      <trkpt lat="43.77642" lon="3.82976">
        <ele>409.7</ele>
        <time>2026-05-21T12:02:29.999Z</time>
      </trkpt>
      <trkpt lat="43.77642" lon="3.82976">
        <ele>409.9</ele>
        <time>2026-05-21T12:02:30.999Z</time>
      </trkpt>
      <trkpt lat="43.77642" lon="3.82976">
        <ele>409.9</ele>
        <time>2026-05-21T12:02:31.999Z</time>
      </trkpt>
      <trkpt lat="43.77642" lon="3.82976">
        <ele>410.1</ele>
        <time>2026-05-21T12:02:32.999Z</time>
      </trkpt>
      <trkpt lat="43.77642" lon="3.82976">
        <ele>410.1</ele>
        <time>2026-05-21T12:02:33.999Z</time>
      </trkpt>
      <trkpt lat="43.77642" lon="3.82976">
        <ele>410.2</ele>
        <time>2026-05-21T12:02:34.999Z</time>
      </trkpt>
      <trkpt lat="43.77642" lon="3.82976">
        <ele>410.3</ele>
        <time>2026-05-21T12:02:35.999Z</time>
      </trkpt>
      <trkpt lat="43.77642" lon="3.82976">
        <ele>410.4</ele>
        <time>2026-05-21T12:02:36.999Z</time>
      </trkpt>
      <trkpt lat="43.77642" lon="3.82976">
        <ele>410.3</ele>
        <time>2026-05-21T12:02:37.999Z</time>
      </trkpt>
      <trkpt lat="43.77642" lon="3.82976">
        <ele>410.4</ele>
        <time>2026-05-21T12:02:38.999Z</time>
      </trkpt>
      <trkpt lat="43.77642" lon="3.82976">
        <ele>410.4</ele>
        <time>2026-05-21T12:02:39.999Z</time>
      </trkpt>
      <trkpt lat="43.77642" lon="3.82976">
        <ele>410.3</ele>
        <time>2026-05-21T12:02:40.999Z</time>
      </trkpt>
      <trkpt lat="43.77642" lon="3.82976">
        <ele>410.3</ele>
        <time>2026-05-21T12:02:41.999Z</time>
      </trkpt>
      <trkpt lat="43.77642" lon="3.82976">
        <ele>410.3</ele>
        <time>2026-05-21T12:02:42.999Z</time>
      </trkpt>
      <trkpt lat="43.77642" lon="3.82976">
        <ele>410.3</ele>
        <time>2026-05-21T12:02:43.999Z</time>
      </trkpt>
      <trkpt lat="43.77642" lon="3.82975">
        <ele>410.2</ele>
        <time>2026-05-21T12:02:44.999Z</time>
      </trkpt>
      <trkpt lat="43.77642" lon="3.82975">
        <ele>410.2</ele>
        <time>2026-05-21T12:02:45.999Z</time>
      </trkpt>
      <trkpt lat="43.77642" lon="3.82975">
        <ele>410.1</ele>
        <time>2026-05-21T12:02:46.999Z</time>
      </trkpt>
      <trkpt lat="43.77642" lon="3.82975">
        <ele>409.9</ele>
        <time>2026-05-21T12:02:47.999Z</time>
      </trkpt>
      <trkpt lat="43.77642" lon="3.82975">
        <ele>409.8</ele>
        <time>2026-05-21T12:02:48.999Z</time>
      </trkpt>
      <trkpt lat="43.77642" lon="3.82975">
        <ele>409.7</ele>
        <time>2026-05-21T12:02:49.999Z</time>
      </trkpt>
      <trkpt lat="43.77642" lon="3.82975">
        <ele>409.5</ele>
        <time>2026-05-21T12:02:50.999Z</time>
      </trkpt>
      <trkpt lat="43.77642" lon="3.82975">
        <ele>409.4</ele>
        <time>2026-05-21T12:02:51.999Z</time>
      </trkpt>
      <trkpt lat="43.77642" lon="3.82975">
        <ele>409.4</ele>
        <time>2026-05-21T12:02:52.999Z</time>
      </trkpt>
      <trkpt lat="43.77642" lon="3.82975">
        <ele>409.3</ele>
        <time>2026-05-21T12:02:53.999Z</time>
      </trkpt>
      <trkpt lat="43.77642" lon="3.82975">
        <ele>409.4</ele>
        <time>2026-05-21T12:02:54.999Z</time>
      </trkpt>
      <trkpt lat="43.77642" lon="3.82975">
        <ele>409.4</ele>
        <time>2026-05-21T12:02:55.999Z</time>
      </trkpt>
      <trkpt lat="43.77642" lon="3.82975">
        <ele>409.4</ele>
        <time>2026-05-21T12:02:56.999Z</time>
      </trkpt>
      <trkpt lat="43.77642" lon="3.82975">
        <ele>409.5</ele>
        <time>2026-05-21T12:02:57.999Z</time>
      </trkpt>
      <trkpt lat="43.77642" lon="3.82975">
        <ele>409.5</ele>
        <time>2026-05-21T12:02:58.999Z</time>
      </trkpt>
      <trkpt lat="43.77642" lon="3.82974">
        <ele>409.4</ele>
        <time>2026-05-21T12:02:59.999Z</time>
      </trkpt>
      <trkpt lat="43.77642" lon="3.82974">
        <ele>409.6</ele>
        <time>2026-05-21T12:03:00.999Z</time>
      </trkpt>
      <trkpt lat="43.77642" lon="3.82974">
        <ele>409.7</ele>
        <time>2026-05-21T12:03:01.999Z</time>
      </trkpt>
      <trkpt lat="43.77642" lon="3.82974">
        <ele>409.8</ele>
        <time>2026-05-21T12:03:02.999Z</time>
      </trkpt>
      <trkpt lat="43.77642" lon="3.82974">
        <ele>409.8</ele>
        <time>2026-05-21T12:03:03.999Z</time>
      </trkpt>
      <trkpt lat="43.77642" lon="3.82974">
        <ele>409.8</ele>
        <time>2026-05-21T12:03:04.999Z</time>
      </trkpt>
      <trkpt lat="43.77642" lon="3.82974">
        <ele>409.7</ele>
        <time>2026-05-21T12:03:05.999Z</time>
      </trkpt>
      <trkpt lat="43.77642" lon="3.82974">
        <ele>409.7</ele>
        <time>2026-05-21T12:03:06.999Z</time>
      </trkpt>
      <trkpt lat="43.77642" lon="3.82974">
        <ele>409.8</ele>
        <time>2026-05-21T12:03:07.999Z</time>
      </trkpt>
      <trkpt lat="43.77642" lon="3.82974">
        <ele>410.1</ele>
        <time>2026-05-21T12:03:08.999Z</time>
      </trkpt>
      <trkpt lat="43.77642" lon="3.82974">
        <ele>410.1</ele>
        <time>2026-05-21T12:03:09.999Z</time>
      </trkpt>
      <trkpt lat="43.77642" lon="3.82974">
        <ele>410.1</ele>
        <time>2026-05-21T12:03:10.999Z</time>
      </trkpt>
      <trkpt lat="43.77642" lon="3.82974">
        <ele>410.2</ele>
        <time>2026-05-21T12:03:11.999Z</time>
      </trkpt>
      <trkpt lat="43.77642" lon="3.82974">
        <ele>410.2</ele>
        <time>2026-05-21T12:03:12.999Z</time>
      </trkpt>
      <trkpt lat="43.77641" lon="3.82974">
        <ele>410.3</ele>
        <time>2026-05-21T12:03:13.999Z</time>
      </trkpt>
      <trkpt lat="43.77641" lon="3.82974">
        <ele>410.3</ele>
        <time>2026-05-21T12:03:14.999Z</time>
      </trkpt>
      <trkpt lat="43.77641" lon="3.82974">
        <ele>410.3</ele>
        <time>2026-05-21T12:03:15.999Z</time>
      </trkpt>
      <trkpt lat="43.77641" lon="3.82974">
        <ele>410.2</ele>
        <time>2026-05-21T12:03:16.999Z</time>
      </trkpt>
      <trkpt lat="43.77641" lon="3.82974">
        <ele>410.2</ele>
        <time>2026-05-21T12:03:17.999Z</time>
      </trkpt>
      <trkpt lat="43.77641" lon="3.82974">
        <ele>410</ele>
        <time>2026-05-21T12:03:18.999Z</time>
      </trkpt>
      <trkpt lat="43.77641" lon="3.82974">
        <ele>410.1</ele>
        <time>2026-05-21T12:03:19.999Z</time>
      </trkpt>
      <trkpt lat="43.77641" lon="3.82974">
        <ele>410.1</ele>
        <time>2026-05-21T12:03:20.999Z</time>
      </trkpt>
      <trkpt lat="43.77641" lon="3.82974">
        <ele>410.3</ele>
        <time>2026-05-21T12:03:21.999Z</time>
      </trkpt>
      <trkpt lat="43.77641" lon="3.82974">
        <ele>410.5</ele>
        <time>2026-05-21T12:03:22.999Z</time>
      </trkpt>
      <trkpt lat="43.77641" lon="3.82974">
        <ele>410.5</ele>
        <time>2026-05-21T12:03:23.999Z</time>
      </trkpt>
      <trkpt lat="43.77642" lon="3.82974">
        <ele>410.4</ele>
        <time>2026-05-21T12:03:24.999Z</time>
      </trkpt>
      <trkpt lat="43.77642" lon="3.82974">
        <ele>410.4</ele>
        <time>2026-05-21T12:03:25.999Z</time>
      </trkpt>
      <trkpt lat="43.77642" lon="3.82974">
        <ele>410.5</ele>
        <time>2026-05-21T12:03:26.999Z</time>
      </trkpt>
      <trkpt lat="43.77642" lon="3.82973">
        <ele>410.5</ele>
        <time>2026-05-21T12:03:27.999Z</time>
      </trkpt>
      <trkpt lat="43.77642" lon="3.82973">
        <ele>410.5</ele>
        <time>2026-05-21T12:03:28.999Z</time>
      </trkpt>
      <trkpt lat="43.77642" lon="3.82973">
        <ele>410.5</ele>
        <time>2026-05-21T12:03:29.999Z</time>
      </trkpt>
      <trkpt lat="43.77642" lon="3.82973">
        <ele>410.4</ele>
        <time>2026-05-21T12:03:30.999Z</time>
      </trkpt>
      <trkpt lat="43.77642" lon="3.82973">
        <ele>410.4</ele>
        <time>2026-05-21T12:03:31.999Z</time>
      </trkpt>
      <trkpt lat="43.77642" lon="3.82973">
        <ele>410.5</ele>
        <time>2026-05-21T12:03:32.999Z</time>
      </trkpt>
      <trkpt lat="43.77642" lon="3.82973">
        <ele>410.3</ele>
        <time>2026-05-21T12:03:33.999Z</time>
      </trkpt>
      <trkpt lat="43.77642" lon="3.82973">
        <ele>410.2</ele>
        <time>2026-05-21T12:03:34.999Z</time>
      </trkpt>
      <trkpt lat="43.77642" lon="3.82973">
        <ele>410.1</ele>
        <time>2026-05-21T12:03:35.999Z</time>
      </trkpt>
      <trkpt lat="43.77642" lon="3.82973">
        <ele>410.1</ele>
        <time>2026-05-21T12:03:36.999Z</time>
      </trkpt>
      <trkpt lat="43.77642" lon="3.82973">
        <ele>410.1</ele>
        <time>2026-05-21T12:03:37.999Z</time>
      </trkpt>
      <trkpt lat="43.77642" lon="3.82973">
        <ele>410.1</ele>
        <time>2026-05-21T12:03:38.999Z</time>
      </trkpt>
      <trkpt lat="43.77642" lon="3.82973">
        <ele>410.2</ele>
        <time>2026-05-21T12:03:39.999Z</time>
      </trkpt>
      <trkpt lat="43.77642" lon="3.82974">
        <ele>410.3</ele>
        <time>2026-05-21T12:03:40.999Z</time>
      </trkpt>
      <trkpt lat="43.77642" lon="3.82974">
        <ele>410.3</ele>
        <time>2026-05-21T12:03:41.999Z</time>
      </trkpt>
      <trkpt lat="43.77642" lon="3.82974">
        <ele>410.3</ele>
        <time>2026-05-21T12:03:42.999Z</time>
      </trkpt>
      <trkpt lat="43.77642" lon="3.82974">
        <ele>410.3</ele>
        <time>2026-05-21T12:03:43.999Z</time>
      </trkpt>
      <trkpt lat="43.77642" lon="3.82973">
        <ele>410.4</ele>
        <time>2026-05-21T12:03:44.999Z</time>
      </trkpt>
      <trkpt lat="43.77642" lon="3.82973">
        <ele>410.3</ele>
        <time>2026-05-21T12:03:45.999Z</time>
      </trkpt>
      <trkpt lat="43.77643" lon="3.82972">
        <ele>410.3</ele>
        <time>2026-05-21T12:03:46.999Z</time>
      </trkpt>
      <trkpt lat="43.77643" lon="3.82972">
        <ele>410.5</ele>
        <time>2026-05-21T12:03:47.999Z</time>
      </trkpt>
      <trkpt lat="43.77643" lon="3.82972">
        <ele>410.6</ele>
        <time>2026-05-21T12:03:48.999Z</time>
      </trkpt>
      <trkpt lat="43.77644" lon="3.82972">
        <ele>410.7</ele>
        <time>2026-05-21T12:03:49.999Z</time>
      </trkpt>
      <trkpt lat="43.77643" lon="3.82972">
        <ele>410.8</ele>
        <time>2026-05-21T12:03:50.999Z</time>
      </trkpt>
      <trkpt lat="43.77643" lon="3.82972">
        <ele>410.8</ele>
        <time>2026-05-21T12:03:51.999Z</time>
      </trkpt>
      <trkpt lat="43.77643" lon="3.82972">
        <ele>411</ele>
        <time>2026-05-21T12:03:52.999Z</time>
      </trkpt>
      <trkpt lat="43.77643" lon="3.82972">
        <ele>411.1</ele>
        <time>2026-05-21T12:03:53.999Z</time>
      </trkpt>
      <trkpt lat="43.77643" lon="3.82972">
        <ele>411.4</ele>
        <time>2026-05-21T12:03:54.999Z</time>
      </trkpt>
      <trkpt lat="43.77643" lon="3.82972">
        <ele>411.4</ele>
        <time>2026-05-21T12:03:55.999Z</time>
      </trkpt>
      <trkpt lat="43.77643" lon="3.82972">
        <ele>411.2</ele>
        <time>2026-05-21T12:03:56.999Z</time>
      </trkpt>
      <trkpt lat="43.77643" lon="3.82972">
        <ele>411.3</ele>
        <time>2026-05-21T12:03:57.999Z</time>
      </trkpt>
      <trkpt lat="43.77643" lon="3.82972">
        <ele>411.4</ele>
        <time>2026-05-21T12:03:58.999Z</time>
      </trkpt>
      <trkpt lat="43.77643" lon="3.82972">
        <ele>411.4</ele>
        <time>2026-05-21T12:03:59.999Z</time>
      </trkpt>
      <trkpt lat="43.77643" lon="3.82972">
        <ele>411.6</ele>
        <time>2026-05-21T12:04:00.999Z</time>
      </trkpt>
      <trkpt lat="43.77643" lon="3.82972">
        <ele>411.7</ele>
        <time>2026-05-21T12:04:01.999Z</time>
      </trkpt>
      <trkpt lat="43.77643" lon="3.82972">
        <ele>411.8</ele>
        <time>2026-05-21T12:04:02.999Z</time>
      </trkpt>
      <trkpt lat="43.77643" lon="3.82972">
        <ele>411.8</ele>
        <time>2026-05-21T12:04:03.999Z</time>
      </trkpt>
      <trkpt lat="43.77643" lon="3.82972">
        <ele>411.6</ele>
        <time>2026-05-21T12:04:04.999Z</time>
      </trkpt>
      <trkpt lat="43.77643" lon="3.82972">
        <ele>411.5</ele>
        <time>2026-05-21T12:04:05.999Z</time>
      </trkpt>
      <trkpt lat="43.77643" lon="3.82972">
        <ele>411.5</ele>
        <time>2026-05-21T12:04:06.999Z</time>
      </trkpt>
      <trkpt lat="43.77643" lon="3.82972">
        <ele>411.6</ele>
        <time>2026-05-21T12:04:07.999Z</time>
      </trkpt>
      <trkpt lat="43.77643" lon="3.82972">
        <ele>411.6</ele>
        <time>2026-05-21T12:04:08.999Z</time>
      </trkpt>
      <trkpt lat="43.77643" lon="3.82972">
        <ele>411.6</ele>
        <time>2026-05-21T12:04:09.999Z</time>
      </trkpt>
      <trkpt lat="43.77643" lon="3.82972">
        <ele>411.8</ele>
        <time>2026-05-21T12:04:10.999Z</time>
      </trkpt>
      <trkpt lat="43.77643" lon="3.82972">
        <ele>412</ele>
        <time>2026-05-21T12:04:11.999Z</time>
      </trkpt>
      <trkpt lat="43.77643" lon="3.82972">
        <ele>412.1</ele>
        <time>2026-05-21T12:04:12.999Z</time>
      </trkpt>
      <trkpt lat="43.77643" lon="3.82972">
        <ele>412.1</ele>
        <time>2026-05-21T12:04:13.999Z</time>
      </trkpt>
      <trkpt lat="43.77643" lon="3.82971">
        <ele>412</ele>
        <time>2026-05-21T12:04:14.999Z</time>
      </trkpt>
      <trkpt lat="43.77643" lon="3.82971">
        <ele>412</ele>
        <time>2026-05-21T12:04:15.999Z</time>
      </trkpt>
      <trkpt lat="43.77643" lon="3.82971">
        <ele>411.8</ele>
        <time>2026-05-21T12:04:16.999Z</time>
      </trkpt>
      <trkpt lat="43.77643" lon="3.82971">
        <ele>411.7</ele>
        <time>2026-05-21T12:04:17.999Z</time>
      </trkpt>
      <trkpt lat="43.77643" lon="3.82971">
        <ele>411.8</ele>
        <time>2026-05-21T12:04:18.999Z</time>
      </trkpt>
      <trkpt lat="43.77643" lon="3.82971">
        <ele>411.7</ele>
        <time>2026-05-21T12:04:19.999Z</time>
      </trkpt>
      <trkpt lat="43.77643" lon="3.82971">
        <ele>411.6</ele>
        <time>2026-05-21T12:04:20.999Z</time>
      </trkpt>
      <trkpt lat="43.77643" lon="3.82971">
        <ele>411.5</ele>
        <time>2026-05-21T12:04:21.999Z</time>
      </trkpt>
      <trkpt lat="43.77643" lon="3.82971">
        <ele>411.6</ele>
        <time>2026-05-21T12:04:22.999Z</time>
      </trkpt>
      <trkpt lat="43.77643" lon="3.82971">
        <ele>411.6</ele>
        <time>2026-05-21T12:04:23.999Z</time>
      </trkpt>
      <trkpt lat="43.77643" lon="3.82971">
        <ele>411.7</ele>
        <time>2026-05-21T12:04:24.999Z</time>
      </trkpt>
      <trkpt lat="43.77643" lon="3.82971">
        <ele>411.6</ele>
        <time>2026-05-21T12:04:25.999Z</time>
      </trkpt>
      <trkpt lat="43.77643" lon="3.82971">
        <ele>411.7</ele>
        <time>2026-05-21T12:04:26.999Z</time>
      </trkpt>
      <trkpt lat="43.77643" lon="3.82971">
        <ele>411.6</ele>
        <time>2026-05-21T12:04:27.999Z</time>
      </trkpt>
      <trkpt lat="43.77644" lon="3.82971">
        <ele>411.6</ele>
        <time>2026-05-21T12:04:28.999Z</time>
      </trkpt>
      <trkpt lat="43.77644" lon="3.8297">
        <ele>411.6</ele>
        <time>2026-05-21T12:04:29.999Z</time>
      </trkpt>
      <trkpt lat="43.77644" lon="3.8297">
        <ele>411.6</ele>
        <time>2026-05-21T12:04:30.999Z</time>
      </trkpt>
      <trkpt lat="43.77644" lon="3.8297">
        <ele>411.7</ele>
        <time>2026-05-21T12:04:31.999Z</time>
      </trkpt>
      <trkpt lat="43.77644" lon="3.8297">
        <ele>411.8</ele>
        <time>2026-05-21T12:04:32.999Z</time>
      </trkpt>
      <trkpt lat="43.77644" lon="3.8297">
        <ele>411.9</ele>
        <time>2026-05-21T12:04:33.999Z</time>
      </trkpt>
      <trkpt lat="43.77644" lon="3.82971">
        <ele>412.1</ele>
        <time>2026-05-21T12:04:34.999Z</time>
      </trkpt>
      <trkpt lat="43.77644" lon="3.82971">
        <ele>412.2</ele>
        <time>2026-05-21T12:04:35.999Z</time>
      </trkpt>
      <trkpt lat="43.77644" lon="3.82971">
        <ele>412.3</ele>
        <time>2026-05-21T12:04:36.999Z</time>
      </trkpt>
      <trkpt lat="43.77644" lon="3.82971">
        <ele>412.4</ele>
        <time>2026-05-21T12:04:37.999Z</time>
      </trkpt>
      <trkpt lat="43.77644" lon="3.82971">
        <ele>412.3</ele>
        <time>2026-05-21T12:04:38.999Z</time>
      </trkpt>
      <trkpt lat="43.77644" lon="3.82971">
        <ele>412.2</ele>
        <time>2026-05-21T12:04:39.999Z</time>
      </trkpt>
      <trkpt lat="43.77644" lon="3.82971">
        <ele>412.1</ele>
        <time>2026-05-21T12:04:40.999Z</time>
      </trkpt>
      <trkpt lat="43.77644" lon="3.82971">
        <ele>412.1</ele>
        <time>2026-05-21T12:04:41.999Z</time>
      </trkpt>
      <trkpt lat="43.77644" lon="3.82971">
        <ele>412</ele>
        <time>2026-05-21T12:04:42.999Z</time>
      </trkpt>
      <trkpt lat="43.77644" lon="3.82971">
        <ele>412</ele>
        <time>2026-05-21T12:04:43.999Z</time>
      </trkpt>
      <trkpt lat="43.77643" lon="3.82971">
        <ele>412.2</ele>
        <time>2026-05-21T12:04:44.999Z</time>
      </trkpt>
      <trkpt lat="43.77643" lon="3.82971">
        <ele>412.2</ele>
        <time>2026-05-21T12:04:45.999Z</time>
      </trkpt>
      <trkpt lat="43.77643" lon="3.82971">
        <ele>412.2</ele>
        <time>2026-05-21T12:04:46.999Z</time>
      </trkpt>
      <trkpt lat="43.77642" lon="3.8297">
        <ele>412</ele>
        <time>2026-05-21T12:04:48.999Z</time>
      </trkpt>
      <trkpt lat="43.77643" lon="3.8297">
        <ele>412.2</ele>
        <time>2026-05-21T12:04:49.999Z</time>
      </trkpt>
      <trkpt lat="43.77643" lon="3.8297">
        <ele>412.1</ele>
        <time>2026-05-21T12:04:50.999Z</time>
      </trkpt>
      <trkpt lat="43.77643" lon="3.8297">
        <ele>412</ele>
        <time>2026-05-21T12:04:51.999Z</time>
      </trkpt>
      <trkpt lat="43.77643" lon="3.8297">
        <ele>411.9</ele>
        <time>2026-05-21T12:04:52.999Z</time>
      </trkpt>
      <trkpt lat="43.77643" lon="3.8297">
        <ele>412</ele>
        <time>2026-05-21T12:04:53.999Z</time>
      </trkpt>
      <trkpt lat="43.77643" lon="3.8297">
        <ele>412.2</ele>
        <time>2026-05-21T12:04:54.999Z</time>
      </trkpt>
      <trkpt lat="43.77643" lon="3.8297">
        <ele>412.1</ele>
        <time>2026-05-21T12:04:55.999Z</time>
      </trkpt>
      <trkpt lat="43.77643" lon="3.8297">
        <ele>412</ele>
        <time>2026-05-21T12:04:56.999Z</time>
      </trkpt>
      <trkpt lat="43.77643" lon="3.8297">
        <ele>412</ele>
        <time>2026-05-21T12:04:57.999Z</time>
      </trkpt>
      <trkpt lat="43.77643" lon="3.8297">
        <ele>412</ele>
        <time>2026-05-21T12:04:58.999Z</time>
      </trkpt>
      <trkpt lat="43.77643" lon="3.8297">
        <ele>412</ele>
        <time>2026-05-21T12:04:59.999Z</time>
      </trkpt>
      <trkpt lat="43.77643" lon="3.8297">
        <ele>412.1</ele>
        <time>2026-05-21T12:05:00.999Z</time>
      </trkpt>
      <trkpt lat="43.77643" lon="3.8297">
        <ele>412.2</ele>
        <time>2026-05-21T12:05:01.999Z</time>
      </trkpt>
      <trkpt lat="43.77643" lon="3.8297">
        <ele>412.2</ele>
        <time>2026-05-21T12:05:02.999Z</time>
      </trkpt>
      <trkpt lat="43.77643" lon="3.8297">
        <ele>412.3</ele>
        <time>2026-05-21T12:05:03.999Z</time>
      </trkpt>
      <trkpt lat="43.77643" lon="3.8297">
        <ele>412.2</ele>
        <time>2026-05-21T12:05:04.999Z</time>
      </trkpt>
      <trkpt lat="43.77643" lon="3.8297">
        <ele>412.2</ele>
        <time>2026-05-21T12:05:05.999Z</time>
      </trkpt>
      <trkpt lat="43.77643" lon="3.8297">
        <ele>412.2</ele>
        <time>2026-05-21T12:05:06.999Z</time>
      </trkpt>
      <trkpt lat="43.77643" lon="3.8297">
        <ele>412.3</ele>
        <time>2026-05-21T12:05:07.999Z</time>
      </trkpt>
      <trkpt lat="43.77643" lon="3.8297">
        <ele>412.2</ele>
        <time>2026-05-21T12:05:08.999Z</time>
      </trkpt>
      <trkpt lat="43.77643" lon="3.8297">
        <ele>412.1</ele>
        <time>2026-05-21T12:05:09.999Z</time>
      </trkpt>
      <trkpt lat="43.77643" lon="3.8297">
        <ele>412.2</ele>
        <time>2026-05-21T12:05:10.999Z</time>
      </trkpt>
      <trkpt lat="43.77643" lon="3.8297">
        <ele>412.3</ele>
        <time>2026-05-21T12:05:11.999Z</time>
      </trkpt>
      <trkpt lat="43.77643" lon="3.8297">
        <ele>412.3</ele>
        <time>2026-05-21T12:05:12.999Z</time>
      </trkpt>
      <trkpt lat="43.77643" lon="3.8297">
        <ele>412.3</ele>
        <time>2026-05-21T12:05:13.999Z</time>
      </trkpt>
      <trkpt lat="43.77643" lon="3.8297">
        <ele>412.3</ele>
        <time>2026-05-21T12:05:14.999Z</time>
      </trkpt>
      <trkpt lat="43.77643" lon="3.8297">
        <ele>412.4</ele>
        <time>2026-05-21T12:05:15.999Z</time>
      </trkpt>
      <trkpt lat="43.77643" lon="3.8297">
        <ele>412.5</ele>
        <time>2026-05-21T12:05:16.999Z</time>
      </trkpt>
      <trkpt lat="43.77643" lon="3.8297">
        <ele>412.6</ele>
        <time>2026-05-21T12:05:17.999Z</time>
      </trkpt>
      <trkpt lat="43.77643" lon="3.8297">
        <ele>412.6</ele>
        <time>2026-05-21T12:05:18.999Z</time>
      </trkpt>
      <trkpt lat="43.77643" lon="3.8297">
        <ele>412.5</ele>
        <time>2026-05-21T12:05:19.999Z</time>
      </trkpt>
      <trkpt lat="43.77643" lon="3.8297">
        <ele>412.3</ele>
        <time>2026-05-21T12:05:20.999Z</time>
      </trkpt>
      <trkpt lat="43.77643" lon="3.8297">
        <ele>412.2</ele>
        <time>2026-05-21T12:05:21.999Z</time>
      </trkpt>
      <trkpt lat="43.77643" lon="3.8297">
        <ele>412.3</ele>
        <time>2026-05-21T12:05:22.999Z</time>
      </trkpt>
      <trkpt lat="43.77643" lon="3.8297">
        <ele>412.3</ele>
        <time>2026-05-21T12:05:23.999Z</time>
      </trkpt>
      <trkpt lat="43.77643" lon="3.8297">
        <ele>412.2</ele>
        <time>2026-05-21T12:05:24.999Z</time>
      </trkpt>
      <trkpt lat="43.77643" lon="3.8297">
        <ele>412.4</ele>
        <time>2026-05-21T12:05:25.999Z</time>
      </trkpt>
      <trkpt lat="43.77643" lon="3.8297">
        <ele>412.4</ele>
        <time>2026-05-21T12:05:26.999Z</time>
      </trkpt>
      <trkpt lat="43.77643" lon="3.8297">
        <ele>412.5</ele>
        <time>2026-05-21T12:05:27.999Z</time>
      </trkpt>
      <trkpt lat="43.77643" lon="3.8297">
        <ele>412.4</ele>
        <time>2026-05-21T12:05:29.999Z</time>
      </trkpt>
      <trkpt lat="43.77643" lon="3.8297">
        <ele>412.6</ele>
        <time>2026-05-21T12:05:30.999Z</time>
      </trkpt>
      <trkpt lat="43.77643" lon="3.8297">
        <ele>412.6</ele>
        <time>2026-05-21T12:05:31.999Z</time>
      </trkpt>
      <trkpt lat="43.77643" lon="3.8297">
        <ele>412.5</ele>
        <time>2026-05-21T12:05:32.999Z</time>
      </trkpt>
      <trkpt lat="43.77643" lon="3.8297">
        <ele>412.6</ele>
        <time>2026-05-21T12:05:33.999Z</time>
      </trkpt>
      <trkpt lat="43.77643" lon="3.8297">
        <ele>412.6</ele>
        <time>2026-05-21T12:05:34.999Z</time>
      </trkpt>
      <trkpt lat="43.77643" lon="3.8297">
        <ele>412.7</ele>
        <time>2026-05-21T12:05:35.999Z</time>
      </trkpt>
      <trkpt lat="43.77643" lon="3.8297">
        <ele>412.7</ele>
        <time>2026-05-21T12:05:36.999Z</time>
      </trkpt>
      <trkpt lat="43.77643" lon="3.8297">
        <ele>412.7</ele>
        <time>2026-05-21T12:05:37.999Z</time>
      </trkpt>
      <trkpt lat="43.77643" lon="3.8297">
        <ele>412.7</ele>
        <time>2026-05-21T12:05:38.999Z</time>
      </trkpt>
      <trkpt lat="43.77643" lon="3.8297">
        <ele>412.7</ele>
        <time>2026-05-21T12:05:39.999Z</time>
      </trkpt>
      <trkpt lat="43.77643" lon="3.8297">
        <ele>412.7</ele>
        <time>2026-05-21T12:05:40.999Z</time>
      </trkpt>
      <trkpt lat="43.77643" lon="3.8297">
        <ele>412.6</ele>
        <time>2026-05-21T12:05:41.999Z</time>
      </trkpt>
      <trkpt lat="43.77643" lon="3.8297">
        <ele>412.7</ele>
        <time>2026-05-21T12:05:42.999Z</time>
      </trkpt>
      <trkpt lat="43.77643" lon="3.8297">
        <ele>412.7</ele>
        <time>2026-05-21T12:05:43.999Z</time>
      </trkpt>
      <trkpt lat="43.77643" lon="3.8297">
        <ele>412.8</ele>
        <time>2026-05-21T12:05:44.999Z</time>
      </trkpt>
      <trkpt lat="43.77643" lon="3.8297">
        <ele>412.7</ele>
        <time>2026-05-21T12:05:45.999Z</time>
      </trkpt>
      <trkpt lat="43.77643" lon="3.8297">
        <ele>412.7</ele>
        <time>2026-05-21T12:05:46.999Z</time>
      </trkpt>
      <trkpt lat="43.77643" lon="3.8297">
        <ele>412.6</ele>
        <time>2026-05-21T12:05:47.999Z</time>
      </trkpt>
      <trkpt lat="43.77643" lon="3.8297">
        <ele>412.7</ele>
        <time>2026-05-21T12:05:48.999Z</time>
      </trkpt>
      <trkpt lat="43.77643" lon="3.8297">
        <ele>412.7</ele>
        <time>2026-05-21T12:05:49.999Z</time>
      </trkpt>
      <trkpt lat="43.77643" lon="3.8297">
        <ele>412.7</ele>
        <time>2026-05-21T12:05:50.999Z</time>
      </trkpt>
      <trkpt lat="43.77643" lon="3.8297">
        <ele>412.8</ele>
        <time>2026-05-21T12:05:51.999Z</time>
      </trkpt>
      <trkpt lat="43.77643" lon="3.8297">
        <ele>412.8</ele>
        <time>2026-05-21T12:05:52.999Z</time>
      </trkpt>
      <trkpt lat="43.77643" lon="3.8297">
        <ele>412.8</ele>
        <time>2026-05-21T12:05:53.999Z</time>
      </trkpt>
      <trkpt lat="43.77643" lon="3.8297">
        <ele>412.8</ele>
        <time>2026-05-21T12:05:54.999Z</time>
      </trkpt>
      <trkpt lat="43.77643" lon="3.8297">
        <ele>412.7</ele>
        <time>2026-05-21T12:05:55.999Z</time>
      </trkpt>
      <trkpt lat="43.77643" lon="3.8297">
        <ele>412.7</ele>
        <time>2026-05-21T12:05:56.999Z</time>
      </trkpt>
      <trkpt lat="43.77643" lon="3.8297">
        <ele>412.7</ele>
        <time>2026-05-21T12:05:57.999Z</time>
      </trkpt>
      <trkpt lat="43.77643" lon="3.8297">
        <ele>412.7</ele>
        <time>2026-05-21T12:05:58.999Z</time>
      </trkpt>
      <trkpt lat="43.77643" lon="3.8297">
        <ele>412.6</ele>
        <time>2026-05-21T12:05:59.999Z</time>
      </trkpt>
      <trkpt lat="43.77643" lon="3.8297">
        <ele>412.5</ele>
        <time>2026-05-21T12:06:00.999Z</time>
      </trkpt>
      <trkpt lat="43.77643" lon="3.8297">
        <ele>412.4</ele>
        <time>2026-05-21T12:06:01.999Z</time>
      </trkpt>
      <trkpt lat="43.77643" lon="3.8297">
        <ele>412.5</ele>
        <time>2026-05-21T12:06:02.999Z</time>
      </trkpt>
      <trkpt lat="43.77643" lon="3.8297">
        <ele>412.5</ele>
        <time>2026-05-21T12:06:03.999Z</time>
      </trkpt>
      <trkpt lat="43.77643" lon="3.82969">
        <ele>412.3</ele>
        <time>2026-05-21T12:06:04.999Z</time>
      </trkpt>
      <trkpt lat="43.77642" lon="3.82969">
        <ele>412.5</ele>
        <time>2026-05-21T12:06:05.999Z</time>
      </trkpt>
      <trkpt lat="43.77642" lon="3.82969">
        <ele>412.6</ele>
        <time>2026-05-21T12:06:06.999Z</time>
      </trkpt>
      <trkpt lat="43.77642" lon="3.82969">
        <ele>412.6</ele>
        <time>2026-05-21T12:06:07.999Z</time>
      </trkpt>
      <trkpt lat="43.77642" lon="3.82969">
        <ele>412.3</ele>
        <time>2026-05-21T12:06:08.999Z</time>
      </trkpt>
      <trkpt lat="43.77642" lon="3.82969">
        <ele>412.4</ele>
        <time>2026-05-21T12:06:09.999Z</time>
      </trkpt>
      <trkpt lat="43.77642" lon="3.82969">
        <ele>412.4</ele>
        <time>2026-05-21T12:06:10.999Z</time>
      </trkpt>
      <trkpt lat="43.77642" lon="3.82969">
        <ele>412.3</ele>
        <time>2026-05-21T12:06:11.999Z</time>
      </trkpt>
      <trkpt lat="43.77642" lon="3.82969">
        <ele>412.1</ele>
        <time>2026-05-21T12:06:12.999Z</time>
      </trkpt>
      <trkpt lat="43.77642" lon="3.82969">
        <ele>411.8</ele>
        <time>2026-05-21T12:06:13.999Z</time>
      </trkpt>
      <trkpt lat="43.77642" lon="3.82969">
        <ele>411.6</ele>
        <time>2026-05-21T12:06:14.999Z</time>
      </trkpt>
      <trkpt lat="43.77642" lon="3.82969">
        <ele>411.6</ele>
        <time>2026-05-21T12:06:15.999Z</time>
      </trkpt>
      <trkpt lat="43.77642" lon="3.82969">
        <ele>411.5</ele>
        <time>2026-05-21T12:06:16.999Z</time>
      </trkpt>
      <trkpt lat="43.77642" lon="3.82969">
        <ele>411.4</ele>
        <time>2026-05-21T12:06:17.999Z</time>
      </trkpt>
      <trkpt lat="43.77642" lon="3.82969">
        <ele>411.4</ele>
        <time>2026-05-21T12:06:18.999Z</time>
      </trkpt>
      <trkpt lat="43.77642" lon="3.82969">
        <ele>411.4</ele>
        <time>2026-05-21T12:06:19.999Z</time>
      </trkpt>
      <trkpt lat="43.77642" lon="3.82969">
        <ele>411.3</ele>
        <time>2026-05-21T12:06:20.999Z</time>
      </trkpt>
      <trkpt lat="43.77642" lon="3.82969">
        <ele>411.1</ele>
        <time>2026-05-21T12:06:21.999Z</time>
      </trkpt>
      <trkpt lat="43.77642" lon="3.82969">
        <ele>411.1</ele>
        <time>2026-05-21T12:06:22.999Z</time>
      </trkpt>
      <trkpt lat="43.77642" lon="3.82969">
        <ele>410.9</ele>
        <time>2026-05-21T12:06:23.999Z</time>
      </trkpt>
      <trkpt lat="43.77642" lon="3.82969">
        <ele>410.9</ele>
        <time>2026-05-21T12:06:24.999Z</time>
      </trkpt>
      <trkpt lat="43.77642" lon="3.82969">
        <ele>410.9</ele>
        <time>2026-05-21T12:06:25.999Z</time>
      </trkpt>
      <trkpt lat="43.77642" lon="3.82969">
        <ele>410.8</ele>
        <time>2026-05-21T12:06:26.999Z</time>
      </trkpt>
      <trkpt lat="43.77642" lon="3.82969">
        <ele>410.9</ele>
        <time>2026-05-21T12:06:27.999Z</time>
      </trkpt>
      <trkpt lat="43.77642" lon="3.82969">
        <ele>410.8</ele>
        <time>2026-05-21T12:06:28.999Z</time>
      </trkpt>
      <trkpt lat="43.77642" lon="3.82969">
        <ele>410.8</ele>
        <time>2026-05-21T12:06:29.999Z</time>
      </trkpt>
      <trkpt lat="43.77642" lon="3.82969">
        <ele>410.9</ele>
        <time>2026-05-21T12:06:30.999Z</time>
      </trkpt>
      <trkpt lat="43.77642" lon="3.8297">
        <ele>411.1</ele>
        <time>2026-05-21T12:06:32.999Z</time>
      </trkpt>
      <trkpt lat="43.77642" lon="3.8297">
        <ele>411.2</ele>
        <time>2026-05-21T12:06:33.999Z</time>
      </trkpt>
      <trkpt lat="43.77642" lon="3.8297">
        <ele>411.3</ele>
        <time>2026-05-21T12:06:34.999Z</time>
      </trkpt>
      <trkpt lat="43.77642" lon="3.82971">
        <ele>411.4</ele>
        <time>2026-05-21T12:06:35.999Z</time>
      </trkpt>
      <trkpt lat="43.77642" lon="3.82971">
        <ele>411.6</ele>
        <time>2026-05-21T12:06:36.999Z</time>
      </trkpt>
      <trkpt lat="43.77642" lon="3.82971">
        <ele>411.6</ele>
        <time>2026-05-21T12:06:37.999Z</time>
      </trkpt>
      <trkpt lat="43.77642" lon="3.82971">
        <ele>411.7</ele>
        <time>2026-05-21T12:06:38.999Z</time>
      </trkpt>
      <trkpt lat="43.77642" lon="3.82971">
        <ele>411.5</ele>
        <time>2026-05-21T12:06:39.999Z</time>
      </trkpt>
      <trkpt lat="43.77642" lon="3.82971">
        <ele>411.5</ele>
        <time>2026-05-21T12:06:40.999Z</time>
      </trkpt>
      <trkpt lat="43.77642" lon="3.82971">
        <ele>411.3</ele>
        <time>2026-05-21T12:06:41.999Z</time>
      </trkpt>
      <trkpt lat="43.77642" lon="3.82971">
        <ele>411.2</ele>
        <time>2026-05-21T12:06:42.999Z</time>
      </trkpt>
      <trkpt lat="43.77642" lon="3.82971">
        <ele>411</ele>
        <time>2026-05-21T12:06:43.999Z</time>
      </trkpt>
      <trkpt lat="43.77642" lon="3.82971">
        <ele>411</ele>
        <time>2026-05-21T12:06:44.999Z</time>
      </trkpt>
      <trkpt lat="43.77642" lon="3.82971">
        <ele>411.2</ele>
        <time>2026-05-21T12:06:45.999Z</time>
      </trkpt>
      <trkpt lat="43.77642" lon="3.82971">
        <ele>411</ele>
        <time>2026-05-21T12:06:46.999Z</time>
      </trkpt>
      <trkpt lat="43.77642" lon="3.82971">
        <ele>410.8</ele>
        <time>2026-05-21T12:06:47.999Z</time>
      </trkpt>
      <trkpt lat="43.77642" lon="3.82971">
        <ele>410.8</ele>
        <time>2026-05-21T12:06:48.999Z</time>
      </trkpt>
      <trkpt lat="43.77642" lon="3.82971">
        <ele>411</ele>
        <time>2026-05-21T12:06:49.999Z</time>
      </trkpt>
      <trkpt lat="43.77642" lon="3.82971">
        <ele>411.1</ele>
        <time>2026-05-21T12:06:50.999Z</time>
      </trkpt>
      <trkpt lat="43.77643" lon="3.8297">
        <ele>411.3</ele>
        <time>2026-05-21T12:06:51.999Z</time>
      </trkpt>
      <trkpt lat="43.77643" lon="3.8297">
        <ele>411.6</ele>
        <time>2026-05-21T12:06:52.999Z</time>
      </trkpt>
      <trkpt lat="43.77643" lon="3.8297">
        <ele>411.7</ele>
        <time>2026-05-21T12:06:53.999Z</time>
      </trkpt>
      <trkpt lat="43.77643" lon="3.8297">
        <ele>411.6</ele>
        <time>2026-05-21T12:06:54.999Z</time>
      </trkpt>
      <trkpt lat="43.77643" lon="3.8297">
        <ele>411.5</ele>
        <time>2026-05-21T12:06:55.999Z</time>
      </trkpt>
      <trkpt lat="43.77643" lon="3.8297">
        <ele>411.5</ele>
        <time>2026-05-21T12:06:56.999Z</time>
      </trkpt>
      <trkpt lat="43.77643" lon="3.8297">
        <ele>411.6</ele>
        <time>2026-05-21T12:06:57.999Z</time>
      </trkpt>
      <trkpt lat="43.77643" lon="3.8297">
        <ele>411.5</ele>
        <time>2026-05-21T12:06:58.999Z</time>
      </trkpt>
      <trkpt lat="43.77643" lon="3.8297">
        <ele>411.4</ele>
        <time>2026-05-21T12:06:59.999Z</time>
      </trkpt>
      <trkpt lat="43.77643" lon="3.8297">
        <ele>411.1</ele>
        <time>2026-05-21T12:07:00.999Z</time>
      </trkpt>
      <trkpt lat="43.77643" lon="3.8297">
        <ele>411</ele>
        <time>2026-05-21T12:07:01.999Z</time>
      </trkpt>
      <trkpt lat="43.77643" lon="3.8297">
        <ele>411</ele>
        <time>2026-05-21T12:07:03.000Z</time>
      </trkpt>
      <trkpt lat="43.77643" lon="3.8297">
        <ele>410.7</ele>
        <time>2026-05-21T12:07:04.000Z</time>
      </trkpt>
      <trkpt lat="43.77643" lon="3.8297">
        <ele>410.6</ele>
        <time>2026-05-21T12:07:05.000Z</time>
      </trkpt>
      <trkpt lat="43.77643" lon="3.8297">
        <ele>410.5</ele>
        <time>2026-05-21T12:07:06.000Z</time>
      </trkpt>
      <trkpt lat="43.77643" lon="3.8297">
        <ele>410.3</ele>
        <time>2026-05-21T12:07:07.000Z</time>
      </trkpt>
      <trkpt lat="43.77643" lon="3.8297">
        <ele>410.5</ele>
        <time>2026-05-21T12:07:08.000Z</time>
      </trkpt>
      <trkpt lat="43.77643" lon="3.8297">
        <ele>410.6</ele>
        <time>2026-05-21T12:07:09.000Z</time>
      </trkpt>
      <trkpt lat="43.77643" lon="3.8297">
        <ele>410.7</ele>
        <time>2026-05-21T12:07:10.000Z</time>
      </trkpt>
      <trkpt lat="43.77643" lon="3.8297">
        <ele>410.6</ele>
        <time>2026-05-21T12:07:11.000Z</time>
      </trkpt>
      <trkpt lat="43.77643" lon="3.8297">
        <ele>410.7</ele>
        <time>2026-05-21T12:07:12.000Z</time>
      </trkpt>
      <trkpt lat="43.77643" lon="3.8297">
        <ele>410.8</ele>
        <time>2026-05-21T12:07:13.000Z</time>
      </trkpt>
      <trkpt lat="43.77643" lon="3.8297">
        <ele>410.9</ele>
        <time>2026-05-21T12:07:14.000Z</time>
      </trkpt>
      <trkpt lat="43.77643" lon="3.8297">
        <ele>411.1</ele>
        <time>2026-05-21T12:07:15.000Z</time>
      </trkpt>
      <trkpt lat="43.77643" lon="3.8297">
        <ele>411.3</ele>
        <time>2026-05-21T12:07:16.000Z</time>
      </trkpt>
      <trkpt lat="43.77643" lon="3.82971">
        <ele>411.3</ele>
        <time>2026-05-21T12:07:17.000Z</time>
      </trkpt>
      <trkpt lat="43.77643" lon="3.8297">
        <ele>411.5</ele>
        <time>2026-05-21T12:07:18.000Z</time>
      </trkpt>
      <trkpt lat="43.77643" lon="3.8297">
        <ele>411.3</ele>
        <time>2026-05-21T12:07:19.000Z</time>
      </trkpt>
      <trkpt lat="43.77643" lon="3.8297">
        <ele>411.4</ele>
        <time>2026-05-21T12:07:20.000Z</time>
      </trkpt>
      <trkpt lat="43.77643" lon="3.8297">
        <ele>411.4</ele>
        <time>2026-05-21T12:07:21.000Z</time>
      </trkpt>
      <trkpt lat="43.77643" lon="3.8297">
        <ele>411.5</ele>
        <time>2026-05-21T12:07:22.000Z</time>
      </trkpt>
      <trkpt lat="43.77643" lon="3.8297">
        <ele>411.7</ele>
        <time>2026-05-21T12:07:23.000Z</time>
      </trkpt>
      <trkpt lat="43.77643" lon="3.8297">
        <ele>411.7</ele>
        <time>2026-05-21T12:07:24.000Z</time>
      </trkpt>
      <trkpt lat="43.77643" lon="3.8297">
        <ele>411.5</ele>
        <time>2026-05-21T12:07:25.000Z</time>
      </trkpt>
      <trkpt lat="43.77643" lon="3.8297">
        <ele>411.5</ele>
        <time>2026-05-21T12:07:26.000Z</time>
      </trkpt>
      <trkpt lat="43.77643" lon="3.8297">
        <ele>411.5</ele>
        <time>2026-05-21T12:07:27.000Z</time>
      </trkpt>
      <trkpt lat="43.77643" lon="3.8297">
        <ele>411.6</ele>
        <time>2026-05-21T12:07:28.000Z</time>
      </trkpt>
      <trkpt lat="43.77644" lon="3.8297">
        <ele>411.7</ele>
        <time>2026-05-21T12:07:29.000Z</time>
      </trkpt>
      <trkpt lat="43.77644" lon="3.8297">
        <ele>411.8</ele>
        <time>2026-05-21T12:07:30.000Z</time>
      </trkpt>
      <trkpt lat="43.77644" lon="3.8297">
        <ele>411.9</ele>
        <time>2026-05-21T12:07:31.000Z</time>
      </trkpt>
      <trkpt lat="43.77644" lon="3.8297">
        <ele>411.9</ele>
        <time>2026-05-21T12:07:32.000Z</time>
      </trkpt>
      <trkpt lat="43.77644" lon="3.8297">
        <ele>411.9</ele>
        <time>2026-05-21T12:07:33.000Z</time>
      </trkpt>
      <trkpt lat="43.77644" lon="3.8297">
        <ele>411.7</ele>
        <time>2026-05-21T12:07:34.000Z</time>
      </trkpt>
      <trkpt lat="43.77644" lon="3.8297">
        <ele>411.7</ele>
        <time>2026-05-21T12:07:35.000Z</time>
      </trkpt>
      <trkpt lat="43.77644" lon="3.8297">
        <ele>411.7</ele>
        <time>2026-05-21T12:07:36.000Z</time>
      </trkpt>
      <trkpt lat="43.77643" lon="3.8297">
        <ele>411.7</ele>
        <time>2026-05-21T12:07:37.000Z</time>
      </trkpt>
      <trkpt lat="43.77643" lon="3.8297">
        <ele>411.7</ele>
        <time>2026-05-21T12:07:38.000Z</time>
      </trkpt>
      <trkpt lat="43.77643" lon="3.8297">
        <ele>411.8</ele>
        <time>2026-05-21T12:07:39.000Z</time>
      </trkpt>
      <trkpt lat="43.77643" lon="3.8297">
        <ele>411.9</ele>
        <time>2026-05-21T12:07:40.000Z</time>
      </trkpt>
      <trkpt lat="43.77643" lon="3.8297">
        <ele>412</ele>
        <time>2026-05-21T12:07:41.000Z</time>
      </trkpt>
      <trkpt lat="43.77643" lon="3.8297">
        <ele>412.1</ele>
        <time>2026-05-21T12:07:42.000Z</time>
      </trkpt>
      <trkpt lat="43.77643" lon="3.8297">
        <ele>412.1</ele>
        <time>2026-05-21T12:07:43.000Z</time>
      </trkpt>
      <trkpt lat="43.77643" lon="3.8297">
        <ele>412.1</ele>
        <time>2026-05-21T12:07:44.000Z</time>
      </trkpt>
      <trkpt lat="43.77643" lon="3.8297">
        <ele>412.1</ele>
        <time>2026-05-21T12:07:45.000Z</time>
      </trkpt>
      <trkpt lat="43.77643" lon="3.8297">
        <ele>412.3</ele>
        <time>2026-05-21T12:07:46.000Z</time>
      </trkpt>
      <trkpt lat="43.77643" lon="3.8297">
        <ele>412.3</ele>
        <time>2026-05-21T12:07:47.000Z</time>
      </trkpt>
      <trkpt lat="43.77643" lon="3.8297">
        <ele>412.4</ele>
        <time>2026-05-21T12:07:48.000Z</time>
      </trkpt>
      <trkpt lat="43.77643" lon="3.8297">
        <ele>412.4</ele>
        <time>2026-05-21T12:07:49.000Z</time>
      </trkpt>
      <trkpt lat="43.77643" lon="3.8297">
        <ele>412.4</ele>
        <time>2026-05-21T12:07:50.000Z</time>
      </trkpt>
      <trkpt lat="43.77643" lon="3.8297">
        <ele>412.3</ele>
        <time>2026-05-21T12:07:51.000Z</time>
      </trkpt>
      <trkpt lat="43.77643" lon="3.8297">
        <ele>412.3</ele>
        <time>2026-05-21T12:07:52.000Z</time>
      </trkpt>
      <trkpt lat="43.77643" lon="3.8297">
        <ele>412.4</ele>
        <time>2026-05-21T12:07:53.000Z</time>
      </trkpt>
      <trkpt lat="43.77643" lon="3.8297">
        <ele>412.4</ele>
        <time>2026-05-21T12:07:54.000Z</time>
      </trkpt>
      <trkpt lat="43.77643" lon="3.8297">
        <ele>412.5</ele>
        <time>2026-05-21T12:07:55.000Z</time>
      </trkpt>
      <trkpt lat="43.77643" lon="3.8297">
        <ele>412.6</ele>
        <time>2026-05-21T12:07:56.000Z</time>
      </trkpt>
      <trkpt lat="43.77643" lon="3.8297">
        <ele>412.7</ele>
        <time>2026-05-21T12:07:57.000Z</time>
      </trkpt>
      <trkpt lat="43.77643" lon="3.8297">
        <ele>412.8</ele>
        <time>2026-05-21T12:07:58.000Z</time>
      </trkpt>
      <trkpt lat="43.77643" lon="3.8297">
        <ele>412.8</ele>
        <time>2026-05-21T12:07:59.000Z</time>
      </trkpt>
      <trkpt lat="43.77644" lon="3.8297">
        <ele>413.1</ele>
        <time>2026-05-21T12:08:00.000Z</time>
      </trkpt>
      <trkpt lat="43.77644" lon="3.8297">
        <ele>413</ele>
        <time>2026-05-21T12:08:01.000Z</time>
      </trkpt>
      <trkpt lat="43.77644" lon="3.8297">
        <ele>412.9</ele>
        <time>2026-05-21T12:08:02.000Z</time>
      </trkpt>
      <trkpt lat="43.77644" lon="3.8297">
        <ele>412.9</ele>
        <time>2026-05-21T12:08:03.000Z</time>
      </trkpt>
      <trkpt lat="43.77644" lon="3.82969">
        <ele>413</ele>
        <time>2026-05-21T12:08:04.000Z</time>
      </trkpt>
      <trkpt lat="43.77645" lon="3.82969">
        <ele>413</ele>
        <time>2026-05-21T12:08:05.000Z</time>
      </trkpt>
      <trkpt lat="43.77645" lon="3.82969">
        <ele>412.9</ele>
        <time>2026-05-21T12:08:06.000Z</time>
      </trkpt>
      <trkpt lat="43.77645" lon="3.82969">
        <ele>412.9</ele>
        <time>2026-05-21T12:08:07.000Z</time>
      </trkpt>
      <trkpt lat="43.77645" lon="3.82969">
        <ele>412.8</ele>
        <time>2026-05-21T12:08:08.000Z</time>
      </trkpt>
      <trkpt lat="43.77645" lon="3.82969">
        <ele>412.6</ele>
        <time>2026-05-21T12:08:10.000Z</time>
      </trkpt>
      <trkpt lat="43.77645" lon="3.8297">
        <ele>412.6</ele>
        <time>2026-05-21T12:08:11.000Z</time>
      </trkpt>
      <trkpt lat="43.77644" lon="3.8297">
        <ele>412.4</ele>
        <time>2026-05-21T12:08:12.000Z</time>
      </trkpt>
      <trkpt lat="43.77644" lon="3.8297">
        <ele>412.6</ele>
        <time>2026-05-21T12:08:13.000Z</time>
      </trkpt>
      <trkpt lat="43.77644" lon="3.8297">
        <ele>412.5</ele>
        <time>2026-05-21T12:08:14.000Z</time>
      </trkpt>
      <trkpt lat="43.77644" lon="3.8297">
        <ele>412.3</ele>
        <time>2026-05-21T12:08:15.000Z</time>
      </trkpt>
      <trkpt lat="43.77644" lon="3.8297">
        <ele>412.2</ele>
        <time>2026-05-21T12:08:16.000Z</time>
      </trkpt>
      <trkpt lat="43.77644" lon="3.8297">
        <ele>412</ele>
        <time>2026-05-21T12:08:17.000Z</time>
      </trkpt>
      <trkpt lat="43.77644" lon="3.8297">
        <ele>411.8</ele>
        <time>2026-05-21T12:08:18.000Z</time>
      </trkpt>
      <trkpt lat="43.77644" lon="3.8297">
        <ele>411.8</ele>
        <time>2026-05-21T12:08:19.000Z</time>
      </trkpt>
      <trkpt lat="43.77644" lon="3.8297">
        <ele>411.8</ele>
        <time>2026-05-21T12:08:20.000Z</time>
      </trkpt>
      <trkpt lat="43.77644" lon="3.8297">
        <ele>412</ele>
        <time>2026-05-21T12:08:21.000Z</time>
      </trkpt>
      <trkpt lat="43.77644" lon="3.8297">
        <ele>412</ele>
        <time>2026-05-21T12:08:22.000Z</time>
      </trkpt>
      <trkpt lat="43.77644" lon="3.8297">
        <ele>412</ele>
        <time>2026-05-21T12:08:23.000Z</time>
      </trkpt>
      <trkpt lat="43.77644" lon="3.8297">
        <ele>412</ele>
        <time>2026-05-21T12:08:24.000Z</time>
      </trkpt>
      <trkpt lat="43.77644" lon="3.8297">
        <ele>412</ele>
        <time>2026-05-21T12:08:25.000Z</time>
      </trkpt>
      <trkpt lat="43.77644" lon="3.8297">
        <ele>411.9</ele>
        <time>2026-05-21T12:08:26.000Z</time>
      </trkpt>
      <trkpt lat="43.77644" lon="3.8297">
        <ele>411.7</ele>
        <time>2026-05-21T12:08:27.000Z</time>
      </trkpt>
      <trkpt lat="43.77644" lon="3.8297">
        <ele>411.8</ele>
        <time>2026-05-21T12:08:28.000Z</time>
      </trkpt>
      <trkpt lat="43.77644" lon="3.8297">
        <ele>411.9</ele>
        <time>2026-05-21T12:08:29.000Z</time>
      </trkpt>
      <trkpt lat="43.77644" lon="3.8297">
        <ele>412</ele>
        <time>2026-05-21T12:08:30.000Z</time>
      </trkpt>
      <trkpt lat="43.77644" lon="3.8297">
        <ele>411.9</ele>
        <time>2026-05-21T12:08:31.000Z</time>
      </trkpt>
      <trkpt lat="43.77644" lon="3.8297">
        <ele>411.9</ele>
        <time>2026-05-21T12:08:32.000Z</time>
      </trkpt>
      <trkpt lat="43.77644" lon="3.8297">
        <ele>412</ele>
        <time>2026-05-21T12:08:33.000Z</time>
      </trkpt>
      <trkpt lat="43.77644" lon="3.8297">
        <ele>411.9</ele>
        <time>2026-05-21T12:08:34.000Z</time>
      </trkpt>
      <trkpt lat="43.77644" lon="3.8297">
        <ele>412</ele>
        <time>2026-05-21T12:08:35.000Z</time>
      </trkpt>
      <trkpt lat="43.77644" lon="3.8297">
        <ele>412.2</ele>
        <time>2026-05-21T12:08:36.000Z</time>
      </trkpt>
      <trkpt lat="43.77644" lon="3.8297">
        <ele>412.5</ele>
        <time>2026-05-21T12:08:37.000Z</time>
      </trkpt>
      <trkpt lat="43.77644" lon="3.8297">
        <ele>412.5</ele>
        <time>2026-05-21T12:08:38.000Z</time>
      </trkpt>
      <trkpt lat="43.77644" lon="3.8297">
        <ele>412.3</ele>
        <time>2026-05-21T12:08:39.000Z</time>
      </trkpt>
      <trkpt lat="43.77644" lon="3.8297">
        <ele>412.3</ele>
        <time>2026-05-21T12:08:40.000Z</time>
      </trkpt>
      <trkpt lat="43.77644" lon="3.8297">
        <ele>412.2</ele>
        <time>2026-05-21T12:08:41.000Z</time>
      </trkpt>
      <trkpt lat="43.77644" lon="3.8297">
        <ele>412</ele>
        <time>2026-05-21T12:08:42.000Z</time>
      </trkpt>
      <trkpt lat="43.77644" lon="3.8297">
        <ele>412</ele>
        <time>2026-05-21T12:08:43.000Z</time>
      </trkpt>
      <trkpt lat="43.77644" lon="3.8297">
        <ele>412.1</ele>
        <time>2026-05-21T12:08:44.000Z</time>
      </trkpt>
      <trkpt lat="43.77644" lon="3.8297">
        <ele>412</ele>
        <time>2026-05-21T12:08:45.000Z</time>
      </trkpt>
      <trkpt lat="43.77644" lon="3.8297">
        <ele>411.9</ele>
        <time>2026-05-21T12:08:46.000Z</time>
      </trkpt>
      <trkpt lat="43.77644" lon="3.8297">
        <ele>411.8</ele>
        <time>2026-05-21T12:08:47.000Z</time>
      </trkpt>
      <trkpt lat="43.77644" lon="3.8297">
        <ele>411.7</ele>
        <time>2026-05-21T12:08:48.000Z</time>
      </trkpt>
      <trkpt lat="43.77643" lon="3.82971">
        <ele>412</ele>
        <time>2026-05-21T12:08:49.000Z</time>
      </trkpt>
      <trkpt lat="43.77644" lon="3.8297">
        <ele>411.8</ele>
        <time>2026-05-21T12:08:50.000Z</time>
      </trkpt>
      <trkpt lat="43.77644" lon="3.8297">
        <ele>411.5</ele>
        <time>2026-05-21T12:08:51.000Z</time>
      </trkpt>
      <trkpt lat="43.77644" lon="3.8297">
        <ele>411.3</ele>
        <time>2026-05-21T12:08:52.000Z</time>
      </trkpt>
      <trkpt lat="43.77644" lon="3.8297">
        <ele>411.2</ele>
        <time>2026-05-21T12:08:53.000Z</time>
      </trkpt>
      <trkpt lat="43.77644" lon="3.8297">
        <ele>411.3</ele>
        <time>2026-05-21T12:08:54.000Z</time>
      </trkpt>
      <trkpt lat="43.77644" lon="3.8297">
        <ele>411.3</ele>
        <time>2026-05-21T12:08:55.000Z</time>
      </trkpt>
      <trkpt lat="43.77644" lon="3.8297">
        <ele>411.5</ele>
        <time>2026-05-21T12:08:56.000Z</time>
      </trkpt>
      <trkpt lat="43.77644" lon="3.8297">
        <ele>411.7</ele>
        <time>2026-05-21T12:08:57.000Z</time>
      </trkpt>
      <trkpt lat="43.77644" lon="3.8297">
        <ele>411.7</ele>
        <time>2026-05-21T12:08:58.000Z</time>
      </trkpt>
      <trkpt lat="43.77644" lon="3.8297">
        <ele>411.7</ele>
        <time>2026-05-21T12:08:59.000Z</time>
      </trkpt>
      <trkpt lat="43.77644" lon="3.8297">
        <ele>411.9</ele>
        <time>2026-05-21T12:09:00.000Z</time>
      </trkpt>
      <trkpt lat="43.77644" lon="3.8297">
        <ele>412</ele>
        <time>2026-05-21T12:09:01.000Z</time>
      </trkpt>
      <trkpt lat="43.77644" lon="3.8297">
        <ele>411.9</ele>
        <time>2026-05-21T12:09:02.000Z</time>
      </trkpt>
      <trkpt lat="43.77644" lon="3.8297">
        <ele>411.8</ele>
        <time>2026-05-21T12:09:03.000Z</time>
      </trkpt>
      <trkpt lat="43.77644" lon="3.8297">
        <ele>411.9</ele>
        <time>2026-05-21T12:09:04.000Z</time>
      </trkpt>
      <trkpt lat="43.77644" lon="3.8297">
        <ele>411.9</ele>
        <time>2026-05-21T12:09:05.000Z</time>
      </trkpt>
      <trkpt lat="43.77644" lon="3.8297">
        <ele>412</ele>
        <time>2026-05-21T12:09:06.000Z</time>
      </trkpt>
      <trkpt lat="43.77644" lon="3.8297">
        <ele>412.2</ele>
        <time>2026-05-21T12:09:07.000Z</time>
      </trkpt>
      <trkpt lat="43.77644" lon="3.8297">
        <ele>412.3</ele>
        <time>2026-05-21T12:09:08.000Z</time>
      </trkpt>
      <trkpt lat="43.77644" lon="3.8297">
        <ele>412.1</ele>
        <time>2026-05-21T12:09:09.000Z</time>
      </trkpt>
      <trkpt lat="43.77644" lon="3.8297">
        <ele>411.9</ele>
        <time>2026-05-21T12:09:10.000Z</time>
      </trkpt>
      <trkpt lat="43.77644" lon="3.8297">
        <ele>411.7</ele>
        <time>2026-05-21T12:09:11.000Z</time>
      </trkpt>
      <trkpt lat="43.77644" lon="3.8297">
        <ele>411.5</ele>
        <time>2026-05-21T12:09:12.000Z</time>
      </trkpt>
      <trkpt lat="43.77644" lon="3.8297">
        <ele>411.4</ele>
        <time>2026-05-21T12:09:13.000Z</time>
      </trkpt>
      <trkpt lat="43.77644" lon="3.8297">
        <ele>411.6</ele>
        <time>2026-05-21T12:09:14.000Z</time>
      </trkpt>
      <trkpt lat="43.77644" lon="3.8297">
        <ele>411.6</ele>
        <time>2026-05-21T12:09:15.000Z</time>
      </trkpt>
      <trkpt lat="43.77644" lon="3.82969">
        <ele>411.2</ele>
        <time>2026-05-21T12:09:16.000Z</time>
      </trkpt>
      <trkpt lat="43.77644" lon="3.82969">
        <ele>411.1</ele>
        <time>2026-05-21T12:09:17.000Z</time>
      </trkpt>
      <trkpt lat="43.77644" lon="3.82969">
        <ele>411</ele>
        <time>2026-05-21T12:09:18.000Z</time>
      </trkpt>
      <trkpt lat="43.77644" lon="3.82969">
        <ele>411.1</ele>
        <time>2026-05-21T12:09:19.000Z</time>
      </trkpt>
      <trkpt lat="43.77644" lon="3.82969">
        <ele>411</ele>
        <time>2026-05-21T12:09:20.000Z</time>
      </trkpt>
      <trkpt lat="43.77644" lon="3.82969">
        <ele>411.2</ele>
        <time>2026-05-21T12:09:21.000Z</time>
      </trkpt>
      <trkpt lat="43.77644" lon="3.82969">
        <ele>411.3</ele>
        <time>2026-05-21T12:09:22.000Z</time>
      </trkpt>
      <trkpt lat="43.77644" lon="3.82969">
        <ele>411.4</ele>
        <time>2026-05-21T12:09:23.000Z</time>
      </trkpt>
      <trkpt lat="43.77644" lon="3.82969">
        <ele>411.1</ele>
        <time>2026-05-21T12:09:24.000Z</time>
      </trkpt>
      <trkpt lat="43.77644" lon="3.82969">
        <ele>410.9</ele>
        <time>2026-05-21T12:09:25.000Z</time>
      </trkpt>
      <trkpt lat="43.77644" lon="3.82969">
        <ele>410.8</ele>
        <time>2026-05-21T12:09:26.000Z</time>
      </trkpt>
      <trkpt lat="43.77644" lon="3.82969">
        <ele>410.7</ele>
        <time>2026-05-21T12:09:27.000Z</time>
      </trkpt>
      <trkpt lat="43.77644" lon="3.82969">
        <ele>410.9</ele>
        <time>2026-05-21T12:09:28.000Z</time>
      </trkpt>
      <trkpt lat="43.77644" lon="3.82969">
        <ele>411.1</ele>
        <time>2026-05-21T12:09:29.000Z</time>
      </trkpt>
      <trkpt lat="43.77644" lon="3.82969">
        <ele>411.3</ele>
        <time>2026-05-21T12:09:30.000Z</time>
      </trkpt>
      <trkpt lat="43.77644" lon="3.82969">
        <ele>411.4</ele>
        <time>2026-05-21T12:09:31.000Z</time>
      </trkpt>
      <trkpt lat="43.77644" lon="3.82969">
        <ele>411.3</ele>
        <time>2026-05-21T12:09:32.000Z</time>
      </trkpt>
      <trkpt lat="43.77644" lon="3.82969">
        <ele>411.4</ele>
        <time>2026-05-21T12:09:33.000Z</time>
      </trkpt>
      <trkpt lat="43.77644" lon="3.82969">
        <ele>411.4</ele>
        <time>2026-05-21T12:09:34.000Z</time>
      </trkpt>
      <trkpt lat="43.77644" lon="3.82969">
        <ele>411.4</ele>
        <time>2026-05-21T12:09:35.000Z</time>
      </trkpt>
      <trkpt lat="43.77644" lon="3.82969">
        <ele>411.6</ele>
        <time>2026-05-21T12:09:36.000Z</time>
      </trkpt>
      <trkpt lat="43.77644" lon="3.82969">
        <ele>411.5</ele>
        <time>2026-05-21T12:09:37.000Z</time>
      </trkpt>
      <trkpt lat="43.77644" lon="3.82969">
        <ele>411.5</ele>
        <time>2026-05-21T12:09:38.000Z</time>
      </trkpt>
      <trkpt lat="43.77644" lon="3.82969">
        <ele>411.4</ele>
        <time>2026-05-21T12:09:39.000Z</time>
      </trkpt>
      <trkpt lat="43.77644" lon="3.82969">
        <ele>411.4</ele>
        <time>2026-05-21T12:09:40.000Z</time>
      </trkpt>
      <trkpt lat="43.77644" lon="3.82969">
        <ele>411.2</ele>
        <time>2026-05-21T12:09:41.000Z</time>
      </trkpt>
      <trkpt lat="43.77644" lon="3.82969">
        <ele>411.2</ele>
        <time>2026-05-21T12:09:42.000Z</time>
      </trkpt>
      <trkpt lat="43.77644" lon="3.82969">
        <ele>411.4</ele>
        <time>2026-05-21T12:09:43.000Z</time>
      </trkpt>
      <trkpt lat="43.77644" lon="3.82969">
        <ele>411.5</ele>
        <time>2026-05-21T12:09:44.000Z</time>
      </trkpt>
      <trkpt lat="43.77644" lon="3.82969">
        <ele>411.5</ele>
        <time>2026-05-21T12:09:45.000Z</time>
      </trkpt>
      <trkpt lat="43.77644" lon="3.82969">
        <ele>411.4</ele>
        <time>2026-05-21T12:09:46.000Z</time>
      </trkpt>
      <trkpt lat="43.77644" lon="3.82969">
        <ele>411.3</ele>
        <time>2026-05-21T12:09:47.000Z</time>
      </trkpt>
      <trkpt lat="43.77644" lon="3.82969">
        <ele>411.3</ele>
        <time>2026-05-21T12:09:48.000Z</time>
      </trkpt>
      <trkpt lat="43.77644" lon="3.82969">
        <ele>411.2</ele>
        <time>2026-05-21T12:09:49.000Z</time>
      </trkpt>
      <trkpt lat="43.77644" lon="3.82969">
        <ele>411.2</ele>
        <time>2026-05-21T12:09:50.000Z</time>
      </trkpt>
      <trkpt lat="43.77644" lon="3.82969">
        <ele>411.4</ele>
        <time>2026-05-21T12:09:51.000Z</time>
      </trkpt>
      <trkpt lat="43.77644" lon="3.82969">
        <ele>411.4</ele>
        <time>2026-05-21T12:09:52.000Z</time>
      </trkpt>
      <trkpt lat="43.77644" lon="3.82969">
        <ele>411.3</ele>
        <time>2026-05-21T12:09:53.000Z</time>
      </trkpt>
      <trkpt lat="43.77644" lon="3.82969">
        <ele>411.1</ele>
        <time>2026-05-21T12:09:54.000Z</time>
      </trkpt>
      <trkpt lat="43.77644" lon="3.82969">
        <ele>411</ele>
        <time>2026-05-21T12:09:55.000Z</time>
      </trkpt>
      <trkpt lat="43.77644" lon="3.82969">
        <ele>410.9</ele>
        <time>2026-05-21T12:09:56.000Z</time>
      </trkpt>
      <trkpt lat="43.77644" lon="3.82969">
        <ele>410.8</ele>
        <time>2026-05-21T12:09:57.000Z</time>
      </trkpt>
      <trkpt lat="43.77644" lon="3.82969">
        <ele>410.7</ele>
        <time>2026-05-21T12:09:58.000Z</time>
      </trkpt>
      <trkpt lat="43.77644" lon="3.82969">
        <ele>410.6</ele>
        <time>2026-05-21T12:09:59.000Z</time>
      </trkpt>
      <trkpt lat="43.77644" lon="3.82969">
        <ele>410.4</ele>
        <time>2026-05-21T12:10:00.000Z</time>
      </trkpt>
      <trkpt lat="43.77644" lon="3.82969">
        <ele>410.3</ele>
        <time>2026-05-21T12:10:01.000Z</time>
      </trkpt>
      <trkpt lat="43.77644" lon="3.82969">
        <ele>410.3</ele>
        <time>2026-05-21T12:10:02.000Z</time>
      </trkpt>
      <trkpt lat="43.77644" lon="3.82969">
        <ele>410.3</ele>
        <time>2026-05-21T12:10:03.000Z</time>
      </trkpt>
      <trkpt lat="43.77644" lon="3.82969">
        <ele>410.2</ele>
        <time>2026-05-21T12:10:04.000Z</time>
      </trkpt>
      <trkpt lat="43.77644" lon="3.82969">
        <ele>410.3</ele>
        <time>2026-05-21T12:10:05.000Z</time>
      </trkpt>
      <trkpt lat="43.77644" lon="3.82969">
        <ele>410.4</ele>
        <time>2026-05-21T12:10:06.000Z</time>
      </trkpt>
      <trkpt lat="43.77644" lon="3.82969">
        <ele>410.6</ele>
        <time>2026-05-21T12:10:07.000Z</time>
      </trkpt>
      <trkpt lat="43.77644" lon="3.82969">
        <ele>410.7</ele>
        <time>2026-05-21T12:10:08.000Z</time>
      </trkpt>
      <trkpt lat="43.77644" lon="3.82969">
        <ele>410.8</ele>
        <time>2026-05-21T12:10:09.000Z</time>
      </trkpt>
      <trkpt lat="43.77644" lon="3.82969">
        <ele>411.1</ele>
        <time>2026-05-21T12:10:10.000Z</time>
      </trkpt>
      <trkpt lat="43.77644" lon="3.82969">
        <ele>411.3</ele>
        <time>2026-05-21T12:10:11.000Z</time>
      </trkpt>
      <trkpt lat="43.77644" lon="3.82969">
        <ele>411.3</ele>
        <time>2026-05-21T12:10:12.000Z</time>
      </trkpt>
      <trkpt lat="43.77644" lon="3.82969">
        <ele>411.5</ele>
        <time>2026-05-21T12:10:13.000Z</time>
      </trkpt>
      <trkpt lat="43.77644" lon="3.82969">
        <ele>411.5</ele>
        <time>2026-05-21T12:10:14.000Z</time>
      </trkpt>
      <trkpt lat="43.77644" lon="3.82969">
        <ele>411.5</ele>
        <time>2026-05-21T12:10:15.000Z</time>
      </trkpt>
      <trkpt lat="43.77644" lon="3.82969">
        <ele>411.5</ele>
        <time>2026-05-21T12:10:16.000Z</time>
      </trkpt>
      <trkpt lat="43.77644" lon="3.82969">
        <ele>411.7</ele>
        <time>2026-05-21T12:10:17.000Z</time>
      </trkpt>
      <trkpt lat="43.77644" lon="3.82969">
        <ele>411.7</ele>
        <time>2026-05-21T12:10:18.000Z</time>
      </trkpt>
      <trkpt lat="43.77644" lon="3.82969">
        <ele>411.7</ele>
        <time>2026-05-21T12:10:19.000Z</time>
      </trkpt>
      <trkpt lat="43.77644" lon="3.82969">
        <ele>411.7</ele>
        <time>2026-05-21T12:10:20.000Z</time>
      </trkpt>
      <trkpt lat="43.77644" lon="3.82969">
        <ele>412</ele>
        <time>2026-05-21T12:10:21.000Z</time>
      </trkpt>
      <trkpt lat="43.77644" lon="3.82969">
        <ele>412.1</ele>
        <time>2026-05-21T12:10:22.000Z</time>
      </trkpt>
      <trkpt lat="43.77644" lon="3.82969">
        <ele>412</ele>
        <time>2026-05-21T12:10:23.000Z</time>
      </trkpt>
      <trkpt lat="43.77644" lon="3.82969">
        <ele>412.1</ele>
        <time>2026-05-21T12:10:24.000Z</time>
      </trkpt>
      <trkpt lat="43.77644" lon="3.82969">
        <ele>412.1</ele>
        <time>2026-05-21T12:10:25.000Z</time>
      </trkpt>
      <trkpt lat="43.77644" lon="3.82969">
        <ele>412</ele>
        <time>2026-05-21T12:10:26.000Z</time>
      </trkpt>
      <trkpt lat="43.77643" lon="3.82969">
        <ele>412</ele>
        <time>2026-05-21T12:10:27.000Z</time>
      </trkpt>
      <trkpt lat="43.77643" lon="3.82968">
        <ele>411.9</ele>
        <time>2026-05-21T12:10:28.000Z</time>
      </trkpt>
      <trkpt lat="43.77644" lon="3.82969">
        <ele>411.9</ele>
        <time>2026-05-21T12:10:29.000Z</time>
      </trkpt>
      <trkpt lat="43.77644" lon="3.82969">
        <ele>411.8</ele>
        <time>2026-05-21T12:10:30.000Z</time>
      </trkpt>
      <trkpt lat="43.77644" lon="3.82969">
        <ele>411.6</ele>
        <time>2026-05-21T12:10:31.000Z</time>
      </trkpt>
      <trkpt lat="43.77644" lon="3.82969">
        <ele>411.6</ele>
        <time>2026-05-21T12:10:32.000Z</time>
      </trkpt>
      <trkpt lat="43.77644" lon="3.82969">
        <ele>411.6</ele>
        <time>2026-05-21T12:10:33.000Z</time>
      </trkpt>
      <trkpt lat="43.77644" lon="3.82969">
        <ele>411.5</ele>
        <time>2026-05-21T12:10:34.000Z</time>
      </trkpt>
      <trkpt lat="43.77644" lon="3.82969">
        <ele>411.4</ele>
        <time>2026-05-21T12:10:35.000Z</time>
      </trkpt>
      <trkpt lat="43.77644" lon="3.82969">
        <ele>411.4</ele>
        <time>2026-05-21T12:10:36.000Z</time>
      </trkpt>
      <trkpt lat="43.77644" lon="3.82969">
        <ele>411.5</ele>
        <time>2026-05-21T12:10:37.000Z</time>
      </trkpt>
      <trkpt lat="43.77644" lon="3.82969">
        <ele>411.4</ele>
        <time>2026-05-21T12:10:38.000Z</time>
      </trkpt>
      <trkpt lat="43.77644" lon="3.82969">
        <ele>411.5</ele>
        <time>2026-05-21T12:10:39.000Z</time>
      </trkpt>
      <trkpt lat="43.77644" lon="3.82969">
        <ele>411.6</ele>
        <time>2026-05-21T12:10:40.000Z</time>
      </trkpt>
      <trkpt lat="43.77644" lon="3.82969">
        <ele>411.6</ele>
        <time>2026-05-21T12:10:41.000Z</time>
      </trkpt>
      <trkpt lat="43.77644" lon="3.82969">
        <ele>411.5</ele>
        <time>2026-05-21T12:10:42.000Z</time>
      </trkpt>
      <trkpt lat="43.77644" lon="3.82969">
        <ele>411.4</ele>
        <time>2026-05-21T12:10:43.000Z</time>
      </trkpt>
      <trkpt lat="43.77644" lon="3.82969">
        <ele>411.3</ele>
        <time>2026-05-21T12:10:44.000Z</time>
      </trkpt>
      <trkpt lat="43.77644" lon="3.82968">
        <ele>411.3</ele>
        <time>2026-05-21T12:10:45.000Z</time>
      </trkpt>
      <trkpt lat="43.77644" lon="3.82968">
        <ele>411.2</ele>
        <time>2026-05-21T12:10:46.000Z</time>
      </trkpt>
      <trkpt lat="43.77644" lon="3.82968">
        <ele>411.2</ele>
        <time>2026-05-21T12:10:47.000Z</time>
      </trkpt>
      <trkpt lat="43.77644" lon="3.82968">
        <ele>411</ele>
        <time>2026-05-21T12:10:48.000Z</time>
      </trkpt>
      <trkpt lat="43.77644" lon="3.82968">
        <ele>410.8</ele>
        <time>2026-05-21T12:10:49.000Z</time>
      </trkpt>
      <trkpt lat="43.77644" lon="3.82968">
        <ele>410.9</ele>
        <time>2026-05-21T12:10:50.000Z</time>
      </trkpt>
      <trkpt lat="43.77644" lon="3.82968">
        <ele>411.1</ele>
        <time>2026-05-21T12:10:51.000Z</time>
      </trkpt>
      <trkpt lat="43.77644" lon="3.82968">
        <ele>411.1</ele>
        <time>2026-05-21T12:10:52.000Z</time>
      </trkpt>
      <trkpt lat="43.77644" lon="3.82968">
        <ele>411.2</ele>
        <time>2026-05-21T12:10:53.000Z</time>
      </trkpt>
      <trkpt lat="43.77644" lon="3.82968">
        <ele>411.2</ele>
        <time>2026-05-21T12:10:54.000Z</time>
      </trkpt>
      <trkpt lat="43.77644" lon="3.82968">
        <ele>411</ele>
        <time>2026-05-21T12:10:55.000Z</time>
      </trkpt>
      <trkpt lat="43.77644" lon="3.82968">
        <ele>411</ele>
        <time>2026-05-21T12:10:56.000Z</time>
      </trkpt>
      <trkpt lat="43.77644" lon="3.82968">
        <ele>411</ele>
        <time>2026-05-21T12:10:57.000Z</time>
      </trkpt>
      <trkpt lat="43.77644" lon="3.82968">
        <ele>411.2</ele>
        <time>2026-05-21T12:10:58.000Z</time>
      </trkpt>
      <trkpt lat="43.77644" lon="3.82968">
        <ele>411.3</ele>
        <time>2026-05-21T12:10:59.000Z</time>
      </trkpt>
      <trkpt lat="43.77644" lon="3.82968">
        <ele>411.2</ele>
        <time>2026-05-21T12:11:00.000Z</time>
      </trkpt>
      <trkpt lat="43.77644" lon="3.82969">
        <ele>411</ele>
        <time>2026-05-21T12:11:01.000Z</time>
      </trkpt>
      <trkpt lat="43.77643" lon="3.82969">
        <ele>411.1</ele>
        <time>2026-05-21T12:11:02.000Z</time>
      </trkpt>
      <trkpt lat="43.77643" lon="3.82969">
        <ele>411.1</ele>
        <time>2026-05-21T12:11:03.000Z</time>
      </trkpt>
      <trkpt lat="43.77643" lon="3.82969">
        <ele>411.3</ele>
        <time>2026-05-21T12:11:04.000Z</time>
      </trkpt>
      <trkpt lat="43.77643" lon="3.82969">
        <ele>411.4</ele>
        <time>2026-05-21T12:11:05.000Z</time>
      </trkpt>
      <trkpt lat="43.77643" lon="3.82969">
        <ele>411.4</ele>
        <time>2026-05-21T12:11:06.000Z</time>
      </trkpt>
      <trkpt lat="43.77643" lon="3.82969">
        <ele>411.4</ele>
        <time>2026-05-21T12:11:07.000Z</time>
      </trkpt>
      <trkpt lat="43.77643" lon="3.82969">
        <ele>411.4</ele>
        <time>2026-05-21T12:11:08.000Z</time>
      </trkpt>
      <trkpt lat="43.77643" lon="3.82969">
        <ele>411.3</ele>
        <time>2026-05-21T12:11:09.000Z</time>
      </trkpt>
      <trkpt lat="43.77643" lon="3.82969">
        <ele>411.1</ele>
        <time>2026-05-21T12:11:10.000Z</time>
      </trkpt>
      <trkpt lat="43.77643" lon="3.82969">
        <ele>411.1</ele>
        <time>2026-05-21T12:11:11.000Z</time>
      </trkpt>
      <trkpt lat="43.77643" lon="3.82969">
        <ele>411.1</ele>
        <time>2026-05-21T12:11:12.000Z</time>
      </trkpt>
      <trkpt lat="43.77643" lon="3.82969">
        <ele>411.3</ele>
        <time>2026-05-21T12:11:13.000Z</time>
      </trkpt>
      <trkpt lat="43.77643" lon="3.82969">
        <ele>411.5</ele>
        <time>2026-05-21T12:11:14.000Z</time>
      </trkpt>
      <trkpt lat="43.77643" lon="3.82969">
        <ele>411.6</ele>
        <time>2026-05-21T12:11:15.000Z</time>
      </trkpt>
      <trkpt lat="43.77643" lon="3.82969">
        <ele>411.6</ele>
        <time>2026-05-21T12:11:16.000Z</time>
      </trkpt>
      <trkpt lat="43.77643" lon="3.82969">
        <ele>411.6</ele>
        <time>2026-05-21T12:11:17.000Z</time>
      </trkpt>
      <trkpt lat="43.77643" lon="3.82969">
        <ele>411.6</ele>
        <time>2026-05-21T12:11:18.000Z</time>
      </trkpt>
      <trkpt lat="43.77643" lon="3.82969">
        <ele>411.5</ele>
        <time>2026-05-21T12:11:19.000Z</time>
      </trkpt>
      <trkpt lat="43.77643" lon="3.82969">
        <ele>411.5</ele>
        <time>2026-05-21T12:11:20.000Z</time>
      </trkpt>
      <trkpt lat="43.77643" lon="3.82969">
        <ele>411.4</ele>
        <time>2026-05-21T12:11:21.000Z</time>
      </trkpt>
      <trkpt lat="43.77643" lon="3.82969">
        <ele>411.4</ele>
        <time>2026-05-21T12:11:22.000Z</time>
      </trkpt>
      <trkpt lat="43.77643" lon="3.82969">
        <ele>411.3</ele>
        <time>2026-05-21T12:11:23.000Z</time>
      </trkpt>
      <trkpt lat="43.77643" lon="3.82968">
        <ele>411</ele>
        <time>2026-05-21T12:11:24.000Z</time>
      </trkpt>
      <trkpt lat="43.77643" lon="3.82968">
        <ele>410.9</ele>
        <time>2026-05-21T12:11:25.000Z</time>
      </trkpt>
      <trkpt lat="43.77643" lon="3.82968">
        <ele>410.6</ele>
        <time>2026-05-21T12:11:26.000Z</time>
      </trkpt>
      <trkpt lat="43.77643" lon="3.82968">
        <ele>410.7</ele>
        <time>2026-05-21T12:11:27.000Z</time>
      </trkpt>
      <trkpt lat="43.77643" lon="3.82968">
        <ele>410.5</ele>
        <time>2026-05-21T12:11:28.000Z</time>
      </trkpt>
      <trkpt lat="43.77643" lon="3.82967">
        <ele>410.3</ele>
        <time>2026-05-21T12:11:29.000Z</time>
      </trkpt>
      <trkpt lat="43.77643" lon="3.82967">
        <ele>410.1</ele>
        <time>2026-05-21T12:11:30.000Z</time>
      </trkpt>
      <trkpt lat="43.77643" lon="3.82967">
        <ele>410.3</ele>
        <time>2026-05-21T12:11:31.000Z</time>
      </trkpt>
      <trkpt lat="43.77643" lon="3.82967">
        <ele>410.4</ele>
        <time>2026-05-21T12:11:32.000Z</time>
      </trkpt>
      <trkpt lat="43.77643" lon="3.82967">
        <ele>410.5</ele>
        <time>2026-05-21T12:11:33.000Z</time>
      </trkpt>
      <trkpt lat="43.77643" lon="3.82967">
        <ele>410.6</ele>
        <time>2026-05-21T12:11:34.000Z</time>
      </trkpt>
      <trkpt lat="43.77643" lon="3.82967">
        <ele>410.7</ele>
        <time>2026-05-21T12:11:35.000Z</time>
      </trkpt>
      <trkpt lat="43.77643" lon="3.82967">
        <ele>410.8</ele>
        <time>2026-05-21T12:11:36.000Z</time>
      </trkpt>
      <trkpt lat="43.77643" lon="3.82967">
        <ele>410.8</ele>
        <time>2026-05-21T12:11:37.000Z</time>
      </trkpt>
      <trkpt lat="43.77643" lon="3.82967">
        <ele>410.9</ele>
        <time>2026-05-21T12:11:38.000Z</time>
      </trkpt>
      <trkpt lat="43.77642" lon="3.82967">
        <ele>410.8</ele>
        <time>2026-05-21T12:11:39.000Z</time>
      </trkpt>
      <trkpt lat="43.77643" lon="3.82967">
        <ele>410.7</ele>
        <time>2026-05-21T12:11:40.000Z</time>
      </trkpt>
      <trkpt lat="43.77643" lon="3.82967">
        <ele>410.5</ele>
        <time>2026-05-21T12:11:41.000Z</time>
      </trkpt>
      <trkpt lat="43.77643" lon="3.82967">
        <ele>410.4</ele>
        <time>2026-05-21T12:11:42.000Z</time>
      </trkpt>
      <trkpt lat="43.77643" lon="3.82967">
        <ele>410.5</ele>
        <time>2026-05-21T12:11:43.000Z</time>
      </trkpt>
      <trkpt lat="43.77643" lon="3.82968">
        <ele>410.3</ele>
        <time>2026-05-21T12:11:44.000Z</time>
      </trkpt>
      <trkpt lat="43.77643" lon="3.82968">
        <ele>410.1</ele>
        <time>2026-05-21T12:11:45.000Z</time>
      </trkpt>
      <trkpt lat="43.77643" lon="3.82968">
        <ele>410.1</ele>
        <time>2026-05-21T12:11:46.000Z</time>
      </trkpt>
      <trkpt lat="43.77643" lon="3.82968">
        <ele>410.1</ele>
        <time>2026-05-21T12:11:47.000Z</time>
      </trkpt>
      <trkpt lat="43.77643" lon="3.82968">
        <ele>410.2</ele>
        <time>2026-05-21T12:11:48.000Z</time>
      </trkpt>
      <trkpt lat="43.77643" lon="3.82968">
        <ele>410.3</ele>
        <time>2026-05-21T12:11:49.000Z</time>
      </trkpt>
      <trkpt lat="43.77643" lon="3.82968">
        <ele>410.4</ele>
        <time>2026-05-21T12:11:50.000Z</time>
      </trkpt>
      <trkpt lat="43.77643" lon="3.82968">
        <ele>410.5</ele>
        <time>2026-05-21T12:11:51.000Z</time>
      </trkpt>
      <trkpt lat="43.77643" lon="3.82968">
        <ele>410.5</ele>
        <time>2026-05-21T12:11:52.000Z</time>
      </trkpt>
      <trkpt lat="43.77643" lon="3.82968">
        <ele>410.4</ele>
        <time>2026-05-21T12:11:53.000Z</time>
      </trkpt>
      <trkpt lat="43.77643" lon="3.82967">
        <ele>410.2</ele>
        <time>2026-05-21T12:11:54.000Z</time>
      </trkpt>
      <trkpt lat="43.77643" lon="3.82968">
        <ele>410.3</ele>
        <time>2026-05-21T12:11:55.000Z</time>
      </trkpt>
      <trkpt lat="43.77643" lon="3.82967">
        <ele>410.2</ele>
        <time>2026-05-21T12:11:56.000Z</time>
      </trkpt>
      <trkpt lat="43.77643" lon="3.82968">
        <ele>410.2</ele>
        <time>2026-05-21T12:11:57.000Z</time>
      </trkpt>
      <trkpt lat="43.77643" lon="3.82968">
        <ele>410.1</ele>
        <time>2026-05-21T12:11:58.000Z</time>
      </trkpt>
      <trkpt lat="43.77643" lon="3.82968">
        <ele>410.3</ele>
        <time>2026-05-21T12:11:59.000Z</time>
      </trkpt>
      <trkpt lat="43.77642" lon="3.82968">
        <ele>410.8</ele>
        <time>2026-05-21T12:12:00.000Z</time>
      </trkpt>
      <trkpt lat="43.77642" lon="3.82968">
        <ele>410.8</ele>
        <time>2026-05-21T12:12:01.000Z</time>
      </trkpt>
      <trkpt lat="43.77642" lon="3.82968">
        <ele>410.5</ele>
        <time>2026-05-21T12:12:02.000Z</time>
      </trkpt>
      <trkpt lat="43.77642" lon="3.82968">
        <ele>410.4</ele>
        <time>2026-05-21T12:12:03.000Z</time>
      </trkpt>
      <trkpt lat="43.77642" lon="3.82968">
        <ele>410.4</ele>
        <time>2026-05-21T12:12:04.000Z</time>
      </trkpt>
      <trkpt lat="43.77642" lon="3.82968">
        <ele>410.5</ele>
        <time>2026-05-21T12:12:05.000Z</time>
      </trkpt>
      <trkpt lat="43.77642" lon="3.82968">
        <ele>410.6</ele>
        <time>2026-05-21T12:12:06.000Z</time>
      </trkpt>
      <trkpt lat="43.77642" lon="3.82968">
        <ele>410.9</ele>
        <time>2026-05-21T12:12:07.000Z</time>
      </trkpt>
      <trkpt lat="43.77642" lon="3.82969">
        <ele>411</ele>
        <time>2026-05-21T12:12:08.000Z</time>
      </trkpt>
      <trkpt lat="43.77642" lon="3.82969">
        <ele>411.3</ele>
        <time>2026-05-21T12:12:09.000Z</time>
      </trkpt>
      <trkpt lat="43.77641" lon="3.82969">
        <ele>411.6</ele>
        <time>2026-05-21T12:12:10.000Z</time>
      </trkpt>
      <trkpt lat="43.77641" lon="3.82969">
        <ele>411.8</ele>
        <time>2026-05-21T12:12:11.000Z</time>
      </trkpt>
      <trkpt lat="43.77641" lon="3.82969">
        <ele>412</ele>
        <time>2026-05-21T12:12:12.000Z</time>
      </trkpt>
      <trkpt lat="43.77641" lon="3.82969">
        <ele>412</ele>
        <time>2026-05-21T12:12:13.000Z</time>
      </trkpt>
      <trkpt lat="43.77641" lon="3.82969">
        <ele>412</ele>
        <time>2026-05-21T12:12:14.000Z</time>
      </trkpt>
      <trkpt lat="43.77642" lon="3.82969">
        <ele>412</ele>
        <time>2026-05-21T12:12:15.000Z</time>
      </trkpt>
      <trkpt lat="43.77642" lon="3.82969">
        <ele>412.1</ele>
        <time>2026-05-21T12:12:16.000Z</time>
      </trkpt>
      <trkpt lat="43.77642" lon="3.82969">
        <ele>412.1</ele>
        <time>2026-05-21T12:12:17.000Z</time>
      </trkpt>
      <trkpt lat="43.77642" lon="3.82969">
        <ele>412.3</ele>
        <time>2026-05-21T12:12:18.000Z</time>
      </trkpt>
      <trkpt lat="43.77641" lon="3.82969">
        <ele>412.4</ele>
        <time>2026-05-21T12:12:19.000Z</time>
      </trkpt>
      <trkpt lat="43.77642" lon="3.82969">
        <ele>412.5</ele>
        <time>2026-05-21T12:12:20.000Z</time>
      </trkpt>
      <trkpt lat="43.77642" lon="3.82969">
        <ele>412.6</ele>
        <time>2026-05-21T12:12:21.000Z</time>
      </trkpt>
      <trkpt lat="43.77642" lon="3.82969">
        <ele>412.8</ele>
        <time>2026-05-21T12:12:22.000Z</time>
      </trkpt>
      <trkpt lat="43.77642" lon="3.82969">
        <ele>412.7</ele>
        <time>2026-05-21T12:12:23.000Z</time>
      </trkpt>
      <trkpt lat="43.77642" lon="3.82969">
        <ele>412.7</ele>
        <time>2026-05-21T12:12:24.000Z</time>
      </trkpt>
      <trkpt lat="43.77642" lon="3.82969">
        <ele>412.7</ele>
        <time>2026-05-21T12:12:25.000Z</time>
      </trkpt>
      <trkpt lat="43.77642" lon="3.8297">
        <ele>412.2</ele>
        <time>2026-05-21T12:12:26.000Z</time>
      </trkpt>
      <trkpt lat="43.77642" lon="3.8297">
        <ele>412.2</ele>
        <time>2026-05-21T12:12:27.000Z</time>
      </trkpt>
      <trkpt lat="43.77642" lon="3.8297">
        <ele>412</ele>
        <time>2026-05-21T12:12:28.000Z</time>
      </trkpt>
      <trkpt lat="43.77642" lon="3.8297">
        <ele>411.8</ele>
        <time>2026-05-21T12:12:29.000Z</time>
      </trkpt>
      <trkpt lat="43.77642" lon="3.8297">
        <ele>411.6</ele>
        <time>2026-05-21T12:12:30.000Z</time>
      </trkpt>
      <trkpt lat="43.77642" lon="3.8297">
        <ele>411.6</ele>
        <time>2026-05-21T12:12:31.000Z</time>
      </trkpt>
      <trkpt lat="43.77642" lon="3.8297">
        <ele>411.7</ele>
        <time>2026-05-21T12:12:32.000Z</time>
      </trkpt>
      <trkpt lat="43.77642" lon="3.8297">
        <ele>411.9</ele>
        <time>2026-05-21T12:12:33.000Z</time>
      </trkpt>
      <trkpt lat="43.77642" lon="3.8297">
        <ele>411.9</ele>
        <time>2026-05-21T12:12:34.000Z</time>
      </trkpt>
      <trkpt lat="43.77642" lon="3.8297">
        <ele>411.7</ele>
        <time>2026-05-21T12:12:35.000Z</time>
      </trkpt>
      <trkpt lat="43.77642" lon="3.8297">
        <ele>411.6</ele>
        <time>2026-05-21T12:12:36.000Z</time>
      </trkpt>
      <trkpt lat="43.77642" lon="3.8297">
        <ele>411.5</ele>
        <time>2026-05-21T12:12:37.000Z</time>
      </trkpt>
      <trkpt lat="43.77642" lon="3.8297">
        <ele>411.6</ele>
        <time>2026-05-21T12:12:38.000Z</time>
      </trkpt>
      <trkpt lat="43.77642" lon="3.8297">
        <ele>411.7</ele>
        <time>2026-05-21T12:12:39.000Z</time>
      </trkpt>
      <trkpt lat="43.77642" lon="3.8297">
        <ele>412</ele>
        <time>2026-05-21T12:12:40.000Z</time>
      </trkpt>
      <trkpt lat="43.77642" lon="3.8297">
        <ele>412.2</ele>
        <time>2026-05-21T12:12:41.000Z</time>
      </trkpt>
      <trkpt lat="43.77642" lon="3.8297">
        <ele>412.2</ele>
        <time>2026-05-21T12:12:42.000Z</time>
      </trkpt>
      <trkpt lat="43.77642" lon="3.8297">
        <ele>412</ele>
        <time>2026-05-21T12:12:43.000Z</time>
      </trkpt>
      <trkpt lat="43.77642" lon="3.8297">
        <ele>411.7</ele>
        <time>2026-05-21T12:12:44.000Z</time>
      </trkpt>
      <trkpt lat="43.77642" lon="3.8297">
        <ele>411.8</ele>
        <time>2026-05-21T12:12:45.000Z</time>
      </trkpt>
      <trkpt lat="43.77642" lon="3.8297">
        <ele>411.8</ele>
        <time>2026-05-21T12:12:46.000Z</time>
      </trkpt>
      <trkpt lat="43.77642" lon="3.8297">
        <ele>411.9</ele>
        <time>2026-05-21T12:12:47.000Z</time>
      </trkpt>
      <trkpt lat="43.77642" lon="3.8297">
        <ele>412.1</ele>
        <time>2026-05-21T12:12:48.000Z</time>
      </trkpt>
      <trkpt lat="43.77642" lon="3.8297">
        <ele>412</ele>
        <time>2026-05-21T12:12:49.000Z</time>
      </trkpt>
      <trkpt lat="43.77642" lon="3.8297">
        <ele>411.9</ele>
        <time>2026-05-21T12:12:50.000Z</time>
      </trkpt>
      <trkpt lat="43.77642" lon="3.8297">
        <ele>412.1</ele>
        <time>2026-05-21T12:12:51.000Z</time>
      </trkpt>
      <trkpt lat="43.77642" lon="3.8297">
        <ele>412.3</ele>
        <time>2026-05-21T12:12:52.000Z</time>
      </trkpt>
      <trkpt lat="43.77642" lon="3.8297">
        <ele>412.4</ele>
        <time>2026-05-21T12:12:53.000Z</time>
      </trkpt>
      <trkpt lat="43.77642" lon="3.8297">
        <ele>412.6</ele>
        <time>2026-05-21T12:12:54.000Z</time>
      </trkpt>
      <trkpt lat="43.77642" lon="3.8297">
        <ele>412.6</ele>
        <time>2026-05-21T12:12:55.000Z</time>
      </trkpt>
      <trkpt lat="43.77642" lon="3.8297">
        <ele>412.6</ele>
        <time>2026-05-21T12:12:56.000Z</time>
      </trkpt>
      <trkpt lat="43.77642" lon="3.8297">
        <ele>412.4</ele>
        <time>2026-05-21T12:12:57.000Z</time>
      </trkpt>
      <trkpt lat="43.77642" lon="3.8297">
        <ele>412.3</ele>
        <time>2026-05-21T12:12:58.000Z</time>
      </trkpt>
      <trkpt lat="43.77642" lon="3.8297">
        <ele>412.1</ele>
        <time>2026-05-21T12:12:59.000Z</time>
      </trkpt>
      <trkpt lat="43.77642" lon="3.8297">
        <ele>412</ele>
        <time>2026-05-21T12:13:00.000Z</time>
      </trkpt>
      <trkpt lat="43.77642" lon="3.8297">
        <ele>412</ele>
        <time>2026-05-21T12:13:01.000Z</time>
      </trkpt>
      <trkpt lat="43.77642" lon="3.8297">
        <ele>412</ele>
        <time>2026-05-21T12:13:02.000Z</time>
      </trkpt>
      <trkpt lat="43.77642" lon="3.8297">
        <ele>412</ele>
        <time>2026-05-21T12:13:03.000Z</time>
      </trkpt>
      <trkpt lat="43.77642" lon="3.8297">
        <ele>411.8</ele>
        <time>2026-05-21T12:13:04.000Z</time>
      </trkpt>
      <trkpt lat="43.77642" lon="3.8297">
        <ele>411.7</ele>
        <time>2026-05-21T12:13:05.000Z</time>
      </trkpt>
      <trkpt lat="43.77642" lon="3.8297">
        <ele>411.7</ele>
        <time>2026-05-21T12:13:06.000Z</time>
      </trkpt>
      <trkpt lat="43.77642" lon="3.8297">
        <ele>411.7</ele>
        <time>2026-05-21T12:13:07.000Z</time>
      </trkpt>
      <trkpt lat="43.77642" lon="3.82969">
        <ele>411.7</ele>
        <time>2026-05-21T12:13:08.000Z</time>
      </trkpt>
      <trkpt lat="43.77642" lon="3.82969">
        <ele>411.8</ele>
        <time>2026-05-21T12:13:09.000Z</time>
      </trkpt>
      <trkpt lat="43.77642" lon="3.82969">
        <ele>411.8</ele>
        <time>2026-05-21T12:13:10.000Z</time>
      </trkpt>
      <trkpt lat="43.77642" lon="3.82969">
        <ele>411.7</ele>
        <time>2026-05-21T12:13:11.000Z</time>
      </trkpt>
      <trkpt lat="43.77642" lon="3.82969">
        <ele>411.9</ele>
        <time>2026-05-21T12:13:12.000Z</time>
      </trkpt>
      <trkpt lat="43.77642" lon="3.82969">
        <ele>411.9</ele>
        <time>2026-05-21T12:13:13.000Z</time>
      </trkpt>
      <trkpt lat="43.77642" lon="3.82969">
        <ele>412</ele>
        <time>2026-05-21T12:13:14.000Z</time>
      </trkpt>
      <trkpt lat="43.77642" lon="3.82969">
        <ele>411.9</ele>
        <time>2026-05-21T12:13:15.000Z</time>
      </trkpt>
      <trkpt lat="43.77642" lon="3.82969">
        <ele>411.7</ele>
        <time>2026-05-21T12:13:16.000Z</time>
      </trkpt>
      <trkpt lat="43.77642" lon="3.82969">
        <ele>411.7</ele>
        <time>2026-05-21T12:13:17.000Z</time>
      </trkpt>
      <trkpt lat="43.77642" lon="3.82969">
        <ele>411.6</ele>
        <time>2026-05-21T12:13:18.000Z</time>
      </trkpt>
      <trkpt lat="43.77642" lon="3.82969">
        <ele>411.5</ele>
        <time>2026-05-21T12:13:19.000Z</time>
      </trkpt>
      <trkpt lat="43.77642" lon="3.82969">
        <ele>411.5</ele>
        <time>2026-05-21T12:13:20.000Z</time>
      </trkpt>
      <trkpt lat="43.77642" lon="3.82969">
        <ele>411.7</ele>
        <time>2026-05-21T12:13:21.000Z</time>
      </trkpt>
      <trkpt lat="43.77642" lon="3.82969">
        <ele>411.7</ele>
        <time>2026-05-21T12:13:22.000Z</time>
      </trkpt>
      <trkpt lat="43.77642" lon="3.82969">
        <ele>411.8</ele>
        <time>2026-05-21T12:13:23.000Z</time>
      </trkpt>
      <trkpt lat="43.77642" lon="3.82968">
        <ele>411.6</ele>
        <time>2026-05-21T12:13:24.000Z</time>
      </trkpt>
      <trkpt lat="43.77642" lon="3.82968">
        <ele>411.5</ele>
        <time>2026-05-21T12:13:25.000Z</time>
      </trkpt>
      <trkpt lat="43.77642" lon="3.82968">
        <ele>411.5</ele>
        <time>2026-05-21T12:13:26.000Z</time>
      </trkpt>
      <trkpt lat="43.77642" lon="3.82968">
        <ele>411.5</ele>
        <time>2026-05-21T12:13:27.000Z</time>
      </trkpt>
      <trkpt lat="43.77642" lon="3.82968">
        <ele>411.6</ele>
        <time>2026-05-21T12:13:28.000Z</time>
      </trkpt>
      <trkpt lat="43.77642" lon="3.82968">
        <ele>411.6</ele>
        <time>2026-05-21T12:13:29.000Z</time>
      </trkpt>
      <trkpt lat="43.77642" lon="3.82968">
        <ele>411.7</ele>
        <time>2026-05-21T12:13:30.000Z</time>
      </trkpt>
      <trkpt lat="43.77642" lon="3.82968">
        <ele>411.7</ele>
        <time>2026-05-21T12:13:31.000Z</time>
      </trkpt>
      <trkpt lat="43.77642" lon="3.82968">
        <ele>411.6</ele>
        <time>2026-05-21T12:13:32.000Z</time>
      </trkpt>
      <trkpt lat="43.77642" lon="3.82968">
        <ele>411.6</ele>
        <time>2026-05-21T12:13:33.000Z</time>
      </trkpt>
      <trkpt lat="43.77642" lon="3.82968">
        <ele>411.6</ele>
        <time>2026-05-21T12:13:34.000Z</time>
      </trkpt>
      <trkpt lat="43.77642" lon="3.82968">
        <ele>411.7</ele>
        <time>2026-05-21T12:13:35.000Z</time>
      </trkpt>
      <trkpt lat="43.77642" lon="3.82968">
        <ele>411.8</ele>
        <time>2026-05-21T12:13:36.000Z</time>
      </trkpt>
      <trkpt lat="43.77642" lon="3.82968">
        <ele>411.9</ele>
        <time>2026-05-21T12:13:37.000Z</time>
      </trkpt>
      <trkpt lat="43.77642" lon="3.82968">
        <ele>411.8</ele>
        <time>2026-05-21T12:13:38.000Z</time>
      </trkpt>
      <trkpt lat="43.77642" lon="3.82968">
        <ele>411.8</ele>
        <time>2026-05-21T12:13:39.000Z</time>
      </trkpt>
      <trkpt lat="43.77642" lon="3.82968">
        <ele>411.7</ele>
        <time>2026-05-21T12:13:40.000Z</time>
      </trkpt>
      <trkpt lat="43.77642" lon="3.82968">
        <ele>411.7</ele>
        <time>2026-05-21T12:13:41.000Z</time>
      </trkpt>
      <trkpt lat="43.77642" lon="3.82968">
        <ele>411.9</ele>
        <time>2026-05-21T12:13:42.000Z</time>
      </trkpt>
      <trkpt lat="43.77642" lon="3.82968">
        <ele>412.1</ele>
        <time>2026-05-21T12:13:43.000Z</time>
      </trkpt>
      <trkpt lat="43.77642" lon="3.82968">
        <ele>412.2</ele>
        <time>2026-05-21T12:13:44.000Z</time>
      </trkpt>
      <trkpt lat="43.77642" lon="3.82968">
        <ele>412.2</ele>
        <time>2026-05-21T12:13:45.000Z</time>
      </trkpt>
      <trkpt lat="43.77642" lon="3.82968">
        <ele>412.1</ele>
        <time>2026-05-21T12:13:46.000Z</time>
      </trkpt>
      <trkpt lat="43.77642" lon="3.82968">
        <ele>412.1</ele>
        <time>2026-05-21T12:13:47.000Z</time>
      </trkpt>
      <trkpt lat="43.77642" lon="3.82968">
        <ele>412</ele>
        <time>2026-05-21T12:13:48.000Z</time>
      </trkpt>
      <trkpt lat="43.77642" lon="3.82968">
        <ele>411.8</ele>
        <time>2026-05-21T12:13:49.000Z</time>
      </trkpt>
      <trkpt lat="43.77642" lon="3.82968">
        <ele>411.8</ele>
        <time>2026-05-21T12:13:50.000Z</time>
      </trkpt>
      <trkpt lat="43.77642" lon="3.82967">
        <ele>411.8</ele>
        <time>2026-05-21T12:13:51.000Z</time>
      </trkpt>
      <trkpt lat="43.77642" lon="3.82967">
        <ele>411.8</ele>
        <time>2026-05-21T12:13:52.000Z</time>
      </trkpt>
      <trkpt lat="43.77642" lon="3.82968">
        <ele>411.8</ele>
        <time>2026-05-21T12:13:53.000Z</time>
      </trkpt>
      <trkpt lat="43.77642" lon="3.82968">
        <ele>411.7</ele>
        <time>2026-05-21T12:13:54.000Z</time>
      </trkpt>
      <trkpt lat="43.77642" lon="3.82968">
        <ele>411.7</ele>
        <time>2026-05-21T12:13:55.000Z</time>
      </trkpt>
      <trkpt lat="43.77642" lon="3.82968">
        <ele>411.7</ele>
        <time>2026-05-21T12:13:56.000Z</time>
      </trkpt>
      <trkpt lat="43.77642" lon="3.82968">
        <ele>411.7</ele>
        <time>2026-05-21T12:13:57.000Z</time>
      </trkpt>
      <trkpt lat="43.77642" lon="3.82968">
        <ele>411.6</ele>
        <time>2026-05-21T12:13:58.000Z</time>
      </trkpt>
      <trkpt lat="43.77642" lon="3.82968">
        <ele>411.7</ele>
        <time>2026-05-21T12:13:59.000Z</time>
      </trkpt>
      <trkpt lat="43.77642" lon="3.82968">
        <ele>411.7</ele>
        <time>2026-05-21T12:14:00.000Z</time>
      </trkpt>
      <trkpt lat="43.77642" lon="3.82968">
        <ele>411.7</ele>
        <time>2026-05-21T12:14:01.000Z</time>
      </trkpt>
      <trkpt lat="43.77642" lon="3.82968">
        <ele>411.8</ele>
        <time>2026-05-21T12:14:02.000Z</time>
      </trkpt>
      <trkpt lat="43.77642" lon="3.82968">
        <ele>411.9</ele>
        <time>2026-05-21T12:14:03.000Z</time>
      </trkpt>
      <trkpt lat="43.77642" lon="3.82968">
        <ele>412</ele>
        <time>2026-05-21T12:14:04.000Z</time>
      </trkpt>
      <trkpt lat="43.77642" lon="3.82968">
        <ele>412</ele>
        <time>2026-05-21T12:14:05.000Z</time>
      </trkpt>
      <trkpt lat="43.77642" lon="3.82968">
        <ele>411.9</ele>
        <time>2026-05-21T12:14:06.000Z</time>
      </trkpt>
      <trkpt lat="43.77642" lon="3.82968">
        <ele>412</ele>
        <time>2026-05-21T12:14:07.000Z</time>
      </trkpt>
      <trkpt lat="43.77642" lon="3.82968">
        <ele>412.1</ele>
        <time>2026-05-21T12:14:08.000Z</time>
      </trkpt>
      <trkpt lat="43.77642" lon="3.82969">
        <ele>412.1</ele>
        <time>2026-05-21T12:14:09.000Z</time>
      </trkpt>
      <trkpt lat="43.77642" lon="3.82969">
        <ele>412</ele>
        <time>2026-05-21T12:14:10.000Z</time>
      </trkpt>
      <trkpt lat="43.77642" lon="3.82969">
        <ele>411.9</ele>
        <time>2026-05-21T12:14:11.000Z</time>
      </trkpt>
      <trkpt lat="43.77642" lon="3.82969">
        <ele>411.9</ele>
        <time>2026-05-21T12:14:12.000Z</time>
      </trkpt>
      <trkpt lat="43.77642" lon="3.82969">
        <ele>412</ele>
        <time>2026-05-21T12:14:13.000Z</time>
      </trkpt>
      <trkpt lat="43.77642" lon="3.82969">
        <ele>412</ele>
        <time>2026-05-21T12:14:14.000Z</time>
      </trkpt>
      <trkpt lat="43.77642" lon="3.82969">
        <ele>412</ele>
        <time>2026-05-21T12:14:15.000Z</time>
      </trkpt>
      <trkpt lat="43.77642" lon="3.82969">
        <ele>412</ele>
        <time>2026-05-21T12:14:16.000Z</time>
      </trkpt>
      <trkpt lat="43.77642" lon="3.82969">
        <ele>412.2</ele>
        <time>2026-05-21T12:14:17.000Z</time>
      </trkpt>
      <trkpt lat="43.77642" lon="3.82969">
        <ele>412.2</ele>
        <time>2026-05-21T12:14:18.000Z</time>
      </trkpt>
      <trkpt lat="43.77642" lon="3.82969">
        <ele>412.2</ele>
        <time>2026-05-21T12:14:19.000Z</time>
      </trkpt>
      <trkpt lat="43.77642" lon="3.82969">
        <ele>412.1</ele>
        <time>2026-05-21T12:14:20.000Z</time>
      </trkpt>
      <trkpt lat="43.77642" lon="3.82969">
        <ele>412.1</ele>
        <time>2026-05-21T12:14:21.000Z</time>
      </trkpt>
      <trkpt lat="43.77642" lon="3.82969">
        <ele>412.1</ele>
        <time>2026-05-21T12:14:22.000Z</time>
      </trkpt>
      <trkpt lat="43.77642" lon="3.82969">
        <ele>412</ele>
        <time>2026-05-21T12:14:23.000Z</time>
      </trkpt>
      <trkpt lat="43.77642" lon="3.82969">
        <ele>412</ele>
        <time>2026-05-21T12:14:24.000Z</time>
      </trkpt>
      <trkpt lat="43.77642" lon="3.82969">
        <ele>412.2</ele>
        <time>2026-05-21T12:14:25.000Z</time>
      </trkpt>
      <trkpt lat="43.77642" lon="3.82969">
        <ele>412.2</ele>
        <time>2026-05-21T12:14:26.000Z</time>
      </trkpt>
      <trkpt lat="43.77642" lon="3.82969">
        <ele>412</ele>
        <time>2026-05-21T12:14:27.000Z</time>
      </trkpt>
      <trkpt lat="43.77642" lon="3.82969">
        <ele>412</ele>
        <time>2026-05-21T12:14:28.000Z</time>
      </trkpt>
      <trkpt lat="43.77642" lon="3.82969">
        <ele>412</ele>
        <time>2026-05-21T12:14:29.000Z</time>
      </trkpt>
      <trkpt lat="43.77642" lon="3.82969">
        <ele>411.6</ele>
        <time>2026-05-21T12:14:30.000Z</time>
      </trkpt>
      <trkpt lat="43.77642" lon="3.82969">
        <ele>411.6</ele>
        <time>2026-05-21T12:14:31.000Z</time>
      </trkpt>
      <trkpt lat="43.77642" lon="3.82969">
        <ele>411.9</ele>
        <time>2026-05-21T12:14:32.000Z</time>
      </trkpt>
      <trkpt lat="43.77642" lon="3.82969">
        <ele>412</ele>
        <time>2026-05-21T12:14:33.000Z</time>
      </trkpt>
      <trkpt lat="43.77642" lon="3.82969">
        <ele>412.1</ele>
        <time>2026-05-21T12:14:34.000Z</time>
      </trkpt>
      <trkpt lat="43.77642" lon="3.82969">
        <ele>412.1</ele>
        <time>2026-05-21T12:14:35.000Z</time>
      </trkpt>
      <trkpt lat="43.77642" lon="3.82969">
        <ele>412.2</ele>
        <time>2026-05-21T12:14:36.000Z</time>
      </trkpt>
      <trkpt lat="43.77642" lon="3.82969">
        <ele>412.2</ele>
        <time>2026-05-21T12:14:37.000Z</time>
      </trkpt>
      <trkpt lat="43.77642" lon="3.82969">
        <ele>412.3</ele>
        <time>2026-05-21T12:14:38.000Z</time>
      </trkpt>
      <trkpt lat="43.77642" lon="3.82969">
        <ele>412.5</ele>
        <time>2026-05-21T12:14:39.000Z</time>
      </trkpt>
      <trkpt lat="43.77642" lon="3.82969">
        <ele>412.4</ele>
        <time>2026-05-21T12:14:40.000Z</time>
      </trkpt>
      <trkpt lat="43.77642" lon="3.8297">
        <ele>411.8</ele>
        <time>2026-05-21T12:14:41.000Z</time>
      </trkpt>
      <trkpt lat="43.77642" lon="3.8297">
        <ele>411.5</ele>
        <time>2026-05-21T12:14:42.000Z</time>
      </trkpt>
      <trkpt lat="43.77642" lon="3.8297">
        <ele>411.2</ele>
        <time>2026-05-21T12:14:43.000Z</time>
      </trkpt>
      <trkpt lat="43.77642" lon="3.8297">
        <ele>411.1</ele>
        <time>2026-05-21T12:14:44.000Z</time>
      </trkpt>
      <trkpt lat="43.77642" lon="3.8297">
        <ele>410.9</ele>
        <time>2026-05-21T12:14:45.000Z</time>
      </trkpt>
      <trkpt lat="43.77642" lon="3.8297">
        <ele>410.7</ele>
        <time>2026-05-21T12:14:46.000Z</time>
      </trkpt>
      <trkpt lat="43.77642" lon="3.8297">
        <ele>410.5</ele>
        <time>2026-05-21T12:14:47.000Z</time>
      </trkpt>
      <trkpt lat="43.77642" lon="3.8297">
        <ele>410.4</ele>
        <time>2026-05-21T12:14:48.000Z</time>
      </trkpt>
      <trkpt lat="43.77642" lon="3.8297">
        <ele>410.4</ele>
        <time>2026-05-21T12:14:49.000Z</time>
      </trkpt>
      <trkpt lat="43.77642" lon="3.8297">
        <ele>410.6</ele>
        <time>2026-05-21T12:14:50.000Z</time>
      </trkpt>
      <trkpt lat="43.77642" lon="3.8297">
        <ele>410.7</ele>
        <time>2026-05-21T12:14:51.000Z</time>
      </trkpt>
      <trkpt lat="43.77642" lon="3.8297">
        <ele>410.6</ele>
        <time>2026-05-21T12:14:52.000Z</time>
      </trkpt>
      <trkpt lat="43.77642" lon="3.82969">
        <ele>410.5</ele>
        <time>2026-05-21T12:14:53.000Z</time>
      </trkpt>
      <trkpt lat="43.77642" lon="3.82969">
        <ele>410.4</ele>
        <time>2026-05-21T12:14:54.000Z</time>
      </trkpt>
      <trkpt lat="43.77642" lon="3.82969">
        <ele>410.3</ele>
        <time>2026-05-21T12:14:55.000Z</time>
      </trkpt>
      <trkpt lat="43.77642" lon="3.82969">
        <ele>410.3</ele>
        <time>2026-05-21T12:14:56.000Z</time>
      </trkpt>
      <trkpt lat="43.77642" lon="3.82969">
        <ele>410.3</ele>
        <time>2026-05-21T12:14:57.000Z</time>
      </trkpt>
      <trkpt lat="43.77642" lon="3.82969">
        <ele>410.3</ele>
        <time>2026-05-21T12:14:58.000Z</time>
      </trkpt>
      <trkpt lat="43.77642" lon="3.82969">
        <ele>410.1</ele>
        <time>2026-05-21T12:14:59.000Z</time>
      </trkpt>
      <trkpt lat="43.77642" lon="3.82969">
        <ele>410</ele>
        <time>2026-05-21T12:15:00.000Z</time>
      </trkpt>
      <trkpt lat="43.77642" lon="3.82969">
        <ele>409.7</ele>
        <time>2026-05-21T12:15:01.000Z</time>
      </trkpt>
      <trkpt lat="43.77642" lon="3.82969">
        <ele>409.5</ele>
        <time>2026-05-21T12:15:02.000Z</time>
      </trkpt>
      <trkpt lat="43.77642" lon="3.82969">
        <ele>409.1</ele>
        <time>2026-05-21T12:15:03.000Z</time>
      </trkpt>
      <trkpt lat="43.77642" lon="3.82969">
        <ele>408.7</ele>
        <time>2026-05-21T12:15:04.000Z</time>
      </trkpt>
      <trkpt lat="43.77642" lon="3.82969">
        <ele>408.4</ele>
        <time>2026-05-21T12:15:05.000Z</time>
      </trkpt>
      <trkpt lat="43.77642" lon="3.82969">
        <ele>408.1</ele>
        <time>2026-05-21T12:15:06.000Z</time>
      </trkpt>
      <trkpt lat="43.77642" lon="3.82969">
        <ele>408</ele>
        <time>2026-05-21T12:15:07.000Z</time>
      </trkpt>
      <trkpt lat="43.77642" lon="3.82969">
        <ele>407.7</ele>
        <time>2026-05-21T12:15:08.000Z</time>
      </trkpt>
      <trkpt lat="43.77642" lon="3.82969">
        <ele>407.6</ele>
        <time>2026-05-21T12:15:09.000Z</time>
      </trkpt>
      <trkpt lat="43.77642" lon="3.82969">
        <ele>407.4</ele>
        <time>2026-05-21T12:15:10.000Z</time>
      </trkpt>
      <trkpt lat="43.77642" lon="3.82969">
        <ele>407.5</ele>
        <time>2026-05-21T12:15:11.000Z</time>
      </trkpt>
      <trkpt lat="43.77642" lon="3.82969">
        <ele>407.6</ele>
        <time>2026-05-21T12:15:12.000Z</time>
      </trkpt>
      <trkpt lat="43.77642" lon="3.82969">
        <ele>407.7</ele>
        <time>2026-05-21T12:15:13.000Z</time>
      </trkpt>
      <trkpt lat="43.77642" lon="3.82969">
        <ele>407.6</ele>
        <time>2026-05-21T12:15:14.000Z</time>
      </trkpt>
      <trkpt lat="43.77642" lon="3.82969">
        <ele>407.8</ele>
        <time>2026-05-21T12:15:15.000Z</time>
      </trkpt>
      <trkpt lat="43.77642" lon="3.82969">
        <ele>407.9</ele>
        <time>2026-05-21T12:15:16.000Z</time>
      </trkpt>
      <trkpt lat="43.77642" lon="3.82969">
        <ele>407.8</ele>
        <time>2026-05-21T12:15:17.000Z</time>
      </trkpt>
      <trkpt lat="43.77642" lon="3.82969">
        <ele>408.1</ele>
        <time>2026-05-21T12:15:18.000Z</time>
      </trkpt>
      <trkpt lat="43.77642" lon="3.82969">
        <ele>408</ele>
        <time>2026-05-21T12:15:19.000Z</time>
      </trkpt>
      <trkpt lat="43.77642" lon="3.82969">
        <ele>408.2</ele>
        <time>2026-05-21T12:15:20.000Z</time>
      </trkpt>
      <trkpt lat="43.77642" lon="3.82969">
        <ele>408.3</ele>
        <time>2026-05-21T12:15:21.000Z</time>
      </trkpt>
      <trkpt lat="43.77642" lon="3.82969">
        <ele>408.4</ele>
        <time>2026-05-21T12:15:22.000Z</time>
      </trkpt>
      <trkpt lat="43.77642" lon="3.82969">
        <ele>408.5</ele>
        <time>2026-05-21T12:15:23.000Z</time>
      </trkpt>
      <trkpt lat="43.77642" lon="3.82969">
        <ele>408.5</ele>
        <time>2026-05-21T12:15:24.000Z</time>
      </trkpt>
      <trkpt lat="43.77642" lon="3.82969">
        <ele>408.6</ele>
        <time>2026-05-21T12:15:25.000Z</time>
      </trkpt>
      <trkpt lat="43.77642" lon="3.82969">
        <ele>408.6</ele>
        <time>2026-05-21T12:15:26.000Z</time>
      </trkpt>
      <trkpt lat="43.77642" lon="3.82969">
        <ele>408.6</ele>
        <time>2026-05-21T12:15:27.000Z</time>
      </trkpt>
      <trkpt lat="43.77642" lon="3.82969">
        <ele>408.6</ele>
        <time>2026-05-21T12:15:28.000Z</time>
      </trkpt>
      <trkpt lat="43.77642" lon="3.82969">
        <ele>408.7</ele>
        <time>2026-05-21T12:15:29.000Z</time>
      </trkpt>
      <trkpt lat="43.77642" lon="3.82969">
        <ele>408.6</ele>
        <time>2026-05-21T12:15:30.000Z</time>
      </trkpt>
      <trkpt lat="43.77642" lon="3.82969">
        <ele>408.6</ele>
        <time>2026-05-21T12:15:31.000Z</time>
      </trkpt>
      <trkpt lat="43.77643" lon="3.82969">
        <ele>408.7</ele>
        <time>2026-05-21T12:15:32.000Z</time>
      </trkpt>
      <trkpt lat="43.77643" lon="3.82969">
        <ele>408.9</ele>
        <time>2026-05-21T12:15:33.000Z</time>
      </trkpt>
      <trkpt lat="43.77643" lon="3.82969">
        <ele>409.1</ele>
        <time>2026-05-21T12:15:34.000Z</time>
      </trkpt>
      <trkpt lat="43.77643" lon="3.82969">
        <ele>409.2</ele>
        <time>2026-05-21T12:15:35.000Z</time>
      </trkpt>
      <trkpt lat="43.77643" lon="3.82969">
        <ele>409.3</ele>
        <time>2026-05-21T12:15:36.000Z</time>
      </trkpt>
      <trkpt lat="43.77643" lon="3.82969">
        <ele>409.3</ele>
        <time>2026-05-21T12:15:37.000Z</time>
      </trkpt>
      <trkpt lat="43.77643" lon="3.8297">
        <ele>409.3</ele>
        <time>2026-05-21T12:15:38.000Z</time>
      </trkpt>
      <trkpt lat="43.77643" lon="3.8297">
        <ele>409.4</ele>
        <time>2026-05-21T12:15:39.000Z</time>
      </trkpt>
      <trkpt lat="43.77643" lon="3.8297">
        <ele>409.4</ele>
        <time>2026-05-21T12:15:40.000Z</time>
      </trkpt>
      <trkpt lat="43.77641" lon="3.82967">
        <ele>409.5</ele>
        <time>2026-05-21T12:15:42.000Z</time>
      </trkpt>
      <trkpt lat="43.77641" lon="3.82967">
        <ele>410.1</ele>
        <time>2026-05-21T12:15:43.000Z</time>
      </trkpt>
      <trkpt lat="43.77641" lon="3.82967">
        <ele>410.2</ele>
        <time>2026-05-21T12:15:44.000Z</time>
      </trkpt>
      <trkpt lat="43.7764" lon="3.82967">
        <ele>410.3</ele>
        <time>2026-05-21T12:15:45.000Z</time>
      </trkpt>
      <trkpt lat="43.7764" lon="3.82967">
        <ele>410.2</ele>
        <time>2026-05-21T12:15:46.000Z</time>
      </trkpt>
      <trkpt lat="43.7764" lon="3.82967">
        <ele>410.2</ele>
        <time>2026-05-21T12:15:47.000Z</time>
      </trkpt>
      <trkpt lat="43.7764" lon="3.82967">
        <ele>410.3</ele>
        <time>2026-05-21T12:15:48.000Z</time>
      </trkpt>
      <trkpt lat="43.7764" lon="3.82967">
        <ele>410.4</ele>
        <time>2026-05-21T12:15:49.000Z</time>
      </trkpt>
      <trkpt lat="43.7764" lon="3.82967">
        <ele>410.7</ele>
        <time>2026-05-21T12:15:50.000Z</time>
      </trkpt>
      <trkpt lat="43.7764" lon="3.82967">
        <ele>410.6</ele>
        <time>2026-05-21T12:15:51.000Z</time>
      </trkpt>
      <trkpt lat="43.7764" lon="3.82967">
        <ele>410.8</ele>
        <time>2026-05-21T12:15:52.000Z</time>
      </trkpt>
      <trkpt lat="43.7764" lon="3.82967">
        <ele>410.8</ele>
        <time>2026-05-21T12:15:53.000Z</time>
      </trkpt>
      <trkpt lat="43.7764" lon="3.82967">
        <ele>410.9</ele>
        <time>2026-05-21T12:15:54.000Z</time>
      </trkpt>
      <trkpt lat="43.7764" lon="3.82967">
        <ele>410.9</ele>
        <time>2026-05-21T12:15:55.000Z</time>
      </trkpt>
      <trkpt lat="43.7764" lon="3.82967">
        <ele>410.9</ele>
        <time>2026-05-21T12:15:56.000Z</time>
      </trkpt>
      <trkpt lat="43.7764" lon="3.82967">
        <ele>410.8</ele>
        <time>2026-05-21T12:15:57.000Z</time>
      </trkpt>
      <trkpt lat="43.7764" lon="3.82967">
        <ele>410.8</ele>
        <time>2026-05-21T12:15:58.000Z</time>
      </trkpt>
      <trkpt lat="43.7764" lon="3.82967">
        <ele>410.8</ele>
        <time>2026-05-21T12:15:59.000Z</time>
      </trkpt>
      <trkpt lat="43.7764" lon="3.82967">
        <ele>410.8</ele>
        <time>2026-05-21T12:16:00.000Z</time>
      </trkpt>
      <trkpt lat="43.7764" lon="3.82967">
        <ele>410.8</ele>
        <time>2026-05-21T12:16:01.000Z</time>
      </trkpt>
      <trkpt lat="43.7764" lon="3.82966">
        <ele>410.7</ele>
        <time>2026-05-21T12:16:02.000Z</time>
      </trkpt>
      <trkpt lat="43.7764" lon="3.82966">
        <ele>410.5</ele>
        <time>2026-05-21T12:16:03.000Z</time>
      </trkpt>
      <trkpt lat="43.7764" lon="3.82967">
        <ele>410.5</ele>
        <time>2026-05-21T12:16:04.000Z</time>
      </trkpt>
      <trkpt lat="43.7764" lon="3.82967">
        <ele>410.5</ele>
        <time>2026-05-21T12:16:05.000Z</time>
      </trkpt>
      <trkpt lat="43.7764" lon="3.82966">
        <ele>410.4</ele>
        <time>2026-05-21T12:16:06.000Z</time>
      </trkpt>
      <trkpt lat="43.7764" lon="3.82966">
        <ele>410.5</ele>
        <time>2026-05-21T12:16:07.000Z</time>
      </trkpt>
      <trkpt lat="43.7764" lon="3.82966">
        <ele>410.6</ele>
        <time>2026-05-21T12:16:08.000Z</time>
      </trkpt>
      <trkpt lat="43.7764" lon="3.82966">
        <ele>410.7</ele>
        <time>2026-05-21T12:16:09.000Z</time>
      </trkpt>
      <trkpt lat="43.7764" lon="3.82966">
        <ele>410.8</ele>
        <time>2026-05-21T12:16:10.000Z</time>
      </trkpt>
      <trkpt lat="43.7764" lon="3.82966">
        <ele>410.9</ele>
        <time>2026-05-21T12:16:11.000Z</time>
      </trkpt>
      <trkpt lat="43.7764" lon="3.82966">
        <ele>410.8</ele>
        <time>2026-05-21T12:16:12.000Z</time>
      </trkpt>
      <trkpt lat="43.7764" lon="3.82966">
        <ele>410.9</ele>
        <time>2026-05-21T12:16:13.000Z</time>
      </trkpt>
      <trkpt lat="43.7764" lon="3.82966">
        <ele>410.9</ele>
        <time>2026-05-21T12:16:14.000Z</time>
      </trkpt>
      <trkpt lat="43.7764" lon="3.82966">
        <ele>411.2</ele>
        <time>2026-05-21T12:16:15.000Z</time>
      </trkpt>
      <trkpt lat="43.7764" lon="3.82966">
        <ele>411.3</ele>
        <time>2026-05-21T12:16:16.000Z</time>
      </trkpt>
      <trkpt lat="43.7764" lon="3.82966">
        <ele>411.5</ele>
        <time>2026-05-21T12:16:17.000Z</time>
      </trkpt>
      <trkpt lat="43.7764" lon="3.82966">
        <ele>411.6</ele>
        <time>2026-05-21T12:16:18.000Z</time>
      </trkpt>
      <trkpt lat="43.7764" lon="3.82966">
        <ele>411.6</ele>
        <time>2026-05-21T12:16:19.000Z</time>
      </trkpt>
      <trkpt lat="43.7764" lon="3.82966">
        <ele>411.5</ele>
        <time>2026-05-21T12:16:20.000Z</time>
      </trkpt>
      <trkpt lat="43.7764" lon="3.82966">
        <ele>411.5</ele>
        <time>2026-05-21T12:16:21.000Z</time>
      </trkpt>
      <trkpt lat="43.7764" lon="3.82966">
        <ele>411.5</ele>
        <time>2026-05-21T12:16:22.000Z</time>
      </trkpt>
      <trkpt lat="43.7764" lon="3.82966">
        <ele>411.4</ele>
        <time>2026-05-21T12:16:23.000Z</time>
      </trkpt>
      <trkpt lat="43.7764" lon="3.82966">
        <ele>411.4</ele>
        <time>2026-05-21T12:16:24.000Z</time>
      </trkpt>
      <trkpt lat="43.7764" lon="3.82966">
        <ele>411.2</ele>
        <time>2026-05-21T12:16:25.000Z</time>
      </trkpt>
      <trkpt lat="43.7764" lon="3.82966">
        <ele>411.3</ele>
        <time>2026-05-21T12:16:26.000Z</time>
      </trkpt>
      <trkpt lat="43.7764" lon="3.82966">
        <ele>411.3</ele>
        <time>2026-05-21T12:16:27.000Z</time>
      </trkpt>
      <trkpt lat="43.77641" lon="3.82966">
        <ele>411.4</ele>
        <time>2026-05-21T12:16:28.000Z</time>
      </trkpt>
      <trkpt lat="43.77641" lon="3.82966">
        <ele>411.5</ele>
        <time>2026-05-21T12:16:29.000Z</time>
      </trkpt>
      <trkpt lat="43.77641" lon="3.82966">
        <ele>411.5</ele>
        <time>2026-05-21T12:16:30.000Z</time>
      </trkpt>
      <trkpt lat="43.77641" lon="3.82966">
        <ele>411.4</ele>
        <time>2026-05-21T12:16:31.000Z</time>
      </trkpt>
      <trkpt lat="43.77641" lon="3.82965">
        <ele>411.4</ele>
        <time>2026-05-21T12:16:32.000Z</time>
      </trkpt>
      <trkpt lat="43.77641" lon="3.82965">
        <ele>411.4</ele>
        <time>2026-05-21T12:16:33.000Z</time>
      </trkpt>
      <trkpt lat="43.77641" lon="3.82965">
        <ele>411.6</ele>
        <time>2026-05-21T12:16:34.000Z</time>
      </trkpt>
      <trkpt lat="43.77641" lon="3.82965">
        <ele>411.7</ele>
        <time>2026-05-21T12:16:35.000Z</time>
      </trkpt>
      <trkpt lat="43.77641" lon="3.82965">
        <ele>411.8</ele>
        <time>2026-05-21T12:16:36.000Z</time>
      </trkpt>
      <trkpt lat="43.77641" lon="3.82965">
        <ele>411.8</ele>
        <time>2026-05-21T12:16:37.000Z</time>
      </trkpt>
      <trkpt lat="43.77641" lon="3.82965">
        <ele>412</ele>
        <time>2026-05-21T12:16:38.000Z</time>
      </trkpt>
      <trkpt lat="43.77641" lon="3.82965">
        <ele>411.9</ele>
        <time>2026-05-21T12:16:39.000Z</time>
      </trkpt>
      <trkpt lat="43.77641" lon="3.82965">
        <ele>411.7</ele>
        <time>2026-05-21T12:16:40.000Z</time>
      </trkpt>
      <trkpt lat="43.77641" lon="3.82965">
        <ele>411.6</ele>
        <time>2026-05-21T12:16:41.000Z</time>
      </trkpt>
      <trkpt lat="43.77641" lon="3.82965">
        <ele>411.8</ele>
        <time>2026-05-21T12:16:42.000Z</time>
      </trkpt>
      <trkpt lat="43.77641" lon="3.82965">
        <ele>411.8</ele>
        <time>2026-05-21T12:16:43.000Z</time>
      </trkpt>
      <trkpt lat="43.77641" lon="3.82965">
        <ele>411.6</ele>
        <time>2026-05-21T12:16:44.000Z</time>
      </trkpt>
      <trkpt lat="43.77641" lon="3.82965">
        <ele>411.3</ele>
        <time>2026-05-21T12:16:45.000Z</time>
      </trkpt>
      <trkpt lat="43.77641" lon="3.82965">
        <ele>411.2</ele>
        <time>2026-05-21T12:16:46.000Z</time>
      </trkpt>
      <trkpt lat="43.77641" lon="3.82965">
        <ele>411.1</ele>
        <time>2026-05-21T12:16:47.000Z</time>
      </trkpt>
      <trkpt lat="43.77641" lon="3.82965">
        <ele>411.1</ele>
        <time>2026-05-21T12:16:48.000Z</time>
      </trkpt>
      <trkpt lat="43.77641" lon="3.82965">
        <ele>411.1</ele>
        <time>2026-05-21T12:16:49.000Z</time>
      </trkpt>
      <trkpt lat="43.77641" lon="3.82965">
        <ele>411.2</ele>
        <time>2026-05-21T12:16:50.000Z</time>
      </trkpt>
      <trkpt lat="43.77641" lon="3.82965">
        <ele>411.2</ele>
        <time>2026-05-21T12:16:51.000Z</time>
      </trkpt>
      <trkpt lat="43.77641" lon="3.82965">
        <ele>411.2</ele>
        <time>2026-05-21T12:16:52.000Z</time>
      </trkpt>
      <trkpt lat="43.77641" lon="3.82965">
        <ele>411.3</ele>
        <time>2026-05-21T12:16:53.000Z</time>
      </trkpt>
      <trkpt lat="43.77641" lon="3.82965">
        <ele>411.5</ele>
        <time>2026-05-21T12:16:54.000Z</time>
      </trkpt>
      <trkpt lat="43.77641" lon="3.82965">
        <ele>411.6</ele>
        <time>2026-05-21T12:16:55.000Z</time>
      </trkpt>
      <trkpt lat="43.77641" lon="3.82965">
        <ele>411.6</ele>
        <time>2026-05-21T12:16:56.000Z</time>
      </trkpt>
      <trkpt lat="43.77641" lon="3.82965">
        <ele>411.6</ele>
        <time>2026-05-21T12:16:57.000Z</time>
      </trkpt>
      <trkpt lat="43.77641" lon="3.82965">
        <ele>411.4</ele>
        <time>2026-05-21T12:16:58.000Z</time>
      </trkpt>
      <trkpt lat="43.77641" lon="3.82965">
        <ele>411.4</ele>
        <time>2026-05-21T12:16:59.000Z</time>
      </trkpt>
      <trkpt lat="43.77641" lon="3.82965">
        <ele>411.6</ele>
        <time>2026-05-21T12:17:00.000Z</time>
      </trkpt>
      <trkpt lat="43.77641" lon="3.82965">
        <ele>411.6</ele>
        <time>2026-05-21T12:17:01.000Z</time>
      </trkpt>
      <trkpt lat="43.77641" lon="3.82965">
        <ele>411.6</ele>
        <time>2026-05-21T12:17:02.000Z</time>
      </trkpt>
      <trkpt lat="43.77641" lon="3.82965">
        <ele>411.8</ele>
        <time>2026-05-21T12:17:03.000Z</time>
      </trkpt>
      <trkpt lat="43.77641" lon="3.82965">
        <ele>411.9</ele>
        <time>2026-05-21T12:17:04.000Z</time>
      </trkpt>
      <trkpt lat="43.77641" lon="3.82965">
        <ele>411.9</ele>
        <time>2026-05-21T12:17:05.000Z</time>
      </trkpt>
      <trkpt lat="43.77641" lon="3.82965">
        <ele>412</ele>
        <time>2026-05-21T12:17:06.000Z</time>
      </trkpt>
      <trkpt lat="43.77641" lon="3.82965">
        <ele>411.8</ele>
        <time>2026-05-21T12:17:07.000Z</time>
      </trkpt>
      <trkpt lat="43.77641" lon="3.82965">
        <ele>411.7</ele>
        <time>2026-05-21T12:17:08.000Z</time>
      </trkpt>
      <trkpt lat="43.77641" lon="3.82966">
        <ele>411.6</ele>
        <time>2026-05-21T12:17:09.000Z</time>
      </trkpt>
      <trkpt lat="43.77641" lon="3.82966">
        <ele>411.5</ele>
        <time>2026-05-21T12:17:10.000Z</time>
      </trkpt>
      <trkpt lat="43.77641" lon="3.82966">
        <ele>411.4</ele>
        <time>2026-05-21T12:17:11.000Z</time>
      </trkpt>
      <trkpt lat="43.77642" lon="3.82968">
        <ele>411.1</ele>
        <time>2026-05-21T12:17:12.000Z</time>
      </trkpt>
      <trkpt lat="43.77642" lon="3.8297">
        <ele>410.7</ele>
        <time>2026-05-21T12:17:13.000Z</time>
      </trkpt>
      <trkpt lat="43.77642" lon="3.82971">
        <ele>410.3</ele>
        <time>2026-05-21T12:17:14.000Z</time>
      </trkpt>
      <trkpt lat="43.77643" lon="3.82971">
        <ele>410.2</ele>
        <time>2026-05-21T12:17:15.000Z</time>
      </trkpt>
      <trkpt lat="43.77643" lon="3.82971">
        <ele>410.2</ele>
        <time>2026-05-21T12:17:16.000Z</time>
      </trkpt>
      <trkpt lat="43.77643" lon="3.82971">
        <ele>410.2</ele>
        <time>2026-05-21T12:17:17.000Z</time>
      </trkpt>
      <trkpt lat="43.77643" lon="3.82971">
        <ele>410.3</ele>
        <time>2026-05-21T12:17:18.000Z</time>
      </trkpt>
      <trkpt lat="43.77643" lon="3.82972">
        <ele>410.4</ele>
        <time>2026-05-21T12:17:19.000Z</time>
      </trkpt>
      <trkpt lat="43.77643" lon="3.82972">
        <ele>410.3</ele>
        <time>2026-05-21T12:17:20.000Z</time>
      </trkpt>
      <trkpt lat="43.77643" lon="3.82972">
        <ele>410.4</ele>
        <time>2026-05-21T12:17:21.000Z</time>
      </trkpt>
      <trkpt lat="43.77643" lon="3.82972">
        <ele>410.4</ele>
        <time>2026-05-21T12:17:22.000Z</time>
      </trkpt>
      <trkpt lat="43.77643" lon="3.82972">
        <ele>410.5</ele>
        <time>2026-05-21T12:17:23.000Z</time>
      </trkpt>
      <trkpt lat="43.77643" lon="3.82972">
        <ele>410.5</ele>
        <time>2026-05-21T12:17:24.000Z</time>
      </trkpt>
      <trkpt lat="43.77643" lon="3.82972">
        <ele>410.5</ele>
        <time>2026-05-21T12:17:25.000Z</time>
      </trkpt>
      <trkpt lat="43.77643" lon="3.82972">
        <ele>410.5</ele>
        <time>2026-05-21T12:17:26.000Z</time>
      </trkpt>
      <trkpt lat="43.77643" lon="3.82972">
        <ele>410.6</ele>
        <time>2026-05-21T12:17:27.000Z</time>
      </trkpt>
      <trkpt lat="43.77643" lon="3.82972">
        <ele>410.7</ele>
        <time>2026-05-21T12:17:28.000Z</time>
      </trkpt>
      <trkpt lat="43.77643" lon="3.82971">
        <ele>411.1</ele>
        <time>2026-05-21T12:17:29.000Z</time>
      </trkpt>
      <trkpt lat="43.77643" lon="3.82971">
        <ele>411.1</ele>
        <time>2026-05-21T12:17:30.000Z</time>
      </trkpt>
      <trkpt lat="43.77643" lon="3.82971">
        <ele>411.2</ele>
        <time>2026-05-21T12:17:31.000Z</time>
      </trkpt>
      <trkpt lat="43.77644" lon="3.82972">
        <ele>411.9</ele>
        <time>2026-05-21T12:17:32.000Z</time>
      </trkpt>
      <trkpt lat="43.77644" lon="3.82971">
        <ele>412.2</ele>
        <time>2026-05-21T12:17:33.000Z</time>
      </trkpt>
      <trkpt lat="43.77644" lon="3.8297">
        <ele>412.5</ele>
        <time>2026-05-21T12:17:34.000Z</time>
      </trkpt>
      <trkpt lat="43.77645" lon="3.82969">
        <ele>412.6</ele>
        <time>2026-05-21T12:17:35.000Z</time>
      </trkpt>
      <trkpt lat="43.77645" lon="3.82969">
        <ele>412.6</ele>
        <time>2026-05-21T12:17:36.000Z</time>
      </trkpt>
      <trkpt lat="43.77646" lon="3.82969">
        <ele>412.8</ele>
        <time>2026-05-21T12:17:37.000Z</time>
      </trkpt>
      <trkpt lat="43.77646" lon="3.82969">
        <ele>412.8</ele>
        <time>2026-05-21T12:17:38.000Z</time>
      </trkpt>
      <trkpt lat="43.77647" lon="3.82969">
        <ele>412.8</ele>
        <time>2026-05-21T12:17:39.000Z</time>
      </trkpt>
      <trkpt lat="43.77647" lon="3.82969">
        <ele>412.7</ele>
        <time>2026-05-21T12:17:40.000Z</time>
      </trkpt>
      <trkpt lat="43.77647" lon="3.82969">
        <ele>412.6</ele>
        <time>2026-05-21T12:17:41.000Z</time>
      </trkpt>
      <trkpt lat="43.77646" lon="3.82969">
        <ele>412.5</ele>
        <time>2026-05-21T12:17:42.000Z</time>
      </trkpt>
      <trkpt lat="43.77646" lon="3.82968">
        <ele>412.4</ele>
        <time>2026-05-21T12:17:43.000Z</time>
      </trkpt>
      <trkpt lat="43.77646" lon="3.82968">
        <ele>412.6</ele>
        <time>2026-05-21T12:17:44.999Z</time>
      </trkpt>
      <trkpt lat="43.77646" lon="3.82968">
        <ele>412.8</ele>
        <time>2026-05-21T12:17:45.999Z</time>
      </trkpt>
      <trkpt lat="43.77646" lon="3.82968">
        <ele>412.9</ele>
        <time>2026-05-21T12:17:46.999Z</time>
      </trkpt>
      <trkpt lat="43.77647" lon="3.82968">
        <ele>412.6</ele>
        <time>2026-05-21T12:17:47.999Z</time>
      </trkpt>
      <trkpt lat="43.77647" lon="3.82968">
        <ele>412.2</ele>
        <time>2026-05-21T12:17:48.999Z</time>
      </trkpt>
      <trkpt lat="43.77647" lon="3.82968">
        <ele>412.3</ele>
        <time>2026-05-21T12:17:49.999Z</time>
      </trkpt>
      <trkpt lat="43.77647" lon="3.82968">
        <ele>412.6</ele>
        <time>2026-05-21T12:17:50.999Z</time>
      </trkpt>
      <trkpt lat="43.77647" lon="3.82968">
        <ele>412.8</ele>
        <time>2026-05-21T12:17:51.999Z</time>
      </trkpt>
      <trkpt lat="43.77647" lon="3.82968">
        <ele>413</ele>
        <time>2026-05-21T12:17:52.999Z</time>
      </trkpt>
      <trkpt lat="43.77647" lon="3.82968">
        <ele>413.2</ele>
        <time>2026-05-21T12:17:53.999Z</time>
      </trkpt>
      <trkpt lat="43.77647" lon="3.82968">
        <ele>413.5</ele>
        <time>2026-05-21T12:17:54.999Z</time>
      </trkpt>
      <trkpt lat="43.77647" lon="3.82968">
        <ele>414</ele>
        <time>2026-05-21T12:17:55.999Z</time>
      </trkpt>
      <trkpt lat="43.77647" lon="3.82969">
        <ele>414.4</ele>
        <time>2026-05-21T12:17:56.999Z</time>
      </trkpt>
      <trkpt lat="43.77647" lon="3.82969">
        <ele>414.5</ele>
        <time>2026-05-21T12:17:57.999Z</time>
      </trkpt>
      <trkpt lat="43.77647" lon="3.82969">
        <ele>414.4</ele>
        <time>2026-05-21T12:17:58.999Z</time>
      </trkpt>
      <trkpt lat="43.77647" lon="3.82969">
        <ele>414.6</ele>
        <time>2026-05-21T12:17:59.999Z</time>
      </trkpt>
      <trkpt lat="43.77647" lon="3.82969">
        <ele>414.7</ele>
        <time>2026-05-21T12:18:00.999Z</time>
      </trkpt>
      <trkpt lat="43.77647" lon="3.82969">
        <ele>414.8</ele>
        <time>2026-05-21T12:18:01.999Z</time>
      </trkpt>
      <trkpt lat="43.77647" lon="3.82969">
        <ele>414.9</ele>
        <time>2026-05-21T12:18:02.999Z</time>
      </trkpt>
      <trkpt lat="43.77647" lon="3.82968">
        <ele>415</ele>
        <time>2026-05-21T12:18:03.999Z</time>
      </trkpt>
      <trkpt lat="43.77647" lon="3.82968">
        <ele>415</ele>
        <time>2026-05-21T12:18:04.999Z</time>
      </trkpt>
      <trkpt lat="43.77647" lon="3.82968">
        <ele>415</ele>
        <time>2026-05-21T12:18:05.999Z</time>
      </trkpt>
      <trkpt lat="43.77647" lon="3.82968">
        <ele>414.9</ele>
        <time>2026-05-21T12:18:06.999Z</time>
      </trkpt>
      <trkpt lat="43.77647" lon="3.82968">
        <ele>414.8</ele>
        <time>2026-05-21T12:18:07.999Z</time>
      </trkpt>
      <trkpt lat="43.77647" lon="3.82968">
        <ele>414.6</ele>
        <time>2026-05-21T12:18:08.999Z</time>
      </trkpt>
      <trkpt lat="43.77647" lon="3.82968">
        <ele>414.4</ele>
        <time>2026-05-21T12:18:09.999Z</time>
      </trkpt>
      <trkpt lat="43.77647" lon="3.82968">
        <ele>414.3</ele>
        <time>2026-05-21T12:18:10.999Z</time>
      </trkpt>
      <trkpt lat="43.77647" lon="3.82968">
        <ele>414.2</ele>
        <time>2026-05-21T12:18:11.999Z</time>
      </trkpt>
      <trkpt lat="43.77647" lon="3.82968">
        <ele>414</ele>
        <time>2026-05-21T12:18:12.999Z</time>
      </trkpt>
      <trkpt lat="43.77647" lon="3.82968">
        <ele>413.8</ele>
        <time>2026-05-21T12:18:13.999Z</time>
      </trkpt>
      <trkpt lat="43.77647" lon="3.82968">
        <ele>413.8</ele>
        <time>2026-05-21T12:18:14.999Z</time>
      </trkpt>
      <trkpt lat="43.77647" lon="3.82968">
        <ele>413.9</ele>
        <time>2026-05-21T12:18:15.999Z</time>
      </trkpt>
      <trkpt lat="43.77647" lon="3.82968">
        <ele>413.8</ele>
        <time>2026-05-21T12:18:16.999Z</time>
      </trkpt>
      <trkpt lat="43.77647" lon="3.82968">
        <ele>413.7</ele>
        <time>2026-05-21T12:18:17.999Z</time>
      </trkpt>
      <trkpt lat="43.77647" lon="3.82968">
        <ele>413.7</ele>
        <time>2026-05-21T12:18:18.999Z</time>
      </trkpt>
      <trkpt lat="43.77647" lon="3.82968">
        <ele>413.5</ele>
        <time>2026-05-21T12:18:19.999Z</time>
      </trkpt>
      <trkpt lat="43.77647" lon="3.82968">
        <ele>413.3</ele>
        <time>2026-05-21T12:18:20.999Z</time>
      </trkpt>
      <trkpt lat="43.77647" lon="3.82968">
        <ele>413.4</ele>
        <time>2026-05-21T12:18:21.999Z</time>
      </trkpt>
      <trkpt lat="43.77647" lon="3.82968">
        <ele>413.4</ele>
        <time>2026-05-21T12:18:22.999Z</time>
      </trkpt>
      <trkpt lat="43.77647" lon="3.82968">
        <ele>413.5</ele>
        <time>2026-05-21T12:18:23.999Z</time>
      </trkpt>
      <trkpt lat="43.77647" lon="3.82968">
        <ele>413.4</ele>
        <time>2026-05-21T12:18:24.999Z</time>
      </trkpt>
      <trkpt lat="43.77647" lon="3.82968">
        <ele>413</ele>
        <time>2026-05-21T12:18:25.999Z</time>
      </trkpt>
      <trkpt lat="43.77647" lon="3.82968">
        <ele>412.5</ele>
        <time>2026-05-21T12:18:26.999Z</time>
      </trkpt>
      <trkpt lat="43.77647" lon="3.82968">
        <ele>412.6</ele>
        <time>2026-05-21T12:18:27.999Z</time>
      </trkpt>
      <trkpt lat="43.77647" lon="3.82967">
        <ele>412.8</ele>
        <time>2026-05-21T12:18:28.999Z</time>
      </trkpt>
      <trkpt lat="43.77647" lon="3.82967">
        <ele>413.1</ele>
        <time>2026-05-21T12:18:29.999Z</time>
      </trkpt>
      <trkpt lat="43.77647" lon="3.82967">
        <ele>413.2</ele>
        <time>2026-05-21T12:18:30.999Z</time>
      </trkpt>
      <trkpt lat="43.77647" lon="3.82967">
        <ele>413.2</ele>
        <time>2026-05-21T12:18:31.999Z</time>
      </trkpt>
      <trkpt lat="43.77647" lon="3.82967">
        <ele>413.4</ele>
        <time>2026-05-21T12:18:32.999Z</time>
      </trkpt>
      <trkpt lat="43.77647" lon="3.82967">
        <ele>413.2</ele>
        <time>2026-05-21T12:18:33.999Z</time>
      </trkpt>
      <trkpt lat="43.77647" lon="3.82967">
        <ele>413.1</ele>
        <time>2026-05-21T12:18:34.999Z</time>
      </trkpt>
      <trkpt lat="43.77647" lon="3.82967">
        <ele>413</ele>
        <time>2026-05-21T12:18:35.999Z</time>
      </trkpt>
      <trkpt lat="43.77647" lon="3.82967">
        <ele>412.8</ele>
        <time>2026-05-21T12:18:36.999Z</time>
      </trkpt>
      <trkpt lat="43.77647" lon="3.82967">
        <ele>412.8</ele>
        <time>2026-05-21T12:18:37.999Z</time>
      </trkpt>
      <trkpt lat="43.77647" lon="3.82967">
        <ele>412.7</ele>
        <time>2026-05-21T12:18:38.999Z</time>
      </trkpt>
      <trkpt lat="43.77647" lon="3.82967">
        <ele>412.6</ele>
        <time>2026-05-21T12:18:39.999Z</time>
      </trkpt>
      <trkpt lat="43.77647" lon="3.82966">
        <ele>412.5</ele>
        <time>2026-05-21T12:18:40.999Z</time>
      </trkpt>
      <trkpt lat="43.77648" lon="3.82964">
        <ele>412.4</ele>
        <time>2026-05-21T12:18:41.999Z</time>
      </trkpt>
      <trkpt lat="43.77648" lon="3.82963">
        <ele>412.4</ele>
        <time>2026-05-21T12:18:42.999Z</time>
      </trkpt>
      <trkpt lat="43.77648" lon="3.82962">
        <ele>412.3</ele>
        <time>2026-05-21T12:18:43.999Z</time>
      </trkpt>
      <trkpt lat="43.77648" lon="3.82962">
        <ele>412.2</ele>
        <time>2026-05-21T12:18:44.999Z</time>
      </trkpt>
      <trkpt lat="43.77649" lon="3.82962">
        <ele>412.1</ele>
        <time>2026-05-21T12:18:45.999Z</time>
      </trkpt>
      <trkpt lat="43.77649" lon="3.82962">
        <ele>411.9</ele>
        <time>2026-05-21T12:18:46.999Z</time>
      </trkpt>
      <trkpt lat="43.77649" lon="3.82962">
        <ele>411.9</ele>
        <time>2026-05-21T12:18:47.999Z</time>
      </trkpt>
      <trkpt lat="43.77649" lon="3.82962">
        <ele>411.8</ele>
        <time>2026-05-21T12:18:48.999Z</time>
      </trkpt>
      <trkpt lat="43.77649" lon="3.82962">
        <ele>412.1</ele>
        <time>2026-05-21T12:18:49.999Z</time>
      </trkpt>
      <trkpt lat="43.77649" lon="3.82962">
        <ele>412.1</ele>
        <time>2026-05-21T12:18:50.999Z</time>
      </trkpt>
      <trkpt lat="43.77649" lon="3.82962">
        <ele>412.2</ele>
        <time>2026-05-21T12:18:51.999Z</time>
      </trkpt>
      <trkpt lat="43.77649" lon="3.82961">
        <ele>412.1</ele>
        <time>2026-05-21T12:18:52.999Z</time>
      </trkpt>
      <trkpt lat="43.77649" lon="3.82961">
        <ele>412.1</ele>
        <time>2026-05-21T12:18:53.999Z</time>
      </trkpt>
      <trkpt lat="43.77649" lon="3.82961">
        <ele>412.3</ele>
        <time>2026-05-21T12:18:54.999Z</time>
      </trkpt>
      <trkpt lat="43.77649" lon="3.82962">
        <ele>412.5</ele>
        <time>2026-05-21T12:18:55.999Z</time>
      </trkpt>
      <trkpt lat="43.77649" lon="3.82961">
        <ele>412.6</ele>
        <time>2026-05-21T12:18:56.999Z</time>
      </trkpt>
      <trkpt lat="43.77648" lon="3.82961">
        <ele>412.5</ele>
        <time>2026-05-21T12:18:57.999Z</time>
      </trkpt>
      <trkpt lat="43.77648" lon="3.82962">
        <ele>412.9</ele>
        <time>2026-05-21T12:18:58.999Z</time>
      </trkpt>
      <trkpt lat="43.77648" lon="3.82961">
        <ele>412.9</ele>
        <time>2026-05-21T12:18:59.999Z</time>
      </trkpt>
      <trkpt lat="43.77648" lon="3.82961">
        <ele>412.7</ele>
        <time>2026-05-21T12:19:00.999Z</time>
      </trkpt>
      <trkpt lat="43.77648" lon="3.82961">
        <ele>412.8</ele>
        <time>2026-05-21T12:19:01.999Z</time>
      </trkpt>
      <trkpt lat="43.77648" lon="3.82961">
        <ele>412.9</ele>
        <time>2026-05-21T12:19:02.999Z</time>
      </trkpt>
      <trkpt lat="43.77648" lon="3.82961">
        <ele>412.8</ele>
        <time>2026-05-21T12:19:03.999Z</time>
      </trkpt>
      <trkpt lat="43.77648" lon="3.82961">
        <ele>412.8</ele>
        <time>2026-05-21T12:19:04.999Z</time>
      </trkpt>
      <trkpt lat="43.77648" lon="3.82961">
        <ele>412.9</ele>
        <time>2026-05-21T12:19:05.999Z</time>
      </trkpt>
      <trkpt lat="43.77648" lon="3.82961">
        <ele>413.1</ele>
        <time>2026-05-21T12:19:06.999Z</time>
      </trkpt>
      <trkpt lat="43.77648" lon="3.82961">
        <ele>413.2</ele>
        <time>2026-05-21T12:19:07.999Z</time>
      </trkpt>
      <trkpt lat="43.77648" lon="3.82961">
        <ele>413.2</ele>
        <time>2026-05-21T12:19:08.999Z</time>
      </trkpt>
      <trkpt lat="43.77648" lon="3.82961">
        <ele>413.3</ele>
        <time>2026-05-21T12:19:09.999Z</time>
      </trkpt>
      <trkpt lat="43.77648" lon="3.82961">
        <ele>413.3</ele>
        <time>2026-05-21T12:19:10.999Z</time>
      </trkpt>
      <trkpt lat="43.77647" lon="3.82961">
        <ele>413.2</ele>
        <time>2026-05-21T12:19:11.999Z</time>
      </trkpt>
      <trkpt lat="43.77647" lon="3.82961">
        <ele>413.1</ele>
        <time>2026-05-21T12:19:12.999Z</time>
      </trkpt>
      <trkpt lat="43.77647" lon="3.82961">
        <ele>413.1</ele>
        <time>2026-05-21T12:19:13.999Z</time>
      </trkpt>
      <trkpt lat="43.77647" lon="3.82961">
        <ele>413</ele>
        <time>2026-05-21T12:19:14.999Z</time>
      </trkpt>
      <trkpt lat="43.77647" lon="3.82961">
        <ele>413</ele>
        <time>2026-05-21T12:19:15.999Z</time>
      </trkpt>
      <trkpt lat="43.77647" lon="3.8296">
        <ele>413</ele>
        <time>2026-05-21T12:19:16.999Z</time>
      </trkpt>
      <trkpt lat="43.77646" lon="3.8296">
        <ele>412.9</ele>
        <time>2026-05-21T12:19:17.999Z</time>
      </trkpt>
      <trkpt lat="43.77646" lon="3.8296">
        <ele>412.9</ele>
        <time>2026-05-21T12:19:18.999Z</time>
      </trkpt>
      <trkpt lat="43.77646" lon="3.8296">
        <ele>412.9</ele>
        <time>2026-05-21T12:19:19.999Z</time>
      </trkpt>
      <trkpt lat="43.77646" lon="3.8296">
        <ele>412.7</ele>
        <time>2026-05-21T12:19:20.999Z</time>
      </trkpt>
      <trkpt lat="43.77646" lon="3.8296">
        <ele>412.7</ele>
        <time>2026-05-21T12:19:21.999Z</time>
      </trkpt>
      <trkpt lat="43.77646" lon="3.8296">
        <ele>412.7</ele>
        <time>2026-05-21T12:19:22.999Z</time>
      </trkpt>
      <trkpt lat="43.77646" lon="3.8296">
        <ele>412.5</ele>
        <time>2026-05-21T12:19:23.999Z</time>
      </trkpt>
      <trkpt lat="43.77646" lon="3.8296">
        <ele>412.5</ele>
        <time>2026-05-21T12:19:24.999Z</time>
      </trkpt>
      <trkpt lat="43.77646" lon="3.8296">
        <ele>412.3</ele>
        <time>2026-05-21T12:19:25.999Z</time>
      </trkpt>
      <trkpt lat="43.77646" lon="3.82959">
        <ele>412.4</ele>
        <time>2026-05-21T12:19:26.999Z</time>
      </trkpt>
      <trkpt lat="43.77646" lon="3.82959">
        <ele>412.4</ele>
        <time>2026-05-21T12:19:27.999Z</time>
      </trkpt>
      <trkpt lat="43.77646" lon="3.82959">
        <ele>412.3</ele>
        <time>2026-05-21T12:19:28.999Z</time>
      </trkpt>
      <trkpt lat="43.77646" lon="3.82959">
        <ele>412.1</ele>
        <time>2026-05-21T12:19:29.999Z</time>
      </trkpt>
      <trkpt lat="43.77646" lon="3.82959">
        <ele>412.1</ele>
        <time>2026-05-21T12:19:30.999Z</time>
      </trkpt>
      <trkpt lat="43.77646" lon="3.82958">
        <ele>412.2</ele>
        <time>2026-05-21T12:19:31.999Z</time>
      </trkpt>
      <trkpt lat="43.77646" lon="3.82958">
        <ele>412.3</ele>
        <time>2026-05-21T12:19:32.999Z</time>
      </trkpt>
      <trkpt lat="43.77646" lon="3.82957">
        <ele>412.2</ele>
        <time>2026-05-21T12:19:33.999Z</time>
      </trkpt>
      <trkpt lat="43.77647" lon="3.82957">
        <ele>412.3</ele>
        <time>2026-05-21T12:19:34.999Z</time>
      </trkpt>
      <trkpt lat="43.77647" lon="3.82956">
        <ele>412.4</ele>
        <time>2026-05-21T12:19:35.999Z</time>
      </trkpt>
      <trkpt lat="43.77647" lon="3.82956">
        <ele>412.3</ele>
        <time>2026-05-21T12:19:36.999Z</time>
      </trkpt>
      <trkpt lat="43.77647" lon="3.82956">
        <ele>412.4</ele>
        <time>2026-05-21T12:19:37.999Z</time>
      </trkpt>
      <trkpt lat="43.77647" lon="3.82956">
        <ele>412.5</ele>
        <time>2026-05-21T12:19:38.999Z</time>
      </trkpt>
      <trkpt lat="43.77647" lon="3.82956">
        <ele>412.4</ele>
        <time>2026-05-21T12:19:39.999Z</time>
      </trkpt>
      <trkpt lat="43.77647" lon="3.82955">
        <ele>412.7</ele>
        <time>2026-05-21T12:19:40.999Z</time>
      </trkpt>
      <trkpt lat="43.77647" lon="3.82955">
        <ele>413.2</ele>
        <time>2026-05-21T12:19:41.999Z</time>
      </trkpt>
      <trkpt lat="43.77647" lon="3.82955">
        <ele>413.5</ele>
        <time>2026-05-21T12:19:42.999Z</time>
      </trkpt>
      <trkpt lat="43.77647" lon="3.82955">
        <ele>413.7</ele>
        <time>2026-05-21T12:19:43.999Z</time>
      </trkpt>
      <trkpt lat="43.77647" lon="3.82955">
        <ele>413.7</ele>
        <time>2026-05-21T12:19:44.999Z</time>
      </trkpt>
      <trkpt lat="43.77647" lon="3.82955">
        <ele>413.7</ele>
        <time>2026-05-21T12:19:45.999Z</time>
      </trkpt>
      <trkpt lat="43.77647" lon="3.82955">
        <ele>413.7</ele>
        <time>2026-05-21T12:19:46.999Z</time>
      </trkpt>
      <trkpt lat="43.77647" lon="3.82955">
        <ele>413.6</ele>
        <time>2026-05-21T12:19:47.999Z</time>
      </trkpt>
      <trkpt lat="43.77647" lon="3.82955">
        <ele>413.7</ele>
        <time>2026-05-21T12:19:48.999Z</time>
      </trkpt>
      <trkpt lat="43.77647" lon="3.82955">
        <ele>413.6</ele>
        <time>2026-05-21T12:19:49.999Z</time>
      </trkpt>
      <trkpt lat="43.77647" lon="3.82955">
        <ele>413.7</ele>
        <time>2026-05-21T12:19:50.999Z</time>
      </trkpt>
      <trkpt lat="43.77647" lon="3.82955">
        <ele>414</ele>
        <time>2026-05-21T12:19:51.999Z</time>
      </trkpt>
      <trkpt lat="43.77647" lon="3.82955">
        <ele>414.1</ele>
        <time>2026-05-21T12:19:53.999Z</time>
      </trkpt>
      <trkpt lat="43.77647" lon="3.82955">
        <ele>414.2</ele>
        <time>2026-05-21T12:19:54.999Z</time>
      </trkpt>
      <trkpt lat="43.77647" lon="3.82955">
        <ele>414.2</ele>
        <time>2026-05-21T12:19:55.999Z</time>
      </trkpt>
      <trkpt lat="43.77647" lon="3.82955">
        <ele>414</ele>
        <time>2026-05-21T12:19:56.999Z</time>
      </trkpt>
      <trkpt lat="43.77647" lon="3.82955">
        <ele>413.9</ele>
        <time>2026-05-21T12:19:57.999Z</time>
      </trkpt>
      <trkpt lat="43.77647" lon="3.82955">
        <ele>414.1</ele>
        <time>2026-05-21T12:19:58.999Z</time>
      </trkpt>
      <trkpt lat="43.77647" lon="3.82955">
        <ele>414.2</ele>
        <time>2026-05-21T12:19:59.999Z</time>
      </trkpt>
      <trkpt lat="43.77647" lon="3.82955">
        <ele>414.2</ele>
        <time>2026-05-21T12:20:00.999Z</time>
      </trkpt>
      <trkpt lat="43.77647" lon="3.82955">
        <ele>414</ele>
        <time>2026-05-21T12:20:01.999Z</time>
      </trkpt>
      <trkpt lat="43.77647" lon="3.82955">
        <ele>413.9</ele>
        <time>2026-05-21T12:20:02.999Z</time>
      </trkpt>
      <trkpt lat="43.77647" lon="3.82955">
        <ele>413.8</ele>
        <time>2026-05-21T12:20:03.999Z</time>
      </trkpt>
      <trkpt lat="43.77647" lon="3.82955">
        <ele>413.9</ele>
        <time>2026-05-21T12:20:04.999Z</time>
      </trkpt>
      <trkpt lat="43.77647" lon="3.82955">
        <ele>413.9</ele>
        <time>2026-05-21T12:20:05.999Z</time>
      </trkpt>
      <trkpt lat="43.77647" lon="3.82955">
        <ele>414</ele>
        <time>2026-05-21T12:20:06.999Z</time>
      </trkpt>
      <trkpt lat="43.77647" lon="3.82955">
        <ele>414</ele>
        <time>2026-05-21T12:20:07.999Z</time>
      </trkpt>
      <trkpt lat="43.77647" lon="3.82955">
        <ele>414.1</ele>
        <time>2026-05-21T12:20:08.999Z</time>
      </trkpt>
      <trkpt lat="43.77647" lon="3.82955">
        <ele>414.2</ele>
        <time>2026-05-21T12:20:09.999Z</time>
      </trkpt>
      <trkpt lat="43.77647" lon="3.82955">
        <ele>414.2</ele>
        <time>2026-05-21T12:20:10.999Z</time>
      </trkpt>
      <trkpt lat="43.77646" lon="3.82954">
        <ele>414.3</ele>
        <time>2026-05-21T12:20:11.999Z</time>
      </trkpt>
      <trkpt lat="43.77646" lon="3.82954">
        <ele>414.2</ele>
        <time>2026-05-21T12:20:12.999Z</time>
      </trkpt>
      <trkpt lat="43.77646" lon="3.82954">
        <ele>414.3</ele>
        <time>2026-05-21T12:20:13.999Z</time>
      </trkpt>
      <trkpt lat="43.77646" lon="3.82954">
        <ele>414.3</ele>
        <time>2026-05-21T12:20:14.999Z</time>
      </trkpt>
      <trkpt lat="43.77646" lon="3.82954">
        <ele>414.2</ele>
        <time>2026-05-21T12:20:15.999Z</time>
      </trkpt>
      <trkpt lat="43.77646" lon="3.82954">
        <ele>414.4</ele>
        <time>2026-05-21T12:20:16.999Z</time>
      </trkpt>
      <trkpt lat="43.77646" lon="3.82954">
        <ele>414.5</ele>
        <time>2026-05-21T12:20:17.999Z</time>
      </trkpt>
      <trkpt lat="43.77646" lon="3.82954">
        <ele>414.6</ele>
        <time>2026-05-21T12:20:18.999Z</time>
      </trkpt>
      <trkpt lat="43.77646" lon="3.82954">
        <ele>414.9</ele>
        <time>2026-05-21T12:20:19.999Z</time>
      </trkpt>
      <trkpt lat="43.77646" lon="3.82954">
        <ele>414.9</ele>
        <time>2026-05-21T12:20:20.999Z</time>
      </trkpt>
      <trkpt lat="43.77646" lon="3.82954">
        <ele>415</ele>
        <time>2026-05-21T12:20:21.999Z</time>
      </trkpt>
      <trkpt lat="43.77646" lon="3.82954">
        <ele>415.2</ele>
        <time>2026-05-21T12:20:22.999Z</time>
      </trkpt>
      <trkpt lat="43.77646" lon="3.82954">
        <ele>415.3</ele>
        <time>2026-05-21T12:20:23.999Z</time>
      </trkpt>
      <trkpt lat="43.77646" lon="3.82954">
        <ele>415.3</ele>
        <time>2026-05-21T12:20:24.999Z</time>
      </trkpt>
      <trkpt lat="43.77646" lon="3.82953">
        <ele>415.3</ele>
        <time>2026-05-21T12:20:25.999Z</time>
      </trkpt>
      <trkpt lat="43.77646" lon="3.82953">
        <ele>415.3</ele>
        <time>2026-05-21T12:20:26.999Z</time>
      </trkpt>
      <trkpt lat="43.77646" lon="3.82953">
        <ele>415.2</ele>
        <time>2026-05-21T12:20:27.999Z</time>
      </trkpt>
      <trkpt lat="43.77646" lon="3.82953">
        <ele>415.2</ele>
        <time>2026-05-21T12:20:28.999Z</time>
      </trkpt>
      <trkpt lat="43.77646" lon="3.82953">
        <ele>415.3</ele>
        <time>2026-05-21T12:20:29.999Z</time>
      </trkpt>
      <trkpt lat="43.77646" lon="3.82953">
        <ele>415.2</ele>
        <time>2026-05-21T12:20:30.999Z</time>
      </trkpt>
      <trkpt lat="43.77646" lon="3.82953">
        <ele>415.1</ele>
        <time>2026-05-21T12:20:31.999Z</time>
      </trkpt>
      <trkpt lat="43.77646" lon="3.82953">
        <ele>415.1</ele>
        <time>2026-05-21T12:20:32.999Z</time>
      </trkpt>
      <trkpt lat="43.77646" lon="3.82953">
        <ele>415.2</ele>
        <time>2026-05-21T12:20:33.999Z</time>
      </trkpt>
      <trkpt lat="43.77646" lon="3.82953">
        <ele>415.2</ele>
        <time>2026-05-21T12:20:35.999Z</time>
      </trkpt>
      <trkpt lat="43.77646" lon="3.82953">
        <ele>415.4</ele>
        <time>2026-05-21T12:20:36.999Z</time>
      </trkpt>
      <trkpt lat="43.77646" lon="3.82953">
        <ele>415.8</ele>
        <time>2026-05-21T12:20:37.999Z</time>
      </trkpt>
      <trkpt lat="43.77646" lon="3.82954">
        <ele>415.8</ele>
        <time>2026-05-21T12:20:38.999Z</time>
      </trkpt>
      <trkpt lat="43.77646" lon="3.82954">
        <ele>415.9</ele>
        <time>2026-05-21T12:20:39.999Z</time>
      </trkpt>
      <trkpt lat="43.77646" lon="3.82954">
        <ele>416.1</ele>
        <time>2026-05-21T12:20:40.999Z</time>
      </trkpt>
      <trkpt lat="43.77646" lon="3.82954">
        <ele>416</ele>
        <time>2026-05-21T12:20:41.999Z</time>
      </trkpt>
      <trkpt lat="43.77646" lon="3.82954">
        <ele>416.2</ele>
        <time>2026-05-21T12:20:42.999Z</time>
      </trkpt>
      <trkpt lat="43.77646" lon="3.82954">
        <ele>416.6</ele>
        <time>2026-05-21T12:20:43.999Z</time>
      </trkpt>
      <trkpt lat="43.77646" lon="3.82954">
        <ele>416.7</ele>
        <time>2026-05-21T12:20:44.999Z</time>
      </trkpt>
      <trkpt lat="43.77646" lon="3.82954">
        <ele>416.8</ele>
        <time>2026-05-21T12:20:45.999Z</time>
      </trkpt>
      <trkpt lat="43.77646" lon="3.82954">
        <ele>416.8</ele>
        <time>2026-05-21T12:20:46.999Z</time>
      </trkpt>
      <trkpt lat="43.77646" lon="3.82954">
        <ele>416.6</ele>
        <time>2026-05-21T12:20:47.999Z</time>
      </trkpt>
      <trkpt lat="43.77646" lon="3.82954">
        <ele>416.6</ele>
        <time>2026-05-21T12:20:48.999Z</time>
      </trkpt>
      <trkpt lat="43.77646" lon="3.82954">
        <ele>416.7</ele>
        <time>2026-05-21T12:20:49.999Z</time>
      </trkpt>
      <trkpt lat="43.77646" lon="3.82954">
        <ele>416.7</ele>
        <time>2026-05-21T12:20:50.999Z</time>
      </trkpt>
      <trkpt lat="43.77646" lon="3.82954">
        <ele>416.7</ele>
        <time>2026-05-21T12:20:51.999Z</time>
      </trkpt>
      <trkpt lat="43.77646" lon="3.82954">
        <ele>416.7</ele>
        <time>2026-05-21T12:20:52.999Z</time>
      </trkpt>
      <trkpt lat="43.77646" lon="3.82954">
        <ele>416.5</ele>
        <time>2026-05-21T12:20:53.999Z</time>
      </trkpt>
      <trkpt lat="43.77646" lon="3.82954">
        <ele>416.3</ele>
        <time>2026-05-21T12:20:54.999Z</time>
      </trkpt>
      <trkpt lat="43.77646" lon="3.82954">
        <ele>416.1</ele>
        <time>2026-05-21T12:20:55.999Z</time>
      </trkpt>
      <trkpt lat="43.77646" lon="3.82953">
        <ele>415.9</ele>
        <time>2026-05-21T12:20:56.999Z</time>
      </trkpt>
      <trkpt lat="43.77646" lon="3.82953">
        <ele>415.6</ele>
        <time>2026-05-21T12:20:57.999Z</time>
      </trkpt>
      <trkpt lat="43.77646" lon="3.82953">
        <ele>415.3</ele>
        <time>2026-05-21T12:20:58.999Z</time>
      </trkpt>
      <trkpt lat="43.77646" lon="3.82953">
        <ele>415.3</ele>
        <time>2026-05-21T12:20:59.999Z</time>
      </trkpt>
      <trkpt lat="43.77646" lon="3.82953">
        <ele>415.3</ele>
        <time>2026-05-21T12:21:00.999Z</time>
      </trkpt>
      <trkpt lat="43.77646" lon="3.82953">
        <ele>415.4</ele>
        <time>2026-05-21T12:21:01.999Z</time>
      </trkpt>
      <trkpt lat="43.77646" lon="3.82953">
        <ele>415.6</ele>
        <time>2026-05-21T12:21:02.999Z</time>
      </trkpt>
      <trkpt lat="43.77646" lon="3.82953">
        <ele>415.7</ele>
        <time>2026-05-21T12:21:03.999Z</time>
      </trkpt>
      <trkpt lat="43.77646" lon="3.82953">
        <ele>415.9</ele>
        <time>2026-05-21T12:21:04.999Z</time>
      </trkpt>
      <trkpt lat="43.77646" lon="3.82953">
        <ele>415.6</ele>
        <time>2026-05-21T12:21:05.999Z</time>
      </trkpt>
      <trkpt lat="43.77646" lon="3.82953">
        <ele>415.3</ele>
        <time>2026-05-21T12:21:06.999Z</time>
      </trkpt>
      <trkpt lat="43.77646" lon="3.82953">
        <ele>414.8</ele>
        <time>2026-05-21T12:21:07.999Z</time>
      </trkpt>
      <trkpt lat="43.77646" lon="3.82953">
        <ele>414.5</ele>
        <time>2026-05-21T12:21:08.999Z</time>
      </trkpt>
      <trkpt lat="43.77646" lon="3.82953">
        <ele>414.6</ele>
        <time>2026-05-21T12:21:09.999Z</time>
      </trkpt>
      <trkpt lat="43.77646" lon="3.82953">
        <ele>414.5</ele>
        <time>2026-05-21T12:21:10.999Z</time>
      </trkpt>
      <trkpt lat="43.77646" lon="3.82953">
        <ele>414.5</ele>
        <time>2026-05-21T12:21:11.999Z</time>
      </trkpt>
      <trkpt lat="43.77646" lon="3.82953">
        <ele>414.4</ele>
        <time>2026-05-21T12:21:12.999Z</time>
      </trkpt>
      <trkpt lat="43.77646" lon="3.82953">
        <ele>414.4</ele>
        <time>2026-05-21T12:21:13.999Z</time>
      </trkpt>
      <trkpt lat="43.77646" lon="3.82953">
        <ele>414.6</ele>
        <time>2026-05-21T12:21:14.999Z</time>
      </trkpt>
      <trkpt lat="43.77646" lon="3.82953">
        <ele>414.6</ele>
        <time>2026-05-21T12:21:15.999Z</time>
      </trkpt>
      <trkpt lat="43.77646" lon="3.82953">
        <ele>414.8</ele>
        <time>2026-05-21T12:21:16.999Z</time>
      </trkpt>
      <trkpt lat="43.77646" lon="3.82954">
        <ele>414.9</ele>
        <time>2026-05-21T12:21:17.999Z</time>
      </trkpt>
      <trkpt lat="43.77646" lon="3.82954">
        <ele>415.1</ele>
        <time>2026-05-21T12:21:18.999Z</time>
      </trkpt>
      <trkpt lat="43.77646" lon="3.82954">
        <ele>415.3</ele>
        <time>2026-05-21T12:21:19.999Z</time>
      </trkpt>
      <trkpt lat="43.77646" lon="3.82954">
        <ele>415.3</ele>
        <time>2026-05-21T12:21:20.999Z</time>
      </trkpt>
      <trkpt lat="43.77646" lon="3.82954">
        <ele>415.3</ele>
        <time>2026-05-21T12:21:21.999Z</time>
      </trkpt>
      <trkpt lat="43.77646" lon="3.82954">
        <ele>415</ele>
        <time>2026-05-21T12:21:22.999Z</time>
      </trkpt>
      <trkpt lat="43.77646" lon="3.82954">
        <ele>415</ele>
        <time>2026-05-21T12:21:23.999Z</time>
      </trkpt>
      <trkpt lat="43.77646" lon="3.82954">
        <ele>415.2</ele>
        <time>2026-05-21T12:21:24.999Z</time>
      </trkpt>
      <trkpt lat="43.77646" lon="3.82954">
        <ele>415.4</ele>
        <time>2026-05-21T12:21:25.999Z</time>
      </trkpt>
      <trkpt lat="43.77646" lon="3.82954">
        <ele>415.4</ele>
        <time>2026-05-21T12:21:26.999Z</time>
      </trkpt>
      <trkpt lat="43.77646" lon="3.82954">
        <ele>415.2</ele>
        <time>2026-05-21T12:21:27.999Z</time>
      </trkpt>
      <trkpt lat="43.77646" lon="3.82954">
        <ele>415.1</ele>
        <time>2026-05-21T12:21:28.999Z</time>
      </trkpt>
      <trkpt lat="43.77646" lon="3.82954">
        <ele>415.2</ele>
        <time>2026-05-21T12:21:29.999Z</time>
      </trkpt>
      <trkpt lat="43.77646" lon="3.82954">
        <ele>415.2</ele>
        <time>2026-05-21T12:21:30.999Z</time>
      </trkpt>
      <trkpt lat="43.77646" lon="3.82954">
        <ele>415.4</ele>
        <time>2026-05-21T12:21:31.999Z</time>
      </trkpt>
      <trkpt lat="43.77646" lon="3.82954">
        <ele>415.5</ele>
        <time>2026-05-21T12:21:32.999Z</time>
      </trkpt>
      <trkpt lat="43.77646" lon="3.82954">
        <ele>415.5</ele>
        <time>2026-05-21T12:21:33.999Z</time>
      </trkpt>
      <trkpt lat="43.77646" lon="3.82954">
        <ele>415.6</ele>
        <time>2026-05-21T12:21:34.999Z</time>
      </trkpt>
      <trkpt lat="43.77646" lon="3.82954">
        <ele>415.8</ele>
        <time>2026-05-21T12:21:35.999Z</time>
      </trkpt>
      <trkpt lat="43.77646" lon="3.82953">
        <ele>415.8</ele>
        <time>2026-05-21T12:21:36.999Z</time>
      </trkpt>
      <trkpt lat="43.77647" lon="3.82953">
        <ele>415.7</ele>
        <time>2026-05-21T12:21:37.999Z</time>
      </trkpt>
      <trkpt lat="43.77646" lon="3.82953">
        <ele>415.8</ele>
        <time>2026-05-21T12:21:38.999Z</time>
      </trkpt>
      <trkpt lat="43.77646" lon="3.82954">
        <ele>416.1</ele>
        <time>2026-05-21T12:21:39.999Z</time>
      </trkpt>
      <trkpt lat="43.77646" lon="3.82954">
        <ele>416.3</ele>
        <time>2026-05-21T12:21:40.999Z</time>
      </trkpt>
      <trkpt lat="43.77646" lon="3.82954">
        <ele>416.3</ele>
        <time>2026-05-21T12:21:41.999Z</time>
      </trkpt>
      <trkpt lat="43.77646" lon="3.82954">
        <ele>416.1</ele>
        <time>2026-05-21T12:21:42.999Z</time>
      </trkpt>
      <trkpt lat="43.77646" lon="3.82954">
        <ele>416.1</ele>
        <time>2026-05-21T12:21:43.999Z</time>
      </trkpt>
      <trkpt lat="43.77646" lon="3.82954">
        <ele>416.1</ele>
        <time>2026-05-21T12:21:44.999Z</time>
      </trkpt>
      <trkpt lat="43.77647" lon="3.82954">
        <ele>416</ele>
        <time>2026-05-21T12:21:45.999Z</time>
      </trkpt>
      <trkpt lat="43.77646" lon="3.82954">
        <ele>416</ele>
        <time>2026-05-21T12:21:46.999Z</time>
      </trkpt>
      <trkpt lat="43.77645" lon="3.82953">
        <ele>415.9</ele>
        <time>2026-05-21T12:21:47.999Z</time>
      </trkpt>
      <trkpt lat="43.77645" lon="3.82953">
        <ele>415.9</ele>
        <time>2026-05-21T12:21:49.999Z</time>
      </trkpt>
      <trkpt lat="43.77645" lon="3.82954">
        <ele>416</ele>
        <time>2026-05-21T12:21:50.999Z</time>
      </trkpt>
      <trkpt lat="43.77645" lon="3.82954">
        <ele>415.8</ele>
        <time>2026-05-21T12:21:51.999Z</time>
      </trkpt>
      <trkpt lat="43.77645" lon="3.82954">
        <ele>416</ele>
        <time>2026-05-21T12:21:52.999Z</time>
      </trkpt>
      <trkpt lat="43.77645" lon="3.82954">
        <ele>416.1</ele>
        <time>2026-05-21T12:21:53.999Z</time>
      </trkpt>
      <trkpt lat="43.77645" lon="3.82954">
        <ele>416.2</ele>
        <time>2026-05-21T12:21:54.999Z</time>
      </trkpt>
      <trkpt lat="43.77645" lon="3.82954">
        <ele>416.3</ele>
        <time>2026-05-21T12:21:55.999Z</time>
      </trkpt>
      <trkpt lat="43.77645" lon="3.82954">
        <ele>416.2</ele>
        <time>2026-05-21T12:21:56.999Z</time>
      </trkpt>
      <trkpt lat="43.77645" lon="3.82954">
        <ele>416.1</ele>
        <time>2026-05-21T12:21:57.999Z</time>
      </trkpt>
      <trkpt lat="43.77645" lon="3.82954">
        <ele>416</ele>
        <time>2026-05-21T12:21:58.999Z</time>
      </trkpt>
      <trkpt lat="43.77645" lon="3.82954">
        <ele>415.9</ele>
        <time>2026-05-21T12:21:59.999Z</time>
      </trkpt>
      <trkpt lat="43.77645" lon="3.82954">
        <ele>415.6</ele>
        <time>2026-05-21T12:22:00.999Z</time>
      </trkpt>
      <trkpt lat="43.77645" lon="3.82953">
        <ele>415.6</ele>
        <time>2026-05-21T12:22:01.999Z</time>
      </trkpt>
      <trkpt lat="43.77645" lon="3.82954">
        <ele>415.8</ele>
        <time>2026-05-21T12:22:02.999Z</time>
      </trkpt>
      <trkpt lat="43.77645" lon="3.82954">
        <ele>415.9</ele>
        <time>2026-05-21T12:22:03.999Z</time>
      </trkpt>
      <trkpt lat="43.77645" lon="3.82954">
        <ele>415.9</ele>
        <time>2026-05-21T12:22:04.999Z</time>
      </trkpt>
      <trkpt lat="43.77645" lon="3.82954">
        <ele>415.9</ele>
        <time>2026-05-21T12:22:05.999Z</time>
      </trkpt>
      <trkpt lat="43.77645" lon="3.82954">
        <ele>415.8</ele>
        <time>2026-05-21T12:22:06.999Z</time>
      </trkpt>
      <trkpt lat="43.77645" lon="3.82954">
        <ele>415.8</ele>
        <time>2026-05-21T12:22:07.999Z</time>
      </trkpt>
      <trkpt lat="43.77645" lon="3.82954">
        <ele>416</ele>
        <time>2026-05-21T12:22:08.999Z</time>
      </trkpt>
      <trkpt lat="43.77645" lon="3.82954">
        <ele>416.1</ele>
        <time>2026-05-21T12:22:09.999Z</time>
      </trkpt>
      <trkpt lat="43.77645" lon="3.82954">
        <ele>416.1</ele>
        <time>2026-05-21T12:22:10.999Z</time>
      </trkpt>
      <trkpt lat="43.77645" lon="3.82954">
        <ele>416.2</ele>
        <time>2026-05-21T12:22:11.999Z</time>
      </trkpt>
      <trkpt lat="43.77645" lon="3.82954">
        <ele>416.2</ele>
        <time>2026-05-21T12:22:12.999Z</time>
      </trkpt>
      <trkpt lat="43.77645" lon="3.82954">
        <ele>416.4</ele>
        <time>2026-05-21T12:22:13.999Z</time>
      </trkpt>
      <trkpt lat="43.77645" lon="3.82954">
        <ele>416.6</ele>
        <time>2026-05-21T12:22:14.999Z</time>
      </trkpt>
      <trkpt lat="43.77645" lon="3.82954">
        <ele>416.7</ele>
        <time>2026-05-21T12:22:15.999Z</time>
      </trkpt>
      <trkpt lat="43.77645" lon="3.82954">
        <ele>416.7</ele>
        <time>2026-05-21T12:22:16.999Z</time>
      </trkpt>
      <trkpt lat="43.77646" lon="3.82954">
        <ele>416.6</ele>
        <time>2026-05-21T12:22:17.999Z</time>
      </trkpt>
      <trkpt lat="43.77646" lon="3.82954">
        <ele>416.5</ele>
        <time>2026-05-21T12:22:18.999Z</time>
      </trkpt>
      <trkpt lat="43.77646" lon="3.82954">
        <ele>416.4</ele>
        <time>2026-05-21T12:22:19.999Z</time>
      </trkpt>
      <trkpt lat="43.77646" lon="3.82954">
        <ele>416.3</ele>
        <time>2026-05-21T12:22:20.999Z</time>
      </trkpt>
      <trkpt lat="43.77646" lon="3.82954">
        <ele>416.3</ele>
        <time>2026-05-21T12:22:21.999Z</time>
      </trkpt>
      <trkpt lat="43.77646" lon="3.82954">
        <ele>416.1</ele>
        <time>2026-05-21T12:22:22.999Z</time>
      </trkpt>
      <trkpt lat="43.77646" lon="3.82954">
        <ele>415.9</ele>
        <time>2026-05-21T12:22:23.999Z</time>
      </trkpt>
      <trkpt lat="43.77646" lon="3.82954">
        <ele>416</ele>
        <time>2026-05-21T12:22:24.999Z</time>
      </trkpt>
      <trkpt lat="43.77646" lon="3.82954">
        <ele>416.1</ele>
        <time>2026-05-21T12:22:25.999Z</time>
      </trkpt>
      <trkpt lat="43.77646" lon="3.82954">
        <ele>416.1</ele>
        <time>2026-05-21T12:22:26.999Z</time>
      </trkpt>
      <trkpt lat="43.77646" lon="3.82954">
        <ele>416</ele>
        <time>2026-05-21T12:22:27.999Z</time>
      </trkpt>
      <trkpt lat="43.77646" lon="3.82954">
        <ele>416.1</ele>
        <time>2026-05-21T12:22:28.999Z</time>
      </trkpt>
      <trkpt lat="43.77646" lon="3.82954">
        <ele>416.2</ele>
        <time>2026-05-21T12:22:29.999Z</time>
      </trkpt>
      <trkpt lat="43.77646" lon="3.82954">
        <ele>416.1</ele>
        <time>2026-05-21T12:22:30.999Z</time>
      </trkpt>
      <trkpt lat="43.77646" lon="3.82954">
        <ele>416.2</ele>
        <time>2026-05-21T12:22:31.999Z</time>
      </trkpt>
      <trkpt lat="43.77646" lon="3.82954">
        <ele>416.2</ele>
        <time>2026-05-21T12:22:32.999Z</time>
      </trkpt>
      <trkpt lat="43.77646" lon="3.82954">
        <ele>416.1</ele>
        <time>2026-05-21T12:22:33.999Z</time>
      </trkpt>
      <trkpt lat="43.77646" lon="3.82954">
        <ele>416.1</ele>
        <time>2026-05-21T12:22:35.999Z</time>
      </trkpt>
      <trkpt lat="43.77646" lon="3.82954">
        <ele>416.3</ele>
        <time>2026-05-21T12:22:36.999Z</time>
      </trkpt>
      <trkpt lat="43.77646" lon="3.82954">
        <ele>416.3</ele>
        <time>2026-05-21T12:22:37.999Z</time>
      </trkpt>
      <trkpt lat="43.77646" lon="3.82954">
        <ele>416.3</ele>
        <time>2026-05-21T12:22:38.999Z</time>
      </trkpt>
      <trkpt lat="43.77646" lon="3.82954">
        <ele>416.2</ele>
        <time>2026-05-21T12:22:39.999Z</time>
      </trkpt>
      <trkpt lat="43.77646" lon="3.82954">
        <ele>416.3</ele>
        <time>2026-05-21T12:22:40.999Z</time>
      </trkpt>
      <trkpt lat="43.77646" lon="3.82954">
        <ele>416.5</ele>
        <time>2026-05-21T12:22:41.999Z</time>
      </trkpt>
      <trkpt lat="43.77646" lon="3.82954">
        <ele>416.6</ele>
        <time>2026-05-21T12:22:42.999Z</time>
      </trkpt>
      <trkpt lat="43.77646" lon="3.82954">
        <ele>416.5</ele>
        <time>2026-05-21T12:22:43.999Z</time>
      </trkpt>
      <trkpt lat="43.77646" lon="3.82954">
        <ele>416.5</ele>
        <time>2026-05-21T12:22:44.999Z</time>
      </trkpt>
      <trkpt lat="43.77647" lon="3.82955">
        <ele>416.3</ele>
        <time>2026-05-21T12:22:45.999Z</time>
      </trkpt>
      <trkpt lat="43.77647" lon="3.82955">
        <ele>416.2</ele>
        <time>2026-05-21T12:22:46.999Z</time>
      </trkpt>
      <trkpt lat="43.77648" lon="3.82955">
        <ele>416.1</ele>
        <time>2026-05-21T12:22:47.999Z</time>
      </trkpt>
      <trkpt lat="43.77648" lon="3.82955">
        <ele>416.2</ele>
        <time>2026-05-21T12:22:48.999Z</time>
      </trkpt>
      <trkpt lat="43.77648" lon="3.82955">
        <ele>416.2</ele>
        <time>2026-05-21T12:22:49.999Z</time>
      </trkpt>
      <trkpt lat="43.77648" lon="3.82955">
        <ele>416</ele>
        <time>2026-05-21T12:22:50.999Z</time>
      </trkpt>
      <trkpt lat="43.77648" lon="3.82955">
        <ele>415.9</ele>
        <time>2026-05-21T12:22:51.999Z</time>
      </trkpt>
      <trkpt lat="43.77648" lon="3.82955">
        <ele>415.9</ele>
        <time>2026-05-21T12:22:52.999Z</time>
      </trkpt>
      <trkpt lat="43.77648" lon="3.82955">
        <ele>415.7</ele>
        <time>2026-05-21T12:22:54.999Z</time>
      </trkpt>
      <trkpt lat="43.77648" lon="3.82955">
        <ele>415.5</ele>
        <time>2026-05-21T12:22:55.999Z</time>
      </trkpt>
      <trkpt lat="43.77648" lon="3.82955">
        <ele>415.4</ele>
        <time>2026-05-21T12:22:56.999Z</time>
      </trkpt>
      <trkpt lat="43.77648" lon="3.82955">
        <ele>415.2</ele>
        <time>2026-05-21T12:22:57.999Z</time>
      </trkpt>
      <trkpt lat="43.77648" lon="3.82955">
        <ele>415.2</ele>
        <time>2026-05-21T12:22:58.999Z</time>
      </trkpt>
      <trkpt lat="43.77648" lon="3.82955">
        <ele>415</ele>
        <time>2026-05-21T12:22:59.999Z</time>
      </trkpt>
      <trkpt lat="43.77648" lon="3.82955">
        <ele>414.9</ele>
        <time>2026-05-21T12:23:00.999Z</time>
      </trkpt>
      <trkpt lat="43.77648" lon="3.82955">
        <ele>414.8</ele>
        <time>2026-05-21T12:23:01.999Z</time>
      </trkpt>
      <trkpt lat="43.77648" lon="3.82955">
        <ele>414.7</ele>
        <time>2026-05-21T12:23:02.999Z</time>
      </trkpt>
      <trkpt lat="43.77648" lon="3.82955">
        <ele>414.5</ele>
        <time>2026-05-21T12:23:03.999Z</time>
      </trkpt>
      <trkpt lat="43.77647" lon="3.82955">
        <ele>414.4</ele>
        <time>2026-05-21T12:23:04.999Z</time>
      </trkpt>
      <trkpt lat="43.77647" lon="3.82955">
        <ele>414.3</ele>
        <time>2026-05-21T12:23:05.999Z</time>
      </trkpt>
      <trkpt lat="43.77647" lon="3.82955">
        <ele>414.4</ele>
        <time>2026-05-21T12:23:06.999Z</time>
      </trkpt>
      <trkpt lat="43.77648" lon="3.82955">
        <ele>414.6</ele>
        <time>2026-05-21T12:23:07.999Z</time>
      </trkpt>
      <trkpt lat="43.77647" lon="3.82955">
        <ele>414.4</ele>
        <time>2026-05-21T12:23:08.999Z</time>
      </trkpt>
      <trkpt lat="43.77647" lon="3.82955">
        <ele>414.4</ele>
        <time>2026-05-21T12:23:09.999Z</time>
      </trkpt>
      <trkpt lat="43.77647" lon="3.82955">
        <ele>414.3</ele>
        <time>2026-05-21T12:23:10.999Z</time>
      </trkpt>
      <trkpt lat="43.77647" lon="3.82955">
        <ele>414.5</ele>
        <time>2026-05-21T12:23:11.999Z</time>
      </trkpt>
      <trkpt lat="43.77647" lon="3.82955">
        <ele>414.4</ele>
        <time>2026-05-21T12:23:12.999Z</time>
      </trkpt>
      <trkpt lat="43.77647" lon="3.82955">
        <ele>414.5</ele>
        <time>2026-05-21T12:23:13.999Z</time>
      </trkpt>
      <trkpt lat="43.77647" lon="3.82955">
        <ele>414.5</ele>
        <time>2026-05-21T12:23:14.999Z</time>
      </trkpt>
      <trkpt lat="43.77647" lon="3.82955">
        <ele>414.5</ele>
        <time>2026-05-21T12:23:15.999Z</time>
      </trkpt>
      <trkpt lat="43.77647" lon="3.82955">
        <ele>414.7</ele>
        <time>2026-05-21T12:23:16.999Z</time>
      </trkpt>
      <trkpt lat="43.77647" lon="3.82954">
        <ele>414.9</ele>
        <time>2026-05-21T12:23:17.999Z</time>
      </trkpt>
      <trkpt lat="43.77647" lon="3.82954">
        <ele>414.9</ele>
        <time>2026-05-21T12:23:18.999Z</time>
      </trkpt>
      <trkpt lat="43.77647" lon="3.82954">
        <ele>414.9</ele>
        <time>2026-05-21T12:23:19.999Z</time>
      </trkpt>
      <trkpt lat="43.77647" lon="3.82954">
        <ele>415.1</ele>
        <time>2026-05-21T12:23:20.999Z</time>
      </trkpt>
      <trkpt lat="43.77647" lon="3.82954">
        <ele>415</ele>
        <time>2026-05-21T12:23:21.999Z</time>
      </trkpt>
      <trkpt lat="43.77647" lon="3.82954">
        <ele>415.1</ele>
        <time>2026-05-21T12:23:22.999Z</time>
      </trkpt>
      <trkpt lat="43.77647" lon="3.82954">
        <ele>415.1</ele>
        <time>2026-05-21T12:23:23.999Z</time>
      </trkpt>
      <trkpt lat="43.77647" lon="3.82954">
        <ele>415.2</ele>
        <time>2026-05-21T12:23:24.999Z</time>
      </trkpt>
      <trkpt lat="43.77647" lon="3.82954">
        <ele>415.2</ele>
        <time>2026-05-21T12:23:25.999Z</time>
      </trkpt>
      <trkpt lat="43.77647" lon="3.82953">
        <ele>415.3</ele>
        <time>2026-05-21T12:23:26.999Z</time>
      </trkpt>
      <trkpt lat="43.77647" lon="3.82953">
        <ele>415.3</ele>
        <time>2026-05-21T12:23:27.999Z</time>
      </trkpt>
      <trkpt lat="43.77647" lon="3.82954">
        <ele>415.2</ele>
        <time>2026-05-21T12:23:28.999Z</time>
      </trkpt>
      <trkpt lat="43.77647" lon="3.82954">
        <ele>415.2</ele>
        <time>2026-05-21T12:23:29.999Z</time>
      </trkpt>
      <trkpt lat="43.77647" lon="3.82954">
        <ele>415.3</ele>
        <time>2026-05-21T12:23:30.999Z</time>
      </trkpt>
      <trkpt lat="43.77647" lon="3.82954">
        <ele>415.2</ele>
        <time>2026-05-21T12:23:31.999Z</time>
      </trkpt>
      <trkpt lat="43.77646" lon="3.82954">
        <ele>415.1</ele>
        <time>2026-05-21T12:23:32.999Z</time>
      </trkpt>
      <trkpt lat="43.77646" lon="3.82954">
        <ele>414.4</ele>
        <time>2026-05-21T12:23:33.999Z</time>
      </trkpt>
      <trkpt lat="43.77646" lon="3.82955">
        <ele>414.2</ele>
        <time>2026-05-21T12:23:34.999Z</time>
      </trkpt>
      <trkpt lat="43.77646" lon="3.82955">
        <ele>414.3</ele>
        <time>2026-05-21T12:23:35.999Z</time>
      </trkpt>
      <trkpt lat="43.77646" lon="3.82955">
        <ele>414.3</ele>
        <time>2026-05-21T12:23:36.999Z</time>
      </trkpt>
      <trkpt lat="43.77646" lon="3.82955">
        <ele>414.5</ele>
        <time>2026-05-21T12:23:37.999Z</time>
      </trkpt>
      <trkpt lat="43.77646" lon="3.82955">
        <ele>414.7</ele>
        <time>2026-05-21T12:23:38.999Z</time>
      </trkpt>
      <trkpt lat="43.77646" lon="3.82955">
        <ele>414.4</ele>
        <time>2026-05-21T12:23:39.999Z</time>
      </trkpt>
      <trkpt lat="43.77646" lon="3.82955">
        <ele>414.2</ele>
        <time>2026-05-21T12:23:40.999Z</time>
      </trkpt>
      <trkpt lat="43.77646" lon="3.82955">
        <ele>414.1</ele>
        <time>2026-05-21T12:23:41.999Z</time>
      </trkpt>
      <trkpt lat="43.77646" lon="3.82955">
        <ele>414.1</ele>
        <time>2026-05-21T12:23:42.999Z</time>
      </trkpt>
      <trkpt lat="43.77646" lon="3.82955">
        <ele>413.9</ele>
        <time>2026-05-21T12:23:43.999Z</time>
      </trkpt>
      <trkpt lat="43.77646" lon="3.82956">
        <ele>413.8</ele>
        <time>2026-05-21T12:23:44.999Z</time>
      </trkpt>
      <trkpt lat="43.77646" lon="3.82956">
        <ele>413.6</ele>
        <time>2026-05-21T12:23:45.999Z</time>
      </trkpt>
      <trkpt lat="43.77646" lon="3.82956">
        <ele>413.7</ele>
        <time>2026-05-21T12:23:46.999Z</time>
      </trkpt>
      <trkpt lat="43.77646" lon="3.82956">
        <ele>413.6</ele>
        <time>2026-05-21T12:23:47.999Z</time>
      </trkpt>
      <trkpt lat="43.77646" lon="3.82956">
        <ele>413.7</ele>
        <time>2026-05-21T12:23:48.999Z</time>
      </trkpt>
      <trkpt lat="43.77646" lon="3.82956">
        <ele>413.7</ele>
        <time>2026-05-21T12:23:49.999Z</time>
      </trkpt>
      <trkpt lat="43.77646" lon="3.82956">
        <ele>413.7</ele>
        <time>2026-05-21T12:23:50.999Z</time>
      </trkpt>
      <trkpt lat="43.77646" lon="3.82956">
        <ele>413.9</ele>
        <time>2026-05-21T12:23:51.999Z</time>
      </trkpt>
      <trkpt lat="43.77646" lon="3.82956">
        <ele>414</ele>
        <time>2026-05-21T12:23:52.999Z</time>
      </trkpt>
      <trkpt lat="43.77646" lon="3.82956">
        <ele>414</ele>
        <time>2026-05-21T12:23:53.999Z</time>
      </trkpt>
      <trkpt lat="43.77646" lon="3.82956">
        <ele>413.9</ele>
        <time>2026-05-21T12:23:54.999Z</time>
      </trkpt>
      <trkpt lat="43.77646" lon="3.82956">
        <ele>413.9</ele>
        <time>2026-05-21T12:23:55.999Z</time>
      </trkpt>
      <trkpt lat="43.77646" lon="3.82956">
        <ele>413.9</ele>
        <time>2026-05-21T12:23:56.999Z</time>
      </trkpt>
      <trkpt lat="43.77646" lon="3.82956">
        <ele>414</ele>
        <time>2026-05-21T12:23:57.999Z</time>
      </trkpt>
      <trkpt lat="43.77646" lon="3.82956">
        <ele>414</ele>
        <time>2026-05-21T12:23:58.999Z</time>
      </trkpt>
      <trkpt lat="43.77646" lon="3.82956">
        <ele>414.2</ele>
        <time>2026-05-21T12:23:59.999Z</time>
      </trkpt>
      <trkpt lat="43.77646" lon="3.82956">
        <ele>414.3</ele>
        <time>2026-05-21T12:24:00.999Z</time>
      </trkpt>
      <trkpt lat="43.77646" lon="3.82955">
        <ele>414.4</ele>
        <time>2026-05-21T12:24:01.999Z</time>
      </trkpt>
      <trkpt lat="43.77645" lon="3.82955">
        <ele>414.4</ele>
        <time>2026-05-21T12:24:02.999Z</time>
      </trkpt>
      <trkpt lat="43.77645" lon="3.82955">
        <ele>414.4</ele>
        <time>2026-05-21T12:24:03.999Z</time>
      </trkpt>
      <trkpt lat="43.77645" lon="3.82954">
        <ele>414.6</ele>
        <time>2026-05-21T12:24:04.999Z</time>
      </trkpt>
      <trkpt lat="43.77645" lon="3.82954">
        <ele>414.7</ele>
        <time>2026-05-21T12:24:05.999Z</time>
      </trkpt>
      <trkpt lat="43.77645" lon="3.82954">
        <ele>414.8</ele>
        <time>2026-05-21T12:24:06.999Z</time>
      </trkpt>
      <trkpt lat="43.77645" lon="3.82954">
        <ele>414.9</ele>
        <time>2026-05-21T12:24:07.999Z</time>
      </trkpt>
      <trkpt lat="43.77644" lon="3.82954">
        <ele>414.8</ele>
        <time>2026-05-21T12:24:08.999Z</time>
      </trkpt>
      <trkpt lat="43.77644" lon="3.82954">
        <ele>414.6</ele>
        <time>2026-05-21T12:24:09.999Z</time>
      </trkpt>
      <trkpt lat="43.77644" lon="3.82954">
        <ele>414.6</ele>
        <time>2026-05-21T12:24:10.999Z</time>
      </trkpt>
      <trkpt lat="43.77644" lon="3.82954">
        <ele>414.6</ele>
        <time>2026-05-21T12:24:11.999Z</time>
      </trkpt>
      <trkpt lat="43.77644" lon="3.82954">
        <ele>414.6</ele>
        <time>2026-05-21T12:24:12.999Z</time>
      </trkpt>
      <trkpt lat="43.77644" lon="3.82954">
        <ele>414.7</ele>
        <time>2026-05-21T12:24:13.999Z</time>
      </trkpt>
      <trkpt lat="43.77644" lon="3.82954">
        <ele>414.9</ele>
        <time>2026-05-21T12:24:14.999Z</time>
      </trkpt>
      <trkpt lat="43.77644" lon="3.82954">
        <ele>414.9</ele>
        <time>2026-05-21T12:24:15.999Z</time>
      </trkpt>
      <trkpt lat="43.77644" lon="3.82954">
        <ele>415.1</ele>
        <time>2026-05-21T12:24:16.999Z</time>
      </trkpt>
      <trkpt lat="43.77644" lon="3.82954">
        <ele>415.1</ele>
        <time>2026-05-21T12:24:17.999Z</time>
      </trkpt>
      <trkpt lat="43.77645" lon="3.82953">
        <ele>415.2</ele>
        <time>2026-05-21T12:24:18.999Z</time>
      </trkpt>
      <trkpt lat="43.77645" lon="3.82954">
        <ele>415.3</ele>
        <time>2026-05-21T12:24:19.999Z</time>
      </trkpt>
      <trkpt lat="43.77645" lon="3.82954">
        <ele>415.3</ele>
        <time>2026-05-21T12:24:20.999Z</time>
      </trkpt>
      <trkpt lat="43.77645" lon="3.82954">
        <ele>415.4</ele>
        <time>2026-05-21T12:24:21.999Z</time>
      </trkpt>
      <trkpt lat="43.77645" lon="3.82954">
        <ele>415.5</ele>
        <time>2026-05-21T12:24:22.999Z</time>
      </trkpt>
      <trkpt lat="43.77645" lon="3.82954">
        <ele>415.5</ele>
        <time>2026-05-21T12:24:23.999Z</time>
      </trkpt>
      <trkpt lat="43.77645" lon="3.82954">
        <ele>415.4</ele>
        <time>2026-05-21T12:24:24.999Z</time>
      </trkpt>
      <trkpt lat="43.77645" lon="3.82954">
        <ele>415.3</ele>
        <time>2026-05-21T12:24:25.999Z</time>
      </trkpt>
      <trkpt lat="43.77645" lon="3.82954">
        <ele>415.2</ele>
        <time>2026-05-21T12:24:26.999Z</time>
      </trkpt>
      <trkpt lat="43.77646" lon="3.82954">
        <ele>415.4</ele>
        <time>2026-05-21T12:24:27.999Z</time>
      </trkpt>
      <trkpt lat="43.77647" lon="3.82955">
        <ele>415.5</ele>
        <time>2026-05-21T12:24:29.999Z</time>
      </trkpt>
      <trkpt lat="43.77647" lon="3.82956">
        <ele>415.4</ele>
        <time>2026-05-21T12:24:30.999Z</time>
      </trkpt>
      <trkpt lat="43.77647" lon="3.82956">
        <ele>415.4</ele>
        <time>2026-05-21T12:24:31.999Z</time>
      </trkpt>
      <trkpt lat="43.77647" lon="3.82956">
        <ele>415</ele>
        <time>2026-05-21T12:24:32.999Z</time>
      </trkpt>
      <trkpt lat="43.77647" lon="3.82956">
        <ele>415</ele>
        <time>2026-05-21T12:24:33.999Z</time>
      </trkpt>
      <trkpt lat="43.77647" lon="3.82956">
        <ele>415</ele>
        <time>2026-05-21T12:24:34.999Z</time>
      </trkpt>
      <trkpt lat="43.77647" lon="3.82956">
        <ele>415.1</ele>
        <time>2026-05-21T12:24:35.999Z</time>
      </trkpt>
      <trkpt lat="43.77647" lon="3.82956">
        <ele>415</ele>
        <time>2026-05-21T12:24:36.999Z</time>
      </trkpt>
      <trkpt lat="43.77647" lon="3.82956">
        <ele>415</ele>
        <time>2026-05-21T12:24:37.999Z</time>
      </trkpt>
      <trkpt lat="43.77647" lon="3.82956">
        <ele>415</ele>
        <time>2026-05-21T12:24:38.999Z</time>
      </trkpt>
      <trkpt lat="43.77647" lon="3.82956">
        <ele>415.1</ele>
        <time>2026-05-21T12:24:39.999Z</time>
      </trkpt>
      <trkpt lat="43.77647" lon="3.82955">
        <ele>415</ele>
        <time>2026-05-21T12:24:40.999Z</time>
      </trkpt>
      <trkpt lat="43.77646" lon="3.82955">
        <ele>415.2</ele>
        <time>2026-05-21T12:24:41.999Z</time>
      </trkpt>
      <trkpt lat="43.77646" lon="3.82954">
        <ele>415.4</ele>
        <time>2026-05-21T12:24:42.999Z</time>
      </trkpt>
      <trkpt lat="43.77646" lon="3.82954">
        <ele>415.4</ele>
        <time>2026-05-21T12:24:43.999Z</time>
      </trkpt>
      <trkpt lat="43.77646" lon="3.82954">
        <ele>415.3</ele>
        <time>2026-05-21T12:24:44.999Z</time>
      </trkpt>
      <trkpt lat="43.77646" lon="3.82954">
        <ele>415.3</ele>
        <time>2026-05-21T12:24:45.999Z</time>
      </trkpt>
      <trkpt lat="43.77646" lon="3.82954">
        <ele>415.3</ele>
        <time>2026-05-21T12:24:46.999Z</time>
      </trkpt>
      <trkpt lat="43.77646" lon="3.82954">
        <ele>415.1</ele>
        <time>2026-05-21T12:24:47.999Z</time>
      </trkpt>
      <trkpt lat="43.77646" lon="3.82954">
        <ele>415.2</ele>
        <time>2026-05-21T12:24:48.999Z</time>
      </trkpt>
      <trkpt lat="43.77646" lon="3.82954">
        <ele>415.2</ele>
        <time>2026-05-21T12:24:49.999Z</time>
      </trkpt>
      <trkpt lat="43.77646" lon="3.82954">
        <ele>415.2</ele>
        <time>2026-05-21T12:24:50.999Z</time>
      </trkpt>
      <trkpt lat="43.77646" lon="3.82954">
        <ele>415.1</ele>
        <time>2026-05-21T12:24:51.999Z</time>
      </trkpt>
      <trkpt lat="43.77646" lon="3.82954">
        <ele>415.2</ele>
        <time>2026-05-21T12:24:52.999Z</time>
      </trkpt>
      <trkpt lat="43.77646" lon="3.82954">
        <ele>415.2</ele>
        <time>2026-05-21T12:24:53.999Z</time>
      </trkpt>
      <trkpt lat="43.77646" lon="3.82954">
        <ele>415.6</ele>
        <time>2026-05-21T12:24:55.999Z</time>
      </trkpt>
      <trkpt lat="43.77646" lon="3.82954">
        <ele>415.6</ele>
        <time>2026-05-21T12:24:56.999Z</time>
      </trkpt>
      <trkpt lat="43.77646" lon="3.82954">
        <ele>415.6</ele>
        <time>2026-05-21T12:24:57.999Z</time>
      </trkpt>
      <trkpt lat="43.77646" lon="3.82954">
        <ele>415.6</ele>
        <time>2026-05-21T12:24:58.999Z</time>
      </trkpt>
      <trkpt lat="43.77646" lon="3.82954">
        <ele>415.7</ele>
        <time>2026-05-21T12:24:59.999Z</time>
      </trkpt>
      <trkpt lat="43.77646" lon="3.82954">
        <ele>415.8</ele>
        <time>2026-05-21T12:25:00.999Z</time>
      </trkpt>
      <trkpt lat="43.77646" lon="3.82954">
        <ele>415.8</ele>
        <time>2026-05-21T12:25:01.999Z</time>
      </trkpt>
      <trkpt lat="43.77646" lon="3.82954">
        <ele>415.8</ele>
        <time>2026-05-21T12:25:02.999Z</time>
      </trkpt>
      <trkpt lat="43.77646" lon="3.82954">
        <ele>415.9</ele>
        <time>2026-05-21T12:25:03.999Z</time>
      </trkpt>
      <trkpt lat="43.77646" lon="3.82954">
        <ele>416.1</ele>
        <time>2026-05-21T12:25:04.999Z</time>
      </trkpt>
      <trkpt lat="43.77646" lon="3.82954">
        <ele>415.9</ele>
        <time>2026-05-21T12:25:05.999Z</time>
      </trkpt>
      <trkpt lat="43.77646" lon="3.82954">
        <ele>416</ele>
        <time>2026-05-21T12:25:06.999Z</time>
      </trkpt>
      <trkpt lat="43.77646" lon="3.82954">
        <ele>416.1</ele>
        <time>2026-05-21T12:25:07.999Z</time>
      </trkpt>
      <trkpt lat="43.77646" lon="3.82954">
        <ele>416.2</ele>
        <time>2026-05-21T12:25:08.999Z</time>
      </trkpt>
      <trkpt lat="43.77646" lon="3.82954">
        <ele>416.3</ele>
        <time>2026-05-21T12:25:09.999Z</time>
      </trkpt>
      <trkpt lat="43.77646" lon="3.82955">
        <ele>416.4</ele>
        <time>2026-05-21T12:25:10.999Z</time>
      </trkpt>
      <trkpt lat="43.77646" lon="3.82955">
        <ele>416.4</ele>
        <time>2026-05-21T12:25:11.999Z</time>
      </trkpt>
      <trkpt lat="43.77645" lon="3.82955">
        <ele>416.3</ele>
        <time>2026-05-21T12:25:12.999Z</time>
      </trkpt>
      <trkpt lat="43.77645" lon="3.82955">
        <ele>416.1</ele>
        <time>2026-05-21T12:25:13.999Z</time>
      </trkpt>
      <trkpt lat="43.77645" lon="3.82955">
        <ele>416.4</ele>
        <time>2026-05-21T12:25:14.999Z</time>
      </trkpt>
      <trkpt lat="43.77645" lon="3.82955">
        <ele>416.4</ele>
        <time>2026-05-21T12:25:15.999Z</time>
      </trkpt>
      <trkpt lat="43.77645" lon="3.82955">
        <ele>416.4</ele>
        <time>2026-05-21T12:25:16.999Z</time>
      </trkpt>
      <trkpt lat="43.77645" lon="3.82955">
        <ele>416.4</ele>
        <time>2026-05-21T12:25:17.999Z</time>
      </trkpt>
      <trkpt lat="43.77645" lon="3.82955">
        <ele>416.5</ele>
        <time>2026-05-21T12:25:18.999Z</time>
      </trkpt>
      <trkpt lat="43.77645" lon="3.82954">
        <ele>416.6</ele>
        <time>2026-05-21T12:25:19.999Z</time>
      </trkpt>
      <trkpt lat="43.77645" lon="3.82954">
        <ele>416.7</ele>
        <time>2026-05-21T12:25:20.999Z</time>
      </trkpt>
      <trkpt lat="43.77645" lon="3.82954">
        <ele>416.7</ele>
        <time>2026-05-21T12:25:21.999Z</time>
      </trkpt>
      <trkpt lat="43.77645" lon="3.82954">
        <ele>416.6</ele>
        <time>2026-05-21T12:25:22.999Z</time>
      </trkpt>
      <trkpt lat="43.77645" lon="3.82954">
        <ele>416.6</ele>
        <time>2026-05-21T12:25:23.999Z</time>
      </trkpt>
      <trkpt lat="43.77645" lon="3.82954">
        <ele>416.6</ele>
        <time>2026-05-21T12:25:24.999Z</time>
      </trkpt>
      <trkpt lat="43.77645" lon="3.82954">
        <ele>416.3</ele>
        <time>2026-05-21T12:25:25.999Z</time>
      </trkpt>
      <trkpt lat="43.77645" lon="3.82954">
        <ele>416.3</ele>
        <time>2026-05-21T12:25:26.999Z</time>
      </trkpt>
      <trkpt lat="43.77645" lon="3.82954">
        <ele>416.2</ele>
        <time>2026-05-21T12:25:27.999Z</time>
      </trkpt>
      <trkpt lat="43.77645" lon="3.82954">
        <ele>415.9</ele>
        <time>2026-05-21T12:25:28.999Z</time>
      </trkpt>
      <trkpt lat="43.77645" lon="3.82954">
        <ele>415.7</ele>
        <time>2026-05-21T12:25:29.999Z</time>
      </trkpt>
      <trkpt lat="43.77645" lon="3.82954">
        <ele>415.6</ele>
        <time>2026-05-21T12:25:30.999Z</time>
      </trkpt>
      <trkpt lat="43.77645" lon="3.82954">
        <ele>415.7</ele>
        <time>2026-05-21T12:25:31.999Z</time>
      </trkpt>
      <trkpt lat="43.77645" lon="3.82954">
        <ele>415.7</ele>
        <time>2026-05-21T12:25:32.999Z</time>
      </trkpt>
      <trkpt lat="43.77645" lon="3.82954">
        <ele>415.5</ele>
        <time>2026-05-21T12:25:33.999Z</time>
      </trkpt>
      <trkpt lat="43.77645" lon="3.82954">
        <ele>415.5</ele>
        <time>2026-05-21T12:25:34.999Z</time>
      </trkpt>
      <trkpt lat="43.77645" lon="3.82954">
        <ele>415.6</ele>
        <time>2026-05-21T12:25:35.999Z</time>
      </trkpt>
      <trkpt lat="43.77645" lon="3.82954">
        <ele>415.6</ele>
        <time>2026-05-21T12:25:36.999Z</time>
      </trkpt>
      <trkpt lat="43.77645" lon="3.82954">
        <ele>415.5</ele>
        <time>2026-05-21T12:25:37.999Z</time>
      </trkpt>
      <trkpt lat="43.77645" lon="3.82954">
        <ele>415.5</ele>
        <time>2026-05-21T12:25:38.999Z</time>
      </trkpt>
      <trkpt lat="43.77645" lon="3.82954">
        <ele>415.8</ele>
        <time>2026-05-21T12:25:40.999Z</time>
      </trkpt>
      <trkpt lat="43.77645" lon="3.82954">
        <ele>415.9</ele>
        <time>2026-05-21T12:25:41.999Z</time>
      </trkpt>
      <trkpt lat="43.77645" lon="3.82954">
        <ele>415.8</ele>
        <time>2026-05-21T12:25:42.999Z</time>
      </trkpt>
      <trkpt lat="43.77645" lon="3.82954">
        <ele>415.8</ele>
        <time>2026-05-21T12:25:43.999Z</time>
      </trkpt>
      <trkpt lat="43.77645" lon="3.82954">
        <ele>415.8</ele>
        <time>2026-05-21T12:25:44.999Z</time>
      </trkpt>
      <trkpt lat="43.77645" lon="3.82954">
        <ele>415.9</ele>
        <time>2026-05-21T12:25:45.999Z</time>
      </trkpt>
      <trkpt lat="43.77645" lon="3.82953">
        <ele>416</ele>
        <time>2026-05-21T12:25:46.999Z</time>
      </trkpt>
      <trkpt lat="43.77646" lon="3.82953">
        <ele>416.1</ele>
        <time>2026-05-21T12:25:47.999Z</time>
      </trkpt>
      <trkpt lat="43.77645" lon="3.82953">
        <ele>416.1</ele>
        <time>2026-05-21T12:25:48.999Z</time>
      </trkpt>
      <trkpt lat="43.77645" lon="3.82953">
        <ele>416.1</ele>
        <time>2026-05-21T12:25:49.999Z</time>
      </trkpt>
      <trkpt lat="43.77645" lon="3.82953">
        <ele>416.3</ele>
        <time>2026-05-21T12:25:50.999Z</time>
      </trkpt>
      <trkpt lat="43.77645" lon="3.82954">
        <ele>416.5</ele>
        <time>2026-05-21T12:25:51.999Z</time>
      </trkpt>
      <trkpt lat="43.77645" lon="3.82955">
        <ele>416.7</ele>
        <time>2026-05-21T12:25:52.999Z</time>
      </trkpt>
      <trkpt lat="43.77645" lon="3.82954">
        <ele>416.7</ele>
        <time>2026-05-21T12:25:53.999Z</time>
      </trkpt>
      <trkpt lat="43.77645" lon="3.82953">
        <ele>416.8</ele>
        <time>2026-05-21T12:25:54.999Z</time>
      </trkpt>
      <trkpt lat="43.77645" lon="3.82953">
        <ele>417</ele>
        <time>2026-05-21T12:25:55.999Z</time>
      </trkpt>
      <trkpt lat="43.77645" lon="3.82953">
        <ele>417</ele>
        <time>2026-05-21T12:25:56.999Z</time>
      </trkpt>
      <trkpt lat="43.77645" lon="3.82953">
        <ele>417.2</ele>
        <time>2026-05-21T12:25:57.999Z</time>
      </trkpt>
      <trkpt lat="43.77645" lon="3.82952">
        <ele>417.1</ele>
        <time>2026-05-21T12:25:58.999Z</time>
      </trkpt>
      <trkpt lat="43.77645" lon="3.82952">
        <ele>417.4</ele>
        <time>2026-05-21T12:25:59.999Z</time>
      </trkpt>
      <trkpt lat="43.77645" lon="3.82952">
        <ele>417.5</ele>
        <time>2026-05-21T12:26:00.999Z</time>
      </trkpt>
      <trkpt lat="43.77645" lon="3.82952">
        <ele>417.5</ele>
        <time>2026-05-21T12:26:01.999Z</time>
      </trkpt>
      <trkpt lat="43.77645" lon="3.82952">
        <ele>417.5</ele>
        <time>2026-05-21T12:26:02.999Z</time>
      </trkpt>
      <trkpt lat="43.77645" lon="3.82952">
        <ele>417.8</ele>
        <time>2026-05-21T12:26:03.999Z</time>
      </trkpt>
      <trkpt lat="43.77645" lon="3.82952">
        <ele>418</ele>
        <time>2026-05-21T12:26:04.999Z</time>
      </trkpt>
      <trkpt lat="43.77645" lon="3.82952">
        <ele>418.3</ele>
        <time>2026-05-21T12:26:05.999Z</time>
      </trkpt>
      <trkpt lat="43.77645" lon="3.82952">
        <ele>418.3</ele>
        <time>2026-05-21T12:26:06.999Z</time>
      </trkpt>
      <trkpt lat="43.77645" lon="3.82951">
        <ele>418.4</ele>
        <time>2026-05-21T12:26:07.999Z</time>
      </trkpt>
      <trkpt lat="43.77645" lon="3.82951">
        <ele>418.7</ele>
        <time>2026-05-21T12:26:08.999Z</time>
      </trkpt>
      <trkpt lat="43.77645" lon="3.82951">
        <ele>418.8</ele>
        <time>2026-05-21T12:26:09.999Z</time>
      </trkpt>
      <trkpt lat="43.77645" lon="3.82951">
        <ele>418.9</ele>
        <time>2026-05-21T12:26:10.999Z</time>
      </trkpt>
      <trkpt lat="43.77645" lon="3.82951">
        <ele>418.7</ele>
        <time>2026-05-21T12:26:11.999Z</time>
      </trkpt>
      <trkpt lat="43.77645" lon="3.82951">
        <ele>418.5</ele>
        <time>2026-05-21T12:26:12.999Z</time>
      </trkpt>
      <trkpt lat="43.77645" lon="3.82951">
        <ele>418.3</ele>
        <time>2026-05-21T12:26:13.999Z</time>
      </trkpt>
      <trkpt lat="43.77645" lon="3.82951">
        <ele>418.2</ele>
        <time>2026-05-21T12:26:14.999Z</time>
      </trkpt>
      <trkpt lat="43.77645" lon="3.82951">
        <ele>418</ele>
        <time>2026-05-21T12:26:15.999Z</time>
      </trkpt>
      <trkpt lat="43.77646" lon="3.82952">
        <ele>417.8</ele>
        <time>2026-05-21T12:26:16.999Z</time>
      </trkpt>
      <trkpt lat="43.77646" lon="3.82953">
        <ele>417.5</ele>
        <time>2026-05-21T12:26:17.999Z</time>
      </trkpt>
      <trkpt lat="43.77646" lon="3.82953">
        <ele>417.5</ele>
        <time>2026-05-21T12:26:18.999Z</time>
      </trkpt>
      <trkpt lat="43.77646" lon="3.82954">
        <ele>417.6</ele>
        <time>2026-05-21T12:26:19.999Z</time>
      </trkpt>
      <trkpt lat="43.77645" lon="3.82955">
        <ele>417.7</ele>
        <time>2026-05-21T12:26:20.999Z</time>
      </trkpt>
      <trkpt lat="43.77645" lon="3.82954">
        <ele>417.8</ele>
        <time>2026-05-21T12:26:21.999Z</time>
      </trkpt>
      <trkpt lat="43.77645" lon="3.82954">
        <ele>417.8</ele>
        <time>2026-05-21T12:26:22.999Z</time>
      </trkpt>
      <trkpt lat="43.77645" lon="3.82954">
        <ele>417.6</ele>
        <time>2026-05-21T12:26:23.999Z</time>
      </trkpt>
      <trkpt lat="43.77645" lon="3.82954">
        <ele>417.5</ele>
        <time>2026-05-21T12:26:24.999Z</time>
      </trkpt>
      <trkpt lat="43.77645" lon="3.82954">
        <ele>417.3</ele>
        <time>2026-05-21T12:26:25.999Z</time>
      </trkpt>
      <trkpt lat="43.77645" lon="3.82954">
        <ele>417.2</ele>
        <time>2026-05-21T12:26:26.999Z</time>
      </trkpt>
      <trkpt lat="43.77645" lon="3.82954">
        <ele>416.9</ele>
        <time>2026-05-21T12:26:27.999Z</time>
      </trkpt>
      <trkpt lat="43.77645" lon="3.82954">
        <ele>416.6</ele>
        <time>2026-05-21T12:26:28.999Z</time>
      </trkpt>
      <trkpt lat="43.77645" lon="3.82954">
        <ele>416.5</ele>
        <time>2026-05-21T12:26:29.999Z</time>
      </trkpt>
      <trkpt lat="43.77645" lon="3.82954">
        <ele>416.2</ele>
        <time>2026-05-21T12:26:30.999Z</time>
      </trkpt>
      <trkpt lat="43.77645" lon="3.82954">
        <ele>416</ele>
        <time>2026-05-21T12:26:31.999Z</time>
      </trkpt>
      <trkpt lat="43.77645" lon="3.82954">
        <ele>415.9</ele>
        <time>2026-05-21T12:26:32.999Z</time>
      </trkpt>
      <trkpt lat="43.77645" lon="3.82954">
        <ele>415.9</ele>
        <time>2026-05-21T12:26:33.999Z</time>
      </trkpt>
      <trkpt lat="43.77645" lon="3.82954">
        <ele>415.9</ele>
        <time>2026-05-21T12:26:34.999Z</time>
      </trkpt>
      <trkpt lat="43.77645" lon="3.82954">
        <ele>415.8</ele>
        <time>2026-05-21T12:26:35.999Z</time>
      </trkpt>
      <trkpt lat="43.77645" lon="3.82954">
        <ele>415.8</ele>
        <time>2026-05-21T12:26:36.999Z</time>
      </trkpt>
      <trkpt lat="43.77645" lon="3.82954">
        <ele>415.8</ele>
        <time>2026-05-21T12:26:37.999Z</time>
      </trkpt>
      <trkpt lat="43.77645" lon="3.82954">
        <ele>416</ele>
        <time>2026-05-21T12:26:38.999Z</time>
      </trkpt>
      <trkpt lat="43.77645" lon="3.82954">
        <ele>416</ele>
        <time>2026-05-21T12:26:39.999Z</time>
      </trkpt>
      <trkpt lat="43.77645" lon="3.82954">
        <ele>415.9</ele>
        <time>2026-05-21T12:26:40.999Z</time>
      </trkpt>
      <trkpt lat="43.77645" lon="3.82954">
        <ele>415.8</ele>
        <time>2026-05-21T12:26:41.999Z</time>
      </trkpt>
      <trkpt lat="43.77645" lon="3.82954">
        <ele>415.5</ele>
        <time>2026-05-21T12:26:42.999Z</time>
      </trkpt>
      <trkpt lat="43.77645" lon="3.82954">
        <ele>415.4</ele>
        <time>2026-05-21T12:26:43.999Z</time>
      </trkpt>
      <trkpt lat="43.77645" lon="3.82954">
        <ele>415.1</ele>
        <time>2026-05-21T12:26:44.999Z</time>
      </trkpt>
      <trkpt lat="43.77645" lon="3.82954">
        <ele>415</ele>
        <time>2026-05-21T12:26:45.999Z</time>
      </trkpt>
      <trkpt lat="43.77645" lon="3.82954">
        <ele>415.2</ele>
        <time>2026-05-21T12:26:46.999Z</time>
      </trkpt>
      <trkpt lat="43.77644" lon="3.82954">
        <ele>415.2</ele>
        <time>2026-05-21T12:26:47.999Z</time>
      </trkpt>
      <trkpt lat="43.77644" lon="3.82954">
        <ele>415.3</ele>
        <time>2026-05-21T12:26:48.999Z</time>
      </trkpt>
      <trkpt lat="43.77644" lon="3.82954">
        <ele>415.4</ele>
        <time>2026-05-21T12:26:49.999Z</time>
      </trkpt>
      <trkpt lat="43.77644" lon="3.82954">
        <ele>415.5</ele>
        <time>2026-05-21T12:26:50.999Z</time>
      </trkpt>
      <trkpt lat="43.77644" lon="3.82954">
        <ele>415.6</ele>
        <time>2026-05-21T12:26:51.999Z</time>
      </trkpt>
      <trkpt lat="43.77645" lon="3.82953">
        <ele>415.8</ele>
        <time>2026-05-21T12:26:52.999Z</time>
      </trkpt>
      <trkpt lat="43.77645" lon="3.82953">
        <ele>415.9</ele>
        <time>2026-05-21T12:26:53.999Z</time>
      </trkpt>
      <trkpt lat="43.77645" lon="3.82953">
        <ele>416</ele>
        <time>2026-05-21T12:26:54.999Z</time>
      </trkpt>
      <trkpt lat="43.77645" lon="3.82953">
        <ele>415.8</ele>
        <time>2026-05-21T12:26:55.999Z</time>
      </trkpt>
      <trkpt lat="43.77645" lon="3.82953">
        <ele>415.6</ele>
        <time>2026-05-21T12:26:56.999Z</time>
      </trkpt>
      <trkpt lat="43.77645" lon="3.82953">
        <ele>415.4</ele>
        <time>2026-05-21T12:26:57.999Z</time>
      </trkpt>
      <trkpt lat="43.77645" lon="3.82953">
        <ele>415.3</ele>
        <time>2026-05-21T12:26:58.999Z</time>
      </trkpt>
      <trkpt lat="43.77645" lon="3.82953">
        <ele>415.5</ele>
        <time>2026-05-21T12:26:59.999Z</time>
      </trkpt>
      <trkpt lat="43.77645" lon="3.82953">
        <ele>415.4</ele>
        <time>2026-05-21T12:27:00.999Z</time>
      </trkpt>
      <trkpt lat="43.77645" lon="3.82953">
        <ele>415.1</ele>
        <time>2026-05-21T12:27:02.999Z</time>
      </trkpt>
      <trkpt lat="43.77645" lon="3.82954">
        <ele>414.9</ele>
        <time>2026-05-21T12:27:03.999Z</time>
      </trkpt>
      <trkpt lat="43.77644" lon="3.82954">
        <ele>414.5</ele>
        <time>2026-05-21T12:27:04.999Z</time>
      </trkpt>
      <trkpt lat="43.77644" lon="3.82954">
        <ele>414.4</ele>
        <time>2026-05-21T12:27:05.999Z</time>
      </trkpt>
      <trkpt lat="43.77644" lon="3.82954">
        <ele>414.3</ele>
        <time>2026-05-21T12:27:06.999Z</time>
      </trkpt>
      <trkpt lat="43.77644" lon="3.82954">
        <ele>414.1</ele>
        <time>2026-05-21T12:27:07.999Z</time>
      </trkpt>
      <trkpt lat="43.77645" lon="3.82954">
        <ele>414.3</ele>
        <time>2026-05-21T12:27:08.999Z</time>
      </trkpt>
      <trkpt lat="43.77645" lon="3.82954">
        <ele>414.2</ele>
        <time>2026-05-21T12:27:09.999Z</time>
      </trkpt>
      <trkpt lat="43.77645" lon="3.82953">
        <ele>414.1</ele>
        <time>2026-05-21T12:27:10.999Z</time>
      </trkpt>
      <trkpt lat="43.77645" lon="3.82953">
        <ele>414.3</ele>
        <time>2026-05-21T12:27:11.999Z</time>
      </trkpt>
      <trkpt lat="43.77645" lon="3.82953">
        <ele>414.5</ele>
        <time>2026-05-21T12:27:12.999Z</time>
      </trkpt>
      <trkpt lat="43.77645" lon="3.82954">
        <ele>414.6</ele>
        <time>2026-05-21T12:27:13.999Z</time>
      </trkpt>
      <trkpt lat="43.77645" lon="3.82954">
        <ele>414.5</ele>
        <time>2026-05-21T12:27:14.999Z</time>
      </trkpt>
      <trkpt lat="43.77645" lon="3.82954">
        <ele>414.6</ele>
        <time>2026-05-21T12:27:15.999Z</time>
      </trkpt>
      <trkpt lat="43.77645" lon="3.82954">
        <ele>414.4</ele>
        <time>2026-05-21T12:27:16.999Z</time>
      </trkpt>
      <trkpt lat="43.77645" lon="3.82954">
        <ele>414.4</ele>
        <time>2026-05-21T12:27:17.999Z</time>
      </trkpt>
      <trkpt lat="43.77645" lon="3.82954">
        <ele>414.6</ele>
        <time>2026-05-21T12:27:18.999Z</time>
      </trkpt>
      <trkpt lat="43.77645" lon="3.82954">
        <ele>414.8</ele>
        <time>2026-05-21T12:27:19.999Z</time>
      </trkpt>
      <trkpt lat="43.77645" lon="3.82953">
        <ele>415.1</ele>
        <time>2026-05-21T12:27:20.999Z</time>
      </trkpt>
      <trkpt lat="43.77645" lon="3.82953">
        <ele>415.4</ele>
        <time>2026-05-21T12:27:21.999Z</time>
      </trkpt>
      <trkpt lat="43.77645" lon="3.82953">
        <ele>415.5</ele>
        <time>2026-05-21T12:27:22.999Z</time>
      </trkpt>
      <trkpt lat="43.77645" lon="3.82953">
        <ele>415.4</ele>
        <time>2026-05-21T12:27:23.999Z</time>
      </trkpt>
      <trkpt lat="43.77645" lon="3.82954">
        <ele>415.5</ele>
        <time>2026-05-21T12:27:24.999Z</time>
      </trkpt>
      <trkpt lat="43.77645" lon="3.82954">
        <ele>415.7</ele>
        <time>2026-05-21T12:27:25.999Z</time>
      </trkpt>
      <trkpt lat="43.77645" lon="3.82954">
        <ele>415.9</ele>
        <time>2026-05-21T12:27:26.999Z</time>
      </trkpt>
      <trkpt lat="43.77645" lon="3.82954">
        <ele>416</ele>
        <time>2026-05-21T12:27:27.999Z</time>
      </trkpt>
      <trkpt lat="43.77645" lon="3.82954">
        <ele>416</ele>
        <time>2026-05-21T12:27:28.999Z</time>
      </trkpt>
      <trkpt lat="43.77645" lon="3.82954">
        <ele>415.5</ele>
        <time>2026-05-21T12:27:29.999Z</time>
      </trkpt>
      <trkpt lat="43.77645" lon="3.82954">
        <ele>415.4</ele>
        <time>2026-05-21T12:27:30.999Z</time>
      </trkpt>
      <trkpt lat="43.77645" lon="3.82954">
        <ele>415.2</ele>
        <time>2026-05-21T12:27:31.999Z</time>
      </trkpt>
      <trkpt lat="43.77645" lon="3.82954">
        <ele>415.2</ele>
        <time>2026-05-21T12:27:32.999Z</time>
      </trkpt>
      <trkpt lat="43.77645" lon="3.82954">
        <ele>415.2</ele>
        <time>2026-05-21T12:27:33.999Z</time>
      </trkpt>
      <trkpt lat="43.77645" lon="3.82954">
        <ele>415.3</ele>
        <time>2026-05-21T12:27:34.999Z</time>
      </trkpt>
      <trkpt lat="43.77645" lon="3.82954">
        <ele>415.4</ele>
        <time>2026-05-21T12:27:35.999Z</time>
      </trkpt>
      <trkpt lat="43.77644" lon="3.82953">
        <ele>415.4</ele>
        <time>2026-05-21T12:27:36.999Z</time>
      </trkpt>
      <trkpt lat="43.77644" lon="3.82954">
        <ele>415.4</ele>
        <time>2026-05-21T12:27:37.999Z</time>
      </trkpt>
      <trkpt lat="43.77643" lon="3.82954">
        <ele>415.6</ele>
        <time>2026-05-21T12:27:38.999Z</time>
      </trkpt>
      <trkpt lat="43.77643" lon="3.82954">
        <ele>415.7</ele>
        <time>2026-05-21T12:27:39.999Z</time>
      </trkpt>
      <trkpt lat="43.77643" lon="3.82954">
        <ele>415.9</ele>
        <time>2026-05-21T12:27:40.999Z</time>
      </trkpt>
      <trkpt lat="43.77643" lon="3.82954">
        <ele>416</ele>
        <time>2026-05-21T12:27:41.999Z</time>
      </trkpt>
      <trkpt lat="43.77643" lon="3.82954">
        <ele>415.8</ele>
        <time>2026-05-21T12:27:42.999Z</time>
      </trkpt>
      <trkpt lat="43.77643" lon="3.82954">
        <ele>415.8</ele>
        <time>2026-05-21T12:27:43.999Z</time>
      </trkpt>
      <trkpt lat="43.77643" lon="3.82954">
        <ele>415.9</ele>
        <time>2026-05-21T12:27:44.999Z</time>
      </trkpt>
      <trkpt lat="43.77644" lon="3.82954">
        <ele>415.8</ele>
        <time>2026-05-21T12:27:45.999Z</time>
      </trkpt>
      <trkpt lat="43.77644" lon="3.82954">
        <ele>415.6</ele>
        <time>2026-05-21T12:27:46.999Z</time>
      </trkpt>
      <trkpt lat="43.77644" lon="3.82954">
        <ele>415.6</ele>
        <time>2026-05-21T12:27:47.999Z</time>
      </trkpt>
      <trkpt lat="43.77644" lon="3.82954">
        <ele>415.4</ele>
        <time>2026-05-21T12:27:48.999Z</time>
      </trkpt>
      <trkpt lat="43.77644" lon="3.82954">
        <ele>415.4</ele>
        <time>2026-05-21T12:27:49.999Z</time>
      </trkpt>
      <trkpt lat="43.77644" lon="3.82954">
        <ele>415.5</ele>
        <time>2026-05-21T12:27:50.999Z</time>
      </trkpt>
      <trkpt lat="43.77644" lon="3.82954">
        <ele>415.6</ele>
        <time>2026-05-21T12:27:51.999Z</time>
      </trkpt>
      <trkpt lat="43.77644" lon="3.82954">
        <ele>415.7</ele>
        <time>2026-05-21T12:27:52.999Z</time>
      </trkpt>
      <trkpt lat="43.77644" lon="3.82954">
        <ele>415.7</ele>
        <time>2026-05-21T12:27:53.999Z</time>
      </trkpt>
      <trkpt lat="43.77644" lon="3.82954">
        <ele>415.6</ele>
        <time>2026-05-21T12:27:54.999Z</time>
      </trkpt>
      <trkpt lat="43.77644" lon="3.82954">
        <ele>415.6</ele>
        <time>2026-05-21T12:27:55.999Z</time>
      </trkpt>
      <trkpt lat="43.77644" lon="3.82954">
        <ele>415.7</ele>
        <time>2026-05-21T12:27:56.999Z</time>
      </trkpt>
      <trkpt lat="43.77644" lon="3.82954">
        <ele>416</ele>
        <time>2026-05-21T12:27:57.999Z</time>
      </trkpt>
      <trkpt lat="43.77644" lon="3.82954">
        <ele>416.1</ele>
        <time>2026-05-21T12:27:58.999Z</time>
      </trkpt>
      <trkpt lat="43.77645" lon="3.82954">
        <ele>416.1</ele>
        <time>2026-05-21T12:27:59.999Z</time>
      </trkpt>
      <trkpt lat="43.77645" lon="3.82954">
        <ele>416.1</ele>
        <time>2026-05-21T12:28:00.999Z</time>
      </trkpt>
      <trkpt lat="43.77645" lon="3.82954">
        <ele>416.2</ele>
        <time>2026-05-21T12:28:01.999Z</time>
      </trkpt>
      <trkpt lat="43.77644" lon="3.82954">
        <ele>416.3</ele>
        <time>2026-05-21T12:28:02.999Z</time>
      </trkpt>
      <trkpt lat="43.77644" lon="3.82954">
        <ele>416.5</ele>
        <time>2026-05-21T12:28:03.999Z</time>
      </trkpt>
      <trkpt lat="43.77644" lon="3.82954">
        <ele>416.6</ele>
        <time>2026-05-21T12:28:04.999Z</time>
      </trkpt>
      <trkpt lat="43.77644" lon="3.82954">
        <ele>416.6</ele>
        <time>2026-05-21T12:28:05.999Z</time>
      </trkpt>
      <trkpt lat="43.77645" lon="3.82955">
        <ele>416.5</ele>
        <time>2026-05-21T12:28:06.999Z</time>
      </trkpt>
      <trkpt lat="43.77645" lon="3.82955">
        <ele>416.4</ele>
        <time>2026-05-21T12:28:07.999Z</time>
      </trkpt>
      <trkpt lat="43.77644" lon="3.82955">
        <ele>416.7</ele>
        <time>2026-05-21T12:28:08.999Z</time>
      </trkpt>
      <trkpt lat="43.77644" lon="3.82955">
        <ele>416.9</ele>
        <time>2026-05-21T12:28:10.000Z</time>
      </trkpt>
      <trkpt lat="43.77644" lon="3.82955">
        <ele>417</ele>
        <time>2026-05-21T12:28:11.000Z</time>
      </trkpt>
      <trkpt lat="43.77644" lon="3.82954">
        <ele>417.1</ele>
        <time>2026-05-21T12:28:12.000Z</time>
      </trkpt>
      <trkpt lat="43.77644" lon="3.82954">
        <ele>417.3</ele>
        <time>2026-05-21T12:28:13.000Z</time>
      </trkpt>
      <trkpt lat="43.77644" lon="3.82954">
        <ele>417.4</ele>
        <time>2026-05-21T12:28:14.000Z</time>
      </trkpt>
      <trkpt lat="43.77644" lon="3.82954">
        <ele>417.4</ele>
        <time>2026-05-21T12:28:15.000Z</time>
      </trkpt>
      <trkpt lat="43.77644" lon="3.82954">
        <ele>417.4</ele>
        <time>2026-05-21T12:28:16.000Z</time>
      </trkpt>
      <trkpt lat="43.77644" lon="3.82954">
        <ele>417.5</ele>
        <time>2026-05-21T12:28:17.000Z</time>
      </trkpt>
      <trkpt lat="43.77644" lon="3.82954">
        <ele>417.2</ele>
        <time>2026-05-21T12:28:18.000Z</time>
      </trkpt>
      <trkpt lat="43.77644" lon="3.82955">
        <ele>416.7</ele>
        <time>2026-05-21T12:28:19.000Z</time>
      </trkpt>
      <trkpt lat="43.77644" lon="3.82954">
        <ele>416.6</ele>
        <time>2026-05-21T12:28:20.000Z</time>
      </trkpt>
      <trkpt lat="43.77644" lon="3.82954">
        <ele>416.6</ele>
        <time>2026-05-21T12:28:21.000Z</time>
      </trkpt>
      <trkpt lat="43.77644" lon="3.82954">
        <ele>416.6</ele>
        <time>2026-05-21T12:28:22.000Z</time>
      </trkpt>
      <trkpt lat="43.77644" lon="3.82954">
        <ele>416.7</ele>
        <time>2026-05-21T12:28:23.000Z</time>
      </trkpt>
      <trkpt lat="43.77644" lon="3.82954">
        <ele>416.9</ele>
        <time>2026-05-21T12:28:24.000Z</time>
      </trkpt>
      <trkpt lat="43.77644" lon="3.82954">
        <ele>417</ele>
        <time>2026-05-21T12:28:25.000Z</time>
      </trkpt>
      <trkpt lat="43.77644" lon="3.82954">
        <ele>417.1</ele>
        <time>2026-05-21T12:28:26.000Z</time>
      </trkpt>
      <trkpt lat="43.77644" lon="3.82955">
        <ele>417.2</ele>
        <time>2026-05-21T12:28:27.000Z</time>
      </trkpt>
      <trkpt lat="43.77644" lon="3.82955">
        <ele>417.1</ele>
        <time>2026-05-21T12:28:28.000Z</time>
      </trkpt>
      <trkpt lat="43.77644" lon="3.82955">
        <ele>417.1</ele>
        <time>2026-05-21T12:28:29.000Z</time>
      </trkpt>
      <trkpt lat="43.77644" lon="3.82955">
        <ele>417.2</ele>
        <time>2026-05-21T12:28:30.000Z</time>
      </trkpt>
      <trkpt lat="43.77644" lon="3.82955">
        <ele>417.2</ele>
        <time>2026-05-21T12:28:31.000Z</time>
      </trkpt>
      <trkpt lat="43.77644" lon="3.82955">
        <ele>417.4</ele>
        <time>2026-05-21T12:28:32.000Z</time>
      </trkpt>
      <trkpt lat="43.77644" lon="3.82955">
        <ele>417.4</ele>
        <time>2026-05-21T12:28:33.000Z</time>
      </trkpt>
      <trkpt lat="43.77644" lon="3.82955">
        <ele>417.6</ele>
        <time>2026-05-21T12:28:34.000Z</time>
      </trkpt>
      <trkpt lat="43.77644" lon="3.82955">
        <ele>417.6</ele>
        <time>2026-05-21T12:28:35.000Z</time>
      </trkpt>
      <trkpt lat="43.77644" lon="3.82955">
        <ele>417.7</ele>
        <time>2026-05-21T12:28:36.000Z</time>
      </trkpt>
      <trkpt lat="43.77644" lon="3.82955">
        <ele>417.6</ele>
        <time>2026-05-21T12:28:37.000Z</time>
      </trkpt>
      <trkpt lat="43.77644" lon="3.82955">
        <ele>417.5</ele>
        <time>2026-05-21T12:28:38.000Z</time>
      </trkpt>
      <trkpt lat="43.77644" lon="3.82955">
        <ele>417.4</ele>
        <time>2026-05-21T12:28:39.000Z</time>
      </trkpt>
      <trkpt lat="43.77644" lon="3.82955">
        <ele>417.2</ele>
        <time>2026-05-21T12:28:40.000Z</time>
      </trkpt>
      <trkpt lat="43.77644" lon="3.82955">
        <ele>417</ele>
        <time>2026-05-21T12:28:41.000Z</time>
      </trkpt>
      <trkpt lat="43.77644" lon="3.82955">
        <ele>417</ele>
        <time>2026-05-21T12:28:42.000Z</time>
      </trkpt>
      <trkpt lat="43.77644" lon="3.82955">
        <ele>417.1</ele>
        <time>2026-05-21T12:28:43.000Z</time>
      </trkpt>
      <trkpt lat="43.77644" lon="3.82955">
        <ele>417.1</ele>
        <time>2026-05-21T12:28:44.000Z</time>
      </trkpt>
      <trkpt lat="43.77644" lon="3.82955">
        <ele>417.2</ele>
        <time>2026-05-21T12:28:45.000Z</time>
      </trkpt>
      <trkpt lat="43.77644" lon="3.82955">
        <ele>417.2</ele>
        <time>2026-05-21T12:28:46.000Z</time>
      </trkpt>
      <trkpt lat="43.77644" lon="3.82955">
        <ele>417.3</ele>
        <time>2026-05-21T12:28:47.000Z</time>
      </trkpt>
      <trkpt lat="43.77644" lon="3.82955">
        <ele>417.4</ele>
        <time>2026-05-21T12:28:48.000Z</time>
      </trkpt>
      <trkpt lat="43.77644" lon="3.82955">
        <ele>417.5</ele>
        <time>2026-05-21T12:28:49.000Z</time>
      </trkpt>
      <trkpt lat="43.77644" lon="3.82955">
        <ele>417.5</ele>
        <time>2026-05-21T12:28:50.000Z</time>
      </trkpt>
      <trkpt lat="43.77644" lon="3.82955">
        <ele>417.5</ele>
        <time>2026-05-21T12:28:51.000Z</time>
      </trkpt>
      <trkpt lat="43.77644" lon="3.82955">
        <ele>417.5</ele>
        <time>2026-05-21T12:28:52.000Z</time>
      </trkpt>
      <trkpt lat="43.77644" lon="3.82955">
        <ele>417.3</ele>
        <time>2026-05-21T12:28:53.000Z</time>
      </trkpt>
      <trkpt lat="43.77644" lon="3.82955">
        <ele>417.3</ele>
        <time>2026-05-21T12:28:54.000Z</time>
      </trkpt>
      <trkpt lat="43.77644" lon="3.82955">
        <ele>417.3</ele>
        <time>2026-05-21T12:28:55.000Z</time>
      </trkpt>
      <trkpt lat="43.77644" lon="3.82955">
        <ele>417.2</ele>
        <time>2026-05-21T12:28:56.000Z</time>
      </trkpt>
      <trkpt lat="43.77644" lon="3.82955">
        <ele>417.1</ele>
        <time>2026-05-21T12:28:57.000Z</time>
      </trkpt>
      <trkpt lat="43.77644" lon="3.82955">
        <ele>417</ele>
        <time>2026-05-21T12:28:58.000Z</time>
      </trkpt>
      <trkpt lat="43.77644" lon="3.82955">
        <ele>416.8</ele>
        <time>2026-05-21T12:28:59.000Z</time>
      </trkpt>
      <trkpt lat="43.77644" lon="3.82955">
        <ele>416.7</ele>
        <time>2026-05-21T12:29:00.000Z</time>
      </trkpt>
      <trkpt lat="43.77644" lon="3.82955">
        <ele>416.1</ele>
        <time>2026-05-21T12:29:01.000Z</time>
      </trkpt>
      <trkpt lat="43.77644" lon="3.82956">
        <ele>416.2</ele>
        <time>2026-05-21T12:29:02.000Z</time>
      </trkpt>
      <trkpt lat="43.77644" lon="3.82956">
        <ele>416.2</ele>
        <time>2026-05-21T12:29:03.000Z</time>
      </trkpt>
      <trkpt lat="43.77644" lon="3.82956">
        <ele>416.2</ele>
        <time>2026-05-21T12:29:04.000Z</time>
      </trkpt>
      <trkpt lat="43.77644" lon="3.82955">
        <ele>416.3</ele>
        <time>2026-05-21T12:29:05.000Z</time>
      </trkpt>
      <trkpt lat="43.77644" lon="3.82955">
        <ele>416.3</ele>
        <time>2026-05-21T12:29:06.000Z</time>
      </trkpt>
      <trkpt lat="43.77644" lon="3.82955">
        <ele>416.3</ele>
        <time>2026-05-21T12:29:07.000Z</time>
      </trkpt>
      <trkpt lat="43.77644" lon="3.82955">
        <ele>416.3</ele>
        <time>2026-05-21T12:29:08.000Z</time>
      </trkpt>
      <trkpt lat="43.77644" lon="3.82955">
        <ele>416.4</ele>
        <time>2026-05-21T12:29:09.000Z</time>
      </trkpt>
      <trkpt lat="43.77644" lon="3.82955">
        <ele>416.4</ele>
        <time>2026-05-21T12:29:10.000Z</time>
      </trkpt>
      <trkpt lat="43.77644" lon="3.82955">
        <ele>416.3</ele>
        <time>2026-05-21T12:29:11.000Z</time>
      </trkpt>
      <trkpt lat="43.77644" lon="3.82955">
        <ele>416.3</ele>
        <time>2026-05-21T12:29:12.000Z</time>
      </trkpt>
      <trkpt lat="43.77644" lon="3.82955">
        <ele>416.3</ele>
        <time>2026-05-21T12:29:13.000Z</time>
      </trkpt>
      <trkpt lat="43.77644" lon="3.82954">
        <ele>416.3</ele>
        <time>2026-05-21T12:29:14.000Z</time>
      </trkpt>
      <trkpt lat="43.77644" lon="3.82954">
        <ele>416.4</ele>
        <time>2026-05-21T12:29:15.000Z</time>
      </trkpt>
      <trkpt lat="43.77644" lon="3.82954">
        <ele>416.5</ele>
        <time>2026-05-21T12:29:16.000Z</time>
      </trkpt>
      <trkpt lat="43.77644" lon="3.82954">
        <ele>416.5</ele>
        <time>2026-05-21T12:29:17.000Z</time>
      </trkpt>
      <trkpt lat="43.77644" lon="3.82954">
        <ele>416.4</ele>
        <time>2026-05-21T12:29:18.000Z</time>
      </trkpt>
      <trkpt lat="43.77644" lon="3.82954">
        <ele>416.4</ele>
        <time>2026-05-21T12:29:19.000Z</time>
      </trkpt>
      <trkpt lat="43.77644" lon="3.82954">
        <ele>416.5</ele>
        <time>2026-05-21T12:29:20.000Z</time>
      </trkpt>
      <trkpt lat="43.77644" lon="3.82954">
        <ele>416.5</ele>
        <time>2026-05-21T12:29:21.000Z</time>
      </trkpt>
      <trkpt lat="43.77644" lon="3.82954">
        <ele>416.6</ele>
        <time>2026-05-21T12:29:22.000Z</time>
      </trkpt>
      <trkpt lat="43.77644" lon="3.82954">
        <ele>416.8</ele>
        <time>2026-05-21T12:29:23.000Z</time>
      </trkpt>
      <trkpt lat="43.77644" lon="3.82953">
        <ele>416.9</ele>
        <time>2026-05-21T12:29:24.000Z</time>
      </trkpt>
      <trkpt lat="43.77644" lon="3.82953">
        <ele>416.9</ele>
        <time>2026-05-21T12:29:25.000Z</time>
      </trkpt>
      <trkpt lat="43.77644" lon="3.82953">
        <ele>417</ele>
        <time>2026-05-21T12:29:26.000Z</time>
      </trkpt>
      <trkpt lat="43.77644" lon="3.82953">
        <ele>416.9</ele>
        <time>2026-05-21T12:29:28.000Z</time>
      </trkpt>
      <trkpt lat="43.77644" lon="3.82953">
        <ele>416.8</ele>
        <time>2026-05-21T12:29:29.000Z</time>
      </trkpt>
      <trkpt lat="43.77645" lon="3.82953">
        <ele>417</ele>
        <time>2026-05-21T12:29:30.000Z</time>
      </trkpt>
      <trkpt lat="43.77645" lon="3.82953">
        <ele>417.3</ele>
        <time>2026-05-21T12:29:31.000Z</time>
      </trkpt>
      <trkpt lat="43.77645" lon="3.82953">
        <ele>417.5</ele>
        <time>2026-05-21T12:29:32.000Z</time>
      </trkpt>
      <trkpt lat="43.77645" lon="3.82953">
        <ele>417.4</ele>
        <time>2026-05-21T12:29:33.000Z</time>
      </trkpt>
      <trkpt lat="43.77645" lon="3.82952">
        <ele>418.3</ele>
        <time>2026-05-21T12:29:34.000Z</time>
      </trkpt>
      <trkpt lat="43.77645" lon="3.82952">
        <ele>418.3</ele>
        <time>2026-05-21T12:29:35.000Z</time>
      </trkpt>
      <trkpt lat="43.77645" lon="3.82952">
        <ele>418</ele>
        <time>2026-05-21T12:29:36.000Z</time>
      </trkpt>
      <trkpt lat="43.77644" lon="3.82952">
        <ele>418</ele>
        <time>2026-05-21T12:29:37.000Z</time>
      </trkpt>
      <trkpt lat="43.77644" lon="3.82952">
        <ele>418</ele>
        <time>2026-05-21T12:29:38.000Z</time>
      </trkpt>
      <trkpt lat="43.77644" lon="3.82952">
        <ele>418.1</ele>
        <time>2026-05-21T12:29:39.000Z</time>
      </trkpt>
      <trkpt lat="43.77644" lon="3.82952">
        <ele>418.1</ele>
        <time>2026-05-21T12:29:40.000Z</time>
      </trkpt>
      <trkpt lat="43.77644" lon="3.82952">
        <ele>418.2</ele>
        <time>2026-05-21T12:29:41.000Z</time>
      </trkpt>
      <trkpt lat="43.77644" lon="3.82952">
        <ele>418.3</ele>
        <time>2026-05-21T12:29:42.000Z</time>
      </trkpt>
      <trkpt lat="43.77644" lon="3.82952">
        <ele>418</ele>
        <time>2026-05-21T12:29:43.000Z</time>
      </trkpt>
      <trkpt lat="43.77645" lon="3.82952">
        <ele>418</ele>
        <time>2026-05-21T12:29:44.000Z</time>
      </trkpt>
      <trkpt lat="43.77645" lon="3.82952">
        <ele>418</ele>
        <time>2026-05-21T12:29:45.000Z</time>
      </trkpt>
      <trkpt lat="43.77645" lon="3.82952">
        <ele>417.9</ele>
        <time>2026-05-21T12:29:46.000Z</time>
      </trkpt>
      <trkpt lat="43.77645" lon="3.82952">
        <ele>418</ele>
        <time>2026-05-21T12:29:47.000Z</time>
      </trkpt>
      <trkpt lat="43.77645" lon="3.82952">
        <ele>417.9</ele>
        <time>2026-05-21T12:29:48.000Z</time>
      </trkpt>
      <trkpt lat="43.77645" lon="3.82951">
        <ele>418</ele>
        <time>2026-05-21T12:29:49.000Z</time>
      </trkpt>
      <trkpt lat="43.77645" lon="3.82952">
        <ele>418.1</ele>
        <time>2026-05-21T12:29:50.000Z</time>
      </trkpt>
      <trkpt lat="43.77645" lon="3.82952">
        <ele>418.1</ele>
        <time>2026-05-21T12:29:51.000Z</time>
      </trkpt>
      <trkpt lat="43.77645" lon="3.82952">
        <ele>417.7</ele>
        <time>2026-05-21T12:29:52.000Z</time>
      </trkpt>
      <trkpt lat="43.77645" lon="3.82952">
        <ele>417.7</ele>
        <time>2026-05-21T12:29:53.000Z</time>
      </trkpt>
      <trkpt lat="43.77645" lon="3.82952">
        <ele>417.6</ele>
        <time>2026-05-21T12:29:54.000Z</time>
      </trkpt>
      <trkpt lat="43.77645" lon="3.82952">
        <ele>417.4</ele>
        <time>2026-05-21T12:29:55.000Z</time>
      </trkpt>
      <trkpt lat="43.77645" lon="3.82952">
        <ele>417.2</ele>
        <time>2026-05-21T12:29:56.000Z</time>
      </trkpt>
      <trkpt lat="43.77645" lon="3.82952">
        <ele>416.9</ele>
        <time>2026-05-21T12:29:57.000Z</time>
      </trkpt>
      <trkpt lat="43.77645" lon="3.82952">
        <ele>417</ele>
        <time>2026-05-21T12:29:58.000Z</time>
      </trkpt>
      <trkpt lat="43.77645" lon="3.82952">
        <ele>417</ele>
        <time>2026-05-21T12:29:59.000Z</time>
      </trkpt>
      <trkpt lat="43.77645" lon="3.82952">
        <ele>416.9</ele>
        <time>2026-05-21T12:30:00.000Z</time>
      </trkpt>
      <trkpt lat="43.77645" lon="3.82952">
        <ele>417</ele>
        <time>2026-05-21T12:30:01.000Z</time>
      </trkpt>
      <trkpt lat="43.77645" lon="3.82953">
        <ele>417.1</ele>
        <time>2026-05-21T12:30:02.000Z</time>
      </trkpt>
      <trkpt lat="43.77645" lon="3.82953">
        <ele>416.7</ele>
        <time>2026-05-21T12:30:03.000Z</time>
      </trkpt>
      <trkpt lat="43.77645" lon="3.82953">
        <ele>416.4</ele>
        <time>2026-05-21T12:30:04.000Z</time>
      </trkpt>
      <trkpt lat="43.77646" lon="3.82953">
        <ele>416.2</ele>
        <time>2026-05-21T12:30:05.000Z</time>
      </trkpt>
      <trkpt lat="43.77646" lon="3.82953">
        <ele>415.9</ele>
        <time>2026-05-21T12:30:06.000Z</time>
      </trkpt>
      <trkpt lat="43.77646" lon="3.82953">
        <ele>415.8</ele>
        <time>2026-05-21T12:30:07.000Z</time>
      </trkpt>
      <trkpt lat="43.77646" lon="3.82953">
        <ele>415.9</ele>
        <time>2026-05-21T12:30:08.000Z</time>
      </trkpt>
      <trkpt lat="43.77646" lon="3.82953">
        <ele>415.8</ele>
        <time>2026-05-21T12:30:09.000Z</time>
      </trkpt>
      <trkpt lat="43.77646" lon="3.82953">
        <ele>415.7</ele>
        <time>2026-05-21T12:30:10.000Z</time>
      </trkpt>
      <trkpt lat="43.77646" lon="3.82953">
        <ele>415.6</ele>
        <time>2026-05-21T12:30:11.000Z</time>
      </trkpt>
      <trkpt lat="43.77646" lon="3.82953">
        <ele>415.5</ele>
        <time>2026-05-21T12:30:12.000Z</time>
      </trkpt>
      <trkpt lat="43.77646" lon="3.82953">
        <ele>415.3</ele>
        <time>2026-05-21T12:30:13.000Z</time>
      </trkpt>
      <trkpt lat="43.77646" lon="3.82952">
        <ele>415.1</ele>
        <time>2026-05-21T12:30:14.000Z</time>
      </trkpt>
      <trkpt lat="43.77646" lon="3.82953">
        <ele>414.9</ele>
        <time>2026-05-21T12:30:15.000Z</time>
      </trkpt>
      <trkpt lat="43.77646" lon="3.82952">
        <ele>414.7</ele>
        <time>2026-05-21T12:30:16.000Z</time>
      </trkpt>
      <trkpt lat="43.77646" lon="3.82952">
        <ele>414.6</ele>
        <time>2026-05-21T12:30:17.000Z</time>
      </trkpt>
      <trkpt lat="43.77646" lon="3.82952">
        <ele>414.6</ele>
        <time>2026-05-21T12:30:18.000Z</time>
      </trkpt>
      <trkpt lat="43.77646" lon="3.82952">
        <ele>414.5</ele>
        <time>2026-05-21T12:30:19.000Z</time>
      </trkpt>
      <trkpt lat="43.77646" lon="3.82952">
        <ele>414.2</ele>
        <time>2026-05-21T12:30:20.000Z</time>
      </trkpt>
      <trkpt lat="43.77646" lon="3.82952">
        <ele>414.1</ele>
        <time>2026-05-21T12:30:21.000Z</time>
      </trkpt>
      <trkpt lat="43.77646" lon="3.82952">
        <ele>414</ele>
        <time>2026-05-21T12:30:22.000Z</time>
      </trkpt>
      <trkpt lat="43.77646" lon="3.82952">
        <ele>414</ele>
        <time>2026-05-21T12:30:23.000Z</time>
      </trkpt>
      <trkpt lat="43.77646" lon="3.82952">
        <ele>414.1</ele>
        <time>2026-05-21T12:30:24.000Z</time>
      </trkpt>
      <trkpt lat="43.77646" lon="3.82952">
        <ele>414</ele>
        <time>2026-05-21T12:30:25.000Z</time>
      </trkpt>
      <trkpt lat="43.77646" lon="3.82952">
        <ele>414</ele>
        <time>2026-05-21T12:30:26.000Z</time>
      </trkpt>
      <trkpt lat="43.77646" lon="3.82952">
        <ele>414</ele>
        <time>2026-05-21T12:30:27.000Z</time>
      </trkpt>
      <trkpt lat="43.77646" lon="3.82952">
        <ele>414.1</ele>
        <time>2026-05-21T12:30:28.000Z</time>
      </trkpt>
      <trkpt lat="43.77646" lon="3.82952">
        <ele>413.8</ele>
        <time>2026-05-21T12:30:29.000Z</time>
      </trkpt>
      <trkpt lat="43.77645" lon="3.82952">
        <ele>413.7</ele>
        <time>2026-05-21T12:30:30.000Z</time>
      </trkpt>
      <trkpt lat="43.77645" lon="3.82953">
        <ele>413.7</ele>
        <time>2026-05-21T12:30:31.000Z</time>
      </trkpt>
      <trkpt lat="43.77645" lon="3.82953">
        <ele>413.8</ele>
        <time>2026-05-21T12:30:32.000Z</time>
      </trkpt>
      <trkpt lat="43.77645" lon="3.82953">
        <ele>414</ele>
        <time>2026-05-21T12:30:33.000Z</time>
      </trkpt>
      <trkpt lat="43.77645" lon="3.82953">
        <ele>414.2</ele>
        <time>2026-05-21T12:30:34.000Z</time>
      </trkpt>
      <trkpt lat="43.77645" lon="3.82953">
        <ele>414.2</ele>
        <time>2026-05-21T12:30:35.000Z</time>
      </trkpt>
      <trkpt lat="43.77645" lon="3.82953">
        <ele>414.2</ele>
        <time>2026-05-21T12:30:36.000Z</time>
      </trkpt>
      <trkpt lat="43.77645" lon="3.82953">
        <ele>414.2</ele>
        <time>2026-05-21T12:30:37.000Z</time>
      </trkpt>
      <trkpt lat="43.77646" lon="3.82953">
        <ele>414.2</ele>
        <time>2026-05-21T12:30:38.000Z</time>
      </trkpt>
      <trkpt lat="43.77645" lon="3.82953">
        <ele>414.2</ele>
        <time>2026-05-21T12:30:39.000Z</time>
      </trkpt>
      <trkpt lat="43.77645" lon="3.82953">
        <ele>414.1</ele>
        <time>2026-05-21T12:30:40.000Z</time>
      </trkpt>
      <trkpt lat="43.77645" lon="3.82953">
        <ele>414.2</ele>
        <time>2026-05-21T12:30:41.000Z</time>
      </trkpt>
      <trkpt lat="43.77645" lon="3.82953">
        <ele>414.3</ele>
        <time>2026-05-21T12:30:42.000Z</time>
      </trkpt>
      <trkpt lat="43.77645" lon="3.82953">
        <ele>414.4</ele>
        <time>2026-05-21T12:30:43.000Z</time>
      </trkpt>
      <trkpt lat="43.77645" lon="3.82953">
        <ele>414.4</ele>
        <time>2026-05-21T12:30:44.000Z</time>
      </trkpt>
      <trkpt lat="43.77645" lon="3.82953">
        <ele>414.5</ele>
        <time>2026-05-21T12:30:45.000Z</time>
      </trkpt>
      <trkpt lat="43.77645" lon="3.82954">
        <ele>414.4</ele>
        <time>2026-05-21T12:30:46.000Z</time>
      </trkpt>
      <trkpt lat="43.77645" lon="3.82954">
        <ele>414.6</ele>
        <time>2026-05-21T12:30:47.000Z</time>
      </trkpt>
      <trkpt lat="43.77645" lon="3.82954">
        <ele>414.6</ele>
        <time>2026-05-21T12:30:48.000Z</time>
      </trkpt>
      <trkpt lat="43.77645" lon="3.82954">
        <ele>414.7</ele>
        <time>2026-05-21T12:30:49.000Z</time>
      </trkpt>
      <trkpt lat="43.77645" lon="3.82954">
        <ele>414.8</ele>
        <time>2026-05-21T12:30:50.000Z</time>
      </trkpt>
      <trkpt lat="43.77645" lon="3.82954">
        <ele>414.7</ele>
        <time>2026-05-21T12:30:51.000Z</time>
      </trkpt>
      <trkpt lat="43.77645" lon="3.82953">
        <ele>414.7</ele>
        <time>2026-05-21T12:30:52.000Z</time>
      </trkpt>
      <trkpt lat="43.77645" lon="3.82953">
        <ele>414.6</ele>
        <time>2026-05-21T12:30:53.000Z</time>
      </trkpt>
      <trkpt lat="43.77645" lon="3.82954">
        <ele>414.7</ele>
        <time>2026-05-21T12:30:54.000Z</time>
      </trkpt>
      <trkpt lat="43.77645" lon="3.82954">
        <ele>414.7</ele>
        <time>2026-05-21T12:30:55.000Z</time>
      </trkpt>
      <trkpt lat="43.77645" lon="3.82954">
        <ele>414.9</ele>
        <time>2026-05-21T12:30:56.000Z</time>
      </trkpt>
      <trkpt lat="43.77645" lon="3.82953">
        <ele>414.9</ele>
        <time>2026-05-21T12:30:57.000Z</time>
      </trkpt>
      <trkpt lat="43.77645" lon="3.82953">
        <ele>415</ele>
        <time>2026-05-21T12:30:58.000Z</time>
      </trkpt>
      <trkpt lat="43.77645" lon="3.82953">
        <ele>415.2</ele>
        <time>2026-05-21T12:30:59.000Z</time>
      </trkpt>
      <trkpt lat="43.77645" lon="3.82953">
        <ele>415.5</ele>
        <time>2026-05-21T12:31:00.000Z</time>
      </trkpt>
      <trkpt lat="43.77645" lon="3.82953">
        <ele>415.6</ele>
        <time>2026-05-21T12:31:01.000Z</time>
      </trkpt>
      <trkpt lat="43.77645" lon="3.82953">
        <ele>415.6</ele>
        <time>2026-05-21T12:31:02.000Z</time>
      </trkpt>
      <trkpt lat="43.77645" lon="3.82953">
        <ele>415.8</ele>
        <time>2026-05-21T12:31:03.000Z</time>
      </trkpt>
      <trkpt lat="43.77645" lon="3.82953">
        <ele>416</ele>
        <time>2026-05-21T12:31:04.000Z</time>
      </trkpt>
      <trkpt lat="43.77645" lon="3.82953">
        <ele>416.3</ele>
        <time>2026-05-21T12:31:05.000Z</time>
      </trkpt>
      <trkpt lat="43.77645" lon="3.82953">
        <ele>416.5</ele>
        <time>2026-05-21T12:31:06.000Z</time>
      </trkpt>
      <trkpt lat="43.77645" lon="3.82953">
        <ele>416.6</ele>
        <time>2026-05-21T12:31:07.000Z</time>
      </trkpt>
      <trkpt lat="43.77646" lon="3.82953">
        <ele>416.6</ele>
        <time>2026-05-21T12:31:08.000Z</time>
      </trkpt>
      <trkpt lat="43.77646" lon="3.82953">
        <ele>416.5</ele>
        <time>2026-05-21T12:31:09.000Z</time>
      </trkpt>
      <trkpt lat="43.77646" lon="3.82953">
        <ele>416.5</ele>
        <time>2026-05-21T12:31:10.000Z</time>
      </trkpt>
      <trkpt lat="43.77646" lon="3.82953">
        <ele>416.5</ele>
        <time>2026-05-21T12:31:11.000Z</time>
      </trkpt>
      <trkpt lat="43.77645" lon="3.82953">
        <ele>416.6</ele>
        <time>2026-05-21T12:31:12.000Z</time>
      </trkpt>
      <trkpt lat="43.77645" lon="3.82953">
        <ele>416.8</ele>
        <time>2026-05-21T12:31:13.000Z</time>
      </trkpt>
      <trkpt lat="43.77645" lon="3.82953">
        <ele>417</ele>
        <time>2026-05-21T12:31:14.000Z</time>
      </trkpt>
      <trkpt lat="43.77646" lon="3.82953">
        <ele>416.9</ele>
        <time>2026-05-21T12:31:15.000Z</time>
      </trkpt>
      <trkpt lat="43.77646" lon="3.82953">
        <ele>417</ele>
        <time>2026-05-21T12:31:16.000Z</time>
      </trkpt>
      <trkpt lat="43.77646" lon="3.82953">
        <ele>417</ele>
        <time>2026-05-21T12:31:17.000Z</time>
      </trkpt>
      <trkpt lat="43.77646" lon="3.82953">
        <ele>417</ele>
        <time>2026-05-21T12:31:18.000Z</time>
      </trkpt>
      <trkpt lat="43.77646" lon="3.82953">
        <ele>416.9</ele>
        <time>2026-05-21T12:31:19.000Z</time>
      </trkpt>
      <trkpt lat="43.77646" lon="3.82953">
        <ele>416.7</ele>
        <time>2026-05-21T12:31:20.000Z</time>
      </trkpt>
      <trkpt lat="43.77646" lon="3.82953">
        <ele>416.6</ele>
        <time>2026-05-21T12:31:21.000Z</time>
      </trkpt>
      <trkpt lat="43.77646" lon="3.82953">
        <ele>416.6</ele>
        <time>2026-05-21T12:31:22.000Z</time>
      </trkpt>
      <trkpt lat="43.77646" lon="3.82953">
        <ele>416.5</ele>
        <time>2026-05-21T12:31:23.000Z</time>
      </trkpt>
      <trkpt lat="43.77646" lon="3.82953">
        <ele>416.4</ele>
        <time>2026-05-21T12:31:24.000Z</time>
      </trkpt>
      <trkpt lat="43.77646" lon="3.82953">
        <ele>416.5</ele>
        <time>2026-05-21T12:31:25.000Z</time>
      </trkpt>
      <trkpt lat="43.77645" lon="3.82953">
        <ele>416.3</ele>
        <time>2026-05-21T12:31:26.000Z</time>
      </trkpt>
      <trkpt lat="43.77645" lon="3.82953">
        <ele>416.2</ele>
        <time>2026-05-21T12:31:27.000Z</time>
      </trkpt>
      <trkpt lat="43.77645" lon="3.82953">
        <ele>416.5</ele>
        <time>2026-05-21T12:31:28.000Z</time>
      </trkpt>
      <trkpt lat="43.77646" lon="3.82953">
        <ele>416.5</ele>
        <time>2026-05-21T12:31:29.000Z</time>
      </trkpt>
      <trkpt lat="43.77646" lon="3.82953">
        <ele>416.7</ele>
        <time>2026-05-21T12:31:30.000Z</time>
      </trkpt>
      <trkpt lat="43.77646" lon="3.82953">
        <ele>416.9</ele>
        <time>2026-05-21T12:31:31.000Z</time>
      </trkpt>
      <trkpt lat="43.77645" lon="3.82953">
        <ele>416.9</ele>
        <time>2026-05-21T12:31:32.000Z</time>
      </trkpt>
      <trkpt lat="43.77645" lon="3.82953">
        <ele>416.7</ele>
        <time>2026-05-21T12:31:33.000Z</time>
      </trkpt>
      <trkpt lat="43.77645" lon="3.82953">
        <ele>416.5</ele>
        <time>2026-05-21T12:31:34.000Z</time>
      </trkpt>
      <trkpt lat="43.77645" lon="3.82953">
        <ele>416.3</ele>
        <time>2026-05-21T12:31:35.000Z</time>
      </trkpt>
      <trkpt lat="43.77645" lon="3.82953">
        <ele>416</ele>
        <time>2026-05-21T12:31:36.000Z</time>
      </trkpt>
      <trkpt lat="43.77645" lon="3.82953">
        <ele>416</ele>
        <time>2026-05-21T12:31:37.000Z</time>
      </trkpt>
      <trkpt lat="43.77645" lon="3.82953">
        <ele>415.8</ele>
        <time>2026-05-21T12:31:38.000Z</time>
      </trkpt>
      <trkpt lat="43.77645" lon="3.82954">
        <ele>415.7</ele>
        <time>2026-05-21T12:31:39.000Z</time>
      </trkpt>
      <trkpt lat="43.77645" lon="3.82954">
        <ele>415.6</ele>
        <time>2026-05-21T12:31:40.000Z</time>
      </trkpt>
      <trkpt lat="43.77645" lon="3.82954">
        <ele>415.5</ele>
        <time>2026-05-21T12:31:41.000Z</time>
      </trkpt>
      <trkpt lat="43.77645" lon="3.82954">
        <ele>415.5</ele>
        <time>2026-05-21T12:31:42.000Z</time>
      </trkpt>
      <trkpt lat="43.77645" lon="3.82954">
        <ele>415.5</ele>
        <time>2026-05-21T12:31:43.000Z</time>
      </trkpt>
      <trkpt lat="43.77645" lon="3.82954">
        <ele>415.5</ele>
        <time>2026-05-21T12:31:44.000Z</time>
      </trkpt>
      <trkpt lat="43.77645" lon="3.82954">
        <ele>415.5</ele>
        <time>2026-05-21T12:31:45.000Z</time>
      </trkpt>
      <trkpt lat="43.77645" lon="3.82954">
        <ele>415.3</ele>
        <time>2026-05-21T12:31:46.000Z</time>
      </trkpt>
      <trkpt lat="43.77645" lon="3.82954">
        <ele>415.2</ele>
        <time>2026-05-21T12:31:47.000Z</time>
      </trkpt>
      <trkpt lat="43.77646" lon="3.82954">
        <ele>415.2</ele>
        <time>2026-05-21T12:31:48.000Z</time>
      </trkpt>
      <trkpt lat="43.77646" lon="3.82954">
        <ele>415.1</ele>
        <time>2026-05-21T12:31:49.000Z</time>
      </trkpt>
      <trkpt lat="43.77646" lon="3.82954">
        <ele>415.1</ele>
        <time>2026-05-21T12:31:50.000Z</time>
      </trkpt>
      <trkpt lat="43.77646" lon="3.82954">
        <ele>415.1</ele>
        <time>2026-05-21T12:31:51.000Z</time>
      </trkpt>
      <trkpt lat="43.77646" lon="3.82954">
        <ele>415.1</ele>
        <time>2026-05-21T12:31:52.000Z</time>
      </trkpt>
      <trkpt lat="43.77646" lon="3.82954">
        <ele>414.9</ele>
        <time>2026-05-21T12:31:53.000Z</time>
      </trkpt>
      <trkpt lat="43.77646" lon="3.82954">
        <ele>414.8</ele>
        <time>2026-05-21T12:31:54.000Z</time>
      </trkpt>
      <trkpt lat="43.77646" lon="3.82954">
        <ele>414.7</ele>
        <time>2026-05-21T12:31:55.000Z</time>
      </trkpt>
      <trkpt lat="43.77646" lon="3.82954">
        <ele>414.6</ele>
        <time>2026-05-21T12:31:56.000Z</time>
      </trkpt>
      <trkpt lat="43.77646" lon="3.82954">
        <ele>414.7</ele>
        <time>2026-05-21T12:31:57.000Z</time>
      </trkpt>
      <trkpt lat="43.77646" lon="3.82954">
        <ele>414.8</ele>
        <time>2026-05-21T12:31:58.000Z</time>
      </trkpt>
      <trkpt lat="43.77646" lon="3.82954">
        <ele>414.8</ele>
        <time>2026-05-21T12:31:59.000Z</time>
      </trkpt>
      <trkpt lat="43.77646" lon="3.82954">
        <ele>414.7</ele>
        <time>2026-05-21T12:32:00.000Z</time>
      </trkpt>
      <trkpt lat="43.77646" lon="3.82954">
        <ele>414.7</ele>
        <time>2026-05-21T12:32:01.000Z</time>
      </trkpt>
      <trkpt lat="43.77646" lon="3.82954">
        <ele>414.6</ele>
        <time>2026-05-21T12:32:02.000Z</time>
      </trkpt>
      <trkpt lat="43.77646" lon="3.82954">
        <ele>414.5</ele>
        <time>2026-05-21T12:32:03.000Z</time>
      </trkpt>
      <trkpt lat="43.77646" lon="3.82954">
        <ele>414.5</ele>
        <time>2026-05-21T12:32:04.000Z</time>
      </trkpt>
      <trkpt lat="43.77646" lon="3.82953">
        <ele>414.4</ele>
        <time>2026-05-21T12:32:05.000Z</time>
      </trkpt>
      <trkpt lat="43.77646" lon="3.82953">
        <ele>414.3</ele>
        <time>2026-05-21T12:32:06.000Z</time>
      </trkpt>
      <trkpt lat="43.77646" lon="3.82953">
        <ele>414.3</ele>
        <time>2026-05-21T12:32:07.000Z</time>
      </trkpt>
      <trkpt lat="43.77646" lon="3.82953">
        <ele>414</ele>
        <time>2026-05-21T12:32:08.000Z</time>
      </trkpt>
      <trkpt lat="43.77646" lon="3.82953">
        <ele>413.9</ele>
        <time>2026-05-21T12:32:09.000Z</time>
      </trkpt>
      <trkpt lat="43.77646" lon="3.82953">
        <ele>413.9</ele>
        <time>2026-05-21T12:32:10.000Z</time>
      </trkpt>
      <trkpt lat="43.77646" lon="3.82953">
        <ele>413.9</ele>
        <time>2026-05-21T12:32:11.000Z</time>
      </trkpt>
      <trkpt lat="43.77646" lon="3.82953">
        <ele>413.9</ele>
        <time>2026-05-21T12:32:12.000Z</time>
      </trkpt>
      <trkpt lat="43.77646" lon="3.82953">
        <ele>413.8</ele>
        <time>2026-05-21T12:32:13.000Z</time>
      </trkpt>
      <trkpt lat="43.77646" lon="3.82953">
        <ele>413.9</ele>
        <time>2026-05-21T12:32:14.000Z</time>
      </trkpt>
      <trkpt lat="43.77646" lon="3.82953">
        <ele>414</ele>
        <time>2026-05-21T12:32:15.000Z</time>
      </trkpt>
      <trkpt lat="43.77646" lon="3.82953">
        <ele>414.1</ele>
        <time>2026-05-21T12:32:16.000Z</time>
      </trkpt>
      <trkpt lat="43.77646" lon="3.82953">
        <ele>414.2</ele>
        <time>2026-05-21T12:32:17.000Z</time>
      </trkpt>
      <trkpt lat="43.77646" lon="3.82954">
        <ele>414.3</ele>
        <time>2026-05-21T12:32:18.000Z</time>
      </trkpt>
      <trkpt lat="43.77646" lon="3.82954">
        <ele>414.3</ele>
        <time>2026-05-21T12:32:19.000Z</time>
      </trkpt>
      <trkpt lat="43.77646" lon="3.82954">
        <ele>414.3</ele>
        <time>2026-05-21T12:32:20.000Z</time>
      </trkpt>
      <trkpt lat="43.77646" lon="3.82954">
        <ele>414.7</ele>
        <time>2026-05-21T12:32:21.000Z</time>
      </trkpt>
      <trkpt lat="43.77646" lon="3.82954">
        <ele>414.8</ele>
        <time>2026-05-21T12:32:22.000Z</time>
      </trkpt>
      <trkpt lat="43.77646" lon="3.82954">
        <ele>415</ele>
        <time>2026-05-21T12:32:23.000Z</time>
      </trkpt>
      <trkpt lat="43.77646" lon="3.82954">
        <ele>415</ele>
        <time>2026-05-21T12:32:24.000Z</time>
      </trkpt>
      <trkpt lat="43.77646" lon="3.82954">
        <ele>414.9</ele>
        <time>2026-05-21T12:32:25.000Z</time>
      </trkpt>
      <trkpt lat="43.77646" lon="3.82954">
        <ele>414.8</ele>
        <time>2026-05-21T12:32:26.000Z</time>
      </trkpt>
      <trkpt lat="43.77646" lon="3.82954">
        <ele>414.6</ele>
        <time>2026-05-21T12:32:27.000Z</time>
      </trkpt>
      <trkpt lat="43.77646" lon="3.82954">
        <ele>414.5</ele>
        <time>2026-05-21T12:32:28.000Z</time>
      </trkpt>
      <trkpt lat="43.77646" lon="3.82954">
        <ele>414.6</ele>
        <time>2026-05-21T12:32:29.000Z</time>
      </trkpt>
      <trkpt lat="43.77646" lon="3.82954">
        <ele>414.7</ele>
        <time>2026-05-21T12:32:30.000Z</time>
      </trkpt>
      <trkpt lat="43.77646" lon="3.82954">
        <ele>414.7</ele>
        <time>2026-05-21T12:32:31.000Z</time>
      </trkpt>
      <trkpt lat="43.77646" lon="3.82954">
        <ele>414.7</ele>
        <time>2026-05-21T12:32:32.000Z</time>
      </trkpt>
      <trkpt lat="43.77646" lon="3.82954">
        <ele>414.5</ele>
        <time>2026-05-21T12:32:33.000Z</time>
      </trkpt>
      <trkpt lat="43.77646" lon="3.82954">
        <ele>414.5</ele>
        <time>2026-05-21T12:32:34.000Z</time>
      </trkpt>
      <trkpt lat="43.77646" lon="3.82954">
        <ele>414.4</ele>
        <time>2026-05-21T12:32:35.000Z</time>
      </trkpt>
      <trkpt lat="43.77646" lon="3.82954">
        <ele>414.4</ele>
        <time>2026-05-21T12:32:36.000Z</time>
      </trkpt>
      <trkpt lat="43.77646" lon="3.82954">
        <ele>414.2</ele>
        <time>2026-05-21T12:32:37.000Z</time>
      </trkpt>
      <trkpt lat="43.77645" lon="3.82954">
        <ele>414.1</ele>
        <time>2026-05-21T12:32:38.000Z</time>
      </trkpt>
      <trkpt lat="43.77645" lon="3.82954">
        <ele>414.2</ele>
        <time>2026-05-21T12:32:39.000Z</time>
      </trkpt>
      <trkpt lat="43.77645" lon="3.82954">
        <ele>414.2</ele>
        <time>2026-05-21T12:32:40.000Z</time>
      </trkpt>
      <trkpt lat="43.77645" lon="3.82954">
        <ele>414.2</ele>
        <time>2026-05-21T12:32:41.000Z</time>
      </trkpt>
      <trkpt lat="43.77645" lon="3.82954">
        <ele>414.1</ele>
        <time>2026-05-21T12:32:42.000Z</time>
      </trkpt>
      <trkpt lat="43.77645" lon="3.82954">
        <ele>414.2</ele>
        <time>2026-05-21T12:32:43.000Z</time>
      </trkpt>
      <trkpt lat="43.77645" lon="3.82954">
        <ele>414.2</ele>
        <time>2026-05-21T12:32:44.000Z</time>
      </trkpt>
      <trkpt lat="43.77645" lon="3.82954">
        <ele>414.3</ele>
        <time>2026-05-21T12:32:45.000Z</time>
      </trkpt>
      <trkpt lat="43.77645" lon="3.82954">
        <ele>414.6</ele>
        <time>2026-05-21T12:32:46.000Z</time>
      </trkpt>
      <trkpt lat="43.77645" lon="3.82954">
        <ele>414.8</ele>
        <time>2026-05-21T12:32:47.000Z</time>
      </trkpt>
      <trkpt lat="43.77645" lon="3.82954">
        <ele>415</ele>
        <time>2026-05-21T12:32:48.000Z</time>
      </trkpt>
      <trkpt lat="43.77645" lon="3.82954">
        <ele>414.9</ele>
        <time>2026-05-21T12:32:49.000Z</time>
      </trkpt>
      <trkpt lat="43.77645" lon="3.82954">
        <ele>415</ele>
        <time>2026-05-21T12:32:50.000Z</time>
      </trkpt>
      <trkpt lat="43.77645" lon="3.82954">
        <ele>415</ele>
        <time>2026-05-21T12:32:51.000Z</time>
      </trkpt>
      <trkpt lat="43.77645" lon="3.82954">
        <ele>415</ele>
        <time>2026-05-21T12:32:52.000Z</time>
      </trkpt>
      <trkpt lat="43.77645" lon="3.82954">
        <ele>415</ele>
        <time>2026-05-21T12:32:53.000Z</time>
      </trkpt>
      <trkpt lat="43.77645" lon="3.82954">
        <ele>415.1</ele>
        <time>2026-05-21T12:32:54.000Z</time>
      </trkpt>
      <trkpt lat="43.77645" lon="3.82954">
        <ele>415.2</ele>
        <time>2026-05-21T12:32:55.000Z</time>
      </trkpt>
      <trkpt lat="43.77645" lon="3.82954">
        <ele>415.3</ele>
        <time>2026-05-21T12:32:56.000Z</time>
      </trkpt>
      <trkpt lat="43.77645" lon="3.82954">
        <ele>415.3</ele>
        <time>2026-05-21T12:32:57.000Z</time>
      </trkpt>
      <trkpt lat="43.77645" lon="3.82954">
        <ele>415.2</ele>
        <time>2026-05-21T12:32:58.000Z</time>
      </trkpt>
      <trkpt lat="43.77645" lon="3.82954">
        <ele>415.1</ele>
        <time>2026-05-21T12:32:59.000Z</time>
      </trkpt>
      <trkpt lat="43.77645" lon="3.82954">
        <ele>415</ele>
        <time>2026-05-21T12:33:00.000Z</time>
      </trkpt>
      <trkpt lat="43.77645" lon="3.82954">
        <ele>414.9</ele>
        <time>2026-05-21T12:33:01.000Z</time>
      </trkpt>
      <trkpt lat="43.77645" lon="3.82954">
        <ele>414.9</ele>
        <time>2026-05-21T12:33:02.000Z</time>
      </trkpt>
      <trkpt lat="43.77645" lon="3.82954">
        <ele>414.9</ele>
        <time>2026-05-21T12:33:03.000Z</time>
      </trkpt>
      <trkpt lat="43.77645" lon="3.82954">
        <ele>414.9</ele>
        <time>2026-05-21T12:33:04.000Z</time>
      </trkpt>
      <trkpt lat="43.77645" lon="3.82954">
        <ele>414.9</ele>
        <time>2026-05-21T12:33:05.000Z</time>
      </trkpt>
      <trkpt lat="43.77645" lon="3.82954">
        <ele>414.8</ele>
        <time>2026-05-21T12:33:06.000Z</time>
      </trkpt>
      <trkpt lat="43.77645" lon="3.82954">
        <ele>414.9</ele>
        <time>2026-05-21T12:33:07.000Z</time>
      </trkpt>
      <trkpt lat="43.77646" lon="3.82954">
        <ele>415</ele>
        <time>2026-05-21T12:33:08.000Z</time>
      </trkpt>
      <trkpt lat="43.77646" lon="3.82954">
        <ele>415.1</ele>
        <time>2026-05-21T12:33:09.000Z</time>
      </trkpt>
      <trkpt lat="43.77646" lon="3.82954">
        <ele>414.9</ele>
        <time>2026-05-21T12:33:10.000Z</time>
      </trkpt>
      <trkpt lat="43.77646" lon="3.82954">
        <ele>414.9</ele>
        <time>2026-05-21T12:33:11.000Z</time>
      </trkpt>
      <trkpt lat="43.77646" lon="3.82954">
        <ele>414.8</ele>
        <time>2026-05-21T12:33:12.000Z</time>
      </trkpt>
      <trkpt lat="43.77646" lon="3.82954">
        <ele>414.8</ele>
        <time>2026-05-21T12:33:13.000Z</time>
      </trkpt>
      <trkpt lat="43.77646" lon="3.82954">
        <ele>414.8</ele>
        <time>2026-05-21T12:33:14.000Z</time>
      </trkpt>
      <trkpt lat="43.77646" lon="3.82954">
        <ele>414.6</ele>
        <time>2026-05-21T12:33:15.000Z</time>
      </trkpt>
      <trkpt lat="43.77646" lon="3.82954">
        <ele>414.5</ele>
        <time>2026-05-21T12:33:16.000Z</time>
      </trkpt>
      <trkpt lat="43.77646" lon="3.82954">
        <ele>414.4</ele>
        <time>2026-05-21T12:33:17.000Z</time>
      </trkpt>
      <trkpt lat="43.77646" lon="3.82954">
        <ele>414.4</ele>
        <time>2026-05-21T12:33:18.000Z</time>
      </trkpt>
      <trkpt lat="43.77646" lon="3.82954">
        <ele>414.5</ele>
        <time>2026-05-21T12:33:19.000Z</time>
      </trkpt>
      <trkpt lat="43.77646" lon="3.82954">
        <ele>414.5</ele>
        <time>2026-05-21T12:33:20.000Z</time>
      </trkpt>
      <trkpt lat="43.77646" lon="3.82954">
        <ele>414.7</ele>
        <time>2026-05-21T12:33:21.000Z</time>
      </trkpt>
      <trkpt lat="43.77646" lon="3.82954">
        <ele>414.6</ele>
        <time>2026-05-21T12:33:22.000Z</time>
      </trkpt>
      <trkpt lat="43.77646" lon="3.82954">
        <ele>414.6</ele>
        <time>2026-05-21T12:33:23.000Z</time>
      </trkpt>
      <trkpt lat="43.77646" lon="3.82954">
        <ele>414.6</ele>
        <time>2026-05-21T12:33:24.000Z</time>
      </trkpt>
      <trkpt lat="43.77646" lon="3.82954">
        <ele>414.7</ele>
        <time>2026-05-21T12:33:25.000Z</time>
      </trkpt>
      <trkpt lat="43.77646" lon="3.82954">
        <ele>414.8</ele>
        <time>2026-05-21T12:33:26.000Z</time>
      </trkpt>
      <trkpt lat="43.77646" lon="3.82954">
        <ele>414.9</ele>
        <time>2026-05-21T12:33:27.000Z</time>
      </trkpt>
      <trkpt lat="43.77646" lon="3.82954">
        <ele>415</ele>
        <time>2026-05-21T12:33:28.000Z</time>
      </trkpt>
      <trkpt lat="43.77646" lon="3.82954">
        <ele>415</ele>
        <time>2026-05-21T12:33:29.000Z</time>
      </trkpt>
      <trkpt lat="43.77646" lon="3.82954">
        <ele>415.1</ele>
        <time>2026-05-21T12:33:30.000Z</time>
      </trkpt>
      <trkpt lat="43.77646" lon="3.82954">
        <ele>415</ele>
        <time>2026-05-21T12:33:31.000Z</time>
      </trkpt>
      <trkpt lat="43.77646" lon="3.82954">
        <ele>415</ele>
        <time>2026-05-21T12:33:32.000Z</time>
      </trkpt>
      <trkpt lat="43.77646" lon="3.82954">
        <ele>415</ele>
        <time>2026-05-21T12:33:33.000Z</time>
      </trkpt>
      <trkpt lat="43.77646" lon="3.82954">
        <ele>415.1</ele>
        <time>2026-05-21T12:33:34.000Z</time>
      </trkpt>
      <trkpt lat="43.77646" lon="3.82954">
        <ele>415.1</ele>
        <time>2026-05-21T12:33:35.000Z</time>
      </trkpt>
      <trkpt lat="43.77646" lon="3.82954">
        <ele>415.2</ele>
        <time>2026-05-21T12:33:36.000Z</time>
      </trkpt>
      <trkpt lat="43.77646" lon="3.82954">
        <ele>415.3</ele>
        <time>2026-05-21T12:33:37.000Z</time>
      </trkpt>
      <trkpt lat="43.77646" lon="3.82954">
        <ele>415.4</ele>
        <time>2026-05-21T12:33:38.000Z</time>
      </trkpt>
      <trkpt lat="43.77646" lon="3.82954">
        <ele>415.4</ele>
        <time>2026-05-21T12:33:39.000Z</time>
      </trkpt>
      <trkpt lat="43.77646" lon="3.82954">
        <ele>415.6</ele>
        <time>2026-05-21T12:33:40.000Z</time>
      </trkpt>
      <trkpt lat="43.77646" lon="3.82954">
        <ele>415.5</ele>
        <time>2026-05-21T12:33:41.000Z</time>
      </trkpt>
      <trkpt lat="43.77646" lon="3.82954">
        <ele>415.5</ele>
        <time>2026-05-21T12:33:42.000Z</time>
      </trkpt>
      <trkpt lat="43.77646" lon="3.82953">
        <ele>415.4</ele>
        <time>2026-05-21T12:33:43.000Z</time>
      </trkpt>
      <trkpt lat="43.77646" lon="3.82953">
        <ele>415.3</ele>
        <time>2026-05-21T12:33:44.000Z</time>
      </trkpt>
      <trkpt lat="43.77646" lon="3.82953">
        <ele>415.3</ele>
        <time>2026-05-21T12:33:45.000Z</time>
      </trkpt>
      <trkpt lat="43.77646" lon="3.82953">
        <ele>415.2</ele>
        <time>2026-05-21T12:33:46.000Z</time>
      </trkpt>
      <trkpt lat="43.77646" lon="3.82953">
        <ele>415.2</ele>
        <time>2026-05-21T12:33:47.000Z</time>
      </trkpt>
      <trkpt lat="43.77646" lon="3.82953">
        <ele>415.2</ele>
        <time>2026-05-21T12:33:48.000Z</time>
      </trkpt>
      <trkpt lat="43.77646" lon="3.82953">
        <ele>415.3</ele>
        <time>2026-05-21T12:33:49.000Z</time>
      </trkpt>
      <trkpt lat="43.77646" lon="3.82953">
        <ele>415.3</ele>
        <time>2026-05-21T12:33:50.000Z</time>
      </trkpt>
      <trkpt lat="43.77646" lon="3.82953">
        <ele>415.3</ele>
        <time>2026-05-21T12:33:51.000Z</time>
      </trkpt>
      <trkpt lat="43.77646" lon="3.82953">
        <ele>415.4</ele>
        <time>2026-05-21T12:33:52.000Z</time>
      </trkpt>
      <trkpt lat="43.77646" lon="3.82953">
        <ele>415.3</ele>
        <time>2026-05-21T12:33:53.000Z</time>
      </trkpt>
      <trkpt lat="43.77646" lon="3.82953">
        <ele>415.4</ele>
        <time>2026-05-21T12:33:54.000Z</time>
      </trkpt>
      <trkpt lat="43.77646" lon="3.82953">
        <ele>415.4</ele>
        <time>2026-05-21T12:33:55.000Z</time>
      </trkpt>
      <trkpt lat="43.77646" lon="3.82953">
        <ele>415.5</ele>
        <time>2026-05-21T12:33:56.000Z</time>
      </trkpt>
      <trkpt lat="43.77646" lon="3.82953">
        <ele>415.7</ele>
        <time>2026-05-21T12:33:57.000Z</time>
      </trkpt>
      <trkpt lat="43.77646" lon="3.82953">
        <ele>415.8</ele>
        <time>2026-05-21T12:33:58.000Z</time>
      </trkpt>
      <trkpt lat="43.77646" lon="3.82953">
        <ele>415.8</ele>
        <time>2026-05-21T12:33:59.000Z</time>
      </trkpt>
      <trkpt lat="43.77646" lon="3.82953">
        <ele>415.9</ele>
        <time>2026-05-21T12:34:00.000Z</time>
      </trkpt>
      <trkpt lat="43.77646" lon="3.82953">
        <ele>415.8</ele>
        <time>2026-05-21T12:34:01.000Z</time>
      </trkpt>
      <trkpt lat="43.77646" lon="3.82953">
        <ele>415.8</ele>
        <time>2026-05-21T12:34:02.000Z</time>
      </trkpt>
      <trkpt lat="43.77646" lon="3.82953">
        <ele>415.9</ele>
        <time>2026-05-21T12:34:03.000Z</time>
      </trkpt>
      <trkpt lat="43.77646" lon="3.82953">
        <ele>416</ele>
        <time>2026-05-21T12:34:04.000Z</time>
      </trkpt>
      <trkpt lat="43.77646" lon="3.82953">
        <ele>416</ele>
        <time>2026-05-21T12:34:05.000Z</time>
      </trkpt>
      <trkpt lat="43.77646" lon="3.82953">
        <ele>416.2</ele>
        <time>2026-05-21T12:34:06.000Z</time>
      </trkpt>
      <trkpt lat="43.77646" lon="3.82953">
        <ele>416.4</ele>
        <time>2026-05-21T12:34:07.000Z</time>
      </trkpt>
      <trkpt lat="43.77646" lon="3.82953">
        <ele>416.3</ele>
        <time>2026-05-21T12:34:08.000Z</time>
      </trkpt>
      <trkpt lat="43.77646" lon="3.82953">
        <ele>416.3</ele>
        <time>2026-05-21T12:34:09.000Z</time>
      </trkpt>
      <trkpt lat="43.77646" lon="3.82953">
        <ele>416.1</ele>
        <time>2026-05-21T12:34:10.000Z</time>
      </trkpt>
      <trkpt lat="43.77646" lon="3.82953">
        <ele>415.9</ele>
        <time>2026-05-21T12:34:11.000Z</time>
      </trkpt>
      <trkpt lat="43.77646" lon="3.82953">
        <ele>415.8</ele>
        <time>2026-05-21T12:34:12.000Z</time>
      </trkpt>
      <trkpt lat="43.77646" lon="3.82953">
        <ele>415.8</ele>
        <time>2026-05-21T12:34:13.000Z</time>
      </trkpt>
      <trkpt lat="43.77646" lon="3.82953">
        <ele>415.8</ele>
        <time>2026-05-21T12:34:14.000Z</time>
      </trkpt>
      <trkpt lat="43.77646" lon="3.82953">
        <ele>415.7</ele>
        <time>2026-05-21T12:34:15.000Z</time>
      </trkpt>
      <trkpt lat="43.77646" lon="3.82953">
        <ele>415.6</ele>
        <time>2026-05-21T12:34:16.000Z</time>
      </trkpt>
      <trkpt lat="43.77646" lon="3.82953">
        <ele>415.4</ele>
        <time>2026-05-21T12:34:17.000Z</time>
      </trkpt>
      <trkpt lat="43.77646" lon="3.82953">
        <ele>415.2</ele>
        <time>2026-05-21T12:34:18.000Z</time>
      </trkpt>
      <trkpt lat="43.77646" lon="3.82954">
        <ele>415.1</ele>
        <time>2026-05-21T12:34:19.000Z</time>
      </trkpt>
      <trkpt lat="43.77646" lon="3.82954">
        <ele>414.9</ele>
        <time>2026-05-21T12:34:20.000Z</time>
      </trkpt>
      <trkpt lat="43.77646" lon="3.82954">
        <ele>414.8</ele>
        <time>2026-05-21T12:34:21.000Z</time>
      </trkpt>
      <trkpt lat="43.77646" lon="3.82954">
        <ele>414.7</ele>
        <time>2026-05-21T12:34:22.000Z</time>
      </trkpt>
      <trkpt lat="43.77646" lon="3.82954">
        <ele>414.6</ele>
        <time>2026-05-21T12:34:23.000Z</time>
      </trkpt>
      <trkpt lat="43.77646" lon="3.82954">
        <ele>414.5</ele>
        <time>2026-05-21T12:34:24.000Z</time>
      </trkpt>
      <trkpt lat="43.77646" lon="3.82954">
        <ele>414.4</ele>
        <time>2026-05-21T12:34:25.000Z</time>
      </trkpt>
      <trkpt lat="43.77646" lon="3.82953">
        <ele>414.2</ele>
        <time>2026-05-21T12:34:26.000Z</time>
      </trkpt>
      <trkpt lat="43.77646" lon="3.82953">
        <ele>414</ele>
        <time>2026-05-21T12:34:27.000Z</time>
      </trkpt>
      <trkpt lat="43.77646" lon="3.82953">
        <ele>413.8</ele>
        <time>2026-05-21T12:34:28.000Z</time>
      </trkpt>
      <trkpt lat="43.77647" lon="3.82953">
        <ele>413.6</ele>
        <time>2026-05-21T12:34:29.000Z</time>
      </trkpt>
      <trkpt lat="43.77647" lon="3.82953">
        <ele>413.5</ele>
        <time>2026-05-21T12:34:30.000Z</time>
      </trkpt>
      <trkpt lat="43.77647" lon="3.82953">
        <ele>413.4</ele>
        <time>2026-05-21T12:34:31.000Z</time>
      </trkpt>
      <trkpt lat="43.77646" lon="3.82953">
        <ele>413.2</ele>
        <time>2026-05-21T12:34:32.000Z</time>
      </trkpt>
      <trkpt lat="43.77646" lon="3.82953">
        <ele>413</ele>
        <time>2026-05-21T12:34:33.000Z</time>
      </trkpt>
      <trkpt lat="43.77646" lon="3.82953">
        <ele>412.7</ele>
        <time>2026-05-21T12:34:34.000Z</time>
      </trkpt>
      <trkpt lat="43.77646" lon="3.82953">
        <ele>412.5</ele>
        <time>2026-05-21T12:34:35.000Z</time>
      </trkpt>
      <trkpt lat="43.77646" lon="3.82953">
        <ele>412.3</ele>
        <time>2026-05-21T12:34:36.000Z</time>
      </trkpt>
      <trkpt lat="43.77646" lon="3.82953">
        <ele>412.1</ele>
        <time>2026-05-21T12:34:37.000Z</time>
      </trkpt>
      <trkpt lat="43.77646" lon="3.82953">
        <ele>411.9</ele>
        <time>2026-05-21T12:34:38.000Z</time>
      </trkpt>
      <trkpt lat="43.77646" lon="3.82953">
        <ele>411.8</ele>
        <time>2026-05-21T12:34:39.000Z</time>
      </trkpt>
      <trkpt lat="43.77646" lon="3.82953">
        <ele>411.9</ele>
        <time>2026-05-21T12:34:40.000Z</time>
      </trkpt>
      <trkpt lat="43.77646" lon="3.82953">
        <ele>412</ele>
        <time>2026-05-21T12:34:41.000Z</time>
      </trkpt>
      <trkpt lat="43.77646" lon="3.82953">
        <ele>412.1</ele>
        <time>2026-05-21T12:34:42.000Z</time>
      </trkpt>
      <trkpt lat="43.77646" lon="3.82954">
        <ele>412.1</ele>
        <time>2026-05-21T12:34:43.000Z</time>
      </trkpt>
      <trkpt lat="43.77646" lon="3.82954">
        <ele>412.1</ele>
        <time>2026-05-21T12:34:44.000Z</time>
      </trkpt>
      <trkpt lat="43.77646" lon="3.82954">
        <ele>412.3</ele>
        <time>2026-05-21T12:34:45.000Z</time>
      </trkpt>
      <trkpt lat="43.77646" lon="3.82954">
        <ele>412.2</ele>
        <time>2026-05-21T12:34:46.000Z</time>
      </trkpt>
      <trkpt lat="43.77646" lon="3.82954">
        <ele>412.1</ele>
        <time>2026-05-21T12:34:47.000Z</time>
      </trkpt>
      <trkpt lat="43.77646" lon="3.82954">
        <ele>411.9</ele>
        <time>2026-05-21T12:34:48.000Z</time>
      </trkpt>
      <trkpt lat="43.77646" lon="3.82953">
        <ele>411.9</ele>
        <time>2026-05-21T12:34:49.000Z</time>
      </trkpt>
      <trkpt lat="43.77646" lon="3.82953">
        <ele>411.9</ele>
        <time>2026-05-21T12:34:50.000Z</time>
      </trkpt>
      <trkpt lat="43.77646" lon="3.82953">
        <ele>411.9</ele>
        <time>2026-05-21T12:34:51.000Z</time>
      </trkpt>
      <trkpt lat="43.77646" lon="3.82953">
        <ele>411.9</ele>
        <time>2026-05-21T12:34:52.000Z</time>
      </trkpt>
      <trkpt lat="43.77646" lon="3.82954">
        <ele>412.1</ele>
        <time>2026-05-21T12:34:53.000Z</time>
      </trkpt>
      <trkpt lat="43.77646" lon="3.82954">
        <ele>412</ele>
        <time>2026-05-21T12:34:54.000Z</time>
      </trkpt>
      <trkpt lat="43.77646" lon="3.82954">
        <ele>412.2</ele>
        <time>2026-05-21T12:34:55.000Z</time>
      </trkpt>
      <trkpt lat="43.77646" lon="3.82954">
        <ele>412.4</ele>
        <time>2026-05-21T12:34:56.000Z</time>
      </trkpt>
      <trkpt lat="43.77646" lon="3.82954">
        <ele>412.7</ele>
        <time>2026-05-21T12:34:57.000Z</time>
      </trkpt>
      <trkpt lat="43.77646" lon="3.82954">
        <ele>412.8</ele>
        <time>2026-05-21T12:34:58.000Z</time>
      </trkpt>
      <trkpt lat="43.77646" lon="3.82954">
        <ele>413</ele>
        <time>2026-05-21T12:34:59.000Z</time>
      </trkpt>
      <trkpt lat="43.77646" lon="3.82954">
        <ele>413.2</ele>
        <time>2026-05-21T12:35:00.000Z</time>
      </trkpt>
      <trkpt lat="43.77646" lon="3.82954">
        <ele>413.5</ele>
        <time>2026-05-21T12:35:01.000Z</time>
      </trkpt>
      <trkpt lat="43.77646" lon="3.82954">
        <ele>413.6</ele>
        <time>2026-05-21T12:35:02.000Z</time>
      </trkpt>
      <trkpt lat="43.77646" lon="3.82954">
        <ele>413.7</ele>
        <time>2026-05-21T12:35:03.000Z</time>
      </trkpt>
      <trkpt lat="43.77646" lon="3.82954">
        <ele>413.8</ele>
        <time>2026-05-21T12:35:04.000Z</time>
      </trkpt>
      <trkpt lat="43.77646" lon="3.82954">
        <ele>413.9</ele>
        <time>2026-05-21T12:35:05.000Z</time>
      </trkpt>
      <trkpt lat="43.77646" lon="3.82954">
        <ele>414</ele>
        <time>2026-05-21T12:35:06.000Z</time>
      </trkpt>
      <trkpt lat="43.77646" lon="3.82954">
        <ele>414.1</ele>
        <time>2026-05-21T12:35:07.000Z</time>
      </trkpt>
      <trkpt lat="43.77646" lon="3.82954">
        <ele>414.1</ele>
        <time>2026-05-21T12:35:08.000Z</time>
      </trkpt>
      <trkpt lat="43.77646" lon="3.82954">
        <ele>414.1</ele>
        <time>2026-05-21T12:35:09.000Z</time>
      </trkpt>
      <trkpt lat="43.77646" lon="3.82954">
        <ele>414</ele>
        <time>2026-05-21T12:35:10.000Z</time>
      </trkpt>
      <trkpt lat="43.77646" lon="3.82954">
        <ele>413.9</ele>
        <time>2026-05-21T12:35:11.000Z</time>
      </trkpt>
      <trkpt lat="43.77646" lon="3.82954">
        <ele>413.9</ele>
        <time>2026-05-21T12:35:12.000Z</time>
      </trkpt>
      <trkpt lat="43.77646" lon="3.82954">
        <ele>413.9</ele>
        <time>2026-05-21T12:35:13.000Z</time>
      </trkpt>
      <trkpt lat="43.77646" lon="3.82954">
        <ele>413.8</ele>
        <time>2026-05-21T12:35:14.000Z</time>
      </trkpt>
      <trkpt lat="43.77646" lon="3.82954">
        <ele>413.7</ele>
        <time>2026-05-21T12:35:15.000Z</time>
      </trkpt>
      <trkpt lat="43.77645" lon="3.82954">
        <ele>413.6</ele>
        <time>2026-05-21T12:35:16.000Z</time>
      </trkpt>
      <trkpt lat="43.77645" lon="3.82954">
        <ele>413.5</ele>
        <time>2026-05-21T12:35:17.000Z</time>
      </trkpt>
      <trkpt lat="43.77645" lon="3.82954">
        <ele>413.4</ele>
        <time>2026-05-21T12:35:18.000Z</time>
      </trkpt>
      <trkpt lat="43.77645" lon="3.82954">
        <ele>413.4</ele>
        <time>2026-05-21T12:35:19.000Z</time>
      </trkpt>
      <trkpt lat="43.77645" lon="3.82954">
        <ele>413.2</ele>
        <time>2026-05-21T12:35:20.000Z</time>
      </trkpt>
      <trkpt lat="43.77645" lon="3.82954">
        <ele>413.2</ele>
        <time>2026-05-21T12:35:21.000Z</time>
      </trkpt>
      <trkpt lat="43.77645" lon="3.82954">
        <ele>413.1</ele>
        <time>2026-05-21T12:35:22.000Z</time>
      </trkpt>
      <trkpt lat="43.77645" lon="3.82954">
        <ele>412.9</ele>
        <time>2026-05-21T12:35:23.000Z</time>
      </trkpt>
      <trkpt lat="43.77645" lon="3.82954">
        <ele>412.9</ele>
        <time>2026-05-21T12:35:24.000Z</time>
      </trkpt>
      <trkpt lat="43.77645" lon="3.82954">
        <ele>412.7</ele>
        <time>2026-05-21T12:35:25.000Z</time>
      </trkpt>
      <trkpt lat="43.77645" lon="3.82954">
        <ele>412.9</ele>
        <time>2026-05-21T12:35:26.000Z</time>
      </trkpt>
      <trkpt lat="43.77645" lon="3.82953">
        <ele>413</ele>
        <time>2026-05-21T12:35:27.000Z</time>
      </trkpt>
      <trkpt lat="43.77645" lon="3.82953">
        <ele>413.1</ele>
        <time>2026-05-21T12:35:28.000Z</time>
      </trkpt>
      <trkpt lat="43.77645" lon="3.82953">
        <ele>413.1</ele>
        <time>2026-05-21T12:35:29.000Z</time>
      </trkpt>
      <trkpt lat="43.77645" lon="3.82953">
        <ele>413.3</ele>
        <time>2026-05-21T12:35:30.000Z</time>
      </trkpt>
      <trkpt lat="43.77645" lon="3.82953">
        <ele>413.1</ele>
        <time>2026-05-21T12:35:31.000Z</time>
      </trkpt>
      <trkpt lat="43.77645" lon="3.82953">
        <ele>413.1</ele>
        <time>2026-05-21T12:35:32.000Z</time>
      </trkpt>
      <trkpt lat="43.77645" lon="3.82953">
        <ele>413.1</ele>
        <time>2026-05-21T12:35:33.000Z</time>
      </trkpt>
      <trkpt lat="43.77645" lon="3.82953">
        <ele>413.3</ele>
        <time>2026-05-21T12:35:34.000Z</time>
      </trkpt>
      <trkpt lat="43.77645" lon="3.82953">
        <ele>413.3</ele>
        <time>2026-05-21T12:35:35.000Z</time>
      </trkpt>
      <trkpt lat="43.77645" lon="3.82953">
        <ele>413.4</ele>
        <time>2026-05-21T12:35:36.000Z</time>
      </trkpt>
      <trkpt lat="43.77645" lon="3.82953">
        <ele>413.5</ele>
        <time>2026-05-21T12:35:37.000Z</time>
      </trkpt>
      <trkpt lat="43.77645" lon="3.82953">
        <ele>413.6</ele>
        <time>2026-05-21T12:35:38.000Z</time>
      </trkpt>
      <trkpt lat="43.77645" lon="3.82953">
        <ele>413.6</ele>
        <time>2026-05-21T12:35:39.000Z</time>
      </trkpt>
      <trkpt lat="43.77645" lon="3.82953">
        <ele>413.7</ele>
        <time>2026-05-21T12:35:40.000Z</time>
      </trkpt>
      <trkpt lat="43.77645" lon="3.82953">
        <ele>413.7</ele>
        <time>2026-05-21T12:35:41.000Z</time>
      </trkpt>
      <trkpt lat="43.77645" lon="3.82953">
        <ele>413.6</ele>
        <time>2026-05-21T12:35:42.000Z</time>
      </trkpt>
      <trkpt lat="43.77645" lon="3.82953">
        <ele>413.4</ele>
        <time>2026-05-21T12:35:43.000Z</time>
      </trkpt>
      <trkpt lat="43.77645" lon="3.82953">
        <ele>413.1</ele>
        <time>2026-05-21T12:35:44.000Z</time>
      </trkpt>
      <trkpt lat="43.77645" lon="3.82953">
        <ele>413</ele>
        <time>2026-05-21T12:35:45.000Z</time>
      </trkpt>
      <trkpt lat="43.77645" lon="3.82953">
        <ele>412.9</ele>
        <time>2026-05-21T12:35:46.000Z</time>
      </trkpt>
      <trkpt lat="43.77646" lon="3.82953">
        <ele>412.8</ele>
        <time>2026-05-21T12:35:47.000Z</time>
      </trkpt>
      <trkpt lat="43.77646" lon="3.82953">
        <ele>412.9</ele>
        <time>2026-05-21T12:35:48.000Z</time>
      </trkpt>
      <trkpt lat="43.77646" lon="3.82953">
        <ele>413</ele>
        <time>2026-05-21T12:35:49.000Z</time>
      </trkpt>
      <trkpt lat="43.77646" lon="3.82953">
        <ele>413</ele>
        <time>2026-05-21T12:35:50.000Z</time>
      </trkpt>
      <trkpt lat="43.77646" lon="3.82953">
        <ele>413</ele>
        <time>2026-05-21T12:35:51.000Z</time>
      </trkpt>
      <trkpt lat="43.77646" lon="3.82953">
        <ele>413.1</ele>
        <time>2026-05-21T12:35:52.000Z</time>
      </trkpt>
      <trkpt lat="43.77646" lon="3.82953">
        <ele>413.3</ele>
        <time>2026-05-21T12:35:53.000Z</time>
      </trkpt>
      <trkpt lat="43.77646" lon="3.82953">
        <ele>413.2</ele>
        <time>2026-05-21T12:35:54.000Z</time>
      </trkpt>
      <trkpt lat="43.77646" lon="3.82953">
        <ele>413.2</ele>
        <time>2026-05-21T12:35:55.000Z</time>
      </trkpt>
      <trkpt lat="43.77646" lon="3.82953">
        <ele>413.1</ele>
        <time>2026-05-21T12:35:56.000Z</time>
      </trkpt>
      <trkpt lat="43.77646" lon="3.82953">
        <ele>413</ele>
        <time>2026-05-21T12:35:57.000Z</time>
      </trkpt>
      <trkpt lat="43.77646" lon="3.82953">
        <ele>412.9</ele>
        <time>2026-05-21T12:35:58.000Z</time>
      </trkpt>
      <trkpt lat="43.77646" lon="3.82953">
        <ele>412.9</ele>
        <time>2026-05-21T12:35:59.000Z</time>
      </trkpt>
      <trkpt lat="43.77646" lon="3.82953">
        <ele>413</ele>
        <time>2026-05-21T12:36:00.000Z</time>
      </trkpt>
      <trkpt lat="43.77646" lon="3.82953">
        <ele>413.1</ele>
        <time>2026-05-21T12:36:01.000Z</time>
      </trkpt>
      <trkpt lat="43.77646" lon="3.82953">
        <ele>413.2</ele>
        <time>2026-05-21T12:36:02.000Z</time>
      </trkpt>
      <trkpt lat="43.77646" lon="3.82953">
        <ele>413.2</ele>
        <time>2026-05-21T12:36:03.000Z</time>
      </trkpt>
      <trkpt lat="43.77646" lon="3.82953">
        <ele>413.2</ele>
        <time>2026-05-21T12:36:04.000Z</time>
      </trkpt>
      <trkpt lat="43.77646" lon="3.82953">
        <ele>413.1</ele>
        <time>2026-05-21T12:36:05.000Z</time>
      </trkpt>
      <trkpt lat="43.77646" lon="3.82953">
        <ele>412.9</ele>
        <time>2026-05-21T12:36:06.000Z</time>
      </trkpt>
      <trkpt lat="43.77646" lon="3.82953">
        <ele>412.9</ele>
        <time>2026-05-21T12:36:07.000Z</time>
      </trkpt>
      <trkpt lat="43.77646" lon="3.82953">
        <ele>412.8</ele>
        <time>2026-05-21T12:36:08.000Z</time>
      </trkpt>
      <trkpt lat="43.77646" lon="3.82953">
        <ele>413</ele>
        <time>2026-05-21T12:36:09.000Z</time>
      </trkpt>
      <trkpt lat="43.77646" lon="3.82953">
        <ele>413.3</ele>
        <time>2026-05-21T12:36:10.000Z</time>
      </trkpt>
      <trkpt lat="43.77646" lon="3.82953">
        <ele>413.5</ele>
        <time>2026-05-21T12:36:11.000Z</time>
      </trkpt>
      <trkpt lat="43.77646" lon="3.82953">
        <ele>413.8</ele>
        <time>2026-05-21T12:36:12.000Z</time>
      </trkpt>
      <trkpt lat="43.77646" lon="3.82953">
        <ele>414</ele>
        <time>2026-05-21T12:36:13.000Z</time>
      </trkpt>
      <trkpt lat="43.77646" lon="3.82953">
        <ele>413.9</ele>
        <time>2026-05-21T12:36:14.000Z</time>
      </trkpt>
      <trkpt lat="43.77646" lon="3.82953">
        <ele>413.9</ele>
        <time>2026-05-21T12:36:15.000Z</time>
      </trkpt>
      <trkpt lat="43.77646" lon="3.82953">
        <ele>414.1</ele>
        <time>2026-05-21T12:36:16.000Z</time>
      </trkpt>
      <trkpt lat="43.77646" lon="3.82953">
        <ele>414.2</ele>
        <time>2026-05-21T12:36:17.000Z</time>
      </trkpt>
      <trkpt lat="43.77646" lon="3.82953">
        <ele>414.3</ele>
        <time>2026-05-21T12:36:18.000Z</time>
      </trkpt>
      <trkpt lat="43.77646" lon="3.82953">
        <ele>414.5</ele>
        <time>2026-05-21T12:36:19.000Z</time>
      </trkpt>
      <trkpt lat="43.77646" lon="3.82953">
        <ele>414.6</ele>
        <time>2026-05-21T12:36:20.000Z</time>
      </trkpt>
      <trkpt lat="43.77646" lon="3.82953">
        <ele>415</ele>
        <time>2026-05-21T12:36:21.000Z</time>
      </trkpt>
      <trkpt lat="43.77646" lon="3.82953">
        <ele>415.3</ele>
        <time>2026-05-21T12:36:22.000Z</time>
      </trkpt>
      <trkpt lat="43.77646" lon="3.82953">
        <ele>415.2</ele>
        <time>2026-05-21T12:36:23.000Z</time>
      </trkpt>
      <trkpt lat="43.77646" lon="3.82953">
        <ele>415.4</ele>
        <time>2026-05-21T12:36:24.000Z</time>
      </trkpt>
      <trkpt lat="43.77646" lon="3.82953">
        <ele>415.3</ele>
        <time>2026-05-21T12:36:25.000Z</time>
      </trkpt>
      <trkpt lat="43.77646" lon="3.82953">
        <ele>415.4</ele>
        <time>2026-05-21T12:36:26.000Z</time>
      </trkpt>
      <trkpt lat="43.77646" lon="3.82953">
        <ele>415.5</ele>
        <time>2026-05-21T12:36:27.000Z</time>
      </trkpt>
      <trkpt lat="43.77646" lon="3.82953">
        <ele>415.6</ele>
        <time>2026-05-21T12:36:28.000Z</time>
      </trkpt>
      <trkpt lat="43.77646" lon="3.82953">
        <ele>415.6</ele>
        <time>2026-05-21T12:36:29.000Z</time>
      </trkpt>
      <trkpt lat="43.77646" lon="3.82953">
        <ele>415.7</ele>
        <time>2026-05-21T12:36:30.000Z</time>
      </trkpt>
      <trkpt lat="43.77646" lon="3.82953">
        <ele>415.7</ele>
        <time>2026-05-21T12:36:31.000Z</time>
      </trkpt>
      <trkpt lat="43.77646" lon="3.82953">
        <ele>415.8</ele>
        <time>2026-05-21T12:36:32.000Z</time>
      </trkpt>
      <trkpt lat="43.77646" lon="3.82953">
        <ele>415.8</ele>
        <time>2026-05-21T12:36:33.000Z</time>
      </trkpt>
      <trkpt lat="43.77646" lon="3.82953">
        <ele>415.8</ele>
        <time>2026-05-21T12:36:34.000Z</time>
      </trkpt>
      <trkpt lat="43.77646" lon="3.82953">
        <ele>415.7</ele>
        <time>2026-05-21T12:36:35.000Z</time>
      </trkpt>
      <trkpt lat="43.77646" lon="3.82953">
        <ele>415.6</ele>
        <time>2026-05-21T12:36:36.000Z</time>
      </trkpt>
      <trkpt lat="43.77646" lon="3.82953">
        <ele>415.5</ele>
        <time>2026-05-21T12:36:37.000Z</time>
      </trkpt>
      <trkpt lat="43.77646" lon="3.82953">
        <ele>415.3</ele>
        <time>2026-05-21T12:36:38.000Z</time>
      </trkpt>
      <trkpt lat="43.77646" lon="3.82953">
        <ele>415.1</ele>
        <time>2026-05-21T12:36:39.000Z</time>
      </trkpt>
      <trkpt lat="43.77646" lon="3.82953">
        <ele>415</ele>
        <time>2026-05-21T12:36:40.000Z</time>
      </trkpt>
      <trkpt lat="43.77646" lon="3.82953">
        <ele>414.8</ele>
        <time>2026-05-21T12:36:41.000Z</time>
      </trkpt>
      <trkpt lat="43.77646" lon="3.82953">
        <ele>414.7</ele>
        <time>2026-05-21T12:36:42.000Z</time>
      </trkpt>
      <trkpt lat="43.77646" lon="3.82953">
        <ele>414.7</ele>
        <time>2026-05-21T12:36:43.000Z</time>
      </trkpt>
      <trkpt lat="43.77646" lon="3.82953">
        <ele>414.8</ele>
        <time>2026-05-21T12:36:44.000Z</time>
      </trkpt>
      <trkpt lat="43.77646" lon="3.82953">
        <ele>415</ele>
        <time>2026-05-21T12:36:45.000Z</time>
      </trkpt>
      <trkpt lat="43.77646" lon="3.82953">
        <ele>415.2</ele>
        <time>2026-05-21T12:36:46.000Z</time>
      </trkpt>
      <trkpt lat="43.77646" lon="3.82954">
        <ele>415.4</ele>
        <time>2026-05-21T12:36:47.000Z</time>
      </trkpt>
      <trkpt lat="43.77646" lon="3.82954">
        <ele>415.6</ele>
        <time>2026-05-21T12:36:48.000Z</time>
      </trkpt>
      <trkpt lat="43.77646" lon="3.82954">
        <ele>415.8</ele>
        <time>2026-05-21T12:36:49.000Z</time>
      </trkpt>
      <trkpt lat="43.77646" lon="3.82954">
        <ele>416</ele>
        <time>2026-05-21T12:36:50.000Z</time>
      </trkpt>
      <trkpt lat="43.77646" lon="3.82954">
        <ele>416.2</ele>
        <time>2026-05-21T12:36:51.000Z</time>
      </trkpt>
      <trkpt lat="43.77646" lon="3.82954">
        <ele>416.3</ele>
        <time>2026-05-21T12:36:52.000Z</time>
      </trkpt>
      <trkpt lat="43.77646" lon="3.82954">
        <ele>416.3</ele>
        <time>2026-05-21T12:36:53.000Z</time>
      </trkpt>
      <trkpt lat="43.77646" lon="3.82954">
        <ele>416.2</ele>
        <time>2026-05-21T12:36:54.000Z</time>
      </trkpt>
      <trkpt lat="43.77646" lon="3.82954">
        <ele>416.1</ele>
        <time>2026-05-21T12:36:55.000Z</time>
      </trkpt>
      <trkpt lat="43.77646" lon="3.82954">
        <ele>416</ele>
        <time>2026-05-21T12:36:56.000Z</time>
      </trkpt>
      <trkpt lat="43.77646" lon="3.82954">
        <ele>416</ele>
        <time>2026-05-21T12:36:57.000Z</time>
      </trkpt>
      <trkpt lat="43.77646" lon="3.82954">
        <ele>416</ele>
        <time>2026-05-21T12:36:58.000Z</time>
      </trkpt>
      <trkpt lat="43.77646" lon="3.82954">
        <ele>416</ele>
        <time>2026-05-21T12:36:59.000Z</time>
      </trkpt>
      <trkpt lat="43.77646" lon="3.82954">
        <ele>416</ele>
        <time>2026-05-21T12:37:00.000Z</time>
      </trkpt>
      <trkpt lat="43.77646" lon="3.82954">
        <ele>415.9</ele>
        <time>2026-05-21T12:37:01.000Z</time>
      </trkpt>
      <trkpt lat="43.77645" lon="3.82954">
        <ele>415.9</ele>
        <time>2026-05-21T12:37:02.000Z</time>
      </trkpt>
      <trkpt lat="43.77646" lon="3.82954">
        <ele>415.7</ele>
        <time>2026-05-21T12:37:03.000Z</time>
      </trkpt>
      <trkpt lat="43.77646" lon="3.82954">
        <ele>415.5</ele>
        <time>2026-05-21T12:37:04.000Z</time>
      </trkpt>
      <trkpt lat="43.77646" lon="3.82954">
        <ele>415.5</ele>
        <time>2026-05-21T12:37:05.000Z</time>
      </trkpt>
      <trkpt lat="43.77645" lon="3.82954">
        <ele>415.5</ele>
        <time>2026-05-21T12:37:06.000Z</time>
      </trkpt>
      <trkpt lat="43.77646" lon="3.82954">
        <ele>415.6</ele>
        <time>2026-05-21T12:37:07.000Z</time>
      </trkpt>
      <trkpt lat="43.77645" lon="3.82954">
        <ele>415.6</ele>
        <time>2026-05-21T12:37:08.000Z</time>
      </trkpt>
      <trkpt lat="43.77645" lon="3.82954">
        <ele>415.7</ele>
        <time>2026-05-21T12:37:09.000Z</time>
      </trkpt>
      <trkpt lat="43.77645" lon="3.82954">
        <ele>415.7</ele>
        <time>2026-05-21T12:37:10.000Z</time>
      </trkpt>
      <trkpt lat="43.77645" lon="3.82954">
        <ele>415.7</ele>
        <time>2026-05-21T12:37:11.000Z</time>
      </trkpt>
      <trkpt lat="43.77645" lon="3.82954">
        <ele>415.6</ele>
        <time>2026-05-21T12:37:12.000Z</time>
      </trkpt>
      <trkpt lat="43.77645" lon="3.82954">
        <ele>415.4</ele>
        <time>2026-05-21T12:37:13.000Z</time>
      </trkpt>
      <trkpt lat="43.77645" lon="3.82953">
        <ele>415.3</ele>
        <time>2026-05-21T12:37:14.000Z</time>
      </trkpt>
      <trkpt lat="43.77645" lon="3.82953">
        <ele>415.3</ele>
        <time>2026-05-21T12:37:15.000Z</time>
      </trkpt>
      <trkpt lat="43.77645" lon="3.82953">
        <ele>415.4</ele>
        <time>2026-05-21T12:37:16.000Z</time>
      </trkpt>
      <trkpt lat="43.77645" lon="3.82953">
        <ele>415.5</ele>
        <time>2026-05-21T12:37:17.000Z</time>
      </trkpt>
      <trkpt lat="43.77646" lon="3.82953">
        <ele>415.8</ele>
        <time>2026-05-21T12:37:18.000Z</time>
      </trkpt>
      <trkpt lat="43.77646" lon="3.82953">
        <ele>415.9</ele>
        <time>2026-05-21T12:37:19.000Z</time>
      </trkpt>
      <trkpt lat="43.77646" lon="3.82953">
        <ele>415.9</ele>
        <time>2026-05-21T12:37:20.000Z</time>
      </trkpt>
      <trkpt lat="43.77645" lon="3.82953">
        <ele>415.8</ele>
        <time>2026-05-21T12:37:21.000Z</time>
      </trkpt>
      <trkpt lat="43.77646" lon="3.82953">
        <ele>415.7</ele>
        <time>2026-05-21T12:37:22.000Z</time>
      </trkpt>
      <trkpt lat="43.77646" lon="3.82953">
        <ele>415.7</ele>
        <time>2026-05-21T12:37:23.000Z</time>
      </trkpt>
      <trkpt lat="43.77646" lon="3.82953">
        <ele>415.8</ele>
        <time>2026-05-21T12:37:24.000Z</time>
      </trkpt>
      <trkpt lat="43.77645" lon="3.82953">
        <ele>416</ele>
        <time>2026-05-21T12:37:25.000Z</time>
      </trkpt>
      <trkpt lat="43.77645" lon="3.82953">
        <ele>416.2</ele>
        <time>2026-05-21T12:37:26.000Z</time>
      </trkpt>
      <trkpt lat="43.77645" lon="3.82953">
        <ele>416.2</ele>
        <time>2026-05-21T12:37:27.000Z</time>
      </trkpt>
      <trkpt lat="43.77645" lon="3.82953">
        <ele>416.4</ele>
        <time>2026-05-21T12:37:28.000Z</time>
      </trkpt>
      <trkpt lat="43.77645" lon="3.82953">
        <ele>416.5</ele>
        <time>2026-05-21T12:37:29.000Z</time>
      </trkpt>
      <trkpt lat="43.77645" lon="3.82953">
        <ele>416.6</ele>
        <time>2026-05-21T12:37:30.000Z</time>
      </trkpt>
      <trkpt lat="43.77645" lon="3.82953">
        <ele>416.7</ele>
        <time>2026-05-21T12:37:31.000Z</time>
      </trkpt>
      <trkpt lat="43.77645" lon="3.82953">
        <ele>416.8</ele>
        <time>2026-05-21T12:37:32.000Z</time>
      </trkpt>
      <trkpt lat="43.77645" lon="3.82953">
        <ele>416.9</ele>
        <time>2026-05-21T12:37:33.000Z</time>
      </trkpt>
      <trkpt lat="43.77645" lon="3.82953">
        <ele>416.8</ele>
        <time>2026-05-21T12:37:34.000Z</time>
      </trkpt>
      <trkpt lat="43.77645" lon="3.82953">
        <ele>416.7</ele>
        <time>2026-05-21T12:37:35.000Z</time>
      </trkpt>
      <trkpt lat="43.77645" lon="3.82953">
        <ele>416.6</ele>
        <time>2026-05-21T12:37:36.000Z</time>
      </trkpt>
      <trkpt lat="43.77645" lon="3.82953">
        <ele>416.6</ele>
        <time>2026-05-21T12:37:37.000Z</time>
      </trkpt>
      <trkpt lat="43.77645" lon="3.82953">
        <ele>416.5</ele>
        <time>2026-05-21T12:37:38.000Z</time>
      </trkpt>
      <trkpt lat="43.77645" lon="3.82953">
        <ele>416.5</ele>
        <time>2026-05-21T12:37:39.000Z</time>
      </trkpt>
      <trkpt lat="43.77645" lon="3.82952">
        <ele>416.5</ele>
        <time>2026-05-21T12:37:40.000Z</time>
      </trkpt>
      <trkpt lat="43.77645" lon="3.82952">
        <ele>416.5</ele>
        <time>2026-05-21T12:37:41.000Z</time>
      </trkpt>
      <trkpt lat="43.77645" lon="3.82952">
        <ele>416.6</ele>
        <time>2026-05-21T12:37:42.000Z</time>
      </trkpt>
      <trkpt lat="43.77646" lon="3.82952">
        <ele>417.1</ele>
        <time>2026-05-21T12:37:44.000Z</time>
      </trkpt>
      <trkpt lat="43.77646" lon="3.82952">
        <ele>417.5</ele>
        <time>2026-05-21T12:37:45.000Z</time>
      </trkpt>
      <trkpt lat="43.77646" lon="3.82952">
        <ele>417.5</ele>
        <time>2026-05-21T12:37:46.000Z</time>
      </trkpt>
      <trkpt lat="43.77646" lon="3.82952">
        <ele>417.6</ele>
        <time>2026-05-21T12:37:47.000Z</time>
      </trkpt>
      <trkpt lat="43.77646" lon="3.82953">
        <ele>417.5</ele>
        <time>2026-05-21T12:37:48.000Z</time>
      </trkpt>
      <trkpt lat="43.77646" lon="3.82953">
        <ele>417.4</ele>
        <time>2026-05-21T12:37:49.000Z</time>
      </trkpt>
      <trkpt lat="43.77646" lon="3.82953">
        <ele>417.3</ele>
        <time>2026-05-21T12:37:50.000Z</time>
      </trkpt>
      <trkpt lat="43.77646" lon="3.82953">
        <ele>417.2</ele>
        <time>2026-05-21T12:37:51.000Z</time>
      </trkpt>
      <trkpt lat="43.77646" lon="3.82953">
        <ele>417.3</ele>
        <time>2026-05-21T12:37:52.000Z</time>
      </trkpt>
      <trkpt lat="43.77646" lon="3.82953">
        <ele>417.3</ele>
        <time>2026-05-21T12:37:53.000Z</time>
      </trkpt>
      <trkpt lat="43.77646" lon="3.82953">
        <ele>417.5</ele>
        <time>2026-05-21T12:37:54.000Z</time>
      </trkpt>
      <trkpt lat="43.77646" lon="3.82953">
        <ele>417.6</ele>
        <time>2026-05-21T12:37:55.000Z</time>
      </trkpt>
      <trkpt lat="43.77646" lon="3.82953">
        <ele>417.6</ele>
        <time>2026-05-21T12:37:56.000Z</time>
      </trkpt>
      <trkpt lat="43.77646" lon="3.82953">
        <ele>417.7</ele>
        <time>2026-05-21T12:37:57.000Z</time>
      </trkpt>
      <trkpt lat="43.77646" lon="3.82953">
        <ele>417.8</ele>
        <time>2026-05-21T12:37:58.000Z</time>
      </trkpt>
      <trkpt lat="43.77646" lon="3.82953">
        <ele>417.6</ele>
        <time>2026-05-21T12:37:59.000Z</time>
      </trkpt>
      <trkpt lat="43.77646" lon="3.82953">
        <ele>417.7</ele>
        <time>2026-05-21T12:38:00.000Z</time>
      </trkpt>
      <trkpt lat="43.77646" lon="3.82953">
        <ele>417.7</ele>
        <time>2026-05-21T12:38:01.000Z</time>
      </trkpt>
      <trkpt lat="43.77646" lon="3.82953">
        <ele>417.9</ele>
        <time>2026-05-21T12:38:02.000Z</time>
      </trkpt>
      <trkpt lat="43.77646" lon="3.82953">
        <ele>418.1</ele>
        <time>2026-05-21T12:38:03.000Z</time>
      </trkpt>
      <trkpt lat="43.77646" lon="3.82953">
        <ele>418.1</ele>
        <time>2026-05-21T12:38:04.000Z</time>
      </trkpt>
      <trkpt lat="43.77646" lon="3.82953">
        <ele>418.1</ele>
        <time>2026-05-21T12:38:05.000Z</time>
      </trkpt>
      <trkpt lat="43.77646" lon="3.82953">
        <ele>418.2</ele>
        <time>2026-05-21T12:38:06.000Z</time>
      </trkpt>
      <trkpt lat="43.77646" lon="3.82953">
        <ele>418.2</ele>
        <time>2026-05-21T12:38:07.000Z</time>
      </trkpt>
      <trkpt lat="43.77646" lon="3.82953">
        <ele>418.1</ele>
        <time>2026-05-21T12:38:08.000Z</time>
      </trkpt>
      <trkpt lat="43.77646" lon="3.82953">
        <ele>418.2</ele>
        <time>2026-05-21T12:38:09.000Z</time>
      </trkpt>
      <trkpt lat="43.77646" lon="3.82953">
        <ele>418.3</ele>
        <time>2026-05-21T12:38:10.000Z</time>
      </trkpt>
      <trkpt lat="43.77646" lon="3.82953">
        <ele>418.4</ele>
        <time>2026-05-21T12:38:11.000Z</time>
      </trkpt>
      <trkpt lat="43.77646" lon="3.82953">
        <ele>418.4</ele>
        <time>2026-05-21T12:38:12.000Z</time>
      </trkpt>
      <trkpt lat="43.77646" lon="3.82953">
        <ele>418.3</ele>
        <time>2026-05-21T12:38:13.000Z</time>
      </trkpt>
      <trkpt lat="43.77646" lon="3.82953">
        <ele>418.3</ele>
        <time>2026-05-21T12:38:14.000Z</time>
      </trkpt>
      <trkpt lat="43.77646" lon="3.82953">
        <ele>418.3</ele>
        <time>2026-05-21T12:38:15.000Z</time>
      </trkpt>
      <trkpt lat="43.77646" lon="3.82953">
        <ele>418.1</ele>
        <time>2026-05-21T12:38:16.000Z</time>
      </trkpt>
      <trkpt lat="43.77646" lon="3.82953">
        <ele>418</ele>
        <time>2026-05-21T12:38:17.000Z</time>
      </trkpt>
      <trkpt lat="43.77646" lon="3.82953">
        <ele>417.7</ele>
        <time>2026-05-21T12:38:18.000Z</time>
      </trkpt>
      <trkpt lat="43.77646" lon="3.82953">
        <ele>417</ele>
        <time>2026-05-21T12:38:19.000Z</time>
      </trkpt>
      <trkpt lat="43.77646" lon="3.82953">
        <ele>416.6</ele>
        <time>2026-05-21T12:38:20.000Z</time>
      </trkpt>
      <trkpt lat="43.77646" lon="3.82953">
        <ele>416.9</ele>
        <time>2026-05-21T12:38:21.000Z</time>
      </trkpt>
      <trkpt lat="43.77646" lon="3.82953">
        <ele>417</ele>
        <time>2026-05-21T12:38:22.000Z</time>
      </trkpt>
      <trkpt lat="43.77646" lon="3.82953">
        <ele>417.2</ele>
        <time>2026-05-21T12:38:23.000Z</time>
      </trkpt>
      <trkpt lat="43.77646" lon="3.82953">
        <ele>417.5</ele>
        <time>2026-05-21T12:38:24.000Z</time>
      </trkpt>
      <trkpt lat="43.77646" lon="3.82953">
        <ele>417.1</ele>
        <time>2026-05-21T12:38:25.000Z</time>
      </trkpt>
      <trkpt lat="43.77646" lon="3.82953">
        <ele>417.3</ele>
        <time>2026-05-21T12:38:26.000Z</time>
      </trkpt>
      <trkpt lat="43.77646" lon="3.82953">
        <ele>417.3</ele>
        <time>2026-05-21T12:38:27.000Z</time>
      </trkpt>
      <trkpt lat="43.77646" lon="3.82953">
        <ele>417.4</ele>
        <time>2026-05-21T12:38:28.000Z</time>
      </trkpt>
      <trkpt lat="43.77646" lon="3.82953">
        <ele>417.6</ele>
        <time>2026-05-21T12:38:29.000Z</time>
      </trkpt>
      <trkpt lat="43.77646" lon="3.82953">
        <ele>417.4</ele>
        <time>2026-05-21T12:38:30.000Z</time>
      </trkpt>
      <trkpt lat="43.77646" lon="3.82953">
        <ele>417.3</ele>
        <time>2026-05-21T12:38:31.000Z</time>
      </trkpt>
      <trkpt lat="43.77646" lon="3.82954">
        <ele>417.1</ele>
        <time>2026-05-21T12:38:32.000Z</time>
      </trkpt>
      <trkpt lat="43.77646" lon="3.82953">
        <ele>416.3</ele>
        <time>2026-05-21T12:38:33.999Z</time>
      </trkpt>
      <trkpt lat="43.77646" lon="3.82953">
        <ele>416.1</ele>
        <time>2026-05-21T12:38:34.999Z</time>
      </trkpt>
      <trkpt lat="43.77646" lon="3.82953">
        <ele>416</ele>
        <time>2026-05-21T12:38:35.999Z</time>
      </trkpt>
      <trkpt lat="43.77646" lon="3.82953">
        <ele>415.7</ele>
        <time>2026-05-21T12:38:36.999Z</time>
      </trkpt>
      <trkpt lat="43.77646" lon="3.82953">
        <ele>415.5</ele>
        <time>2026-05-21T12:38:37.999Z</time>
      </trkpt>
      <trkpt lat="43.77646" lon="3.82953">
        <ele>415.3</ele>
        <time>2026-05-21T12:38:38.999Z</time>
      </trkpt>
      <trkpt lat="43.77646" lon="3.82953">
        <ele>415.2</ele>
        <time>2026-05-21T12:38:39.999Z</time>
      </trkpt>
      <trkpt lat="43.77646" lon="3.82953">
        <ele>415</ele>
        <time>2026-05-21T12:38:40.999Z</time>
      </trkpt>
      <trkpt lat="43.77646" lon="3.82953">
        <ele>414.9</ele>
        <time>2026-05-21T12:38:41.999Z</time>
      </trkpt>
      <trkpt lat="43.77646" lon="3.82953">
        <ele>415</ele>
        <time>2026-05-21T12:38:42.999Z</time>
      </trkpt>
      <trkpt lat="43.77646" lon="3.82953">
        <ele>415.2</ele>
        <time>2026-05-21T12:38:43.999Z</time>
      </trkpt>
      <trkpt lat="43.77646" lon="3.82953">
        <ele>415.2</ele>
        <time>2026-05-21T12:38:44.999Z</time>
      </trkpt>
      <trkpt lat="43.77646" lon="3.82953">
        <ele>415.2</ele>
        <time>2026-05-21T12:38:45.999Z</time>
      </trkpt>
      <trkpt lat="43.77646" lon="3.82953">
        <ele>415.4</ele>
        <time>2026-05-21T12:38:46.999Z</time>
      </trkpt>
      <trkpt lat="43.77646" lon="3.82953">
        <ele>415.6</ele>
        <time>2026-05-21T12:38:47.999Z</time>
      </trkpt>
      <trkpt lat="43.77646" lon="3.82953">
        <ele>415.7</ele>
        <time>2026-05-21T12:38:48.999Z</time>
      </trkpt>
      <trkpt lat="43.77646" lon="3.82953">
        <ele>415.8</ele>
        <time>2026-05-21T12:38:49.999Z</time>
      </trkpt>
      <trkpt lat="43.77646" lon="3.82953">
        <ele>415.6</ele>
        <time>2026-05-21T12:38:50.999Z</time>
      </trkpt>
      <trkpt lat="43.77646" lon="3.82953">
        <ele>415.5</ele>
        <time>2026-05-21T12:38:51.999Z</time>
      </trkpt>
      <trkpt lat="43.77646" lon="3.82953">
        <ele>415.4</ele>
        <time>2026-05-21T12:38:52.999Z</time>
      </trkpt>
      <trkpt lat="43.77646" lon="3.82953">
        <ele>415.4</ele>
        <time>2026-05-21T12:38:53.999Z</time>
      </trkpt>
      <trkpt lat="43.77646" lon="3.82953">
        <ele>415.6</ele>
        <time>2026-05-21T12:38:54.999Z</time>
      </trkpt>
      <trkpt lat="43.77646" lon="3.82953">
        <ele>415.9</ele>
        <time>2026-05-21T12:38:55.999Z</time>
      </trkpt>
      <trkpt lat="43.77646" lon="3.82953">
        <ele>416.2</ele>
        <time>2026-05-21T12:38:56.999Z</time>
      </trkpt>
      <trkpt lat="43.77646" lon="3.82953">
        <ele>416.4</ele>
        <time>2026-05-21T12:38:57.999Z</time>
      </trkpt>
      <trkpt lat="43.77646" lon="3.82953">
        <ele>416.6</ele>
        <time>2026-05-21T12:38:58.999Z</time>
      </trkpt>
      <trkpt lat="43.77646" lon="3.82953">
        <ele>416.8</ele>
        <time>2026-05-21T12:38:59.999Z</time>
      </trkpt>
      <trkpt lat="43.77646" lon="3.82953">
        <ele>417</ele>
        <time>2026-05-21T12:39:00.999Z</time>
      </trkpt>
      <trkpt lat="43.77646" lon="3.82953">
        <ele>417.3</ele>
        <time>2026-05-21T12:39:01.999Z</time>
      </trkpt>
      <trkpt lat="43.77646" lon="3.82953">
        <ele>417.4</ele>
        <time>2026-05-21T12:39:02.999Z</time>
      </trkpt>
      <trkpt lat="43.77646" lon="3.82953">
        <ele>417.5</ele>
        <time>2026-05-21T12:39:03.999Z</time>
      </trkpt>
      <trkpt lat="43.77647" lon="3.82952">
        <ele>417.6</ele>
        <time>2026-05-21T12:39:04.999Z</time>
      </trkpt>
      <trkpt lat="43.77647" lon="3.82952">
        <ele>417.8</ele>
        <time>2026-05-21T12:39:05.999Z</time>
      </trkpt>
      <trkpt lat="43.77647" lon="3.82952">
        <ele>417.9</ele>
        <time>2026-05-21T12:39:06.999Z</time>
      </trkpt>
      <trkpt lat="43.77647" lon="3.82952">
        <ele>418.1</ele>
        <time>2026-05-21T12:39:07.999Z</time>
      </trkpt>
      <trkpt lat="43.77647" lon="3.82952">
        <ele>418.1</ele>
        <time>2026-05-21T12:39:08.999Z</time>
      </trkpt>
      <trkpt lat="43.77647" lon="3.82952">
        <ele>417.9</ele>
        <time>2026-05-21T12:39:09.999Z</time>
      </trkpt>
      <trkpt lat="43.77647" lon="3.82952">
        <ele>417.8</ele>
        <time>2026-05-21T12:39:10.999Z</time>
      </trkpt>
      <trkpt lat="43.77647" lon="3.82952">
        <ele>417.5</ele>
        <time>2026-05-21T12:39:11.999Z</time>
      </trkpt>
      <trkpt lat="43.77647" lon="3.82952">
        <ele>417.4</ele>
        <time>2026-05-21T12:39:12.999Z</time>
      </trkpt>
      <trkpt lat="43.77647" lon="3.82953">
        <ele>417.4</ele>
        <time>2026-05-21T12:39:13.999Z</time>
      </trkpt>
      <trkpt lat="43.77647" lon="3.82954">
        <ele>417.3</ele>
        <time>2026-05-21T12:39:14.999Z</time>
      </trkpt>
      <trkpt lat="43.77649" lon="3.82955">
        <ele>417.1</ele>
        <time>2026-05-21T12:39:15.999Z</time>
      </trkpt>
      <trkpt lat="43.77649" lon="3.82955">
        <ele>417.1</ele>
        <time>2026-05-21T12:39:16.999Z</time>
      </trkpt>
      <trkpt lat="43.77649" lon="3.82955">
        <ele>417.1</ele>
        <time>2026-05-21T12:39:17.999Z</time>
      </trkpt>
      <trkpt lat="43.77649" lon="3.82955">
        <ele>417.1</ele>
        <time>2026-05-21T12:39:18.999Z</time>
      </trkpt>
      <trkpt lat="43.77649" lon="3.82955">
        <ele>417.2</ele>
        <time>2026-05-21T12:39:19.999Z</time>
      </trkpt>
      <trkpt lat="43.77649" lon="3.82955">
        <ele>417.3</ele>
        <time>2026-05-21T12:39:20.999Z</time>
      </trkpt>
      <trkpt lat="43.77649" lon="3.82955">
        <ele>417.4</ele>
        <time>2026-05-21T12:39:21.999Z</time>
      </trkpt>
      <trkpt lat="43.77649" lon="3.82955">
        <ele>417.7</ele>
        <time>2026-05-21T12:39:22.999Z</time>
      </trkpt>
      <trkpt lat="43.77648" lon="3.82955">
        <ele>417.8</ele>
        <time>2026-05-21T12:39:23.999Z</time>
      </trkpt>
      <trkpt lat="43.77648" lon="3.82954">
        <ele>417.8</ele>
        <time>2026-05-21T12:39:24.999Z</time>
      </trkpt>
      <trkpt lat="43.77647" lon="3.82954">
        <ele>417.9</ele>
        <time>2026-05-21T12:39:25.999Z</time>
      </trkpt>
      <trkpt lat="43.77647" lon="3.82954">
        <ele>417.4</ele>
        <time>2026-05-21T12:39:27.999Z</time>
      </trkpt>
      <trkpt lat="43.77647" lon="3.82953">
        <ele>417.5</ele>
        <time>2026-05-21T12:39:28.999Z</time>
      </trkpt>
      <trkpt lat="43.77647" lon="3.82953">
        <ele>416.9</ele>
        <time>2026-05-21T12:39:29.999Z</time>
      </trkpt>
      <trkpt lat="43.77647" lon="3.82953">
        <ele>416.5</ele>
        <time>2026-05-21T12:39:30.999Z</time>
      </trkpt>
      <trkpt lat="43.77647" lon="3.82953">
        <ele>416.4</ele>
        <time>2026-05-21T12:39:31.999Z</time>
      </trkpt>
      <trkpt lat="43.77647" lon="3.82953">
        <ele>416.1</ele>
        <time>2026-05-21T12:39:32.999Z</time>
      </trkpt>
      <trkpt lat="43.77647" lon="3.82953">
        <ele>415.9</ele>
        <time>2026-05-21T12:39:33.999Z</time>
      </trkpt>
      <trkpt lat="43.77647" lon="3.82953">
        <ele>415.8</ele>
        <time>2026-05-21T12:39:34.999Z</time>
      </trkpt>
      <trkpt lat="43.77647" lon="3.82953">
        <ele>416</ele>
        <time>2026-05-21T12:39:35.999Z</time>
      </trkpt>
      <trkpt lat="43.77647" lon="3.82953">
        <ele>416.1</ele>
        <time>2026-05-21T12:39:36.999Z</time>
      </trkpt>
      <trkpt lat="43.77647" lon="3.82953">
        <ele>416.2</ele>
        <time>2026-05-21T12:39:37.999Z</time>
      </trkpt>
      <trkpt lat="43.77647" lon="3.82953">
        <ele>416.3</ele>
        <time>2026-05-21T12:39:38.999Z</time>
      </trkpt>
      <trkpt lat="43.77647" lon="3.82953">
        <ele>416.4</ele>
        <time>2026-05-21T12:39:39.999Z</time>
      </trkpt>
      <trkpt lat="43.77647" lon="3.82953">
        <ele>416.5</ele>
        <time>2026-05-21T12:39:40.999Z</time>
      </trkpt>
      <trkpt lat="43.77647" lon="3.82953">
        <ele>416.5</ele>
        <time>2026-05-21T12:39:41.999Z</time>
      </trkpt>
      <trkpt lat="43.77647" lon="3.82953">
        <ele>416.5</ele>
        <time>2026-05-21T12:39:42.999Z</time>
      </trkpt>
      <trkpt lat="43.77647" lon="3.82953">
        <ele>416.4</ele>
        <time>2026-05-21T12:39:43.999Z</time>
      </trkpt>
      <trkpt lat="43.77647" lon="3.82953">
        <ele>416.5</ele>
        <time>2026-05-21T12:39:44.999Z</time>
      </trkpt>
      <trkpt lat="43.77647" lon="3.82953">
        <ele>416.7</ele>
        <time>2026-05-21T12:39:45.999Z</time>
      </trkpt>
      <trkpt lat="43.77647" lon="3.82953">
        <ele>416.8</ele>
        <time>2026-05-21T12:39:46.999Z</time>
      </trkpt>
      <trkpt lat="43.77647" lon="3.82953">
        <ele>417.1</ele>
        <time>2026-05-21T12:39:47.999Z</time>
      </trkpt>
      <trkpt lat="43.77647" lon="3.82953">
        <ele>417.3</ele>
        <time>2026-05-21T12:39:48.999Z</time>
      </trkpt>
      <trkpt lat="43.77647" lon="3.82953">
        <ele>417.6</ele>
        <time>2026-05-21T12:39:49.999Z</time>
      </trkpt>
      <trkpt lat="43.77647" lon="3.82953">
        <ele>417.8</ele>
        <time>2026-05-21T12:39:50.999Z</time>
      </trkpt>
      <trkpt lat="43.77647" lon="3.82953">
        <ele>418</ele>
        <time>2026-05-21T12:39:51.999Z</time>
      </trkpt>
      <trkpt lat="43.77647" lon="3.82953">
        <ele>418.2</ele>
        <time>2026-05-21T12:39:52.999Z</time>
      </trkpt>
      <trkpt lat="43.77647" lon="3.82953">
        <ele>418.3</ele>
        <time>2026-05-21T12:39:53.999Z</time>
      </trkpt>
      <trkpt lat="43.77647" lon="3.82953">
        <ele>418.5</ele>
        <time>2026-05-21T12:39:54.999Z</time>
      </trkpt>
      <trkpt lat="43.77647" lon="3.82953">
        <ele>418.7</ele>
        <time>2026-05-21T12:39:55.999Z</time>
      </trkpt>
      <trkpt lat="43.77647" lon="3.82953">
        <ele>418.9</ele>
        <time>2026-05-21T12:39:56.999Z</time>
      </trkpt>
      <trkpt lat="43.77647" lon="3.82953">
        <ele>419</ele>
        <time>2026-05-21T12:39:57.999Z</time>
      </trkpt>
      <trkpt lat="43.77647" lon="3.82953">
        <ele>419.1</ele>
        <time>2026-05-21T12:39:58.999Z</time>
      </trkpt>
      <trkpt lat="43.77647" lon="3.82953">
        <ele>419.1</ele>
        <time>2026-05-21T12:39:59.999Z</time>
      </trkpt>
      <trkpt lat="43.77647" lon="3.82952">
        <ele>419</ele>
        <time>2026-05-21T12:40:00.999Z</time>
      </trkpt>
      <trkpt lat="43.77647" lon="3.82952">
        <ele>419.1</ele>
        <time>2026-05-21T12:40:01.999Z</time>
      </trkpt>
      <trkpt lat="43.77647" lon="3.82953">
        <ele>419.2</ele>
        <time>2026-05-21T12:40:02.999Z</time>
      </trkpt>
      <trkpt lat="43.77647" lon="3.82953">
        <ele>419.2</ele>
        <time>2026-05-21T12:40:03.999Z</time>
      </trkpt>
      <trkpt lat="43.77647" lon="3.82953">
        <ele>419.3</ele>
        <time>2026-05-21T12:40:04.999Z</time>
      </trkpt>
      <trkpt lat="43.77647" lon="3.82953">
        <ele>419.3</ele>
        <time>2026-05-21T12:40:05.999Z</time>
      </trkpt>
      <trkpt lat="43.77647" lon="3.82953">
        <ele>419.2</ele>
        <time>2026-05-21T12:40:06.999Z</time>
      </trkpt>
      <trkpt lat="43.77647" lon="3.82953">
        <ele>419</ele>
        <time>2026-05-21T12:40:07.999Z</time>
      </trkpt>
      <trkpt lat="43.77647" lon="3.82953">
        <ele>419.1</ele>
        <time>2026-05-21T12:40:08.999Z</time>
      </trkpt>
      <trkpt lat="43.77647" lon="3.82953">
        <ele>419</ele>
        <time>2026-05-21T12:40:09.999Z</time>
      </trkpt>
      <trkpt lat="43.77647" lon="3.82953">
        <ele>419</ele>
        <time>2026-05-21T12:40:10.999Z</time>
      </trkpt>
      <trkpt lat="43.77647" lon="3.82953">
        <ele>418.8</ele>
        <time>2026-05-21T12:40:11.999Z</time>
      </trkpt>
      <trkpt lat="43.77647" lon="3.82953">
        <ele>418.7</ele>
        <time>2026-05-21T12:40:12.999Z</time>
      </trkpt>
      <trkpt lat="43.77647" lon="3.82953">
        <ele>418.7</ele>
        <time>2026-05-21T12:40:13.999Z</time>
      </trkpt>
      <trkpt lat="43.77647" lon="3.82953">
        <ele>418.6</ele>
        <time>2026-05-21T12:40:14.999Z</time>
      </trkpt>
      <trkpt lat="43.77647" lon="3.82953">
        <ele>418.5</ele>
        <time>2026-05-21T12:40:15.999Z</time>
      </trkpt>
      <trkpt lat="43.77647" lon="3.82953">
        <ele>418.6</ele>
        <time>2026-05-21T12:40:16.999Z</time>
      </trkpt>
      <trkpt lat="43.77647" lon="3.82953">
        <ele>418.6</ele>
        <time>2026-05-21T12:40:17.999Z</time>
      </trkpt>
      <trkpt lat="43.77647" lon="3.82953">
        <ele>418.6</ele>
        <time>2026-05-21T12:40:18.999Z</time>
      </trkpt>
      <trkpt lat="43.77647" lon="3.82953">
        <ele>419</ele>
        <time>2026-05-21T12:40:19.999Z</time>
      </trkpt>
      <trkpt lat="43.77647" lon="3.82953">
        <ele>419.1</ele>
        <time>2026-05-21T12:40:20.999Z</time>
      </trkpt>
      <trkpt lat="43.77647" lon="3.82952">
        <ele>419.4</ele>
        <time>2026-05-21T12:40:21.999Z</time>
      </trkpt>
      <trkpt lat="43.77647" lon="3.82952">
        <ele>419.5</ele>
        <time>2026-05-21T12:40:22.999Z</time>
      </trkpt>
      <trkpt lat="43.77647" lon="3.82952">
        <ele>419.8</ele>
        <time>2026-05-21T12:40:23.999Z</time>
      </trkpt>
      <trkpt lat="43.77647" lon="3.82952">
        <ele>420</ele>
        <time>2026-05-21T12:40:24.999Z</time>
      </trkpt>
      <trkpt lat="43.77647" lon="3.82952">
        <ele>420</ele>
        <time>2026-05-21T12:40:25.999Z</time>
      </trkpt>
      <trkpt lat="43.77647" lon="3.82952">
        <ele>420.1</ele>
        <time>2026-05-21T12:40:26.999Z</time>
      </trkpt>
      <trkpt lat="43.77647" lon="3.82952">
        <ele>419.9</ele>
        <time>2026-05-21T12:40:27.999Z</time>
      </trkpt>
      <trkpt lat="43.77647" lon="3.82952">
        <ele>419.7</ele>
        <time>2026-05-21T12:40:28.999Z</time>
      </trkpt>
      <trkpt lat="43.77647" lon="3.82952">
        <ele>419.6</ele>
        <time>2026-05-21T12:40:29.999Z</time>
      </trkpt>
      <trkpt lat="43.77646" lon="3.82952">
        <ele>419.7</ele>
        <time>2026-05-21T12:40:30.999Z</time>
      </trkpt>
      <trkpt lat="43.77646" lon="3.82952">
        <ele>419.6</ele>
        <time>2026-05-21T12:40:31.999Z</time>
      </trkpt>
      <trkpt lat="43.77646" lon="3.82951">
        <ele>419.6</ele>
        <time>2026-05-21T12:40:32.999Z</time>
      </trkpt>
      <trkpt lat="43.77646" lon="3.82951">
        <ele>419.7</ele>
        <time>2026-05-21T12:40:33.999Z</time>
      </trkpt>
      <trkpt lat="43.77645" lon="3.82951">
        <ele>419.7</ele>
        <time>2026-05-21T12:40:34.999Z</time>
      </trkpt>
      <trkpt lat="43.77645" lon="3.82952">
        <ele>420</ele>
        <time>2026-05-21T12:40:35.999Z</time>
      </trkpt>
      <trkpt lat="43.77645" lon="3.82952">
        <ele>420.2</ele>
        <time>2026-05-21T12:40:36.999Z</time>
      </trkpt>
      <trkpt lat="43.77645" lon="3.82952">
        <ele>420.3</ele>
        <time>2026-05-21T12:40:37.999Z</time>
      </trkpt>
      <trkpt lat="43.77645" lon="3.82952">
        <ele>420.3</ele>
        <time>2026-05-21T12:40:38.999Z</time>
      </trkpt>
      <trkpt lat="43.77645" lon="3.82951">
        <ele>420.3</ele>
        <time>2026-05-21T12:40:39.999Z</time>
      </trkpt>
      <trkpt lat="43.77645" lon="3.82951">
        <ele>420.3</ele>
        <time>2026-05-21T12:40:40.999Z</time>
      </trkpt>
      <trkpt lat="43.77645" lon="3.82951">
        <ele>420.2</ele>
        <time>2026-05-21T12:40:41.999Z</time>
      </trkpt>
      <trkpt lat="43.77645" lon="3.82952">
        <ele>420.1</ele>
        <time>2026-05-21T12:40:42.999Z</time>
      </trkpt>
      <trkpt lat="43.77645" lon="3.82952">
        <ele>420.2</ele>
        <time>2026-05-21T12:40:43.999Z</time>
      </trkpt>
      <trkpt lat="43.77645" lon="3.82951">
        <ele>420.4</ele>
        <time>2026-05-21T12:40:44.999Z</time>
      </trkpt>
      <trkpt lat="43.77645" lon="3.82951">
        <ele>420.3</ele>
        <time>2026-05-21T12:40:45.999Z</time>
      </trkpt>
      <trkpt lat="43.77645" lon="3.82951">
        <ele>420.2</ele>
        <time>2026-05-21T12:40:46.999Z</time>
      </trkpt>
      <trkpt lat="43.77645" lon="3.82951">
        <ele>420.1</ele>
        <time>2026-05-21T12:40:47.999Z</time>
      </trkpt>
      <trkpt lat="43.77645" lon="3.82951">
        <ele>419.7</ele>
        <time>2026-05-21T12:40:48.999Z</time>
      </trkpt>
      <trkpt lat="43.77645" lon="3.82951">
        <ele>419.6</ele>
        <time>2026-05-21T12:40:49.999Z</time>
      </trkpt>
      <trkpt lat="43.77645" lon="3.82951">
        <ele>419.3</ele>
        <time>2026-05-21T12:40:50.999Z</time>
      </trkpt>
      <trkpt lat="43.77645" lon="3.82952">
        <ele>419.1</ele>
        <time>2026-05-21T12:40:51.999Z</time>
      </trkpt>
      <trkpt lat="43.77645" lon="3.82952">
        <ele>419.2</ele>
        <time>2026-05-21T12:40:52.999Z</time>
      </trkpt>
      <trkpt lat="43.77645" lon="3.82952">
        <ele>419.4</ele>
        <time>2026-05-21T12:40:53.999Z</time>
      </trkpt>
      <trkpt lat="43.77645" lon="3.82952">
        <ele>419.5</ele>
        <time>2026-05-21T12:40:54.999Z</time>
      </trkpt>
      <trkpt lat="43.77645" lon="3.82952">
        <ele>419.3</ele>
        <time>2026-05-21T12:40:55.999Z</time>
      </trkpt>
      <trkpt lat="43.77645" lon="3.82952">
        <ele>419.2</ele>
        <time>2026-05-21T12:40:56.999Z</time>
      </trkpt>
      <trkpt lat="43.77646" lon="3.82952">
        <ele>419.2</ele>
        <time>2026-05-21T12:40:57.999Z</time>
      </trkpt>
      <trkpt lat="43.77646" lon="3.82952">
        <ele>419.3</ele>
        <time>2026-05-21T12:40:58.999Z</time>
      </trkpt>
      <trkpt lat="43.77646" lon="3.82952">
        <ele>419.3</ele>
        <time>2026-05-21T12:40:59.999Z</time>
      </trkpt>
      <trkpt lat="43.77645" lon="3.82952">
        <ele>419.2</ele>
        <time>2026-05-21T12:41:00.999Z</time>
      </trkpt>
      <trkpt lat="43.77646" lon="3.82952">
        <ele>419.4</ele>
        <time>2026-05-21T12:41:01.999Z</time>
      </trkpt>
      <trkpt lat="43.77645" lon="3.82952">
        <ele>419.7</ele>
        <time>2026-05-21T12:41:02.999Z</time>
      </trkpt>
      <trkpt lat="43.77645" lon="3.82952">
        <ele>419.9</ele>
        <time>2026-05-21T12:41:03.999Z</time>
      </trkpt>
      <trkpt lat="43.77645" lon="3.82952">
        <ele>420</ele>
        <time>2026-05-21T12:41:04.999Z</time>
      </trkpt>
      <trkpt lat="43.77645" lon="3.82952">
        <ele>420.2</ele>
        <time>2026-05-21T12:41:05.999Z</time>
      </trkpt>
      <trkpt lat="43.77645" lon="3.82952">
        <ele>420.4</ele>
        <time>2026-05-21T12:41:06.999Z</time>
      </trkpt>
      <trkpt lat="43.77645" lon="3.82953">
        <ele>420.5</ele>
        <time>2026-05-21T12:41:07.999Z</time>
      </trkpt>
      <trkpt lat="43.77645" lon="3.82953">
        <ele>420.7</ele>
        <time>2026-05-21T12:41:08.999Z</time>
      </trkpt>
      <trkpt lat="43.77645" lon="3.82953">
        <ele>420.9</ele>
        <time>2026-05-21T12:41:09.999Z</time>
      </trkpt>
      <trkpt lat="43.77645" lon="3.82953">
        <ele>420.9</ele>
        <time>2026-05-21T12:41:10.999Z</time>
      </trkpt>
      <trkpt lat="43.77645" lon="3.82953">
        <ele>421.1</ele>
        <time>2026-05-21T12:41:11.999Z</time>
      </trkpt>
      <trkpt lat="43.77645" lon="3.82953">
        <ele>421.1</ele>
        <time>2026-05-21T12:41:12.999Z</time>
      </trkpt>
      <trkpt lat="43.77645" lon="3.82953">
        <ele>421.1</ele>
        <time>2026-05-21T12:41:13.999Z</time>
      </trkpt>
      <trkpt lat="43.77645" lon="3.82953">
        <ele>421.3</ele>
        <time>2026-05-21T12:41:14.999Z</time>
      </trkpt>
      <trkpt lat="43.77645" lon="3.82953">
        <ele>421.5</ele>
        <time>2026-05-21T12:41:15.999Z</time>
      </trkpt>
      <trkpt lat="43.77645" lon="3.82953">
        <ele>421.6</ele>
        <time>2026-05-21T12:41:17.999Z</time>
      </trkpt>
      <trkpt lat="43.77645" lon="3.82953">
        <ele>421.6</ele>
        <time>2026-05-21T12:41:18.999Z</time>
      </trkpt>
      <trkpt lat="43.77645" lon="3.82953">
        <ele>421.6</ele>
        <time>2026-05-21T12:41:19.999Z</time>
      </trkpt>
      <trkpt lat="43.77645" lon="3.82953">
        <ele>421.7</ele>
        <time>2026-05-21T12:41:20.999Z</time>
      </trkpt>
      <trkpt lat="43.77645" lon="3.82953">
        <ele>421.8</ele>
        <time>2026-05-21T12:41:21.999Z</time>
      </trkpt>
      <trkpt lat="43.77645" lon="3.82953">
        <ele>421.7</ele>
        <time>2026-05-21T12:41:22.999Z</time>
      </trkpt>
      <trkpt lat="43.77645" lon="3.82953">
        <ele>421.7</ele>
        <time>2026-05-21T12:41:23.999Z</time>
      </trkpt>
      <trkpt lat="43.77645" lon="3.82953">
        <ele>421.5</ele>
        <time>2026-05-21T12:41:25.999Z</time>
      </trkpt>
      <trkpt lat="43.77645" lon="3.82953">
        <ele>421.4</ele>
        <time>2026-05-21T12:41:26.999Z</time>
      </trkpt>
      <trkpt lat="43.77645" lon="3.82953">
        <ele>421.3</ele>
        <time>2026-05-21T12:41:27.999Z</time>
      </trkpt>
      <trkpt lat="43.77645" lon="3.82953">
        <ele>421.2</ele>
        <time>2026-05-21T12:41:28.999Z</time>
      </trkpt>
      <trkpt lat="43.77645" lon="3.82953">
        <ele>421.1</ele>
        <time>2026-05-21T12:41:29.999Z</time>
      </trkpt>
      <trkpt lat="43.77645" lon="3.82953">
        <ele>420.9</ele>
        <time>2026-05-21T12:41:30.999Z</time>
      </trkpt>
      <trkpt lat="43.77645" lon="3.82953">
        <ele>420.6</ele>
        <time>2026-05-21T12:41:31.999Z</time>
      </trkpt>
      <trkpt lat="43.77646" lon="3.82953">
        <ele>420.4</ele>
        <time>2026-05-21T12:41:32.999Z</time>
      </trkpt>
      <trkpt lat="43.77646" lon="3.82953">
        <ele>420</ele>
        <time>2026-05-21T12:41:33.999Z</time>
      </trkpt>
      <trkpt lat="43.77646" lon="3.82953">
        <ele>419.7</ele>
        <time>2026-05-21T12:41:34.999Z</time>
      </trkpt>
      <trkpt lat="43.77646" lon="3.82953">
        <ele>419.5</ele>
        <time>2026-05-21T12:41:35.999Z</time>
      </trkpt>
      <trkpt lat="43.77646" lon="3.82953">
        <ele>419.6</ele>
        <time>2026-05-21T12:41:36.999Z</time>
      </trkpt>
      <trkpt lat="43.77646" lon="3.82953">
        <ele>419.4</ele>
        <time>2026-05-21T12:41:37.999Z</time>
      </trkpt>
      <trkpt lat="43.77646" lon="3.82953">
        <ele>419.4</ele>
        <time>2026-05-21T12:41:38.999Z</time>
      </trkpt>
      <trkpt lat="43.77646" lon="3.82953">
        <ele>419.2</ele>
        <time>2026-05-21T12:41:39.999Z</time>
      </trkpt>
      <trkpt lat="43.77646" lon="3.82953">
        <ele>419.2</ele>
        <time>2026-05-21T12:41:40.999Z</time>
      </trkpt>
      <trkpt lat="43.77646" lon="3.82953">
        <ele>419</ele>
        <time>2026-05-21T12:41:41.999Z</time>
      </trkpt>
      <trkpt lat="43.77646" lon="3.82953">
        <ele>419</ele>
        <time>2026-05-21T12:41:42.999Z</time>
      </trkpt>
      <trkpt lat="43.77646" lon="3.82953">
        <ele>418.9</ele>
        <time>2026-05-21T12:41:43.999Z</time>
      </trkpt>
      <trkpt lat="43.77646" lon="3.82953">
        <ele>418.7</ele>
        <time>2026-05-21T12:41:44.999Z</time>
      </trkpt>
      <trkpt lat="43.77646" lon="3.82953">
        <ele>419.3</ele>
        <time>2026-05-21T12:41:45.999Z</time>
      </trkpt>
      <trkpt lat="43.77646" lon="3.82953">
        <ele>419.5</ele>
        <time>2026-05-21T12:41:46.999Z</time>
      </trkpt>
      <trkpt lat="43.77646" lon="3.82953">
        <ele>419.6</ele>
        <time>2026-05-21T12:41:47.999Z</time>
      </trkpt>
      <trkpt lat="43.77646" lon="3.82953">
        <ele>419.8</ele>
        <time>2026-05-21T12:41:48.999Z</time>
      </trkpt>
      <trkpt lat="43.77645" lon="3.82953">
        <ele>420.3</ele>
        <time>2026-05-21T12:41:50.999Z</time>
      </trkpt>
      <trkpt lat="43.77645" lon="3.82953">
        <ele>420.2</ele>
        <time>2026-05-21T12:41:51.999Z</time>
      </trkpt>
      <trkpt lat="43.77645" lon="3.82953">
        <ele>420.4</ele>
        <time>2026-05-21T12:41:52.999Z</time>
      </trkpt>
      <trkpt lat="43.77645" lon="3.82953">
        <ele>420.6</ele>
        <time>2026-05-21T12:41:53.999Z</time>
      </trkpt>
      <trkpt lat="43.77645" lon="3.82953">
        <ele>420.8</ele>
        <time>2026-05-21T12:41:54.999Z</time>
      </trkpt>
      <trkpt lat="43.77646" lon="3.82953">
        <ele>420.8</ele>
        <time>2026-05-21T12:41:55.999Z</time>
      </trkpt>
      <trkpt lat="43.77647" lon="3.82953">
        <ele>421</ele>
        <time>2026-05-21T12:41:56.999Z</time>
      </trkpt>
      <trkpt lat="43.77647" lon="3.82953">
        <ele>420.9</ele>
        <time>2026-05-21T12:41:57.999Z</time>
      </trkpt>
      <trkpt lat="43.77647" lon="3.82953">
        <ele>421.1</ele>
        <time>2026-05-21T12:41:58.999Z</time>
      </trkpt>
      <trkpt lat="43.77647" lon="3.82953">
        <ele>421.4</ele>
        <time>2026-05-21T12:41:59.999Z</time>
      </trkpt>
      <trkpt lat="43.77647" lon="3.82953">
        <ele>421.7</ele>
        <time>2026-05-21T12:42:00.999Z</time>
      </trkpt>
      <trkpt lat="43.77647" lon="3.82953">
        <ele>422</ele>
        <time>2026-05-21T12:42:01.999Z</time>
      </trkpt>
      <trkpt lat="43.77647" lon="3.82953">
        <ele>422.2</ele>
        <time>2026-05-21T12:42:02.999Z</time>
      </trkpt>
      <trkpt lat="43.77647" lon="3.82953">
        <ele>422.3</ele>
        <time>2026-05-21T12:42:03.999Z</time>
      </trkpt>
      <trkpt lat="43.77647" lon="3.82953">
        <ele>422.8</ele>
        <time>2026-05-21T12:42:04.999Z</time>
      </trkpt>
      <trkpt lat="43.77647" lon="3.82953">
        <ele>422.9</ele>
        <time>2026-05-21T12:42:05.999Z</time>
      </trkpt>
      <trkpt lat="43.77647" lon="3.82953">
        <ele>423.2</ele>
        <time>2026-05-21T12:42:06.999Z</time>
      </trkpt>
      <trkpt lat="43.77647" lon="3.82953">
        <ele>423.6</ele>
        <time>2026-05-21T12:42:07.999Z</time>
      </trkpt>
      <trkpt lat="43.77647" lon="3.82953">
        <ele>423.7</ele>
        <time>2026-05-21T12:42:08.999Z</time>
      </trkpt>
      <trkpt lat="43.77647" lon="3.82953">
        <ele>423.7</ele>
        <time>2026-05-21T12:42:09.999Z</time>
      </trkpt>
      <trkpt lat="43.77647" lon="3.82953">
        <ele>423.8</ele>
        <time>2026-05-21T12:42:10.999Z</time>
      </trkpt>
      <trkpt lat="43.77647" lon="3.82953">
        <ele>423.8</ele>
        <time>2026-05-21T12:42:12.999Z</time>
      </trkpt>
      <trkpt lat="43.77647" lon="3.82952">
        <ele>423.9</ele>
        <time>2026-05-21T12:42:13.999Z</time>
      </trkpt>
      <trkpt lat="43.77647" lon="3.82952">
        <ele>424</ele>
        <time>2026-05-21T12:42:14.999Z</time>
      </trkpt>
      <trkpt lat="43.77647" lon="3.82952">
        <ele>424.2</ele>
        <time>2026-05-21T12:42:15.999Z</time>
      </trkpt>
      <trkpt lat="43.77647" lon="3.82952">
        <ele>424.3</ele>
        <time>2026-05-21T12:42:16.999Z</time>
      </trkpt>
      <trkpt lat="43.77647" lon="3.82952">
        <ele>424.4</ele>
        <time>2026-05-21T12:42:17.999Z</time>
      </trkpt>
      <trkpt lat="43.77647" lon="3.82952">
        <ele>424.6</ele>
        <time>2026-05-21T12:42:18.999Z</time>
      </trkpt>
      <trkpt lat="43.77647" lon="3.82952">
        <ele>424.6</ele>
        <time>2026-05-21T12:42:19.999Z</time>
      </trkpt>
      <trkpt lat="43.77647" lon="3.82952">
        <ele>424.7</ele>
        <time>2026-05-21T12:42:21.999Z</time>
      </trkpt>
      <trkpt lat="43.77647" lon="3.82952">
        <ele>424.8</ele>
        <time>2026-05-21T12:42:22.999Z</time>
      </trkpt>
      <trkpt lat="43.77647" lon="3.82952">
        <ele>424.8</ele>
        <time>2026-05-21T12:42:23.999Z</time>
      </trkpt>
      <trkpt lat="43.77647" lon="3.82952">
        <ele>424.8</ele>
        <time>2026-05-21T12:42:24.999Z</time>
      </trkpt>
      <trkpt lat="43.77647" lon="3.82952">
        <ele>424.8</ele>
        <time>2026-05-21T12:42:25.999Z</time>
      </trkpt>
      <trkpt lat="43.77647" lon="3.82952">
        <ele>424.7</ele>
        <time>2026-05-21T12:42:26.999Z</time>
      </trkpt>
      <trkpt lat="43.77647" lon="3.82952">
        <ele>424.8</ele>
        <time>2026-05-21T12:42:27.999Z</time>
      </trkpt>
      <trkpt lat="43.77647" lon="3.82952">
        <ele>424.9</ele>
        <time>2026-05-21T12:42:28.999Z</time>
      </trkpt>
      <trkpt lat="43.77647" lon="3.82952">
        <ele>425</ele>
        <time>2026-05-21T12:42:29.999Z</time>
      </trkpt>
      <trkpt lat="43.77647" lon="3.82952">
        <ele>425.3</ele>
        <time>2026-05-21T12:42:30.999Z</time>
      </trkpt>
      <trkpt lat="43.77647" lon="3.82952">
        <ele>425.6</ele>
        <time>2026-05-21T12:42:31.999Z</time>
      </trkpt>
      <trkpt lat="43.77646" lon="3.82952">
        <ele>426.2</ele>
        <time>2026-05-21T12:42:32.999Z</time>
      </trkpt>
      <trkpt lat="43.77646" lon="3.82952">
        <ele>426.1</ele>
        <time>2026-05-21T12:42:33.999Z</time>
      </trkpt>
      <trkpt lat="43.77646" lon="3.82952">
        <ele>426.2</ele>
        <time>2026-05-21T12:42:34.999Z</time>
      </trkpt>
      <trkpt lat="43.77646" lon="3.82952">
        <ele>426.3</ele>
        <time>2026-05-21T12:42:35.999Z</time>
      </trkpt>
      <trkpt lat="43.77647" lon="3.82952">
        <ele>426.3</ele>
        <time>2026-05-21T12:42:36.999Z</time>
      </trkpt>
      <trkpt lat="43.77646" lon="3.82951">
        <ele>426.3</ele>
        <time>2026-05-21T12:42:37.999Z</time>
      </trkpt>
      <trkpt lat="43.77646" lon="3.82951">
        <ele>426.2</ele>
        <time>2026-05-21T12:42:38.999Z</time>
      </trkpt>
      <trkpt lat="43.77647" lon="3.82951">
        <ele>426.2</ele>
        <time>2026-05-21T12:42:39.999Z</time>
      </trkpt>
      <trkpt lat="43.77647" lon="3.82951">
        <ele>426.4</ele>
        <time>2026-05-21T12:42:40.999Z</time>
      </trkpt>
      <trkpt lat="43.77647" lon="3.82951">
        <ele>426.5</ele>
        <time>2026-05-21T12:42:42.999Z</time>
      </trkpt>
      <trkpt lat="43.77647" lon="3.82951">
        <ele>426.8</ele>
        <time>2026-05-21T12:42:43.999Z</time>
      </trkpt>
      <trkpt lat="43.77647" lon="3.82951">
        <ele>427.1</ele>
        <time>2026-05-21T12:42:44.999Z</time>
      </trkpt>
      <trkpt lat="43.77647" lon="3.82951">
        <ele>427.3</ele>
        <time>2026-05-21T12:42:45.999Z</time>
      </trkpt>
      <trkpt lat="43.77647" lon="3.82951">
        <ele>427.2</ele>
        <time>2026-05-21T12:42:46.999Z</time>
      </trkpt>
      <trkpt lat="43.77647" lon="3.82951">
        <ele>427.2</ele>
        <time>2026-05-21T12:42:47.999Z</time>
      </trkpt>
      <trkpt lat="43.77647" lon="3.82951">
        <ele>427.2</ele>
        <time>2026-05-21T12:42:48.999Z</time>
      </trkpt>
      <trkpt lat="43.77647" lon="3.82951">
        <ele>427.1</ele>
        <time>2026-05-21T12:42:49.999Z</time>
      </trkpt>
      <trkpt lat="43.77647" lon="3.82951">
        <ele>427</ele>
        <time>2026-05-21T12:42:50.999Z</time>
      </trkpt>
      <trkpt lat="43.77647" lon="3.82951">
        <ele>427</ele>
        <time>2026-05-21T12:42:51.999Z</time>
      </trkpt>
      <trkpt lat="43.77647" lon="3.82951">
        <ele>426.9</ele>
        <time>2026-05-21T12:42:52.999Z</time>
      </trkpt>
      <trkpt lat="43.77647" lon="3.82951">
        <ele>426.8</ele>
        <time>2026-05-21T12:42:53.999Z</time>
      </trkpt>
      <trkpt lat="43.77647" lon="3.82951">
        <ele>426.7</ele>
        <time>2026-05-21T12:42:54.999Z</time>
      </trkpt>
      <trkpt lat="43.77647" lon="3.82951">
        <ele>426.7</ele>
        <time>2026-05-21T12:42:55.999Z</time>
      </trkpt>
      <trkpt lat="43.77647" lon="3.82951">
        <ele>426.9</ele>
        <time>2026-05-21T12:42:56.999Z</time>
      </trkpt>
      <trkpt lat="43.77647" lon="3.82951">
        <ele>426.9</ele>
        <time>2026-05-21T12:42:58.999Z</time>
      </trkpt>
      <trkpt lat="43.77647" lon="3.82951">
        <ele>426.9</ele>
        <time>2026-05-21T12:42:59.999Z</time>
      </trkpt>
      <trkpt lat="43.77647" lon="3.82951">
        <ele>427</ele>
        <time>2026-05-21T12:43:00.999Z</time>
      </trkpt>
      <trkpt lat="43.77647" lon="3.82951">
        <ele>427.1</ele>
        <time>2026-05-21T12:43:01.999Z</time>
      </trkpt>
      <trkpt lat="43.77647" lon="3.82951">
        <ele>427.1</ele>
        <time>2026-05-21T12:43:02.999Z</time>
      </trkpt>
      <trkpt lat="43.77647" lon="3.82951">
        <ele>427.2</ele>
        <time>2026-05-21T12:43:03.999Z</time>
      </trkpt>
      <trkpt lat="43.77647" lon="3.82951">
        <ele>427.3</ele>
        <time>2026-05-21T12:43:04.999Z</time>
      </trkpt>
      <trkpt lat="43.77647" lon="3.82951">
        <ele>427.4</ele>
        <time>2026-05-21T12:43:05.999Z</time>
      </trkpt>
      <trkpt lat="43.77647" lon="3.82951">
        <ele>427.3</ele>
        <time>2026-05-21T12:43:06.999Z</time>
      </trkpt>
      <trkpt lat="43.77647" lon="3.82951">
        <ele>427.3</ele>
        <time>2026-05-21T12:43:07.999Z</time>
      </trkpt>
      <trkpt lat="43.77647" lon="3.82951">
        <ele>427.3</ele>
        <time>2026-05-21T12:43:08.999Z</time>
      </trkpt>
      <trkpt lat="43.77647" lon="3.82951">
        <ele>427.3</ele>
        <time>2026-05-21T12:43:09.999Z</time>
      </trkpt>
      <trkpt lat="43.77647" lon="3.82951">
        <ele>427.6</ele>
        <time>2026-05-21T12:43:10.999Z</time>
      </trkpt>
      <trkpt lat="43.77647" lon="3.82951">
        <ele>427.9</ele>
        <time>2026-05-21T12:43:11.999Z</time>
      </trkpt>
      <trkpt lat="43.77647" lon="3.82951">
        <ele>428.1</ele>
        <time>2026-05-21T12:43:12.999Z</time>
      </trkpt>
      <trkpt lat="43.77647" lon="3.82951">
        <ele>427.9</ele>
        <time>2026-05-21T12:43:13.999Z</time>
      </trkpt>
      <trkpt lat="43.77647" lon="3.82951">
        <ele>427.8</ele>
        <time>2026-05-21T12:43:14.999Z</time>
      </trkpt>
      <trkpt lat="43.77647" lon="3.82951">
        <ele>427.6</ele>
        <time>2026-05-21T12:43:15.999Z</time>
      </trkpt>
      <trkpt lat="43.77647" lon="3.82951">
        <ele>427.7</ele>
        <time>2026-05-21T12:43:16.999Z</time>
      </trkpt>
      <trkpt lat="43.77647" lon="3.82951">
        <ele>427.6</ele>
        <time>2026-05-21T12:43:17.999Z</time>
      </trkpt>
      <trkpt lat="43.77647" lon="3.82951">
        <ele>427.5</ele>
        <time>2026-05-21T12:43:18.999Z</time>
      </trkpt>
      <trkpt lat="43.77647" lon="3.82951">
        <ele>427.8</ele>
        <time>2026-05-21T12:43:19.999Z</time>
      </trkpt>
      <trkpt lat="43.77647" lon="3.82951">
        <ele>428</ele>
        <time>2026-05-21T12:43:20.999Z</time>
      </trkpt>
      <trkpt lat="43.77647" lon="3.82951">
        <ele>428.1</ele>
        <time>2026-05-21T12:43:21.999Z</time>
      </trkpt>
      <trkpt lat="43.77647" lon="3.82951">
        <ele>428.2</ele>
        <time>2026-05-21T12:43:22.999Z</time>
      </trkpt>
      <trkpt lat="43.77648" lon="3.82952">
        <ele>428.2</ele>
        <time>2026-05-21T12:43:23.999Z</time>
      </trkpt>
      <trkpt lat="43.77648" lon="3.82952">
        <ele>428.2</ele>
        <time>2026-05-21T12:43:24.999Z</time>
      </trkpt>
      <trkpt lat="43.77647" lon="3.82951">
        <ele>428.1</ele>
        <time>2026-05-21T12:43:25.999Z</time>
      </trkpt>
      <trkpt lat="43.77647" lon="3.82951">
        <ele>428.1</ele>
        <time>2026-05-21T12:43:26.999Z</time>
      </trkpt>
      <trkpt lat="43.77646" lon="3.82951">
        <ele>428.5</ele>
        <time>2026-05-21T12:43:27.999Z</time>
      </trkpt>
      <trkpt lat="43.77646" lon="3.82951">
        <ele>428.8</ele>
        <time>2026-05-21T12:43:28.999Z</time>
      </trkpt>
      <trkpt lat="43.77646" lon="3.82951">
        <ele>428.8</ele>
        <time>2026-05-21T12:43:29.999Z</time>
      </trkpt>
      <trkpt lat="43.77646" lon="3.82951">
        <ele>428.8</ele>
        <time>2026-05-21T12:43:30.999Z</time>
      </trkpt>
      <trkpt lat="43.77646" lon="3.8295">
        <ele>429</ele>
        <time>2026-05-21T12:43:31.999Z</time>
      </trkpt>
      <trkpt lat="43.77646" lon="3.8295">
        <ele>429.2</ele>
        <time>2026-05-21T12:43:32.999Z</time>
      </trkpt>
      <trkpt lat="43.77646" lon="3.8295">
        <ele>429.3</ele>
        <time>2026-05-21T12:43:33.999Z</time>
      </trkpt>
      <trkpt lat="43.77646" lon="3.8295">
        <ele>429.6</ele>
        <time>2026-05-21T12:43:34.999Z</time>
      </trkpt>
      <trkpt lat="43.77646" lon="3.8295">
        <ele>429.9</ele>
        <time>2026-05-21T12:43:35.999Z</time>
      </trkpt>
      <trkpt lat="43.77646" lon="3.8295">
        <ele>430</ele>
        <time>2026-05-21T12:43:36.999Z</time>
      </trkpt>
      <trkpt lat="43.77646" lon="3.8295">
        <ele>429.9</ele>
        <time>2026-05-21T12:43:37.999Z</time>
      </trkpt>
      <trkpt lat="43.77646" lon="3.8295">
        <ele>430</ele>
        <time>2026-05-21T12:43:38.999Z</time>
      </trkpt>
      <trkpt lat="43.77646" lon="3.8295">
        <ele>430</ele>
        <time>2026-05-21T12:43:39.999Z</time>
      </trkpt>
      <trkpt lat="43.77646" lon="3.8295">
        <ele>429.8</ele>
        <time>2026-05-21T12:43:40.999Z</time>
      </trkpt>
      <trkpt lat="43.77646" lon="3.8295">
        <ele>429.7</ele>
        <time>2026-05-21T12:43:41.999Z</time>
      </trkpt>
      <trkpt lat="43.77646" lon="3.8295">
        <ele>429.7</ele>
        <time>2026-05-21T12:43:42.999Z</time>
      </trkpt>
      <trkpt lat="43.77646" lon="3.8295">
        <ele>429.5</ele>
        <time>2026-05-21T12:43:43.999Z</time>
      </trkpt>
      <trkpt lat="43.77646" lon="3.8295">
        <ele>429.4</ele>
        <time>2026-05-21T12:43:44.999Z</time>
      </trkpt>
      <trkpt lat="43.77646" lon="3.8295">
        <ele>429.5</ele>
        <time>2026-05-21T12:43:45.999Z</time>
      </trkpt>
      <trkpt lat="43.77646" lon="3.8295">
        <ele>429.6</ele>
        <time>2026-05-21T12:43:46.999Z</time>
      </trkpt>
      <trkpt lat="43.77646" lon="3.8295">
        <ele>429.7</ele>
        <time>2026-05-21T12:43:47.999Z</time>
      </trkpt>
      <trkpt lat="43.77646" lon="3.8295">
        <ele>429.6</ele>
        <time>2026-05-21T12:43:48.999Z</time>
      </trkpt>
      <trkpt lat="43.77646" lon="3.8295">
        <ele>429.4</ele>
        <time>2026-05-21T12:43:49.999Z</time>
      </trkpt>
      <trkpt lat="43.77646" lon="3.8295">
        <ele>429.4</ele>
        <time>2026-05-21T12:43:50.999Z</time>
      </trkpt>
      <trkpt lat="43.77646" lon="3.8295">
        <ele>429.5</ele>
        <time>2026-05-21T12:43:51.999Z</time>
      </trkpt>
      <trkpt lat="43.77646" lon="3.8295">
        <ele>429.6</ele>
        <time>2026-05-21T12:43:52.999Z</time>
      </trkpt>
      <trkpt lat="43.77646" lon="3.8295">
        <ele>429.6</ele>
        <time>2026-05-21T12:43:53.999Z</time>
      </trkpt>
      <trkpt lat="43.77646" lon="3.8295">
        <ele>429.7</ele>
        <time>2026-05-21T12:43:54.999Z</time>
      </trkpt>
      <trkpt lat="43.77646" lon="3.8295">
        <ele>429.9</ele>
        <time>2026-05-21T12:43:55.999Z</time>
      </trkpt>
      <trkpt lat="43.77646" lon="3.8295">
        <ele>430.2</ele>
        <time>2026-05-21T12:43:56.999Z</time>
      </trkpt>
      <trkpt lat="43.77646" lon="3.8295">
        <ele>430.3</ele>
        <time>2026-05-21T12:43:57.999Z</time>
      </trkpt>
      <trkpt lat="43.77646" lon="3.8295">
        <ele>430.5</ele>
        <time>2026-05-21T12:43:58.999Z</time>
      </trkpt>
      <trkpt lat="43.77646" lon="3.8295">
        <ele>430.7</ele>
        <time>2026-05-21T12:43:59.999Z</time>
      </trkpt>
      <trkpt lat="43.77646" lon="3.8295">
        <ele>430.7</ele>
        <time>2026-05-21T12:44:00.999Z</time>
      </trkpt>
      <trkpt lat="43.77646" lon="3.8295">
        <ele>430.7</ele>
        <time>2026-05-21T12:44:01.999Z</time>
      </trkpt>
      <trkpt lat="43.77646" lon="3.8295">
        <ele>430.5</ele>
        <time>2026-05-21T12:44:02.999Z</time>
      </trkpt>
      <trkpt lat="43.77646" lon="3.8295">
        <ele>430.4</ele>
        <time>2026-05-21T12:44:03.999Z</time>
      </trkpt>
      <trkpt lat="43.77646" lon="3.8295">
        <ele>430.3</ele>
        <time>2026-05-21T12:44:04.999Z</time>
      </trkpt>
      <trkpt lat="43.77647" lon="3.8295">
        <ele>430.3</ele>
        <time>2026-05-21T12:44:05.999Z</time>
      </trkpt>
      <trkpt lat="43.77647" lon="3.82949">
        <ele>430.3</ele>
        <time>2026-05-21T12:44:06.999Z</time>
      </trkpt>
      <trkpt lat="43.77646" lon="3.82949">
        <ele>430.1</ele>
        <time>2026-05-21T12:44:07.999Z</time>
      </trkpt>
      <trkpt lat="43.77647" lon="3.82949">
        <ele>430.1</ele>
        <time>2026-05-21T12:44:08.999Z</time>
      </trkpt>
      <trkpt lat="43.77647" lon="3.82949">
        <ele>430.2</ele>
        <time>2026-05-21T12:44:09.999Z</time>
      </trkpt>
      <trkpt lat="43.77647" lon="3.82949">
        <ele>430.4</ele>
        <time>2026-05-21T12:44:10.999Z</time>
      </trkpt>
      <trkpt lat="43.77647" lon="3.82949">
        <ele>430.4</ele>
        <time>2026-05-21T12:44:11.999Z</time>
      </trkpt>
      <trkpt lat="43.77647" lon="3.82949">
        <ele>430.2</ele>
        <time>2026-05-21T12:44:12.999Z</time>
      </trkpt>
      <trkpt lat="43.77647" lon="3.82949">
        <ele>429.9</ele>
        <time>2026-05-21T12:44:13.999Z</time>
      </trkpt>
      <trkpt lat="43.77647" lon="3.82949">
        <ele>429.5</ele>
        <time>2026-05-21T12:44:14.999Z</time>
      </trkpt>
      <trkpt lat="43.77647" lon="3.82949">
        <ele>429.3</ele>
        <time>2026-05-21T12:44:15.999Z</time>
      </trkpt>
      <trkpt lat="43.77647" lon="3.82949">
        <ele>429.1</ele>
        <time>2026-05-21T12:44:16.999Z</time>
      </trkpt>
      <trkpt lat="43.77647" lon="3.82949">
        <ele>428.9</ele>
        <time>2026-05-21T12:44:17.999Z</time>
      </trkpt>
      <trkpt lat="43.77647" lon="3.82949">
        <ele>428.8</ele>
        <time>2026-05-21T12:44:18.999Z</time>
      </trkpt>
      <trkpt lat="43.77647" lon="3.82949">
        <ele>428.6</ele>
        <time>2026-05-21T12:44:19.999Z</time>
      </trkpt>
      <trkpt lat="43.77647" lon="3.82949">
        <ele>428.6</ele>
        <time>2026-05-21T12:44:20.999Z</time>
      </trkpt>
      <trkpt lat="43.77647" lon="3.82948">
        <ele>428.5</ele>
        <time>2026-05-21T12:44:21.999Z</time>
      </trkpt>
      <trkpt lat="43.77647" lon="3.82948">
        <ele>428.6</ele>
        <time>2026-05-21T12:44:22.999Z</time>
      </trkpt>
      <trkpt lat="43.77647" lon="3.82948">
        <ele>428.8</ele>
        <time>2026-05-21T12:44:23.999Z</time>
      </trkpt>
      <trkpt lat="43.77647" lon="3.82948">
        <ele>428.8</ele>
        <time>2026-05-21T12:44:24.999Z</time>
      </trkpt>
      <trkpt lat="43.77647" lon="3.82948">
        <ele>429</ele>
        <time>2026-05-21T12:44:25.999Z</time>
      </trkpt>
      <trkpt lat="43.77647" lon="3.82948">
        <ele>428.9</ele>
        <time>2026-05-21T12:44:26.999Z</time>
      </trkpt>
      <trkpt lat="43.77648" lon="3.82947">
        <ele>428.6</ele>
        <time>2026-05-21T12:44:27.999Z</time>
      </trkpt>
      <trkpt lat="43.77648" lon="3.82947">
        <ele>428.8</ele>
        <time>2026-05-21T12:44:28.999Z</time>
      </trkpt>
      <trkpt lat="43.77648" lon="3.82946">
        <ele>428.9</ele>
        <time>2026-05-21T12:44:29.999Z</time>
      </trkpt>
      <trkpt lat="43.77648" lon="3.82946">
        <ele>429</ele>
        <time>2026-05-21T12:44:30.999Z</time>
      </trkpt>
      <trkpt lat="43.77648" lon="3.82946">
        <ele>428.7</ele>
        <time>2026-05-21T12:44:31.999Z</time>
      </trkpt>
      <trkpt lat="43.77648" lon="3.82946">
        <ele>428.5</ele>
        <time>2026-05-21T12:44:32.999Z</time>
      </trkpt>
      <trkpt lat="43.77648" lon="3.82946">
        <ele>428.2</ele>
        <time>2026-05-21T12:44:33.999Z</time>
      </trkpt>
      <trkpt lat="43.77648" lon="3.82946">
        <ele>427.9</ele>
        <time>2026-05-21T12:44:34.999Z</time>
      </trkpt>
      <trkpt lat="43.77648" lon="3.82946">
        <ele>427.8</ele>
        <time>2026-05-21T12:44:35.999Z</time>
      </trkpt>
      <trkpt lat="43.77648" lon="3.82946">
        <ele>427.6</ele>
        <time>2026-05-21T12:44:36.999Z</time>
      </trkpt>
      <trkpt lat="43.77648" lon="3.82946">
        <ele>427.4</ele>
        <time>2026-05-21T12:44:37.999Z</time>
      </trkpt>
      <trkpt lat="43.77647" lon="3.82946">
        <ele>427.5</ele>
        <time>2026-05-21T12:44:38.999Z</time>
      </trkpt>
      <trkpt lat="43.77647" lon="3.82945">
        <ele>427.6</ele>
        <time>2026-05-21T12:44:39.999Z</time>
      </trkpt>
      <trkpt lat="43.77647" lon="3.82945">
        <ele>427.5</ele>
        <time>2026-05-21T12:44:40.999Z</time>
      </trkpt>
      <trkpt lat="43.77647" lon="3.82945">
        <ele>427.6</ele>
        <time>2026-05-21T12:44:41.999Z</time>
      </trkpt>
      <trkpt lat="43.77647" lon="3.82945">
        <ele>427.4</ele>
        <time>2026-05-21T12:44:42.999Z</time>
      </trkpt>
      <trkpt lat="43.77647" lon="3.82945">
        <ele>427.3</ele>
        <time>2026-05-21T12:44:43.999Z</time>
      </trkpt>
      <trkpt lat="43.77647" lon="3.82945">
        <ele>427.2</ele>
        <time>2026-05-21T12:44:44.999Z</time>
      </trkpt>
      <trkpt lat="43.77647" lon="3.82945">
        <ele>427</ele>
        <time>2026-05-21T12:44:45.999Z</time>
      </trkpt>
      <trkpt lat="43.77647" lon="3.82945">
        <ele>426.7</ele>
        <time>2026-05-21T12:44:46.999Z</time>
      </trkpt>
      <trkpt lat="43.77648" lon="3.82945">
        <ele>426.9</ele>
        <time>2026-05-21T12:44:47.999Z</time>
      </trkpt>
      <trkpt lat="43.77648" lon="3.82945">
        <ele>427.2</ele>
        <time>2026-05-21T12:44:48.999Z</time>
      </trkpt>
      <trkpt lat="43.77648" lon="3.82945">
        <ele>427.4</ele>
        <time>2026-05-21T12:44:49.999Z</time>
      </trkpt>
      <trkpt lat="43.77648" lon="3.82945">
        <ele>427.4</ele>
        <time>2026-05-21T12:44:50.999Z</time>
      </trkpt>
      <trkpt lat="43.77648" lon="3.82945">
        <ele>427.4</ele>
        <time>2026-05-21T12:44:51.999Z</time>
      </trkpt>
      <trkpt lat="43.77648" lon="3.82945">
        <ele>427.4</ele>
        <time>2026-05-21T12:44:52.999Z</time>
      </trkpt>
      <trkpt lat="43.77648" lon="3.82945">
        <ele>427</ele>
        <time>2026-05-21T12:44:53.999Z</time>
      </trkpt>
      <trkpt lat="43.77648" lon="3.82945">
        <ele>426.7</ele>
        <time>2026-05-21T12:44:54.999Z</time>
      </trkpt>
      <trkpt lat="43.77648" lon="3.82945">
        <ele>426.5</ele>
        <time>2026-05-21T12:44:55.999Z</time>
      </trkpt>
      <trkpt lat="43.77648" lon="3.82945">
        <ele>426.5</ele>
        <time>2026-05-21T12:44:56.999Z</time>
      </trkpt>
      <trkpt lat="43.77648" lon="3.82945">
        <ele>426.7</ele>
        <time>2026-05-21T12:44:57.999Z</time>
      </trkpt>
      <trkpt lat="43.77648" lon="3.82945">
        <ele>426.5</ele>
        <time>2026-05-21T12:44:58.999Z</time>
      </trkpt>
      <trkpt lat="43.77648" lon="3.82945">
        <ele>426.8</ele>
        <time>2026-05-21T12:44:59.999Z</time>
      </trkpt>
      <trkpt lat="43.77648" lon="3.82945">
        <ele>427</ele>
        <time>2026-05-21T12:45:00.999Z</time>
      </trkpt>
      <trkpt lat="43.77648" lon="3.82945">
        <ele>427</ele>
        <time>2026-05-21T12:45:01.999Z</time>
      </trkpt>
      <trkpt lat="43.77648" lon="3.82945">
        <ele>426.8</ele>
        <time>2026-05-21T12:45:02.999Z</time>
      </trkpt>
      <trkpt lat="43.77648" lon="3.82945">
        <ele>426.6</ele>
        <time>2026-05-21T12:45:03.999Z</time>
      </trkpt>
      <trkpt lat="43.77648" lon="3.82945">
        <ele>426.8</ele>
        <time>2026-05-21T12:45:04.999Z</time>
      </trkpt>
      <trkpt lat="43.77648" lon="3.82945">
        <ele>427</ele>
        <time>2026-05-21T12:45:05.999Z</time>
      </trkpt>
      <trkpt lat="43.77648" lon="3.82945">
        <ele>426.8</ele>
        <time>2026-05-21T12:45:06.999Z</time>
      </trkpt>
      <trkpt lat="43.77648" lon="3.82944">
        <ele>427.1</ele>
        <time>2026-05-21T12:45:07.999Z</time>
      </trkpt>
      <trkpt lat="43.77648" lon="3.82945">
        <ele>427.3</ele>
        <time>2026-05-21T12:45:08.999Z</time>
      </trkpt>
      <trkpt lat="43.77648" lon="3.82945">
        <ele>427.5</ele>
        <time>2026-05-21T12:45:09.999Z</time>
      </trkpt>
      <trkpt lat="43.77648" lon="3.82945">
        <ele>427.9</ele>
        <time>2026-05-21T12:45:10.999Z</time>
      </trkpt>
      <trkpt lat="43.77648" lon="3.82945">
        <ele>428.1</ele>
        <time>2026-05-21T12:45:11.999Z</time>
      </trkpt>
      <trkpt lat="43.77648" lon="3.82945">
        <ele>428.4</ele>
        <time>2026-05-21T12:45:12.999Z</time>
      </trkpt>
      <trkpt lat="43.77648" lon="3.82945">
        <ele>428.7</ele>
        <time>2026-05-21T12:45:13.999Z</time>
      </trkpt>
      <trkpt lat="43.77648" lon="3.82945">
        <ele>428.8</ele>
        <time>2026-05-21T12:45:14.999Z</time>
      </trkpt>
      <trkpt lat="43.77648" lon="3.82944">
        <ele>428.6</ele>
        <time>2026-05-21T12:45:15.999Z</time>
      </trkpt>
      <trkpt lat="43.77648" lon="3.82944">
        <ele>428.3</ele>
        <time>2026-05-21T12:45:16.999Z</time>
      </trkpt>
      <trkpt lat="43.77648" lon="3.82944">
        <ele>427.7</ele>
        <time>2026-05-21T12:45:17.999Z</time>
      </trkpt>
      <trkpt lat="43.77649" lon="3.82943">
        <ele>427.3</ele>
        <time>2026-05-21T12:45:18.999Z</time>
      </trkpt>
      <trkpt lat="43.77649" lon="3.82943">
        <ele>427</ele>
        <time>2026-05-21T12:45:19.999Z</time>
      </trkpt>
      <trkpt lat="43.77649" lon="3.82943">
        <ele>426.7</ele>
        <time>2026-05-21T12:45:20.999Z</time>
      </trkpt>
      <trkpt lat="43.77649" lon="3.82943">
        <ele>427.1</ele>
        <time>2026-05-21T12:45:21.999Z</time>
      </trkpt>
      <trkpt lat="43.77649" lon="3.82943">
        <ele>427.3</ele>
        <time>2026-05-21T12:45:22.999Z</time>
      </trkpt>
      <trkpt lat="43.77649" lon="3.82943">
        <ele>427.5</ele>
        <time>2026-05-21T12:45:23.999Z</time>
      </trkpt>
      <trkpt lat="43.77649" lon="3.82942">
        <ele>427.8</ele>
        <time>2026-05-21T12:45:24.999Z</time>
      </trkpt>
      <trkpt lat="43.77649" lon="3.82942">
        <ele>428.2</ele>
        <time>2026-05-21T12:45:25.999Z</time>
      </trkpt>
      <trkpt lat="43.77649" lon="3.82942">
        <ele>428.5</ele>
        <time>2026-05-21T12:45:26.999Z</time>
      </trkpt>
      <trkpt lat="43.77649" lon="3.82942">
        <ele>428.8</ele>
        <time>2026-05-21T12:45:27.999Z</time>
      </trkpt>
      <trkpt lat="43.77649" lon="3.82942">
        <ele>429</ele>
        <time>2026-05-21T12:45:28.999Z</time>
      </trkpt>
      <trkpt lat="43.77649" lon="3.82942">
        <ele>429.1</ele>
        <time>2026-05-21T12:45:29.999Z</time>
      </trkpt>
      <trkpt lat="43.77649" lon="3.82942">
        <ele>429.3</ele>
        <time>2026-05-21T12:45:30.999Z</time>
      </trkpt>
      <trkpt lat="43.77649" lon="3.82942">
        <ele>429.3</ele>
        <time>2026-05-21T12:45:31.999Z</time>
      </trkpt>
      <trkpt lat="43.77649" lon="3.82941">
        <ele>429.4</ele>
        <time>2026-05-21T12:45:32.999Z</time>
      </trkpt>
      <trkpt lat="43.77649" lon="3.82941">
        <ele>429.4</ele>
        <time>2026-05-21T12:45:33.999Z</time>
      </trkpt>
      <trkpt lat="43.77649" lon="3.82941">
        <ele>429.7</ele>
        <time>2026-05-21T12:45:34.999Z</time>
      </trkpt>
      <trkpt lat="43.77649" lon="3.82941">
        <ele>429.8</ele>
        <time>2026-05-21T12:45:35.999Z</time>
      </trkpt>
      <trkpt lat="43.77649" lon="3.82941">
        <ele>429.8</ele>
        <time>2026-05-21T12:45:36.999Z</time>
      </trkpt>
      <trkpt lat="43.77649" lon="3.8294">
        <ele>429.8</ele>
        <time>2026-05-21T12:45:37.999Z</time>
      </trkpt>
      <trkpt lat="43.77649" lon="3.8294">
        <ele>429.9</ele>
        <time>2026-05-21T12:45:38.999Z</time>
      </trkpt>
      <trkpt lat="43.77649" lon="3.8294">
        <ele>430</ele>
        <time>2026-05-21T12:45:39.999Z</time>
      </trkpt>
      <trkpt lat="43.77649" lon="3.8294">
        <ele>430</ele>
        <time>2026-05-21T12:45:40.999Z</time>
      </trkpt>
      <trkpt lat="43.77649" lon="3.8294">
        <ele>429.9</ele>
        <time>2026-05-21T12:45:41.999Z</time>
      </trkpt>
      <trkpt lat="43.77649" lon="3.8294">
        <ele>429.9</ele>
        <time>2026-05-21T12:45:42.999Z</time>
      </trkpt>
      <trkpt lat="43.7765" lon="3.8294">
        <ele>430.1</ele>
        <time>2026-05-21T12:45:43.999Z</time>
      </trkpt>
      <trkpt lat="43.7765" lon="3.8294">
        <ele>430.1</ele>
        <time>2026-05-21T12:45:44.999Z</time>
      </trkpt>
      <trkpt lat="43.7765" lon="3.8294">
        <ele>430.1</ele>
        <time>2026-05-21T12:45:45.999Z</time>
      </trkpt>
      <trkpt lat="43.7765" lon="3.8294">
        <ele>430.4</ele>
        <time>2026-05-21T12:45:46.999Z</time>
      </trkpt>
      <trkpt lat="43.7765" lon="3.8294">
        <ele>430.8</ele>
        <time>2026-05-21T12:45:47.999Z</time>
      </trkpt>
      <trkpt lat="43.7765" lon="3.8294">
        <ele>430.9</ele>
        <time>2026-05-21T12:45:48.999Z</time>
      </trkpt>
      <trkpt lat="43.7765" lon="3.8294">
        <ele>430.7</ele>
        <time>2026-05-21T12:45:49.999Z</time>
      </trkpt>
      <trkpt lat="43.7765" lon="3.8294">
        <ele>430.6</ele>
        <time>2026-05-21T12:45:50.999Z</time>
      </trkpt>
      <trkpt lat="43.7765" lon="3.8294">
        <ele>430</ele>
        <time>2026-05-21T12:45:51.999Z</time>
      </trkpt>
      <trkpt lat="43.77651" lon="3.82939">
        <ele>430</ele>
        <time>2026-05-21T12:45:52.999Z</time>
      </trkpt>
      <trkpt lat="43.77651" lon="3.82939">
        <ele>429.7</ele>
        <time>2026-05-21T12:45:53.999Z</time>
      </trkpt>
      <trkpt lat="43.77651" lon="3.82939">
        <ele>429.8</ele>
        <time>2026-05-21T12:45:54.999Z</time>
      </trkpt>
      <trkpt lat="43.77651" lon="3.82939">
        <ele>430.1</ele>
        <time>2026-05-21T12:45:55.999Z</time>
      </trkpt>
      <trkpt lat="43.77651" lon="3.82939">
        <ele>430.1</ele>
        <time>2026-05-21T12:45:56.999Z</time>
      </trkpt>
      <trkpt lat="43.77651" lon="3.82939">
        <ele>430.2</ele>
        <time>2026-05-21T12:45:57.999Z</time>
      </trkpt>
      <trkpt lat="43.77651" lon="3.82939">
        <ele>430.3</ele>
        <time>2026-05-21T12:45:58.999Z</time>
      </trkpt>
      <trkpt lat="43.77651" lon="3.82939">
        <ele>430.5</ele>
        <time>2026-05-21T12:45:59.999Z</time>
      </trkpt>
      <trkpt lat="43.77651" lon="3.82938">
        <ele>430.6</ele>
        <time>2026-05-21T12:46:00.999Z</time>
      </trkpt>
      <trkpt lat="43.77651" lon="3.82938">
        <ele>430.6</ele>
        <time>2026-05-21T12:46:01.999Z</time>
      </trkpt>
      <trkpt lat="43.77651" lon="3.82938">
        <ele>430.7</ele>
        <time>2026-05-21T12:46:02.999Z</time>
      </trkpt>
      <trkpt lat="43.77651" lon="3.82938">
        <ele>430.5</ele>
        <time>2026-05-21T12:46:03.999Z</time>
      </trkpt>
      <trkpt lat="43.77651" lon="3.82938">
        <ele>430.5</ele>
        <time>2026-05-21T12:46:04.999Z</time>
      </trkpt>
      <trkpt lat="43.77651" lon="3.82938">
        <ele>430.8</ele>
        <time>2026-05-21T12:46:05.999Z</time>
      </trkpt>
      <trkpt lat="43.77651" lon="3.82937">
        <ele>430.7</ele>
        <time>2026-05-21T12:46:06.999Z</time>
      </trkpt>
      <trkpt lat="43.77651" lon="3.82937">
        <ele>430.1</ele>
        <time>2026-05-21T12:46:07.999Z</time>
      </trkpt>
      <trkpt lat="43.77651" lon="3.82936">
        <ele>429.5</ele>
        <time>2026-05-21T12:46:08.999Z</time>
      </trkpt>
      <trkpt lat="43.77651" lon="3.82936">
        <ele>428.9</ele>
        <time>2026-05-21T12:46:09.999Z</time>
      </trkpt>
      <trkpt lat="43.77651" lon="3.82936">
        <ele>428.5</ele>
        <time>2026-05-21T12:46:10.999Z</time>
      </trkpt>
      <trkpt lat="43.77651" lon="3.82936">
        <ele>428.8</ele>
        <time>2026-05-21T12:46:11.999Z</time>
      </trkpt>
      <trkpt lat="43.77652" lon="3.82935">
        <ele>429</ele>
        <time>2026-05-21T12:46:12.999Z</time>
      </trkpt>
      <trkpt lat="43.77652" lon="3.82935">
        <ele>428.5</ele>
        <time>2026-05-21T12:46:13.999Z</time>
      </trkpt>
      <trkpt lat="43.77652" lon="3.82935">
        <ele>428.1</ele>
        <time>2026-05-21T12:46:14.999Z</time>
      </trkpt>
      <trkpt lat="43.77652" lon="3.82935">
        <ele>427.8</ele>
        <time>2026-05-21T12:46:15.999Z</time>
      </trkpt>
      <trkpt lat="43.77653" lon="3.82934">
        <ele>427.7</ele>
        <time>2026-05-21T12:46:16.999Z</time>
      </trkpt>
      <trkpt lat="43.77653" lon="3.82933">
        <ele>428.3</ele>
        <time>2026-05-21T12:46:17.999Z</time>
      </trkpt>
      <trkpt lat="43.77654" lon="3.82933">
        <ele>428.1</ele>
        <time>2026-05-21T12:46:18.999Z</time>
      </trkpt>
      <trkpt lat="43.77654" lon="3.82933">
        <ele>428.2</ele>
        <time>2026-05-21T12:46:19.999Z</time>
      </trkpt>
      <trkpt lat="43.77654" lon="3.82933">
        <ele>428.3</ele>
        <time>2026-05-21T12:46:20.999Z</time>
      </trkpt>
      <trkpt lat="43.77654" lon="3.82933">
        <ele>428.4</ele>
        <time>2026-05-21T12:46:21.999Z</time>
      </trkpt>
      <trkpt lat="43.77654" lon="3.82932">
        <ele>428.3</ele>
        <time>2026-05-21T12:46:22.999Z</time>
      </trkpt>
      <trkpt lat="43.77654" lon="3.82932">
        <ele>428.3</ele>
        <time>2026-05-21T12:46:23.999Z</time>
      </trkpt>
      <trkpt lat="43.77654" lon="3.82932">
        <ele>428.1</ele>
        <time>2026-05-21T12:46:24.999Z</time>
      </trkpt>
      <trkpt lat="43.77655" lon="3.82932">
        <ele>427.8</ele>
        <time>2026-05-21T12:46:25.999Z</time>
      </trkpt>
      <trkpt lat="43.77655" lon="3.82932">
        <ele>427.7</ele>
        <time>2026-05-21T12:46:26.999Z</time>
      </trkpt>
      <trkpt lat="43.77655" lon="3.82931">
        <ele>427.5</ele>
        <time>2026-05-21T12:46:27.999Z</time>
      </trkpt>
      <trkpt lat="43.77655" lon="3.82931">
        <ele>427.3</ele>
        <time>2026-05-21T12:46:28.999Z</time>
      </trkpt>
      <trkpt lat="43.77655" lon="3.82931">
        <ele>427.3</ele>
        <time>2026-05-21T12:46:29.999Z</time>
      </trkpt>
      <trkpt lat="43.77655" lon="3.8293">
        <ele>427.7</ele>
        <time>2026-05-21T12:46:30.999Z</time>
      </trkpt>
      <trkpt lat="43.77655" lon="3.8293">
        <ele>427.8</ele>
        <time>2026-05-21T12:46:31.999Z</time>
      </trkpt>
      <trkpt lat="43.77655" lon="3.82929">
        <ele>428.1</ele>
        <time>2026-05-21T12:46:32.999Z</time>
      </trkpt>
      <trkpt lat="43.77655" lon="3.82929">
        <ele>428.3</ele>
        <time>2026-05-21T12:46:33.999Z</time>
      </trkpt>
      <trkpt lat="43.77655" lon="3.82929">
        <ele>428</ele>
        <time>2026-05-21T12:46:34.999Z</time>
      </trkpt>
      <trkpt lat="43.77655" lon="3.82929">
        <ele>427.6</ele>
        <time>2026-05-21T12:46:35.999Z</time>
      </trkpt>
      <trkpt lat="43.77655" lon="3.82929">
        <ele>427.6</ele>
        <time>2026-05-21T12:46:36.999Z</time>
      </trkpt>
      <trkpt lat="43.77655" lon="3.82929">
        <ele>427.6</ele>
        <time>2026-05-21T12:46:37.999Z</time>
      </trkpt>
      <trkpt lat="43.77655" lon="3.82928">
        <ele>427.5</ele>
        <time>2026-05-21T12:46:38.999Z</time>
      </trkpt>
      <trkpt lat="43.77656" lon="3.82928">
        <ele>427.4</ele>
        <time>2026-05-21T12:46:39.999Z</time>
      </trkpt>
      <trkpt lat="43.77656" lon="3.82928">
        <ele>427.2</ele>
        <time>2026-05-21T12:46:40.999Z</time>
      </trkpt>
      <trkpt lat="43.77656" lon="3.82928">
        <ele>427.2</ele>
        <time>2026-05-21T12:46:41.999Z</time>
      </trkpt>
      <trkpt lat="43.77656" lon="3.82928">
        <ele>427.9</ele>
        <time>2026-05-21T12:46:42.999Z</time>
      </trkpt>
      <trkpt lat="43.77656" lon="3.82927">
        <ele>428.5</ele>
        <time>2026-05-21T12:46:43.999Z</time>
      </trkpt>
      <trkpt lat="43.77656" lon="3.82927">
        <ele>428.6</ele>
        <time>2026-05-21T12:46:44.999Z</time>
      </trkpt>
      <trkpt lat="43.77656" lon="3.82927">
        <ele>428.9</ele>
        <time>2026-05-21T12:46:45.999Z</time>
      </trkpt>
      <trkpt lat="43.77656" lon="3.82926">
        <ele>428.6</ele>
        <time>2026-05-21T12:46:46.999Z</time>
      </trkpt>
      <trkpt lat="43.77656" lon="3.82925">
        <ele>428.2</ele>
        <time>2026-05-21T12:46:47.999Z</time>
      </trkpt>
      <trkpt lat="43.77656" lon="3.82925">
        <ele>427.8</ele>
        <time>2026-05-21T12:46:48.999Z</time>
      </trkpt>
      <trkpt lat="43.77656" lon="3.82925">
        <ele>427.6</ele>
        <time>2026-05-21T12:46:49.999Z</time>
      </trkpt>
      <trkpt lat="43.77656" lon="3.82924">
        <ele>427.6</ele>
        <time>2026-05-21T12:46:50.999Z</time>
      </trkpt>
      <trkpt lat="43.77657" lon="3.82924">
        <ele>427.8</ele>
        <time>2026-05-21T12:46:51.999Z</time>
      </trkpt>
      <trkpt lat="43.77657" lon="3.82924">
        <ele>427.9</ele>
        <time>2026-05-21T12:46:52.999Z</time>
      </trkpt>
      <trkpt lat="43.77657" lon="3.82924">
        <ele>427.7</ele>
        <time>2026-05-21T12:46:53.999Z</time>
      </trkpt>
      <trkpt lat="43.77657" lon="3.82924">
        <ele>427.5</ele>
        <time>2026-05-21T12:46:54.999Z</time>
      </trkpt>
      <trkpt lat="43.77657" lon="3.82924">
        <ele>427.5</ele>
        <time>2026-05-21T12:46:55.999Z</time>
      </trkpt>
      <trkpt lat="43.77657" lon="3.82923">
        <ele>427.1</ele>
        <time>2026-05-21T12:46:56.999Z</time>
      </trkpt>
      <trkpt lat="43.77657" lon="3.82923">
        <ele>426.9</ele>
        <time>2026-05-21T12:46:57.999Z</time>
      </trkpt>
      <trkpt lat="43.77657" lon="3.82923">
        <ele>426.7</ele>
        <time>2026-05-21T12:46:58.999Z</time>
      </trkpt>
      <trkpt lat="43.77657" lon="3.82923">
        <ele>426.4</ele>
        <time>2026-05-21T12:46:59.999Z</time>
      </trkpt>
      <trkpt lat="43.77657" lon="3.82922">
        <ele>426.5</ele>
        <time>2026-05-21T12:47:00.999Z</time>
      </trkpt>
      <trkpt lat="43.77657" lon="3.82922">
        <ele>426.7</ele>
        <time>2026-05-21T12:47:01.999Z</time>
      </trkpt>
      <trkpt lat="43.77657" lon="3.82921">
        <ele>426.7</ele>
        <time>2026-05-21T12:47:02.999Z</time>
      </trkpt>
      <trkpt lat="43.77657" lon="3.8292">
        <ele>426.8</ele>
        <time>2026-05-21T12:47:03.999Z</time>
      </trkpt>
      <trkpt lat="43.77657" lon="3.8292">
        <ele>426.8</ele>
        <time>2026-05-21T12:47:04.999Z</time>
      </trkpt>
      <trkpt lat="43.77657" lon="3.8292">
        <ele>426.9</ele>
        <time>2026-05-21T12:47:05.999Z</time>
      </trkpt>
      <trkpt lat="43.77657" lon="3.82919">
        <ele>427.1</ele>
        <time>2026-05-21T12:47:06.999Z</time>
      </trkpt>
      <trkpt lat="43.77657" lon="3.82919">
        <ele>427.4</ele>
        <time>2026-05-21T12:47:07.999Z</time>
      </trkpt>
      <trkpt lat="43.77658" lon="3.82918">
        <ele>427.8</ele>
        <time>2026-05-21T12:47:08.999Z</time>
      </trkpt>
      <trkpt lat="43.77658" lon="3.82916">
        <ele>428</ele>
        <time>2026-05-21T12:47:09.999Z</time>
      </trkpt>
      <trkpt lat="43.77658" lon="3.82916">
        <ele>427.7</ele>
        <time>2026-05-21T12:47:10.999Z</time>
      </trkpt>
      <trkpt lat="43.77659" lon="3.82915">
        <ele>427.7</ele>
        <time>2026-05-21T12:47:11.999Z</time>
      </trkpt>
      <trkpt lat="43.77659" lon="3.82915">
        <ele>427.9</ele>
        <time>2026-05-21T12:47:12.999Z</time>
      </trkpt>
      <trkpt lat="43.77659" lon="3.82915">
        <ele>427.9</ele>
        <time>2026-05-21T12:47:13.999Z</time>
      </trkpt>
      <trkpt lat="43.77659" lon="3.82915">
        <ele>428.2</ele>
        <time>2026-05-21T12:47:14.999Z</time>
      </trkpt>
      <trkpt lat="43.77659" lon="3.82916">
        <ele>428.2</ele>
        <time>2026-05-21T12:47:15.999Z</time>
      </trkpt>
      <trkpt lat="43.77659" lon="3.82916">
        <ele>428.2</ele>
        <time>2026-05-21T12:47:16.999Z</time>
      </trkpt>
      <trkpt lat="43.77659" lon="3.82915">
        <ele>428.4</ele>
        <time>2026-05-21T12:47:17.999Z</time>
      </trkpt>
      <trkpt lat="43.7766" lon="3.82915">
        <ele>428.2</ele>
        <time>2026-05-21T12:47:18.999Z</time>
      </trkpt>
      <trkpt lat="43.7766" lon="3.82914">
        <ele>428.1</ele>
        <time>2026-05-21T12:47:19.999Z</time>
      </trkpt>
      <trkpt lat="43.7766" lon="3.82914">
        <ele>427.8</ele>
        <time>2026-05-21T12:47:20.999Z</time>
      </trkpt>
      <trkpt lat="43.7766" lon="3.82914">
        <ele>427.5</ele>
        <time>2026-05-21T12:47:21.999Z</time>
      </trkpt>
      <trkpt lat="43.7766" lon="3.82914">
        <ele>427.6</ele>
        <time>2026-05-21T12:47:22.999Z</time>
      </trkpt>
      <trkpt lat="43.7766" lon="3.82914">
        <ele>427.6</ele>
        <time>2026-05-21T12:47:23.999Z</time>
      </trkpt>
      <trkpt lat="43.7766" lon="3.82914">
        <ele>427.7</ele>
        <time>2026-05-21T12:47:24.999Z</time>
      </trkpt>
      <trkpt lat="43.7766" lon="3.82914">
        <ele>428</ele>
        <time>2026-05-21T12:47:25.999Z</time>
      </trkpt>
      <trkpt lat="43.7766" lon="3.82914">
        <ele>428</ele>
        <time>2026-05-21T12:47:26.999Z</time>
      </trkpt>
      <trkpt lat="43.7766" lon="3.82914">
        <ele>428.1</ele>
        <time>2026-05-21T12:47:27.999Z</time>
      </trkpt>
      <trkpt lat="43.7766" lon="3.82914">
        <ele>428.2</ele>
        <time>2026-05-21T12:47:28.999Z</time>
      </trkpt>
      <trkpt lat="43.7766" lon="3.82913">
        <ele>428</ele>
        <time>2026-05-21T12:47:29.999Z</time>
      </trkpt>
      <trkpt lat="43.7766" lon="3.82913">
        <ele>428.2</ele>
        <time>2026-05-21T12:47:30.999Z</time>
      </trkpt>
      <trkpt lat="43.7766" lon="3.82913">
        <ele>428.5</ele>
        <time>2026-05-21T12:47:31.999Z</time>
      </trkpt>
      <trkpt lat="43.7766" lon="3.82912">
        <ele>428.6</ele>
        <time>2026-05-21T12:47:32.999Z</time>
      </trkpt>
      <trkpt lat="43.77661" lon="3.82911">
        <ele>428.8</ele>
        <time>2026-05-21T12:47:33.999Z</time>
      </trkpt>
      <trkpt lat="43.77661" lon="3.8291">
        <ele>428.7</ele>
        <time>2026-05-21T12:47:34.999Z</time>
      </trkpt>
      <trkpt lat="43.77661" lon="3.8291">
        <ele>428.7</ele>
        <time>2026-05-21T12:47:35.999Z</time>
      </trkpt>
      <trkpt lat="43.77661" lon="3.82911">
        <ele>428.5</ele>
        <time>2026-05-21T12:47:36.999Z</time>
      </trkpt>
      <trkpt lat="43.77661" lon="3.8291">
        <ele>428.3</ele>
        <time>2026-05-21T12:47:37.999Z</time>
      </trkpt>
      <trkpt lat="43.77661" lon="3.8291">
        <ele>428.4</ele>
        <time>2026-05-21T12:47:38.999Z</time>
      </trkpt>
      <trkpt lat="43.77661" lon="3.8291">
        <ele>428.3</ele>
        <time>2026-05-21T12:47:39.999Z</time>
      </trkpt>
      <trkpt lat="43.77661" lon="3.8291">
        <ele>428.5</ele>
        <time>2026-05-21T12:47:40.999Z</time>
      </trkpt>
      <trkpt lat="43.77661" lon="3.8291">
        <ele>428.8</ele>
        <time>2026-05-21T12:47:41.999Z</time>
      </trkpt>
      <trkpt lat="43.77661" lon="3.8291">
        <ele>429</ele>
        <time>2026-05-21T12:47:42.999Z</time>
      </trkpt>
      <trkpt lat="43.77661" lon="3.8291">
        <ele>429.2</ele>
        <time>2026-05-21T12:47:43.999Z</time>
      </trkpt>
      <trkpt lat="43.77661" lon="3.8291">
        <ele>429.2</ele>
        <time>2026-05-21T12:47:44.999Z</time>
      </trkpt>
      <trkpt lat="43.77661" lon="3.8291">
        <ele>429.4</ele>
        <time>2026-05-21T12:47:45.999Z</time>
      </trkpt>
      <trkpt lat="43.77661" lon="3.8291">
        <ele>429.3</ele>
        <time>2026-05-21T12:47:46.999Z</time>
      </trkpt>
      <trkpt lat="43.77661" lon="3.8291">
        <ele>429.2</ele>
        <time>2026-05-21T12:47:47.999Z</time>
      </trkpt>
      <trkpt lat="43.77661" lon="3.8291">
        <ele>429.5</ele>
        <time>2026-05-21T12:47:48.999Z</time>
      </trkpt>
      <trkpt lat="43.77661" lon="3.8291">
        <ele>429.5</ele>
        <time>2026-05-21T12:47:49.999Z</time>
      </trkpt>
      <trkpt lat="43.77661" lon="3.8291">
        <ele>429.6</ele>
        <time>2026-05-21T12:47:50.999Z</time>
      </trkpt>
      <trkpt lat="43.77661" lon="3.8291">
        <ele>429.5</ele>
        <time>2026-05-21T12:47:51.999Z</time>
      </trkpt>
      <trkpt lat="43.77661" lon="3.8291">
        <ele>429.6</ele>
        <time>2026-05-21T12:47:52.999Z</time>
      </trkpt>
      <trkpt lat="43.77661" lon="3.8291">
        <ele>429.6</ele>
        <time>2026-05-21T12:47:53.999Z</time>
      </trkpt>
      <trkpt lat="43.77661" lon="3.8291">
        <ele>429.4</ele>
        <time>2026-05-21T12:47:54.999Z</time>
      </trkpt>
      <trkpt lat="43.77661" lon="3.8291">
        <ele>429.3</ele>
        <time>2026-05-21T12:47:55.999Z</time>
      </trkpt>
      <trkpt lat="43.77661" lon="3.8291">
        <ele>429.2</ele>
        <time>2026-05-21T12:47:56.999Z</time>
      </trkpt>
      <trkpt lat="43.77661" lon="3.82909">
        <ele>429.1</ele>
        <time>2026-05-21T12:47:57.999Z</time>
      </trkpt>
      <trkpt lat="43.77661" lon="3.82909">
        <ele>429.6</ele>
        <time>2026-05-21T12:47:58.999Z</time>
      </trkpt>
      <trkpt lat="43.77662" lon="3.82909">
        <ele>429.8</ele>
        <time>2026-05-21T12:47:59.999Z</time>
      </trkpt>
      <trkpt lat="43.77662" lon="3.8291">
        <ele>430.1</ele>
        <time>2026-05-21T12:48:00.999Z</time>
      </trkpt>
      <trkpt lat="43.77662" lon="3.8291">
        <ele>430.3</ele>
        <time>2026-05-21T12:48:01.999Z</time>
      </trkpt>
      <trkpt lat="43.77662" lon="3.8291">
        <ele>430.5</ele>
        <time>2026-05-21T12:48:02.999Z</time>
      </trkpt>
      <trkpt lat="43.77662" lon="3.8291">
        <ele>430.6</ele>
        <time>2026-05-21T12:48:03.999Z</time>
      </trkpt>
      <trkpt lat="43.77662" lon="3.82909">
        <ele>430.5</ele>
        <time>2026-05-21T12:48:04.999Z</time>
      </trkpt>
      <trkpt lat="43.77662" lon="3.82909">
        <ele>430.2</ele>
        <time>2026-05-21T12:48:05.999Z</time>
      </trkpt>
      <trkpt lat="43.77662" lon="3.82909">
        <ele>430</ele>
        <time>2026-05-21T12:48:06.999Z</time>
      </trkpt>
      <trkpt lat="43.77662" lon="3.82909">
        <ele>430</ele>
        <time>2026-05-21T12:48:07.999Z</time>
      </trkpt>
      <trkpt lat="43.77662" lon="3.82909">
        <ele>429.9</ele>
        <time>2026-05-21T12:48:08.999Z</time>
      </trkpt>
      <trkpt lat="43.77663" lon="3.82909">
        <ele>429.7</ele>
        <time>2026-05-21T12:48:09.999Z</time>
      </trkpt>
      <trkpt lat="43.77663" lon="3.82909">
        <ele>429.6</ele>
        <time>2026-05-21T12:48:10.999Z</time>
      </trkpt>
      <trkpt lat="43.77663" lon="3.82909">
        <ele>429.8</ele>
        <time>2026-05-21T12:48:11.999Z</time>
      </trkpt>
      <trkpt lat="43.77663" lon="3.82909">
        <ele>429.8</ele>
        <time>2026-05-21T12:48:12.999Z</time>
      </trkpt>
      <trkpt lat="43.77663" lon="3.82908">
        <ele>429.9</ele>
        <time>2026-05-21T12:48:13.999Z</time>
      </trkpt>
      <trkpt lat="43.77663" lon="3.82908">
        <ele>429.9</ele>
        <time>2026-05-21T12:48:14.999Z</time>
      </trkpt>
      <trkpt lat="43.77663" lon="3.82908">
        <ele>429.7</ele>
        <time>2026-05-21T12:48:15.999Z</time>
      </trkpt>
      <trkpt lat="43.77663" lon="3.82908">
        <ele>429.8</ele>
        <time>2026-05-21T12:48:16.999Z</time>
      </trkpt>
      <trkpt lat="43.77663" lon="3.82907">
        <ele>429.8</ele>
        <time>2026-05-21T12:48:17.999Z</time>
      </trkpt>
      <trkpt lat="43.77663" lon="3.82906">
        <ele>429.9</ele>
        <time>2026-05-21T12:48:18.999Z</time>
      </trkpt>
      <trkpt lat="43.77663" lon="3.82906">
        <ele>429.9</ele>
        <time>2026-05-21T12:48:19.999Z</time>
      </trkpt>
      <trkpt lat="43.77663" lon="3.82906">
        <ele>430.1</ele>
        <time>2026-05-21T12:48:20.999Z</time>
      </trkpt>
      <trkpt lat="43.77663" lon="3.82906">
        <ele>429.9</ele>
        <time>2026-05-21T12:48:21.999Z</time>
      </trkpt>
      <trkpt lat="43.77663" lon="3.82906">
        <ele>429.9</ele>
        <time>2026-05-21T12:48:22.999Z</time>
      </trkpt>
      <trkpt lat="43.77663" lon="3.82906">
        <ele>429.8</ele>
        <time>2026-05-21T12:48:23.999Z</time>
      </trkpt>
      <trkpt lat="43.77663" lon="3.82906">
        <ele>429.7</ele>
        <time>2026-05-21T12:48:24.999Z</time>
      </trkpt>
      <trkpt lat="43.77662" lon="3.82906">
        <ele>429.6</ele>
        <time>2026-05-21T12:48:25.999Z</time>
      </trkpt>
      <trkpt lat="43.77662" lon="3.82906">
        <ele>429.7</ele>
        <time>2026-05-21T12:48:26.999Z</time>
      </trkpt>
      <trkpt lat="43.77662" lon="3.82905">
        <ele>429.8</ele>
        <time>2026-05-21T12:48:27.999Z</time>
      </trkpt>
      <trkpt lat="43.77662" lon="3.82905">
        <ele>429.8</ele>
        <time>2026-05-21T12:48:28.999Z</time>
      </trkpt>
      <trkpt lat="43.77662" lon="3.82905">
        <ele>429.8</ele>
        <time>2026-05-21T12:48:29.999Z</time>
      </trkpt>
      <trkpt lat="43.77662" lon="3.82905">
        <ele>429.9</ele>
        <time>2026-05-21T12:48:30.999Z</time>
      </trkpt>
      <trkpt lat="43.77662" lon="3.82905">
        <ele>429.9</ele>
        <time>2026-05-21T12:48:31.999Z</time>
      </trkpt>
      <trkpt lat="43.77662" lon="3.82905">
        <ele>429.8</ele>
        <time>2026-05-21T12:48:32.999Z</time>
      </trkpt>
      <trkpt lat="43.77662" lon="3.82905">
        <ele>430.1</ele>
        <time>2026-05-21T12:48:33.999Z</time>
      </trkpt>
      <trkpt lat="43.77662" lon="3.82905">
        <ele>430.3</ele>
        <time>2026-05-21T12:48:34.999Z</time>
      </trkpt>
      <trkpt lat="43.77662" lon="3.82905">
        <ele>430.2</ele>
        <time>2026-05-21T12:48:35.999Z</time>
      </trkpt>
      <trkpt lat="43.77662" lon="3.82905">
        <ele>430.1</ele>
        <time>2026-05-21T12:48:36.999Z</time>
      </trkpt>
      <trkpt lat="43.77662" lon="3.82904">
        <ele>430</ele>
        <time>2026-05-21T12:48:37.999Z</time>
      </trkpt>
      <trkpt lat="43.77662" lon="3.82904">
        <ele>430.1</ele>
        <time>2026-05-21T12:48:38.999Z</time>
      </trkpt>
      <trkpt lat="43.77662" lon="3.82904">
        <ele>430.1</ele>
        <time>2026-05-21T12:48:39.999Z</time>
      </trkpt>
      <trkpt lat="43.77662" lon="3.82904">
        <ele>429.8</ele>
        <time>2026-05-21T12:48:40.999Z</time>
      </trkpt>
      <trkpt lat="43.77662" lon="3.82904">
        <ele>429.6</ele>
        <time>2026-05-21T12:48:41.999Z</time>
      </trkpt>
      <trkpt lat="43.77662" lon="3.82904">
        <ele>429.4</ele>
        <time>2026-05-21T12:48:42.999Z</time>
      </trkpt>
      <trkpt lat="43.77662" lon="3.82904">
        <ele>429.1</ele>
        <time>2026-05-21T12:48:43.999Z</time>
      </trkpt>
      <trkpt lat="43.77662" lon="3.82904">
        <ele>429</ele>
        <time>2026-05-21T12:48:44.999Z</time>
      </trkpt>
      <trkpt lat="43.77662" lon="3.82904">
        <ele>429.2</ele>
        <time>2026-05-21T12:48:45.999Z</time>
      </trkpt>
      <trkpt lat="43.77662" lon="3.82904">
        <ele>429.4</ele>
        <time>2026-05-21T12:48:46.999Z</time>
      </trkpt>
      <trkpt lat="43.77662" lon="3.82904">
        <ele>429.3</ele>
        <time>2026-05-21T12:48:47.999Z</time>
      </trkpt>
      <trkpt lat="43.77662" lon="3.82904">
        <ele>429.2</ele>
        <time>2026-05-21T12:48:48.999Z</time>
      </trkpt>
      <trkpt lat="43.77662" lon="3.82904">
        <ele>429.2</ele>
        <time>2026-05-21T12:48:49.999Z</time>
      </trkpt>
      <trkpt lat="43.77662" lon="3.82904">
        <ele>429.5</ele>
        <time>2026-05-21T12:48:50.999Z</time>
      </trkpt>
      <trkpt lat="43.77662" lon="3.82903">
        <ele>429.5</ele>
        <time>2026-05-21T12:48:51.999Z</time>
      </trkpt>
      <trkpt lat="43.77662" lon="3.82903">
        <ele>429.5</ele>
        <time>2026-05-21T12:48:52.999Z</time>
      </trkpt>
      <trkpt lat="43.77662" lon="3.82903">
        <ele>429.6</ele>
        <time>2026-05-21T12:48:53.999Z</time>
      </trkpt>
      <trkpt lat="43.77662" lon="3.82903">
        <ele>429.9</ele>
        <time>2026-05-21T12:48:54.999Z</time>
      </trkpt>
      <trkpt lat="43.77662" lon="3.82903">
        <ele>430.1</ele>
        <time>2026-05-21T12:48:55.999Z</time>
      </trkpt>
      <trkpt lat="43.77662" lon="3.82902">
        <ele>429.7</ele>
        <time>2026-05-21T12:48:56.999Z</time>
      </trkpt>
      <trkpt lat="43.77662" lon="3.82902">
        <ele>429.4</ele>
        <time>2026-05-21T12:48:57.999Z</time>
      </trkpt>
      <trkpt lat="43.77662" lon="3.82902">
        <ele>429.2</ele>
        <time>2026-05-21T12:48:58.999Z</time>
      </trkpt>
      <trkpt lat="43.77662" lon="3.82902">
        <ele>429.2</ele>
        <time>2026-05-21T12:48:59.999Z</time>
      </trkpt>
      <trkpt lat="43.77662" lon="3.82902">
        <ele>429.2</ele>
        <time>2026-05-21T12:49:00.999Z</time>
      </trkpt>
      <trkpt lat="43.77662" lon="3.82902">
        <ele>429.2</ele>
        <time>2026-05-21T12:49:01.999Z</time>
      </trkpt>
      <trkpt lat="43.77662" lon="3.82902">
        <ele>429.3</ele>
        <time>2026-05-21T12:49:02.999Z</time>
      </trkpt>
      <trkpt lat="43.77662" lon="3.82902">
        <ele>429.2</ele>
        <time>2026-05-21T12:49:03.999Z</time>
      </trkpt>
      <trkpt lat="43.77662" lon="3.82902">
        <ele>429.1</ele>
        <time>2026-05-21T12:49:04.999Z</time>
      </trkpt>
      <trkpt lat="43.77662" lon="3.82901">
        <ele>428.9</ele>
        <time>2026-05-21T12:49:06.000Z</time>
      </trkpt>
      <trkpt lat="43.77662" lon="3.82901">
        <ele>428.5</ele>
        <time>2026-05-21T12:49:07.000Z</time>
      </trkpt>
      <trkpt lat="43.77662" lon="3.829">
        <ele>428.3</ele>
        <time>2026-05-21T12:49:08.000Z</time>
      </trkpt>
      <trkpt lat="43.77662" lon="3.82898">
        <ele>428.1</ele>
        <time>2026-05-21T12:49:09.000Z</time>
      </trkpt>
      <trkpt lat="43.77661" lon="3.82897">
        <ele>428.2</ele>
        <time>2026-05-21T12:49:10.000Z</time>
      </trkpt>
      <trkpt lat="43.77661" lon="3.82897">
        <ele>428.1</ele>
        <time>2026-05-21T12:49:11.000Z</time>
      </trkpt>
      <trkpt lat="43.77661" lon="3.82897">
        <ele>427.9</ele>
        <time>2026-05-21T12:49:12.000Z</time>
      </trkpt>
      <trkpt lat="43.77661" lon="3.82897">
        <ele>428.1</ele>
        <time>2026-05-21T12:49:13.000Z</time>
      </trkpt>
      <trkpt lat="43.77661" lon="3.82897">
        <ele>428.2</ele>
        <time>2026-05-21T12:49:14.000Z</time>
      </trkpt>
      <trkpt lat="43.77661" lon="3.82897">
        <ele>428.3</ele>
        <time>2026-05-21T12:49:15.000Z</time>
      </trkpt>
      <trkpt lat="43.77661" lon="3.82897">
        <ele>428</ele>
        <time>2026-05-21T12:49:16.000Z</time>
      </trkpt>
      <trkpt lat="43.77661" lon="3.82895">
        <ele>427.9</ele>
        <time>2026-05-21T12:49:17.000Z</time>
      </trkpt>
      <trkpt lat="43.77661" lon="3.82894">
        <ele>428.3</ele>
        <time>2026-05-21T12:49:18.000Z</time>
      </trkpt>
      <trkpt lat="43.77661" lon="3.82894">
        <ele>428.6</ele>
        <time>2026-05-21T12:49:19.000Z</time>
      </trkpt>
      <trkpt lat="43.77661" lon="3.82893">
        <ele>428.6</ele>
        <time>2026-05-21T12:49:20.000Z</time>
      </trkpt>
      <trkpt lat="43.77661" lon="3.82893">
        <ele>428.3</ele>
        <time>2026-05-21T12:49:21.000Z</time>
      </trkpt>
      <trkpt lat="43.77661" lon="3.82893">
        <ele>428.1</ele>
        <time>2026-05-21T12:49:22.000Z</time>
      </trkpt>
      <trkpt lat="43.77661" lon="3.82893">
        <ele>428</ele>
        <time>2026-05-21T12:49:23.000Z</time>
      </trkpt>
      <trkpt lat="43.77661" lon="3.82893">
        <ele>427.9</ele>
        <time>2026-05-21T12:49:24.000Z</time>
      </trkpt>
      <trkpt lat="43.77661" lon="3.82893">
        <ele>428</ele>
        <time>2026-05-21T12:49:25.000Z</time>
      </trkpt>
      <trkpt lat="43.77661" lon="3.82893">
        <ele>427.8</ele>
        <time>2026-05-21T12:49:26.000Z</time>
      </trkpt>
      <trkpt lat="43.77661" lon="3.82893">
        <ele>427.8</ele>
        <time>2026-05-21T12:49:27.000Z</time>
      </trkpt>
      <trkpt lat="43.77661" lon="3.82893">
        <ele>427.8</ele>
        <time>2026-05-21T12:49:28.000Z</time>
      </trkpt>
      <trkpt lat="43.77661" lon="3.82893">
        <ele>427.7</ele>
        <time>2026-05-21T12:49:29.000Z</time>
      </trkpt>
      <trkpt lat="43.77661" lon="3.82893">
        <ele>427.6</ele>
        <time>2026-05-21T12:49:30.000Z</time>
      </trkpt>
      <trkpt lat="43.77661" lon="3.82893">
        <ele>427.9</ele>
        <time>2026-05-21T12:49:31.000Z</time>
      </trkpt>
      <trkpt lat="43.77661" lon="3.82893">
        <ele>427.9</ele>
        <time>2026-05-21T12:49:32.000Z</time>
      </trkpt>
      <trkpt lat="43.77661" lon="3.82892">
        <ele>428.2</ele>
        <time>2026-05-21T12:49:33.000Z</time>
      </trkpt>
      <trkpt lat="43.77661" lon="3.82892">
        <ele>428.5</ele>
        <time>2026-05-21T12:49:34.000Z</time>
      </trkpt>
      <trkpt lat="43.77661" lon="3.82892">
        <ele>428.6</ele>
        <time>2026-05-21T12:49:35.000Z</time>
      </trkpt>
      <trkpt lat="43.77661" lon="3.82892">
        <ele>428.5</ele>
        <time>2026-05-21T12:49:36.000Z</time>
      </trkpt>
      <trkpt lat="43.77661" lon="3.82892">
        <ele>428.4</ele>
        <time>2026-05-21T12:49:37.000Z</time>
      </trkpt>
      <trkpt lat="43.77661" lon="3.82892">
        <ele>428.3</ele>
        <time>2026-05-21T12:49:38.000Z</time>
      </trkpt>
      <trkpt lat="43.77661" lon="3.82892">
        <ele>427.8</ele>
        <time>2026-05-21T12:49:39.000Z</time>
      </trkpt>
      <trkpt lat="43.77661" lon="3.82891">
        <ele>427.6</ele>
        <time>2026-05-21T12:49:40.000Z</time>
      </trkpt>
      <trkpt lat="43.77661" lon="3.82891">
        <ele>427.3</ele>
        <time>2026-05-21T12:49:41.000Z</time>
      </trkpt>
      <trkpt lat="43.77661" lon="3.82891">
        <ele>427</ele>
        <time>2026-05-21T12:49:42.000Z</time>
      </trkpt>
      <trkpt lat="43.77661" lon="3.82891">
        <ele>426.7</ele>
        <time>2026-05-21T12:49:43.000Z</time>
      </trkpt>
      <trkpt lat="43.77661" lon="3.82891">
        <ele>426.4</ele>
        <time>2026-05-21T12:49:44.000Z</time>
      </trkpt>
      <trkpt lat="43.77661" lon="3.8289">
        <ele>426.5</ele>
        <time>2026-05-21T12:49:45.000Z</time>
      </trkpt>
      <trkpt lat="43.77661" lon="3.8289">
        <ele>426.2</ele>
        <time>2026-05-21T12:49:46.000Z</time>
      </trkpt>
      <trkpt lat="43.77661" lon="3.8289">
        <ele>425.9</ele>
        <time>2026-05-21T12:49:47.000Z</time>
      </trkpt>
      <trkpt lat="43.77661" lon="3.8289">
        <ele>425.6</ele>
        <time>2026-05-21T12:49:48.000Z</time>
      </trkpt>
      <trkpt lat="43.7766" lon="3.8289">
        <ele>425.5</ele>
        <time>2026-05-21T12:49:49.000Z</time>
      </trkpt>
      <trkpt lat="43.7766" lon="3.8289">
        <ele>425.3</ele>
        <time>2026-05-21T12:49:50.000Z</time>
      </trkpt>
      <trkpt lat="43.7766" lon="3.8289">
        <ele>425</ele>
        <time>2026-05-21T12:49:51.000Z</time>
      </trkpt>
      <trkpt lat="43.7766" lon="3.8289">
        <ele>425</ele>
        <time>2026-05-21T12:49:52.000Z</time>
      </trkpt>
      <trkpt lat="43.7766" lon="3.8289">
        <ele>425</ele>
        <time>2026-05-21T12:49:53.000Z</time>
      </trkpt>
      <trkpt lat="43.7766" lon="3.8289">
        <ele>425</ele>
        <time>2026-05-21T12:49:54.000Z</time>
      </trkpt>
      <trkpt lat="43.7766" lon="3.8289">
        <ele>425</ele>
        <time>2026-05-21T12:49:55.000Z</time>
      </trkpt>
      <trkpt lat="43.7766" lon="3.8289">
        <ele>425.1</ele>
        <time>2026-05-21T12:49:56.000Z</time>
      </trkpt>
      <trkpt lat="43.7766" lon="3.8289">
        <ele>425.2</ele>
        <time>2026-05-21T12:49:57.000Z</time>
      </trkpt>
      <trkpt lat="43.7766" lon="3.8289">
        <ele>425.3</ele>
        <time>2026-05-21T12:49:58.000Z</time>
      </trkpt>
      <trkpt lat="43.7766" lon="3.8289">
        <ele>425.5</ele>
        <time>2026-05-21T12:49:59.000Z</time>
      </trkpt>
      <trkpt lat="43.7766" lon="3.8289">
        <ele>425.5</ele>
        <time>2026-05-21T12:50:00.000Z</time>
      </trkpt>
      <trkpt lat="43.7766" lon="3.8289">
        <ele>425.3</ele>
        <time>2026-05-21T12:50:01.000Z</time>
      </trkpt>
      <trkpt lat="43.7766" lon="3.8289">
        <ele>425</ele>
        <time>2026-05-21T12:50:02.000Z</time>
      </trkpt>
      <trkpt lat="43.7766" lon="3.8289">
        <ele>425</ele>
        <time>2026-05-21T12:50:03.000Z</time>
      </trkpt>
      <trkpt lat="43.7766" lon="3.8289">
        <ele>425.3</ele>
        <time>2026-05-21T12:50:04.000Z</time>
      </trkpt>
      <trkpt lat="43.7766" lon="3.8289">
        <ele>425.3</ele>
        <time>2026-05-21T12:50:05.000Z</time>
      </trkpt>
      <trkpt lat="43.7766" lon="3.8289">
        <ele>425.5</ele>
        <time>2026-05-21T12:50:06.000Z</time>
      </trkpt>
      <trkpt lat="43.7766" lon="3.8289">
        <ele>425.2</ele>
        <time>2026-05-21T12:50:07.000Z</time>
      </trkpt>
      <trkpt lat="43.7766" lon="3.8289">
        <ele>425.2</ele>
        <time>2026-05-21T12:50:08.000Z</time>
      </trkpt>
      <trkpt lat="43.7766" lon="3.8289">
        <ele>425.1</ele>
        <time>2026-05-21T12:50:09.000Z</time>
      </trkpt>
      <trkpt lat="43.7766" lon="3.8289">
        <ele>425.2</ele>
        <time>2026-05-21T12:50:10.000Z</time>
      </trkpt>
      <trkpt lat="43.77659" lon="3.8289">
        <ele>425.2</ele>
        <time>2026-05-21T12:50:11.000Z</time>
      </trkpt>
      <trkpt lat="43.7766" lon="3.82889">
        <ele>425.2</ele>
        <time>2026-05-21T12:50:12.000Z</time>
      </trkpt>
      <trkpt lat="43.7766" lon="3.82889">
        <ele>425.3</ele>
        <time>2026-05-21T12:50:13.000Z</time>
      </trkpt>
      <trkpt lat="43.7766" lon="3.82889">
        <ele>425.3</ele>
        <time>2026-05-21T12:50:14.000Z</time>
      </trkpt>
      <trkpt lat="43.7766" lon="3.82889">
        <ele>425.3</ele>
        <time>2026-05-21T12:50:15.000Z</time>
      </trkpt>
      <trkpt lat="43.7766" lon="3.82889">
        <ele>425.2</ele>
        <time>2026-05-21T12:50:16.000Z</time>
      </trkpt>
      <trkpt lat="43.7766" lon="3.82889">
        <ele>425.2</ele>
        <time>2026-05-21T12:50:17.000Z</time>
      </trkpt>
      <trkpt lat="43.7766" lon="3.82888">
        <ele>424.9</ele>
        <time>2026-05-21T12:50:18.000Z</time>
      </trkpt>
      <trkpt lat="43.7766" lon="3.82888">
        <ele>424.6</ele>
        <time>2026-05-21T12:50:19.000Z</time>
      </trkpt>
      <trkpt lat="43.7766" lon="3.82888">
        <ele>424.5</ele>
        <time>2026-05-21T12:50:20.000Z</time>
      </trkpt>
      <trkpt lat="43.7766" lon="3.82888">
        <ele>424.7</ele>
        <time>2026-05-21T12:50:21.000Z</time>
      </trkpt>
      <trkpt lat="43.7766" lon="3.82888">
        <ele>424.7</ele>
        <time>2026-05-21T12:50:22.000Z</time>
      </trkpt>
      <trkpt lat="43.7766" lon="3.82888">
        <ele>424.7</ele>
        <time>2026-05-21T12:50:23.000Z</time>
      </trkpt>
      <trkpt lat="43.7766" lon="3.82888">
        <ele>424.8</ele>
        <time>2026-05-21T12:50:24.000Z</time>
      </trkpt>
      <trkpt lat="43.7766" lon="3.82888">
        <ele>424.2</ele>
        <time>2026-05-21T12:50:25.000Z</time>
      </trkpt>
      <trkpt lat="43.7766" lon="3.82888">
        <ele>423.8</ele>
        <time>2026-05-21T12:50:26.000Z</time>
      </trkpt>
      <trkpt lat="43.7766" lon="3.82888">
        <ele>423.6</ele>
        <time>2026-05-21T12:50:27.000Z</time>
      </trkpt>
      <trkpt lat="43.7766" lon="3.82888">
        <ele>423.3</ele>
        <time>2026-05-21T12:50:28.000Z</time>
      </trkpt>
      <trkpt lat="43.7766" lon="3.82888">
        <ele>423</ele>
        <time>2026-05-21T12:50:29.000Z</time>
      </trkpt>
      <trkpt lat="43.7766" lon="3.82887">
        <ele>422.8</ele>
        <time>2026-05-21T12:50:30.000Z</time>
      </trkpt>
      <trkpt lat="43.7766" lon="3.82887">
        <ele>422.7</ele>
        <time>2026-05-21T12:50:31.000Z</time>
      </trkpt>
      <trkpt lat="43.7766" lon="3.82887">
        <ele>423.1</ele>
        <time>2026-05-21T12:50:32.000Z</time>
      </trkpt>
      <trkpt lat="43.7766" lon="3.82887">
        <ele>423.4</ele>
        <time>2026-05-21T12:50:33.000Z</time>
      </trkpt>
      <trkpt lat="43.7766" lon="3.82887">
        <ele>423.5</ele>
        <time>2026-05-21T12:50:34.000Z</time>
      </trkpt>
      <trkpt lat="43.7766" lon="3.82887">
        <ele>423.6</ele>
        <time>2026-05-21T12:50:35.000Z</time>
      </trkpt>
      <trkpt lat="43.7766" lon="3.82887">
        <ele>423.5</ele>
        <time>2026-05-21T12:50:36.000Z</time>
      </trkpt>
      <trkpt lat="43.7766" lon="3.82887">
        <ele>423.7</ele>
        <time>2026-05-21T12:50:37.000Z</time>
      </trkpt>
      <trkpt lat="43.7766" lon="3.82887">
        <ele>423.9</ele>
        <time>2026-05-21T12:50:38.000Z</time>
      </trkpt>
      <trkpt lat="43.7766" lon="3.82886">
        <ele>423.6</ele>
        <time>2026-05-21T12:50:39.000Z</time>
      </trkpt>
      <trkpt lat="43.7766" lon="3.82886">
        <ele>423.2</ele>
        <time>2026-05-21T12:50:40.000Z</time>
      </trkpt>
      <trkpt lat="43.7766" lon="3.82886">
        <ele>423</ele>
        <time>2026-05-21T12:50:41.000Z</time>
      </trkpt>
      <trkpt lat="43.7766" lon="3.82885">
        <ele>422.8</ele>
        <time>2026-05-21T12:50:42.000Z</time>
      </trkpt>
      <trkpt lat="43.7766" lon="3.82885">
        <ele>422.5</ele>
        <time>2026-05-21T12:50:43.000Z</time>
      </trkpt>
      <trkpt lat="43.7766" lon="3.82884">
        <ele>422.5</ele>
        <time>2026-05-21T12:50:44.000Z</time>
      </trkpt>
      <trkpt lat="43.7766" lon="3.82884">
        <ele>422.5</ele>
        <time>2026-05-21T12:50:45.000Z</time>
      </trkpt>
      <trkpt lat="43.7766" lon="3.82883">
        <ele>422.6</ele>
        <time>2026-05-21T12:50:46.000Z</time>
      </trkpt>
      <trkpt lat="43.7766" lon="3.82883">
        <ele>422.5</ele>
        <time>2026-05-21T12:50:47.000Z</time>
      </trkpt>
      <trkpt lat="43.7766" lon="3.82883">
        <ele>422.5</ele>
        <time>2026-05-21T12:50:48.000Z</time>
      </trkpt>
      <trkpt lat="43.7766" lon="3.82883">
        <ele>422.6</ele>
        <time>2026-05-21T12:50:49.000Z</time>
      </trkpt>
      <trkpt lat="43.7766" lon="3.82883">
        <ele>422.7</ele>
        <time>2026-05-21T12:50:50.000Z</time>
      </trkpt>
      <trkpt lat="43.7766" lon="3.82883">
        <ele>422.6</ele>
        <time>2026-05-21T12:50:51.000Z</time>
      </trkpt>
      <trkpt lat="43.7766" lon="3.82883">
        <ele>422.5</ele>
        <time>2026-05-21T12:50:52.000Z</time>
      </trkpt>
      <trkpt lat="43.7766" lon="3.82883">
        <ele>422.6</ele>
        <time>2026-05-21T12:50:53.000Z</time>
      </trkpt>
      <trkpt lat="43.7766" lon="3.82883">
        <ele>422.6</ele>
        <time>2026-05-21T12:50:54.000Z</time>
      </trkpt>
      <trkpt lat="43.7766" lon="3.82883">
        <ele>422.6</ele>
        <time>2026-05-21T12:50:55.000Z</time>
      </trkpt>
      <trkpt lat="43.7766" lon="3.82883">
        <ele>422.4</ele>
        <time>2026-05-21T12:50:56.000Z</time>
      </trkpt>
      <trkpt lat="43.7766" lon="3.82882">
        <ele>422.4</ele>
        <time>2026-05-21T12:50:57.000Z</time>
      </trkpt>
      <trkpt lat="43.7766" lon="3.82882">
        <ele>422.3</ele>
        <time>2026-05-21T12:50:58.000Z</time>
      </trkpt>
      <trkpt lat="43.7766" lon="3.82882">
        <ele>422.4</ele>
        <time>2026-05-21T12:50:59.000Z</time>
      </trkpt>
      <trkpt lat="43.7766" lon="3.82882">
        <ele>422.2</ele>
        <time>2026-05-21T12:51:00.000Z</time>
      </trkpt>
      <trkpt lat="43.7766" lon="3.82882">
        <ele>422.4</ele>
        <time>2026-05-21T12:51:01.000Z</time>
      </trkpt>
      <trkpt lat="43.7766" lon="3.82882">
        <ele>422.7</ele>
        <time>2026-05-21T12:51:02.000Z</time>
      </trkpt>
      <trkpt lat="43.7766" lon="3.82882">
        <ele>422.9</ele>
        <time>2026-05-21T12:51:03.000Z</time>
      </trkpt>
      <trkpt lat="43.7766" lon="3.82882">
        <ele>423.1</ele>
        <time>2026-05-21T12:51:04.000Z</time>
      </trkpt>
      <trkpt lat="43.7766" lon="3.82881">
        <ele>423.3</ele>
        <time>2026-05-21T12:51:05.000Z</time>
      </trkpt>
      <trkpt lat="43.7766" lon="3.82881">
        <ele>423.3</ele>
        <time>2026-05-21T12:51:06.000Z</time>
      </trkpt>
      <trkpt lat="43.7766" lon="3.82881">
        <ele>423.3</ele>
        <time>2026-05-21T12:51:07.000Z</time>
      </trkpt>
      <trkpt lat="43.7766" lon="3.82881">
        <ele>423.2</ele>
        <time>2026-05-21T12:51:08.000Z</time>
      </trkpt>
      <trkpt lat="43.7766" lon="3.82881">
        <ele>422.9</ele>
        <time>2026-05-21T12:51:09.000Z</time>
      </trkpt>
      <trkpt lat="43.7766" lon="3.82881">
        <ele>422.4</ele>
        <time>2026-05-21T12:51:10.000Z</time>
      </trkpt>
      <trkpt lat="43.7766" lon="3.82881">
        <ele>422.1</ele>
        <time>2026-05-21T12:51:11.000Z</time>
      </trkpt>
      <trkpt lat="43.7766" lon="3.82881">
        <ele>421.8</ele>
        <time>2026-05-21T12:51:12.000Z</time>
      </trkpt>
      <trkpt lat="43.7766" lon="3.82881">
        <ele>421.8</ele>
        <time>2026-05-21T12:51:13.000Z</time>
      </trkpt>
      <trkpt lat="43.7766" lon="3.82881">
        <ele>421.7</ele>
        <time>2026-05-21T12:51:14.000Z</time>
      </trkpt>
      <trkpt lat="43.7766" lon="3.82881">
        <ele>421.8</ele>
        <time>2026-05-21T12:51:15.000Z</time>
      </trkpt>
      <trkpt lat="43.7766" lon="3.82881">
        <ele>421.5</ele>
        <time>2026-05-21T12:51:16.000Z</time>
      </trkpt>
      <trkpt lat="43.7766" lon="3.82881">
        <ele>421.6</ele>
        <time>2026-05-21T12:51:17.000Z</time>
      </trkpt>
      <trkpt lat="43.7766" lon="3.82881">
        <ele>421.9</ele>
        <time>2026-05-21T12:51:18.000Z</time>
      </trkpt>
      <trkpt lat="43.7766" lon="3.8288">
        <ele>421.9</ele>
        <time>2026-05-21T12:51:19.000Z</time>
      </trkpt>
      <trkpt lat="43.7766" lon="3.8288">
        <ele>421.9</ele>
        <time>2026-05-21T12:51:20.000Z</time>
      </trkpt>
      <trkpt lat="43.7766" lon="3.8288">
        <ele>421.9</ele>
        <time>2026-05-21T12:51:21.000Z</time>
      </trkpt>
      <trkpt lat="43.7766" lon="3.8288">
        <ele>422</ele>
        <time>2026-05-21T12:51:22.000Z</time>
      </trkpt>
      <trkpt lat="43.7766" lon="3.8288">
        <ele>422.1</ele>
        <time>2026-05-21T12:51:23.000Z</time>
      </trkpt>
      <trkpt lat="43.7766" lon="3.82879">
        <ele>422.2</ele>
        <time>2026-05-21T12:51:24.000Z</time>
      </trkpt>
      <trkpt lat="43.7766" lon="3.82879">
        <ele>422.2</ele>
        <time>2026-05-21T12:51:25.000Z</time>
      </trkpt>
      <trkpt lat="43.7766" lon="3.82879">
        <ele>422</ele>
        <time>2026-05-21T12:51:26.000Z</time>
      </trkpt>
      <trkpt lat="43.7766" lon="3.82878">
        <ele>422.1</ele>
        <time>2026-05-21T12:51:27.000Z</time>
      </trkpt>
      <trkpt lat="43.7766" lon="3.82878">
        <ele>421.7</ele>
        <time>2026-05-21T12:51:28.000Z</time>
      </trkpt>
      <trkpt lat="43.7766" lon="3.82878">
        <ele>421.5</ele>
        <time>2026-05-21T12:51:29.000Z</time>
      </trkpt>
      <trkpt lat="43.7766" lon="3.82877">
        <ele>421.3</ele>
        <time>2026-05-21T12:51:30.000Z</time>
      </trkpt>
      <trkpt lat="43.7766" lon="3.82875">
        <ele>420.9</ele>
        <time>2026-05-21T12:51:31.000Z</time>
      </trkpt>
      <trkpt lat="43.7766" lon="3.82874">
        <ele>420.8</ele>
        <time>2026-05-21T12:51:32.000Z</time>
      </trkpt>
      <trkpt lat="43.77659" lon="3.82873">
        <ele>420.8</ele>
        <time>2026-05-21T12:51:33.000Z</time>
      </trkpt>
      <trkpt lat="43.77659" lon="3.82872">
        <ele>420.8</ele>
        <time>2026-05-21T12:51:34.000Z</time>
      </trkpt>
      <trkpt lat="43.77659" lon="3.82872">
        <ele>420.8</ele>
        <time>2026-05-21T12:51:35.000Z</time>
      </trkpt>
      <trkpt lat="43.77659" lon="3.82872">
        <ele>420.7</ele>
        <time>2026-05-21T12:51:36.000Z</time>
      </trkpt>
      <trkpt lat="43.77659" lon="3.82872">
        <ele>420.5</ele>
        <time>2026-05-21T12:51:37.000Z</time>
      </trkpt>
      <trkpt lat="43.77659" lon="3.82872">
        <ele>420.3</ele>
        <time>2026-05-21T12:51:38.000Z</time>
      </trkpt>
      <trkpt lat="43.77659" lon="3.82872">
        <ele>420.3</ele>
        <time>2026-05-21T12:51:39.000Z</time>
      </trkpt>
      <trkpt lat="43.77659" lon="3.82871">
        <ele>419.9</ele>
        <time>2026-05-21T12:51:40.000Z</time>
      </trkpt>
      <trkpt lat="43.77659" lon="3.82871">
        <ele>419.9</ele>
        <time>2026-05-21T12:51:41.000Z</time>
      </trkpt>
      <trkpt lat="43.77659" lon="3.82871">
        <ele>419.9</ele>
        <time>2026-05-21T12:51:42.000Z</time>
      </trkpt>
      <trkpt lat="43.77659" lon="3.82871">
        <ele>419.6</ele>
        <time>2026-05-21T12:51:43.000Z</time>
      </trkpt>
      <trkpt lat="43.77659" lon="3.82871">
        <ele>419.5</ele>
        <time>2026-05-21T12:51:44.000Z</time>
      </trkpt>
      <trkpt lat="43.77659" lon="3.82871">
        <ele>419.2</ele>
        <time>2026-05-21T12:51:45.000Z</time>
      </trkpt>
      <trkpt lat="43.77659" lon="3.82871">
        <ele>418.9</ele>
        <time>2026-05-21T12:51:46.000Z</time>
      </trkpt>
      <trkpt lat="43.77659" lon="3.8287">
        <ele>418.6</ele>
        <time>2026-05-21T12:51:47.000Z</time>
      </trkpt>
      <trkpt lat="43.77659" lon="3.8287">
        <ele>419.2</ele>
        <time>2026-05-21T12:51:48.000Z</time>
      </trkpt>
      <trkpt lat="43.77659" lon="3.8287">
        <ele>419.2</ele>
        <time>2026-05-21T12:51:49.000Z</time>
      </trkpt>
      <trkpt lat="43.77659" lon="3.8287">
        <ele>419.1</ele>
        <time>2026-05-21T12:51:50.000Z</time>
      </trkpt>
      <trkpt lat="43.77659" lon="3.82869">
        <ele>418.9</ele>
        <time>2026-05-21T12:51:51.000Z</time>
      </trkpt>
      <trkpt lat="43.77659" lon="3.82869">
        <ele>418.7</ele>
        <time>2026-05-21T12:51:52.000Z</time>
      </trkpt>
      <trkpt lat="43.77659" lon="3.82869">
        <ele>418.7</ele>
        <time>2026-05-21T12:51:53.000Z</time>
      </trkpt>
      <trkpt lat="43.77659" lon="3.82868">
        <ele>418.9</ele>
        <time>2026-05-21T12:51:54.000Z</time>
      </trkpt>
      <trkpt lat="43.77659" lon="3.82868">
        <ele>418.8</ele>
        <time>2026-05-21T12:51:55.000Z</time>
      </trkpt>
      <trkpt lat="43.77659" lon="3.82868">
        <ele>418.7</ele>
        <time>2026-05-21T12:51:56.000Z</time>
      </trkpt>
      <trkpt lat="43.77659" lon="3.82868">
        <ele>418.6</ele>
        <time>2026-05-21T12:51:57.000Z</time>
      </trkpt>
      <trkpt lat="43.77659" lon="3.82868">
        <ele>418.6</ele>
        <time>2026-05-21T12:51:58.000Z</time>
      </trkpt>
      <trkpt lat="43.77659" lon="3.82868">
        <ele>418.7</ele>
        <time>2026-05-21T12:51:59.000Z</time>
      </trkpt>
      <trkpt lat="43.77659" lon="3.82868">
        <ele>419</ele>
        <time>2026-05-21T12:52:00.000Z</time>
      </trkpt>
      <trkpt lat="43.77658" lon="3.82867">
        <ele>418.7</ele>
        <time>2026-05-21T12:52:01.000Z</time>
      </trkpt>
      <trkpt lat="43.77658" lon="3.82867">
        <ele>418.5</ele>
        <time>2026-05-21T12:52:02.000Z</time>
      </trkpt>
      <trkpt lat="43.77658" lon="3.82867">
        <ele>418.5</ele>
        <time>2026-05-21T12:52:03.000Z</time>
      </trkpt>
      <trkpt lat="43.77658" lon="3.82867">
        <ele>418.2</ele>
        <time>2026-05-21T12:52:04.000Z</time>
      </trkpt>
      <trkpt lat="43.77658" lon="3.82866">
        <ele>418.3</ele>
        <time>2026-05-21T12:52:05.000Z</time>
      </trkpt>
      <trkpt lat="43.77658" lon="3.82866">
        <ele>418.1</ele>
        <time>2026-05-21T12:52:06.000Z</time>
      </trkpt>
      <trkpt lat="43.77658" lon="3.82866">
        <ele>417.9</ele>
        <time>2026-05-21T12:52:07.000Z</time>
      </trkpt>
      <trkpt lat="43.77658" lon="3.82865">
        <ele>417.5</ele>
        <time>2026-05-21T12:52:08.000Z</time>
      </trkpt>
      <trkpt lat="43.77658" lon="3.82865">
        <ele>417.2</ele>
        <time>2026-05-21T12:52:09.000Z</time>
      </trkpt>
      <trkpt lat="43.77658" lon="3.82865">
        <ele>416.9</ele>
        <time>2026-05-21T12:52:10.000Z</time>
      </trkpt>
      <trkpt lat="43.77658" lon="3.82865">
        <ele>416.3</ele>
        <time>2026-05-21T12:52:11.000Z</time>
      </trkpt>
      <trkpt lat="43.77658" lon="3.82865">
        <ele>416</ele>
        <time>2026-05-21T12:52:12.000Z</time>
      </trkpt>
      <trkpt lat="43.77658" lon="3.82865">
        <ele>415.8</ele>
        <time>2026-05-21T12:52:13.000Z</time>
      </trkpt>
      <trkpt lat="43.77658" lon="3.82865">
        <ele>415.8</ele>
        <time>2026-05-21T12:52:14.000Z</time>
      </trkpt>
      <trkpt lat="43.77658" lon="3.82865">
        <ele>415.9</ele>
        <time>2026-05-21T12:52:15.000Z</time>
      </trkpt>
      <trkpt lat="43.77658" lon="3.82865">
        <ele>415.9</ele>
        <time>2026-05-21T12:52:16.000Z</time>
      </trkpt>
      <trkpt lat="43.77658" lon="3.82865">
        <ele>415.9</ele>
        <time>2026-05-21T12:52:17.000Z</time>
      </trkpt>
      <trkpt lat="43.77658" lon="3.82865">
        <ele>416</ele>
        <time>2026-05-21T12:52:18.000Z</time>
      </trkpt>
      <trkpt lat="43.77658" lon="3.82865">
        <ele>416.3</ele>
        <time>2026-05-21T12:52:19.000Z</time>
      </trkpt>
      <trkpt lat="43.77658" lon="3.82864">
        <ele>416.6</ele>
        <time>2026-05-21T12:52:20.000Z</time>
      </trkpt>
      <trkpt lat="43.77658" lon="3.82864">
        <ele>416.9</ele>
        <time>2026-05-21T12:52:21.000Z</time>
      </trkpt>
      <trkpt lat="43.77658" lon="3.82864">
        <ele>417.1</ele>
        <time>2026-05-21T12:52:22.000Z</time>
      </trkpt>
      <trkpt lat="43.77658" lon="3.82864">
        <ele>417.3</ele>
        <time>2026-05-21T12:52:23.000Z</time>
      </trkpt>
      <trkpt lat="43.77658" lon="3.82864">
        <ele>417.2</ele>
        <time>2026-05-21T12:52:24.000Z</time>
      </trkpt>
      <trkpt lat="43.77658" lon="3.82864">
        <ele>416.9</ele>
        <time>2026-05-21T12:52:25.000Z</time>
      </trkpt>
      <trkpt lat="43.77658" lon="3.82864">
        <ele>416.7</ele>
        <time>2026-05-21T12:52:26.000Z</time>
      </trkpt>
      <trkpt lat="43.77658" lon="3.82864">
        <ele>416.5</ele>
        <time>2026-05-21T12:52:27.000Z</time>
      </trkpt>
      <trkpt lat="43.77658" lon="3.82864">
        <ele>416.3</ele>
        <time>2026-05-21T12:52:28.000Z</time>
      </trkpt>
      <trkpt lat="43.77658" lon="3.82863">
        <ele>416.1</ele>
        <time>2026-05-21T12:52:29.000Z</time>
      </trkpt>
      <trkpt lat="43.77657" lon="3.82863">
        <ele>415.9</ele>
        <time>2026-05-21T12:52:30.000Z</time>
      </trkpt>
      <trkpt lat="43.77657" lon="3.82863">
        <ele>415.7</ele>
        <time>2026-05-21T12:52:31.000Z</time>
      </trkpt>
      <trkpt lat="43.77657" lon="3.82863">
        <ele>415.7</ele>
        <time>2026-05-21T12:52:32.000Z</time>
      </trkpt>
      <trkpt lat="43.77657" lon="3.82863">
        <ele>415.6</ele>
        <time>2026-05-21T12:52:33.000Z</time>
      </trkpt>
      <trkpt lat="43.77657" lon="3.82863">
        <ele>415.7</ele>
        <time>2026-05-21T12:52:34.000Z</time>
      </trkpt>
      <trkpt lat="43.77657" lon="3.82863">
        <ele>415.6</ele>
        <time>2026-05-21T12:52:35.000Z</time>
      </trkpt>
      <trkpt lat="43.77657" lon="3.82863">
        <ele>415.5</ele>
        <time>2026-05-21T12:52:36.000Z</time>
      </trkpt>
      <trkpt lat="43.77657" lon="3.82863">
        <ele>415.4</ele>
        <time>2026-05-21T12:52:37.000Z</time>
      </trkpt>
      <trkpt lat="43.77657" lon="3.82863">
        <ele>415.3</ele>
        <time>2026-05-21T12:52:38.000Z</time>
      </trkpt>
      <trkpt lat="43.77657" lon="3.82863">
        <ele>415.3</ele>
        <time>2026-05-21T12:52:39.000Z</time>
      </trkpt>
      <trkpt lat="43.77657" lon="3.82863">
        <ele>415.4</ele>
        <time>2026-05-21T12:52:40.000Z</time>
      </trkpt>
      <trkpt lat="43.77657" lon="3.82863">
        <ele>415.4</ele>
        <time>2026-05-21T12:52:41.000Z</time>
      </trkpt>
      <trkpt lat="43.77657" lon="3.82862">
        <ele>415.3</ele>
        <time>2026-05-21T12:52:42.000Z</time>
      </trkpt>
      <trkpt lat="43.77657" lon="3.82862">
        <ele>415.2</ele>
        <time>2026-05-21T12:52:43.000Z</time>
      </trkpt>
      <trkpt lat="43.77657" lon="3.82862">
        <ele>415.1</ele>
        <time>2026-05-21T12:52:44.000Z</time>
      </trkpt>
      <trkpt lat="43.77657" lon="3.82862">
        <ele>415.1</ele>
        <time>2026-05-21T12:52:45.000Z</time>
      </trkpt>
      <trkpt lat="43.77656" lon="3.8286">
        <ele>415.1</ele>
        <time>2026-05-21T12:52:46.000Z</time>
      </trkpt>
      <trkpt lat="43.77656" lon="3.8286">
        <ele>415</ele>
        <time>2026-05-21T12:52:47.000Z</time>
      </trkpt>
      <trkpt lat="43.77656" lon="3.8286">
        <ele>414.9</ele>
        <time>2026-05-21T12:52:48.000Z</time>
      </trkpt>
      <trkpt lat="43.77656" lon="3.8286">
        <ele>414.9</ele>
        <time>2026-05-21T12:52:49.000Z</time>
      </trkpt>
      <trkpt lat="43.77656" lon="3.8286">
        <ele>414.8</ele>
        <time>2026-05-21T12:52:50.000Z</time>
      </trkpt>
      <trkpt lat="43.77656" lon="3.8286">
        <ele>414.9</ele>
        <time>2026-05-21T12:52:51.000Z</time>
      </trkpt>
      <trkpt lat="43.77656" lon="3.8286">
        <ele>415</ele>
        <time>2026-05-21T12:52:52.000Z</time>
      </trkpt>
      <trkpt lat="43.77656" lon="3.8286">
        <ele>415</ele>
        <time>2026-05-21T12:52:53.000Z</time>
      </trkpt>
      <trkpt lat="43.77656" lon="3.8286">
        <ele>414.9</ele>
        <time>2026-05-21T12:52:54.000Z</time>
      </trkpt>
      <trkpt lat="43.77656" lon="3.82859">
        <ele>415</ele>
        <time>2026-05-21T12:52:55.000Z</time>
      </trkpt>
      <trkpt lat="43.77656" lon="3.82859">
        <ele>415</ele>
        <time>2026-05-21T12:52:56.000Z</time>
      </trkpt>
      <trkpt lat="43.77656" lon="3.82859">
        <ele>415.1</ele>
        <time>2026-05-21T12:52:57.000Z</time>
      </trkpt>
      <trkpt lat="43.77655" lon="3.82858">
        <ele>415.3</ele>
        <time>2026-05-21T12:52:58.000Z</time>
      </trkpt>
      <trkpt lat="43.77655" lon="3.82858">
        <ele>415.4</ele>
        <time>2026-05-21T12:52:59.000Z</time>
      </trkpt>
      <trkpt lat="43.77655" lon="3.82858">
        <ele>415.5</ele>
        <time>2026-05-21T12:53:00.000Z</time>
      </trkpt>
      <trkpt lat="43.77655" lon="3.82858">
        <ele>415.7</ele>
        <time>2026-05-21T12:53:01.000Z</time>
      </trkpt>
      <trkpt lat="43.77655" lon="3.82858">
        <ele>415.7</ele>
        <time>2026-05-21T12:53:02.000Z</time>
      </trkpt>
      <trkpt lat="43.77655" lon="3.82858">
        <ele>415.7</ele>
        <time>2026-05-21T12:53:03.000Z</time>
      </trkpt>
      <trkpt lat="43.77656" lon="3.82857">
        <ele>415.5</ele>
        <time>2026-05-21T12:53:04.000Z</time>
      </trkpt>
      <trkpt lat="43.77656" lon="3.82857">
        <ele>415.3</ele>
        <time>2026-05-21T12:53:05.000Z</time>
      </trkpt>
      <trkpt lat="43.77656" lon="3.82857">
        <ele>415.2</ele>
        <time>2026-05-21T12:53:06.000Z</time>
      </trkpt>
      <trkpt lat="43.77656" lon="3.82858">
        <ele>414.9</ele>
        <time>2026-05-21T12:53:07.000Z</time>
      </trkpt>
      <trkpt lat="43.77656" lon="3.82858">
        <ele>414.7</ele>
        <time>2026-05-21T12:53:08.000Z</time>
      </trkpt>
      <trkpt lat="43.77656" lon="3.82859">
        <ele>414.8</ele>
        <time>2026-05-21T12:53:09.000Z</time>
      </trkpt>
      <trkpt lat="43.77655" lon="3.82857">
        <ele>415</ele>
        <time>2026-05-21T12:53:10.000Z</time>
      </trkpt>
      <trkpt lat="43.77654" lon="3.82856">
        <ele>415</ele>
        <time>2026-05-21T12:53:11.000Z</time>
      </trkpt>
      <trkpt lat="43.77654" lon="3.82856">
        <ele>415.1</ele>
        <time>2026-05-21T12:53:12.000Z</time>
      </trkpt>
      <trkpt lat="43.77654" lon="3.82856">
        <ele>414.7</ele>
        <time>2026-05-21T12:53:13.000Z</time>
      </trkpt>
      <trkpt lat="43.77654" lon="3.82855">
        <ele>414.7</ele>
        <time>2026-05-21T12:53:14.000Z</time>
      </trkpt>
      <trkpt lat="43.77654" lon="3.82855">
        <ele>414.7</ele>
        <time>2026-05-21T12:53:15.000Z</time>
      </trkpt>
      <trkpt lat="43.77654" lon="3.82855">
        <ele>414.7</ele>
        <time>2026-05-21T12:53:16.000Z</time>
      </trkpt>
      <trkpt lat="43.77654" lon="3.82855">
        <ele>414.8</ele>
        <time>2026-05-21T12:53:17.000Z</time>
      </trkpt>
      <trkpt lat="43.77654" lon="3.82855">
        <ele>415</ele>
        <time>2026-05-21T12:53:18.000Z</time>
      </trkpt>
      <trkpt lat="43.77654" lon="3.82855">
        <ele>414.7</ele>
        <time>2026-05-21T12:53:19.000Z</time>
      </trkpt>
      <trkpt lat="43.77654" lon="3.82855">
        <ele>415</ele>
        <time>2026-05-21T12:53:20.000Z</time>
      </trkpt>
      <trkpt lat="43.77654" lon="3.82855">
        <ele>415.3</ele>
        <time>2026-05-21T12:53:21.000Z</time>
      </trkpt>
      <trkpt lat="43.77654" lon="3.82855">
        <ele>415.5</ele>
        <time>2026-05-21T12:53:22.000Z</time>
      </trkpt>
      <trkpt lat="43.77654" lon="3.82855">
        <ele>415.6</ele>
        <time>2026-05-21T12:53:23.000Z</time>
      </trkpt>
      <trkpt lat="43.77654" lon="3.82855">
        <ele>415.7</ele>
        <time>2026-05-21T12:53:24.000Z</time>
      </trkpt>
      <trkpt lat="43.77654" lon="3.82855">
        <ele>415.7</ele>
        <time>2026-05-21T12:53:25.000Z</time>
      </trkpt>
      <trkpt lat="43.77654" lon="3.82854">
        <ele>415.7</ele>
        <time>2026-05-21T12:53:26.000Z</time>
      </trkpt>
      <trkpt lat="43.77654" lon="3.82854">
        <ele>415.4</ele>
        <time>2026-05-21T12:53:27.000Z</time>
      </trkpt>
      <trkpt lat="43.77654" lon="3.82854">
        <ele>415.2</ele>
        <time>2026-05-21T12:53:28.000Z</time>
      </trkpt>
      <trkpt lat="43.77654" lon="3.82854">
        <ele>415.2</ele>
        <time>2026-05-21T12:53:29.000Z</time>
      </trkpt>
      <trkpt lat="43.77654" lon="3.82854">
        <ele>415.2</ele>
        <time>2026-05-21T12:53:30.000Z</time>
      </trkpt>
      <trkpt lat="43.77654" lon="3.82854">
        <ele>415.4</ele>
        <time>2026-05-21T12:53:31.000Z</time>
      </trkpt>
      <trkpt lat="43.77654" lon="3.82854">
        <ele>415.7</ele>
        <time>2026-05-21T12:53:32.000Z</time>
      </trkpt>
      <trkpt lat="43.77654" lon="3.82854">
        <ele>415.8</ele>
        <time>2026-05-21T12:53:33.000Z</time>
      </trkpt>
      <trkpt lat="43.77654" lon="3.82854">
        <ele>416.1</ele>
        <time>2026-05-21T12:53:34.000Z</time>
      </trkpt>
      <trkpt lat="43.77654" lon="3.82854">
        <ele>416.3</ele>
        <time>2026-05-21T12:53:35.000Z</time>
      </trkpt>
      <trkpt lat="43.77654" lon="3.82854">
        <ele>416.2</ele>
        <time>2026-05-21T12:53:36.000Z</time>
      </trkpt>
      <trkpt lat="43.77654" lon="3.82854">
        <ele>416.2</ele>
        <time>2026-05-21T12:53:37.000Z</time>
      </trkpt>
      <trkpt lat="43.77654" lon="3.82853">
        <ele>416.3</ele>
        <time>2026-05-21T12:53:38.000Z</time>
      </trkpt>
      <trkpt lat="43.77653" lon="3.82853">
        <ele>416.3</ele>
        <time>2026-05-21T12:53:39.000Z</time>
      </trkpt>
      <trkpt lat="43.77653" lon="3.82853">
        <ele>416.1</ele>
        <time>2026-05-21T12:53:40.000Z</time>
      </trkpt>
      <trkpt lat="43.77652" lon="3.82853">
        <ele>416</ele>
        <time>2026-05-21T12:53:41.000Z</time>
      </trkpt>
      <trkpt lat="43.77652" lon="3.82853">
        <ele>415.8</ele>
        <time>2026-05-21T12:53:42.000Z</time>
      </trkpt>
      <trkpt lat="43.77652" lon="3.82852">
        <ele>415.7</ele>
        <time>2026-05-21T12:53:43.000Z</time>
      </trkpt>
      <trkpt lat="43.77651" lon="3.82851">
        <ele>415.8</ele>
        <time>2026-05-21T12:53:44.000Z</time>
      </trkpt>
      <trkpt lat="43.77651" lon="3.8285">
        <ele>415.8</ele>
        <time>2026-05-21T12:53:45.000Z</time>
      </trkpt>
      <trkpt lat="43.77651" lon="3.82849">
        <ele>416.1</ele>
        <time>2026-05-21T12:53:46.000Z</time>
      </trkpt>
      <trkpt lat="43.77651" lon="3.82849">
        <ele>416.3</ele>
        <time>2026-05-21T12:53:47.000Z</time>
      </trkpt>
      <trkpt lat="43.77651" lon="3.82848">
        <ele>416.4</ele>
        <time>2026-05-21T12:53:48.000Z</time>
      </trkpt>
      <trkpt lat="43.77651" lon="3.82848">
        <ele>416.4</ele>
        <time>2026-05-21T12:53:49.000Z</time>
      </trkpt>
      <trkpt lat="43.77651" lon="3.82847">
        <ele>416.1</ele>
        <time>2026-05-21T12:53:50.000Z</time>
      </trkpt>
      <trkpt lat="43.77651" lon="3.82847">
        <ele>415.9</ele>
        <time>2026-05-21T12:53:51.000Z</time>
      </trkpt>
      <trkpt lat="43.77651" lon="3.82847">
        <ele>416</ele>
        <time>2026-05-21T12:53:52.000Z</time>
      </trkpt>
      <trkpt lat="43.77651" lon="3.82847">
        <ele>415.9</ele>
        <time>2026-05-21T12:53:53.000Z</time>
      </trkpt>
      <trkpt lat="43.77651" lon="3.82847">
        <ele>416</ele>
        <time>2026-05-21T12:53:54.000Z</time>
      </trkpt>
      <trkpt lat="43.77651" lon="3.82847">
        <ele>415.7</ele>
        <time>2026-05-21T12:53:55.000Z</time>
      </trkpt>
      <trkpt lat="43.77651" lon="3.82847">
        <ele>415.6</ele>
        <time>2026-05-21T12:53:56.000Z</time>
      </trkpt>
      <trkpt lat="43.77651" lon="3.82847">
        <ele>415.6</ele>
        <time>2026-05-21T12:53:57.000Z</time>
      </trkpt>
      <trkpt lat="43.77651" lon="3.82847">
        <ele>415.7</ele>
        <time>2026-05-21T12:53:58.000Z</time>
      </trkpt>
      <trkpt lat="43.77652" lon="3.82847">
        <ele>415.7</ele>
        <time>2026-05-21T12:53:59.000Z</time>
      </trkpt>
      <trkpt lat="43.77652" lon="3.82847">
        <ele>415.8</ele>
        <time>2026-05-21T12:54:00.000Z</time>
      </trkpt>
      <trkpt lat="43.77652" lon="3.82846">
        <ele>415.7</ele>
        <time>2026-05-21T12:54:01.000Z</time>
      </trkpt>
      <trkpt lat="43.77652" lon="3.82846">
        <ele>415.7</ele>
        <time>2026-05-21T12:54:02.000Z</time>
      </trkpt>
      <trkpt lat="43.77652" lon="3.82846">
        <ele>415.7</ele>
        <time>2026-05-21T12:54:03.000Z</time>
      </trkpt>
      <trkpt lat="43.77652" lon="3.82846">
        <ele>415.7</ele>
        <time>2026-05-21T12:54:04.000Z</time>
      </trkpt>
      <trkpt lat="43.77651" lon="3.82846">
        <ele>415.7</ele>
        <time>2026-05-21T12:54:05.000Z</time>
      </trkpt>
      <trkpt lat="43.77651" lon="3.82845">
        <ele>415.7</ele>
        <time>2026-05-21T12:54:06.000Z</time>
      </trkpt>
      <trkpt lat="43.77651" lon="3.82845">
        <ele>415.6</ele>
        <time>2026-05-21T12:54:07.000Z</time>
      </trkpt>
      <trkpt lat="43.77651" lon="3.82845">
        <ele>415.7</ele>
        <time>2026-05-21T12:54:08.000Z</time>
      </trkpt>
      <trkpt lat="43.77651" lon="3.82845">
        <ele>415.7</ele>
        <time>2026-05-21T12:54:09.000Z</time>
      </trkpt>
      <trkpt lat="43.77651" lon="3.82844">
        <ele>415.8</ele>
        <time>2026-05-21T12:54:10.000Z</time>
      </trkpt>
      <trkpt lat="43.77651" lon="3.82844">
        <ele>415.9</ele>
        <time>2026-05-21T12:54:11.000Z</time>
      </trkpt>
      <trkpt lat="43.77651" lon="3.82844">
        <ele>415.8</ele>
        <time>2026-05-21T12:54:12.000Z</time>
      </trkpt>
      <trkpt lat="43.77651" lon="3.82844">
        <ele>415.9</ele>
        <time>2026-05-21T12:54:13.000Z</time>
      </trkpt>
      <trkpt lat="43.77651" lon="3.82844">
        <ele>415.8</ele>
        <time>2026-05-21T12:54:14.000Z</time>
      </trkpt>
      <trkpt lat="43.77651" lon="3.82844">
        <ele>415.7</ele>
        <time>2026-05-21T12:54:15.000Z</time>
      </trkpt>
      <trkpt lat="43.77651" lon="3.82844">
        <ele>415.7</ele>
        <time>2026-05-21T12:54:16.000Z</time>
      </trkpt>
      <trkpt lat="43.77651" lon="3.82844">
        <ele>415.7</ele>
        <time>2026-05-21T12:54:17.000Z</time>
      </trkpt>
      <trkpt lat="43.77651" lon="3.82844">
        <ele>415.7</ele>
        <time>2026-05-21T12:54:18.000Z</time>
      </trkpt>
      <trkpt lat="43.77651" lon="3.82844">
        <ele>415.7</ele>
        <time>2026-05-21T12:54:19.000Z</time>
      </trkpt>
      <trkpt lat="43.77651" lon="3.82844">
        <ele>415.4</ele>
        <time>2026-05-21T12:54:20.000Z</time>
      </trkpt>
      <trkpt lat="43.77651" lon="3.82844">
        <ele>415.5</ele>
        <time>2026-05-21T12:54:21.000Z</time>
      </trkpt>
      <trkpt lat="43.77651" lon="3.82844">
        <ele>415.7</ele>
        <time>2026-05-21T12:54:22.000Z</time>
      </trkpt>
      <trkpt lat="43.77651" lon="3.82844">
        <ele>415.7</ele>
        <time>2026-05-21T12:54:23.000Z</time>
      </trkpt>
      <trkpt lat="43.77651" lon="3.82844">
        <ele>415.7</ele>
        <time>2026-05-21T12:54:24.000Z</time>
      </trkpt>
      <trkpt lat="43.77651" lon="3.82844">
        <ele>415.6</ele>
        <time>2026-05-21T12:54:25.000Z</time>
      </trkpt>
      <trkpt lat="43.77651" lon="3.82843">
        <ele>415.5</ele>
        <time>2026-05-21T12:54:26.000Z</time>
      </trkpt>
      <trkpt lat="43.77651" lon="3.82843">
        <ele>415.2</ele>
        <time>2026-05-21T12:54:27.000Z</time>
      </trkpt>
      <trkpt lat="43.77651" lon="3.82843">
        <ele>415</ele>
        <time>2026-05-21T12:54:28.000Z</time>
      </trkpt>
      <trkpt lat="43.77651" lon="3.82843">
        <ele>414.9</ele>
        <time>2026-05-21T12:54:29.000Z</time>
      </trkpt>
      <trkpt lat="43.77651" lon="3.82843">
        <ele>414.8</ele>
        <time>2026-05-21T12:54:30.000Z</time>
      </trkpt>
      <trkpt lat="43.77651" lon="3.82843">
        <ele>414.6</ele>
        <time>2026-05-21T12:54:31.000Z</time>
      </trkpt>
      <trkpt lat="43.77651" lon="3.82843">
        <ele>414.5</ele>
        <time>2026-05-21T12:54:32.000Z</time>
      </trkpt>
      <trkpt lat="43.77651" lon="3.82843">
        <ele>414.6</ele>
        <time>2026-05-21T12:54:33.000Z</time>
      </trkpt>
      <trkpt lat="43.77651" lon="3.82842">
        <ele>414.3</ele>
        <time>2026-05-21T12:54:34.000Z</time>
      </trkpt>
      <trkpt lat="43.77651" lon="3.82842">
        <ele>414</ele>
        <time>2026-05-21T12:54:35.000Z</time>
      </trkpt>
      <trkpt lat="43.77651" lon="3.82842">
        <ele>413.8</ele>
        <time>2026-05-21T12:54:36.000Z</time>
      </trkpt>
      <trkpt lat="43.77651" lon="3.82842">
        <ele>413.8</ele>
        <time>2026-05-21T12:54:37.000Z</time>
      </trkpt>
      <trkpt lat="43.77652" lon="3.82842">
        <ele>414</ele>
        <time>2026-05-21T12:54:38.000Z</time>
      </trkpt>
      <trkpt lat="43.77651" lon="3.82842">
        <ele>414.3</ele>
        <time>2026-05-21T12:54:39.000Z</time>
      </trkpt>
      <trkpt lat="43.77652" lon="3.82842">
        <ele>414.5</ele>
        <time>2026-05-21T12:54:40.000Z</time>
      </trkpt>
      <trkpt lat="43.77652" lon="3.82842">
        <ele>414.5</ele>
        <time>2026-05-21T12:54:41.000Z</time>
      </trkpt>
      <trkpt lat="43.77652" lon="3.82842">
        <ele>414.2</ele>
        <time>2026-05-21T12:54:42.000Z</time>
      </trkpt>
      <trkpt lat="43.77652" lon="3.82842">
        <ele>414.2</ele>
        <time>2026-05-21T12:54:43.000Z</time>
      </trkpt>
      <trkpt lat="43.77652" lon="3.82842">
        <ele>414.3</ele>
        <time>2026-05-21T12:54:44.000Z</time>
      </trkpt>
      <trkpt lat="43.77652" lon="3.82842">
        <ele>414.4</ele>
        <time>2026-05-21T12:54:45.000Z</time>
      </trkpt>
      <trkpt lat="43.77652" lon="3.82842">
        <ele>414.2</ele>
        <time>2026-05-21T12:54:46.000Z</time>
      </trkpt>
      <trkpt lat="43.77652" lon="3.82842">
        <ele>414</ele>
        <time>2026-05-21T12:54:47.000Z</time>
      </trkpt>
      <trkpt lat="43.77652" lon="3.82841">
        <ele>413.9</ele>
        <time>2026-05-21T12:54:48.000Z</time>
      </trkpt>
      <trkpt lat="43.77652" lon="3.82841">
        <ele>413.6</ele>
        <time>2026-05-21T12:54:49.000Z</time>
      </trkpt>
      <trkpt lat="43.77652" lon="3.82839">
        <ele>413.3</ele>
        <time>2026-05-21T12:54:50.000Z</time>
      </trkpt>
      <trkpt lat="43.77652" lon="3.82839">
        <ele>413.2</ele>
        <time>2026-05-21T12:54:51.000Z</time>
      </trkpt>
      <trkpt lat="43.77652" lon="3.82839">
        <ele>413.1</ele>
        <time>2026-05-21T12:54:52.000Z</time>
      </trkpt>
      <trkpt lat="43.77652" lon="3.82839">
        <ele>412.7</ele>
        <time>2026-05-21T12:54:53.000Z</time>
      </trkpt>
      <trkpt lat="43.77652" lon="3.82839">
        <ele>412.7</ele>
        <time>2026-05-21T12:54:54.000Z</time>
      </trkpt>
      <trkpt lat="43.77652" lon="3.82839">
        <ele>412.7</ele>
        <time>2026-05-21T12:54:55.000Z</time>
      </trkpt>
      <trkpt lat="43.77653" lon="3.82839">
        <ele>412.6</ele>
        <time>2026-05-21T12:54:56.000Z</time>
      </trkpt>
      <trkpt lat="43.77652" lon="3.82839">
        <ele>412.5</ele>
        <time>2026-05-21T12:54:57.000Z</time>
      </trkpt>
      <trkpt lat="43.77652" lon="3.82839">
        <ele>412.3</ele>
        <time>2026-05-21T12:54:58.000Z</time>
      </trkpt>
      <trkpt lat="43.77652" lon="3.82839">
        <ele>412.2</ele>
        <time>2026-05-21T12:54:59.000Z</time>
      </trkpt>
      <trkpt lat="43.77652" lon="3.82839">
        <ele>412</ele>
        <time>2026-05-21T12:55:00.000Z</time>
      </trkpt>
      <trkpt lat="43.77653" lon="3.82839">
        <ele>411.9</ele>
        <time>2026-05-21T12:55:01.000Z</time>
      </trkpt>
      <trkpt lat="43.77652" lon="3.82839">
        <ele>411.9</ele>
        <time>2026-05-21T12:55:02.000Z</time>
      </trkpt>
      <trkpt lat="43.77652" lon="3.82839">
        <ele>411.8</ele>
        <time>2026-05-21T12:55:03.000Z</time>
      </trkpt>
      <trkpt lat="43.77652" lon="3.82839">
        <ele>411.9</ele>
        <time>2026-05-21T12:55:04.000Z</time>
      </trkpt>
      <trkpt lat="43.77652" lon="3.82839">
        <ele>412</ele>
        <time>2026-05-21T12:55:05.000Z</time>
      </trkpt>
      <trkpt lat="43.77652" lon="3.82839">
        <ele>412.1</ele>
        <time>2026-05-21T12:55:06.000Z</time>
      </trkpt>
      <trkpt lat="43.77652" lon="3.82839">
        <ele>412.3</ele>
        <time>2026-05-21T12:55:07.000Z</time>
      </trkpt>
      <trkpt lat="43.77652" lon="3.82839">
        <ele>412.8</ele>
        <time>2026-05-21T12:55:08.000Z</time>
      </trkpt>
      <trkpt lat="43.77652" lon="3.82839">
        <ele>412.9</ele>
        <time>2026-05-21T12:55:09.000Z</time>
      </trkpt>
      <trkpt lat="43.77652" lon="3.82839">
        <ele>413.2</ele>
        <time>2026-05-21T12:55:10.000Z</time>
      </trkpt>
      <trkpt lat="43.77652" lon="3.82839">
        <ele>413.4</ele>
        <time>2026-05-21T12:55:11.000Z</time>
      </trkpt>
      <trkpt lat="43.77652" lon="3.82839">
        <ele>413.6</ele>
        <time>2026-05-21T12:55:12.000Z</time>
      </trkpt>
      <trkpt lat="43.77652" lon="3.82839">
        <ele>413.6</ele>
        <time>2026-05-21T12:55:13.000Z</time>
      </trkpt>
      <trkpt lat="43.77652" lon="3.82839">
        <ele>413.5</ele>
        <time>2026-05-21T12:55:14.000Z</time>
      </trkpt>
      <trkpt lat="43.77652" lon="3.82839">
        <ele>413.6</ele>
        <time>2026-05-21T12:55:15.000Z</time>
      </trkpt>
      <trkpt lat="43.77652" lon="3.82839">
        <ele>413.7</ele>
        <time>2026-05-21T12:55:16.000Z</time>
      </trkpt>
      <trkpt lat="43.77652" lon="3.82839">
        <ele>413.7</ele>
        <time>2026-05-21T12:55:17.000Z</time>
      </trkpt>
      <trkpt lat="43.77652" lon="3.82839">
        <ele>413.7</ele>
        <time>2026-05-21T12:55:18.000Z</time>
      </trkpt>
      <trkpt lat="43.77652" lon="3.82839">
        <ele>413.9</ele>
        <time>2026-05-21T12:55:19.000Z</time>
      </trkpt>
      <trkpt lat="43.77653" lon="3.82839">
        <ele>414.1</ele>
        <time>2026-05-21T12:55:20.000Z</time>
      </trkpt>
      <trkpt lat="43.77653" lon="3.82839">
        <ele>414.1</ele>
        <time>2026-05-21T12:55:21.000Z</time>
      </trkpt>
      <trkpt lat="43.77653" lon="3.82839">
        <ele>414.1</ele>
        <time>2026-05-21T12:55:22.000Z</time>
      </trkpt>
      <trkpt lat="43.77653" lon="3.82839">
        <ele>414</ele>
        <time>2026-05-21T12:55:23.000Z</time>
      </trkpt>
      <trkpt lat="43.77653" lon="3.82839">
        <ele>414</ele>
        <time>2026-05-21T12:55:24.000Z</time>
      </trkpt>
      <trkpt lat="43.77653" lon="3.82839">
        <ele>414.1</ele>
        <time>2026-05-21T12:55:25.000Z</time>
      </trkpt>
      <trkpt lat="43.77653" lon="3.82839">
        <ele>414</ele>
        <time>2026-05-21T12:55:26.000Z</time>
      </trkpt>
      <trkpt lat="43.77653" lon="3.82839">
        <ele>413.9</ele>
        <time>2026-05-21T12:55:27.000Z</time>
      </trkpt>
      <trkpt lat="43.77653" lon="3.82839">
        <ele>413.9</ele>
        <time>2026-05-21T12:55:28.000Z</time>
      </trkpt>
      <trkpt lat="43.77653" lon="3.82839">
        <ele>413.9</ele>
        <time>2026-05-21T12:55:29.000Z</time>
      </trkpt>
      <trkpt lat="43.77653" lon="3.82839">
        <ele>413.8</ele>
        <time>2026-05-21T12:55:30.000Z</time>
      </trkpt>
      <trkpt lat="43.77653" lon="3.82839">
        <ele>413.7</ele>
        <time>2026-05-21T12:55:31.000Z</time>
      </trkpt>
      <trkpt lat="43.77653" lon="3.82839">
        <ele>413.7</ele>
        <time>2026-05-21T12:55:32.000Z</time>
      </trkpt>
      <trkpt lat="43.77653" lon="3.82839">
        <ele>413.8</ele>
        <time>2026-05-21T12:55:33.000Z</time>
      </trkpt>
      <trkpt lat="43.77653" lon="3.82839">
        <ele>413.7</ele>
        <time>2026-05-21T12:55:34.000Z</time>
      </trkpt>
      <trkpt lat="43.77653" lon="3.82839">
        <ele>413.4</ele>
        <time>2026-05-21T12:55:35.000Z</time>
      </trkpt>
      <trkpt lat="43.77653" lon="3.82839">
        <ele>413.4</ele>
        <time>2026-05-21T12:55:36.000Z</time>
      </trkpt>
      <trkpt lat="43.77654" lon="3.8284">
        <ele>413.3</ele>
        <time>2026-05-21T12:55:38.000Z</time>
      </trkpt>
      <trkpt lat="43.77655" lon="3.82841">
        <ele>413.3</ele>
        <time>2026-05-21T12:55:39.000Z</time>
      </trkpt>
      <trkpt lat="43.77655" lon="3.82842">
        <ele>413.3</ele>
        <time>2026-05-21T12:55:40.000Z</time>
      </trkpt>
      <trkpt lat="43.77656" lon="3.82842">
        <ele>413.5</ele>
        <time>2026-05-21T12:55:41.000Z</time>
      </trkpt>
      <trkpt lat="43.77656" lon="3.82841">
        <ele>413.6</ele>
        <time>2026-05-21T12:55:42.000Z</time>
      </trkpt>
      <trkpt lat="43.77657" lon="3.82841">
        <ele>413.9</ele>
        <time>2026-05-21T12:55:43.000Z</time>
      </trkpt>
      <trkpt lat="43.77657" lon="3.82841">
        <ele>413.8</ele>
        <time>2026-05-21T12:55:44.000Z</time>
      </trkpt>
      <trkpt lat="43.77658" lon="3.82841">
        <ele>413.8</ele>
        <time>2026-05-21T12:55:45.000Z</time>
      </trkpt>
      <trkpt lat="43.77658" lon="3.8284">
        <ele>413.8</ele>
        <time>2026-05-21T12:55:46.000Z</time>
      </trkpt>
      <trkpt lat="43.77658" lon="3.8284">
        <ele>413.6</ele>
        <time>2026-05-21T12:55:47.000Z</time>
      </trkpt>
      <trkpt lat="43.77658" lon="3.82839">
        <ele>413.3</ele>
        <time>2026-05-21T12:55:48.000Z</time>
      </trkpt>
      <trkpt lat="43.77658" lon="3.82839">
        <ele>413.3</ele>
        <time>2026-05-21T12:55:49.000Z</time>
      </trkpt>
      <trkpt lat="43.77658" lon="3.82839">
        <ele>413.3</ele>
        <time>2026-05-21T12:55:50.000Z</time>
      </trkpt>
      <trkpt lat="43.77658" lon="3.82839">
        <ele>413.2</ele>
        <time>2026-05-21T12:55:51.000Z</time>
      </trkpt>
      <trkpt lat="43.77658" lon="3.82839">
        <ele>413.2</ele>
        <time>2026-05-21T12:55:52.000Z</time>
      </trkpt>
      <trkpt lat="43.77657" lon="3.82839">
        <ele>413.2</ele>
        <time>2026-05-21T12:55:53.000Z</time>
      </trkpt>
      <trkpt lat="43.77657" lon="3.82838">
        <ele>412.7</ele>
        <time>2026-05-21T12:55:54.000Z</time>
      </trkpt>
      <trkpt lat="43.77657" lon="3.82838">
        <ele>412.5</ele>
        <time>2026-05-21T12:55:55.000Z</time>
      </trkpt>
      <trkpt lat="43.77657" lon="3.82838">
        <ele>412.3</ele>
        <time>2026-05-21T12:55:56.000Z</time>
      </trkpt>
      <trkpt lat="43.77657" lon="3.82838">
        <ele>412.2</ele>
        <time>2026-05-21T12:55:57.000Z</time>
      </trkpt>
      <trkpt lat="43.77657" lon="3.82838">
        <ele>412.2</ele>
        <time>2026-05-21T12:55:58.000Z</time>
      </trkpt>
      <trkpt lat="43.77657" lon="3.82838">
        <ele>412.1</ele>
        <time>2026-05-21T12:55:59.000Z</time>
      </trkpt>
      <trkpt lat="43.77657" lon="3.82838">
        <ele>411.9</ele>
        <time>2026-05-21T12:56:00.000Z</time>
      </trkpt>
      <trkpt lat="43.77657" lon="3.82837">
        <ele>411.6</ele>
        <time>2026-05-21T12:56:01.000Z</time>
      </trkpt>
      <trkpt lat="43.77657" lon="3.82837">
        <ele>411.5</ele>
        <time>2026-05-21T12:56:02.000Z</time>
      </trkpt>
      <trkpt lat="43.77657" lon="3.82837">
        <ele>411.6</ele>
        <time>2026-05-21T12:56:03.000Z</time>
      </trkpt>
      <trkpt lat="43.77657" lon="3.82837">
        <ele>411.5</ele>
        <time>2026-05-21T12:56:04.000Z</time>
      </trkpt>
      <trkpt lat="43.77657" lon="3.82837">
        <ele>411.5</ele>
        <time>2026-05-21T12:56:05.000Z</time>
      </trkpt>
      <trkpt lat="43.77657" lon="3.82837">
        <ele>411.6</ele>
        <time>2026-05-21T12:56:06.000Z</time>
      </trkpt>
      <trkpt lat="43.77657" lon="3.82836">
        <ele>411.9</ele>
        <time>2026-05-21T12:56:07.000Z</time>
      </trkpt>
      <trkpt lat="43.77657" lon="3.82836">
        <ele>411.9</ele>
        <time>2026-05-21T12:56:08.000Z</time>
      </trkpt>
      <trkpt lat="43.77657" lon="3.82836">
        <ele>411.9</ele>
        <time>2026-05-21T12:56:09.000Z</time>
      </trkpt>
      <trkpt lat="43.77657" lon="3.82836">
        <ele>412.2</ele>
        <time>2026-05-21T12:56:10.000Z</time>
      </trkpt>
      <trkpt lat="43.77657" lon="3.82836">
        <ele>412.2</ele>
        <time>2026-05-21T12:56:11.000Z</time>
      </trkpt>
      <trkpt lat="43.77657" lon="3.82836">
        <ele>412.2</ele>
        <time>2026-05-21T12:56:12.000Z</time>
      </trkpt>
      <trkpt lat="43.77657" lon="3.82836">
        <ele>412.3</ele>
        <time>2026-05-21T12:56:13.000Z</time>
      </trkpt>
      <trkpt lat="43.77657" lon="3.82836">
        <ele>412.5</ele>
        <time>2026-05-21T12:56:14.000Z</time>
      </trkpt>
      <trkpt lat="43.77657" lon="3.82836">
        <ele>412.4</ele>
        <time>2026-05-21T12:56:15.000Z</time>
      </trkpt>
      <trkpt lat="43.77657" lon="3.82836">
        <ele>412.4</ele>
        <time>2026-05-21T12:56:16.000Z</time>
      </trkpt>
      <trkpt lat="43.77657" lon="3.82836">
        <ele>412.7</ele>
        <time>2026-05-21T12:56:17.000Z</time>
      </trkpt>
      <trkpt lat="43.77657" lon="3.82836">
        <ele>413.2</ele>
        <time>2026-05-21T12:56:18.000Z</time>
      </trkpt>
      <trkpt lat="43.77657" lon="3.82836">
        <ele>413.5</ele>
        <time>2026-05-21T12:56:19.000Z</time>
      </trkpt>
      <trkpt lat="43.77657" lon="3.82835">
        <ele>414</ele>
        <time>2026-05-21T12:56:20.000Z</time>
      </trkpt>
      <trkpt lat="43.77657" lon="3.82835">
        <ele>414.2</ele>
        <time>2026-05-21T12:56:21.000Z</time>
      </trkpt>
      <trkpt lat="43.77657" lon="3.82835">
        <ele>414.4</ele>
        <time>2026-05-21T12:56:22.000Z</time>
      </trkpt>
      <trkpt lat="43.77657" lon="3.82835">
        <ele>414.5</ele>
        <time>2026-05-21T12:56:23.000Z</time>
      </trkpt>
      <trkpt lat="43.77657" lon="3.82835">
        <ele>414.5</ele>
        <time>2026-05-21T12:56:24.000Z</time>
      </trkpt>
      <trkpt lat="43.77657" lon="3.82834">
        <ele>414.6</ele>
        <time>2026-05-21T12:56:25.000Z</time>
      </trkpt>
      <trkpt lat="43.77657" lon="3.82834">
        <ele>414.4</ele>
        <time>2026-05-21T12:56:26.000Z</time>
      </trkpt>
      <trkpt lat="43.77657" lon="3.82834">
        <ele>414.5</ele>
        <time>2026-05-21T12:56:27.000Z</time>
      </trkpt>
      <trkpt lat="43.77657" lon="3.82834">
        <ele>414.4</ele>
        <time>2026-05-21T12:56:28.000Z</time>
      </trkpt>
      <trkpt lat="43.77657" lon="3.82834">
        <ele>414.5</ele>
        <time>2026-05-21T12:56:29.000Z</time>
      </trkpt>
      <trkpt lat="43.77657" lon="3.82834">
        <ele>414.7</ele>
        <time>2026-05-21T12:56:30.000Z</time>
      </trkpt>
      <trkpt lat="43.77657" lon="3.82833">
        <ele>414.7</ele>
        <time>2026-05-21T12:56:31.000Z</time>
      </trkpt>
      <trkpt lat="43.77657" lon="3.82831">
        <ele>415</ele>
        <time>2026-05-21T12:56:32.000Z</time>
      </trkpt>
      <trkpt lat="43.77657" lon="3.82829">
        <ele>414.9</ele>
        <time>2026-05-21T12:56:33.000Z</time>
      </trkpt>
      <trkpt lat="43.77658" lon="3.82828">
        <ele>414.7</ele>
        <time>2026-05-21T12:56:34.000Z</time>
      </trkpt>
      <trkpt lat="43.77658" lon="3.82827">
        <ele>414.8</ele>
        <time>2026-05-21T12:56:35.000Z</time>
      </trkpt>
      <trkpt lat="43.77658" lon="3.82827">
        <ele>414.7</ele>
        <time>2026-05-21T12:56:36.000Z</time>
      </trkpt>
      <trkpt lat="43.77658" lon="3.82826">
        <ele>414.7</ele>
        <time>2026-05-21T12:56:37.000Z</time>
      </trkpt>
      <trkpt lat="43.77659" lon="3.82825">
        <ele>414.5</ele>
        <time>2026-05-21T12:56:38.000Z</time>
      </trkpt>
      <trkpt lat="43.77659" lon="3.82824">
        <ele>414.5</ele>
        <time>2026-05-21T12:56:39.000Z</time>
      </trkpt>
      <trkpt lat="43.7766" lon="3.82824">
        <ele>414.5</ele>
        <time>2026-05-21T12:56:40.000Z</time>
      </trkpt>
      <trkpt lat="43.7766" lon="3.82824">
        <ele>414.3</ele>
        <time>2026-05-21T12:56:41.000Z</time>
      </trkpt>
      <trkpt lat="43.7766" lon="3.82824">
        <ele>414</ele>
        <time>2026-05-21T12:56:42.000Z</time>
      </trkpt>
      <trkpt lat="43.7766" lon="3.82824">
        <ele>413.8</ele>
        <time>2026-05-21T12:56:43.000Z</time>
      </trkpt>
      <trkpt lat="43.7766" lon="3.82824">
        <ele>413.6</ele>
        <time>2026-05-21T12:56:44.000Z</time>
      </trkpt>
      <trkpt lat="43.7766" lon="3.82824">
        <ele>413.4</ele>
        <time>2026-05-21T12:56:45.000Z</time>
      </trkpt>
      <trkpt lat="43.7766" lon="3.82823">
        <ele>413.2</ele>
        <time>2026-05-21T12:56:46.000Z</time>
      </trkpt>
      <trkpt lat="43.7766" lon="3.82823">
        <ele>412.8</ele>
        <time>2026-05-21T12:56:47.000Z</time>
      </trkpt>
      <trkpt lat="43.7766" lon="3.82823">
        <ele>412.6</ele>
        <time>2026-05-21T12:56:48.000Z</time>
      </trkpt>
      <trkpt lat="43.7766" lon="3.82823">
        <ele>412.6</ele>
        <time>2026-05-21T12:56:49.000Z</time>
      </trkpt>
      <trkpt lat="43.7766" lon="3.82823">
        <ele>412.5</ele>
        <time>2026-05-21T12:56:50.000Z</time>
      </trkpt>
      <trkpt lat="43.7766" lon="3.82824">
        <ele>412.6</ele>
        <time>2026-05-21T12:56:51.000Z</time>
      </trkpt>
      <trkpt lat="43.7766" lon="3.82824">
        <ele>412.7</ele>
        <time>2026-05-21T12:56:52.000Z</time>
      </trkpt>
      <trkpt lat="43.7766" lon="3.82824">
        <ele>412.5</ele>
        <time>2026-05-21T12:56:53.000Z</time>
      </trkpt>
      <trkpt lat="43.7766" lon="3.82824">
        <ele>412.5</ele>
        <time>2026-05-21T12:56:54.000Z</time>
      </trkpt>
      <trkpt lat="43.7766" lon="3.82824">
        <ele>412.5</ele>
        <time>2026-05-21T12:56:55.000Z</time>
      </trkpt>
      <trkpt lat="43.7766" lon="3.82823">
        <ele>412.5</ele>
        <time>2026-05-21T12:56:56.000Z</time>
      </trkpt>
      <trkpt lat="43.7766" lon="3.82823">
        <ele>412.5</ele>
        <time>2026-05-21T12:56:57.000Z</time>
      </trkpt>
      <trkpt lat="43.7766" lon="3.82823">
        <ele>412.3</ele>
        <time>2026-05-21T12:56:58.000Z</time>
      </trkpt>
      <trkpt lat="43.7766" lon="3.82823">
        <ele>412.2</ele>
        <time>2026-05-21T12:56:59.000Z</time>
      </trkpt>
      <trkpt lat="43.7766" lon="3.82823">
        <ele>412</ele>
        <time>2026-05-21T12:57:00.000Z</time>
      </trkpt>
      <trkpt lat="43.7766" lon="3.82823">
        <ele>412</ele>
        <time>2026-05-21T12:57:01.000Z</time>
      </trkpt>
      <trkpt lat="43.7766" lon="3.82823">
        <ele>412.1</ele>
        <time>2026-05-21T12:57:02.000Z</time>
      </trkpt>
      <trkpt lat="43.7766" lon="3.82823">
        <ele>411.9</ele>
        <time>2026-05-21T12:57:03.000Z</time>
      </trkpt>
      <trkpt lat="43.7766" lon="3.82823">
        <ele>412</ele>
        <time>2026-05-21T12:57:04.000Z</time>
      </trkpt>
      <trkpt lat="43.7766" lon="3.82823">
        <ele>412.2</ele>
        <time>2026-05-21T12:57:05.000Z</time>
      </trkpt>
      <trkpt lat="43.7766" lon="3.82823">
        <ele>412.5</ele>
        <time>2026-05-21T12:57:06.000Z</time>
      </trkpt>
      <trkpt lat="43.7766" lon="3.82823">
        <ele>412.6</ele>
        <time>2026-05-21T12:57:07.000Z</time>
      </trkpt>
      <trkpt lat="43.7766" lon="3.82823">
        <ele>412.6</ele>
        <time>2026-05-21T12:57:08.000Z</time>
      </trkpt>
      <trkpt lat="43.7766" lon="3.82823">
        <ele>412.6</ele>
        <time>2026-05-21T12:57:09.000Z</time>
      </trkpt>
      <trkpt lat="43.7766" lon="3.82823">
        <ele>412.9</ele>
        <time>2026-05-21T12:57:10.000Z</time>
      </trkpt>
      <trkpt lat="43.7766" lon="3.82823">
        <ele>413.1</ele>
        <time>2026-05-21T12:57:11.000Z</time>
      </trkpt>
      <trkpt lat="43.7766" lon="3.82823">
        <ele>413.1</ele>
        <time>2026-05-21T12:57:12.000Z</time>
      </trkpt>
      <trkpt lat="43.7766" lon="3.82823">
        <ele>413.2</ele>
        <time>2026-05-21T12:57:13.000Z</time>
      </trkpt>
      <trkpt lat="43.7766" lon="3.82822">
        <ele>413.2</ele>
        <time>2026-05-21T12:57:14.000Z</time>
      </trkpt>
      <trkpt lat="43.7766" lon="3.82822">
        <ele>413.2</ele>
        <time>2026-05-21T12:57:15.000Z</time>
      </trkpt>
      <trkpt lat="43.7766" lon="3.82822">
        <ele>413.3</ele>
        <time>2026-05-21T12:57:16.000Z</time>
      </trkpt>
      <trkpt lat="43.7766" lon="3.82822">
        <ele>413.3</ele>
        <time>2026-05-21T12:57:17.000Z</time>
      </trkpt>
      <trkpt lat="43.7766" lon="3.82822">
        <ele>413.3</ele>
        <time>2026-05-21T12:57:18.000Z</time>
      </trkpt>
      <trkpt lat="43.7766" lon="3.82822">
        <ele>413.4</ele>
        <time>2026-05-21T12:57:19.000Z</time>
      </trkpt>
      <trkpt lat="43.7766" lon="3.82822">
        <ele>413.5</ele>
        <time>2026-05-21T12:57:20.000Z</time>
      </trkpt>
      <trkpt lat="43.7766" lon="3.82822">
        <ele>413.5</ele>
        <time>2026-05-21T12:57:21.000Z</time>
      </trkpt>
      <trkpt lat="43.7766" lon="3.82822">
        <ele>413.5</ele>
        <time>2026-05-21T12:57:22.000Z</time>
      </trkpt>
      <trkpt lat="43.7766" lon="3.82822">
        <ele>413.3</ele>
        <time>2026-05-21T12:57:23.000Z</time>
      </trkpt>
      <trkpt lat="43.7766" lon="3.82822">
        <ele>413.1</ele>
        <time>2026-05-21T12:57:24.000Z</time>
      </trkpt>
      <trkpt lat="43.7766" lon="3.82822">
        <ele>413</ele>
        <time>2026-05-21T12:57:25.000Z</time>
      </trkpt>
      <trkpt lat="43.7766" lon="3.82822">
        <ele>413.1</ele>
        <time>2026-05-21T12:57:26.000Z</time>
      </trkpt>
      <trkpt lat="43.7766" lon="3.82822">
        <ele>413.2</ele>
        <time>2026-05-21T12:57:27.000Z</time>
      </trkpt>
      <trkpt lat="43.7766" lon="3.82822">
        <ele>413</ele>
        <time>2026-05-21T12:57:28.000Z</time>
      </trkpt>
      <trkpt lat="43.7766" lon="3.82822">
        <ele>413.2</ele>
        <time>2026-05-21T12:57:29.000Z</time>
      </trkpt>
      <trkpt lat="43.7766" lon="3.82821">
        <ele>413.4</ele>
        <time>2026-05-21T12:57:30.000Z</time>
      </trkpt>
      <trkpt lat="43.7766" lon="3.82821">
        <ele>413.3</ele>
        <time>2026-05-21T12:57:31.000Z</time>
      </trkpt>
      <trkpt lat="43.7766" lon="3.82821">
        <ele>413.3</ele>
        <time>2026-05-21T12:57:32.000Z</time>
      </trkpt>
      <trkpt lat="43.7766" lon="3.82821">
        <ele>413.2</ele>
        <time>2026-05-21T12:57:33.000Z</time>
      </trkpt>
      <trkpt lat="43.7766" lon="3.82821">
        <ele>413.3</ele>
        <time>2026-05-21T12:57:34.000Z</time>
      </trkpt>
      <trkpt lat="43.7766" lon="3.82821">
        <ele>413.4</ele>
        <time>2026-05-21T12:57:35.000Z</time>
      </trkpt>
      <trkpt lat="43.7766" lon="3.82821">
        <ele>413.6</ele>
        <time>2026-05-21T12:57:36.000Z</time>
      </trkpt>
      <trkpt lat="43.7766" lon="3.82821">
        <ele>413.5</ele>
        <time>2026-05-21T12:57:37.000Z</time>
      </trkpt>
      <trkpt lat="43.7766" lon="3.8282">
        <ele>413.9</ele>
        <time>2026-05-21T12:57:38.000Z</time>
      </trkpt>
      <trkpt lat="43.7766" lon="3.82819">
        <ele>414</ele>
        <time>2026-05-21T12:57:39.000Z</time>
      </trkpt>
      <trkpt lat="43.7766" lon="3.82818">
        <ele>414.1</ele>
        <time>2026-05-21T12:57:40.000Z</time>
      </trkpt>
      <trkpt lat="43.7766" lon="3.82817">
        <ele>414.1</ele>
        <time>2026-05-21T12:57:41.000Z</time>
      </trkpt>
      <trkpt lat="43.7766" lon="3.82816">
        <ele>414.2</ele>
        <time>2026-05-21T12:57:42.000Z</time>
      </trkpt>
      <trkpt lat="43.77659" lon="3.82815">
        <ele>414.1</ele>
        <time>2026-05-21T12:57:43.000Z</time>
      </trkpt>
      <trkpt lat="43.77659" lon="3.82814">
        <ele>414.4</ele>
        <time>2026-05-21T12:57:44.000Z</time>
      </trkpt>
      <trkpt lat="43.77658" lon="3.82813">
        <ele>414.5</ele>
        <time>2026-05-21T12:57:45.000Z</time>
      </trkpt>
      <trkpt lat="43.77658" lon="3.82812">
        <ele>414.5</ele>
        <time>2026-05-21T12:57:46.000Z</time>
      </trkpt>
      <trkpt lat="43.77658" lon="3.82812">
        <ele>414.5</ele>
        <time>2026-05-21T12:57:47.000Z</time>
      </trkpt>
      <trkpt lat="43.77658" lon="3.82811">
        <ele>414.2</ele>
        <time>2026-05-21T12:57:48.000Z</time>
      </trkpt>
      <trkpt lat="43.77657" lon="3.82811">
        <ele>414.1</ele>
        <time>2026-05-21T12:57:49.000Z</time>
      </trkpt>
      <trkpt lat="43.77658" lon="3.82811">
        <ele>414.1</ele>
        <time>2026-05-21T12:57:50.000Z</time>
      </trkpt>
      <trkpt lat="43.77657" lon="3.82811">
        <ele>413.9</ele>
        <time>2026-05-21T12:57:51.000Z</time>
      </trkpt>
      <trkpt lat="43.77657" lon="3.82811">
        <ele>413.6</ele>
        <time>2026-05-21T12:57:52.000Z</time>
      </trkpt>
      <trkpt lat="43.77657" lon="3.82811">
        <ele>413.4</ele>
        <time>2026-05-21T12:57:53.000Z</time>
      </trkpt>
      <trkpt lat="43.77657" lon="3.82811">
        <ele>413.3</ele>
        <time>2026-05-21T12:57:54.000Z</time>
      </trkpt>
      <trkpt lat="43.77657" lon="3.82811">
        <ele>413</ele>
        <time>2026-05-21T12:57:55.000Z</time>
      </trkpt>
      <trkpt lat="43.77657" lon="3.82811">
        <ele>412.7</ele>
        <time>2026-05-21T12:57:56.000Z</time>
      </trkpt>
      <trkpt lat="43.77657" lon="3.82811">
        <ele>412.4</ele>
        <time>2026-05-21T12:57:57.000Z</time>
      </trkpt>
      <trkpt lat="43.77657" lon="3.82811">
        <ele>412.4</ele>
        <time>2026-05-21T12:57:58.000Z</time>
      </trkpt>
      <trkpt lat="43.77657" lon="3.82811">
        <ele>412.3</ele>
        <time>2026-05-21T12:57:59.000Z</time>
      </trkpt>
      <trkpt lat="43.77657" lon="3.82811">
        <ele>412.6</ele>
        <time>2026-05-21T12:58:00.000Z</time>
      </trkpt>
      <trkpt lat="43.77657" lon="3.82811">
        <ele>412.6</ele>
        <time>2026-05-21T12:58:01.000Z</time>
      </trkpt>
      <trkpt lat="43.77657" lon="3.82811">
        <ele>412.6</ele>
        <time>2026-05-21T12:58:02.000Z</time>
      </trkpt>
      <trkpt lat="43.77657" lon="3.82811">
        <ele>412.5</ele>
        <time>2026-05-21T12:58:03.000Z</time>
      </trkpt>
      <trkpt lat="43.77658" lon="3.82811">
        <ele>412.2</ele>
        <time>2026-05-21T12:58:04.000Z</time>
      </trkpt>
      <trkpt lat="43.77658" lon="3.82811">
        <ele>412</ele>
        <time>2026-05-21T12:58:05.000Z</time>
      </trkpt>
      <trkpt lat="43.77658" lon="3.82811">
        <ele>411.8</ele>
        <time>2026-05-21T12:58:06.000Z</time>
      </trkpt>
      <trkpt lat="43.77658" lon="3.82811">
        <ele>411.5</ele>
        <time>2026-05-21T12:58:07.000Z</time>
      </trkpt>
      <trkpt lat="43.77658" lon="3.82811">
        <ele>411.1</ele>
        <time>2026-05-21T12:58:08.000Z</time>
      </trkpt>
      <trkpt lat="43.77658" lon="3.82811">
        <ele>410.9</ele>
        <time>2026-05-21T12:58:09.000Z</time>
      </trkpt>
      <trkpt lat="43.77658" lon="3.82811">
        <ele>410.7</ele>
        <time>2026-05-21T12:58:10.000Z</time>
      </trkpt>
      <trkpt lat="43.77658" lon="3.82811">
        <ele>410.7</ele>
        <time>2026-05-21T12:58:11.000Z</time>
      </trkpt>
      <trkpt lat="43.77658" lon="3.82811">
        <ele>410.7</ele>
        <time>2026-05-21T12:58:12.000Z</time>
      </trkpt>
      <trkpt lat="43.77658" lon="3.82811">
        <ele>410.6</ele>
        <time>2026-05-21T12:58:13.000Z</time>
      </trkpt>
      <trkpt lat="43.77658" lon="3.82811">
        <ele>410.4</ele>
        <time>2026-05-21T12:58:14.000Z</time>
      </trkpt>
      <trkpt lat="43.77658" lon="3.82811">
        <ele>410.1</ele>
        <time>2026-05-21T12:58:15.000Z</time>
      </trkpt>
      <trkpt lat="43.77658" lon="3.82811">
        <ele>409.7</ele>
        <time>2026-05-21T12:58:16.000Z</time>
      </trkpt>
      <trkpt lat="43.77658" lon="3.82811">
        <ele>409.6</ele>
        <time>2026-05-21T12:58:17.000Z</time>
      </trkpt>
      <trkpt lat="43.77658" lon="3.82811">
        <ele>409.6</ele>
        <time>2026-05-21T12:58:18.000Z</time>
      </trkpt>
      <trkpt lat="43.77658" lon="3.82811">
        <ele>409.6</ele>
        <time>2026-05-21T12:58:19.000Z</time>
      </trkpt>
      <trkpt lat="43.77658" lon="3.82811">
        <ele>409.6</ele>
        <time>2026-05-21T12:58:20.000Z</time>
      </trkpt>
      <trkpt lat="43.77658" lon="3.82811">
        <ele>409.8</ele>
        <time>2026-05-21T12:58:21.000Z</time>
      </trkpt>
      <trkpt lat="43.77657" lon="3.82811">
        <ele>410</ele>
        <time>2026-05-21T12:58:22.000Z</time>
      </trkpt>
      <trkpt lat="43.77657" lon="3.8281">
        <ele>410</ele>
        <time>2026-05-21T12:58:23.000Z</time>
      </trkpt>
      <trkpt lat="43.77657" lon="3.8281">
        <ele>409.9</ele>
        <time>2026-05-21T12:58:24.000Z</time>
      </trkpt>
      <trkpt lat="43.77657" lon="3.8281">
        <ele>409.8</ele>
        <time>2026-05-21T12:58:25.000Z</time>
      </trkpt>
      <trkpt lat="43.77657" lon="3.8281">
        <ele>409.9</ele>
        <time>2026-05-21T12:58:26.000Z</time>
      </trkpt>
      <trkpt lat="43.77657" lon="3.8281">
        <ele>409.8</ele>
        <time>2026-05-21T12:58:27.000Z</time>
      </trkpt>
      <trkpt lat="43.77657" lon="3.8281">
        <ele>409.8</ele>
        <time>2026-05-21T12:58:28.000Z</time>
      </trkpt>
      <trkpt lat="43.77657" lon="3.82809">
        <ele>410.3</ele>
        <time>2026-05-21T12:58:29.000Z</time>
      </trkpt>
      <trkpt lat="43.77657" lon="3.82808">
        <ele>410.7</ele>
        <time>2026-05-21T12:58:30.000Z</time>
      </trkpt>
      <trkpt lat="43.77656" lon="3.82807">
        <ele>410.7</ele>
        <time>2026-05-21T12:58:31.000Z</time>
      </trkpt>
      <trkpt lat="43.77656" lon="3.82807">
        <ele>410.9</ele>
        <time>2026-05-21T12:58:32.000Z</time>
      </trkpt>
      <trkpt lat="43.77656" lon="3.82806">
        <ele>410.9</ele>
        <time>2026-05-21T12:58:33.000Z</time>
      </trkpt>
      <trkpt lat="43.77656" lon="3.82806">
        <ele>411</ele>
        <time>2026-05-21T12:58:34.000Z</time>
      </trkpt>
      <trkpt lat="43.77655" lon="3.82806">
        <ele>410.9</ele>
        <time>2026-05-21T12:58:35.000Z</time>
      </trkpt>
      <trkpt lat="43.77655" lon="3.82806">
        <ele>410.9</ele>
        <time>2026-05-21T12:58:36.000Z</time>
      </trkpt>
      <trkpt lat="43.77654" lon="3.82806">
        <ele>410.7</ele>
        <time>2026-05-21T12:58:37.000Z</time>
      </trkpt>
      <trkpt lat="43.77654" lon="3.82806">
        <ele>410.7</ele>
        <time>2026-05-21T12:58:38.000Z</time>
      </trkpt>
      <trkpt lat="43.77654" lon="3.82806">
        <ele>410.8</ele>
        <time>2026-05-21T12:58:39.000Z</time>
      </trkpt>
      <trkpt lat="43.77654" lon="3.82806">
        <ele>411.2</ele>
        <time>2026-05-21T12:58:40.000Z</time>
      </trkpt>
      <trkpt lat="43.77654" lon="3.82806">
        <ele>411.4</ele>
        <time>2026-05-21T12:58:41.000Z</time>
      </trkpt>
      <trkpt lat="43.77654" lon="3.82806">
        <ele>411.6</ele>
        <time>2026-05-21T12:58:42.000Z</time>
      </trkpt>
      <trkpt lat="43.77653" lon="3.82806">
        <ele>411.6</ele>
        <time>2026-05-21T12:58:43.000Z</time>
      </trkpt>
      <trkpt lat="43.77653" lon="3.82806">
        <ele>411.6</ele>
        <time>2026-05-21T12:58:44.000Z</time>
      </trkpt>
      <trkpt lat="43.77653" lon="3.82806">
        <ele>411.4</ele>
        <time>2026-05-21T12:58:45.000Z</time>
      </trkpt>
      <trkpt lat="43.77653" lon="3.82806">
        <ele>411.1</ele>
        <time>2026-05-21T12:58:46.000Z</time>
      </trkpt>
      <trkpt lat="43.77653" lon="3.82806">
        <ele>410.8</ele>
        <time>2026-05-21T12:58:47.000Z</time>
      </trkpt>
      <trkpt lat="43.77653" lon="3.82806">
        <ele>410.7</ele>
        <time>2026-05-21T12:58:48.000Z</time>
      </trkpt>
      <trkpt lat="43.77653" lon="3.82806">
        <ele>410.7</ele>
        <time>2026-05-21T12:58:49.000Z</time>
      </trkpt>
      <trkpt lat="43.77653" lon="3.82806">
        <ele>410.7</ele>
        <time>2026-05-21T12:58:50.000Z</time>
      </trkpt>
      <trkpt lat="43.77653" lon="3.82806">
        <ele>410.4</ele>
        <time>2026-05-21T12:58:51.000Z</time>
      </trkpt>
      <trkpt lat="43.77653" lon="3.82806">
        <ele>410.2</ele>
        <time>2026-05-21T12:58:52.000Z</time>
      </trkpt>
      <trkpt lat="43.77653" lon="3.82806">
        <ele>410.1</ele>
        <time>2026-05-21T12:58:53.000Z</time>
      </trkpt>
      <trkpt lat="43.77653" lon="3.82806">
        <ele>410</ele>
        <time>2026-05-21T12:58:54.000Z</time>
      </trkpt>
      <trkpt lat="43.77653" lon="3.82806">
        <ele>409.9</ele>
        <time>2026-05-21T12:58:55.000Z</time>
      </trkpt>
      <trkpt lat="43.77653" lon="3.82806">
        <ele>410</ele>
        <time>2026-05-21T12:58:56.000Z</time>
      </trkpt>
      <trkpt lat="43.77653" lon="3.82806">
        <ele>410.1</ele>
        <time>2026-05-21T12:58:57.000Z</time>
      </trkpt>
      <trkpt lat="43.77653" lon="3.82806">
        <ele>410.2</ele>
        <time>2026-05-21T12:58:58.000Z</time>
      </trkpt>
      <trkpt lat="43.77653" lon="3.82806">
        <ele>410.3</ele>
        <time>2026-05-21T12:58:59.000Z</time>
      </trkpt>
      <trkpt lat="43.77652" lon="3.82806">
        <ele>410.3</ele>
        <time>2026-05-21T12:59:00.000Z</time>
      </trkpt>
      <trkpt lat="43.77652" lon="3.82807">
        <ele>410</ele>
        <time>2026-05-21T12:59:01.000Z</time>
      </trkpt>
      <trkpt lat="43.77652" lon="3.82807">
        <ele>409.6</ele>
        <time>2026-05-21T12:59:02.000Z</time>
      </trkpt>
      <trkpt lat="43.77652" lon="3.82808">
        <ele>409.6</ele>
        <time>2026-05-21T12:59:03.000Z</time>
      </trkpt>
      <trkpt lat="43.77653" lon="3.82808">
        <ele>409.4</ele>
        <time>2026-05-21T12:59:04.000Z</time>
      </trkpt>
      <trkpt lat="43.77653" lon="3.82808">
        <ele>409.5</ele>
        <time>2026-05-21T12:59:05.000Z</time>
      </trkpt>
      <trkpt lat="43.77653" lon="3.82808">
        <ele>409.4</ele>
        <time>2026-05-21T12:59:06.000Z</time>
      </trkpt>
      <trkpt lat="43.77653" lon="3.82808">
        <ele>409.4</ele>
        <time>2026-05-21T12:59:07.000Z</time>
      </trkpt>
      <trkpt lat="43.77653" lon="3.82808">
        <ele>409.5</ele>
        <time>2026-05-21T12:59:08.000Z</time>
      </trkpt>
      <trkpt lat="43.77653" lon="3.82808">
        <ele>409.4</ele>
        <time>2026-05-21T12:59:09.000Z</time>
      </trkpt>
      <trkpt lat="43.77652" lon="3.82808">
        <ele>409.2</ele>
        <time>2026-05-21T12:59:10.000Z</time>
      </trkpt>
      <trkpt lat="43.77652" lon="3.82808">
        <ele>409.2</ele>
        <time>2026-05-21T12:59:11.000Z</time>
      </trkpt>
      <trkpt lat="43.77652" lon="3.82808">
        <ele>409.2</ele>
        <time>2026-05-21T12:59:12.000Z</time>
      </trkpt>
      <trkpt lat="43.77652" lon="3.82808">
        <ele>409.2</ele>
        <time>2026-05-21T12:59:13.000Z</time>
      </trkpt>
      <trkpt lat="43.77652" lon="3.82807">
        <ele>409.3</ele>
        <time>2026-05-21T12:59:14.000Z</time>
      </trkpt>
      <trkpt lat="43.77652" lon="3.82807">
        <ele>409.4</ele>
        <time>2026-05-21T12:59:15.000Z</time>
      </trkpt>
      <trkpt lat="43.77652" lon="3.82807">
        <ele>409.4</ele>
        <time>2026-05-21T12:59:16.000Z</time>
      </trkpt>
      <trkpt lat="43.77652" lon="3.82807">
        <ele>409.2</ele>
        <time>2026-05-21T12:59:17.000Z</time>
      </trkpt>
      <trkpt lat="43.77652" lon="3.82807">
        <ele>409.2</ele>
        <time>2026-05-21T12:59:18.000Z</time>
      </trkpt>
      <trkpt lat="43.77652" lon="3.82807">
        <ele>409.3</ele>
        <time>2026-05-21T12:59:19.000Z</time>
      </trkpt>
      <trkpt lat="43.77652" lon="3.82806">
        <ele>409.3</ele>
        <time>2026-05-21T12:59:20.000Z</time>
      </trkpt>
      <trkpt lat="43.77652" lon="3.82806">
        <ele>409.1</ele>
        <time>2026-05-21T12:59:21.000Z</time>
      </trkpt>
      <trkpt lat="43.77652" lon="3.82806">
        <ele>409.1</ele>
        <time>2026-05-21T12:59:22.000Z</time>
      </trkpt>
      <trkpt lat="43.77651" lon="3.82806">
        <ele>409</ele>
        <time>2026-05-21T12:59:23.000Z</time>
      </trkpt>
      <trkpt lat="43.77651" lon="3.82806">
        <ele>409</ele>
        <time>2026-05-21T12:59:24.000Z</time>
      </trkpt>
      <trkpt lat="43.77651" lon="3.82806">
        <ele>408.9</ele>
        <time>2026-05-21T12:59:25.000Z</time>
      </trkpt>
      <trkpt lat="43.77651" lon="3.82806">
        <ele>408.7</ele>
        <time>2026-05-21T12:59:26.000Z</time>
      </trkpt>
      <trkpt lat="43.77651" lon="3.82806">
        <ele>408.6</ele>
        <time>2026-05-21T12:59:27.000Z</time>
      </trkpt>
      <trkpt lat="43.77651" lon="3.82806">
        <ele>408.5</ele>
        <time>2026-05-21T12:59:28.000Z</time>
      </trkpt>
      <trkpt lat="43.77651" lon="3.82806">
        <ele>408.4</ele>
        <time>2026-05-21T12:59:29.000Z</time>
      </trkpt>
      <trkpt lat="43.77651" lon="3.82806">
        <ele>408.4</ele>
        <time>2026-05-21T12:59:30.000Z</time>
      </trkpt>
      <trkpt lat="43.77651" lon="3.82806">
        <ele>408.2</ele>
        <time>2026-05-21T12:59:31.000Z</time>
      </trkpt>
      <trkpt lat="43.77651" lon="3.82806">
        <ele>408.2</ele>
        <time>2026-05-21T12:59:32.000Z</time>
      </trkpt>
      <trkpt lat="43.7765" lon="3.82805">
        <ele>408.1</ele>
        <time>2026-05-21T12:59:33.000Z</time>
      </trkpt>
      <trkpt lat="43.7765" lon="3.82805">
        <ele>407.9</ele>
        <time>2026-05-21T12:59:34.000Z</time>
      </trkpt>
      <trkpt lat="43.7765" lon="3.82805">
        <ele>408</ele>
        <time>2026-05-21T12:59:35.000Z</time>
      </trkpt>
      <trkpt lat="43.7765" lon="3.82805">
        <ele>407.8</ele>
        <time>2026-05-21T12:59:36.000Z</time>
      </trkpt>
      <trkpt lat="43.7765" lon="3.82805">
        <ele>407.9</ele>
        <time>2026-05-21T12:59:37.000Z</time>
      </trkpt>
      <trkpt lat="43.7765" lon="3.82805">
        <ele>407.8</ele>
        <time>2026-05-21T12:59:38.000Z</time>
      </trkpt>
      <trkpt lat="43.77649" lon="3.82805">
        <ele>407.7</ele>
        <time>2026-05-21T12:59:39.000Z</time>
      </trkpt>
      <trkpt lat="43.77649" lon="3.82805">
        <ele>407.8</ele>
        <time>2026-05-21T12:59:40.000Z</time>
      </trkpt>
      <trkpt lat="43.77649" lon="3.82805">
        <ele>408</ele>
        <time>2026-05-21T12:59:41.000Z</time>
      </trkpt>
      <trkpt lat="43.77649" lon="3.82805">
        <ele>408.4</ele>
        <time>2026-05-21T12:59:42.000Z</time>
      </trkpt>
      <trkpt lat="43.77649" lon="3.82805">
        <ele>408.4</ele>
        <time>2026-05-21T12:59:43.000Z</time>
      </trkpt>
      <trkpt lat="43.77649" lon="3.82805">
        <ele>408.6</ele>
        <time>2026-05-21T12:59:44.000Z</time>
      </trkpt>
      <trkpt lat="43.77649" lon="3.82805">
        <ele>408.7</ele>
        <time>2026-05-21T12:59:45.000Z</time>
      </trkpt>
      <trkpt lat="43.77649" lon="3.82805">
        <ele>408.7</ele>
        <time>2026-05-21T12:59:46.000Z</time>
      </trkpt>
      <trkpt lat="43.77649" lon="3.82805">
        <ele>408.6</ele>
        <time>2026-05-21T12:59:47.000Z</time>
      </trkpt>
      <trkpt lat="43.77649" lon="3.82805">
        <ele>408.5</ele>
        <time>2026-05-21T12:59:48.000Z</time>
      </trkpt>
      <trkpt lat="43.77649" lon="3.82805">
        <ele>408.2</ele>
        <time>2026-05-21T12:59:49.000Z</time>
      </trkpt>
      <trkpt lat="43.77649" lon="3.82805">
        <ele>408</ele>
        <time>2026-05-21T12:59:50.000Z</time>
      </trkpt>
      <trkpt lat="43.77649" lon="3.82804">
        <ele>408</ele>
        <time>2026-05-21T12:59:51.000Z</time>
      </trkpt>
      <trkpt lat="43.77649" lon="3.82804">
        <ele>408.3</ele>
        <time>2026-05-21T12:59:52.000Z</time>
      </trkpt>
      <trkpt lat="43.77649" lon="3.82804">
        <ele>408.8</ele>
        <time>2026-05-21T12:59:53.000Z</time>
      </trkpt>
      <trkpt lat="43.77649" lon="3.82804">
        <ele>409</ele>
        <time>2026-05-21T12:59:54.000Z</time>
      </trkpt>
      <trkpt lat="43.77649" lon="3.82804">
        <ele>409.1</ele>
        <time>2026-05-21T12:59:55.000Z</time>
      </trkpt>
      <trkpt lat="43.77649" lon="3.82804">
        <ele>409</ele>
        <time>2026-05-21T12:59:56.000Z</time>
      </trkpt>
      <trkpt lat="43.77649" lon="3.82804">
        <ele>409.1</ele>
        <time>2026-05-21T12:59:57.000Z</time>
      </trkpt>
      <trkpt lat="43.77648" lon="3.82804">
        <ele>409.2</ele>
        <time>2026-05-21T12:59:58.999Z</time>
      </trkpt>
      <trkpt lat="43.77648" lon="3.82804">
        <ele>409.3</ele>
        <time>2026-05-21T12:59:59.999Z</time>
      </trkpt>
      <trkpt lat="43.77648" lon="3.82804">
        <ele>409.4</ele>
        <time>2026-05-21T13:00:00.999Z</time>
      </trkpt>
      <trkpt lat="43.77646" lon="3.82803">
        <ele>409.3</ele>
        <time>2026-05-21T13:00:01.999Z</time>
      </trkpt>
      <trkpt lat="43.77645" lon="3.82802">
        <ele>409.3</ele>
        <time>2026-05-21T13:00:02.999Z</time>
      </trkpt>
      <trkpt lat="43.77645" lon="3.82802">
        <ele>409</ele>
        <time>2026-05-21T13:00:03.999Z</time>
      </trkpt>
      <trkpt lat="43.77645" lon="3.82802">
        <ele>408.9</ele>
        <time>2026-05-21T13:00:04.999Z</time>
      </trkpt>
      <trkpt lat="43.77645" lon="3.82802">
        <ele>408.7</ele>
        <time>2026-05-21T13:00:05.999Z</time>
      </trkpt>
      <trkpt lat="43.77645" lon="3.82802">
        <ele>408.6</ele>
        <time>2026-05-21T13:00:06.999Z</time>
      </trkpt>
      <trkpt lat="43.77645" lon="3.82802">
        <ele>408.6</ele>
        <time>2026-05-21T13:00:07.999Z</time>
      </trkpt>
      <trkpt lat="43.77645" lon="3.82802">
        <ele>408.7</ele>
        <time>2026-05-21T13:00:08.999Z</time>
      </trkpt>
      <trkpt lat="43.77645" lon="3.82802">
        <ele>408.5</ele>
        <time>2026-05-21T13:00:09.999Z</time>
      </trkpt>
      <trkpt lat="43.77645" lon="3.82802">
        <ele>408.2</ele>
        <time>2026-05-21T13:00:10.999Z</time>
      </trkpt>
      <trkpt lat="43.77645" lon="3.82802">
        <ele>408.2</ele>
        <time>2026-05-21T13:00:11.999Z</time>
      </trkpt>
      <trkpt lat="43.77644" lon="3.82802">
        <ele>408.4</ele>
        <time>2026-05-21T13:00:12.999Z</time>
      </trkpt>
      <trkpt lat="43.77644" lon="3.82802">
        <ele>408.4</ele>
        <time>2026-05-21T13:00:13.999Z</time>
      </trkpt>
      <trkpt lat="43.77644" lon="3.82802">
        <ele>408.5</ele>
        <time>2026-05-21T13:00:14.999Z</time>
      </trkpt>
      <trkpt lat="43.77644" lon="3.82802">
        <ele>408.6</ele>
        <time>2026-05-21T13:00:15.999Z</time>
      </trkpt>
      <trkpt lat="43.77644" lon="3.82802">
        <ele>408.8</ele>
        <time>2026-05-21T13:00:16.999Z</time>
      </trkpt>
      <trkpt lat="43.77644" lon="3.82802">
        <ele>409</ele>
        <time>2026-05-21T13:00:17.999Z</time>
      </trkpt>
      <trkpt lat="43.77644" lon="3.82802">
        <ele>409.3</ele>
        <time>2026-05-21T13:00:18.999Z</time>
      </trkpt>
      <trkpt lat="43.77644" lon="3.82802">
        <ele>409.4</ele>
        <time>2026-05-21T13:00:19.999Z</time>
      </trkpt>
      <trkpt lat="43.77644" lon="3.82802">
        <ele>409.7</ele>
        <time>2026-05-21T13:00:20.999Z</time>
      </trkpt>
      <trkpt lat="43.77644" lon="3.82801">
        <ele>409.8</ele>
        <time>2026-05-21T13:00:21.999Z</time>
      </trkpt>
      <trkpt lat="43.77644" lon="3.82801">
        <ele>409.6</ele>
        <time>2026-05-21T13:00:22.999Z</time>
      </trkpt>
      <trkpt lat="43.77644" lon="3.82801">
        <ele>409.4</ele>
        <time>2026-05-21T13:00:23.999Z</time>
      </trkpt>
      <trkpt lat="43.77644" lon="3.82801">
        <ele>409.1</ele>
        <time>2026-05-21T13:00:25.999Z</time>
      </trkpt>
      <trkpt lat="43.77644" lon="3.82801">
        <ele>409.2</ele>
        <time>2026-05-21T13:00:26.999Z</time>
      </trkpt>
      <trkpt lat="43.77644" lon="3.82801">
        <ele>409.1</ele>
        <time>2026-05-21T13:00:27.999Z</time>
      </trkpt>
      <trkpt lat="43.77644" lon="3.82801">
        <ele>409.2</ele>
        <time>2026-05-21T13:00:28.999Z</time>
      </trkpt>
      <trkpt lat="43.77644" lon="3.82801">
        <ele>409.2</ele>
        <time>2026-05-21T13:00:29.999Z</time>
      </trkpt>
      <trkpt lat="43.77644" lon="3.82801">
        <ele>409.2</ele>
        <time>2026-05-21T13:00:30.999Z</time>
      </trkpt>
      <trkpt lat="43.77644" lon="3.82801">
        <ele>409.3</ele>
        <time>2026-05-21T13:00:31.999Z</time>
      </trkpt>
      <trkpt lat="43.77644" lon="3.82801">
        <ele>409.5</ele>
        <time>2026-05-21T13:00:32.999Z</time>
      </trkpt>
      <trkpt lat="43.77644" lon="3.82801">
        <ele>409.6</ele>
        <time>2026-05-21T13:00:33.999Z</time>
      </trkpt>
      <trkpt lat="43.77644" lon="3.82801">
        <ele>409.5</ele>
        <time>2026-05-21T13:00:34.999Z</time>
      </trkpt>
      <trkpt lat="43.77644" lon="3.82801">
        <ele>409.3</ele>
        <time>2026-05-21T13:00:35.999Z</time>
      </trkpt>
      <trkpt lat="43.77643" lon="3.82801">
        <ele>409</ele>
        <time>2026-05-21T13:00:36.999Z</time>
      </trkpt>
      <trkpt lat="43.77643" lon="3.828">
        <ele>408.6</ele>
        <time>2026-05-21T13:00:37.999Z</time>
      </trkpt>
      <trkpt lat="43.77643" lon="3.828">
        <ele>408.1</ele>
        <time>2026-05-21T13:00:38.999Z</time>
      </trkpt>
      <trkpt lat="43.77643" lon="3.828">
        <ele>407.7</ele>
        <time>2026-05-21T13:00:39.999Z</time>
      </trkpt>
      <trkpt lat="43.77643" lon="3.828">
        <ele>407.5</ele>
        <time>2026-05-21T13:00:40.999Z</time>
      </trkpt>
      <trkpt lat="43.77643" lon="3.828">
        <ele>407.4</ele>
        <time>2026-05-21T13:00:41.999Z</time>
      </trkpt>
      <trkpt lat="43.77643" lon="3.828">
        <ele>407.3</ele>
        <time>2026-05-21T13:00:42.999Z</time>
      </trkpt>
      <trkpt lat="43.77643" lon="3.82801">
        <ele>407.5</ele>
        <time>2026-05-21T13:00:43.999Z</time>
      </trkpt>
      <trkpt lat="43.77643" lon="3.82801">
        <ele>407.5</ele>
        <time>2026-05-21T13:00:44.999Z</time>
      </trkpt>
      <trkpt lat="43.77643" lon="3.828">
        <ele>407.6</ele>
        <time>2026-05-21T13:00:45.999Z</time>
      </trkpt>
      <trkpt lat="43.77643" lon="3.828">
        <ele>407.5</ele>
        <time>2026-05-21T13:00:46.999Z</time>
      </trkpt>
      <trkpt lat="43.77642" lon="3.828">
        <ele>407.4</ele>
        <time>2026-05-21T13:00:47.999Z</time>
      </trkpt>
      <trkpt lat="43.77642" lon="3.828">
        <ele>407.5</ele>
        <time>2026-05-21T13:00:48.999Z</time>
      </trkpt>
      <trkpt lat="43.77642" lon="3.828">
        <ele>407.6</ele>
        <time>2026-05-21T13:00:49.999Z</time>
      </trkpt>
      <trkpt lat="43.77642" lon="3.828">
        <ele>407.6</ele>
        <time>2026-05-21T13:00:50.999Z</time>
      </trkpt>
      <trkpt lat="43.77641" lon="3.82799">
        <ele>407.7</ele>
        <time>2026-05-21T13:00:51.999Z</time>
      </trkpt>
      <trkpt lat="43.7764" lon="3.82799">
        <ele>407.5</ele>
        <time>2026-05-21T13:00:52.999Z</time>
      </trkpt>
      <trkpt lat="43.7764" lon="3.82799">
        <ele>407.7</ele>
        <time>2026-05-21T13:00:54.999Z</time>
      </trkpt>
      <trkpt lat="43.7764" lon="3.82799">
        <ele>407.7</ele>
        <time>2026-05-21T13:00:55.999Z</time>
      </trkpt>
      <trkpt lat="43.7764" lon="3.82798">
        <ele>407.9</ele>
        <time>2026-05-21T13:00:56.999Z</time>
      </trkpt>
      <trkpt lat="43.7764" lon="3.82798">
        <ele>407.9</ele>
        <time>2026-05-21T13:00:57.999Z</time>
      </trkpt>
      <trkpt lat="43.7764" lon="3.82798">
        <ele>407.9</ele>
        <time>2026-05-21T13:00:58.999Z</time>
      </trkpt>
      <trkpt lat="43.7764" lon="3.82798">
        <ele>407.8</ele>
        <time>2026-05-21T13:00:59.999Z</time>
      </trkpt>
      <trkpt lat="43.7764" lon="3.82798">
        <ele>407.7</ele>
        <time>2026-05-21T13:01:00.999Z</time>
      </trkpt>
      <trkpt lat="43.7764" lon="3.82798">
        <ele>407.5</ele>
        <time>2026-05-21T13:01:01.999Z</time>
      </trkpt>
      <trkpt lat="43.7764" lon="3.82798">
        <ele>407.4</ele>
        <time>2026-05-21T13:01:02.999Z</time>
      </trkpt>
      <trkpt lat="43.7764" lon="3.82797">
        <ele>407.2</ele>
        <time>2026-05-21T13:01:03.999Z</time>
      </trkpt>
      <trkpt lat="43.7764" lon="3.82797">
        <ele>407.2</ele>
        <time>2026-05-21T13:01:04.999Z</time>
      </trkpt>
      <trkpt lat="43.7764" lon="3.82797">
        <ele>407.4</ele>
        <time>2026-05-21T13:01:05.999Z</time>
      </trkpt>
      <trkpt lat="43.77639" lon="3.82797">
        <ele>407.6</ele>
        <time>2026-05-21T13:01:06.999Z</time>
      </trkpt>
      <trkpt lat="43.77639" lon="3.82796">
        <ele>407.6</ele>
        <time>2026-05-21T13:01:07.999Z</time>
      </trkpt>
      <trkpt lat="43.77639" lon="3.82795">
        <ele>407.4</ele>
        <time>2026-05-21T13:01:09.999Z</time>
      </trkpt>
      <trkpt lat="43.77639" lon="3.82795">
        <ele>407.4</ele>
        <time>2026-05-21T13:01:10.999Z</time>
      </trkpt>
      <trkpt lat="43.77638" lon="3.82795">
        <ele>407.3</ele>
        <time>2026-05-21T13:01:11.999Z</time>
      </trkpt>
      <trkpt lat="43.77638" lon="3.82794">
        <ele>407.3</ele>
        <time>2026-05-21T13:01:12.999Z</time>
      </trkpt>
      <trkpt lat="43.77638" lon="3.82794">
        <ele>407.3</ele>
        <time>2026-05-21T13:01:13.999Z</time>
      </trkpt>
      <trkpt lat="43.77637" lon="3.82793">
        <ele>407.1</ele>
        <time>2026-05-21T13:01:14.999Z</time>
      </trkpt>
      <trkpt lat="43.77637" lon="3.82793">
        <ele>407.1</ele>
        <time>2026-05-21T13:01:15.999Z</time>
      </trkpt>
      <trkpt lat="43.77637" lon="3.82793">
        <ele>407.1</ele>
        <time>2026-05-21T13:01:16.999Z</time>
      </trkpt>
      <trkpt lat="43.77637" lon="3.82793">
        <ele>407.2</ele>
        <time>2026-05-21T13:01:17.999Z</time>
      </trkpt>
      <trkpt lat="43.77637" lon="3.82793">
        <ele>407.1</ele>
        <time>2026-05-21T13:01:18.999Z</time>
      </trkpt>
      <trkpt lat="43.77638" lon="3.82793">
        <ele>406.9</ele>
        <time>2026-05-21T13:01:19.999Z</time>
      </trkpt>
      <trkpt lat="43.77637" lon="3.82792">
        <ele>406.9</ele>
        <time>2026-05-21T13:01:20.999Z</time>
      </trkpt>
      <trkpt lat="43.77637" lon="3.82792">
        <ele>406.7</ele>
        <time>2026-05-21T13:01:21.999Z</time>
      </trkpt>
      <trkpt lat="43.77637" lon="3.82791">
        <ele>407</ele>
        <time>2026-05-21T13:01:22.999Z</time>
      </trkpt>
      <trkpt lat="43.77637" lon="3.82791">
        <ele>407.5</ele>
        <time>2026-05-21T13:01:23.999Z</time>
      </trkpt>
      <trkpt lat="43.77637" lon="3.82791">
        <ele>407.8</ele>
        <time>2026-05-21T13:01:24.999Z</time>
      </trkpt>
      <trkpt lat="43.77637" lon="3.82791">
        <ele>407.8</ele>
        <time>2026-05-21T13:01:25.999Z</time>
      </trkpt>
      <trkpt lat="43.77637" lon="3.82791">
        <ele>407.5</ele>
        <time>2026-05-21T13:01:26.999Z</time>
      </trkpt>
      <trkpt lat="43.77637" lon="3.82791">
        <ele>407.6</ele>
        <time>2026-05-21T13:01:27.999Z</time>
      </trkpt>
      <trkpt lat="43.77637" lon="3.82791">
        <ele>407.6</ele>
        <time>2026-05-21T13:01:28.999Z</time>
      </trkpt>
      <trkpt lat="43.77637" lon="3.82791">
        <ele>407.3</ele>
        <time>2026-05-21T13:01:29.999Z</time>
      </trkpt>
      <trkpt lat="43.77637" lon="3.82791">
        <ele>406.8</ele>
        <time>2026-05-21T13:01:30.999Z</time>
      </trkpt>
      <trkpt lat="43.77637" lon="3.82791">
        <ele>406.8</ele>
        <time>2026-05-21T13:01:31.999Z</time>
      </trkpt>
      <trkpt lat="43.77637" lon="3.82791">
        <ele>406.8</ele>
        <time>2026-05-21T13:01:32.999Z</time>
      </trkpt>
      <trkpt lat="43.77637" lon="3.82791">
        <ele>407</ele>
        <time>2026-05-21T13:01:33.999Z</time>
      </trkpt>
      <trkpt lat="43.77637" lon="3.82791">
        <ele>407.1</ele>
        <time>2026-05-21T13:01:34.999Z</time>
      </trkpt>
      <trkpt lat="43.77637" lon="3.8279">
        <ele>407.5</ele>
        <time>2026-05-21T13:01:35.999Z</time>
      </trkpt>
      <trkpt lat="43.77637" lon="3.8279">
        <ele>407.1</ele>
        <time>2026-05-21T13:01:36.999Z</time>
      </trkpt>
      <trkpt lat="43.77637" lon="3.8279">
        <ele>406.7</ele>
        <time>2026-05-21T13:01:37.999Z</time>
      </trkpt>
      <trkpt lat="43.77637" lon="3.8279">
        <ele>406.9</ele>
        <time>2026-05-21T13:01:38.999Z</time>
      </trkpt>
      <trkpt lat="43.77637" lon="3.8279">
        <ele>407</ele>
        <time>2026-05-21T13:01:39.999Z</time>
      </trkpt>
      <trkpt lat="43.77637" lon="3.8279">
        <ele>407</ele>
        <time>2026-05-21T13:01:40.999Z</time>
      </trkpt>
      <trkpt lat="43.77637" lon="3.8279">
        <ele>406.5</ele>
        <time>2026-05-21T13:01:41.999Z</time>
      </trkpt>
      <trkpt lat="43.77637" lon="3.82789">
        <ele>406.2</ele>
        <time>2026-05-21T13:01:42.999Z</time>
      </trkpt>
      <trkpt lat="43.77637" lon="3.82789">
        <ele>406</ele>
        <time>2026-05-21T13:01:43.999Z</time>
      </trkpt>
      <trkpt lat="43.77637" lon="3.82789">
        <ele>406.3</ele>
        <time>2026-05-21T13:01:44.999Z</time>
      </trkpt>
      <trkpt lat="43.77637" lon="3.82789">
        <ele>406</ele>
        <time>2026-05-21T13:01:45.999Z</time>
      </trkpt>
      <trkpt lat="43.77637" lon="3.82789">
        <ele>405.8</ele>
        <time>2026-05-21T13:01:46.999Z</time>
      </trkpt>
      <trkpt lat="43.77637" lon="3.82789">
        <ele>405.7</ele>
        <time>2026-05-21T13:01:47.999Z</time>
      </trkpt>
      <trkpt lat="43.77637" lon="3.82789">
        <ele>405.7</ele>
        <time>2026-05-21T13:01:48.999Z</time>
      </trkpt>
      <trkpt lat="43.77637" lon="3.82789">
        <ele>405.7</ele>
        <time>2026-05-21T13:01:49.999Z</time>
      </trkpt>
      <trkpt lat="43.77637" lon="3.82789">
        <ele>405.5</ele>
        <time>2026-05-21T13:01:50.999Z</time>
      </trkpt>
      <trkpt lat="43.77637" lon="3.82789">
        <ele>405.4</ele>
        <time>2026-05-21T13:01:51.999Z</time>
      </trkpt>
      <trkpt lat="43.77637" lon="3.82789">
        <ele>405.6</ele>
        <time>2026-05-21T13:01:52.999Z</time>
      </trkpt>
      <trkpt lat="43.77637" lon="3.82789">
        <ele>405.6</ele>
        <time>2026-05-21T13:01:53.999Z</time>
      </trkpt>
      <trkpt lat="43.77637" lon="3.82789">
        <ele>405.5</ele>
        <time>2026-05-21T13:01:54.999Z</time>
      </trkpt>
      <trkpt lat="43.77637" lon="3.82788">
        <ele>405.5</ele>
        <time>2026-05-21T13:01:55.999Z</time>
      </trkpt>
      <trkpt lat="43.77637" lon="3.82788">
        <ele>405.3</ele>
        <time>2026-05-21T13:01:56.999Z</time>
      </trkpt>
      <trkpt lat="43.77637" lon="3.82788">
        <ele>405</ele>
        <time>2026-05-21T13:01:57.999Z</time>
      </trkpt>
      <trkpt lat="43.77637" lon="3.82788">
        <ele>404.7</ele>
        <time>2026-05-21T13:01:58.999Z</time>
      </trkpt>
      <trkpt lat="43.77637" lon="3.82788">
        <ele>404.4</ele>
        <time>2026-05-21T13:01:59.999Z</time>
      </trkpt>
      <trkpt lat="43.77637" lon="3.82788">
        <ele>404.6</ele>
        <time>2026-05-21T13:02:00.999Z</time>
      </trkpt>
      <trkpt lat="43.77636" lon="3.82788">
        <ele>404.6</ele>
        <time>2026-05-21T13:02:01.999Z</time>
      </trkpt>
      <trkpt lat="43.77636" lon="3.82788">
        <ele>404.8</ele>
        <time>2026-05-21T13:02:02.999Z</time>
      </trkpt>
      <trkpt lat="43.77636" lon="3.82787">
        <ele>405.1</ele>
        <time>2026-05-21T13:02:03.999Z</time>
      </trkpt>
      <trkpt lat="43.77635" lon="3.82786">
        <ele>405.4</ele>
        <time>2026-05-21T13:02:04.999Z</time>
      </trkpt>
      <trkpt lat="43.77635" lon="3.82786">
        <ele>405.2</ele>
        <time>2026-05-21T13:02:05.999Z</time>
      </trkpt>
      <trkpt lat="43.77634" lon="3.82786">
        <ele>404.6</ele>
        <time>2026-05-21T13:02:06.999Z</time>
      </trkpt>
      <trkpt lat="43.77634" lon="3.82786">
        <ele>404.5</ele>
        <time>2026-05-21T13:02:07.999Z</time>
      </trkpt>
      <trkpt lat="43.77634" lon="3.82786">
        <ele>404.2</ele>
        <time>2026-05-21T13:02:08.999Z</time>
      </trkpt>
      <trkpt lat="43.77634" lon="3.82786">
        <ele>404</ele>
        <time>2026-05-21T13:02:09.999Z</time>
      </trkpt>
      <trkpt lat="43.77634" lon="3.82786">
        <ele>403.9</ele>
        <time>2026-05-21T13:02:10.999Z</time>
      </trkpt>
      <trkpt lat="43.77633" lon="3.82786">
        <ele>403.9</ele>
        <time>2026-05-21T13:02:11.999Z</time>
      </trkpt>
      <trkpt lat="43.77633" lon="3.82786">
        <ele>404</ele>
        <time>2026-05-21T13:02:12.999Z</time>
      </trkpt>
      <trkpt lat="43.77632" lon="3.82786">
        <ele>403.8</ele>
        <time>2026-05-21T13:02:13.999Z</time>
      </trkpt>
      <trkpt lat="43.77632" lon="3.82785">
        <ele>403.6</ele>
        <time>2026-05-21T13:02:14.999Z</time>
      </trkpt>
      <trkpt lat="43.77632" lon="3.82785">
        <ele>403.6</ele>
        <time>2026-05-21T13:02:15.999Z</time>
      </trkpt>
      <trkpt lat="43.77632" lon="3.82785">
        <ele>403.7</ele>
        <time>2026-05-21T13:02:16.999Z</time>
      </trkpt>
      <trkpt lat="43.77632" lon="3.82785">
        <ele>403.5</ele>
        <time>2026-05-21T13:02:17.999Z</time>
      </trkpt>
      <trkpt lat="43.77632" lon="3.82785">
        <ele>403.3</ele>
        <time>2026-05-21T13:02:18.999Z</time>
      </trkpt>
      <trkpt lat="43.77632" lon="3.82785">
        <ele>403.1</ele>
        <time>2026-05-21T13:02:19.999Z</time>
      </trkpt>
      <trkpt lat="43.77631" lon="3.82785">
        <ele>402.9</ele>
        <time>2026-05-21T13:02:20.999Z</time>
      </trkpt>
      <trkpt lat="43.77631" lon="3.82785">
        <ele>402.5</ele>
        <time>2026-05-21T13:02:21.999Z</time>
      </trkpt>
      <trkpt lat="43.77631" lon="3.82785">
        <ele>402.3</ele>
        <time>2026-05-21T13:02:22.999Z</time>
      </trkpt>
      <trkpt lat="43.77631" lon="3.82785">
        <ele>402.2</ele>
        <time>2026-05-21T13:02:23.999Z</time>
      </trkpt>
      <trkpt lat="43.77631" lon="3.82785">
        <ele>402.1</ele>
        <time>2026-05-21T13:02:24.999Z</time>
      </trkpt>
      <trkpt lat="43.77631" lon="3.82785">
        <ele>402</ele>
        <time>2026-05-21T13:02:25.999Z</time>
      </trkpt>
      <trkpt lat="43.77631" lon="3.82785">
        <ele>401.9</ele>
        <time>2026-05-21T13:02:26.999Z</time>
      </trkpt>
      <trkpt lat="43.77631" lon="3.82785">
        <ele>401.8</ele>
        <time>2026-05-21T13:02:27.999Z</time>
      </trkpt>
      <trkpt lat="43.77629" lon="3.82786">
        <ele>401.7</ele>
        <time>2026-05-21T13:02:28.999Z</time>
      </trkpt>
      <trkpt lat="43.77628" lon="3.82788">
        <ele>401.5</ele>
        <time>2026-05-21T13:02:29.999Z</time>
      </trkpt>
      <trkpt lat="43.77628" lon="3.82788">
        <ele>401.2</ele>
        <time>2026-05-21T13:02:30.999Z</time>
      </trkpt>
      <trkpt lat="43.77627" lon="3.82789">
        <ele>401.1</ele>
        <time>2026-05-21T13:02:31.999Z</time>
      </trkpt>
      <trkpt lat="43.77627" lon="3.82789">
        <ele>401.1</ele>
        <time>2026-05-21T13:02:32.999Z</time>
      </trkpt>
      <trkpt lat="43.77627" lon="3.82789">
        <ele>400.9</ele>
        <time>2026-05-21T13:02:33.999Z</time>
      </trkpt>
      <trkpt lat="43.77627" lon="3.82789">
        <ele>400.7</ele>
        <time>2026-05-21T13:02:34.999Z</time>
      </trkpt>
      <trkpt lat="43.77627" lon="3.82789">
        <ele>400.5</ele>
        <time>2026-05-21T13:02:35.999Z</time>
      </trkpt>
      <trkpt lat="43.77627" lon="3.82789">
        <ele>400.3</ele>
        <time>2026-05-21T13:02:36.999Z</time>
      </trkpt>
      <trkpt lat="43.77626" lon="3.82791">
        <ele>400</ele>
        <time>2026-05-21T13:02:37.999Z</time>
      </trkpt>
      <trkpt lat="43.77626" lon="3.82791">
        <ele>400.1</ele>
        <time>2026-05-21T13:02:38.999Z</time>
      </trkpt>
      <trkpt lat="43.77625" lon="3.82791">
        <ele>400.1</ele>
        <time>2026-05-21T13:02:39.999Z</time>
      </trkpt>
      <trkpt lat="43.77625" lon="3.82791">
        <ele>400.2</ele>
        <time>2026-05-21T13:02:40.999Z</time>
      </trkpt>
      <trkpt lat="43.77625" lon="3.82791">
        <ele>400.2</ele>
        <time>2026-05-21T13:02:41.999Z</time>
      </trkpt>
      <trkpt lat="43.77625" lon="3.82791">
        <ele>400.3</ele>
        <time>2026-05-21T13:02:42.999Z</time>
      </trkpt>
      <trkpt lat="43.77624" lon="3.82791">
        <ele>400.3</ele>
        <time>2026-05-21T13:02:43.999Z</time>
      </trkpt>
      <trkpt lat="43.77622" lon="3.8279">
        <ele>400.1</ele>
        <time>2026-05-21T13:02:44.999Z</time>
      </trkpt>
      <trkpt lat="43.7762" lon="3.8279">
        <ele>399.4</ele>
        <time>2026-05-21T13:02:45.999Z</time>
      </trkpt>
      <trkpt lat="43.77619" lon="3.82789">
        <ele>399.1</ele>
        <time>2026-05-21T13:02:46.999Z</time>
      </trkpt>
      <trkpt lat="43.77618" lon="3.82788">
        <ele>399</ele>
        <time>2026-05-21T13:02:47.999Z</time>
      </trkpt>
      <trkpt lat="43.77618" lon="3.82788">
        <ele>398.9</ele>
        <time>2026-05-21T13:02:48.999Z</time>
      </trkpt>
      <trkpt lat="43.77617" lon="3.82788">
        <ele>398.7</ele>
        <time>2026-05-21T13:02:49.999Z</time>
      </trkpt>
      <trkpt lat="43.77617" lon="3.82788">
        <ele>398.8</ele>
        <time>2026-05-21T13:02:50.999Z</time>
      </trkpt>
      <trkpt lat="43.77617" lon="3.82787">
        <ele>398.7</ele>
        <time>2026-05-21T13:02:51.999Z</time>
      </trkpt>
      <trkpt lat="43.77617" lon="3.82787">
        <ele>398.7</ele>
        <time>2026-05-21T13:02:52.999Z</time>
      </trkpt>
      <trkpt lat="43.77617" lon="3.82787">
        <ele>398.6</ele>
        <time>2026-05-21T13:02:53.999Z</time>
      </trkpt>
      <trkpt lat="43.77616" lon="3.82787">
        <ele>398.6</ele>
        <time>2026-05-21T13:02:54.999Z</time>
      </trkpt>
      <trkpt lat="43.77615" lon="3.82787">
        <ele>398.6</ele>
        <time>2026-05-21T13:02:55.999Z</time>
      </trkpt>
      <trkpt lat="43.77614" lon="3.82786">
        <ele>398.5</ele>
        <time>2026-05-21T13:02:56.999Z</time>
      </trkpt>
      <trkpt lat="43.77613" lon="3.82785">
        <ele>398.5</ele>
        <time>2026-05-21T13:02:57.999Z</time>
      </trkpt>
      <trkpt lat="43.77612" lon="3.82784">
        <ele>398.4</ele>
        <time>2026-05-21T13:02:58.999Z</time>
      </trkpt>
      <trkpt lat="43.7761" lon="3.82783">
        <ele>398.2</ele>
        <time>2026-05-21T13:02:59.999Z</time>
      </trkpt>
      <trkpt lat="43.77609" lon="3.82783">
        <ele>397.9</ele>
        <time>2026-05-21T13:03:00.999Z</time>
      </trkpt>
      <trkpt lat="43.77608" lon="3.82783">
        <ele>397.8</ele>
        <time>2026-05-21T13:03:01.999Z</time>
      </trkpt>
      <trkpt lat="43.77608" lon="3.82783">
        <ele>397.8</ele>
        <time>2026-05-21T13:03:02.999Z</time>
      </trkpt>
      <trkpt lat="43.77608" lon="3.82782">
        <ele>397.4</ele>
        <time>2026-05-21T13:03:03.999Z</time>
      </trkpt>
      <trkpt lat="43.77608" lon="3.82782">
        <ele>397.3</ele>
        <time>2026-05-21T13:03:04.999Z</time>
      </trkpt>
      <trkpt lat="43.77608" lon="3.82782">
        <ele>397.1</ele>
        <time>2026-05-21T13:03:05.999Z</time>
      </trkpt>
      <trkpt lat="43.77608" lon="3.82782">
        <ele>396.9</ele>
        <time>2026-05-21T13:03:06.999Z</time>
      </trkpt>
      <trkpt lat="43.77608" lon="3.82782">
        <ele>396.7</ele>
        <time>2026-05-21T13:03:07.999Z</time>
      </trkpt>
      <trkpt lat="43.77608" lon="3.82782">
        <ele>396.5</ele>
        <time>2026-05-21T13:03:08.999Z</time>
      </trkpt>
      <trkpt lat="43.77608" lon="3.82782">
        <ele>396.5</ele>
        <time>2026-05-21T13:03:09.999Z</time>
      </trkpt>
      <trkpt lat="43.77608" lon="3.82783">
        <ele>396.4</ele>
        <time>2026-05-21T13:03:10.999Z</time>
      </trkpt>
      <trkpt lat="43.77607" lon="3.82784">
        <ele>396.3</ele>
        <time>2026-05-21T13:03:11.999Z</time>
      </trkpt>
      <trkpt lat="43.77606" lon="3.82785">
        <ele>396.4</ele>
        <time>2026-05-21T13:03:12.999Z</time>
      </trkpt>
      <trkpt lat="43.77605" lon="3.82787">
        <ele>396</ele>
        <time>2026-05-21T13:03:13.999Z</time>
      </trkpt>
      <trkpt lat="43.77605" lon="3.82787">
        <ele>395.8</ele>
        <time>2026-05-21T13:03:14.999Z</time>
      </trkpt>
      <trkpt lat="43.77605" lon="3.82788">
        <ele>395.4</ele>
        <time>2026-05-21T13:03:15.999Z</time>
      </trkpt>
      <trkpt lat="43.77605" lon="3.82788">
        <ele>395.1</ele>
        <time>2026-05-21T13:03:16.999Z</time>
      </trkpt>
      <trkpt lat="43.77604" lon="3.82788">
        <ele>394.8</ele>
        <time>2026-05-21T13:03:17.999Z</time>
      </trkpt>
      <trkpt lat="43.77604" lon="3.82788">
        <ele>394.6</ele>
        <time>2026-05-21T13:03:18.999Z</time>
      </trkpt>
      <trkpt lat="43.77604" lon="3.82788">
        <ele>394.5</ele>
        <time>2026-05-21T13:03:19.999Z</time>
      </trkpt>
      <trkpt lat="43.77604" lon="3.82788">
        <ele>394.7</ele>
        <time>2026-05-21T13:03:20.999Z</time>
      </trkpt>
      <trkpt lat="43.77605" lon="3.82788">
        <ele>394.7</ele>
        <time>2026-05-21T13:03:21.999Z</time>
      </trkpt>
      <trkpt lat="43.77605" lon="3.82788">
        <ele>394.8</ele>
        <time>2026-05-21T13:03:22.999Z</time>
      </trkpt>
      <trkpt lat="43.77605" lon="3.82787">
        <ele>395</ele>
        <time>2026-05-21T13:03:23.999Z</time>
      </trkpt>
      <trkpt lat="43.77605" lon="3.82788">
        <ele>394.9</ele>
        <time>2026-05-21T13:03:24.999Z</time>
      </trkpt>
      <trkpt lat="43.77605" lon="3.82788">
        <ele>394.6</ele>
        <time>2026-05-21T13:03:25.999Z</time>
      </trkpt>
      <trkpt lat="43.77605" lon="3.82788">
        <ele>394.5</ele>
        <time>2026-05-21T13:03:26.999Z</time>
      </trkpt>
      <trkpt lat="43.77605" lon="3.82788">
        <ele>394.6</ele>
        <time>2026-05-21T13:03:27.999Z</time>
      </trkpt>
      <trkpt lat="43.77605" lon="3.82788">
        <ele>394.3</ele>
        <time>2026-05-21T13:03:28.999Z</time>
      </trkpt>
      <trkpt lat="43.77605" lon="3.82788">
        <ele>394</ele>
        <time>2026-05-21T13:03:29.999Z</time>
      </trkpt>
      <trkpt lat="43.77605" lon="3.82788">
        <ele>393.7</ele>
        <time>2026-05-21T13:03:30.999Z</time>
      </trkpt>
      <trkpt lat="43.77605" lon="3.82788">
        <ele>393.5</ele>
        <time>2026-05-21T13:03:31.999Z</time>
      </trkpt>
      <trkpt lat="43.77605" lon="3.82788">
        <ele>393.3</ele>
        <time>2026-05-21T13:03:32.999Z</time>
      </trkpt>
      <trkpt lat="43.77605" lon="3.82788">
        <ele>393.1</ele>
        <time>2026-05-21T13:03:33.999Z</time>
      </trkpt>
      <trkpt lat="43.77605" lon="3.82788">
        <ele>392.9</ele>
        <time>2026-05-21T13:03:34.999Z</time>
      </trkpt>
      <trkpt lat="43.77605" lon="3.82788">
        <ele>392.8</ele>
        <time>2026-05-21T13:03:35.999Z</time>
      </trkpt>
      <trkpt lat="43.77605" lon="3.82788">
        <ele>392.7</ele>
        <time>2026-05-21T13:03:36.999Z</time>
      </trkpt>
      <trkpt lat="43.77605" lon="3.82788">
        <ele>392.5</ele>
        <time>2026-05-21T13:03:37.999Z</time>
      </trkpt>
      <trkpt lat="43.77605" lon="3.82788">
        <ele>392.4</ele>
        <time>2026-05-21T13:03:38.999Z</time>
      </trkpt>
      <trkpt lat="43.77605" lon="3.82788">
        <ele>392.4</ele>
        <time>2026-05-21T13:03:39.999Z</time>
      </trkpt>
      <trkpt lat="43.77606" lon="3.82787">
        <ele>392.8</ele>
        <time>2026-05-21T13:03:40.999Z</time>
      </trkpt>
      <trkpt lat="43.77606" lon="3.82786">
        <ele>393.2</ele>
        <time>2026-05-21T13:03:41.999Z</time>
      </trkpt>
      <trkpt lat="43.77606" lon="3.82786">
        <ele>393.5</ele>
        <time>2026-05-21T13:03:42.999Z</time>
      </trkpt>
      <trkpt lat="43.77605" lon="3.82784">
        <ele>393.7</ele>
        <time>2026-05-21T13:03:43.999Z</time>
      </trkpt>
      <trkpt lat="43.77605" lon="3.82783">
        <ele>393.8</ele>
        <time>2026-05-21T13:03:44.999Z</time>
      </trkpt>
      <trkpt lat="43.77605" lon="3.82782">
        <ele>393.9</ele>
        <time>2026-05-21T13:03:45.999Z</time>
      </trkpt>
      <trkpt lat="43.77605" lon="3.82781">
        <ele>393.9</ele>
        <time>2026-05-21T13:03:46.999Z</time>
      </trkpt>
      <trkpt lat="43.77605" lon="3.82781">
        <ele>394.1</ele>
        <time>2026-05-21T13:03:47.999Z</time>
      </trkpt>
      <trkpt lat="43.77605" lon="3.82781">
        <ele>393.8</ele>
        <time>2026-05-21T13:03:48.999Z</time>
      </trkpt>
      <trkpt lat="43.77605" lon="3.82781">
        <ele>394</ele>
        <time>2026-05-21T13:03:49.999Z</time>
      </trkpt>
      <trkpt lat="43.77605" lon="3.82781">
        <ele>394.2</ele>
        <time>2026-05-21T13:03:50.999Z</time>
      </trkpt>
      <trkpt lat="43.77605" lon="3.82781">
        <ele>394.3</ele>
        <time>2026-05-21T13:03:51.999Z</time>
      </trkpt>
      <trkpt lat="43.77604" lon="3.8278">
        <ele>394.3</ele>
        <time>2026-05-21T13:03:52.999Z</time>
      </trkpt>
      <trkpt lat="43.77604" lon="3.8278">
        <ele>394.2</ele>
        <time>2026-05-21T13:03:53.999Z</time>
      </trkpt>
      <trkpt lat="43.77604" lon="3.8278">
        <ele>394.1</ele>
        <time>2026-05-21T13:03:54.999Z</time>
      </trkpt>
      <trkpt lat="43.77604" lon="3.8278">
        <ele>394.1</ele>
        <time>2026-05-21T13:03:55.999Z</time>
      </trkpt>
      <trkpt lat="43.77604" lon="3.8278">
        <ele>394</ele>
        <time>2026-05-21T13:03:56.999Z</time>
      </trkpt>
      <trkpt lat="43.77604" lon="3.8278">
        <ele>393.9</ele>
        <time>2026-05-21T13:03:57.999Z</time>
      </trkpt>
      <trkpt lat="43.77603" lon="3.8278">
        <ele>393.6</ele>
        <time>2026-05-21T13:03:58.999Z</time>
      </trkpt>
      <trkpt lat="43.77603" lon="3.82779">
        <ele>393.7</ele>
        <time>2026-05-21T13:03:59.999Z</time>
      </trkpt>
      <trkpt lat="43.77603" lon="3.8278">
        <ele>393.6</ele>
        <time>2026-05-21T13:04:00.999Z</time>
      </trkpt>
      <trkpt lat="43.77604" lon="3.82779">
        <ele>393.7</ele>
        <time>2026-05-21T13:04:01.999Z</time>
      </trkpt>
      <trkpt lat="43.77604" lon="3.82778">
        <ele>393.6</ele>
        <time>2026-05-21T13:04:02.999Z</time>
      </trkpt>
      <trkpt lat="43.77605" lon="3.82777">
        <ele>393.6</ele>
        <time>2026-05-21T13:04:03.999Z</time>
      </trkpt>
      <trkpt lat="43.77605" lon="3.82777">
        <ele>393.4</ele>
        <time>2026-05-21T13:04:04.999Z</time>
      </trkpt>
      <trkpt lat="43.77605" lon="3.82777">
        <ele>393.1</ele>
        <time>2026-05-21T13:04:05.999Z</time>
      </trkpt>
      <trkpt lat="43.77604" lon="3.82778">
        <ele>392.8</ele>
        <time>2026-05-21T13:04:06.999Z</time>
      </trkpt>
      <trkpt lat="43.77604" lon="3.82777">
        <ele>392.7</ele>
        <time>2026-05-21T13:04:07.999Z</time>
      </trkpt>
      <trkpt lat="43.77603" lon="3.82776">
        <ele>392.7</ele>
        <time>2026-05-21T13:04:08.999Z</time>
      </trkpt>
      <trkpt lat="43.77602" lon="3.82776">
        <ele>392.4</ele>
        <time>2026-05-21T13:04:09.999Z</time>
      </trkpt>
      <trkpt lat="43.77601" lon="3.82776">
        <ele>392.3</ele>
        <time>2026-05-21T13:04:10.999Z</time>
      </trkpt>
      <trkpt lat="43.776" lon="3.82774">
        <ele>392.8</ele>
        <time>2026-05-21T13:04:11.999Z</time>
      </trkpt>
      <trkpt lat="43.776" lon="3.82773">
        <ele>393.1</ele>
        <time>2026-05-21T13:04:12.999Z</time>
      </trkpt>
      <trkpt lat="43.77599" lon="3.82773">
        <ele>393.2</ele>
        <time>2026-05-21T13:04:13.999Z</time>
      </trkpt>
      <trkpt lat="43.77599" lon="3.82772">
        <ele>393.5</ele>
        <time>2026-05-21T13:04:14.999Z</time>
      </trkpt>
      <trkpt lat="43.77599" lon="3.82772">
        <ele>393.8</ele>
        <time>2026-05-21T13:04:15.999Z</time>
      </trkpt>
      <trkpt lat="43.77599" lon="3.82772">
        <ele>394</ele>
        <time>2026-05-21T13:04:16.999Z</time>
      </trkpt>
      <trkpt lat="43.77599" lon="3.82772">
        <ele>394.2</ele>
        <time>2026-05-21T13:04:17.999Z</time>
      </trkpt>
      <trkpt lat="43.77598" lon="3.82772">
        <ele>394.3</ele>
        <time>2026-05-21T13:04:18.999Z</time>
      </trkpt>
      <trkpt lat="43.77598" lon="3.82772">
        <ele>394.2</ele>
        <time>2026-05-21T13:04:19.999Z</time>
      </trkpt>
      <trkpt lat="43.77598" lon="3.82772">
        <ele>394.2</ele>
        <time>2026-05-21T13:04:20.999Z</time>
      </trkpt>
      <trkpt lat="43.77599" lon="3.82773">
        <ele>394.2</ele>
        <time>2026-05-21T13:04:21.999Z</time>
      </trkpt>
      <trkpt lat="43.77598" lon="3.82773">
        <ele>394.2</ele>
        <time>2026-05-21T13:04:22.999Z</time>
      </trkpt>
      <trkpt lat="43.77597" lon="3.82773">
        <ele>394.1</ele>
        <time>2026-05-21T13:04:23.999Z</time>
      </trkpt>
      <trkpt lat="43.77596" lon="3.82772">
        <ele>393.9</ele>
        <time>2026-05-21T13:04:24.999Z</time>
      </trkpt>
      <trkpt lat="43.77595" lon="3.82772">
        <ele>393.7</ele>
        <time>2026-05-21T13:04:25.999Z</time>
      </trkpt>
      <trkpt lat="43.77594" lon="3.82771">
        <ele>393.7</ele>
        <time>2026-05-21T13:04:26.999Z</time>
      </trkpt>
      <trkpt lat="43.77593" lon="3.82771">
        <ele>393.9</ele>
        <time>2026-05-21T13:04:27.999Z</time>
      </trkpt>
      <trkpt lat="43.77593" lon="3.82771">
        <ele>393.6</ele>
        <time>2026-05-21T13:04:28.999Z</time>
      </trkpt>
      <trkpt lat="43.77593" lon="3.82771">
        <ele>393.5</ele>
        <time>2026-05-21T13:04:29.999Z</time>
      </trkpt>
      <trkpt lat="43.77592" lon="3.82771">
        <ele>393.3</ele>
        <time>2026-05-21T13:04:30.999Z</time>
      </trkpt>
      <trkpt lat="43.77592" lon="3.82771">
        <ele>393.1</ele>
        <time>2026-05-21T13:04:31.999Z</time>
      </trkpt>
      <trkpt lat="43.77592" lon="3.82772">
        <ele>393.1</ele>
        <time>2026-05-21T13:04:32.999Z</time>
      </trkpt>
      <trkpt lat="43.77591" lon="3.82772">
        <ele>393</ele>
        <time>2026-05-21T13:04:33.999Z</time>
      </trkpt>
      <trkpt lat="43.77591" lon="3.82772">
        <ele>392.6</ele>
        <time>2026-05-21T13:04:34.999Z</time>
      </trkpt>
      <trkpt lat="43.7759" lon="3.82773">
        <ele>392.2</ele>
        <time>2026-05-21T13:04:35.999Z</time>
      </trkpt>
      <trkpt lat="43.7759" lon="3.82773">
        <ele>392</ele>
        <time>2026-05-21T13:04:36.999Z</time>
      </trkpt>
      <trkpt lat="43.7759" lon="3.82773">
        <ele>392</ele>
        <time>2026-05-21T13:04:37.999Z</time>
      </trkpt>
      <trkpt lat="43.7759" lon="3.82773">
        <ele>391.9</ele>
        <time>2026-05-21T13:04:38.999Z</time>
      </trkpt>
      <trkpt lat="43.7759" lon="3.82773">
        <ele>392.3</ele>
        <time>2026-05-21T13:04:39.999Z</time>
      </trkpt>
      <trkpt lat="43.7759" lon="3.82773">
        <ele>392.3</ele>
        <time>2026-05-21T13:04:40.999Z</time>
      </trkpt>
      <trkpt lat="43.77589" lon="3.82773">
        <ele>392.3</ele>
        <time>2026-05-21T13:04:41.999Z</time>
      </trkpt>
      <trkpt lat="43.77589" lon="3.82773">
        <ele>392.3</ele>
        <time>2026-05-21T13:04:42.999Z</time>
      </trkpt>
      <trkpt lat="43.7759" lon="3.82772">
        <ele>392.3</ele>
        <time>2026-05-21T13:04:43.999Z</time>
      </trkpt>
      <trkpt lat="43.7759" lon="3.82772">
        <ele>392.5</ele>
        <time>2026-05-21T13:04:44.999Z</time>
      </trkpt>
      <trkpt lat="43.7759" lon="3.82772">
        <ele>392.7</ele>
        <time>2026-05-21T13:04:45.999Z</time>
      </trkpt>
      <trkpt lat="43.7759" lon="3.82772">
        <ele>392.9</ele>
        <time>2026-05-21T13:04:46.999Z</time>
      </trkpt>
      <trkpt lat="43.7759" lon="3.82772">
        <ele>393.2</ele>
        <time>2026-05-21T13:04:47.999Z</time>
      </trkpt>
      <trkpt lat="43.7759" lon="3.82772">
        <ele>393.1</ele>
        <time>2026-05-21T13:04:48.999Z</time>
      </trkpt>
      <trkpt lat="43.7759" lon="3.82771">
        <ele>393.2</ele>
        <time>2026-05-21T13:04:49.999Z</time>
      </trkpt>
      <trkpt lat="43.77591" lon="3.82771">
        <ele>392.9</ele>
        <time>2026-05-21T13:04:50.999Z</time>
      </trkpt>
      <trkpt lat="43.77591" lon="3.82772">
        <ele>392.8</ele>
        <time>2026-05-21T13:04:51.999Z</time>
      </trkpt>
      <trkpt lat="43.77591" lon="3.82772">
        <ele>392.7</ele>
        <time>2026-05-21T13:04:52.999Z</time>
      </trkpt>
      <trkpt lat="43.77591" lon="3.82772">
        <ele>392.6</ele>
        <time>2026-05-21T13:04:53.999Z</time>
      </trkpt>
      <trkpt lat="43.77591" lon="3.82772">
        <ele>392.4</ele>
        <time>2026-05-21T13:04:54.999Z</time>
      </trkpt>
      <trkpt lat="43.77592" lon="3.82772">
        <ele>392.3</ele>
        <time>2026-05-21T13:04:55.999Z</time>
      </trkpt>
      <trkpt lat="43.77592" lon="3.82772">
        <ele>392.1</ele>
        <time>2026-05-21T13:04:56.999Z</time>
      </trkpt>
      <trkpt lat="43.77592" lon="3.82772">
        <ele>392</ele>
        <time>2026-05-21T13:04:57.999Z</time>
      </trkpt>
      <trkpt lat="43.77592" lon="3.82772">
        <ele>392.1</ele>
        <time>2026-05-21T13:04:58.999Z</time>
      </trkpt>
      <trkpt lat="43.77592" lon="3.82773">
        <ele>392.2</ele>
        <time>2026-05-21T13:04:59.999Z</time>
      </trkpt>
      <trkpt lat="43.77593" lon="3.82773">
        <ele>392.3</ele>
        <time>2026-05-21T13:05:00.999Z</time>
      </trkpt>
      <trkpt lat="43.77593" lon="3.82773">
        <ele>392.6</ele>
        <time>2026-05-21T13:05:01.999Z</time>
      </trkpt>
      <trkpt lat="43.77594" lon="3.82774">
        <ele>393</ele>
        <time>2026-05-21T13:05:02.999Z</time>
      </trkpt>
      <trkpt lat="43.77595" lon="3.82774">
        <ele>393.4</ele>
        <time>2026-05-21T13:05:03.999Z</time>
      </trkpt>
      <trkpt lat="43.77595" lon="3.82775">
        <ele>393.5</ele>
        <time>2026-05-21T13:05:04.999Z</time>
      </trkpt>
      <trkpt lat="43.77595" lon="3.82775">
        <ele>393.7</ele>
        <time>2026-05-21T13:05:05.999Z</time>
      </trkpt>
      <trkpt lat="43.77595" lon="3.82775">
        <ele>393.8</ele>
        <time>2026-05-21T13:05:06.999Z</time>
      </trkpt>
      <trkpt lat="43.77595" lon="3.82775">
        <ele>394</ele>
        <time>2026-05-21T13:05:07.999Z</time>
      </trkpt>
      <trkpt lat="43.77595" lon="3.82775">
        <ele>394.2</ele>
        <time>2026-05-21T13:05:08.999Z</time>
      </trkpt>
      <trkpt lat="43.77595" lon="3.82775">
        <ele>394.2</ele>
        <time>2026-05-21T13:05:09.999Z</time>
      </trkpt>
      <trkpt lat="43.77596" lon="3.82775">
        <ele>394.2</ele>
        <time>2026-05-21T13:05:10.999Z</time>
      </trkpt>
      <trkpt lat="43.77596" lon="3.82775">
        <ele>394.2</ele>
        <time>2026-05-21T13:05:11.999Z</time>
      </trkpt>
      <trkpt lat="43.77596" lon="3.82775">
        <ele>394.8</ele>
        <time>2026-05-21T13:05:12.999Z</time>
      </trkpt>
      <trkpt lat="43.77596" lon="3.82775">
        <ele>395.4</ele>
        <time>2026-05-21T13:05:13.999Z</time>
      </trkpt>
      <trkpt lat="43.77596" lon="3.82776">
        <ele>395</ele>
        <time>2026-05-21T13:05:14.999Z</time>
      </trkpt>
      <trkpt lat="43.77597" lon="3.82776">
        <ele>394.9</ele>
        <time>2026-05-21T13:05:15.999Z</time>
      </trkpt>
      <trkpt lat="43.77597" lon="3.82777">
        <ele>394.7</ele>
        <time>2026-05-21T13:05:16.999Z</time>
      </trkpt>
      <trkpt lat="43.77597" lon="3.82777">
        <ele>394.7</ele>
        <time>2026-05-21T13:05:17.999Z</time>
      </trkpt>
      <trkpt lat="43.77598" lon="3.82778">
        <ele>395.2</ele>
        <time>2026-05-21T13:05:18.999Z</time>
      </trkpt>
      <trkpt lat="43.77599" lon="3.82779">
        <ele>395.5</ele>
        <time>2026-05-21T13:05:19.999Z</time>
      </trkpt>
      <trkpt lat="43.77599" lon="3.8278">
        <ele>396</ele>
        <time>2026-05-21T13:05:20.999Z</time>
      </trkpt>
      <trkpt lat="43.776" lon="3.82781">
        <ele>396.4</ele>
        <time>2026-05-21T13:05:21.999Z</time>
      </trkpt>
      <trkpt lat="43.77601" lon="3.82782">
        <ele>396.6</ele>
        <time>2026-05-21T13:05:22.999Z</time>
      </trkpt>
      <trkpt lat="43.77603" lon="3.82782">
        <ele>396.4</ele>
        <time>2026-05-21T13:05:23.999Z</time>
      </trkpt>
      <trkpt lat="43.77604" lon="3.82783">
        <ele>396.4</ele>
        <time>2026-05-21T13:05:24.999Z</time>
      </trkpt>
      <trkpt lat="43.77604" lon="3.82784">
        <ele>396.3</ele>
        <time>2026-05-21T13:05:25.999Z</time>
      </trkpt>
      <trkpt lat="43.77605" lon="3.82785">
        <ele>396.3</ele>
        <time>2026-05-21T13:05:26.999Z</time>
      </trkpt>
      <trkpt lat="43.77605" lon="3.82785">
        <ele>396.5</ele>
        <time>2026-05-21T13:05:27.999Z</time>
      </trkpt>
      <trkpt lat="43.77606" lon="3.82786">
        <ele>396.4</ele>
        <time>2026-05-21T13:05:28.999Z</time>
      </trkpt>
      <trkpt lat="43.77608" lon="3.82786">
        <ele>396.4</ele>
        <time>2026-05-21T13:05:29.999Z</time>
      </trkpt>
      <trkpt lat="43.77609" lon="3.82787">
        <ele>396.3</ele>
        <time>2026-05-21T13:05:30.999Z</time>
      </trkpt>
      <trkpt lat="43.7761" lon="3.82788">
        <ele>396.1</ele>
        <time>2026-05-21T13:05:31.999Z</time>
      </trkpt>
      <trkpt lat="43.77611" lon="3.82788">
        <ele>396.2</ele>
        <time>2026-05-21T13:05:32.999Z</time>
      </trkpt>
      <trkpt lat="43.77612" lon="3.82789">
        <ele>396.4</ele>
        <time>2026-05-21T13:05:33.999Z</time>
      </trkpt>
      <trkpt lat="43.77613" lon="3.8279">
        <ele>396.5</ele>
        <time>2026-05-21T13:05:34.999Z</time>
      </trkpt>
      <trkpt lat="43.77613" lon="3.82791">
        <ele>396.4</ele>
        <time>2026-05-21T13:05:35.999Z</time>
      </trkpt>
      <trkpt lat="43.77614" lon="3.82791">
        <ele>396.3</ele>
        <time>2026-05-21T13:05:36.999Z</time>
      </trkpt>
      <trkpt lat="43.77615" lon="3.82792">
        <ele>396.8</ele>
        <time>2026-05-21T13:05:37.999Z</time>
      </trkpt>
      <trkpt lat="43.77616" lon="3.82793">
        <ele>396.8</ele>
        <time>2026-05-21T13:05:38.999Z</time>
      </trkpt>
      <trkpt lat="43.77616" lon="3.82793">
        <ele>396.9</ele>
        <time>2026-05-21T13:05:39.999Z</time>
      </trkpt>
      <trkpt lat="43.77618" lon="3.82794">
        <ele>397.1</ele>
        <time>2026-05-21T13:05:40.999Z</time>
      </trkpt>
      <trkpt lat="43.77618" lon="3.82795">
        <ele>396.8</ele>
        <time>2026-05-21T13:05:41.999Z</time>
      </trkpt>
      <trkpt lat="43.77619" lon="3.82795">
        <ele>396.6</ele>
        <time>2026-05-21T13:05:43.999Z</time>
      </trkpt>
      <trkpt lat="43.77619" lon="3.82795">
        <ele>396.2</ele>
        <time>2026-05-21T13:05:44.999Z</time>
      </trkpt>
      <trkpt lat="43.77619" lon="3.82795">
        <ele>396.2</ele>
        <time>2026-05-21T13:05:45.999Z</time>
      </trkpt>
      <trkpt lat="43.77619" lon="3.82795">
        <ele>396.2</ele>
        <time>2026-05-21T13:05:46.999Z</time>
      </trkpt>
      <trkpt lat="43.77619" lon="3.82795">
        <ele>396.3</ele>
        <time>2026-05-21T13:05:47.999Z</time>
      </trkpt>
      <trkpt lat="43.77619" lon="3.82795">
        <ele>396.7</ele>
        <time>2026-05-21T13:05:48.999Z</time>
      </trkpt>
      <trkpt lat="43.77619" lon="3.82795">
        <ele>396.8</ele>
        <time>2026-05-21T13:05:49.999Z</time>
      </trkpt>
      <trkpt lat="43.77619" lon="3.82795">
        <ele>396.8</ele>
        <time>2026-05-21T13:05:50.999Z</time>
      </trkpt>
      <trkpt lat="43.77619" lon="3.82795">
        <ele>396.7</ele>
        <time>2026-05-21T13:05:51.999Z</time>
      </trkpt>
      <trkpt lat="43.77619" lon="3.82795">
        <ele>396.6</ele>
        <time>2026-05-21T13:05:52.999Z</time>
      </trkpt>
      <trkpt lat="43.77619" lon="3.82795">
        <ele>396.5</ele>
        <time>2026-05-21T13:05:53.999Z</time>
      </trkpt>
      <trkpt lat="43.77619" lon="3.82795">
        <ele>396.2</ele>
        <time>2026-05-21T13:05:54.999Z</time>
      </trkpt>
      <trkpt lat="43.77619" lon="3.82795">
        <ele>396.1</ele>
        <time>2026-05-21T13:05:55.999Z</time>
      </trkpt>
      <trkpt lat="43.77619" lon="3.82795">
        <ele>396.2</ele>
        <time>2026-05-21T13:05:56.999Z</time>
      </trkpt>
      <trkpt lat="43.77619" lon="3.82795">
        <ele>396.3</ele>
        <time>2026-05-21T13:05:57.999Z</time>
      </trkpt>
      <trkpt lat="43.77619" lon="3.82795">
        <ele>396.3</ele>
        <time>2026-05-21T13:05:58.999Z</time>
      </trkpt>
      <trkpt lat="43.77619" lon="3.82795">
        <ele>396.7</ele>
        <time>2026-05-21T13:06:00.999Z</time>
      </trkpt>
      <trkpt lat="43.77619" lon="3.82795">
        <ele>396.8</ele>
        <time>2026-05-21T13:06:01.999Z</time>
      </trkpt>
      <trkpt lat="43.77619" lon="3.82795">
        <ele>396.8</ele>
        <time>2026-05-21T13:06:02.999Z</time>
      </trkpt>
      <trkpt lat="43.77619" lon="3.82795">
        <ele>396.9</ele>
        <time>2026-05-21T13:06:03.999Z</time>
      </trkpt>
      <trkpt lat="43.77619" lon="3.82795">
        <ele>396.8</ele>
        <time>2026-05-21T13:06:04.999Z</time>
      </trkpt>
      <trkpt lat="43.77619" lon="3.82794">
        <ele>396.6</ele>
        <time>2026-05-21T13:06:05.999Z</time>
      </trkpt>
      <trkpt lat="43.77619" lon="3.82794">
        <ele>396.5</ele>
        <time>2026-05-21T13:06:06.999Z</time>
      </trkpt>
      <trkpt lat="43.77619" lon="3.82794">
        <ele>396.5</ele>
        <time>2026-05-21T13:06:07.999Z</time>
      </trkpt>
      <trkpt lat="43.77619" lon="3.82794">
        <ele>396.4</ele>
        <time>2026-05-21T13:06:08.999Z</time>
      </trkpt>
      <trkpt lat="43.77619" lon="3.82794">
        <ele>396.3</ele>
        <time>2026-05-21T13:06:09.999Z</time>
      </trkpt>
      <trkpt lat="43.77619" lon="3.82794">
        <ele>396.3</ele>
        <time>2026-05-21T13:06:10.999Z</time>
      </trkpt>
      <trkpt lat="43.77619" lon="3.82793">
        <ele>396</ele>
        <time>2026-05-21T13:06:11.999Z</time>
      </trkpt>
      <trkpt lat="43.77618" lon="3.82793">
        <ele>396.1</ele>
        <time>2026-05-21T13:06:12.999Z</time>
      </trkpt>
      <trkpt lat="43.77617" lon="3.82793">
        <ele>396.1</ele>
        <time>2026-05-21T13:06:13.999Z</time>
      </trkpt>
      <trkpt lat="43.77616" lon="3.82793">
        <ele>396.1</ele>
        <time>2026-05-21T13:06:14.999Z</time>
      </trkpt>
      <trkpt lat="43.77616" lon="3.82793">
        <ele>396.4</ele>
        <time>2026-05-21T13:06:15.999Z</time>
      </trkpt>
      <trkpt lat="43.77616" lon="3.82793">
        <ele>396.4</ele>
        <time>2026-05-21T13:06:16.999Z</time>
      </trkpt>
      <trkpt lat="43.77616" lon="3.82792">
        <ele>396.8</ele>
        <time>2026-05-21T13:06:17.999Z</time>
      </trkpt>
      <trkpt lat="43.77616" lon="3.82792">
        <ele>397.2</ele>
        <time>2026-05-21T13:06:18.999Z</time>
      </trkpt>
      <trkpt lat="43.77616" lon="3.82792">
        <ele>396.9</ele>
        <time>2026-05-21T13:06:19.999Z</time>
      </trkpt>
      <trkpt lat="43.77615" lon="3.82792">
        <ele>396.7</ele>
        <time>2026-05-21T13:06:20.999Z</time>
      </trkpt>
      <trkpt lat="43.77615" lon="3.82791">
        <ele>397</ele>
        <time>2026-05-21T13:06:21.999Z</time>
      </trkpt>
      <trkpt lat="43.77613" lon="3.82789">
        <ele>397</ele>
        <time>2026-05-21T13:06:22.999Z</time>
      </trkpt>
      <trkpt lat="43.77612" lon="3.82789">
        <ele>396.7</ele>
        <time>2026-05-21T13:06:23.999Z</time>
      </trkpt>
      <trkpt lat="43.77612" lon="3.82788">
        <ele>396.6</ele>
        <time>2026-05-21T13:06:24.999Z</time>
      </trkpt>
      <trkpt lat="43.77612" lon="3.82788">
        <ele>396.9</ele>
        <time>2026-05-21T13:06:25.999Z</time>
      </trkpt>
      <trkpt lat="43.77611" lon="3.82787">
        <ele>397.5</ele>
        <time>2026-05-21T13:06:26.999Z</time>
      </trkpt>
      <trkpt lat="43.7761" lon="3.82787">
        <ele>397.9</ele>
        <time>2026-05-21T13:06:27.999Z</time>
      </trkpt>
      <trkpt lat="43.77609" lon="3.82786">
        <ele>398.1</ele>
        <time>2026-05-21T13:06:28.999Z</time>
      </trkpt>
      <trkpt lat="43.77608" lon="3.82786">
        <ele>398.1</ele>
        <time>2026-05-21T13:06:29.999Z</time>
      </trkpt>
      <trkpt lat="43.77607" lon="3.82786">
        <ele>398.2</ele>
        <time>2026-05-21T13:06:30.999Z</time>
      </trkpt>
      <trkpt lat="43.77606" lon="3.82786">
        <ele>398.4</ele>
        <time>2026-05-21T13:06:31.999Z</time>
      </trkpt>
      <trkpt lat="43.77605" lon="3.82786">
        <ele>398.6</ele>
        <time>2026-05-21T13:06:32.999Z</time>
      </trkpt>
      <trkpt lat="43.77605" lon="3.82786">
        <ele>398.5</ele>
        <time>2026-05-21T13:06:33.999Z</time>
      </trkpt>
      <trkpt lat="43.77604" lon="3.82785">
        <ele>398.3</ele>
        <time>2026-05-21T13:06:34.999Z</time>
      </trkpt>
      <trkpt lat="43.77603" lon="3.82785">
        <ele>398.3</ele>
        <time>2026-05-21T13:06:35.999Z</time>
      </trkpt>
      <trkpt lat="43.77602" lon="3.82785">
        <ele>398.2</ele>
        <time>2026-05-21T13:06:36.999Z</time>
      </trkpt>
      <trkpt lat="43.77602" lon="3.82784">
        <ele>397.7</ele>
        <time>2026-05-21T13:06:37.999Z</time>
      </trkpt>
      <trkpt lat="43.77601" lon="3.82783">
        <ele>397.6</ele>
        <time>2026-05-21T13:06:38.999Z</time>
      </trkpt>
      <trkpt lat="43.77601" lon="3.82783">
        <ele>397.6</ele>
        <time>2026-05-21T13:06:39.999Z</time>
      </trkpt>
      <trkpt lat="43.77601" lon="3.82783">
        <ele>397.5</ele>
        <time>2026-05-21T13:06:40.999Z</time>
      </trkpt>
      <trkpt lat="43.77601" lon="3.82783">
        <ele>398.1</ele>
        <time>2026-05-21T13:06:41.999Z</time>
      </trkpt>
      <trkpt lat="43.77601" lon="3.82783">
        <ele>397.6</ele>
        <time>2026-05-21T13:06:42.999Z</time>
      </trkpt>
      <trkpt lat="43.77602" lon="3.82783">
        <ele>397.5</ele>
        <time>2026-05-21T13:06:43.999Z</time>
      </trkpt>
      <trkpt lat="43.77602" lon="3.82783">
        <ele>397.5</ele>
        <time>2026-05-21T13:06:44.999Z</time>
      </trkpt>
      <trkpt lat="43.77602" lon="3.82783">
        <ele>397.8</ele>
        <time>2026-05-21T13:06:45.999Z</time>
      </trkpt>
      <trkpt lat="43.77602" lon="3.82783">
        <ele>398.2</ele>
        <time>2026-05-21T13:06:46.999Z</time>
      </trkpt>
      <trkpt lat="43.77602" lon="3.82783">
        <ele>398.2</ele>
        <time>2026-05-21T13:06:47.999Z</time>
      </trkpt>
      <trkpt lat="43.77602" lon="3.82783">
        <ele>398.4</ele>
        <time>2026-05-21T13:06:48.999Z</time>
      </trkpt>
      <trkpt lat="43.77602" lon="3.82783">
        <ele>398</ele>
        <time>2026-05-21T13:06:49.999Z</time>
      </trkpt>
      <trkpt lat="43.77602" lon="3.82783">
        <ele>398</ele>
        <time>2026-05-21T13:06:50.999Z</time>
      </trkpt>
      <trkpt lat="43.77602" lon="3.82783">
        <ele>397.7</ele>
        <time>2026-05-21T13:06:51.999Z</time>
      </trkpt>
      <trkpt lat="43.77602" lon="3.82782">
        <ele>397.7</ele>
        <time>2026-05-21T13:06:52.999Z</time>
      </trkpt>
      <trkpt lat="43.77602" lon="3.82782">
        <ele>397.7</ele>
        <time>2026-05-21T13:06:53.999Z</time>
      </trkpt>
      <trkpt lat="43.77602" lon="3.82782">
        <ele>397.9</ele>
        <time>2026-05-21T13:06:55.999Z</time>
      </trkpt>
      <trkpt lat="43.77602" lon="3.82782">
        <ele>397.7</ele>
        <time>2026-05-21T13:06:56.999Z</time>
      </trkpt>
      <trkpt lat="43.77602" lon="3.82782">
        <ele>397.5</ele>
        <time>2026-05-21T13:06:57.999Z</time>
      </trkpt>
      <trkpt lat="43.77602" lon="3.82782">
        <ele>397.2</ele>
        <time>2026-05-21T13:06:58.999Z</time>
      </trkpt>
      <trkpt lat="43.77602" lon="3.82782">
        <ele>397.1</ele>
        <time>2026-05-21T13:06:59.999Z</time>
      </trkpt>
      <trkpt lat="43.77602" lon="3.82782">
        <ele>396.8</ele>
        <time>2026-05-21T13:07:00.999Z</time>
      </trkpt>
      <trkpt lat="43.77601" lon="3.82781">
        <ele>396.6</ele>
        <time>2026-05-21T13:07:01.999Z</time>
      </trkpt>
      <trkpt lat="43.776" lon="3.82781">
        <ele>396.5</ele>
        <time>2026-05-21T13:07:02.999Z</time>
      </trkpt>
      <trkpt lat="43.77599" lon="3.8278">
        <ele>396.5</ele>
        <time>2026-05-21T13:07:03.999Z</time>
      </trkpt>
      <trkpt lat="43.77598" lon="3.8278">
        <ele>396.5</ele>
        <time>2026-05-21T13:07:04.999Z</time>
      </trkpt>
      <trkpt lat="43.77598" lon="3.82779">
        <ele>396.5</ele>
        <time>2026-05-21T13:07:05.999Z</time>
      </trkpt>
      <trkpt lat="43.77597" lon="3.82779">
        <ele>396.2</ele>
        <time>2026-05-21T13:07:06.999Z</time>
      </trkpt>
      <trkpt lat="43.77597" lon="3.82778">
        <ele>395.7</ele>
        <time>2026-05-21T13:07:07.999Z</time>
      </trkpt>
      <trkpt lat="43.77596" lon="3.82777">
        <ele>395.6</ele>
        <time>2026-05-21T13:07:08.999Z</time>
      </trkpt>
      <trkpt lat="43.77595" lon="3.82776">
        <ele>395.4</ele>
        <time>2026-05-21T13:07:09.999Z</time>
      </trkpt>
      <trkpt lat="43.77595" lon="3.82776">
        <ele>395.4</ele>
        <time>2026-05-21T13:07:10.999Z</time>
      </trkpt>
      <trkpt lat="43.77594" lon="3.82775">
        <ele>395.1</ele>
        <time>2026-05-21T13:07:11.999Z</time>
      </trkpt>
      <trkpt lat="43.77594" lon="3.82775">
        <ele>395</ele>
        <time>2026-05-21T13:07:12.999Z</time>
      </trkpt>
      <trkpt lat="43.77593" lon="3.82774">
        <ele>395.2</ele>
        <time>2026-05-21T13:07:13.999Z</time>
      </trkpt>
      <trkpt lat="43.77593" lon="3.82773">
        <ele>395.2</ele>
        <time>2026-05-21T13:07:14.999Z</time>
      </trkpt>
      <trkpt lat="43.77592" lon="3.82772">
        <ele>395</ele>
        <time>2026-05-21T13:07:15.999Z</time>
      </trkpt>
      <trkpt lat="43.77591" lon="3.82772">
        <ele>394.9</ele>
        <time>2026-05-21T13:07:16.999Z</time>
      </trkpt>
      <trkpt lat="43.77591" lon="3.82772">
        <ele>394.8</ele>
        <time>2026-05-21T13:07:17.999Z</time>
      </trkpt>
      <trkpt lat="43.7759" lon="3.82772">
        <ele>394.9</ele>
        <time>2026-05-21T13:07:18.999Z</time>
      </trkpt>
      <trkpt lat="43.7759" lon="3.82771">
        <ele>394.8</ele>
        <time>2026-05-21T13:07:19.999Z</time>
      </trkpt>
      <trkpt lat="43.7759" lon="3.82771">
        <ele>394.5</ele>
        <time>2026-05-21T13:07:20.999Z</time>
      </trkpt>
      <trkpt lat="43.77589" lon="3.82771">
        <ele>394.4</ele>
        <time>2026-05-21T13:07:21.999Z</time>
      </trkpt>
      <trkpt lat="43.77589" lon="3.82771">
        <ele>394</ele>
        <time>2026-05-21T13:07:22.999Z</time>
      </trkpt>
      <trkpt lat="43.77589" lon="3.82771">
        <ele>393.9</ele>
        <time>2026-05-21T13:07:23.999Z</time>
      </trkpt>
      <trkpt lat="43.77589" lon="3.82771">
        <ele>393.8</ele>
        <time>2026-05-21T13:07:24.999Z</time>
      </trkpt>
      <trkpt lat="43.77589" lon="3.82771">
        <ele>393.7</ele>
        <time>2026-05-21T13:07:25.999Z</time>
      </trkpt>
      <trkpt lat="43.77589" lon="3.82771">
        <ele>393.8</ele>
        <time>2026-05-21T13:07:26.999Z</time>
      </trkpt>
      <trkpt lat="43.77588" lon="3.82771">
        <ele>394</ele>
        <time>2026-05-21T13:07:27.999Z</time>
      </trkpt>
      <trkpt lat="43.77588" lon="3.82771">
        <ele>393.7</ele>
        <time>2026-05-21T13:07:28.999Z</time>
      </trkpt>
      <trkpt lat="43.77588" lon="3.82771">
        <ele>393.5</ele>
        <time>2026-05-21T13:07:29.999Z</time>
      </trkpt>
      <trkpt lat="43.77588" lon="3.82771">
        <ele>393.2</ele>
        <time>2026-05-21T13:07:30.999Z</time>
      </trkpt>
      <trkpt lat="43.77588" lon="3.82771">
        <ele>392.8</ele>
        <time>2026-05-21T13:07:31.999Z</time>
      </trkpt>
      <trkpt lat="43.77588" lon="3.82771">
        <ele>392.3</ele>
        <time>2026-05-21T13:07:32.999Z</time>
      </trkpt>
      <trkpt lat="43.77588" lon="3.82771">
        <ele>391.9</ele>
        <time>2026-05-21T13:07:33.999Z</time>
      </trkpt>
      <trkpt lat="43.77588" lon="3.82771">
        <ele>391.8</ele>
        <time>2026-05-21T13:07:34.999Z</time>
      </trkpt>
      <trkpt lat="43.77588" lon="3.82771">
        <ele>391.9</ele>
        <time>2026-05-21T13:07:35.999Z</time>
      </trkpt>
      <trkpt lat="43.77588" lon="3.82772">
        <ele>391.8</ele>
        <time>2026-05-21T13:07:36.999Z</time>
      </trkpt>
      <trkpt lat="43.77588" lon="3.82772">
        <ele>391.6</ele>
        <time>2026-05-21T13:07:37.999Z</time>
      </trkpt>
      <trkpt lat="43.77588" lon="3.82772">
        <ele>391.7</ele>
        <time>2026-05-21T13:07:38.999Z</time>
      </trkpt>
      <trkpt lat="43.77588" lon="3.82772">
        <ele>391.6</ele>
        <time>2026-05-21T13:07:39.999Z</time>
      </trkpt>
      <trkpt lat="43.77588" lon="3.82772">
        <ele>391.5</ele>
        <time>2026-05-21T13:07:40.999Z</time>
      </trkpt>
      <trkpt lat="43.77588" lon="3.82772">
        <ele>391.6</ele>
        <time>2026-05-21T13:07:41.999Z</time>
      </trkpt>
      <trkpt lat="43.77588" lon="3.82772">
        <ele>391.5</ele>
        <time>2026-05-21T13:07:42.999Z</time>
      </trkpt>
      <trkpt lat="43.77588" lon="3.82772">
        <ele>391.6</ele>
        <time>2026-05-21T13:07:43.999Z</time>
      </trkpt>
      <trkpt lat="43.77588" lon="3.82772">
        <ele>391.6</ele>
        <time>2026-05-21T13:07:44.999Z</time>
      </trkpt>
      <trkpt lat="43.77588" lon="3.82772">
        <ele>391.7</ele>
        <time>2026-05-21T13:07:45.999Z</time>
      </trkpt>
      <trkpt lat="43.77588" lon="3.82772">
        <ele>391.8</ele>
        <time>2026-05-21T13:07:46.999Z</time>
      </trkpt>
      <trkpt lat="43.77588" lon="3.82772">
        <ele>391.7</ele>
        <time>2026-05-21T13:07:47.999Z</time>
      </trkpt>
      <trkpt lat="43.77588" lon="3.82772">
        <ele>391.6</ele>
        <time>2026-05-21T13:07:48.999Z</time>
      </trkpt>
      <trkpt lat="43.77588" lon="3.82773">
        <ele>391.7</ele>
        <time>2026-05-21T13:07:49.999Z</time>
      </trkpt>
      <trkpt lat="43.77588" lon="3.82773">
        <ele>391.7</ele>
        <time>2026-05-21T13:07:50.999Z</time>
      </trkpt>
      <trkpt lat="43.77588" lon="3.82773">
        <ele>391.7</ele>
        <time>2026-05-21T13:07:51.999Z</time>
      </trkpt>
      <trkpt lat="43.77588" lon="3.82773">
        <ele>391.9</ele>
        <time>2026-05-21T13:07:52.999Z</time>
      </trkpt>
      <trkpt lat="43.77587" lon="3.82774">
        <ele>391.9</ele>
        <time>2026-05-21T13:07:53.999Z</time>
      </trkpt>
      <trkpt lat="43.77587" lon="3.82774">
        <ele>392</ele>
        <time>2026-05-21T13:07:54.999Z</time>
      </trkpt>
      <trkpt lat="43.77587" lon="3.82774">
        <ele>392.1</ele>
        <time>2026-05-21T13:07:55.999Z</time>
      </trkpt>
      <trkpt lat="43.77587" lon="3.82776">
        <ele>392.1</ele>
        <time>2026-05-21T13:07:56.999Z</time>
      </trkpt>
      <trkpt lat="43.77586" lon="3.82778">
        <ele>392.4</ele>
        <time>2026-05-21T13:07:57.999Z</time>
      </trkpt>
      <trkpt lat="43.77585" lon="3.8278">
        <ele>392.4</ele>
        <time>2026-05-21T13:07:58.999Z</time>
      </trkpt>
      <trkpt lat="43.77585" lon="3.82781">
        <ele>392.1</ele>
        <time>2026-05-21T13:07:59.999Z</time>
      </trkpt>
      <trkpt lat="43.77584" lon="3.82782">
        <ele>391.8</ele>
        <time>2026-05-21T13:08:00.999Z</time>
      </trkpt>
      <trkpt lat="43.77584" lon="3.82784">
        <ele>391.7</ele>
        <time>2026-05-21T13:08:01.999Z</time>
      </trkpt>
      <trkpt lat="43.77583" lon="3.82786">
        <ele>391.5</ele>
        <time>2026-05-21T13:08:02.999Z</time>
      </trkpt>
      <trkpt lat="43.77581" lon="3.82789">
        <ele>391.2</ele>
        <time>2026-05-21T13:08:03.999Z</time>
      </trkpt>
      <trkpt lat="43.7758" lon="3.8279">
        <ele>391</ele>
        <time>2026-05-21T13:08:04.999Z</time>
      </trkpt>
      <trkpt lat="43.77579" lon="3.82791">
        <ele>390.9</ele>
        <time>2026-05-21T13:08:05.999Z</time>
      </trkpt>
      <trkpt lat="43.77579" lon="3.82791">
        <ele>390.7</ele>
        <time>2026-05-21T13:08:06.999Z</time>
      </trkpt>
      <trkpt lat="43.77578" lon="3.82792">
        <ele>390.4</ele>
        <time>2026-05-21T13:08:07.999Z</time>
      </trkpt>
      <trkpt lat="43.77577" lon="3.82792">
        <ele>390.1</ele>
        <time>2026-05-21T13:08:08.999Z</time>
      </trkpt>
      <trkpt lat="43.77576" lon="3.82793">
        <ele>389.9</ele>
        <time>2026-05-21T13:08:09.999Z</time>
      </trkpt>
      <trkpt lat="43.77576" lon="3.82794">
        <ele>389.6</ele>
        <time>2026-05-21T13:08:10.999Z</time>
      </trkpt>
      <trkpt lat="43.77575" lon="3.82794">
        <ele>389.3</ele>
        <time>2026-05-21T13:08:11.999Z</time>
      </trkpt>
      <trkpt lat="43.77575" lon="3.82795">
        <ele>389.4</ele>
        <time>2026-05-21T13:08:12.999Z</time>
      </trkpt>
      <trkpt lat="43.77575" lon="3.82795">
        <ele>389.3</ele>
        <time>2026-05-21T13:08:13.999Z</time>
      </trkpt>
      <trkpt lat="43.77575" lon="3.82795">
        <ele>389.2</ele>
        <time>2026-05-21T13:08:14.999Z</time>
      </trkpt>
      <trkpt lat="43.77575" lon="3.82795">
        <ele>389.2</ele>
        <time>2026-05-21T13:08:15.999Z</time>
      </trkpt>
      <trkpt lat="43.77575" lon="3.82795">
        <ele>389.3</ele>
        <time>2026-05-21T13:08:17.999Z</time>
      </trkpt>
      <trkpt lat="43.77575" lon="3.82795">
        <ele>389.3</ele>
        <time>2026-05-21T13:08:18.999Z</time>
      </trkpt>
      <trkpt lat="43.77574" lon="3.82795">
        <ele>388.9</ele>
        <time>2026-05-21T13:08:19.999Z</time>
      </trkpt>
      <trkpt lat="43.77573" lon="3.82795">
        <ele>388.7</ele>
        <time>2026-05-21T13:08:20.999Z</time>
      </trkpt>
      <trkpt lat="43.77571" lon="3.82795">
        <ele>388.5</ele>
        <time>2026-05-21T13:08:21.999Z</time>
      </trkpt>
      <trkpt lat="43.7757" lon="3.82796">
        <ele>388.2</ele>
        <time>2026-05-21T13:08:22.999Z</time>
      </trkpt>
      <trkpt lat="43.77569" lon="3.82797">
        <ele>388.1</ele>
        <time>2026-05-21T13:08:23.999Z</time>
      </trkpt>
      <trkpt lat="43.77569" lon="3.82797">
        <ele>387.8</ele>
        <time>2026-05-21T13:08:24.999Z</time>
      </trkpt>
      <trkpt lat="43.77568" lon="3.82797">
        <ele>387.5</ele>
        <time>2026-05-21T13:08:25.999Z</time>
      </trkpt>
      <trkpt lat="43.77568" lon="3.82798">
        <ele>387.5</ele>
        <time>2026-05-21T13:08:26.999Z</time>
      </trkpt>
      <trkpt lat="43.77567" lon="3.82798">
        <ele>387.5</ele>
        <time>2026-05-21T13:08:27.999Z</time>
      </trkpt>
      <trkpt lat="43.77566" lon="3.82798">
        <ele>387.5</ele>
        <time>2026-05-21T13:08:28.999Z</time>
      </trkpt>
      <trkpt lat="43.77566" lon="3.82798">
        <ele>387.4</ele>
        <time>2026-05-21T13:08:29.999Z</time>
      </trkpt>
      <trkpt lat="43.77565" lon="3.82799">
        <ele>387.3</ele>
        <time>2026-05-21T13:08:30.999Z</time>
      </trkpt>
      <trkpt lat="43.77564" lon="3.82799">
        <ele>387.1</ele>
        <time>2026-05-21T13:08:31.999Z</time>
      </trkpt>
      <trkpt lat="43.77564" lon="3.82799">
        <ele>387</ele>
        <time>2026-05-21T13:08:32.999Z</time>
      </trkpt>
      <trkpt lat="43.77564" lon="3.82799">
        <ele>387</ele>
        <time>2026-05-21T13:08:33.999Z</time>
      </trkpt>
      <trkpt lat="43.77564" lon="3.82799">
        <ele>387</ele>
        <time>2026-05-21T13:08:34.999Z</time>
      </trkpt>
      <trkpt lat="43.77564" lon="3.82799">
        <ele>387</ele>
        <time>2026-05-21T13:08:35.999Z</time>
      </trkpt>
      <trkpt lat="43.77564" lon="3.82799">
        <ele>386.9</ele>
        <time>2026-05-21T13:08:36.999Z</time>
      </trkpt>
      <trkpt lat="43.77564" lon="3.82799">
        <ele>386.8</ele>
        <time>2026-05-21T13:08:37.999Z</time>
      </trkpt>
      <trkpt lat="43.77564" lon="3.82799">
        <ele>386.4</ele>
        <time>2026-05-21T13:08:38.999Z</time>
      </trkpt>
      <trkpt lat="43.77563" lon="3.82798">
        <ele>386.3</ele>
        <time>2026-05-21T13:08:39.999Z</time>
      </trkpt>
      <trkpt lat="43.77563" lon="3.82799">
        <ele>385.9</ele>
        <time>2026-05-21T13:08:40.999Z</time>
      </trkpt>
      <trkpt lat="43.77563" lon="3.82799">
        <ele>385.8</ele>
        <time>2026-05-21T13:08:41.999Z</time>
      </trkpt>
      <trkpt lat="43.77563" lon="3.82799">
        <ele>385.6</ele>
        <time>2026-05-21T13:08:42.999Z</time>
      </trkpt>
      <trkpt lat="43.77562" lon="3.82799">
        <ele>385.2</ele>
        <time>2026-05-21T13:08:43.999Z</time>
      </trkpt>
      <trkpt lat="43.77562" lon="3.82799">
        <ele>385.1</ele>
        <time>2026-05-21T13:08:44.999Z</time>
      </trkpt>
      <trkpt lat="43.77562" lon="3.82799">
        <ele>384.9</ele>
        <time>2026-05-21T13:08:45.999Z</time>
      </trkpt>
      <trkpt lat="43.77562" lon="3.82799">
        <ele>384.6</ele>
        <time>2026-05-21T13:08:46.999Z</time>
      </trkpt>
      <trkpt lat="43.77562" lon="3.82799">
        <ele>384.8</ele>
        <time>2026-05-21T13:08:47.999Z</time>
      </trkpt>
      <trkpt lat="43.77562" lon="3.82798">
        <ele>385.2</ele>
        <time>2026-05-21T13:08:48.999Z</time>
      </trkpt>
      <trkpt lat="43.77561" lon="3.82798">
        <ele>385.7</ele>
        <time>2026-05-21T13:08:49.999Z</time>
      </trkpt>
      <trkpt lat="43.7756" lon="3.82798">
        <ele>386.1</ele>
        <time>2026-05-21T13:08:50.999Z</time>
      </trkpt>
      <trkpt lat="43.77559" lon="3.82799">
        <ele>386.2</ele>
        <time>2026-05-21T13:08:51.999Z</time>
      </trkpt>
      <trkpt lat="43.77559" lon="3.82799">
        <ele>386.3</ele>
        <time>2026-05-21T13:08:52.999Z</time>
      </trkpt>
      <trkpt lat="43.77559" lon="3.82799">
        <ele>386.6</ele>
        <time>2026-05-21T13:08:53.999Z</time>
      </trkpt>
      <trkpt lat="43.77559" lon="3.82799">
        <ele>386.8</ele>
        <time>2026-05-21T13:08:54.999Z</time>
      </trkpt>
      <trkpt lat="43.77559" lon="3.82799">
        <ele>386.7</ele>
        <time>2026-05-21T13:08:55.999Z</time>
      </trkpt>
      <trkpt lat="43.77559" lon="3.82799">
        <ele>386.6</ele>
        <time>2026-05-21T13:08:56.999Z</time>
      </trkpt>
      <trkpt lat="43.77559" lon="3.82799">
        <ele>386.5</ele>
        <time>2026-05-21T13:08:57.999Z</time>
      </trkpt>
      <trkpt lat="43.77559" lon="3.82799">
        <ele>386.6</ele>
        <time>2026-05-21T13:08:58.999Z</time>
      </trkpt>
      <trkpt lat="43.77559" lon="3.82799">
        <ele>386.6</ele>
        <time>2026-05-21T13:08:59.999Z</time>
      </trkpt>
      <trkpt lat="43.77559" lon="3.82799">
        <ele>386.5</ele>
        <time>2026-05-21T13:09:00.999Z</time>
      </trkpt>
      <trkpt lat="43.77559" lon="3.82799">
        <ele>386.7</ele>
        <time>2026-05-21T13:09:01.999Z</time>
      </trkpt>
      <trkpt lat="43.77559" lon="3.82799">
        <ele>386.6</ele>
        <time>2026-05-21T13:09:02.999Z</time>
      </trkpt>
      <trkpt lat="43.77558" lon="3.82799">
        <ele>386.3</ele>
        <time>2026-05-21T13:09:03.999Z</time>
      </trkpt>
      <trkpt lat="43.77558" lon="3.82799">
        <ele>386.1</ele>
        <time>2026-05-21T13:09:04.999Z</time>
      </trkpt>
      <trkpt lat="43.77558" lon="3.82799">
        <ele>386</ele>
        <time>2026-05-21T13:09:05.999Z</time>
      </trkpt>
      <trkpt lat="43.77558" lon="3.82799">
        <ele>386</ele>
        <time>2026-05-21T13:09:06.999Z</time>
      </trkpt>
      <trkpt lat="43.77558" lon="3.82799">
        <ele>385.9</ele>
        <time>2026-05-21T13:09:07.999Z</time>
      </trkpt>
      <trkpt lat="43.77558" lon="3.82799">
        <ele>386</ele>
        <time>2026-05-21T13:09:08.999Z</time>
      </trkpt>
      <trkpt lat="43.77558" lon="3.82799">
        <ele>386</ele>
        <time>2026-05-21T13:09:09.999Z</time>
      </trkpt>
      <trkpt lat="43.77558" lon="3.82799">
        <ele>385.9</ele>
        <time>2026-05-21T13:09:10.999Z</time>
      </trkpt>
      <trkpt lat="43.77558" lon="3.82799">
        <ele>386.1</ele>
        <time>2026-05-21T13:09:11.999Z</time>
      </trkpt>
      <trkpt lat="43.77558" lon="3.82799">
        <ele>386.2</ele>
        <time>2026-05-21T13:09:12.999Z</time>
      </trkpt>
      <trkpt lat="43.77558" lon="3.82799">
        <ele>386.6</ele>
        <time>2026-05-21T13:09:13.999Z</time>
      </trkpt>
      <trkpt lat="43.77558" lon="3.82799">
        <ele>387</ele>
        <time>2026-05-21T13:09:14.999Z</time>
      </trkpt>
      <trkpt lat="43.77558" lon="3.82799">
        <ele>387.3</ele>
        <time>2026-05-21T13:09:15.999Z</time>
      </trkpt>
      <trkpt lat="43.77558" lon="3.82798">
        <ele>387.6</ele>
        <time>2026-05-21T13:09:16.999Z</time>
      </trkpt>
      <trkpt lat="43.77558" lon="3.82798">
        <ele>387.5</ele>
        <time>2026-05-21T13:09:17.999Z</time>
      </trkpt>
      <trkpt lat="43.77558" lon="3.82798">
        <ele>387.5</ele>
        <time>2026-05-21T13:09:18.999Z</time>
      </trkpt>
      <trkpt lat="43.77558" lon="3.82798">
        <ele>387.7</ele>
        <time>2026-05-21T13:09:19.999Z</time>
      </trkpt>
      <trkpt lat="43.77558" lon="3.82798">
        <ele>387.8</ele>
        <time>2026-05-21T13:09:20.999Z</time>
      </trkpt>
      <trkpt lat="43.77557" lon="3.82798">
        <ele>387.7</ele>
        <time>2026-05-21T13:09:21.999Z</time>
      </trkpt>
      <trkpt lat="43.77557" lon="3.82798">
        <ele>387.4</ele>
        <time>2026-05-21T13:09:22.999Z</time>
      </trkpt>
      <trkpt lat="43.77557" lon="3.82799">
        <ele>387</ele>
        <time>2026-05-21T13:09:23.999Z</time>
      </trkpt>
      <trkpt lat="43.77556" lon="3.82799">
        <ele>386.8</ele>
        <time>2026-05-21T13:09:24.999Z</time>
      </trkpt>
      <trkpt lat="43.77556" lon="3.82798">
        <ele>386.7</ele>
        <time>2026-05-21T13:09:25.999Z</time>
      </trkpt>
      <trkpt lat="43.77555" lon="3.82798">
        <ele>386.8</ele>
        <time>2026-05-21T13:09:26.999Z</time>
      </trkpt>
      <trkpt lat="43.77555" lon="3.82799">
        <ele>386.7</ele>
        <time>2026-05-21T13:09:27.999Z</time>
      </trkpt>
      <trkpt lat="43.77553" lon="3.82799">
        <ele>386.2</ele>
        <time>2026-05-21T13:09:28.999Z</time>
      </trkpt>
      <trkpt lat="43.77553" lon="3.828">
        <ele>385.8</ele>
        <time>2026-05-21T13:09:29.999Z</time>
      </trkpt>
      <trkpt lat="43.77553" lon="3.82801">
        <ele>385.5</ele>
        <time>2026-05-21T13:09:30.999Z</time>
      </trkpt>
      <trkpt lat="43.77552" lon="3.82802">
        <ele>384.9</ele>
        <time>2026-05-21T13:09:31.999Z</time>
      </trkpt>
      <trkpt lat="43.77552" lon="3.82802">
        <ele>385</ele>
        <time>2026-05-21T13:09:32.999Z</time>
      </trkpt>
      <trkpt lat="43.77552" lon="3.82802">
        <ele>384.6</ele>
        <time>2026-05-21T13:09:33.999Z</time>
      </trkpt>
      <trkpt lat="43.77552" lon="3.82802">
        <ele>384.2</ele>
        <time>2026-05-21T13:09:34.999Z</time>
      </trkpt>
      <trkpt lat="43.77552" lon="3.82802">
        <ele>384</ele>
        <time>2026-05-21T13:09:35.999Z</time>
      </trkpt>
      <trkpt lat="43.77552" lon="3.82802">
        <ele>384</ele>
        <time>2026-05-21T13:09:36.999Z</time>
      </trkpt>
      <trkpt lat="43.77552" lon="3.82802">
        <ele>383.9</ele>
        <time>2026-05-21T13:09:37.999Z</time>
      </trkpt>
      <trkpt lat="43.77552" lon="3.82802">
        <ele>384</ele>
        <time>2026-05-21T13:09:38.999Z</time>
      </trkpt>
      <trkpt lat="43.77552" lon="3.82802">
        <ele>383.8</ele>
        <time>2026-05-21T13:09:39.999Z</time>
      </trkpt>
      <trkpt lat="43.77552" lon="3.82802">
        <ele>383.6</ele>
        <time>2026-05-21T13:09:40.999Z</time>
      </trkpt>
      <trkpt lat="43.77552" lon="3.82802">
        <ele>383.6</ele>
        <time>2026-05-21T13:09:41.999Z</time>
      </trkpt>
      <trkpt lat="43.77552" lon="3.82802">
        <ele>383.2</ele>
        <time>2026-05-21T13:09:42.999Z</time>
      </trkpt>
      <trkpt lat="43.77551" lon="3.82802">
        <ele>382.8</ele>
        <time>2026-05-21T13:09:43.999Z</time>
      </trkpt>
      <trkpt lat="43.77551" lon="3.82802">
        <ele>383</ele>
        <time>2026-05-21T13:09:44.999Z</time>
      </trkpt>
      <trkpt lat="43.7755" lon="3.82802">
        <ele>383.1</ele>
        <time>2026-05-21T13:09:45.999Z</time>
      </trkpt>
      <trkpt lat="43.77549" lon="3.82802">
        <ele>382.7</ele>
        <time>2026-05-21T13:09:46.999Z</time>
      </trkpt>
      <trkpt lat="43.77549" lon="3.82802">
        <ele>382.6</ele>
        <time>2026-05-21T13:09:47.999Z</time>
      </trkpt>
      <trkpt lat="43.77548" lon="3.82802">
        <ele>382.4</ele>
        <time>2026-05-21T13:09:48.999Z</time>
      </trkpt>
      <trkpt lat="43.77547" lon="3.82802">
        <ele>382.3</ele>
        <time>2026-05-21T13:09:49.999Z</time>
      </trkpt>
      <trkpt lat="43.77547" lon="3.82802">
        <ele>382.2</ele>
        <time>2026-05-21T13:09:50.999Z</time>
      </trkpt>
      <trkpt lat="43.77546" lon="3.82801">
        <ele>381.9</ele>
        <time>2026-05-21T13:09:51.999Z</time>
      </trkpt>
      <trkpt lat="43.77545" lon="3.82801">
        <ele>381.8</ele>
        <time>2026-05-21T13:09:52.999Z</time>
      </trkpt>
      <trkpt lat="43.77544" lon="3.828">
        <ele>381.8</ele>
        <time>2026-05-21T13:09:53.999Z</time>
      </trkpt>
      <trkpt lat="43.77543" lon="3.82799">
        <ele>381.7</ele>
        <time>2026-05-21T13:09:54.999Z</time>
      </trkpt>
      <trkpt lat="43.77543" lon="3.82798">
        <ele>381.8</ele>
        <time>2026-05-21T13:09:55.999Z</time>
      </trkpt>
      <trkpt lat="43.77542" lon="3.82797">
        <ele>381.7</ele>
        <time>2026-05-21T13:09:56.999Z</time>
      </trkpt>
      <trkpt lat="43.77542" lon="3.82796">
        <ele>381.7</ele>
        <time>2026-05-21T13:09:57.999Z</time>
      </trkpt>
      <trkpt lat="43.77541" lon="3.82795">
        <ele>381.4</ele>
        <time>2026-05-21T13:09:58.999Z</time>
      </trkpt>
      <trkpt lat="43.77541" lon="3.82795">
        <ele>381.5</ele>
        <time>2026-05-21T13:09:59.999Z</time>
      </trkpt>
      <trkpt lat="43.7754" lon="3.82794">
        <ele>381.5</ele>
        <time>2026-05-21T13:10:00.999Z</time>
      </trkpt>
      <trkpt lat="43.7754" lon="3.82793">
        <ele>381</ele>
        <time>2026-05-21T13:10:01.999Z</time>
      </trkpt>
      <trkpt lat="43.7754" lon="3.82793">
        <ele>381.1</ele>
        <time>2026-05-21T13:10:02.999Z</time>
      </trkpt>
      <trkpt lat="43.77539" lon="3.82792">
        <ele>381.3</ele>
        <time>2026-05-21T13:10:03.999Z</time>
      </trkpt>
      <trkpt lat="43.77538" lon="3.82791">
        <ele>381.8</ele>
        <time>2026-05-21T13:10:04.999Z</time>
      </trkpt>
      <trkpt lat="43.77537" lon="3.8279">
        <ele>382.4</ele>
        <time>2026-05-21T13:10:05.999Z</time>
      </trkpt>
      <trkpt lat="43.77537" lon="3.82789">
        <ele>382.1</ele>
        <time>2026-05-21T13:10:06.999Z</time>
      </trkpt>
      <trkpt lat="43.77536" lon="3.82788">
        <ele>382</ele>
        <time>2026-05-21T13:10:07.999Z</time>
      </trkpt>
      <trkpt lat="43.77536" lon="3.82787">
        <ele>381.8</ele>
        <time>2026-05-21T13:10:08.999Z</time>
      </trkpt>
      <trkpt lat="43.77535" lon="3.82786">
        <ele>381.5</ele>
        <time>2026-05-21T13:10:09.999Z</time>
      </trkpt>
      <trkpt lat="43.77534" lon="3.82785">
        <ele>381.9</ele>
        <time>2026-05-21T13:10:10.999Z</time>
      </trkpt>
      <trkpt lat="43.77533" lon="3.82784">
        <ele>382</ele>
        <time>2026-05-21T13:10:11.999Z</time>
      </trkpt>
      <trkpt lat="43.77531" lon="3.82783">
        <ele>382</ele>
        <time>2026-05-21T13:10:12.999Z</time>
      </trkpt>
      <trkpt lat="43.77531" lon="3.82782">
        <ele>382</ele>
        <time>2026-05-21T13:10:13.999Z</time>
      </trkpt>
      <trkpt lat="43.7753" lon="3.82781">
        <ele>381.7</ele>
        <time>2026-05-21T13:10:14.999Z</time>
      </trkpt>
      <trkpt lat="43.77529" lon="3.82781">
        <ele>381.6</ele>
        <time>2026-05-21T13:10:15.999Z</time>
      </trkpt>
      <trkpt lat="43.77529" lon="3.82781">
        <ele>381.3</ele>
        <time>2026-05-21T13:10:16.999Z</time>
      </trkpt>
      <trkpt lat="43.77528" lon="3.8278">
        <ele>381.4</ele>
        <time>2026-05-21T13:10:17.999Z</time>
      </trkpt>
      <trkpt lat="43.77527" lon="3.82779">
        <ele>381.2</ele>
        <time>2026-05-21T13:10:19.999Z</time>
      </trkpt>
      <trkpt lat="43.77527" lon="3.82778">
        <ele>380.9</ele>
        <time>2026-05-21T13:10:20.999Z</time>
      </trkpt>
      <trkpt lat="43.77526" lon="3.82777">
        <ele>380.4</ele>
        <time>2026-05-21T13:10:21.999Z</time>
      </trkpt>
      <trkpt lat="43.77525" lon="3.82775">
        <ele>380.2</ele>
        <time>2026-05-21T13:10:22.999Z</time>
      </trkpt>
      <trkpt lat="43.77524" lon="3.82775">
        <ele>379.8</ele>
        <time>2026-05-21T13:10:23.999Z</time>
      </trkpt>
      <trkpt lat="43.77523" lon="3.82775">
        <ele>379.3</ele>
        <time>2026-05-21T13:10:24.999Z</time>
      </trkpt>
      <trkpt lat="43.77523" lon="3.82775">
        <ele>379.1</ele>
        <time>2026-05-21T13:10:25.999Z</time>
      </trkpt>
      <trkpt lat="43.77522" lon="3.82776">
        <ele>378.6</ele>
        <time>2026-05-21T13:10:26.999Z</time>
      </trkpt>
      <trkpt lat="43.77521" lon="3.82776">
        <ele>378</ele>
        <time>2026-05-21T13:10:27.999Z</time>
      </trkpt>
      <trkpt lat="43.7752" lon="3.82776">
        <ele>377.4</ele>
        <time>2026-05-21T13:10:28.999Z</time>
      </trkpt>
      <trkpt lat="43.7752" lon="3.82777">
        <ele>377</ele>
        <time>2026-05-21T13:10:29.999Z</time>
      </trkpt>
      <trkpt lat="43.7752" lon="3.82779">
        <ele>376.4</ele>
        <time>2026-05-21T13:10:30.999Z</time>
      </trkpt>
      <trkpt lat="43.77519" lon="3.8278">
        <ele>376.2</ele>
        <time>2026-05-21T13:10:31.999Z</time>
      </trkpt>
      <trkpt lat="43.77518" lon="3.82781">
        <ele>376</ele>
        <time>2026-05-21T13:10:32.999Z</time>
      </trkpt>
      <trkpt lat="43.77517" lon="3.82781">
        <ele>375.8</ele>
        <time>2026-05-21T13:10:33.999Z</time>
      </trkpt>
      <trkpt lat="43.77516" lon="3.82782">
        <ele>375.4</ele>
        <time>2026-05-21T13:10:34.999Z</time>
      </trkpt>
      <trkpt lat="43.77515" lon="3.82782">
        <ele>375.3</ele>
        <time>2026-05-21T13:10:35.999Z</time>
      </trkpt>
      <trkpt lat="43.77514" lon="3.82782">
        <ele>375.1</ele>
        <time>2026-05-21T13:10:36.999Z</time>
      </trkpt>
      <trkpt lat="43.77513" lon="3.82781">
        <ele>375</ele>
        <time>2026-05-21T13:10:38.000Z</time>
      </trkpt>
      <trkpt lat="43.77512" lon="3.82781">
        <ele>375</ele>
        <time>2026-05-21T13:10:39.000Z</time>
      </trkpt>
      <trkpt lat="43.77511" lon="3.8278">
        <ele>375</ele>
        <time>2026-05-21T13:10:40.000Z</time>
      </trkpt>
      <trkpt lat="43.7751" lon="3.82779">
        <ele>375</ele>
        <time>2026-05-21T13:10:41.000Z</time>
      </trkpt>
      <trkpt lat="43.77509" lon="3.82778">
        <ele>375.1</ele>
        <time>2026-05-21T13:10:42.000Z</time>
      </trkpt>
      <trkpt lat="43.77508" lon="3.82777">
        <ele>375.3</ele>
        <time>2026-05-21T13:10:43.000Z</time>
      </trkpt>
      <trkpt lat="43.77508" lon="3.82776">
        <ele>375</ele>
        <time>2026-05-21T13:10:44.000Z</time>
      </trkpt>
      <trkpt lat="43.77508" lon="3.82776">
        <ele>374.9</ele>
        <time>2026-05-21T13:10:45.000Z</time>
      </trkpt>
      <trkpt lat="43.77507" lon="3.82775">
        <ele>374.6</ele>
        <time>2026-05-21T13:10:46.000Z</time>
      </trkpt>
      <trkpt lat="43.77507" lon="3.82774">
        <ele>374.5</ele>
        <time>2026-05-21T13:10:47.000Z</time>
      </trkpt>
      <trkpt lat="43.77506" lon="3.82773">
        <ele>374.3</ele>
        <time>2026-05-21T13:10:48.000Z</time>
      </trkpt>
      <trkpt lat="43.77506" lon="3.82772">
        <ele>374.5</ele>
        <time>2026-05-21T13:10:49.000Z</time>
      </trkpt>
      <trkpt lat="43.77505" lon="3.82772">
        <ele>374.4</ele>
        <time>2026-05-21T13:10:50.000Z</time>
      </trkpt>
      <trkpt lat="43.77505" lon="3.82772">
        <ele>374.8</ele>
        <time>2026-05-21T13:10:51.000Z</time>
      </trkpt>
      <trkpt lat="43.77505" lon="3.82772">
        <ele>375.3</ele>
        <time>2026-05-21T13:10:52.000Z</time>
      </trkpt>
      <trkpt lat="43.77505" lon="3.82771">
        <ele>375.6</ele>
        <time>2026-05-21T13:10:53.000Z</time>
      </trkpt>
      <trkpt lat="43.77505" lon="3.82771">
        <ele>376.2</ele>
        <time>2026-05-21T13:10:54.000Z</time>
      </trkpt>
      <trkpt lat="43.77505" lon="3.82771">
        <ele>376.3</ele>
        <time>2026-05-21T13:10:55.000Z</time>
      </trkpt>
      <trkpt lat="43.77505" lon="3.82771">
        <ele>376</ele>
        <time>2026-05-21T13:10:56.000Z</time>
      </trkpt>
      <trkpt lat="43.77505" lon="3.82771">
        <ele>375.6</ele>
        <time>2026-05-21T13:10:57.000Z</time>
      </trkpt>
      <trkpt lat="43.77505" lon="3.82771">
        <ele>375.8</ele>
        <time>2026-05-21T13:10:58.000Z</time>
      </trkpt>
      <trkpt lat="43.77504" lon="3.8277">
        <ele>375.7</ele>
        <time>2026-05-21T13:10:59.000Z</time>
      </trkpt>
      <trkpt lat="43.77504" lon="3.8277">
        <ele>375.2</ele>
        <time>2026-05-21T13:11:00.000Z</time>
      </trkpt>
      <trkpt lat="43.77504" lon="3.8277">
        <ele>375.1</ele>
        <time>2026-05-21T13:11:01.000Z</time>
      </trkpt>
      <trkpt lat="43.77504" lon="3.8277">
        <ele>375</ele>
        <time>2026-05-21T13:11:02.000Z</time>
      </trkpt>
      <trkpt lat="43.77503" lon="3.82769">
        <ele>374.7</ele>
        <time>2026-05-21T13:11:03.000Z</time>
      </trkpt>
      <trkpt lat="43.77503" lon="3.82769">
        <ele>374.6</ele>
        <time>2026-05-21T13:11:04.000Z</time>
      </trkpt>
      <trkpt lat="43.77503" lon="3.82769">
        <ele>374.6</ele>
        <time>2026-05-21T13:11:05.000Z</time>
      </trkpt>
      <trkpt lat="43.77503" lon="3.82769">
        <ele>374.4</ele>
        <time>2026-05-21T13:11:06.000Z</time>
      </trkpt>
      <trkpt lat="43.77503" lon="3.82768">
        <ele>374.3</ele>
        <time>2026-05-21T13:11:07.000Z</time>
      </trkpt>
      <trkpt lat="43.77502" lon="3.82768">
        <ele>374.2</ele>
        <time>2026-05-21T13:11:08.000Z</time>
      </trkpt>
      <trkpt lat="43.77502" lon="3.82768">
        <ele>374</ele>
        <time>2026-05-21T13:11:09.000Z</time>
      </trkpt>
      <trkpt lat="43.77502" lon="3.82768">
        <ele>373.8</ele>
        <time>2026-05-21T13:11:10.000Z</time>
      </trkpt>
      <trkpt lat="43.77502" lon="3.82767">
        <ele>373.7</ele>
        <time>2026-05-21T13:11:11.000Z</time>
      </trkpt>
      <trkpt lat="43.77502" lon="3.82767">
        <ele>373.8</ele>
        <time>2026-05-21T13:11:12.000Z</time>
      </trkpt>
      <trkpt lat="43.77502" lon="3.82767">
        <ele>373.9</ele>
        <time>2026-05-21T13:11:13.000Z</time>
      </trkpt>
      <trkpt lat="43.77501" lon="3.82767">
        <ele>373.7</ele>
        <time>2026-05-21T13:11:14.000Z</time>
      </trkpt>
      <trkpt lat="43.77501" lon="3.82767">
        <ele>373.5</ele>
        <time>2026-05-21T13:11:15.000Z</time>
      </trkpt>
      <trkpt lat="43.77501" lon="3.82766">
        <ele>373.3</ele>
        <time>2026-05-21T13:11:16.000Z</time>
      </trkpt>
      <trkpt lat="43.775" lon="3.82766">
        <ele>373.2</ele>
        <time>2026-05-21T13:11:17.000Z</time>
      </trkpt>
      <trkpt lat="43.77499" lon="3.82765">
        <ele>373.2</ele>
        <time>2026-05-21T13:11:18.000Z</time>
      </trkpt>
      <trkpt lat="43.77498" lon="3.82764">
        <ele>373.6</ele>
        <time>2026-05-21T13:11:19.000Z</time>
      </trkpt>
      <trkpt lat="43.77498" lon="3.82764">
        <ele>373.4</ele>
        <time>2026-05-21T13:11:20.000Z</time>
      </trkpt>
      <trkpt lat="43.77498" lon="3.82764">
        <ele>373.7</ele>
        <time>2026-05-21T13:11:21.000Z</time>
      </trkpt>
      <trkpt lat="43.77497" lon="3.82764">
        <ele>373.6</ele>
        <time>2026-05-21T13:11:22.000Z</time>
      </trkpt>
      <trkpt lat="43.77496" lon="3.82764">
        <ele>373.8</ele>
        <time>2026-05-21T13:11:23.000Z</time>
      </trkpt>
      <trkpt lat="43.77496" lon="3.82764">
        <ele>373.4</ele>
        <time>2026-05-21T13:11:24.000Z</time>
      </trkpt>
      <trkpt lat="43.77495" lon="3.82764">
        <ele>373.1</ele>
        <time>2026-05-21T13:11:25.000Z</time>
      </trkpt>
      <trkpt lat="43.77494" lon="3.82763">
        <ele>372.8</ele>
        <time>2026-05-21T13:11:26.000Z</time>
      </trkpt>
      <trkpt lat="43.77493" lon="3.82763">
        <ele>372.6</ele>
        <time>2026-05-21T13:11:27.000Z</time>
      </trkpt>
      <trkpt lat="43.77493" lon="3.82763">
        <ele>372.4</ele>
        <time>2026-05-21T13:11:28.000Z</time>
      </trkpt>
      <trkpt lat="43.77493" lon="3.82763">
        <ele>372.4</ele>
        <time>2026-05-21T13:11:29.000Z</time>
      </trkpt>
      <trkpt lat="43.77493" lon="3.82763">
        <ele>372.2</ele>
        <time>2026-05-21T13:11:30.000Z</time>
      </trkpt>
      <trkpt lat="43.77492" lon="3.82763">
        <ele>372.3</ele>
        <time>2026-05-21T13:11:31.000Z</time>
      </trkpt>
      <trkpt lat="43.77491" lon="3.82763">
        <ele>372.3</ele>
        <time>2026-05-21T13:11:32.000Z</time>
      </trkpt>
      <trkpt lat="43.7749" lon="3.82762">
        <ele>372.3</ele>
        <time>2026-05-21T13:11:33.000Z</time>
      </trkpt>
      <trkpt lat="43.77489" lon="3.82763">
        <ele>372.3</ele>
        <time>2026-05-21T13:11:34.000Z</time>
      </trkpt>
      <trkpt lat="43.77488" lon="3.82764">
        <ele>372.1</ele>
        <time>2026-05-21T13:11:35.000Z</time>
      </trkpt>
      <trkpt lat="43.77486" lon="3.82765">
        <ele>371.5</ele>
        <time>2026-05-21T13:11:36.000Z</time>
      </trkpt>
      <trkpt lat="43.77485" lon="3.82767">
        <ele>371.1</ele>
        <time>2026-05-21T13:11:37.000Z</time>
      </trkpt>
      <trkpt lat="43.77485" lon="3.82768">
        <ele>371</ele>
        <time>2026-05-21T13:11:38.000Z</time>
      </trkpt>
      <trkpt lat="43.77485" lon="3.82768">
        <ele>370.8</ele>
        <time>2026-05-21T13:11:39.000Z</time>
      </trkpt>
      <trkpt lat="43.77484" lon="3.82768">
        <ele>370.8</ele>
        <time>2026-05-21T13:11:40.000Z</time>
      </trkpt>
      <trkpt lat="43.77484" lon="3.82769">
        <ele>370.3</ele>
        <time>2026-05-21T13:11:41.000Z</time>
      </trkpt>
      <trkpt lat="43.77483" lon="3.82769">
        <ele>370.4</ele>
        <time>2026-05-21T13:11:42.000Z</time>
      </trkpt>
      <trkpt lat="43.77482" lon="3.8277">
        <ele>370.2</ele>
        <time>2026-05-21T13:11:43.000Z</time>
      </trkpt>
      <trkpt lat="43.7748" lon="3.82772">
        <ele>369.9</ele>
        <time>2026-05-21T13:11:44.000Z</time>
      </trkpt>
      <trkpt lat="43.77479" lon="3.82773">
        <ele>369.7</ele>
        <time>2026-05-21T13:11:45.000Z</time>
      </trkpt>
      <trkpt lat="43.77479" lon="3.82774">
        <ele>369.3</ele>
        <time>2026-05-21T13:11:46.000Z</time>
      </trkpt>
      <trkpt lat="43.77478" lon="3.82775">
        <ele>368.9</ele>
        <time>2026-05-21T13:11:47.000Z</time>
      </trkpt>
      <trkpt lat="43.77477" lon="3.82775">
        <ele>368.6</ele>
        <time>2026-05-21T13:11:48.000Z</time>
      </trkpt>
      <trkpt lat="43.77477" lon="3.82776">
        <ele>368.3</ele>
        <time>2026-05-21T13:11:49.000Z</time>
      </trkpt>
      <trkpt lat="43.77476" lon="3.82777">
        <ele>368.4</ele>
        <time>2026-05-21T13:11:50.000Z</time>
      </trkpt>
      <trkpt lat="43.77476" lon="3.82778">
        <ele>368.2</ele>
        <time>2026-05-21T13:11:51.000Z</time>
      </trkpt>
      <trkpt lat="43.77475" lon="3.82778">
        <ele>368.2</ele>
        <time>2026-05-21T13:11:52.000Z</time>
      </trkpt>
      <trkpt lat="43.77474" lon="3.8278">
        <ele>367.9</ele>
        <time>2026-05-21T13:11:53.000Z</time>
      </trkpt>
      <trkpt lat="43.77473" lon="3.82781">
        <ele>368</ele>
        <time>2026-05-21T13:11:54.000Z</time>
      </trkpt>
      <trkpt lat="43.77472" lon="3.82781">
        <ele>367.9</ele>
        <time>2026-05-21T13:11:55.000Z</time>
      </trkpt>
      <trkpt lat="43.77472" lon="3.82782">
        <ele>367.8</ele>
        <time>2026-05-21T13:11:56.000Z</time>
      </trkpt>
      <trkpt lat="43.77471" lon="3.82782">
        <ele>367.8</ele>
        <time>2026-05-21T13:11:57.000Z</time>
      </trkpt>
      <trkpt lat="43.7747" lon="3.82782">
        <ele>367.8</ele>
        <time>2026-05-21T13:11:58.000Z</time>
      </trkpt>
      <trkpt lat="43.77469" lon="3.82783">
        <ele>367.8</ele>
        <time>2026-05-21T13:11:59.000Z</time>
      </trkpt>
      <trkpt lat="43.77468" lon="3.82783">
        <ele>367.7</ele>
        <time>2026-05-21T13:12:00.000Z</time>
      </trkpt>
      <trkpt lat="43.77467" lon="3.82783">
        <ele>367.9</ele>
        <time>2026-05-21T13:12:01.000Z</time>
      </trkpt>
      <trkpt lat="43.77466" lon="3.82784">
        <ele>367.9</ele>
        <time>2026-05-21T13:12:02.000Z</time>
      </trkpt>
      <trkpt lat="43.77465" lon="3.82785">
        <ele>368</ele>
        <time>2026-05-21T13:12:03.000Z</time>
      </trkpt>
      <trkpt lat="43.77465" lon="3.82787">
        <ele>368.3</ele>
        <time>2026-05-21T13:12:04.000Z</time>
      </trkpt>
      <trkpt lat="43.77465" lon="3.82787">
        <ele>368.8</ele>
        <time>2026-05-21T13:12:05.000Z</time>
      </trkpt>
      <trkpt lat="43.77465" lon="3.82788">
        <ele>368.9</ele>
        <time>2026-05-21T13:12:06.000Z</time>
      </trkpt>
      <trkpt lat="43.77464" lon="3.82789">
        <ele>368.5</ele>
        <time>2026-05-21T13:12:07.000Z</time>
      </trkpt>
      <trkpt lat="43.77464" lon="3.8279">
        <ele>368.8</ele>
        <time>2026-05-21T13:12:08.000Z</time>
      </trkpt>
      <trkpt lat="43.77464" lon="3.8279">
        <ele>369</ele>
        <time>2026-05-21T13:12:09.000Z</time>
      </trkpt>
      <trkpt lat="43.77463" lon="3.82791">
        <ele>369.3</ele>
        <time>2026-05-21T13:12:10.000Z</time>
      </trkpt>
      <trkpt lat="43.77463" lon="3.82791">
        <ele>369.5</ele>
        <time>2026-05-21T13:12:11.000Z</time>
      </trkpt>
      <trkpt lat="43.77462" lon="3.82792">
        <ele>369.5</ele>
        <time>2026-05-21T13:12:12.000Z</time>
      </trkpt>
      <trkpt lat="43.77462" lon="3.82794">
        <ele>369.2</ele>
        <time>2026-05-21T13:12:13.000Z</time>
      </trkpt>
      <trkpt lat="43.77462" lon="3.82796">
        <ele>369.3</ele>
        <time>2026-05-21T13:12:14.000Z</time>
      </trkpt>
      <trkpt lat="43.77462" lon="3.82798">
        <ele>368.7</ele>
        <time>2026-05-21T13:12:15.000Z</time>
      </trkpt>
      <trkpt lat="43.77462" lon="3.82799">
        <ele>368.8</ele>
        <time>2026-05-21T13:12:16.000Z</time>
      </trkpt>
      <trkpt lat="43.77462" lon="3.82801">
        <ele>368.5</ele>
        <time>2026-05-21T13:12:17.000Z</time>
      </trkpt>
      <trkpt lat="43.77461" lon="3.82801">
        <ele>368.2</ele>
        <time>2026-05-21T13:12:18.000Z</time>
      </trkpt>
      <trkpt lat="43.7746" lon="3.82801">
        <ele>368</ele>
        <time>2026-05-21T13:12:19.000Z</time>
      </trkpt>
      <trkpt lat="43.7746" lon="3.82802">
        <ele>368.1</ele>
        <time>2026-05-21T13:12:20.000Z</time>
      </trkpt>
      <trkpt lat="43.77459" lon="3.82802">
        <ele>368.7</ele>
        <time>2026-05-21T13:12:21.000Z</time>
      </trkpt>
      <trkpt lat="43.77458" lon="3.82802">
        <ele>369.2</ele>
        <time>2026-05-21T13:12:22.000Z</time>
      </trkpt>
      <trkpt lat="43.77458" lon="3.82803">
        <ele>369.4</ele>
        <time>2026-05-21T13:12:23.000Z</time>
      </trkpt>
      <trkpt lat="43.77457" lon="3.82803">
        <ele>369.5</ele>
        <time>2026-05-21T13:12:24.000Z</time>
      </trkpt>
      <trkpt lat="43.77456" lon="3.82804">
        <ele>369.4</ele>
        <time>2026-05-21T13:12:25.000Z</time>
      </trkpt>
      <trkpt lat="43.77455" lon="3.82804">
        <ele>369.5</ele>
        <time>2026-05-21T13:12:26.000Z</time>
      </trkpt>
      <trkpt lat="43.77454" lon="3.82805">
        <ele>369.6</ele>
        <time>2026-05-21T13:12:27.000Z</time>
      </trkpt>
      <trkpt lat="43.77454" lon="3.82806">
        <ele>369.6</ele>
        <time>2026-05-21T13:12:28.000Z</time>
      </trkpt>
      <trkpt lat="43.77453" lon="3.82807">
        <ele>369.6</ele>
        <time>2026-05-21T13:12:29.000Z</time>
      </trkpt>
      <trkpt lat="43.77453" lon="3.82809">
        <ele>369.3</ele>
        <time>2026-05-21T13:12:30.000Z</time>
      </trkpt>
      <trkpt lat="43.77453" lon="3.82809">
        <ele>369</ele>
        <time>2026-05-21T13:12:31.000Z</time>
      </trkpt>
      <trkpt lat="43.77453" lon="3.8281">
        <ele>369</ele>
        <time>2026-05-21T13:12:32.000Z</time>
      </trkpt>
      <trkpt lat="43.77453" lon="3.8281">
        <ele>369.2</ele>
        <time>2026-05-21T13:12:33.000Z</time>
      </trkpt>
      <trkpt lat="43.77453" lon="3.82811">
        <ele>368.8</ele>
        <time>2026-05-21T13:12:34.000Z</time>
      </trkpt>
      <trkpt lat="43.77452" lon="3.82811">
        <ele>368.2</ele>
        <time>2026-05-21T13:12:35.000Z</time>
      </trkpt>
      <trkpt lat="43.77451" lon="3.82812">
        <ele>367.8</ele>
        <time>2026-05-21T13:12:36.000Z</time>
      </trkpt>
      <trkpt lat="43.7745" lon="3.82813">
        <ele>367.4</ele>
        <time>2026-05-21T13:12:37.000Z</time>
      </trkpt>
      <trkpt lat="43.77449" lon="3.82814">
        <ele>367.2</ele>
        <time>2026-05-21T13:12:38.000Z</time>
      </trkpt>
      <trkpt lat="43.77448" lon="3.82815">
        <ele>366.9</ele>
        <time>2026-05-21T13:12:39.000Z</time>
      </trkpt>
      <trkpt lat="43.77446" lon="3.82817">
        <ele>367</ele>
        <time>2026-05-21T13:12:40.000Z</time>
      </trkpt>
      <trkpt lat="43.77445" lon="3.82819">
        <ele>367.2</ele>
        <time>2026-05-21T13:12:41.000Z</time>
      </trkpt>
      <trkpt lat="43.77444" lon="3.8282">
        <ele>367.5</ele>
        <time>2026-05-21T13:12:42.000Z</time>
      </trkpt>
      <trkpt lat="43.77443" lon="3.82822">
        <ele>367.6</ele>
        <time>2026-05-21T13:12:43.000Z</time>
      </trkpt>
      <trkpt lat="43.77443" lon="3.82823">
        <ele>367.9</ele>
        <time>2026-05-21T13:12:44.000Z</time>
      </trkpt>
      <trkpt lat="43.77441" lon="3.82824">
        <ele>367.9</ele>
        <time>2026-05-21T13:12:45.000Z</time>
      </trkpt>
      <trkpt lat="43.7744" lon="3.82824">
        <ele>368</ele>
        <time>2026-05-21T13:12:46.000Z</time>
      </trkpt>
      <trkpt lat="43.77439" lon="3.82824">
        <ele>368.1</ele>
        <time>2026-05-21T13:12:47.000Z</time>
      </trkpt>
      <trkpt lat="43.77438" lon="3.82824">
        <ele>367.9</ele>
        <time>2026-05-21T13:12:48.000Z</time>
      </trkpt>
      <trkpt lat="43.77437" lon="3.82825">
        <ele>367.8</ele>
        <time>2026-05-21T13:12:49.000Z</time>
      </trkpt>
      <trkpt lat="43.77436" lon="3.82824">
        <ele>367.5</ele>
        <time>2026-05-21T13:12:50.000Z</time>
      </trkpt>
      <trkpt lat="43.77436" lon="3.82823">
        <ele>366.9</ele>
        <time>2026-05-21T13:12:51.000Z</time>
      </trkpt>
      <trkpt lat="43.77435" lon="3.82822">
        <ele>366.6</ele>
        <time>2026-05-21T13:12:52.000Z</time>
      </trkpt>
      <trkpt lat="43.77434" lon="3.82822">
        <ele>366.1</ele>
        <time>2026-05-21T13:12:53.000Z</time>
      </trkpt>
      <trkpt lat="43.77434" lon="3.82821">
        <ele>365.8</ele>
        <time>2026-05-21T13:12:54.000Z</time>
      </trkpt>
      <trkpt lat="43.77433" lon="3.82821">
        <ele>365.6</ele>
        <time>2026-05-21T13:12:55.000Z</time>
      </trkpt>
      <trkpt lat="43.77433" lon="3.82822">
        <ele>365.5</ele>
        <time>2026-05-21T13:12:56.000Z</time>
      </trkpt>
      <trkpt lat="43.77432" lon="3.82823">
        <ele>365.1</ele>
        <time>2026-05-21T13:12:57.000Z</time>
      </trkpt>
      <trkpt lat="43.77431" lon="3.82822">
        <ele>364.4</ele>
        <time>2026-05-21T13:12:58.000Z</time>
      </trkpt>
      <trkpt lat="43.7743" lon="3.82822">
        <ele>364.9</ele>
        <time>2026-05-21T13:12:59.000Z</time>
      </trkpt>
      <trkpt lat="43.7743" lon="3.82822">
        <ele>365.5</ele>
        <time>2026-05-21T13:13:00.000Z</time>
      </trkpt>
      <trkpt lat="43.7743" lon="3.82822">
        <ele>366</ele>
        <time>2026-05-21T13:13:01.000Z</time>
      </trkpt>
      <trkpt lat="43.7743" lon="3.82823">
        <ele>366.4</ele>
        <time>2026-05-21T13:13:02.000Z</time>
      </trkpt>
      <trkpt lat="43.7743" lon="3.82823">
        <ele>366.3</ele>
        <time>2026-05-21T13:13:03.000Z</time>
      </trkpt>
      <trkpt lat="43.7743" lon="3.82822">
        <ele>366.5</ele>
        <time>2026-05-21T13:13:04.000Z</time>
      </trkpt>
      <trkpt lat="43.7743" lon="3.82823">
        <ele>366.6</ele>
        <time>2026-05-21T13:13:05.000Z</time>
      </trkpt>
      <trkpt lat="43.7743" lon="3.82823">
        <ele>366.4</ele>
        <time>2026-05-21T13:13:06.000Z</time>
      </trkpt>
      <trkpt lat="43.7743" lon="3.82823">
        <ele>366.1</ele>
        <time>2026-05-21T13:13:07.000Z</time>
      </trkpt>
      <trkpt lat="43.7743" lon="3.82823">
        <ele>365.8</ele>
        <time>2026-05-21T13:13:08.000Z</time>
      </trkpt>
      <trkpt lat="43.7743" lon="3.82823">
        <ele>365.6</ele>
        <time>2026-05-21T13:13:09.000Z</time>
      </trkpt>
      <trkpt lat="43.7743" lon="3.82823">
        <ele>365.6</ele>
        <time>2026-05-21T13:13:10.000Z</time>
      </trkpt>
      <trkpt lat="43.7743" lon="3.82823">
        <ele>365.8</ele>
        <time>2026-05-21T13:13:11.000Z</time>
      </trkpt>
      <trkpt lat="43.7743" lon="3.82823">
        <ele>365.9</ele>
        <time>2026-05-21T13:13:12.000Z</time>
      </trkpt>
      <trkpt lat="43.7743" lon="3.82823">
        <ele>365.8</ele>
        <time>2026-05-21T13:13:13.000Z</time>
      </trkpt>
      <trkpt lat="43.7743" lon="3.82823">
        <ele>365.9</ele>
        <time>2026-05-21T13:13:14.000Z</time>
      </trkpt>
      <trkpt lat="43.7743" lon="3.82823">
        <ele>365.8</ele>
        <time>2026-05-21T13:13:15.000Z</time>
      </trkpt>
      <trkpt lat="43.7743" lon="3.82825">
        <ele>366</ele>
        <time>2026-05-21T13:13:16.000Z</time>
      </trkpt>
      <trkpt lat="43.7743" lon="3.82825">
        <ele>366.1</ele>
        <time>2026-05-21T13:13:17.000Z</time>
      </trkpt>
      <trkpt lat="43.7743" lon="3.82825">
        <ele>366.3</ele>
        <time>2026-05-21T13:13:18.000Z</time>
      </trkpt>
      <trkpt lat="43.7743" lon="3.82826">
        <ele>366.4</ele>
        <time>2026-05-21T13:13:19.000Z</time>
      </trkpt>
      <trkpt lat="43.7743" lon="3.82826">
        <ele>366.3</ele>
        <time>2026-05-21T13:13:20.000Z</time>
      </trkpt>
      <trkpt lat="43.7743" lon="3.82826">
        <ele>366.5</ele>
        <time>2026-05-21T13:13:21.000Z</time>
      </trkpt>
      <trkpt lat="43.7743" lon="3.82826">
        <ele>366.5</ele>
        <time>2026-05-21T13:13:22.000Z</time>
      </trkpt>
      <trkpt lat="43.7743" lon="3.82826">
        <ele>366.5</ele>
        <time>2026-05-21T13:13:23.000Z</time>
      </trkpt>
      <trkpt lat="43.7743" lon="3.82826">
        <ele>366.5</ele>
        <time>2026-05-21T13:13:24.000Z</time>
      </trkpt>
      <trkpt lat="43.7743" lon="3.82826">
        <ele>366.4</ele>
        <time>2026-05-21T13:13:25.000Z</time>
      </trkpt>
      <trkpt lat="43.7743" lon="3.82826">
        <ele>366.4</ele>
        <time>2026-05-21T13:13:26.000Z</time>
      </trkpt>
      <trkpt lat="43.7743" lon="3.82827">
        <ele>366.3</ele>
        <time>2026-05-21T13:13:27.000Z</time>
      </trkpt>
      <trkpt lat="43.77429" lon="3.82827">
        <ele>366.2</ele>
        <time>2026-05-21T13:13:28.000Z</time>
      </trkpt>
      <trkpt lat="43.7743" lon="3.82826">
        <ele>366.2</ele>
        <time>2026-05-21T13:13:30.000Z</time>
      </trkpt>
      <trkpt lat="43.7743" lon="3.82826">
        <ele>366.1</ele>
        <time>2026-05-21T13:13:31.000Z</time>
      </trkpt>
      <trkpt lat="43.7743" lon="3.82826">
        <ele>365.9</ele>
        <time>2026-05-21T13:13:32.000Z</time>
      </trkpt>
      <trkpt lat="43.7743" lon="3.82826">
        <ele>365.8</ele>
        <time>2026-05-21T13:13:33.000Z</time>
      </trkpt>
      <trkpt lat="43.7743" lon="3.82826">
        <ele>365.9</ele>
        <time>2026-05-21T13:13:34.000Z</time>
      </trkpt>
      <trkpt lat="43.7743" lon="3.82826">
        <ele>366</ele>
        <time>2026-05-21T13:13:35.000Z</time>
      </trkpt>
      <trkpt lat="43.7743" lon="3.82826">
        <ele>366.1</ele>
        <time>2026-05-21T13:13:36.000Z</time>
      </trkpt>
      <trkpt lat="43.7743" lon="3.82826">
        <ele>366.1</ele>
        <time>2026-05-21T13:13:37.000Z</time>
      </trkpt>
      <trkpt lat="43.7743" lon="3.82826">
        <ele>366.1</ele>
        <time>2026-05-21T13:13:38.000Z</time>
      </trkpt>
      <trkpt lat="43.7743" lon="3.82826">
        <ele>366</ele>
        <time>2026-05-21T13:13:39.000Z</time>
      </trkpt>
      <trkpt lat="43.7743" lon="3.82827">
        <ele>366</ele>
        <time>2026-05-21T13:13:40.000Z</time>
      </trkpt>
      <trkpt lat="43.7743" lon="3.82827">
        <ele>366.1</ele>
        <time>2026-05-21T13:13:41.000Z</time>
      </trkpt>
      <trkpt lat="43.7743" lon="3.82827">
        <ele>366.2</ele>
        <time>2026-05-21T13:13:42.000Z</time>
      </trkpt>
      <trkpt lat="43.7743" lon="3.82827">
        <ele>366.4</ele>
        <time>2026-05-21T13:13:43.000Z</time>
      </trkpt>
      <trkpt lat="43.7743" lon="3.82827">
        <ele>366.4</ele>
        <time>2026-05-21T13:13:44.000Z</time>
      </trkpt>
      <trkpt lat="43.7743" lon="3.82827">
        <ele>366.4</ele>
        <time>2026-05-21T13:13:45.000Z</time>
      </trkpt>
      <trkpt lat="43.7743" lon="3.82827">
        <ele>366.4</ele>
        <time>2026-05-21T13:13:46.000Z</time>
      </trkpt>
      <trkpt lat="43.7743" lon="3.82827">
        <ele>366.4</ele>
        <time>2026-05-21T13:13:47.000Z</time>
      </trkpt>
      <trkpt lat="43.7743" lon="3.82827">
        <ele>366.2</ele>
        <time>2026-05-21T13:13:48.000Z</time>
      </trkpt>
      <trkpt lat="43.7743" lon="3.82827">
        <ele>366.1</ele>
        <time>2026-05-21T13:13:49.000Z</time>
      </trkpt>
      <trkpt lat="43.7743" lon="3.82827">
        <ele>366.1</ele>
        <time>2026-05-21T13:13:50.000Z</time>
      </trkpt>
      <trkpt lat="43.7743" lon="3.82827">
        <ele>366.1</ele>
        <time>2026-05-21T13:13:51.000Z</time>
      </trkpt>
      <trkpt lat="43.7743" lon="3.82827">
        <ele>366.1</ele>
        <time>2026-05-21T13:13:52.000Z</time>
      </trkpt>
      <trkpt lat="43.7743" lon="3.82826">
        <ele>366</ele>
        <time>2026-05-21T13:13:53.000Z</time>
      </trkpt>
      <trkpt lat="43.7743" lon="3.82826">
        <ele>365.9</ele>
        <time>2026-05-21T13:13:54.000Z</time>
      </trkpt>
      <trkpt lat="43.7743" lon="3.82826">
        <ele>365.9</ele>
        <time>2026-05-21T13:13:55.000Z</time>
      </trkpt>
      <trkpt lat="43.7743" lon="3.82826">
        <ele>366.2</ele>
        <time>2026-05-21T13:13:56.000Z</time>
      </trkpt>
      <trkpt lat="43.7743" lon="3.82826">
        <ele>366.4</ele>
        <time>2026-05-21T13:13:57.000Z</time>
      </trkpt>
      <trkpt lat="43.7743" lon="3.82826">
        <ele>366.4</ele>
        <time>2026-05-21T13:13:58.000Z</time>
      </trkpt>
      <trkpt lat="43.7743" lon="3.82826">
        <ele>366.4</ele>
        <time>2026-05-21T13:13:59.000Z</time>
      </trkpt>
      <trkpt lat="43.7743" lon="3.82826">
        <ele>366.7</ele>
        <time>2026-05-21T13:14:00.000Z</time>
      </trkpt>
      <trkpt lat="43.7743" lon="3.82826">
        <ele>366.8</ele>
        <time>2026-05-21T13:14:01.000Z</time>
      </trkpt>
      <trkpt lat="43.7743" lon="3.82826">
        <ele>366.9</ele>
        <time>2026-05-21T13:14:02.000Z</time>
      </trkpt>
      <trkpt lat="43.7743" lon="3.82826">
        <ele>367.1</ele>
        <time>2026-05-21T13:14:03.000Z</time>
      </trkpt>
      <trkpt lat="43.7743" lon="3.82826">
        <ele>367.2</ele>
        <time>2026-05-21T13:14:04.000Z</time>
      </trkpt>
      <trkpt lat="43.7743" lon="3.82826">
        <ele>367.4</ele>
        <time>2026-05-21T13:14:05.000Z</time>
      </trkpt>
      <trkpt lat="43.7743" lon="3.82826">
        <ele>367.5</ele>
        <time>2026-05-21T13:14:06.000Z</time>
      </trkpt>
      <trkpt lat="43.7743" lon="3.82826">
        <ele>367.6</ele>
        <time>2026-05-21T13:14:07.000Z</time>
      </trkpt>
      <trkpt lat="43.7743" lon="3.82826">
        <ele>367.6</ele>
        <time>2026-05-21T13:14:08.000Z</time>
      </trkpt>
      <trkpt lat="43.7743" lon="3.82826">
        <ele>367.8</ele>
        <time>2026-05-21T13:14:09.000Z</time>
      </trkpt>
      <trkpt lat="43.7743" lon="3.82826">
        <ele>367.8</ele>
        <time>2026-05-21T13:14:10.000Z</time>
      </trkpt>
      <trkpt lat="43.7743" lon="3.82826">
        <ele>367.8</ele>
        <time>2026-05-21T13:14:11.000Z</time>
      </trkpt>
      <trkpt lat="43.7743" lon="3.82826">
        <ele>367.7</ele>
        <time>2026-05-21T13:14:12.000Z</time>
      </trkpt>
      <trkpt lat="43.7743" lon="3.82826">
        <ele>367.7</ele>
        <time>2026-05-21T13:14:13.000Z</time>
      </trkpt>
      <trkpt lat="43.7743" lon="3.82826">
        <ele>367.6</ele>
        <time>2026-05-21T13:14:14.000Z</time>
      </trkpt>
      <trkpt lat="43.7743" lon="3.82826">
        <ele>367.6</ele>
        <time>2026-05-21T13:14:15.000Z</time>
      </trkpt>
      <trkpt lat="43.7743" lon="3.82826">
        <ele>367.6</ele>
        <time>2026-05-21T13:14:16.000Z</time>
      </trkpt>
      <trkpt lat="43.77431" lon="3.82826">
        <ele>367.7</ele>
        <time>2026-05-21T13:14:17.000Z</time>
      </trkpt>
      <trkpt lat="43.77432" lon="3.82826">
        <ele>367.6</ele>
        <time>2026-05-21T13:14:18.000Z</time>
      </trkpt>
      <trkpt lat="43.77432" lon="3.82826">
        <ele>367.9</ele>
        <time>2026-05-21T13:14:19.000Z</time>
      </trkpt>
      <trkpt lat="43.77432" lon="3.82826">
        <ele>367.7</ele>
        <time>2026-05-21T13:14:20.000Z</time>
      </trkpt>
      <trkpt lat="43.77432" lon="3.82826">
        <ele>367.6</ele>
        <time>2026-05-21T13:14:21.000Z</time>
      </trkpt>
      <trkpt lat="43.77432" lon="3.82826">
        <ele>367.6</ele>
        <time>2026-05-21T13:14:22.000Z</time>
      </trkpt>
      <trkpt lat="43.77432" lon="3.82826">
        <ele>367.6</ele>
        <time>2026-05-21T13:14:23.000Z</time>
      </trkpt>
      <trkpt lat="43.77432" lon="3.82826">
        <ele>367.5</ele>
        <time>2026-05-21T13:14:24.000Z</time>
      </trkpt>
      <trkpt lat="43.77432" lon="3.82826">
        <ele>367.3</ele>
        <time>2026-05-21T13:14:25.000Z</time>
      </trkpt>
      <trkpt lat="43.77432" lon="3.82826">
        <ele>367.2</ele>
        <time>2026-05-21T13:14:26.000Z</time>
      </trkpt>
      <trkpt lat="43.77432" lon="3.82827">
        <ele>367.1</ele>
        <time>2026-05-21T13:14:27.000Z</time>
      </trkpt>
      <trkpt lat="43.77432" lon="3.82827">
        <ele>367.2</ele>
        <time>2026-05-21T13:14:28.000Z</time>
      </trkpt>
      <trkpt lat="43.77432" lon="3.82827">
        <ele>367.1</ele>
        <time>2026-05-21T13:14:29.000Z</time>
      </trkpt>
      <trkpt lat="43.77432" lon="3.82827">
        <ele>367</ele>
        <time>2026-05-21T13:14:30.000Z</time>
      </trkpt>
      <trkpt lat="43.77432" lon="3.82827">
        <ele>367.1</ele>
        <time>2026-05-21T13:14:31.000Z</time>
      </trkpt>
      <trkpt lat="43.77432" lon="3.82827">
        <ele>366.9</ele>
        <time>2026-05-21T13:14:32.000Z</time>
      </trkpt>
      <trkpt lat="43.77432" lon="3.82827">
        <ele>367</ele>
        <time>2026-05-21T13:14:33.000Z</time>
      </trkpt>
      <trkpt lat="43.77432" lon="3.82827">
        <ele>367</ele>
        <time>2026-05-21T13:14:34.000Z</time>
      </trkpt>
      <trkpt lat="43.77432" lon="3.82827">
        <ele>366.9</ele>
        <time>2026-05-21T13:14:35.000Z</time>
      </trkpt>
      <trkpt lat="43.77432" lon="3.82827">
        <ele>367.1</ele>
        <time>2026-05-21T13:14:36.000Z</time>
      </trkpt>
      <trkpt lat="43.77431" lon="3.82827">
        <ele>367.1</ele>
        <time>2026-05-21T13:14:37.000Z</time>
      </trkpt>
      <trkpt lat="43.77431" lon="3.82827">
        <ele>366.6</ele>
        <time>2026-05-21T13:14:38.000Z</time>
      </trkpt>
      <trkpt lat="43.77431" lon="3.82827">
        <ele>366.6</ele>
        <time>2026-05-21T13:14:39.000Z</time>
      </trkpt>
      <trkpt lat="43.77431" lon="3.82827">
        <ele>366.4</ele>
        <time>2026-05-21T13:14:40.000Z</time>
      </trkpt>
      <trkpt lat="43.77431" lon="3.82827">
        <ele>366.3</ele>
        <time>2026-05-21T13:14:41.000Z</time>
      </trkpt>
      <trkpt lat="43.77431" lon="3.82827">
        <ele>366.4</ele>
        <time>2026-05-21T13:14:42.000Z</time>
      </trkpt>
      <trkpt lat="43.77431" lon="3.82827">
        <ele>366.5</ele>
        <time>2026-05-21T13:14:43.000Z</time>
      </trkpt>
      <trkpt lat="43.77431" lon="3.82827">
        <ele>366.4</ele>
        <time>2026-05-21T13:14:44.000Z</time>
      </trkpt>
      <trkpt lat="43.77431" lon="3.82827">
        <ele>366.4</ele>
        <time>2026-05-21T13:14:45.000Z</time>
      </trkpt>
      <trkpt lat="43.77431" lon="3.82827">
        <ele>366.5</ele>
        <time>2026-05-21T13:14:46.000Z</time>
      </trkpt>
      <trkpt lat="43.77431" lon="3.82827">
        <ele>366.5</ele>
        <time>2026-05-21T13:14:47.000Z</time>
      </trkpt>
      <trkpt lat="43.77431" lon="3.82827">
        <ele>366.3</ele>
        <time>2026-05-21T13:14:48.000Z</time>
      </trkpt>
      <trkpt lat="43.77431" lon="3.82827">
        <ele>366.2</ele>
        <time>2026-05-21T13:14:49.000Z</time>
      </trkpt>
      <trkpt lat="43.77431" lon="3.82827">
        <ele>366.1</ele>
        <time>2026-05-21T13:14:50.000Z</time>
      </trkpt>
      <trkpt lat="43.77431" lon="3.82827">
        <ele>366</ele>
        <time>2026-05-21T13:14:51.000Z</time>
      </trkpt>
      <trkpt lat="43.77431" lon="3.82827">
        <ele>365.9</ele>
        <time>2026-05-21T13:14:52.000Z</time>
      </trkpt>
      <trkpt lat="43.77431" lon="3.82827">
        <ele>365.8</ele>
        <time>2026-05-21T13:14:53.000Z</time>
      </trkpt>
      <trkpt lat="43.77431" lon="3.82827">
        <ele>365.8</ele>
        <time>2026-05-21T13:14:54.000Z</time>
      </trkpt>
      <trkpt lat="43.77431" lon="3.82827">
        <ele>365.7</ele>
        <time>2026-05-21T13:14:55.000Z</time>
      </trkpt>
      <trkpt lat="43.77431" lon="3.82827">
        <ele>365.6</ele>
        <time>2026-05-21T13:14:56.000Z</time>
      </trkpt>
      <trkpt lat="43.77431" lon="3.82827">
        <ele>365.7</ele>
        <time>2026-05-21T13:14:57.000Z</time>
      </trkpt>
      <trkpt lat="43.77431" lon="3.82827">
        <ele>365.9</ele>
        <time>2026-05-21T13:14:58.000Z</time>
      </trkpt>
      <trkpt lat="43.7743" lon="3.82827">
        <ele>366.2</ele>
        <time>2026-05-21T13:14:59.000Z</time>
      </trkpt>
      <trkpt lat="43.7743" lon="3.82827">
        <ele>366.3</ele>
        <time>2026-05-21T13:15:00.000Z</time>
      </trkpt>
      <trkpt lat="43.7743" lon="3.82827">
        <ele>366.5</ele>
        <time>2026-05-21T13:15:01.000Z</time>
      </trkpt>
      <trkpt lat="43.7743" lon="3.82827">
        <ele>366.7</ele>
        <time>2026-05-21T13:15:02.000Z</time>
      </trkpt>
      <trkpt lat="43.7743" lon="3.82827">
        <ele>366.9</ele>
        <time>2026-05-21T13:15:03.000Z</time>
      </trkpt>
      <trkpt lat="43.7743" lon="3.82827">
        <ele>367.1</ele>
        <time>2026-05-21T13:15:04.000Z</time>
      </trkpt>
      <trkpt lat="43.7743" lon="3.82827">
        <ele>367.3</ele>
        <time>2026-05-21T13:15:05.000Z</time>
      </trkpt>
      <trkpt lat="43.7743" lon="3.82827">
        <ele>367.2</ele>
        <time>2026-05-21T13:15:06.000Z</time>
      </trkpt>
      <trkpt lat="43.7743" lon="3.82827">
        <ele>367.1</ele>
        <time>2026-05-21T13:15:07.000Z</time>
      </trkpt>
      <trkpt lat="43.7743" lon="3.82827">
        <ele>366.9</ele>
        <time>2026-05-21T13:15:08.000Z</time>
      </trkpt>
      <trkpt lat="43.7743" lon="3.82827">
        <ele>366.8</ele>
        <time>2026-05-21T13:15:09.000Z</time>
      </trkpt>
      <trkpt lat="43.7743" lon="3.82827">
        <ele>366.9</ele>
        <time>2026-05-21T13:15:10.000Z</time>
      </trkpt>
      <trkpt lat="43.7743" lon="3.82827">
        <ele>366.6</ele>
        <time>2026-05-21T13:15:11.000Z</time>
      </trkpt>
      <trkpt lat="43.7743" lon="3.82827">
        <ele>366.6</ele>
        <time>2026-05-21T13:15:12.000Z</time>
      </trkpt>
      <trkpt lat="43.7743" lon="3.82827">
        <ele>366.8</ele>
        <time>2026-05-21T13:15:13.000Z</time>
      </trkpt>
      <trkpt lat="43.7743" lon="3.82827">
        <ele>366.9</ele>
        <time>2026-05-21T13:15:14.000Z</time>
      </trkpt>
      <trkpt lat="43.7743" lon="3.82827">
        <ele>366.8</ele>
        <time>2026-05-21T13:15:15.000Z</time>
      </trkpt>
      <trkpt lat="43.7743" lon="3.82827">
        <ele>366.7</ele>
        <time>2026-05-21T13:15:16.000Z</time>
      </trkpt>
      <trkpt lat="43.7743" lon="3.82827">
        <ele>366.9</ele>
        <time>2026-05-21T13:15:17.000Z</time>
      </trkpt>
      <trkpt lat="43.77431" lon="3.82827">
        <ele>367.1</ele>
        <time>2026-05-21T13:15:18.000Z</time>
      </trkpt>
      <trkpt lat="43.77431" lon="3.82827">
        <ele>367.2</ele>
        <time>2026-05-21T13:15:19.000Z</time>
      </trkpt>
      <trkpt lat="43.77431" lon="3.82827">
        <ele>367.3</ele>
        <time>2026-05-21T13:15:20.000Z</time>
      </trkpt>
      <trkpt lat="43.77431" lon="3.82827">
        <ele>367.2</ele>
        <time>2026-05-21T13:15:21.000Z</time>
      </trkpt>
      <trkpt lat="43.77431" lon="3.82827">
        <ele>367.3</ele>
        <time>2026-05-21T13:15:22.000Z</time>
      </trkpt>
      <trkpt lat="43.77432" lon="3.82827">
        <ele>367.1</ele>
        <time>2026-05-21T13:15:23.000Z</time>
      </trkpt>
      <trkpt lat="43.77432" lon="3.82827">
        <ele>367</ele>
        <time>2026-05-21T13:15:24.000Z</time>
      </trkpt>
      <trkpt lat="43.77432" lon="3.82827">
        <ele>366.9</ele>
        <time>2026-05-21T13:15:25.000Z</time>
      </trkpt>
      <trkpt lat="43.77432" lon="3.82827">
        <ele>366.9</ele>
        <time>2026-05-21T13:15:26.000Z</time>
      </trkpt>
      <trkpt lat="43.77431" lon="3.82826">
        <ele>366.8</ele>
        <time>2026-05-21T13:15:27.000Z</time>
      </trkpt>
      <trkpt lat="43.77431" lon="3.82826">
        <ele>366.7</ele>
        <time>2026-05-21T13:15:28.000Z</time>
      </trkpt>
      <trkpt lat="43.77431" lon="3.82826">
        <ele>366.7</ele>
        <time>2026-05-21T13:15:29.000Z</time>
      </trkpt>
      <trkpt lat="43.77431" lon="3.82826">
        <ele>366.9</ele>
        <time>2026-05-21T13:15:30.000Z</time>
      </trkpt>
      <trkpt lat="43.7743" lon="3.82826">
        <ele>367.1</ele>
        <time>2026-05-21T13:15:31.000Z</time>
      </trkpt>
      <trkpt lat="43.7743" lon="3.82826">
        <ele>367.1</ele>
        <time>2026-05-21T13:15:32.000Z</time>
      </trkpt>
      <trkpt lat="43.7743" lon="3.82826">
        <ele>367.3</ele>
        <time>2026-05-21T13:15:33.000Z</time>
      </trkpt>
      <trkpt lat="43.7743" lon="3.82826">
        <ele>367.2</ele>
        <time>2026-05-21T13:15:34.000Z</time>
      </trkpt>
      <trkpt lat="43.7743" lon="3.82826">
        <ele>367.1</ele>
        <time>2026-05-21T13:15:35.000Z</time>
      </trkpt>
      <trkpt lat="43.7743" lon="3.82826">
        <ele>366.9</ele>
        <time>2026-05-21T13:15:36.000Z</time>
      </trkpt>
      <trkpt lat="43.7743" lon="3.82826">
        <ele>366.9</ele>
        <time>2026-05-21T13:15:37.000Z</time>
      </trkpt>
      <trkpt lat="43.7743" lon="3.82826">
        <ele>366.7</ele>
        <time>2026-05-21T13:15:38.000Z</time>
      </trkpt>
      <trkpt lat="43.7743" lon="3.82826">
        <ele>366.7</ele>
        <time>2026-05-21T13:15:39.000Z</time>
      </trkpt>
      <trkpt lat="43.7743" lon="3.82826">
        <ele>366.4</ele>
        <time>2026-05-21T13:15:40.000Z</time>
      </trkpt>
      <trkpt lat="43.7743" lon="3.82826">
        <ele>366.2</ele>
        <time>2026-05-21T13:15:41.000Z</time>
      </trkpt>
      <trkpt lat="43.7743" lon="3.82826">
        <ele>366.3</ele>
        <time>2026-05-21T13:15:42.000Z</time>
      </trkpt>
      <trkpt lat="43.7743" lon="3.82826">
        <ele>366.5</ele>
        <time>2026-05-21T13:15:43.000Z</time>
      </trkpt>
      <trkpt lat="43.7743" lon="3.82826">
        <ele>366.7</ele>
        <time>2026-05-21T13:15:44.000Z</time>
      </trkpt>
      <trkpt lat="43.7743" lon="3.82826">
        <ele>366.8</ele>
        <time>2026-05-21T13:15:45.000Z</time>
      </trkpt>
      <trkpt lat="43.7743" lon="3.82826">
        <ele>366.8</ele>
        <time>2026-05-21T13:15:46.000Z</time>
      </trkpt>
      <trkpt lat="43.7743" lon="3.82826">
        <ele>366.9</ele>
        <time>2026-05-21T13:15:47.000Z</time>
      </trkpt>
      <trkpt lat="43.7743" lon="3.82826">
        <ele>367</ele>
        <time>2026-05-21T13:15:48.000Z</time>
      </trkpt>
      <trkpt lat="43.7743" lon="3.82826">
        <ele>367</ele>
        <time>2026-05-21T13:15:49.000Z</time>
      </trkpt>
      <trkpt lat="43.7743" lon="3.82826">
        <ele>366.7</ele>
        <time>2026-05-21T13:15:50.000Z</time>
      </trkpt>
      <trkpt lat="43.7743" lon="3.82826">
        <ele>366.5</ele>
        <time>2026-05-21T13:15:51.000Z</time>
      </trkpt>
      <trkpt lat="43.7743" lon="3.82826">
        <ele>366.2</ele>
        <time>2026-05-21T13:15:52.000Z</time>
      </trkpt>
      <trkpt lat="43.7743" lon="3.82826">
        <ele>366.2</ele>
        <time>2026-05-21T13:15:53.000Z</time>
      </trkpt>
      <trkpt lat="43.7743" lon="3.82826">
        <ele>366</ele>
        <time>2026-05-21T13:15:54.000Z</time>
      </trkpt>
      <trkpt lat="43.7743" lon="3.82826">
        <ele>365.9</ele>
        <time>2026-05-21T13:15:55.000Z</time>
      </trkpt>
      <trkpt lat="43.7743" lon="3.82827">
        <ele>365.6</ele>
        <time>2026-05-21T13:15:56.000Z</time>
      </trkpt>
      <trkpt lat="43.7743" lon="3.82827">
        <ele>365.5</ele>
        <time>2026-05-21T13:15:57.000Z</time>
      </trkpt>
      <trkpt lat="43.7743" lon="3.82827">
        <ele>365.5</ele>
        <time>2026-05-21T13:15:58.000Z</time>
      </trkpt>
      <trkpt lat="43.7743" lon="3.82827">
        <ele>366</ele>
        <time>2026-05-21T13:15:59.000Z</time>
      </trkpt>
      <trkpt lat="43.7743" lon="3.82827">
        <ele>366.2</ele>
        <time>2026-05-21T13:16:00.000Z</time>
      </trkpt>
      <trkpt lat="43.77429" lon="3.82827">
        <ele>366.3</ele>
        <time>2026-05-21T13:16:01.000Z</time>
      </trkpt>
      <trkpt lat="43.77429" lon="3.82827">
        <ele>366.3</ele>
        <time>2026-05-21T13:16:02.000Z</time>
      </trkpt>
      <trkpt lat="43.77429" lon="3.82827">
        <ele>366.4</ele>
        <time>2026-05-21T13:16:03.000Z</time>
      </trkpt>
      <trkpt lat="43.77429" lon="3.82827">
        <ele>366.6</ele>
        <time>2026-05-21T13:16:04.000Z</time>
      </trkpt>
      <trkpt lat="43.77429" lon="3.82827">
        <ele>366.7</ele>
        <time>2026-05-21T13:16:05.000Z</time>
      </trkpt>
      <trkpt lat="43.77429" lon="3.82827">
        <ele>367</ele>
        <time>2026-05-21T13:16:06.000Z</time>
      </trkpt>
      <trkpt lat="43.77429" lon="3.82827">
        <ele>367.2</ele>
        <time>2026-05-21T13:16:07.000Z</time>
      </trkpt>
      <trkpt lat="43.77429" lon="3.82827">
        <ele>367.4</ele>
        <time>2026-05-21T13:16:08.000Z</time>
      </trkpt>
      <trkpt lat="43.77429" lon="3.82827">
        <ele>367.6</ele>
        <time>2026-05-21T13:16:09.000Z</time>
      </trkpt>
      <trkpt lat="43.77429" lon="3.82827">
        <ele>367.8</ele>
        <time>2026-05-21T13:16:10.000Z</time>
      </trkpt>
      <trkpt lat="43.77429" lon="3.82827">
        <ele>367.8</ele>
        <time>2026-05-21T13:16:11.000Z</time>
      </trkpt>
      <trkpt lat="43.7743" lon="3.82827">
        <ele>367.6</ele>
        <time>2026-05-21T13:16:12.000Z</time>
      </trkpt>
      <trkpt lat="43.7743" lon="3.82827">
        <ele>367.7</ele>
        <time>2026-05-21T13:16:13.000Z</time>
      </trkpt>
      <trkpt lat="43.77429" lon="3.82827">
        <ele>367.6</ele>
        <time>2026-05-21T13:16:14.000Z</time>
      </trkpt>
      <trkpt lat="43.77429" lon="3.82827">
        <ele>367.9</ele>
        <time>2026-05-21T13:16:15.000Z</time>
      </trkpt>
      <trkpt lat="43.77429" lon="3.82827">
        <ele>368.1</ele>
        <time>2026-05-21T13:16:16.000Z</time>
      </trkpt>
      <trkpt lat="43.77429" lon="3.82828">
        <ele>368.1</ele>
        <time>2026-05-21T13:16:17.000Z</time>
      </trkpt>
      <trkpt lat="43.77429" lon="3.82828">
        <ele>368.1</ele>
        <time>2026-05-21T13:16:18.000Z</time>
      </trkpt>
      <trkpt lat="43.77429" lon="3.82828">
        <ele>368.4</ele>
        <time>2026-05-21T13:16:19.000Z</time>
      </trkpt>
      <trkpt lat="43.77429" lon="3.82828">
        <ele>368.5</ele>
        <time>2026-05-21T13:16:20.000Z</time>
      </trkpt>
      <trkpt lat="43.77429" lon="3.82828">
        <ele>368.4</ele>
        <time>2026-05-21T13:16:21.000Z</time>
      </trkpt>
      <trkpt lat="43.7743" lon="3.82828">
        <ele>368.4</ele>
        <time>2026-05-21T13:16:22.000Z</time>
      </trkpt>
      <trkpt lat="43.7743" lon="3.82828">
        <ele>368.1</ele>
        <time>2026-05-21T13:16:23.000Z</time>
      </trkpt>
      <trkpt lat="43.7743" lon="3.82828">
        <ele>368</ele>
        <time>2026-05-21T13:16:24.000Z</time>
      </trkpt>
      <trkpt lat="43.7743" lon="3.82828">
        <ele>367.7</ele>
        <time>2026-05-21T13:16:25.000Z</time>
      </trkpt>
      <trkpt lat="43.7743" lon="3.82828">
        <ele>367.7</ele>
        <time>2026-05-21T13:16:26.000Z</time>
      </trkpt>
      <trkpt lat="43.7743" lon="3.82828">
        <ele>367.6</ele>
        <time>2026-05-21T13:16:27.000Z</time>
      </trkpt>
      <trkpt lat="43.7743" lon="3.82828">
        <ele>367.6</ele>
        <time>2026-05-21T13:16:28.000Z</time>
      </trkpt>
      <trkpt lat="43.7743" lon="3.82828">
        <ele>367.1</ele>
        <time>2026-05-21T13:16:29.000Z</time>
      </trkpt>
      <trkpt lat="43.7743" lon="3.82828">
        <ele>367</ele>
        <time>2026-05-21T13:16:30.000Z</time>
      </trkpt>
      <trkpt lat="43.7743" lon="3.82829">
        <ele>367</ele>
        <time>2026-05-21T13:16:31.000Z</time>
      </trkpt>
      <trkpt lat="43.7743" lon="3.82829">
        <ele>366.7</ele>
        <time>2026-05-21T13:16:32.000Z</time>
      </trkpt>
      <trkpt lat="43.7743" lon="3.8283">
        <ele>366.5</ele>
        <time>2026-05-21T13:16:33.000Z</time>
      </trkpt>
      <trkpt lat="43.77431" lon="3.8283">
        <ele>366.2</ele>
        <time>2026-05-21T13:16:34.000Z</time>
      </trkpt>
      <trkpt lat="43.77431" lon="3.82831">
        <ele>366</ele>
        <time>2026-05-21T13:16:35.000Z</time>
      </trkpt>
      <trkpt lat="43.77431" lon="3.82832">
        <ele>365.9</ele>
        <time>2026-05-21T13:16:36.000Z</time>
      </trkpt>
      <trkpt lat="43.77431" lon="3.82832">
        <ele>366.1</ele>
        <time>2026-05-21T13:16:37.000Z</time>
      </trkpt>
      <trkpt lat="43.77431" lon="3.82832">
        <ele>366</ele>
        <time>2026-05-21T13:16:38.000Z</time>
      </trkpt>
      <trkpt lat="43.77431" lon="3.82832">
        <ele>365.9</ele>
        <time>2026-05-21T13:16:39.000Z</time>
      </trkpt>
      <trkpt lat="43.77431" lon="3.82833">
        <ele>365.9</ele>
        <time>2026-05-21T13:16:40.000Z</time>
      </trkpt>
      <trkpt lat="43.77432" lon="3.82834">
        <ele>365.7</ele>
        <time>2026-05-21T13:16:41.000Z</time>
      </trkpt>
      <trkpt lat="43.77433" lon="3.82835">
        <ele>365.5</ele>
        <time>2026-05-21T13:16:42.000Z</time>
      </trkpt>
      <trkpt lat="43.77433" lon="3.82837">
        <ele>365.7</ele>
        <time>2026-05-21T13:16:43.000Z</time>
      </trkpt>
      <trkpt lat="43.77433" lon="3.82837">
        <ele>365.8</ele>
        <time>2026-05-21T13:16:44.000Z</time>
      </trkpt>
      <trkpt lat="43.77433" lon="3.82838">
        <ele>365.9</ele>
        <time>2026-05-21T13:16:45.000Z</time>
      </trkpt>
      <trkpt lat="43.77434" lon="3.82839">
        <ele>365.9</ele>
        <time>2026-05-21T13:16:46.000Z</time>
      </trkpt>
      <trkpt lat="43.77434" lon="3.8284">
        <ele>365.9</ele>
        <time>2026-05-21T13:16:47.000Z</time>
      </trkpt>
      <trkpt lat="43.77435" lon="3.82841">
        <ele>366</ele>
        <time>2026-05-21T13:16:48.000Z</time>
      </trkpt>
      <trkpt lat="43.77436" lon="3.82843">
        <ele>365.8</ele>
        <time>2026-05-21T13:16:49.000Z</time>
      </trkpt>
      <trkpt lat="43.77437" lon="3.82844">
        <ele>365.8</ele>
        <time>2026-05-21T13:16:50.000Z</time>
      </trkpt>
      <trkpt lat="43.77437" lon="3.82845">
        <ele>365.9</ele>
        <time>2026-05-21T13:16:51.000Z</time>
      </trkpt>
      <trkpt lat="43.77438" lon="3.82846">
        <ele>365.6</ele>
        <time>2026-05-21T13:16:52.000Z</time>
      </trkpt>
      <trkpt lat="43.77439" lon="3.82848">
        <ele>365.3</ele>
        <time>2026-05-21T13:16:53.000Z</time>
      </trkpt>
      <trkpt lat="43.77439" lon="3.82849">
        <ele>365.2</ele>
        <time>2026-05-21T13:16:54.000Z</time>
      </trkpt>
      <trkpt lat="43.7744" lon="3.82851">
        <ele>365</ele>
        <time>2026-05-21T13:16:55.000Z</time>
      </trkpt>
      <trkpt lat="43.7744" lon="3.82852">
        <ele>364.9</ele>
        <time>2026-05-21T13:16:56.000Z</time>
      </trkpt>
      <trkpt lat="43.77441" lon="3.82853">
        <ele>365.1</ele>
        <time>2026-05-21T13:16:57.000Z</time>
      </trkpt>
      <trkpt lat="43.77442" lon="3.82854">
        <ele>365</ele>
        <time>2026-05-21T13:16:58.000Z</time>
      </trkpt>
      <trkpt lat="43.77442" lon="3.82856">
        <ele>364.7</ele>
        <time>2026-05-21T13:16:59.000Z</time>
      </trkpt>
      <trkpt lat="43.77443" lon="3.82856">
        <ele>364.3</ele>
        <time>2026-05-21T13:17:00.000Z</time>
      </trkpt>
      <trkpt lat="43.77442" lon="3.82857">
        <ele>364.1</ele>
        <time>2026-05-21T13:17:01.000Z</time>
      </trkpt>
      <trkpt lat="43.77442" lon="3.82858">
        <ele>364.4</ele>
        <time>2026-05-21T13:17:02.000Z</time>
      </trkpt>
      <trkpt lat="43.77442" lon="3.82859">
        <ele>364.5</ele>
        <time>2026-05-21T13:17:03.000Z</time>
      </trkpt>
      <trkpt lat="43.77442" lon="3.8286">
        <ele>364.6</ele>
        <time>2026-05-21T13:17:04.000Z</time>
      </trkpt>
      <trkpt lat="43.77442" lon="3.8286">
        <ele>364.9</ele>
        <time>2026-05-21T13:17:05.000Z</time>
      </trkpt>
      <trkpt lat="43.77442" lon="3.8286">
        <ele>365.5</ele>
        <time>2026-05-21T13:17:06.000Z</time>
      </trkpt>
      <trkpt lat="43.77443" lon="3.82861">
        <ele>366.2</ele>
        <time>2026-05-21T13:17:07.000Z</time>
      </trkpt>
      <trkpt lat="43.77443" lon="3.82861">
        <ele>367</ele>
        <time>2026-05-21T13:17:08.000Z</time>
      </trkpt>
      <trkpt lat="43.77443" lon="3.82861">
        <ele>367.1</ele>
        <time>2026-05-21T13:17:09.000Z</time>
      </trkpt>
      <trkpt lat="43.77443" lon="3.82862">
        <ele>367.1</ele>
        <time>2026-05-21T13:17:10.000Z</time>
      </trkpt>
      <trkpt lat="43.77443" lon="3.82863">
        <ele>367.1</ele>
        <time>2026-05-21T13:17:11.000Z</time>
      </trkpt>
      <trkpt lat="43.77444" lon="3.82864">
        <ele>366.6</ele>
        <time>2026-05-21T13:17:12.000Z</time>
      </trkpt>
      <trkpt lat="43.77444" lon="3.82864">
        <ele>365.9</ele>
        <time>2026-05-21T13:17:13.000Z</time>
      </trkpt>
      <trkpt lat="43.77444" lon="3.82865">
        <ele>365.7</ele>
        <time>2026-05-21T13:17:14.000Z</time>
      </trkpt>
      <trkpt lat="43.77444" lon="3.82866">
        <ele>365.5</ele>
        <time>2026-05-21T13:17:15.000Z</time>
      </trkpt>
      <trkpt lat="43.77444" lon="3.82866">
        <ele>365.4</ele>
        <time>2026-05-21T13:17:16.000Z</time>
      </trkpt>
      <trkpt lat="43.77444" lon="3.82867">
        <ele>365.3</ele>
        <time>2026-05-21T13:17:17.000Z</time>
      </trkpt>
      <trkpt lat="43.77444" lon="3.82869">
        <ele>365.4</ele>
        <time>2026-05-21T13:17:18.000Z</time>
      </trkpt>
      <trkpt lat="43.77444" lon="3.8287">
        <ele>364.9</ele>
        <time>2026-05-21T13:17:19.000Z</time>
      </trkpt>
      <trkpt lat="43.77445" lon="3.82873">
        <ele>365.1</ele>
        <time>2026-05-21T13:17:20.000Z</time>
      </trkpt>
      <trkpt lat="43.77446" lon="3.82875">
        <ele>365.5</ele>
        <time>2026-05-21T13:17:21.000Z</time>
      </trkpt>
      <trkpt lat="43.77447" lon="3.82876">
        <ele>365.4</ele>
        <time>2026-05-21T13:17:22.000Z</time>
      </trkpt>
      <trkpt lat="43.77448" lon="3.82876">
        <ele>365</ele>
        <time>2026-05-21T13:17:23.000Z</time>
      </trkpt>
      <trkpt lat="43.77449" lon="3.82876">
        <ele>364.6</ele>
        <time>2026-05-21T13:17:24.000Z</time>
      </trkpt>
      <trkpt lat="43.77449" lon="3.82879">
        <ele>364.5</ele>
        <time>2026-05-21T13:17:25.000Z</time>
      </trkpt>
      <trkpt lat="43.77448" lon="3.82881">
        <ele>364.3</ele>
        <time>2026-05-21T13:17:26.000Z</time>
      </trkpt>
      <trkpt lat="43.77447" lon="3.82882">
        <ele>364.7</ele>
        <time>2026-05-21T13:17:27.000Z</time>
      </trkpt>
      <trkpt lat="43.77447" lon="3.82884">
        <ele>364.6</ele>
        <time>2026-05-21T13:17:28.000Z</time>
      </trkpt>
      <trkpt lat="43.77447" lon="3.82886">
        <ele>364.3</ele>
        <time>2026-05-21T13:17:29.000Z</time>
      </trkpt>
      <trkpt lat="43.77447" lon="3.82887">
        <ele>364.1</ele>
        <time>2026-05-21T13:17:30.000Z</time>
      </trkpt>
      <trkpt lat="43.77446" lon="3.82889">
        <ele>363.8</ele>
        <time>2026-05-21T13:17:31.000Z</time>
      </trkpt>
      <trkpt lat="43.77445" lon="3.82891">
        <ele>363.5</ele>
        <time>2026-05-21T13:17:32.000Z</time>
      </trkpt>
      <trkpt lat="43.77444" lon="3.82894">
        <ele>363.2</ele>
        <time>2026-05-21T13:17:33.000Z</time>
      </trkpt>
      <trkpt lat="43.77444" lon="3.82896">
        <ele>363</ele>
        <time>2026-05-21T13:17:34.000Z</time>
      </trkpt>
      <trkpt lat="43.77443" lon="3.82898">
        <ele>363</ele>
        <time>2026-05-21T13:17:35.000Z</time>
      </trkpt>
      <trkpt lat="43.77443" lon="3.82899">
        <ele>363.5</ele>
        <time>2026-05-21T13:17:36.000Z</time>
      </trkpt>
      <trkpt lat="43.77444" lon="3.829">
        <ele>363.9</ele>
        <time>2026-05-21T13:17:37.000Z</time>
      </trkpt>
      <trkpt lat="43.77444" lon="3.829">
        <ele>363.9</ele>
        <time>2026-05-21T13:17:38.000Z</time>
      </trkpt>
      <trkpt lat="43.77444" lon="3.829">
        <ele>364</ele>
        <time>2026-05-21T13:17:39.000Z</time>
      </trkpt>
      <trkpt lat="43.77444" lon="3.829">
        <ele>363.8</ele>
        <time>2026-05-21T13:17:40.000Z</time>
      </trkpt>
      <trkpt lat="43.77443" lon="3.82901">
        <ele>363.5</ele>
        <time>2026-05-21T13:17:41.000Z</time>
      </trkpt>
      <trkpt lat="43.77443" lon="3.82902">
        <ele>363.7</ele>
        <time>2026-05-21T13:17:42.000Z</time>
      </trkpt>
      <trkpt lat="43.77443" lon="3.82904">
        <ele>364.4</ele>
        <time>2026-05-21T13:17:43.000Z</time>
      </trkpt>
      <trkpt lat="43.77443" lon="3.82907">
        <ele>365.3</ele>
        <time>2026-05-21T13:17:44.000Z</time>
      </trkpt>
      <trkpt lat="43.77443" lon="3.82909">
        <ele>366.2</ele>
        <time>2026-05-21T13:17:45.000Z</time>
      </trkpt>
      <trkpt lat="43.77443" lon="3.82909">
        <ele>365.9</ele>
        <time>2026-05-21T13:17:46.000Z</time>
      </trkpt>
      <trkpt lat="43.77443" lon="3.8291">
        <ele>365.7</ele>
        <time>2026-05-21T13:17:47.000Z</time>
      </trkpt>
      <trkpt lat="43.77443" lon="3.82911">
        <ele>365.3</ele>
        <time>2026-05-21T13:17:48.000Z</time>
      </trkpt>
      <trkpt lat="43.77443" lon="3.82912">
        <ele>365.3</ele>
        <time>2026-05-21T13:17:49.000Z</time>
      </trkpt>
      <trkpt lat="43.77444" lon="3.82913">
        <ele>365.3</ele>
        <time>2026-05-21T13:17:50.000Z</time>
      </trkpt>
      <trkpt lat="43.77444" lon="3.82915">
        <ele>364.9</ele>
        <time>2026-05-21T13:17:51.000Z</time>
      </trkpt>
      <trkpt lat="43.77445" lon="3.82916">
        <ele>364.6</ele>
        <time>2026-05-21T13:17:52.000Z</time>
      </trkpt>
      <trkpt lat="43.77445" lon="3.82917">
        <ele>364.7</ele>
        <time>2026-05-21T13:17:53.000Z</time>
      </trkpt>
      <trkpt lat="43.77445" lon="3.82919">
        <ele>364.8</ele>
        <time>2026-05-21T13:17:54.000Z</time>
      </trkpt>
      <trkpt lat="43.77445" lon="3.8292">
        <ele>364.9</ele>
        <time>2026-05-21T13:17:55.000Z</time>
      </trkpt>
      <trkpt lat="43.77445" lon="3.82921">
        <ele>365.1</ele>
        <time>2026-05-21T13:17:56.000Z</time>
      </trkpt>
      <trkpt lat="43.77445" lon="3.82922">
        <ele>365.2</ele>
        <time>2026-05-21T13:17:57.000Z</time>
      </trkpt>
      <trkpt lat="43.77444" lon="3.82923">
        <ele>365</ele>
        <time>2026-05-21T13:17:58.000Z</time>
      </trkpt>
      <trkpt lat="43.77444" lon="3.82923">
        <ele>364.8</ele>
        <time>2026-05-21T13:17:59.000Z</time>
      </trkpt>
      <trkpt lat="43.77443" lon="3.82924">
        <ele>364.5</ele>
        <time>2026-05-21T13:18:00.000Z</time>
      </trkpt>
      <trkpt lat="43.77443" lon="3.82925">
        <ele>364.6</ele>
        <time>2026-05-21T13:18:01.000Z</time>
      </trkpt>
      <trkpt lat="43.77443" lon="3.82926">
        <ele>364.4</ele>
        <time>2026-05-21T13:18:02.000Z</time>
      </trkpt>
      <trkpt lat="43.77443" lon="3.82928">
        <ele>364.5</ele>
        <time>2026-05-21T13:18:03.000Z</time>
      </trkpt>
      <trkpt lat="43.77443" lon="3.82929">
        <ele>364.1</ele>
        <time>2026-05-21T13:18:04.000Z</time>
      </trkpt>
      <trkpt lat="43.77443" lon="3.82931">
        <ele>364.1</ele>
        <time>2026-05-21T13:18:05.000Z</time>
      </trkpt>
      <trkpt lat="43.77443" lon="3.82932">
        <ele>364.1</ele>
        <time>2026-05-21T13:18:06.000Z</time>
      </trkpt>
      <trkpt lat="43.77443" lon="3.82933">
        <ele>364.6</ele>
        <time>2026-05-21T13:18:07.000Z</time>
      </trkpt>
      <trkpt lat="43.77442" lon="3.82934">
        <ele>364.8</ele>
        <time>2026-05-21T13:18:08.000Z</time>
      </trkpt>
      <trkpt lat="43.77442" lon="3.82936">
        <ele>365.2</ele>
        <time>2026-05-21T13:18:09.000Z</time>
      </trkpt>
      <trkpt lat="43.77442" lon="3.82938">
        <ele>365.5</ele>
        <time>2026-05-21T13:18:10.000Z</time>
      </trkpt>
      <trkpt lat="43.77442" lon="3.8294">
        <ele>365.1</ele>
        <time>2026-05-21T13:18:11.000Z</time>
      </trkpt>
      <trkpt lat="43.77442" lon="3.82942">
        <ele>365</ele>
        <time>2026-05-21T13:18:12.000Z</time>
      </trkpt>
      <trkpt lat="43.77441" lon="3.82943">
        <ele>364.8</ele>
        <time>2026-05-21T13:18:13.000Z</time>
      </trkpt>
      <trkpt lat="43.77441" lon="3.82944">
        <ele>365.2</ele>
        <time>2026-05-21T13:18:14.000Z</time>
      </trkpt>
      <trkpt lat="43.7744" lon="3.82945">
        <ele>365.1</ele>
        <time>2026-05-21T13:18:15.000Z</time>
      </trkpt>
      <trkpt lat="43.7744" lon="3.82945">
        <ele>365</ele>
        <time>2026-05-21T13:18:16.000Z</time>
      </trkpt>
      <trkpt lat="43.7744" lon="3.82946">
        <ele>364.9</ele>
        <time>2026-05-21T13:18:17.000Z</time>
      </trkpt>
      <trkpt lat="43.77439" lon="3.82947">
        <ele>364.8</ele>
        <time>2026-05-21T13:18:18.000Z</time>
      </trkpt>
      <trkpt lat="43.77439" lon="3.82948">
        <ele>364.5</ele>
        <time>2026-05-21T13:18:19.000Z</time>
      </trkpt>
      <trkpt lat="43.77438" lon="3.8295">
        <ele>364.4</ele>
        <time>2026-05-21T13:18:20.000Z</time>
      </trkpt>
      <trkpt lat="43.77438" lon="3.82951">
        <ele>364.1</ele>
        <time>2026-05-21T13:18:21.000Z</time>
      </trkpt>
      <trkpt lat="43.77438" lon="3.82951">
        <ele>364</ele>
        <time>2026-05-21T13:18:22.000Z</time>
      </trkpt>
      <trkpt lat="43.77437" lon="3.82952">
        <ele>364.2</ele>
        <time>2026-05-21T13:18:23.000Z</time>
      </trkpt>
      <trkpt lat="43.77437" lon="3.82953">
        <ele>364.4</ele>
        <time>2026-05-21T13:18:24.000Z</time>
      </trkpt>
      <trkpt lat="43.77436" lon="3.82953">
        <ele>364.7</ele>
        <time>2026-05-21T13:18:25.000Z</time>
      </trkpt>
      <trkpt lat="43.77436" lon="3.82954">
        <ele>364.6</ele>
        <time>2026-05-21T13:18:26.000Z</time>
      </trkpt>
      <trkpt lat="43.77436" lon="3.82954">
        <ele>364.6</ele>
        <time>2026-05-21T13:18:27.000Z</time>
      </trkpt>
      <trkpt lat="43.77436" lon="3.82954">
        <ele>365</ele>
        <time>2026-05-21T13:18:28.000Z</time>
      </trkpt>
      <trkpt lat="43.77435" lon="3.82955">
        <ele>365.5</ele>
        <time>2026-05-21T13:18:29.000Z</time>
      </trkpt>
      <trkpt lat="43.77435" lon="3.82956">
        <ele>365.6</ele>
        <time>2026-05-21T13:18:30.000Z</time>
      </trkpt>
      <trkpt lat="43.77434" lon="3.82957">
        <ele>365.7</ele>
        <time>2026-05-21T13:18:31.000Z</time>
      </trkpt>
      <trkpt lat="43.77434" lon="3.82958">
        <ele>365.9</ele>
        <time>2026-05-21T13:18:32.000Z</time>
      </trkpt>
      <trkpt lat="43.77433" lon="3.8296">
        <ele>365.9</ele>
        <time>2026-05-21T13:18:33.000Z</time>
      </trkpt>
      <trkpt lat="43.77433" lon="3.82961">
        <ele>366</ele>
        <time>2026-05-21T13:18:34.000Z</time>
      </trkpt>
      <trkpt lat="43.77433" lon="3.82963">
        <ele>366.1</ele>
        <time>2026-05-21T13:18:35.000Z</time>
      </trkpt>
      <trkpt lat="43.77433" lon="3.82964">
        <ele>366</ele>
        <time>2026-05-21T13:18:36.000Z</time>
      </trkpt>
      <trkpt lat="43.77432" lon="3.82965">
        <ele>365.8</ele>
        <time>2026-05-21T13:18:37.000Z</time>
      </trkpt>
      <trkpt lat="43.77432" lon="3.82966">
        <ele>365.7</ele>
        <time>2026-05-21T13:18:38.000Z</time>
      </trkpt>
      <trkpt lat="43.77432" lon="3.82966">
        <ele>366</ele>
        <time>2026-05-21T13:18:39.000Z</time>
      </trkpt>
      <trkpt lat="43.77432" lon="3.82967">
        <ele>366.1</ele>
        <time>2026-05-21T13:18:40.000Z</time>
      </trkpt>
      <trkpt lat="43.77432" lon="3.82967">
        <ele>365.8</ele>
        <time>2026-05-21T13:18:41.000Z</time>
      </trkpt>
      <trkpt lat="43.77431" lon="3.82967">
        <ele>365.8</ele>
        <time>2026-05-21T13:18:42.000Z</time>
      </trkpt>
      <trkpt lat="43.77431" lon="3.82968">
        <ele>365.7</ele>
        <time>2026-05-21T13:18:43.000Z</time>
      </trkpt>
      <trkpt lat="43.7743" lon="3.82969">
        <ele>365.7</ele>
        <time>2026-05-21T13:18:44.000Z</time>
      </trkpt>
      <trkpt lat="43.7743" lon="3.8297">
        <ele>365.7</ele>
        <time>2026-05-21T13:18:45.000Z</time>
      </trkpt>
      <trkpt lat="43.77429" lon="3.82971">
        <ele>365.5</ele>
        <time>2026-05-21T13:18:46.000Z</time>
      </trkpt>
      <trkpt lat="43.77429" lon="3.82971">
        <ele>365</ele>
        <time>2026-05-21T13:18:47.000Z</time>
      </trkpt>
      <trkpt lat="43.77428" lon="3.82972">
        <ele>364.7</ele>
        <time>2026-05-21T13:18:48.000Z</time>
      </trkpt>
      <trkpt lat="43.77428" lon="3.82974">
        <ele>364.7</ele>
        <time>2026-05-21T13:18:49.000Z</time>
      </trkpt>
      <trkpt lat="43.77427" lon="3.82975">
        <ele>364.9</ele>
        <time>2026-05-21T13:18:50.000Z</time>
      </trkpt>
      <trkpt lat="43.77427" lon="3.82976">
        <ele>364.8</ele>
        <time>2026-05-21T13:18:51.000Z</time>
      </trkpt>
      <trkpt lat="43.77427" lon="3.82977">
        <ele>364.5</ele>
        <time>2026-05-21T13:18:52.000Z</time>
      </trkpt>
      <trkpt lat="43.77426" lon="3.82978">
        <ele>364.4</ele>
        <time>2026-05-21T13:18:53.000Z</time>
      </trkpt>
      <trkpt lat="43.77425" lon="3.82978">
        <ele>364.3</ele>
        <time>2026-05-21T13:18:54.000Z</time>
      </trkpt>
      <trkpt lat="43.77424" lon="3.82979">
        <ele>364</ele>
        <time>2026-05-21T13:18:55.000Z</time>
      </trkpt>
      <trkpt lat="43.77424" lon="3.82979">
        <ele>363.9</ele>
        <time>2026-05-21T13:18:56.000Z</time>
      </trkpt>
      <trkpt lat="43.77424" lon="3.8298">
        <ele>364</ele>
        <time>2026-05-21T13:18:57.000Z</time>
      </trkpt>
      <trkpt lat="43.77424" lon="3.8298">
        <ele>363.9</ele>
        <time>2026-05-21T13:18:58.000Z</time>
      </trkpt>
      <trkpt lat="43.77423" lon="3.8298">
        <ele>364.1</ele>
        <time>2026-05-21T13:18:59.000Z</time>
      </trkpt>
      <trkpt lat="43.77422" lon="3.82981">
        <ele>364</ele>
        <time>2026-05-21T13:19:00.000Z</time>
      </trkpt>
      <trkpt lat="43.77421" lon="3.82981">
        <ele>363.8</ele>
        <time>2026-05-21T13:19:01.000Z</time>
      </trkpt>
      <trkpt lat="43.77421" lon="3.82982">
        <ele>363.8</ele>
        <time>2026-05-21T13:19:02.000Z</time>
      </trkpt>
      <trkpt lat="43.77421" lon="3.82982">
        <ele>363.6</ele>
        <time>2026-05-21T13:19:03.000Z</time>
      </trkpt>
      <trkpt lat="43.77421" lon="3.82982">
        <ele>363.3</ele>
        <time>2026-05-21T13:19:04.000Z</time>
      </trkpt>
      <trkpt lat="43.77421" lon="3.82983">
        <ele>363.4</ele>
        <time>2026-05-21T13:19:05.000Z</time>
      </trkpt>
      <trkpt lat="43.77421" lon="3.82983">
        <ele>363.5</ele>
        <time>2026-05-21T13:19:06.000Z</time>
      </trkpt>
      <trkpt lat="43.77421" lon="3.82983">
        <ele>363.8</ele>
        <time>2026-05-21T13:19:07.000Z</time>
      </trkpt>
      <trkpt lat="43.77421" lon="3.82984">
        <ele>363.8</ele>
        <time>2026-05-21T13:19:08.000Z</time>
      </trkpt>
      <trkpt lat="43.7742" lon="3.82984">
        <ele>363.8</ele>
        <time>2026-05-21T13:19:09.000Z</time>
      </trkpt>
      <trkpt lat="43.7742" lon="3.82985">
        <ele>364</ele>
        <time>2026-05-21T13:19:10.000Z</time>
      </trkpt>
      <trkpt lat="43.7742" lon="3.82985">
        <ele>364</ele>
        <time>2026-05-21T13:19:11.000Z</time>
      </trkpt>
      <trkpt lat="43.7742" lon="3.82987">
        <ele>364</ele>
        <time>2026-05-21T13:19:12.000Z</time>
      </trkpt>
      <trkpt lat="43.7742" lon="3.82989">
        <ele>364.1</ele>
        <time>2026-05-21T13:19:13.000Z</time>
      </trkpt>
      <trkpt lat="43.77419" lon="3.82991">
        <ele>364.3</ele>
        <time>2026-05-21T13:19:14.000Z</time>
      </trkpt>
      <trkpt lat="43.77419" lon="3.82993">
        <ele>364.3</ele>
        <time>2026-05-21T13:19:15.000Z</time>
      </trkpt>
      <trkpt lat="43.77419" lon="3.82996">
        <ele>364.1</ele>
        <time>2026-05-21T13:19:16.000Z</time>
      </trkpt>
      <trkpt lat="43.77418" lon="3.82998">
        <ele>364.3</ele>
        <time>2026-05-21T13:19:17.000Z</time>
      </trkpt>
      <trkpt lat="43.77417" lon="3.83">
        <ele>364.3</ele>
        <time>2026-05-21T13:19:18.000Z</time>
      </trkpt>
      <trkpt lat="43.77417" lon="3.83001">
        <ele>364.2</ele>
        <time>2026-05-21T13:19:19.000Z</time>
      </trkpt>
      <trkpt lat="43.77417" lon="3.83003">
        <ele>364.1</ele>
        <time>2026-05-21T13:19:20.000Z</time>
      </trkpt>
      <trkpt lat="43.77417" lon="3.83004">
        <ele>364.2</ele>
        <time>2026-05-21T13:19:21.000Z</time>
      </trkpt>
      <trkpt lat="43.77417" lon="3.83005">
        <ele>364.3</ele>
        <time>2026-05-21T13:19:22.000Z</time>
      </trkpt>
      <trkpt lat="43.77417" lon="3.83006">
        <ele>364.2</ele>
        <time>2026-05-21T13:19:23.000Z</time>
      </trkpt>
      <trkpt lat="43.77417" lon="3.83006">
        <ele>364.4</ele>
        <time>2026-05-21T13:19:24.000Z</time>
      </trkpt>
      <trkpt lat="43.77416" lon="3.83008">
        <ele>364.6</ele>
        <time>2026-05-21T13:19:25.000Z</time>
      </trkpt>
      <trkpt lat="43.77416" lon="3.83009">
        <ele>364.9</ele>
        <time>2026-05-21T13:19:26.000Z</time>
      </trkpt>
      <trkpt lat="43.77416" lon="3.83011">
        <ele>365</ele>
        <time>2026-05-21T13:19:27.000Z</time>
      </trkpt>
      <trkpt lat="43.77415" lon="3.83012">
        <ele>365.1</ele>
        <time>2026-05-21T13:19:28.000Z</time>
      </trkpt>
      <trkpt lat="43.77414" lon="3.83014">
        <ele>365.3</ele>
        <time>2026-05-21T13:19:29.000Z</time>
      </trkpt>
      <trkpt lat="43.77414" lon="3.83015">
        <ele>365.4</ele>
        <time>2026-05-21T13:19:30.000Z</time>
      </trkpt>
      <trkpt lat="43.77414" lon="3.83016">
        <ele>365.3</ele>
        <time>2026-05-21T13:19:31.000Z</time>
      </trkpt>
      <trkpt lat="43.77413" lon="3.83016">
        <ele>365</ele>
        <time>2026-05-21T13:19:32.000Z</time>
      </trkpt>
      <trkpt lat="43.77414" lon="3.83016">
        <ele>364.9</ele>
        <time>2026-05-21T13:19:33.000Z</time>
      </trkpt>
      <trkpt lat="43.77413" lon="3.83017">
        <ele>364.9</ele>
        <time>2026-05-21T13:19:34.000Z</time>
      </trkpt>
      <trkpt lat="43.77414" lon="3.83018">
        <ele>365.1</ele>
        <time>2026-05-21T13:19:35.000Z</time>
      </trkpt>
      <trkpt lat="43.77413" lon="3.83019">
        <ele>365</ele>
        <time>2026-05-21T13:19:36.000Z</time>
      </trkpt>
      <trkpt lat="43.77413" lon="3.83021">
        <ele>365</ele>
        <time>2026-05-21T13:19:37.000Z</time>
      </trkpt>
      <trkpt lat="43.77412" lon="3.83023">
        <ele>365</ele>
        <time>2026-05-21T13:19:38.000Z</time>
      </trkpt>
      <trkpt lat="43.77412" lon="3.83025">
        <ele>364.7</ele>
        <time>2026-05-21T13:19:39.000Z</time>
      </trkpt>
      <trkpt lat="43.77412" lon="3.83025">
        <ele>364.7</ele>
        <time>2026-05-21T13:19:40.000Z</time>
      </trkpt>
      <trkpt lat="43.77412" lon="3.83026">
        <ele>364.6</ele>
        <time>2026-05-21T13:19:41.000Z</time>
      </trkpt>
      <trkpt lat="43.77412" lon="3.83026">
        <ele>364.7</ele>
        <time>2026-05-21T13:19:42.000Z</time>
      </trkpt>
      <trkpt lat="43.77412" lon="3.83027">
        <ele>364.7</ele>
        <time>2026-05-21T13:19:43.000Z</time>
      </trkpt>
      <trkpt lat="43.77412" lon="3.83027">
        <ele>364.8</ele>
        <time>2026-05-21T13:19:44.000Z</time>
      </trkpt>
      <trkpt lat="43.77412" lon="3.83028">
        <ele>364.7</ele>
        <time>2026-05-21T13:19:45.000Z</time>
      </trkpt>
      <trkpt lat="43.77412" lon="3.83028">
        <ele>364.4</ele>
        <time>2026-05-21T13:19:46.000Z</time>
      </trkpt>
      <trkpt lat="43.77411" lon="3.8303">
        <ele>364.2</ele>
        <time>2026-05-21T13:19:47.000Z</time>
      </trkpt>
      <trkpt lat="43.77411" lon="3.83031">
        <ele>363.9</ele>
        <time>2026-05-21T13:19:48.000Z</time>
      </trkpt>
      <trkpt lat="43.7741" lon="3.83033">
        <ele>363.9</ele>
        <time>2026-05-21T13:19:49.000Z</time>
      </trkpt>
      <trkpt lat="43.77409" lon="3.83034">
        <ele>363.9</ele>
        <time>2026-05-21T13:19:50.000Z</time>
      </trkpt>
      <trkpt lat="43.77409" lon="3.83037">
        <ele>363.8</ele>
        <time>2026-05-21T13:19:51.000Z</time>
      </trkpt>
      <trkpt lat="43.77409" lon="3.8304">
        <ele>363.5</ele>
        <time>2026-05-21T13:19:52.000Z</time>
      </trkpt>
      <trkpt lat="43.77408" lon="3.83042">
        <ele>363.1</ele>
        <time>2026-05-21T13:19:53.000Z</time>
      </trkpt>
      <trkpt lat="43.77407" lon="3.83045">
        <ele>362.9</ele>
        <time>2026-05-21T13:19:54.000Z</time>
      </trkpt>
      <trkpt lat="43.77407" lon="3.83047">
        <ele>362.8</ele>
        <time>2026-05-21T13:19:55.000Z</time>
      </trkpt>
      <trkpt lat="43.77407" lon="3.83049">
        <ele>362.9</ele>
        <time>2026-05-21T13:19:56.000Z</time>
      </trkpt>
      <trkpt lat="43.77405" lon="3.8305">
        <ele>363.4</ele>
        <time>2026-05-21T13:19:57.000Z</time>
      </trkpt>
      <trkpt lat="43.77404" lon="3.8305">
        <ele>363.9</ele>
        <time>2026-05-21T13:19:58.000Z</time>
      </trkpt>
      <trkpt lat="43.77402" lon="3.83052">
        <ele>364.1</ele>
        <time>2026-05-21T13:19:59.000Z</time>
      </trkpt>
      <trkpt lat="43.77401" lon="3.83053">
        <ele>364.5</ele>
        <time>2026-05-21T13:20:00.000Z</time>
      </trkpt>
      <trkpt lat="43.774" lon="3.83053">
        <ele>364.4</ele>
        <time>2026-05-21T13:20:01.000Z</time>
      </trkpt>
      <trkpt lat="43.774" lon="3.83054">
        <ele>364.4</ele>
        <time>2026-05-21T13:20:02.000Z</time>
      </trkpt>
      <trkpt lat="43.774" lon="3.83055">
        <ele>364</ele>
        <time>2026-05-21T13:20:03.000Z</time>
      </trkpt>
      <trkpt lat="43.774" lon="3.83055">
        <ele>364</ele>
        <time>2026-05-21T13:20:04.000Z</time>
      </trkpt>
      <trkpt lat="43.774" lon="3.83055">
        <ele>364.3</ele>
        <time>2026-05-21T13:20:05.000Z</time>
      </trkpt>
      <trkpt lat="43.774" lon="3.83056">
        <ele>364.3</ele>
        <time>2026-05-21T13:20:06.000Z</time>
      </trkpt>
      <trkpt lat="43.774" lon="3.83056">
        <ele>364.2</ele>
        <time>2026-05-21T13:20:07.000Z</time>
      </trkpt>
      <trkpt lat="43.77399" lon="3.83057">
        <ele>364.3</ele>
        <time>2026-05-21T13:20:08.000Z</time>
      </trkpt>
      <trkpt lat="43.77399" lon="3.83058">
        <ele>364.1</ele>
        <time>2026-05-21T13:20:09.000Z</time>
      </trkpt>
      <trkpt lat="43.77399" lon="3.8306">
        <ele>363.7</ele>
        <time>2026-05-21T13:20:10.000Z</time>
      </trkpt>
      <trkpt lat="43.774" lon="3.83061">
        <ele>363.6</ele>
        <time>2026-05-21T13:20:11.000Z</time>
      </trkpt>
      <trkpt lat="43.77399" lon="3.83062">
        <ele>363.6</ele>
        <time>2026-05-21T13:20:12.000Z</time>
      </trkpt>
      <trkpt lat="43.77399" lon="3.83063">
        <ele>363.5</ele>
        <time>2026-05-21T13:20:13.000Z</time>
      </trkpt>
      <trkpt lat="43.77399" lon="3.83063">
        <ele>363.8</ele>
        <time>2026-05-21T13:20:14.000Z</time>
      </trkpt>
      <trkpt lat="43.77399" lon="3.83063">
        <ele>363.9</ele>
        <time>2026-05-21T13:20:15.000Z</time>
      </trkpt>
      <trkpt lat="43.77399" lon="3.83063">
        <ele>363.8</ele>
        <time>2026-05-21T13:20:16.000Z</time>
      </trkpt>
      <trkpt lat="43.77398" lon="3.83064">
        <ele>364</ele>
        <time>2026-05-21T13:20:17.000Z</time>
      </trkpt>
      <trkpt lat="43.77398" lon="3.83065">
        <ele>364.1</ele>
        <time>2026-05-21T13:20:18.000Z</time>
      </trkpt>
      <trkpt lat="43.77397" lon="3.83066">
        <ele>364</ele>
        <time>2026-05-21T13:20:19.000Z</time>
      </trkpt>
      <trkpt lat="43.77397" lon="3.83067">
        <ele>363.8</ele>
        <time>2026-05-21T13:20:20.000Z</time>
      </trkpt>
      <trkpt lat="43.77397" lon="3.83067">
        <ele>363.9</ele>
        <time>2026-05-21T13:20:21.000Z</time>
      </trkpt>
      <trkpt lat="43.77397" lon="3.83067">
        <ele>364.1</ele>
        <time>2026-05-21T13:20:22.000Z</time>
      </trkpt>
      <trkpt lat="43.77397" lon="3.83067">
        <ele>364.5</ele>
        <time>2026-05-21T13:20:23.000Z</time>
      </trkpt>
      <trkpt lat="43.77397" lon="3.83068">
        <ele>364.7</ele>
        <time>2026-05-21T13:20:24.000Z</time>
      </trkpt>
      <trkpt lat="43.77396" lon="3.83068">
        <ele>364.8</ele>
        <time>2026-05-21T13:20:25.000Z</time>
      </trkpt>
      <trkpt lat="43.77396" lon="3.83071">
        <ele>364.8</ele>
        <time>2026-05-21T13:20:26.000Z</time>
      </trkpt>
      <trkpt lat="43.77395" lon="3.83072">
        <ele>364.9</ele>
        <time>2026-05-21T13:20:27.000Z</time>
      </trkpt>
      <trkpt lat="43.77395" lon="3.83074">
        <ele>364.9</ele>
        <time>2026-05-21T13:20:28.000Z</time>
      </trkpt>
      <trkpt lat="43.77394" lon="3.83075">
        <ele>364.8</ele>
        <time>2026-05-21T13:20:29.000Z</time>
      </trkpt>
      <trkpt lat="43.77393" lon="3.83076">
        <ele>364.6</ele>
        <time>2026-05-21T13:20:30.000Z</time>
      </trkpt>
      <trkpt lat="43.77393" lon="3.83078">
        <ele>364.5</ele>
        <time>2026-05-21T13:20:31.000Z</time>
      </trkpt>
      <trkpt lat="43.77393" lon="3.83079">
        <ele>364.6</ele>
        <time>2026-05-21T13:20:32.000Z</time>
      </trkpt>
      <trkpt lat="43.77391" lon="3.8308">
        <ele>364.4</ele>
        <time>2026-05-21T13:20:33.000Z</time>
      </trkpt>
      <trkpt lat="43.7739" lon="3.83081">
        <ele>364.3</ele>
        <time>2026-05-21T13:20:34.000Z</time>
      </trkpt>
      <trkpt lat="43.7739" lon="3.83082">
        <ele>364.5</ele>
        <time>2026-05-21T13:20:35.000Z</time>
      </trkpt>
      <trkpt lat="43.7739" lon="3.83083">
        <ele>364.6</ele>
        <time>2026-05-21T13:20:36.000Z</time>
      </trkpt>
      <trkpt lat="43.77389" lon="3.83084">
        <ele>364.5</ele>
        <time>2026-05-21T13:20:37.000Z</time>
      </trkpt>
      <trkpt lat="43.77389" lon="3.83085">
        <ele>364.5</ele>
        <time>2026-05-21T13:20:38.000Z</time>
      </trkpt>
      <trkpt lat="43.77388" lon="3.83087">
        <ele>364.2</ele>
        <time>2026-05-21T13:20:39.000Z</time>
      </trkpt>
      <trkpt lat="43.77388" lon="3.83088">
        <ele>364</ele>
        <time>2026-05-21T13:20:40.000Z</time>
      </trkpt>
      <trkpt lat="43.77387" lon="3.83089">
        <ele>364.1</ele>
        <time>2026-05-21T13:20:41.000Z</time>
      </trkpt>
      <trkpt lat="43.77387" lon="3.8309">
        <ele>364</ele>
        <time>2026-05-21T13:20:42.000Z</time>
      </trkpt>
      <trkpt lat="43.77387" lon="3.83091">
        <ele>364</ele>
        <time>2026-05-21T13:20:43.000Z</time>
      </trkpt>
      <trkpt lat="43.77387" lon="3.83093">
        <ele>364</ele>
        <time>2026-05-21T13:20:44.000Z</time>
      </trkpt>
      <trkpt lat="43.77387" lon="3.83095">
        <ele>364.1</ele>
        <time>2026-05-21T13:20:45.000Z</time>
      </trkpt>
      <trkpt lat="43.77388" lon="3.83096">
        <ele>364.1</ele>
        <time>2026-05-21T13:20:46.000Z</time>
      </trkpt>
      <trkpt lat="43.77388" lon="3.83098">
        <ele>364</ele>
        <time>2026-05-21T13:20:47.000Z</time>
      </trkpt>
      <trkpt lat="43.77389" lon="3.83099">
        <ele>364.3</ele>
        <time>2026-05-21T13:20:48.000Z</time>
      </trkpt>
      <trkpt lat="43.77389" lon="3.831">
        <ele>364.6</ele>
        <time>2026-05-21T13:20:49.000Z</time>
      </trkpt>
      <trkpt lat="43.77389" lon="3.83101">
        <ele>364.8</ele>
        <time>2026-05-21T13:20:50.000Z</time>
      </trkpt>
      <trkpt lat="43.77389" lon="3.83102">
        <ele>364.5</ele>
        <time>2026-05-21T13:20:51.000Z</time>
      </trkpt>
      <trkpt lat="43.77388" lon="3.83103">
        <ele>364.6</ele>
        <time>2026-05-21T13:20:52.000Z</time>
      </trkpt>
      <trkpt lat="43.77389" lon="3.83103">
        <ele>364.5</ele>
        <time>2026-05-21T13:20:53.000Z</time>
      </trkpt>
      <trkpt lat="43.77389" lon="3.83104">
        <ele>364.2</ele>
        <time>2026-05-21T13:20:54.000Z</time>
      </trkpt>
      <trkpt lat="43.77389" lon="3.83105">
        <ele>364.1</ele>
        <time>2026-05-21T13:20:55.000Z</time>
      </trkpt>
      <trkpt lat="43.7739" lon="3.83106">
        <ele>364.3</ele>
        <time>2026-05-21T13:20:56.000Z</time>
      </trkpt>
      <trkpt lat="43.7739" lon="3.83106">
        <ele>364.4</ele>
        <time>2026-05-21T13:20:57.000Z</time>
      </trkpt>
      <trkpt lat="43.7739" lon="3.83107">
        <ele>364.2</ele>
        <time>2026-05-21T13:20:58.000Z</time>
      </trkpt>
      <trkpt lat="43.7739" lon="3.83107">
        <ele>364.6</ele>
        <time>2026-05-21T13:20:59.000Z</time>
      </trkpt>
      <trkpt lat="43.7739" lon="3.83107">
        <ele>364.7</ele>
        <time>2026-05-21T13:21:00.000Z</time>
      </trkpt>
      <trkpt lat="43.77389" lon="3.83107">
        <ele>365</ele>
        <time>2026-05-21T13:21:01.000Z</time>
      </trkpt>
      <trkpt lat="43.77389" lon="3.83107">
        <ele>365</ele>
        <time>2026-05-21T13:21:02.000Z</time>
      </trkpt>
      <trkpt lat="43.77389" lon="3.83108">
        <ele>365</ele>
        <time>2026-05-21T13:21:03.000Z</time>
      </trkpt>
      <trkpt lat="43.7739" lon="3.83108">
        <ele>365.2</ele>
        <time>2026-05-21T13:21:04.000Z</time>
      </trkpt>
      <trkpt lat="43.7739" lon="3.8311">
        <ele>365.2</ele>
        <time>2026-05-21T13:21:05.000Z</time>
      </trkpt>
      <trkpt lat="43.7739" lon="3.83112">
        <ele>365.4</ele>
        <time>2026-05-21T13:21:06.000Z</time>
      </trkpt>
      <trkpt lat="43.7739" lon="3.83114">
        <ele>365.3</ele>
        <time>2026-05-21T13:21:07.000Z</time>
      </trkpt>
      <trkpt lat="43.7739" lon="3.83114">
        <ele>365.3</ele>
        <time>2026-05-21T13:21:08.000Z</time>
      </trkpt>
      <trkpt lat="43.7739" lon="3.83115">
        <ele>365.2</ele>
        <time>2026-05-21T13:21:09.000Z</time>
      </trkpt>
      <trkpt lat="43.7739" lon="3.83115">
        <ele>365.2</ele>
        <time>2026-05-21T13:21:10.000Z</time>
      </trkpt>
      <trkpt lat="43.7739" lon="3.83117">
        <ele>365.3</ele>
        <time>2026-05-21T13:21:11.000Z</time>
      </trkpt>
      <trkpt lat="43.7739" lon="3.83118">
        <ele>365.2</ele>
        <time>2026-05-21T13:21:12.000Z</time>
      </trkpt>
      <trkpt lat="43.7739" lon="3.8312">
        <ele>365.3</ele>
        <time>2026-05-21T13:21:13.000Z</time>
      </trkpt>
      <trkpt lat="43.7739" lon="3.83121">
        <ele>365.6</ele>
        <time>2026-05-21T13:21:14.000Z</time>
      </trkpt>
      <trkpt lat="43.7739" lon="3.83122">
        <ele>366</ele>
        <time>2026-05-21T13:21:15.000Z</time>
      </trkpt>
      <trkpt lat="43.7739" lon="3.83124">
        <ele>366</ele>
        <time>2026-05-21T13:21:16.000Z</time>
      </trkpt>
      <trkpt lat="43.7739" lon="3.83125">
        <ele>366.2</ele>
        <time>2026-05-21T13:21:17.000Z</time>
      </trkpt>
      <trkpt lat="43.7739" lon="3.83125">
        <ele>366.3</ele>
        <time>2026-05-21T13:21:18.000Z</time>
      </trkpt>
      <trkpt lat="43.77389" lon="3.83126">
        <ele>366.5</ele>
        <time>2026-05-21T13:21:19.000Z</time>
      </trkpt>
      <trkpt lat="43.77389" lon="3.83128">
        <ele>366.5</ele>
        <time>2026-05-21T13:21:20.000Z</time>
      </trkpt>
      <trkpt lat="43.77389" lon="3.83129">
        <ele>366.6</ele>
        <time>2026-05-21T13:21:21.000Z</time>
      </trkpt>
      <trkpt lat="43.77388" lon="3.83131">
        <ele>366.4</ele>
        <time>2026-05-21T13:21:22.000Z</time>
      </trkpt>
      <trkpt lat="43.77388" lon="3.83133">
        <ele>366.7</ele>
        <time>2026-05-21T13:21:23.000Z</time>
      </trkpt>
      <trkpt lat="43.77388" lon="3.83134">
        <ele>366.9</ele>
        <time>2026-05-21T13:21:24.000Z</time>
      </trkpt>
      <trkpt lat="43.77388" lon="3.83136">
        <ele>367.2</ele>
        <time>2026-05-21T13:21:25.000Z</time>
      </trkpt>
      <trkpt lat="43.77387" lon="3.83137">
        <ele>367.6</ele>
        <time>2026-05-21T13:21:26.000Z</time>
      </trkpt>
      <trkpt lat="43.77388" lon="3.83138">
        <ele>367.8</ele>
        <time>2026-05-21T13:21:27.000Z</time>
      </trkpt>
      <trkpt lat="43.77388" lon="3.8314">
        <ele>367.5</ele>
        <time>2026-05-21T13:21:28.000Z</time>
      </trkpt>
      <trkpt lat="43.77388" lon="3.83141">
        <ele>367.4</ele>
        <time>2026-05-21T13:21:29.000Z</time>
      </trkpt>
      <trkpt lat="43.77388" lon="3.83142">
        <ele>367.3</ele>
        <time>2026-05-21T13:21:30.000Z</time>
      </trkpt>
      <trkpt lat="43.77388" lon="3.83143">
        <ele>367</ele>
        <time>2026-05-21T13:21:31.000Z</time>
      </trkpt>
      <trkpt lat="43.77389" lon="3.83143">
        <ele>367.1</ele>
        <time>2026-05-21T13:21:32.999Z</time>
      </trkpt>
      <trkpt lat="43.77388" lon="3.83145">
        <ele>367.2</ele>
        <time>2026-05-21T13:21:33.999Z</time>
      </trkpt>
      <trkpt lat="43.77388" lon="3.83146">
        <ele>367.2</ele>
        <time>2026-05-21T13:21:34.999Z</time>
      </trkpt>
      <trkpt lat="43.77389" lon="3.83147">
        <ele>367.2</ele>
        <time>2026-05-21T13:21:35.999Z</time>
      </trkpt>
      <trkpt lat="43.77389" lon="3.83148">
        <ele>367.6</ele>
        <time>2026-05-21T13:21:36.999Z</time>
      </trkpt>
      <trkpt lat="43.7739" lon="3.8315">
        <ele>367.8</ele>
        <time>2026-05-21T13:21:37.999Z</time>
      </trkpt>
      <trkpt lat="43.7739" lon="3.8315">
        <ele>367.5</ele>
        <time>2026-05-21T13:21:38.999Z</time>
      </trkpt>
      <trkpt lat="43.7739" lon="3.83151">
        <ele>367.5</ele>
        <time>2026-05-21T13:21:39.999Z</time>
      </trkpt>
      <trkpt lat="43.77389" lon="3.83151">
        <ele>367.2</ele>
        <time>2026-05-21T13:21:40.999Z</time>
      </trkpt>
      <trkpt lat="43.77389" lon="3.83152">
        <ele>366.8</ele>
        <time>2026-05-21T13:21:41.999Z</time>
      </trkpt>
      <trkpt lat="43.77389" lon="3.83152">
        <ele>367.1</ele>
        <time>2026-05-21T13:21:42.999Z</time>
      </trkpt>
      <trkpt lat="43.77388" lon="3.83153">
        <ele>367.1</ele>
        <time>2026-05-21T13:21:43.999Z</time>
      </trkpt>
      <trkpt lat="43.77388" lon="3.83154">
        <ele>366.8</ele>
        <time>2026-05-21T13:21:44.999Z</time>
      </trkpt>
      <trkpt lat="43.77388" lon="3.83155">
        <ele>367.2</ele>
        <time>2026-05-21T13:21:45.999Z</time>
      </trkpt>
      <trkpt lat="43.77388" lon="3.83156">
        <ele>367.2</ele>
        <time>2026-05-21T13:21:46.999Z</time>
      </trkpt>
      <trkpt lat="43.77387" lon="3.83157">
        <ele>367</ele>
        <time>2026-05-21T13:21:47.999Z</time>
      </trkpt>
      <trkpt lat="43.77387" lon="3.83158">
        <ele>367.7</ele>
        <time>2026-05-21T13:21:48.999Z</time>
      </trkpt>
      <trkpt lat="43.77387" lon="3.83159">
        <ele>367.6</ele>
        <time>2026-05-21T13:21:49.999Z</time>
      </trkpt>
      <trkpt lat="43.77387" lon="3.8316">
        <ele>367.5</ele>
        <time>2026-05-21T13:21:50.999Z</time>
      </trkpt>
      <trkpt lat="43.77386" lon="3.83161">
        <ele>367.6</ele>
        <time>2026-05-21T13:21:51.999Z</time>
      </trkpt>
      <trkpt lat="43.77385" lon="3.83163">
        <ele>367.7</ele>
        <time>2026-05-21T13:21:52.999Z</time>
      </trkpt>
      <trkpt lat="43.77385" lon="3.83164">
        <ele>368.3</ele>
        <time>2026-05-21T13:21:53.999Z</time>
      </trkpt>
      <trkpt lat="43.77385" lon="3.83164">
        <ele>368.8</ele>
        <time>2026-05-21T13:21:54.999Z</time>
      </trkpt>
      <trkpt lat="43.77384" lon="3.83164">
        <ele>369.2</ele>
        <time>2026-05-21T13:21:55.999Z</time>
      </trkpt>
      <trkpt lat="43.77384" lon="3.83165">
        <ele>369.7</ele>
        <time>2026-05-21T13:21:56.999Z</time>
      </trkpt>
      <trkpt lat="43.77383" lon="3.83166">
        <ele>370.1</ele>
        <time>2026-05-21T13:21:57.999Z</time>
      </trkpt>
      <trkpt lat="43.77383" lon="3.83166">
        <ele>369.9</ele>
        <time>2026-05-21T13:21:58.999Z</time>
      </trkpt>
      <trkpt lat="43.77382" lon="3.83168">
        <ele>370.4</ele>
        <time>2026-05-21T13:21:59.999Z</time>
      </trkpt>
      <trkpt lat="43.77382" lon="3.83169">
        <ele>370.9</ele>
        <time>2026-05-21T13:22:00.999Z</time>
      </trkpt>
      <trkpt lat="43.77381" lon="3.8317">
        <ele>371.1</ele>
        <time>2026-05-21T13:22:01.999Z</time>
      </trkpt>
      <trkpt lat="43.77381" lon="3.83172">
        <ele>371</ele>
        <time>2026-05-21T13:22:02.999Z</time>
      </trkpt>
      <trkpt lat="43.77381" lon="3.83174">
        <ele>370.7</ele>
        <time>2026-05-21T13:22:03.999Z</time>
      </trkpt>
      <trkpt lat="43.77381" lon="3.83176">
        <ele>370.6</ele>
        <time>2026-05-21T13:22:04.999Z</time>
      </trkpt>
      <trkpt lat="43.77381" lon="3.83177">
        <ele>370.4</ele>
        <time>2026-05-21T13:22:05.999Z</time>
      </trkpt>
      <trkpt lat="43.77381" lon="3.83179">
        <ele>370.5</ele>
        <time>2026-05-21T13:22:06.999Z</time>
      </trkpt>
      <trkpt lat="43.77381" lon="3.83181">
        <ele>371.1</ele>
        <time>2026-05-21T13:22:07.999Z</time>
      </trkpt>
      <trkpt lat="43.77382" lon="3.83183">
        <ele>371.4</ele>
        <time>2026-05-21T13:22:08.999Z</time>
      </trkpt>
      <trkpt lat="43.77382" lon="3.83184">
        <ele>371.8</ele>
        <time>2026-05-21T13:22:09.999Z</time>
      </trkpt>
      <trkpt lat="43.77382" lon="3.83185">
        <ele>371.6</ele>
        <time>2026-05-21T13:22:10.999Z</time>
      </trkpt>
      <trkpt lat="43.77381" lon="3.83187">
        <ele>371.1</ele>
        <time>2026-05-21T13:22:11.999Z</time>
      </trkpt>
      <trkpt lat="43.77381" lon="3.83187">
        <ele>371</ele>
        <time>2026-05-21T13:22:12.999Z</time>
      </trkpt>
      <trkpt lat="43.7738" lon="3.83188">
        <ele>370.9</ele>
        <time>2026-05-21T13:22:13.999Z</time>
      </trkpt>
      <trkpt lat="43.7738" lon="3.83188">
        <ele>370.6</ele>
        <time>2026-05-21T13:22:14.999Z</time>
      </trkpt>
      <trkpt lat="43.7738" lon="3.83188">
        <ele>370.5</ele>
        <time>2026-05-21T13:22:15.999Z</time>
      </trkpt>
      <trkpt lat="43.7738" lon="3.83188">
        <ele>370.4</ele>
        <time>2026-05-21T13:22:16.999Z</time>
      </trkpt>
      <trkpt lat="43.7738" lon="3.83189">
        <ele>370.2</ele>
        <time>2026-05-21T13:22:17.999Z</time>
      </trkpt>
      <trkpt lat="43.7738" lon="3.83189">
        <ele>369.9</ele>
        <time>2026-05-21T13:22:18.999Z</time>
      </trkpt>
      <trkpt lat="43.7738" lon="3.83189">
        <ele>369.6</ele>
        <time>2026-05-21T13:22:19.999Z</time>
      </trkpt>
      <trkpt lat="43.7738" lon="3.83189">
        <ele>369.3</ele>
        <time>2026-05-21T13:22:20.999Z</time>
      </trkpt>
      <trkpt lat="43.7738" lon="3.8319">
        <ele>369.1</ele>
        <time>2026-05-21T13:22:21.999Z</time>
      </trkpt>
      <trkpt lat="43.7738" lon="3.8319">
        <ele>369.1</ele>
        <time>2026-05-21T13:22:22.999Z</time>
      </trkpt>
      <trkpt lat="43.7738" lon="3.83192">
        <ele>368.8</ele>
        <time>2026-05-21T13:22:23.999Z</time>
      </trkpt>
      <trkpt lat="43.7738" lon="3.83193">
        <ele>368.7</ele>
        <time>2026-05-21T13:22:24.999Z</time>
      </trkpt>
      <trkpt lat="43.77379" lon="3.83195">
        <ele>368.8</ele>
        <time>2026-05-21T13:22:25.999Z</time>
      </trkpt>
      <trkpt lat="43.77378" lon="3.83196">
        <ele>368.7</ele>
        <time>2026-05-21T13:22:26.999Z</time>
      </trkpt>
      <trkpt lat="43.77378" lon="3.83196">
        <ele>368.4</ele>
        <time>2026-05-21T13:22:27.999Z</time>
      </trkpt>
      <trkpt lat="43.77378" lon="3.83197">
        <ele>368.4</ele>
        <time>2026-05-21T13:22:28.999Z</time>
      </trkpt>
      <trkpt lat="43.77378" lon="3.83197">
        <ele>368.5</ele>
        <time>2026-05-21T13:22:29.999Z</time>
      </trkpt>
      <trkpt lat="43.77379" lon="3.832">
        <ele>368.5</ele>
        <time>2026-05-21T13:22:30.999Z</time>
      </trkpt>
      <trkpt lat="43.77379" lon="3.83203">
        <ele>368.3</ele>
        <time>2026-05-21T13:22:31.999Z</time>
      </trkpt>
      <trkpt lat="43.77379" lon="3.83206">
        <ele>368.1</ele>
        <time>2026-05-21T13:22:32.999Z</time>
      </trkpt>
      <trkpt lat="43.7738" lon="3.83209">
        <ele>368.2</ele>
        <time>2026-05-21T13:22:33.999Z</time>
      </trkpt>
      <trkpt lat="43.7738" lon="3.83211">
        <ele>368.6</ele>
        <time>2026-05-21T13:22:34.999Z</time>
      </trkpt>
      <trkpt lat="43.7738" lon="3.83212">
        <ele>368.9</ele>
        <time>2026-05-21T13:22:35.999Z</time>
      </trkpt>
      <trkpt lat="43.77379" lon="3.83213">
        <ele>368.8</ele>
        <time>2026-05-21T13:22:36.999Z</time>
      </trkpt>
      <trkpt lat="43.77379" lon="3.83213">
        <ele>369.2</ele>
        <time>2026-05-21T13:22:37.999Z</time>
      </trkpt>
      <trkpt lat="43.77379" lon="3.83214">
        <ele>369.1</ele>
        <time>2026-05-21T13:22:38.999Z</time>
      </trkpt>
      <trkpt lat="43.77379" lon="3.83214">
        <ele>369.1</ele>
        <time>2026-05-21T13:22:39.999Z</time>
      </trkpt>
      <trkpt lat="43.77379" lon="3.83214">
        <ele>369.3</ele>
        <time>2026-05-21T13:22:40.999Z</time>
      </trkpt>
      <trkpt lat="43.77379" lon="3.83215">
        <ele>369.6</ele>
        <time>2026-05-21T13:22:41.999Z</time>
      </trkpt>
      <trkpt lat="43.7738" lon="3.83217">
        <ele>369.7</ele>
        <time>2026-05-21T13:22:42.999Z</time>
      </trkpt>
      <trkpt lat="43.77379" lon="3.83219">
        <ele>369.7</ele>
        <time>2026-05-21T13:22:43.999Z</time>
      </trkpt>
      <trkpt lat="43.77379" lon="3.8322">
        <ele>369.9</ele>
        <time>2026-05-21T13:22:44.999Z</time>
      </trkpt>
      <trkpt lat="43.77379" lon="3.8322">
        <ele>370</ele>
        <time>2026-05-21T13:22:45.999Z</time>
      </trkpt>
      <trkpt lat="43.77379" lon="3.83221">
        <ele>370.2</ele>
        <time>2026-05-21T13:22:46.999Z</time>
      </trkpt>
      <trkpt lat="43.77378" lon="3.83222">
        <ele>370.3</ele>
        <time>2026-05-21T13:22:47.999Z</time>
      </trkpt>
      <trkpt lat="43.77378" lon="3.83223">
        <ele>370.6</ele>
        <time>2026-05-21T13:22:48.999Z</time>
      </trkpt>
      <trkpt lat="43.77378" lon="3.83224">
        <ele>370.9</ele>
        <time>2026-05-21T13:22:49.999Z</time>
      </trkpt>
      <trkpt lat="43.77378" lon="3.83224">
        <ele>371</ele>
        <time>2026-05-21T13:22:50.999Z</time>
      </trkpt>
      <trkpt lat="43.77377" lon="3.83225">
        <ele>370.8</ele>
        <time>2026-05-21T13:22:51.999Z</time>
      </trkpt>
      <trkpt lat="43.77377" lon="3.83226">
        <ele>370.6</ele>
        <time>2026-05-21T13:22:52.999Z</time>
      </trkpt>
      <trkpt lat="43.77377" lon="3.83227">
        <ele>370.7</ele>
        <time>2026-05-21T13:22:53.999Z</time>
      </trkpt>
      <trkpt lat="43.77377" lon="3.83227">
        <ele>370.7</ele>
        <time>2026-05-21T13:22:54.999Z</time>
      </trkpt>
      <trkpt lat="43.77377" lon="3.83227">
        <ele>370.7</ele>
        <time>2026-05-21T13:22:55.999Z</time>
      </trkpt>
      <trkpt lat="43.77377" lon="3.83228">
        <ele>370.6</ele>
        <time>2026-05-21T13:22:56.999Z</time>
      </trkpt>
      <trkpt lat="43.77377" lon="3.83228">
        <ele>370.6</ele>
        <time>2026-05-21T13:22:57.999Z</time>
      </trkpt>
      <trkpt lat="43.77377" lon="3.83228">
        <ele>370.5</ele>
        <time>2026-05-21T13:22:58.999Z</time>
      </trkpt>
      <trkpt lat="43.77376" lon="3.83229">
        <ele>370.5</ele>
        <time>2026-05-21T13:22:59.999Z</time>
      </trkpt>
      <trkpt lat="43.77376" lon="3.8323">
        <ele>370.5</ele>
        <time>2026-05-21T13:23:00.999Z</time>
      </trkpt>
      <trkpt lat="43.77377" lon="3.8323">
        <ele>370.3</ele>
        <time>2026-05-21T13:23:01.999Z</time>
      </trkpt>
      <trkpt lat="43.77376" lon="3.8323">
        <ele>370.1</ele>
        <time>2026-05-21T13:23:02.999Z</time>
      </trkpt>
      <trkpt lat="43.77376" lon="3.83231">
        <ele>369.9</ele>
        <time>2026-05-21T13:23:03.999Z</time>
      </trkpt>
      <trkpt lat="43.77377" lon="3.83231">
        <ele>370</ele>
        <time>2026-05-21T13:23:04.999Z</time>
      </trkpt>
      <trkpt lat="43.77377" lon="3.83232">
        <ele>369.6</ele>
        <time>2026-05-21T13:23:05.999Z</time>
      </trkpt>
      <trkpt lat="43.77377" lon="3.83233">
        <ele>369.3</ele>
        <time>2026-05-21T13:23:06.999Z</time>
      </trkpt>
      <trkpt lat="43.77377" lon="3.83233">
        <ele>368.6</ele>
        <time>2026-05-21T13:23:07.999Z</time>
      </trkpt>
      <trkpt lat="43.77378" lon="3.83236">
        <ele>368</ele>
        <time>2026-05-21T13:23:08.999Z</time>
      </trkpt>
      <trkpt lat="43.7738" lon="3.8324">
        <ele>367.5</ele>
        <time>2026-05-21T13:23:09.999Z</time>
      </trkpt>
      <trkpt lat="43.7738" lon="3.83245">
        <ele>367</ele>
        <time>2026-05-21T13:23:10.999Z</time>
      </trkpt>
      <trkpt lat="43.7738" lon="3.83248">
        <ele>367.1</ele>
        <time>2026-05-21T13:23:11.999Z</time>
      </trkpt>
      <trkpt lat="43.7738" lon="3.83252">
        <ele>367.1</ele>
        <time>2026-05-21T13:23:12.999Z</time>
      </trkpt>
      <trkpt lat="43.77379" lon="3.83255">
        <ele>367.1</ele>
        <time>2026-05-21T13:23:13.999Z</time>
      </trkpt>
      <trkpt lat="43.77378" lon="3.83257">
        <ele>366.9</ele>
        <time>2026-05-21T13:23:14.999Z</time>
      </trkpt>
      <trkpt lat="43.77378" lon="3.8326">
        <ele>366.9</ele>
        <time>2026-05-21T13:23:15.999Z</time>
      </trkpt>
      <trkpt lat="43.77378" lon="3.83261">
        <ele>366.7</ele>
        <time>2026-05-21T13:23:16.999Z</time>
      </trkpt>
      <trkpt lat="43.77378" lon="3.83262">
        <ele>366.4</ele>
        <time>2026-05-21T13:23:17.999Z</time>
      </trkpt>
      <trkpt lat="43.77378" lon="3.83263">
        <ele>366.4</ele>
        <time>2026-05-21T13:23:18.999Z</time>
      </trkpt>
      <trkpt lat="43.77378" lon="3.83264">
        <ele>366.1</ele>
        <time>2026-05-21T13:23:19.999Z</time>
      </trkpt>
      <trkpt lat="43.77378" lon="3.83266">
        <ele>366.1</ele>
        <time>2026-05-21T13:23:20.999Z</time>
      </trkpt>
      <trkpt lat="43.77377" lon="3.83267">
        <ele>366.6</ele>
        <time>2026-05-21T13:23:21.999Z</time>
      </trkpt>
      <trkpt lat="43.77377" lon="3.83268">
        <ele>366.7</ele>
        <time>2026-05-21T13:23:22.999Z</time>
      </trkpt>
      <trkpt lat="43.77377" lon="3.8327">
        <ele>366.8</ele>
        <time>2026-05-21T13:23:23.999Z</time>
      </trkpt>
      <trkpt lat="43.77377" lon="3.83272">
        <ele>366.8</ele>
        <time>2026-05-21T13:23:24.999Z</time>
      </trkpt>
      <trkpt lat="43.77376" lon="3.83273">
        <ele>366.8</ele>
        <time>2026-05-21T13:23:25.999Z</time>
      </trkpt>
      <trkpt lat="43.77376" lon="3.83275">
        <ele>367</ele>
        <time>2026-05-21T13:23:26.999Z</time>
      </trkpt>
      <trkpt lat="43.77376" lon="3.83276">
        <ele>367</ele>
        <time>2026-05-21T13:23:27.999Z</time>
      </trkpt>
      <trkpt lat="43.77376" lon="3.83277">
        <ele>367.4</ele>
        <time>2026-05-21T13:23:28.999Z</time>
      </trkpt>
      <trkpt lat="43.77375" lon="3.83278">
        <ele>367.7</ele>
        <time>2026-05-21T13:23:29.999Z</time>
      </trkpt>
      <trkpt lat="43.77375" lon="3.83279">
        <ele>368.4</ele>
        <time>2026-05-21T13:23:30.999Z</time>
      </trkpt>
      <trkpt lat="43.77376" lon="3.8328">
        <ele>368.7</ele>
        <time>2026-05-21T13:23:31.999Z</time>
      </trkpt>
      <trkpt lat="43.77376" lon="3.83281">
        <ele>369</ele>
        <time>2026-05-21T13:23:32.999Z</time>
      </trkpt>
      <trkpt lat="43.77375" lon="3.83281">
        <ele>369.2</ele>
        <time>2026-05-21T13:23:33.999Z</time>
      </trkpt>
      <trkpt lat="43.77376" lon="3.83281">
        <ele>368.8</ele>
        <time>2026-05-21T13:23:34.999Z</time>
      </trkpt>
      <trkpt lat="43.77376" lon="3.83282">
        <ele>368.8</ele>
        <time>2026-05-21T13:23:35.999Z</time>
      </trkpt>
      <trkpt lat="43.77375" lon="3.83282">
        <ele>368.6</ele>
        <time>2026-05-21T13:23:36.999Z</time>
      </trkpt>
      <trkpt lat="43.77376" lon="3.83282">
        <ele>368.3</ele>
        <time>2026-05-21T13:23:37.999Z</time>
      </trkpt>
      <trkpt lat="43.77376" lon="3.83283">
        <ele>367.9</ele>
        <time>2026-05-21T13:23:38.999Z</time>
      </trkpt>
      <trkpt lat="43.77376" lon="3.83284">
        <ele>367.6</ele>
        <time>2026-05-21T13:23:39.999Z</time>
      </trkpt>
      <trkpt lat="43.77377" lon="3.83285">
        <ele>367.5</ele>
        <time>2026-05-21T13:23:40.999Z</time>
      </trkpt>
      <trkpt lat="43.77377" lon="3.83286">
        <ele>367.5</ele>
        <time>2026-05-21T13:23:41.999Z</time>
      </trkpt>
      <trkpt lat="43.77377" lon="3.83288">
        <ele>367.6</ele>
        <time>2026-05-21T13:23:42.999Z</time>
      </trkpt>
      <trkpt lat="43.77378" lon="3.83289">
        <ele>367.4</ele>
        <time>2026-05-21T13:23:43.999Z</time>
      </trkpt>
      <trkpt lat="43.77378" lon="3.83289">
        <ele>367.3</ele>
        <time>2026-05-21T13:23:44.999Z</time>
      </trkpt>
      <trkpt lat="43.77377" lon="3.8329">
        <ele>367.2</ele>
        <time>2026-05-21T13:23:45.999Z</time>
      </trkpt>
      <trkpt lat="43.77377" lon="3.83291">
        <ele>366.8</ele>
        <time>2026-05-21T13:23:46.999Z</time>
      </trkpt>
      <trkpt lat="43.77377" lon="3.83292">
        <ele>366.6</ele>
        <time>2026-05-21T13:23:47.999Z</time>
      </trkpt>
      <trkpt lat="43.77378" lon="3.83294">
        <ele>366.6</ele>
        <time>2026-05-21T13:23:48.999Z</time>
      </trkpt>
      <trkpt lat="43.77378" lon="3.83296">
        <ele>366.4</ele>
        <time>2026-05-21T13:23:49.999Z</time>
      </trkpt>
      <trkpt lat="43.77378" lon="3.83297">
        <ele>366.5</ele>
        <time>2026-05-21T13:23:50.999Z</time>
      </trkpt>
      <trkpt lat="43.77378" lon="3.83299">
        <ele>366.2</ele>
        <time>2026-05-21T13:23:51.999Z</time>
      </trkpt>
      <trkpt lat="43.77379" lon="3.833">
        <ele>366</ele>
        <time>2026-05-21T13:23:52.999Z</time>
      </trkpt>
      <trkpt lat="43.77378" lon="3.83301">
        <ele>366</ele>
        <time>2026-05-21T13:23:53.999Z</time>
      </trkpt>
      <trkpt lat="43.77378" lon="3.83303">
        <ele>366</ele>
        <time>2026-05-21T13:23:54.999Z</time>
      </trkpt>
      <trkpt lat="43.77378" lon="3.83304">
        <ele>366.4</ele>
        <time>2026-05-21T13:23:55.999Z</time>
      </trkpt>
      <trkpt lat="43.77378" lon="3.83306">
        <ele>366.6</ele>
        <time>2026-05-21T13:23:56.999Z</time>
      </trkpt>
      <trkpt lat="43.77378" lon="3.83307">
        <ele>366.6</ele>
        <time>2026-05-21T13:23:57.999Z</time>
      </trkpt>
      <trkpt lat="43.77377" lon="3.83307">
        <ele>366.8</ele>
        <time>2026-05-21T13:23:58.999Z</time>
      </trkpt>
      <trkpt lat="43.77377" lon="3.83308">
        <ele>367.2</ele>
        <time>2026-05-21T13:23:59.999Z</time>
      </trkpt>
      <trkpt lat="43.77378" lon="3.83308">
        <ele>367.3</ele>
        <time>2026-05-21T13:24:00.999Z</time>
      </trkpt>
      <trkpt lat="43.77377" lon="3.83308">
        <ele>367.3</ele>
        <time>2026-05-21T13:24:01.999Z</time>
      </trkpt>
      <trkpt lat="43.77377" lon="3.83309">
        <ele>367</ele>
        <time>2026-05-21T13:24:02.999Z</time>
      </trkpt>
      <trkpt lat="43.77377" lon="3.83309">
        <ele>367.1</ele>
        <time>2026-05-21T13:24:03.999Z</time>
      </trkpt>
      <trkpt lat="43.77377" lon="3.83309">
        <ele>366.9</ele>
        <time>2026-05-21T13:24:04.999Z</time>
      </trkpt>
      <trkpt lat="43.77377" lon="3.8331">
        <ele>366.6</ele>
        <time>2026-05-21T13:24:05.999Z</time>
      </trkpt>
      <trkpt lat="43.77377" lon="3.83312">
        <ele>366.5</ele>
        <time>2026-05-21T13:24:06.999Z</time>
      </trkpt>
      <trkpt lat="43.77378" lon="3.83315">
        <ele>366.2</ele>
        <time>2026-05-21T13:24:07.999Z</time>
      </trkpt>
      <trkpt lat="43.77378" lon="3.83317">
        <ele>366</ele>
        <time>2026-05-21T13:24:08.999Z</time>
      </trkpt>
      <trkpt lat="43.77378" lon="3.83319">
        <ele>365.8</ele>
        <time>2026-05-21T13:24:09.999Z</time>
      </trkpt>
      <trkpt lat="43.77378" lon="3.83321">
        <ele>365.6</ele>
        <time>2026-05-21T13:24:10.999Z</time>
      </trkpt>
      <trkpt lat="43.77377" lon="3.83323">
        <ele>365.6</ele>
        <time>2026-05-21T13:24:11.999Z</time>
      </trkpt>
      <trkpt lat="43.77377" lon="3.83325">
        <ele>365.8</ele>
        <time>2026-05-21T13:24:12.999Z</time>
      </trkpt>
      <trkpt lat="43.77378" lon="3.83327">
        <ele>365.7</ele>
        <time>2026-05-21T13:24:13.999Z</time>
      </trkpt>
      <trkpt lat="43.77378" lon="3.83327">
        <ele>366</ele>
        <time>2026-05-21T13:24:14.999Z</time>
      </trkpt>
      <trkpt lat="43.77378" lon="3.83328">
        <ele>366.3</ele>
        <time>2026-05-21T13:24:15.999Z</time>
      </trkpt>
      <trkpt lat="43.77378" lon="3.83329">
        <ele>366.4</ele>
        <time>2026-05-21T13:24:16.999Z</time>
      </trkpt>
      <trkpt lat="43.77377" lon="3.83332">
        <ele>366.4</ele>
        <time>2026-05-21T13:24:17.999Z</time>
      </trkpt>
      <trkpt lat="43.77377" lon="3.83334">
        <ele>366.5</ele>
        <time>2026-05-21T13:24:18.999Z</time>
      </trkpt>
      <trkpt lat="43.77377" lon="3.83334">
        <ele>366.5</ele>
        <time>2026-05-21T13:24:19.999Z</time>
      </trkpt>
      <trkpt lat="43.77377" lon="3.83335">
        <ele>366.5</ele>
        <time>2026-05-21T13:24:20.999Z</time>
      </trkpt>
      <trkpt lat="43.77377" lon="3.83335">
        <ele>366.5</ele>
        <time>2026-05-21T13:24:21.999Z</time>
      </trkpt>
      <trkpt lat="43.77377" lon="3.83335">
        <ele>366.5</ele>
        <time>2026-05-21T13:24:22.999Z</time>
      </trkpt>
      <trkpt lat="43.77376" lon="3.83336">
        <ele>366.5</ele>
        <time>2026-05-21T13:24:23.999Z</time>
      </trkpt>
      <trkpt lat="43.77376" lon="3.83336">
        <ele>366.7</ele>
        <time>2026-05-21T13:24:24.999Z</time>
      </trkpt>
      <trkpt lat="43.77376" lon="3.83336">
        <ele>366.9</ele>
        <time>2026-05-21T13:24:25.999Z</time>
      </trkpt>
      <trkpt lat="43.77376" lon="3.83337">
        <ele>366.8</ele>
        <time>2026-05-21T13:24:26.999Z</time>
      </trkpt>
      <trkpt lat="43.77376" lon="3.83337">
        <ele>366.9</ele>
        <time>2026-05-21T13:24:27.999Z</time>
      </trkpt>
      <trkpt lat="43.77376" lon="3.83337">
        <ele>367.2</ele>
        <time>2026-05-21T13:24:28.999Z</time>
      </trkpt>
      <trkpt lat="43.77376" lon="3.83338">
        <ele>367.4</ele>
        <time>2026-05-21T13:24:29.999Z</time>
      </trkpt>
      <trkpt lat="43.77376" lon="3.83338">
        <ele>367.6</ele>
        <time>2026-05-21T13:24:30.999Z</time>
      </trkpt>
      <trkpt lat="43.77376" lon="3.83338">
        <ele>367.5</ele>
        <time>2026-05-21T13:24:31.999Z</time>
      </trkpt>
      <trkpt lat="43.77376" lon="3.83338">
        <ele>367.6</ele>
        <time>2026-05-21T13:24:32.999Z</time>
      </trkpt>
      <trkpt lat="43.77376" lon="3.83339">
        <ele>367.6</ele>
        <time>2026-05-21T13:24:33.999Z</time>
      </trkpt>
      <trkpt lat="43.77376" lon="3.83339">
        <ele>367.5</ele>
        <time>2026-05-21T13:24:34.999Z</time>
      </trkpt>
      <trkpt lat="43.77376" lon="3.8334">
        <ele>367.5</ele>
        <time>2026-05-21T13:24:35.999Z</time>
      </trkpt>
      <trkpt lat="43.77376" lon="3.83341">
        <ele>367.5</ele>
        <time>2026-05-21T13:24:36.999Z</time>
      </trkpt>
      <trkpt lat="43.77375" lon="3.83341">
        <ele>367.4</ele>
        <time>2026-05-21T13:24:37.999Z</time>
      </trkpt>
      <trkpt lat="43.77375" lon="3.83342">
        <ele>367.7</ele>
        <time>2026-05-21T13:24:38.999Z</time>
      </trkpt>
      <trkpt lat="43.77375" lon="3.83343">
        <ele>367.9</ele>
        <time>2026-05-21T13:24:39.999Z</time>
      </trkpt>
      <trkpt lat="43.77375" lon="3.83343">
        <ele>367.4</ele>
        <time>2026-05-21T13:24:40.999Z</time>
      </trkpt>
      <trkpt lat="43.77375" lon="3.83344">
        <ele>367.5</ele>
        <time>2026-05-21T13:24:41.999Z</time>
      </trkpt>
      <trkpt lat="43.77375" lon="3.83344">
        <ele>367.6</ele>
        <time>2026-05-21T13:24:42.999Z</time>
      </trkpt>
      <trkpt lat="43.77375" lon="3.83345">
        <ele>367.6</ele>
        <time>2026-05-21T13:24:43.999Z</time>
      </trkpt>
      <trkpt lat="43.77375" lon="3.83345">
        <ele>367.5</ele>
        <time>2026-05-21T13:24:44.999Z</time>
      </trkpt>
      <trkpt lat="43.77374" lon="3.83347">
        <ele>367.7</ele>
        <time>2026-05-21T13:24:45.999Z</time>
      </trkpt>
      <trkpt lat="43.77374" lon="3.83347">
        <ele>367.7</ele>
        <time>2026-05-21T13:24:46.999Z</time>
      </trkpt>
      <trkpt lat="43.77374" lon="3.83347">
        <ele>367.7</ele>
        <time>2026-05-21T13:24:47.999Z</time>
      </trkpt>
      <trkpt lat="43.77374" lon="3.83348">
        <ele>367.5</ele>
        <time>2026-05-21T13:24:48.999Z</time>
      </trkpt>
      <trkpt lat="43.77374" lon="3.83349">
        <ele>367.4</ele>
        <time>2026-05-21T13:24:49.999Z</time>
      </trkpt>
      <trkpt lat="43.77374" lon="3.83349">
        <ele>367.4</ele>
        <time>2026-05-21T13:24:50.999Z</time>
      </trkpt>
      <trkpt lat="43.77374" lon="3.8335">
        <ele>367.3</ele>
        <time>2026-05-21T13:24:51.999Z</time>
      </trkpt>
      <trkpt lat="43.77374" lon="3.83351">
        <ele>367.3</ele>
        <time>2026-05-21T13:24:52.999Z</time>
      </trkpt>
      <trkpt lat="43.77374" lon="3.83352">
        <ele>367.1</ele>
        <time>2026-05-21T13:24:53.999Z</time>
      </trkpt>
      <trkpt lat="43.77374" lon="3.83353">
        <ele>366.7</ele>
        <time>2026-05-21T13:24:54.999Z</time>
      </trkpt>
      <trkpt lat="43.77373" lon="3.83354">
        <ele>366.3</ele>
        <time>2026-05-21T13:24:55.999Z</time>
      </trkpt>
      <trkpt lat="43.77373" lon="3.83355">
        <ele>366</ele>
        <time>2026-05-21T13:24:56.999Z</time>
      </trkpt>
      <trkpt lat="43.77373" lon="3.83356">
        <ele>365.9</ele>
        <time>2026-05-21T13:24:57.999Z</time>
      </trkpt>
      <trkpt lat="43.77372" lon="3.83357">
        <ele>365.6</ele>
        <time>2026-05-21T13:24:58.999Z</time>
      </trkpt>
      <trkpt lat="43.77372" lon="3.83358">
        <ele>365.6</ele>
        <time>2026-05-21T13:24:59.999Z</time>
      </trkpt>
      <trkpt lat="43.77372" lon="3.83359">
        <ele>365.5</ele>
        <time>2026-05-21T13:25:00.999Z</time>
      </trkpt>
      <trkpt lat="43.77372" lon="3.8336">
        <ele>365.5</ele>
        <time>2026-05-21T13:25:01.999Z</time>
      </trkpt>
      <trkpt lat="43.77371" lon="3.83362">
        <ele>365.4</ele>
        <time>2026-05-21T13:25:02.999Z</time>
      </trkpt>
      <trkpt lat="43.77369" lon="3.83367">
        <ele>365.4</ele>
        <time>2026-05-21T13:25:03.999Z</time>
      </trkpt>
      <trkpt lat="43.77368" lon="3.83372">
        <ele>365.6</ele>
        <time>2026-05-21T13:25:04.999Z</time>
      </trkpt>
      <trkpt lat="43.77367" lon="3.83376">
        <ele>365.8</ele>
        <time>2026-05-21T13:25:05.999Z</time>
      </trkpt>
      <trkpt lat="43.77365" lon="3.83381">
        <ele>365.9</ele>
        <time>2026-05-21T13:25:06.999Z</time>
      </trkpt>
      <trkpt lat="43.77365" lon="3.83384">
        <ele>366</ele>
        <time>2026-05-21T13:25:07.999Z</time>
      </trkpt>
      <trkpt lat="43.77365" lon="3.83388">
        <ele>366.1</ele>
        <time>2026-05-21T13:25:08.999Z</time>
      </trkpt>
      <trkpt lat="43.77365" lon="3.8339">
        <ele>366</ele>
        <time>2026-05-21T13:25:09.999Z</time>
      </trkpt>
      <trkpt lat="43.77365" lon="3.83391">
        <ele>366</ele>
        <time>2026-05-21T13:25:10.999Z</time>
      </trkpt>
      <trkpt lat="43.77364" lon="3.83392">
        <ele>366</ele>
        <time>2026-05-21T13:25:11.999Z</time>
      </trkpt>
      <trkpt lat="43.77364" lon="3.83394">
        <ele>365.9</ele>
        <time>2026-05-21T13:25:12.999Z</time>
      </trkpt>
      <trkpt lat="43.77364" lon="3.83396">
        <ele>365.8</ele>
        <time>2026-05-21T13:25:13.999Z</time>
      </trkpt>
      <trkpt lat="43.77364" lon="3.83396">
        <ele>365.9</ele>
        <time>2026-05-21T13:25:14.999Z</time>
      </trkpt>
      <trkpt lat="43.77364" lon="3.83396">
        <ele>365.7</ele>
        <time>2026-05-21T13:25:15.999Z</time>
      </trkpt>
      <trkpt lat="43.77363" lon="3.83399">
        <ele>365.6</ele>
        <time>2026-05-21T13:25:16.999Z</time>
      </trkpt>
      <trkpt lat="43.77363" lon="3.83402">
        <ele>365.3</ele>
        <time>2026-05-21T13:25:17.999Z</time>
      </trkpt>
      <trkpt lat="43.77363" lon="3.83404">
        <ele>365.2</ele>
        <time>2026-05-21T13:25:18.999Z</time>
      </trkpt>
      <trkpt lat="43.77363" lon="3.83405">
        <ele>365.4</ele>
        <time>2026-05-21T13:25:19.999Z</time>
      </trkpt>
      <trkpt lat="43.77363" lon="3.83406">
        <ele>365.7</ele>
        <time>2026-05-21T13:25:20.999Z</time>
      </trkpt>
      <trkpt lat="43.77364" lon="3.83408">
        <ele>366</ele>
        <time>2026-05-21T13:25:21.999Z</time>
      </trkpt>
      <trkpt lat="43.77364" lon="3.8341">
        <ele>366.2</ele>
        <time>2026-05-21T13:25:22.999Z</time>
      </trkpt>
      <trkpt lat="43.77364" lon="3.83412">
        <ele>366</ele>
        <time>2026-05-21T13:25:23.999Z</time>
      </trkpt>
      <trkpt lat="43.77364" lon="3.83413">
        <ele>365.7</ele>
        <time>2026-05-21T13:25:24.999Z</time>
      </trkpt>
      <trkpt lat="43.77364" lon="3.83413">
        <ele>365.6</ele>
        <time>2026-05-21T13:25:25.999Z</time>
      </trkpt>
      <trkpt lat="43.77364" lon="3.83414">
        <ele>365.2</ele>
        <time>2026-05-21T13:25:26.999Z</time>
      </trkpt>
      <trkpt lat="43.77364" lon="3.83415">
        <ele>365</ele>
        <time>2026-05-21T13:25:27.999Z</time>
      </trkpt>
      <trkpt lat="43.77364" lon="3.83416">
        <ele>365</ele>
        <time>2026-05-21T13:25:28.999Z</time>
      </trkpt>
      <trkpt lat="43.77363" lon="3.83417">
        <ele>364.9</ele>
        <time>2026-05-21T13:25:29.999Z</time>
      </trkpt>
      <trkpt lat="43.77363" lon="3.83417">
        <ele>364.9</ele>
        <time>2026-05-21T13:25:30.999Z</time>
      </trkpt>
      <trkpt lat="43.77363" lon="3.83418">
        <ele>364.6</ele>
        <time>2026-05-21T13:25:31.999Z</time>
      </trkpt>
      <trkpt lat="43.77363" lon="3.83419">
        <ele>364.7</ele>
        <time>2026-05-21T13:25:32.999Z</time>
      </trkpt>
      <trkpt lat="43.77363" lon="3.8342">
        <ele>365</ele>
        <time>2026-05-21T13:25:33.999Z</time>
      </trkpt>
      <trkpt lat="43.77362" lon="3.83421">
        <ele>365</ele>
        <time>2026-05-21T13:25:34.999Z</time>
      </trkpt>
      <trkpt lat="43.77362" lon="3.83424">
        <ele>364.7</ele>
        <time>2026-05-21T13:25:35.999Z</time>
      </trkpt>
      <trkpt lat="43.77362" lon="3.83426">
        <ele>364.2</ele>
        <time>2026-05-21T13:25:36.999Z</time>
      </trkpt>
      <trkpt lat="43.77362" lon="3.83428">
        <ele>363.9</ele>
        <time>2026-05-21T13:25:37.999Z</time>
      </trkpt>
      <trkpt lat="43.77362" lon="3.8343">
        <ele>363.7</ele>
        <time>2026-05-21T13:25:38.999Z</time>
      </trkpt>
      <trkpt lat="43.77362" lon="3.83431">
        <ele>364</ele>
        <time>2026-05-21T13:25:39.999Z</time>
      </trkpt>
      <trkpt lat="43.77362" lon="3.83432">
        <ele>363.8</ele>
        <time>2026-05-21T13:25:40.999Z</time>
      </trkpt>
      <trkpt lat="43.77362" lon="3.83434">
        <ele>364.2</ele>
        <time>2026-05-21T13:25:41.999Z</time>
      </trkpt>
      <trkpt lat="43.77362" lon="3.83435">
        <ele>364.3</ele>
        <time>2026-05-21T13:25:42.999Z</time>
      </trkpt>
      <trkpt lat="43.77362" lon="3.83437">
        <ele>364.3</ele>
        <time>2026-05-21T13:25:43.999Z</time>
      </trkpt>
      <trkpt lat="43.77362" lon="3.83438">
        <ele>364.6</ele>
        <time>2026-05-21T13:25:44.999Z</time>
      </trkpt>
      <trkpt lat="43.77362" lon="3.8344">
        <ele>364.9</ele>
        <time>2026-05-21T13:25:45.999Z</time>
      </trkpt>
      <trkpt lat="43.77362" lon="3.83442">
        <ele>365.3</ele>
        <time>2026-05-21T13:25:46.999Z</time>
      </trkpt>
      <trkpt lat="43.77362" lon="3.83444">
        <ele>365.5</ele>
        <time>2026-05-21T13:25:47.999Z</time>
      </trkpt>
      <trkpt lat="43.77363" lon="3.83445">
        <ele>366.4</ele>
        <time>2026-05-21T13:25:48.999Z</time>
      </trkpt>
      <trkpt lat="43.77363" lon="3.83446">
        <ele>367</ele>
        <time>2026-05-21T13:25:49.999Z</time>
      </trkpt>
      <trkpt lat="43.77363" lon="3.83447">
        <ele>367</ele>
        <time>2026-05-21T13:25:50.999Z</time>
      </trkpt>
      <trkpt lat="43.77364" lon="3.83448">
        <ele>367.3</ele>
        <time>2026-05-21T13:25:51.999Z</time>
      </trkpt>
      <trkpt lat="43.77364" lon="3.8345">
        <ele>367.6</ele>
        <time>2026-05-21T13:25:52.999Z</time>
      </trkpt>
      <trkpt lat="43.77364" lon="3.83451">
        <ele>367.4</ele>
        <time>2026-05-21T13:25:53.999Z</time>
      </trkpt>
      <trkpt lat="43.77364" lon="3.83452">
        <ele>367.4</ele>
        <time>2026-05-21T13:25:54.999Z</time>
      </trkpt>
      <trkpt lat="43.77365" lon="3.83453">
        <ele>367.3</ele>
        <time>2026-05-21T13:25:55.999Z</time>
      </trkpt>
      <trkpt lat="43.77364" lon="3.83455">
        <ele>367.5</ele>
        <time>2026-05-21T13:25:56.999Z</time>
      </trkpt>
      <trkpt lat="43.77364" lon="3.83456">
        <ele>367.6</ele>
        <time>2026-05-21T13:25:57.999Z</time>
      </trkpt>
      <trkpt lat="43.77364" lon="3.83458">
        <ele>367.6</ele>
        <time>2026-05-21T13:25:58.999Z</time>
      </trkpt>
      <trkpt lat="43.77363" lon="3.8346">
        <ele>367.5</ele>
        <time>2026-05-21T13:25:59.999Z</time>
      </trkpt>
      <trkpt lat="43.77363" lon="3.83461">
        <ele>367.6</ele>
        <time>2026-05-21T13:26:00.999Z</time>
      </trkpt>
      <trkpt lat="43.77363" lon="3.83462">
        <ele>367.7</ele>
        <time>2026-05-21T13:26:01.999Z</time>
      </trkpt>
      <trkpt lat="43.77362" lon="3.83463">
        <ele>367.7</ele>
        <time>2026-05-21T13:26:02.999Z</time>
      </trkpt>
      <trkpt lat="43.77362" lon="3.83464">
        <ele>367.7</ele>
        <time>2026-05-21T13:26:03.999Z</time>
      </trkpt>
      <trkpt lat="43.77361" lon="3.83465">
        <ele>368.1</ele>
        <time>2026-05-21T13:26:04.999Z</time>
      </trkpt>
      <trkpt lat="43.77361" lon="3.83467">
        <ele>368.2</ele>
        <time>2026-05-21T13:26:05.999Z</time>
      </trkpt>
      <trkpt lat="43.77361" lon="3.83468">
        <ele>368.3</ele>
        <time>2026-05-21T13:26:06.999Z</time>
      </trkpt>
      <trkpt lat="43.77361" lon="3.83469">
        <ele>368.4</ele>
        <time>2026-05-21T13:26:07.999Z</time>
      </trkpt>
      <trkpt lat="43.77361" lon="3.8347">
        <ele>368.7</ele>
        <time>2026-05-21T13:26:08.999Z</time>
      </trkpt>
      <trkpt lat="43.7736" lon="3.83471">
        <ele>368.8</ele>
        <time>2026-05-21T13:26:09.999Z</time>
      </trkpt>
      <trkpt lat="43.7736" lon="3.83473">
        <ele>368.9</ele>
        <time>2026-05-21T13:26:10.999Z</time>
      </trkpt>
      <trkpt lat="43.7736" lon="3.83472">
        <ele>368.9</ele>
        <time>2026-05-21T13:26:11.999Z</time>
      </trkpt>
      <trkpt lat="43.7736" lon="3.83473">
        <ele>368.9</ele>
        <time>2026-05-21T13:26:12.999Z</time>
      </trkpt>
      <trkpt lat="43.7736" lon="3.83474">
        <ele>369.3</ele>
        <time>2026-05-21T13:26:13.999Z</time>
      </trkpt>
      <trkpt lat="43.7736" lon="3.83475">
        <ele>369.3</ele>
        <time>2026-05-21T13:26:14.999Z</time>
      </trkpt>
      <trkpt lat="43.7736" lon="3.83476">
        <ele>369.1</ele>
        <time>2026-05-21T13:26:15.999Z</time>
      </trkpt>
      <trkpt lat="43.77359" lon="3.83477">
        <ele>369.3</ele>
        <time>2026-05-21T13:26:16.999Z</time>
      </trkpt>
      <trkpt lat="43.77359" lon="3.83478">
        <ele>369.4</ele>
        <time>2026-05-21T13:26:17.999Z</time>
      </trkpt>
      <trkpt lat="43.77357" lon="3.83481">
        <ele>369.3</ele>
        <time>2026-05-21T13:26:19.999Z</time>
      </trkpt>
      <trkpt lat="43.77357" lon="3.83483">
        <ele>368.9</ele>
        <time>2026-05-21T13:26:20.999Z</time>
      </trkpt>
      <trkpt lat="43.77357" lon="3.83485">
        <ele>368.7</ele>
        <time>2026-05-21T13:26:21.999Z</time>
      </trkpt>
      <trkpt lat="43.77357" lon="3.83487">
        <ele>367.9</ele>
        <time>2026-05-21T13:26:22.999Z</time>
      </trkpt>
      <trkpt lat="43.77356" lon="3.83488">
        <ele>367.5</ele>
        <time>2026-05-21T13:26:23.999Z</time>
      </trkpt>
      <trkpt lat="43.77356" lon="3.83489">
        <ele>367.4</ele>
        <time>2026-05-21T13:26:24.999Z</time>
      </trkpt>
      <trkpt lat="43.77356" lon="3.8349">
        <ele>367.1</ele>
        <time>2026-05-21T13:26:25.999Z</time>
      </trkpt>
      <trkpt lat="43.77356" lon="3.83491">
        <ele>366.5</ele>
        <time>2026-05-21T13:26:26.999Z</time>
      </trkpt>
      <trkpt lat="43.77356" lon="3.83492">
        <ele>366.2</ele>
        <time>2026-05-21T13:26:27.999Z</time>
      </trkpt>
      <trkpt lat="43.77355" lon="3.83493">
        <ele>365.9</ele>
        <time>2026-05-21T13:26:28.999Z</time>
      </trkpt>
      <trkpt lat="43.77355" lon="3.83493">
        <ele>365.2</ele>
        <time>2026-05-21T13:26:29.999Z</time>
      </trkpt>
      <trkpt lat="43.77354" lon="3.83493">
        <ele>364.7</ele>
        <time>2026-05-21T13:26:30.999Z</time>
      </trkpt>
      <trkpt lat="43.77354" lon="3.83494">
        <ele>365.2</ele>
        <time>2026-05-21T13:26:31.999Z</time>
      </trkpt>
      <trkpt lat="43.77354" lon="3.83494">
        <ele>365.1</ele>
        <time>2026-05-21T13:26:32.999Z</time>
      </trkpt>
      <trkpt lat="43.77354" lon="3.83494">
        <ele>365.2</ele>
        <time>2026-05-21T13:26:33.999Z</time>
      </trkpt>
      <trkpt lat="43.77354" lon="3.83495">
        <ele>365.3</ele>
        <time>2026-05-21T13:26:34.999Z</time>
      </trkpt>
      <trkpt lat="43.77354" lon="3.83495">
        <ele>365.2</ele>
        <time>2026-05-21T13:26:35.999Z</time>
      </trkpt>
      <trkpt lat="43.77354" lon="3.83496">
        <ele>364.9</ele>
        <time>2026-05-21T13:26:36.999Z</time>
      </trkpt>
      <trkpt lat="43.77354" lon="3.83496">
        <ele>364.8</ele>
        <time>2026-05-21T13:26:37.999Z</time>
      </trkpt>
      <trkpt lat="43.77354" lon="3.83498">
        <ele>364.4</ele>
        <time>2026-05-21T13:26:38.999Z</time>
      </trkpt>
      <trkpt lat="43.77354" lon="3.83499">
        <ele>364.4</ele>
        <time>2026-05-21T13:26:39.999Z</time>
      </trkpt>
      <trkpt lat="43.77354" lon="3.835">
        <ele>364.2</ele>
        <time>2026-05-21T13:26:40.999Z</time>
      </trkpt>
      <trkpt lat="43.77354" lon="3.83502">
        <ele>363.8</ele>
        <time>2026-05-21T13:26:41.999Z</time>
      </trkpt>
      <trkpt lat="43.77353" lon="3.83504">
        <ele>363.4</ele>
        <time>2026-05-21T13:26:42.999Z</time>
      </trkpt>
      <trkpt lat="43.77352" lon="3.83506">
        <ele>363</ele>
        <time>2026-05-21T13:26:43.999Z</time>
      </trkpt>
      <trkpt lat="43.77352" lon="3.83508">
        <ele>362.3</ele>
        <time>2026-05-21T13:26:44.999Z</time>
      </trkpt>
      <trkpt lat="43.77351" lon="3.83509">
        <ele>362.2</ele>
        <time>2026-05-21T13:26:45.999Z</time>
      </trkpt>
      <trkpt lat="43.77351" lon="3.83511">
        <ele>362.3</ele>
        <time>2026-05-21T13:26:46.999Z</time>
      </trkpt>
      <trkpt lat="43.77352" lon="3.83513">
        <ele>361.9</ele>
        <time>2026-05-21T13:26:47.999Z</time>
      </trkpt>
      <trkpt lat="43.77352" lon="3.83515">
        <ele>361.7</ele>
        <time>2026-05-21T13:26:48.999Z</time>
      </trkpt>
      <trkpt lat="43.77352" lon="3.83517">
        <ele>361.4</ele>
        <time>2026-05-21T13:26:49.999Z</time>
      </trkpt>
      <trkpt lat="43.77352" lon="3.83519">
        <ele>361.2</ele>
        <time>2026-05-21T13:26:50.999Z</time>
      </trkpt>
      <trkpt lat="43.77352" lon="3.83521">
        <ele>361</ele>
        <time>2026-05-21T13:26:51.999Z</time>
      </trkpt>
      <trkpt lat="43.77352" lon="3.83523">
        <ele>361.1</ele>
        <time>2026-05-21T13:26:52.999Z</time>
      </trkpt>
      <trkpt lat="43.77352" lon="3.83525">
        <ele>361.2</ele>
        <time>2026-05-21T13:26:53.999Z</time>
      </trkpt>
      <trkpt lat="43.77351" lon="3.83526">
        <ele>361.2</ele>
        <time>2026-05-21T13:26:54.999Z</time>
      </trkpt>
      <trkpt lat="43.77351" lon="3.83528">
        <ele>361.1</ele>
        <time>2026-05-21T13:26:55.999Z</time>
      </trkpt>
      <trkpt lat="43.77351" lon="3.83528">
        <ele>360.9</ele>
        <time>2026-05-21T13:26:56.999Z</time>
      </trkpt>
      <trkpt lat="43.77351" lon="3.83529">
        <ele>360.4</ele>
        <time>2026-05-21T13:26:57.999Z</time>
      </trkpt>
      <trkpt lat="43.77351" lon="3.8353">
        <ele>359.6</ele>
        <time>2026-05-21T13:26:58.999Z</time>
      </trkpt>
      <trkpt lat="43.7735" lon="3.83532">
        <ele>359.5</ele>
        <time>2026-05-21T13:26:59.999Z</time>
      </trkpt>
      <trkpt lat="43.7735" lon="3.83534">
        <ele>359.3</ele>
        <time>2026-05-21T13:27:00.999Z</time>
      </trkpt>
      <trkpt lat="43.7735" lon="3.83535">
        <ele>359</ele>
        <time>2026-05-21T13:27:01.999Z</time>
      </trkpt>
      <trkpt lat="43.7735" lon="3.83535">
        <ele>358.8</ele>
        <time>2026-05-21T13:27:02.999Z</time>
      </trkpt>
      <trkpt lat="43.7735" lon="3.83536">
        <ele>358.9</ele>
        <time>2026-05-21T13:27:03.999Z</time>
      </trkpt>
      <trkpt lat="43.7735" lon="3.83537">
        <ele>358.9</ele>
        <time>2026-05-21T13:27:04.999Z</time>
      </trkpt>
      <trkpt lat="43.7735" lon="3.83539">
        <ele>358.7</ele>
        <time>2026-05-21T13:27:05.999Z</time>
      </trkpt>
      <trkpt lat="43.77349" lon="3.8354">
        <ele>358.4</ele>
        <time>2026-05-21T13:27:06.999Z</time>
      </trkpt>
      <trkpt lat="43.77349" lon="3.83542">
        <ele>358.5</ele>
        <time>2026-05-21T13:27:07.999Z</time>
      </trkpt>
      <trkpt lat="43.77349" lon="3.83543">
        <ele>358.1</ele>
        <time>2026-05-21T13:27:08.999Z</time>
      </trkpt>
      <trkpt lat="43.77348" lon="3.83544">
        <ele>358</ele>
        <time>2026-05-21T13:27:09.999Z</time>
      </trkpt>
      <trkpt lat="43.77348" lon="3.83546">
        <ele>358.2</ele>
        <time>2026-05-21T13:27:10.999Z</time>
      </trkpt>
      <trkpt lat="43.77347" lon="3.83547">
        <ele>357.7</ele>
        <time>2026-05-21T13:27:11.999Z</time>
      </trkpt>
      <trkpt lat="43.77346" lon="3.83548">
        <ele>357.5</ele>
        <time>2026-05-21T13:27:12.999Z</time>
      </trkpt>
      <trkpt lat="43.77346" lon="3.8355">
        <ele>357.1</ele>
        <time>2026-05-21T13:27:13.999Z</time>
      </trkpt>
      <trkpt lat="43.77346" lon="3.83551">
        <ele>357</ele>
        <time>2026-05-21T13:27:14.999Z</time>
      </trkpt>
      <trkpt lat="43.77346" lon="3.83553">
        <ele>356.5</ele>
        <time>2026-05-21T13:27:15.999Z</time>
      </trkpt>
      <trkpt lat="43.77346" lon="3.83554">
        <ele>356.7</ele>
        <time>2026-05-21T13:27:16.999Z</time>
      </trkpt>
      <trkpt lat="43.77345" lon="3.83555">
        <ele>356.7</ele>
        <time>2026-05-21T13:27:17.999Z</time>
      </trkpt>
      <trkpt lat="43.77345" lon="3.83556">
        <ele>356.5</ele>
        <time>2026-05-21T13:27:18.999Z</time>
      </trkpt>
      <trkpt lat="43.77345" lon="3.83557">
        <ele>356.4</ele>
        <time>2026-05-21T13:27:19.999Z</time>
      </trkpt>
      <trkpt lat="43.77345" lon="3.83558">
        <ele>356.5</ele>
        <time>2026-05-21T13:27:20.999Z</time>
      </trkpt>
      <trkpt lat="43.77345" lon="3.8356">
        <ele>356.4</ele>
        <time>2026-05-21T13:27:21.999Z</time>
      </trkpt>
      <trkpt lat="43.77345" lon="3.83561">
        <ele>356.2</ele>
        <time>2026-05-21T13:27:22.999Z</time>
      </trkpt>
      <trkpt lat="43.77345" lon="3.83561">
        <ele>356</ele>
        <time>2026-05-21T13:27:23.999Z</time>
      </trkpt>
      <trkpt lat="43.77345" lon="3.83562">
        <ele>356</ele>
        <time>2026-05-21T13:27:24.999Z</time>
      </trkpt>
      <trkpt lat="43.77345" lon="3.83563">
        <ele>356.4</ele>
        <time>2026-05-21T13:27:25.999Z</time>
      </trkpt>
      <trkpt lat="43.77345" lon="3.83564">
        <ele>356.6</ele>
        <time>2026-05-21T13:27:26.999Z</time>
      </trkpt>
      <trkpt lat="43.77344" lon="3.83566">
        <ele>356.8</ele>
        <time>2026-05-21T13:27:27.999Z</time>
      </trkpt>
      <trkpt lat="43.77344" lon="3.83567">
        <ele>356.8</ele>
        <time>2026-05-21T13:27:28.999Z</time>
      </trkpt>
      <trkpt lat="43.77344" lon="3.83568">
        <ele>356.4</ele>
        <time>2026-05-21T13:27:29.999Z</time>
      </trkpt>
      <trkpt lat="43.77343" lon="3.83569">
        <ele>356.7</ele>
        <time>2026-05-21T13:27:30.999Z</time>
      </trkpt>
      <trkpt lat="43.77342" lon="3.83571">
        <ele>356.6</ele>
        <time>2026-05-21T13:27:31.999Z</time>
      </trkpt>
      <trkpt lat="43.77343" lon="3.83573">
        <ele>356.7</ele>
        <time>2026-05-21T13:27:32.999Z</time>
      </trkpt>
      <trkpt lat="43.77343" lon="3.83574">
        <ele>356.8</ele>
        <time>2026-05-21T13:27:33.999Z</time>
      </trkpt>
      <trkpt lat="43.77343" lon="3.83576">
        <ele>356.6</ele>
        <time>2026-05-21T13:27:34.999Z</time>
      </trkpt>
      <trkpt lat="43.77343" lon="3.83576">
        <ele>356.4</ele>
        <time>2026-05-21T13:27:35.999Z</time>
      </trkpt>
      <trkpt lat="43.77343" lon="3.83577">
        <ele>356.2</ele>
        <time>2026-05-21T13:27:36.999Z</time>
      </trkpt>
      <trkpt lat="43.77342" lon="3.83579">
        <ele>356.4</ele>
        <time>2026-05-21T13:27:37.999Z</time>
      </trkpt>
      <trkpt lat="43.77342" lon="3.8358">
        <ele>356.4</ele>
        <time>2026-05-21T13:27:38.999Z</time>
      </trkpt>
      <trkpt lat="43.77341" lon="3.8358">
        <ele>356.5</ele>
        <time>2026-05-21T13:27:39.999Z</time>
      </trkpt>
      <trkpt lat="43.77341" lon="3.83581">
        <ele>356.5</ele>
        <time>2026-05-21T13:27:40.999Z</time>
      </trkpt>
      <trkpt lat="43.7734" lon="3.83582">
        <ele>356.8</ele>
        <time>2026-05-21T13:27:41.999Z</time>
      </trkpt>
      <trkpt lat="43.7734" lon="3.83584">
        <ele>357</ele>
        <time>2026-05-21T13:27:42.999Z</time>
      </trkpt>
      <trkpt lat="43.77339" lon="3.83585">
        <ele>356.8</ele>
        <time>2026-05-21T13:27:43.999Z</time>
      </trkpt>
      <trkpt lat="43.77339" lon="3.83587">
        <ele>357</ele>
        <time>2026-05-21T13:27:44.999Z</time>
      </trkpt>
      <trkpt lat="43.77339" lon="3.83588">
        <ele>357</ele>
        <time>2026-05-21T13:27:45.999Z</time>
      </trkpt>
      <trkpt lat="43.77339" lon="3.8359">
        <ele>357</ele>
        <time>2026-05-21T13:27:46.999Z</time>
      </trkpt>
      <trkpt lat="43.77338" lon="3.83591">
        <ele>357.3</ele>
        <time>2026-05-21T13:27:47.999Z</time>
      </trkpt>
      <trkpt lat="43.77338" lon="3.83593">
        <ele>357.6</ele>
        <time>2026-05-21T13:27:48.999Z</time>
      </trkpt>
      <trkpt lat="43.77338" lon="3.83594">
        <ele>357.7</ele>
        <time>2026-05-21T13:27:49.999Z</time>
      </trkpt>
      <trkpt lat="43.77338" lon="3.83595">
        <ele>357.7</ele>
        <time>2026-05-21T13:27:50.999Z</time>
      </trkpt>
      <trkpt lat="43.77338" lon="3.83596">
        <ele>357.5</ele>
        <time>2026-05-21T13:27:51.999Z</time>
      </trkpt>
      <trkpt lat="43.77338" lon="3.83597">
        <ele>357.9</ele>
        <time>2026-05-21T13:27:52.999Z</time>
      </trkpt>
      <trkpt lat="43.77338" lon="3.83598">
        <ele>358</ele>
        <time>2026-05-21T13:27:53.999Z</time>
      </trkpt>
      <trkpt lat="43.77338" lon="3.83599">
        <ele>357.8</ele>
        <time>2026-05-21T13:27:54.999Z</time>
      </trkpt>
      <trkpt lat="43.77337" lon="3.836">
        <ele>357.5</ele>
        <time>2026-05-21T13:27:55.999Z</time>
      </trkpt>
      <trkpt lat="43.77338" lon="3.836">
        <ele>357.3</ele>
        <time>2026-05-21T13:27:56.999Z</time>
      </trkpt>
      <trkpt lat="43.77338" lon="3.83601">
        <ele>357.6</ele>
        <time>2026-05-21T13:27:57.999Z</time>
      </trkpt>
      <trkpt lat="43.77338" lon="3.83602">
        <ele>357.8</ele>
        <time>2026-05-21T13:27:58.999Z</time>
      </trkpt>
      <trkpt lat="43.77337" lon="3.83602">
        <ele>357.9</ele>
        <time>2026-05-21T13:27:59.999Z</time>
      </trkpt>
      <trkpt lat="43.77337" lon="3.83603">
        <ele>357.6</ele>
        <time>2026-05-21T13:28:00.999Z</time>
      </trkpt>
      <trkpt lat="43.77337" lon="3.83604">
        <ele>356.9</ele>
        <time>2026-05-21T13:28:01.999Z</time>
      </trkpt>
      <trkpt lat="43.77337" lon="3.83606">
        <ele>356.5</ele>
        <time>2026-05-21T13:28:02.999Z</time>
      </trkpt>
      <trkpt lat="43.77336" lon="3.83607">
        <ele>355.5</ele>
        <time>2026-05-21T13:28:03.999Z</time>
      </trkpt>
      <trkpt lat="43.77336" lon="3.83608">
        <ele>355.3</ele>
        <time>2026-05-21T13:28:04.999Z</time>
      </trkpt>
      <trkpt lat="43.77336" lon="3.8361">
        <ele>354.9</ele>
        <time>2026-05-21T13:28:05.999Z</time>
      </trkpt>
      <trkpt lat="43.77336" lon="3.83612">
        <ele>354.6</ele>
        <time>2026-05-21T13:28:06.999Z</time>
      </trkpt>
      <trkpt lat="43.77335" lon="3.83613">
        <ele>354.7</ele>
        <time>2026-05-21T13:28:07.999Z</time>
      </trkpt>
      <trkpt lat="43.77335" lon="3.83614">
        <ele>354.7</ele>
        <time>2026-05-21T13:28:08.999Z</time>
      </trkpt>
      <trkpt lat="43.77334" lon="3.83616">
        <ele>354.4</ele>
        <time>2026-05-21T13:28:09.999Z</time>
      </trkpt>
      <trkpt lat="43.77334" lon="3.83617">
        <ele>354.3</ele>
        <time>2026-05-21T13:28:10.999Z</time>
      </trkpt>
      <trkpt lat="43.77333" lon="3.83618">
        <ele>354.2</ele>
        <time>2026-05-21T13:28:11.999Z</time>
      </trkpt>
      <trkpt lat="43.77333" lon="3.8362">
        <ele>353.9</ele>
        <time>2026-05-21T13:28:12.999Z</time>
      </trkpt>
      <trkpt lat="43.77333" lon="3.83621">
        <ele>353.5</ele>
        <time>2026-05-21T13:28:13.999Z</time>
      </trkpt>
      <trkpt lat="43.77333" lon="3.83622">
        <ele>353.3</ele>
        <time>2026-05-21T13:28:14.999Z</time>
      </trkpt>
      <trkpt lat="43.77332" lon="3.83623">
        <ele>353.3</ele>
        <time>2026-05-21T13:28:15.999Z</time>
      </trkpt>
      <trkpt lat="43.77332" lon="3.83624">
        <ele>353.4</ele>
        <time>2026-05-21T13:28:16.999Z</time>
      </trkpt>
      <trkpt lat="43.77332" lon="3.83626">
        <ele>353.3</ele>
        <time>2026-05-21T13:28:17.999Z</time>
      </trkpt>
      <trkpt lat="43.77332" lon="3.83628">
        <ele>353.6</ele>
        <time>2026-05-21T13:28:18.999Z</time>
      </trkpt>
      <trkpt lat="43.77331" lon="3.83629">
        <ele>354</ele>
        <time>2026-05-21T13:28:19.999Z</time>
      </trkpt>
      <trkpt lat="43.77331" lon="3.8363">
        <ele>353.7</ele>
        <time>2026-05-21T13:28:20.999Z</time>
      </trkpt>
      <trkpt lat="43.77331" lon="3.83631">
        <ele>353.4</ele>
        <time>2026-05-21T13:28:21.999Z</time>
      </trkpt>
      <trkpt lat="43.77331" lon="3.83633">
        <ele>353.4</ele>
        <time>2026-05-21T13:28:22.999Z</time>
      </trkpt>
      <trkpt lat="43.7733" lon="3.83635">
        <ele>353.6</ele>
        <time>2026-05-21T13:28:23.999Z</time>
      </trkpt>
      <trkpt lat="43.7733" lon="3.83637">
        <ele>354</ele>
        <time>2026-05-21T13:28:24.999Z</time>
      </trkpt>
      <trkpt lat="43.7733" lon="3.83638">
        <ele>353.9</ele>
        <time>2026-05-21T13:28:25.999Z</time>
      </trkpt>
      <trkpt lat="43.7733" lon="3.83639">
        <ele>353.8</ele>
        <time>2026-05-21T13:28:26.999Z</time>
      </trkpt>
      <trkpt lat="43.7733" lon="3.8364">
        <ele>353.7</ele>
        <time>2026-05-21T13:28:27.999Z</time>
      </trkpt>
      <trkpt lat="43.7733" lon="3.83641">
        <ele>353.7</ele>
        <time>2026-05-21T13:28:28.999Z</time>
      </trkpt>
      <trkpt lat="43.77329" lon="3.83643">
        <ele>353.6</ele>
        <time>2026-05-21T13:28:29.999Z</time>
      </trkpt>
      <trkpt lat="43.77329" lon="3.83644">
        <ele>353.1</ele>
        <time>2026-05-21T13:28:30.999Z</time>
      </trkpt>
      <trkpt lat="43.77329" lon="3.83646">
        <ele>352.9</ele>
        <time>2026-05-21T13:28:31.999Z</time>
      </trkpt>
      <trkpt lat="43.77329" lon="3.83647">
        <ele>352.3</ele>
        <time>2026-05-21T13:28:32.999Z</time>
      </trkpt>
      <trkpt lat="43.7733" lon="3.83647">
        <ele>352.3</ele>
        <time>2026-05-21T13:28:33.999Z</time>
      </trkpt>
      <trkpt lat="43.77329" lon="3.83648">
        <ele>352.3</ele>
        <time>2026-05-21T13:28:34.999Z</time>
      </trkpt>
      <trkpt lat="43.77329" lon="3.83649">
        <ele>351.9</ele>
        <time>2026-05-21T13:28:35.999Z</time>
      </trkpt>
      <trkpt lat="43.7733" lon="3.8365">
        <ele>352</ele>
        <time>2026-05-21T13:28:36.999Z</time>
      </trkpt>
      <trkpt lat="43.77329" lon="3.83651">
        <ele>351.7</ele>
        <time>2026-05-21T13:28:37.999Z</time>
      </trkpt>
      <trkpt lat="43.7733" lon="3.83652">
        <ele>351.7</ele>
        <time>2026-05-21T13:28:38.999Z</time>
      </trkpt>
      <trkpt lat="43.7733" lon="3.83653">
        <ele>351.3</ele>
        <time>2026-05-21T13:28:39.999Z</time>
      </trkpt>
      <trkpt lat="43.7733" lon="3.83655">
        <ele>350.9</ele>
        <time>2026-05-21T13:28:40.999Z</time>
      </trkpt>
      <trkpt lat="43.7733" lon="3.83657">
        <ele>350.6</ele>
        <time>2026-05-21T13:28:41.999Z</time>
      </trkpt>
      <trkpt lat="43.7733" lon="3.83658">
        <ele>350.3</ele>
        <time>2026-05-21T13:28:42.999Z</time>
      </trkpt>
      <trkpt lat="43.7733" lon="3.83659">
        <ele>349.8</ele>
        <time>2026-05-21T13:28:43.999Z</time>
      </trkpt>
      <trkpt lat="43.77329" lon="3.8366">
        <ele>349.8</ele>
        <time>2026-05-21T13:28:44.999Z</time>
      </trkpt>
      <trkpt lat="43.77329" lon="3.8366">
        <ele>349.9</ele>
        <time>2026-05-21T13:28:45.999Z</time>
      </trkpt>
      <trkpt lat="43.77328" lon="3.83662">
        <ele>350</ele>
        <time>2026-05-21T13:28:46.999Z</time>
      </trkpt>
      <trkpt lat="43.77328" lon="3.83665">
        <ele>349.8</ele>
        <time>2026-05-21T13:28:47.999Z</time>
      </trkpt>
      <trkpt lat="43.77328" lon="3.83667">
        <ele>349.5</ele>
        <time>2026-05-21T13:28:48.999Z</time>
      </trkpt>
      <trkpt lat="43.77328" lon="3.83669">
        <ele>348.8</ele>
        <time>2026-05-21T13:28:49.999Z</time>
      </trkpt>
      <trkpt lat="43.77327" lon="3.83671">
        <ele>348.3</ele>
        <time>2026-05-21T13:28:50.999Z</time>
      </trkpt>
      <trkpt lat="43.77327" lon="3.83673">
        <ele>348.2</ele>
        <time>2026-05-21T13:28:51.999Z</time>
      </trkpt>
      <trkpt lat="43.77327" lon="3.83674">
        <ele>348</ele>
        <time>2026-05-21T13:28:52.999Z</time>
      </trkpt>
      <trkpt lat="43.77326" lon="3.83675">
        <ele>347.8</ele>
        <time>2026-05-21T13:28:53.999Z</time>
      </trkpt>
      <trkpt lat="43.77325" lon="3.83676">
        <ele>347.9</ele>
        <time>2026-05-21T13:28:54.999Z</time>
      </trkpt>
      <trkpt lat="43.77325" lon="3.83677">
        <ele>347.7</ele>
        <time>2026-05-21T13:28:55.999Z</time>
      </trkpt>
      <trkpt lat="43.77325" lon="3.83678">
        <ele>347.5</ele>
        <time>2026-05-21T13:28:56.999Z</time>
      </trkpt>
      <trkpt lat="43.77325" lon="3.83679">
        <ele>347.6</ele>
        <time>2026-05-21T13:28:57.999Z</time>
      </trkpt>
      <trkpt lat="43.77325" lon="3.8368">
        <ele>347.2</ele>
        <time>2026-05-21T13:28:58.999Z</time>
      </trkpt>
      <trkpt lat="43.77325" lon="3.83681">
        <ele>346.8</ele>
        <time>2026-05-21T13:28:59.999Z</time>
      </trkpt>
      <trkpt lat="43.77325" lon="3.83682">
        <ele>347</ele>
        <time>2026-05-21T13:29:00.999Z</time>
      </trkpt>
      <trkpt lat="43.77325" lon="3.83684">
        <ele>347.6</ele>
        <time>2026-05-21T13:29:01.999Z</time>
      </trkpt>
      <trkpt lat="43.77324" lon="3.83686">
        <ele>347.4</ele>
        <time>2026-05-21T13:29:02.999Z</time>
      </trkpt>
      <trkpt lat="43.77324" lon="3.83688">
        <ele>347.2</ele>
        <time>2026-05-21T13:29:03.999Z</time>
      </trkpt>
      <trkpt lat="43.77324" lon="3.83689">
        <ele>346.8</ele>
        <time>2026-05-21T13:29:04.999Z</time>
      </trkpt>
      <trkpt lat="43.77324" lon="3.83691">
        <ele>346.5</ele>
        <time>2026-05-21T13:29:05.999Z</time>
      </trkpt>
      <trkpt lat="43.77323" lon="3.83692">
        <ele>346.3</ele>
        <time>2026-05-21T13:29:06.999Z</time>
      </trkpt>
      <trkpt lat="43.77323" lon="3.83694">
        <ele>346</ele>
        <time>2026-05-21T13:29:07.999Z</time>
      </trkpt>
      <trkpt lat="43.77323" lon="3.83695">
        <ele>345.6</ele>
        <time>2026-05-21T13:29:08.999Z</time>
      </trkpt>
      <trkpt lat="43.77323" lon="3.83697">
        <ele>345</ele>
        <time>2026-05-21T13:29:09.999Z</time>
      </trkpt>
      <trkpt lat="43.77322" lon="3.83699">
        <ele>344.2</ele>
        <time>2026-05-21T13:29:10.999Z</time>
      </trkpt>
      <trkpt lat="43.77322" lon="3.837">
        <ele>344</ele>
        <time>2026-05-21T13:29:11.999Z</time>
      </trkpt>
      <trkpt lat="43.77322" lon="3.83701">
        <ele>343.8</ele>
        <time>2026-05-21T13:29:12.999Z</time>
      </trkpt>
      <trkpt lat="43.77322" lon="3.83703">
        <ele>343.5</ele>
        <time>2026-05-21T13:29:13.999Z</time>
      </trkpt>
      <trkpt lat="43.77322" lon="3.83705">
        <ele>343.5</ele>
        <time>2026-05-21T13:29:14.999Z</time>
      </trkpt>
      <trkpt lat="43.77322" lon="3.83706">
        <ele>343.9</ele>
        <time>2026-05-21T13:29:15.999Z</time>
      </trkpt>
      <trkpt lat="43.77321" lon="3.83708">
        <ele>344.2</ele>
        <time>2026-05-21T13:29:16.999Z</time>
      </trkpt>
      <trkpt lat="43.77321" lon="3.83709">
        <ele>343.8</ele>
        <time>2026-05-21T13:29:17.999Z</time>
      </trkpt>
      <trkpt lat="43.77321" lon="3.8371">
        <ele>343.5</ele>
        <time>2026-05-21T13:29:18.999Z</time>
      </trkpt>
      <trkpt lat="43.77321" lon="3.83712">
        <ele>343.5</ele>
        <time>2026-05-21T13:29:19.999Z</time>
      </trkpt>
      <trkpt lat="43.77321" lon="3.83713">
        <ele>343.6</ele>
        <time>2026-05-21T13:29:20.999Z</time>
      </trkpt>
      <trkpt lat="43.77321" lon="3.83715">
        <ele>343.8</ele>
        <time>2026-05-21T13:29:21.999Z</time>
      </trkpt>
      <trkpt lat="43.77321" lon="3.83716">
        <ele>343.7</ele>
        <time>2026-05-21T13:29:22.999Z</time>
      </trkpt>
      <trkpt lat="43.7732" lon="3.83716">
        <ele>343.6</ele>
        <time>2026-05-21T13:29:23.999Z</time>
      </trkpt>
      <trkpt lat="43.7732" lon="3.83717">
        <ele>343.5</ele>
        <time>2026-05-21T13:29:24.999Z</time>
      </trkpt>
      <trkpt lat="43.77319" lon="3.83719">
        <ele>343.4</ele>
        <time>2026-05-21T13:29:25.999Z</time>
      </trkpt>
      <trkpt lat="43.77318" lon="3.83722">
        <ele>343.5</ele>
        <time>2026-05-21T13:29:26.999Z</time>
      </trkpt>
      <trkpt lat="43.77318" lon="3.83724">
        <ele>343.7</ele>
        <time>2026-05-21T13:29:27.999Z</time>
      </trkpt>
      <trkpt lat="43.77317" lon="3.83726">
        <ele>343.8</ele>
        <time>2026-05-21T13:29:28.999Z</time>
      </trkpt>
      <trkpt lat="43.77317" lon="3.83728">
        <ele>343.8</ele>
        <time>2026-05-21T13:29:29.999Z</time>
      </trkpt>
      <trkpt lat="43.77317" lon="3.83729">
        <ele>343.6</ele>
        <time>2026-05-21T13:29:30.999Z</time>
      </trkpt>
      <trkpt lat="43.77316" lon="3.8373">
        <ele>344.1</ele>
        <time>2026-05-21T13:29:31.999Z</time>
      </trkpt>
      <trkpt lat="43.77316" lon="3.83731">
        <ele>344.4</ele>
        <time>2026-05-21T13:29:32.999Z</time>
      </trkpt>
      <trkpt lat="43.77315" lon="3.83732">
        <ele>344.3</ele>
        <time>2026-05-21T13:29:33.999Z</time>
      </trkpt>
      <trkpt lat="43.77315" lon="3.83733">
        <ele>344.9</ele>
        <time>2026-05-21T13:29:34.999Z</time>
      </trkpt>
      <trkpt lat="43.77314" lon="3.83734">
        <ele>345.5</ele>
        <time>2026-05-21T13:29:35.999Z</time>
      </trkpt>
      <trkpt lat="43.77314" lon="3.83736">
        <ele>346.1</ele>
        <time>2026-05-21T13:29:36.999Z</time>
      </trkpt>
      <trkpt lat="43.77314" lon="3.83736">
        <ele>346.5</ele>
        <time>2026-05-21T13:29:37.999Z</time>
      </trkpt>
      <trkpt lat="43.77314" lon="3.83738">
        <ele>346.4</ele>
        <time>2026-05-21T13:29:38.999Z</time>
      </trkpt>
      <trkpt lat="43.77313" lon="3.83739">
        <ele>346.2</ele>
        <time>2026-05-21T13:29:39.999Z</time>
      </trkpt>
      <trkpt lat="43.77313" lon="3.8374">
        <ele>346.2</ele>
        <time>2026-05-21T13:29:40.999Z</time>
      </trkpt>
      <trkpt lat="43.77312" lon="3.83741">
        <ele>346.6</ele>
        <time>2026-05-21T13:29:41.999Z</time>
      </trkpt>
      <trkpt lat="43.77312" lon="3.83743">
        <ele>347</ele>
        <time>2026-05-21T13:29:42.999Z</time>
      </trkpt>
      <trkpt lat="43.77311" lon="3.83745">
        <ele>346.9</ele>
        <time>2026-05-21T13:29:43.999Z</time>
      </trkpt>
      <trkpt lat="43.77311" lon="3.83746">
        <ele>347.2</ele>
        <time>2026-05-21T13:29:44.999Z</time>
      </trkpt>
      <trkpt lat="43.77311" lon="3.83748">
        <ele>347.1</ele>
        <time>2026-05-21T13:29:45.999Z</time>
      </trkpt>
      <trkpt lat="43.7731" lon="3.83748">
        <ele>346.9</ele>
        <time>2026-05-21T13:29:46.999Z</time>
      </trkpt>
      <trkpt lat="43.7731" lon="3.83749">
        <ele>346.5</ele>
        <time>2026-05-21T13:29:47.999Z</time>
      </trkpt>
      <trkpt lat="43.77309" lon="3.8375">
        <ele>346.5</ele>
        <time>2026-05-21T13:29:48.999Z</time>
      </trkpt>
      <trkpt lat="43.77309" lon="3.83752">
        <ele>346.4</ele>
        <time>2026-05-21T13:29:49.999Z</time>
      </trkpt>
      <trkpt lat="43.77308" lon="3.83754">
        <ele>346.6</ele>
        <time>2026-05-21T13:29:50.999Z</time>
      </trkpt>
      <trkpt lat="43.77308" lon="3.83756">
        <ele>346.9</ele>
        <time>2026-05-21T13:29:51.999Z</time>
      </trkpt>
      <trkpt lat="43.77308" lon="3.83758">
        <ele>347.1</ele>
        <time>2026-05-21T13:29:52.999Z</time>
      </trkpt>
      <trkpt lat="43.77308" lon="3.83759">
        <ele>347</ele>
        <time>2026-05-21T13:29:53.999Z</time>
      </trkpt>
      <trkpt lat="43.77307" lon="3.83759">
        <ele>347.3</ele>
        <time>2026-05-21T13:29:54.999Z</time>
      </trkpt>
      <trkpt lat="43.77307" lon="3.8376">
        <ele>347</ele>
        <time>2026-05-21T13:29:55.999Z</time>
      </trkpt>
      <trkpt lat="43.77306" lon="3.83761">
        <ele>347.2</ele>
        <time>2026-05-21T13:29:56.999Z</time>
      </trkpt>
      <trkpt lat="43.77307" lon="3.83762">
        <ele>347.2</ele>
        <time>2026-05-21T13:29:57.999Z</time>
      </trkpt>
      <trkpt lat="43.77307" lon="3.83763">
        <ele>347.3</ele>
        <time>2026-05-21T13:29:58.999Z</time>
      </trkpt>
      <trkpt lat="43.77307" lon="3.83763">
        <ele>347.3</ele>
        <time>2026-05-21T13:29:59.999Z</time>
      </trkpt>
      <trkpt lat="43.77307" lon="3.83764">
        <ele>347.5</ele>
        <time>2026-05-21T13:30:00.999Z</time>
      </trkpt>
      <trkpt lat="43.77307" lon="3.83765">
        <ele>347.5</ele>
        <time>2026-05-21T13:30:01.999Z</time>
      </trkpt>
      <trkpt lat="43.77306" lon="3.83766">
        <ele>347.7</ele>
        <time>2026-05-21T13:30:02.999Z</time>
      </trkpt>
      <trkpt lat="43.77306" lon="3.83768">
        <ele>347.6</ele>
        <time>2026-05-21T13:30:03.999Z</time>
      </trkpt>
      <trkpt lat="43.77305" lon="3.8377">
        <ele>347.2</ele>
        <time>2026-05-21T13:30:04.999Z</time>
      </trkpt>
      <trkpt lat="43.77305" lon="3.83771">
        <ele>346.9</ele>
        <time>2026-05-21T13:30:05.999Z</time>
      </trkpt>
      <trkpt lat="43.77305" lon="3.83773">
        <ele>346.6</ele>
        <time>2026-05-21T13:30:06.999Z</time>
      </trkpt>
      <trkpt lat="43.77304" lon="3.83774">
        <ele>346.5</ele>
        <time>2026-05-21T13:30:07.999Z</time>
      </trkpt>
      <trkpt lat="43.77305" lon="3.83775">
        <ele>346.8</ele>
        <time>2026-05-21T13:30:08.999Z</time>
      </trkpt>
      <trkpt lat="43.77305" lon="3.83777">
        <ele>346.5</ele>
        <time>2026-05-21T13:30:09.999Z</time>
      </trkpt>
      <trkpt lat="43.77304" lon="3.83779">
        <ele>346</ele>
        <time>2026-05-21T13:30:10.999Z</time>
      </trkpt>
      <trkpt lat="43.77304" lon="3.8378">
        <ele>345.5</ele>
        <time>2026-05-21T13:30:11.999Z</time>
      </trkpt>
      <trkpt lat="43.77304" lon="3.83781">
        <ele>345.8</ele>
        <time>2026-05-21T13:30:12.999Z</time>
      </trkpt>
      <trkpt lat="43.77303" lon="3.83782">
        <ele>345.9</ele>
        <time>2026-05-21T13:30:13.999Z</time>
      </trkpt>
      <trkpt lat="43.77303" lon="3.83783">
        <ele>345.8</ele>
        <time>2026-05-21T13:30:14.999Z</time>
      </trkpt>
      <trkpt lat="43.77302" lon="3.83784">
        <ele>345.9</ele>
        <time>2026-05-21T13:30:15.999Z</time>
      </trkpt>
      <trkpt lat="43.77302" lon="3.83785">
        <ele>345.6</ele>
        <time>2026-05-21T13:30:16.999Z</time>
      </trkpt>
      <trkpt lat="43.77302" lon="3.83786">
        <ele>345.3</ele>
        <time>2026-05-21T13:30:17.999Z</time>
      </trkpt>
      <trkpt lat="43.77301" lon="3.83787">
        <ele>344.8</ele>
        <time>2026-05-21T13:30:18.999Z</time>
      </trkpt>
      <trkpt lat="43.77301" lon="3.83789">
        <ele>345</ele>
        <time>2026-05-21T13:30:19.999Z</time>
      </trkpt>
      <trkpt lat="43.77301" lon="3.83791">
        <ele>344.8</ele>
        <time>2026-05-21T13:30:20.999Z</time>
      </trkpt>
      <trkpt lat="43.77301" lon="3.83791">
        <ele>344.7</ele>
        <time>2026-05-21T13:30:21.999Z</time>
      </trkpt>
      <trkpt lat="43.773" lon="3.83793">
        <ele>344.6</ele>
        <time>2026-05-21T13:30:22.999Z</time>
      </trkpt>
      <trkpt lat="43.773" lon="3.83795">
        <ele>344.6</ele>
        <time>2026-05-21T13:30:23.999Z</time>
      </trkpt>
      <trkpt lat="43.773" lon="3.83796">
        <ele>344.6</ele>
        <time>2026-05-21T13:30:24.999Z</time>
      </trkpt>
      <trkpt lat="43.77299" lon="3.83798">
        <ele>344.8</ele>
        <time>2026-05-21T13:30:25.999Z</time>
      </trkpt>
      <trkpt lat="43.77299" lon="3.83798">
        <ele>345</ele>
        <time>2026-05-21T13:30:26.999Z</time>
      </trkpt>
      <trkpt lat="43.77298" lon="3.83799">
        <ele>344.5</ele>
        <time>2026-05-21T13:30:27.999Z</time>
      </trkpt>
      <trkpt lat="43.77298" lon="3.838">
        <ele>344.8</ele>
        <time>2026-05-21T13:30:28.999Z</time>
      </trkpt>
      <trkpt lat="43.77297" lon="3.83801">
        <ele>345.1</ele>
        <time>2026-05-21T13:30:29.999Z</time>
      </trkpt>
      <trkpt lat="43.77297" lon="3.83802">
        <ele>345.2</ele>
        <time>2026-05-21T13:30:30.999Z</time>
      </trkpt>
      <trkpt lat="43.77296" lon="3.83804">
        <ele>345.4</ele>
        <time>2026-05-21T13:30:31.999Z</time>
      </trkpt>
      <trkpt lat="43.77296" lon="3.83805">
        <ele>345.5</ele>
        <time>2026-05-21T13:30:32.999Z</time>
      </trkpt>
      <trkpt lat="43.77295" lon="3.83807">
        <ele>345.5</ele>
        <time>2026-05-21T13:30:33.999Z</time>
      </trkpt>
      <trkpt lat="43.77295" lon="3.83807">
        <ele>345.2</ele>
        <time>2026-05-21T13:30:34.999Z</time>
      </trkpt>
      <trkpt lat="43.77295" lon="3.83808">
        <ele>344.6</ele>
        <time>2026-05-21T13:30:35.999Z</time>
      </trkpt>
      <trkpt lat="43.77294" lon="3.83809">
        <ele>344.1</ele>
        <time>2026-05-21T13:30:36.999Z</time>
      </trkpt>
      <trkpt lat="43.77294" lon="3.8381">
        <ele>343.3</ele>
        <time>2026-05-21T13:30:37.999Z</time>
      </trkpt>
      <trkpt lat="43.77294" lon="3.83811">
        <ele>343.1</ele>
        <time>2026-05-21T13:30:38.999Z</time>
      </trkpt>
      <trkpt lat="43.77293" lon="3.83812">
        <ele>343.1</ele>
        <time>2026-05-21T13:30:39.999Z</time>
      </trkpt>
      <trkpt lat="43.77292" lon="3.83813">
        <ele>342.8</ele>
        <time>2026-05-21T13:30:40.999Z</time>
      </trkpt>
      <trkpt lat="43.77291" lon="3.83814">
        <ele>342.9</ele>
        <time>2026-05-21T13:30:41.999Z</time>
      </trkpt>
      <trkpt lat="43.7729" lon="3.83815">
        <ele>343</ele>
        <time>2026-05-21T13:30:42.999Z</time>
      </trkpt>
      <trkpt lat="43.7729" lon="3.83816">
        <ele>343.2</ele>
        <time>2026-05-21T13:30:43.999Z</time>
      </trkpt>
      <trkpt lat="43.77289" lon="3.83818">
        <ele>342.9</ele>
        <time>2026-05-21T13:30:44.999Z</time>
      </trkpt>
      <trkpt lat="43.77289" lon="3.83819">
        <ele>343</ele>
        <time>2026-05-21T13:30:45.999Z</time>
      </trkpt>
      <trkpt lat="43.77289" lon="3.83821">
        <ele>342.9</ele>
        <time>2026-05-21T13:30:46.999Z</time>
      </trkpt>
      <trkpt lat="43.77288" lon="3.83823">
        <ele>343.1</ele>
        <time>2026-05-21T13:30:47.999Z</time>
      </trkpt>
      <trkpt lat="43.77288" lon="3.83824">
        <ele>343.8</ele>
        <time>2026-05-21T13:30:48.999Z</time>
      </trkpt>
      <trkpt lat="43.77288" lon="3.83825">
        <ele>343.9</ele>
        <time>2026-05-21T13:30:49.999Z</time>
      </trkpt>
      <trkpt lat="43.77288" lon="3.83826">
        <ele>343.5</ele>
        <time>2026-05-21T13:30:50.999Z</time>
      </trkpt>
      <trkpt lat="43.77287" lon="3.83827">
        <ele>343.3</ele>
        <time>2026-05-21T13:30:51.999Z</time>
      </trkpt>
      <trkpt lat="43.77286" lon="3.83827">
        <ele>343</ele>
        <time>2026-05-21T13:30:52.999Z</time>
      </trkpt>
      <trkpt lat="43.77285" lon="3.83828">
        <ele>342.9</ele>
        <time>2026-05-21T13:30:53.999Z</time>
      </trkpt>
      <trkpt lat="43.77285" lon="3.8383">
        <ele>342.8</ele>
        <time>2026-05-21T13:30:54.999Z</time>
      </trkpt>
      <trkpt lat="43.77284" lon="3.83833">
        <ele>343</ele>
        <time>2026-05-21T13:30:55.999Z</time>
      </trkpt>
      <trkpt lat="43.77284" lon="3.83835">
        <ele>343</ele>
        <time>2026-05-21T13:30:56.999Z</time>
      </trkpt>
      <trkpt lat="43.77284" lon="3.83837">
        <ele>342.3</ele>
        <time>2026-05-21T13:30:57.999Z</time>
      </trkpt>
      <trkpt lat="43.77284" lon="3.83838">
        <ele>342.3</ele>
        <time>2026-05-21T13:30:58.999Z</time>
      </trkpt>
      <trkpt lat="43.77284" lon="3.83839">
        <ele>342.1</ele>
        <time>2026-05-21T13:30:59.999Z</time>
      </trkpt>
      <trkpt lat="43.77283" lon="3.8384">
        <ele>341.9</ele>
        <time>2026-05-21T13:31:00.999Z</time>
      </trkpt>
      <trkpt lat="43.77282" lon="3.83841">
        <ele>341.9</ele>
        <time>2026-05-21T13:31:01.999Z</time>
      </trkpt>
      <trkpt lat="43.77282" lon="3.83842">
        <ele>342</ele>
        <time>2026-05-21T13:31:02.999Z</time>
      </trkpt>
      <trkpt lat="43.77281" lon="3.83843">
        <ele>341.9</ele>
        <time>2026-05-21T13:31:03.999Z</time>
      </trkpt>
      <trkpt lat="43.77281" lon="3.83844">
        <ele>342.1</ele>
        <time>2026-05-21T13:31:04.999Z</time>
      </trkpt>
      <trkpt lat="43.77281" lon="3.83844">
        <ele>342.3</ele>
        <time>2026-05-21T13:31:05.999Z</time>
      </trkpt>
      <trkpt lat="43.77281" lon="3.83845">
        <ele>342.1</ele>
        <time>2026-05-21T13:31:06.999Z</time>
      </trkpt>
      <trkpt lat="43.77281" lon="3.83846">
        <ele>342.1</ele>
        <time>2026-05-21T13:31:07.999Z</time>
      </trkpt>
      <trkpt lat="43.7728" lon="3.83847">
        <ele>342.2</ele>
        <time>2026-05-21T13:31:08.999Z</time>
      </trkpt>
      <trkpt lat="43.77279" lon="3.83849">
        <ele>342.7</ele>
        <time>2026-05-21T13:31:09.999Z</time>
      </trkpt>
      <trkpt lat="43.77278" lon="3.83851">
        <ele>342.8</ele>
        <time>2026-05-21T13:31:10.999Z</time>
      </trkpt>
      <trkpt lat="43.77277" lon="3.83851">
        <ele>342.8</ele>
        <time>2026-05-21T13:31:11.999Z</time>
      </trkpt>
      <trkpt lat="43.77277" lon="3.83852">
        <ele>342.7</ele>
        <time>2026-05-21T13:31:12.999Z</time>
      </trkpt>
      <trkpt lat="43.77276" lon="3.83853">
        <ele>343</ele>
        <time>2026-05-21T13:31:13.999Z</time>
      </trkpt>
      <trkpt lat="43.77276" lon="3.83855">
        <ele>343.1</ele>
        <time>2026-05-21T13:31:14.999Z</time>
      </trkpt>
      <trkpt lat="43.77275" lon="3.83856">
        <ele>342.6</ele>
        <time>2026-05-21T13:31:15.999Z</time>
      </trkpt>
      <trkpt lat="43.77275" lon="3.83857">
        <ele>342.6</ele>
        <time>2026-05-21T13:31:16.999Z</time>
      </trkpt>
      <trkpt lat="43.77275" lon="3.83859">
        <ele>342.6</ele>
        <time>2026-05-21T13:31:17.999Z</time>
      </trkpt>
      <trkpt lat="43.77274" lon="3.8386">
        <ele>343</ele>
        <time>2026-05-21T13:31:18.999Z</time>
      </trkpt>
      <trkpt lat="43.77273" lon="3.83861">
        <ele>343.3</ele>
        <time>2026-05-21T13:31:19.999Z</time>
      </trkpt>
      <trkpt lat="43.77273" lon="3.83863">
        <ele>343.2</ele>
        <time>2026-05-21T13:31:20.999Z</time>
      </trkpt>
      <trkpt lat="43.77272" lon="3.83864">
        <ele>343.4</ele>
        <time>2026-05-21T13:31:21.999Z</time>
      </trkpt>
      <trkpt lat="43.77271" lon="3.83865">
        <ele>343</ele>
        <time>2026-05-21T13:31:22.999Z</time>
      </trkpt>
      <trkpt lat="43.77271" lon="3.83866">
        <ele>342.5</ele>
        <time>2026-05-21T13:31:23.999Z</time>
      </trkpt>
      <trkpt lat="43.7727" lon="3.83867">
        <ele>342.2</ele>
        <time>2026-05-21T13:31:24.999Z</time>
      </trkpt>
      <trkpt lat="43.7727" lon="3.83867">
        <ele>341.7</ele>
        <time>2026-05-21T13:31:25.999Z</time>
      </trkpt>
      <trkpt lat="43.7727" lon="3.83868">
        <ele>341.1</ele>
        <time>2026-05-21T13:31:26.999Z</time>
      </trkpt>
      <trkpt lat="43.77269" lon="3.83869">
        <ele>340.9</ele>
        <time>2026-05-21T13:31:27.999Z</time>
      </trkpt>
      <trkpt lat="43.77269" lon="3.83871">
        <ele>340.6</ele>
        <time>2026-05-21T13:31:28.999Z</time>
      </trkpt>
      <trkpt lat="43.77268" lon="3.83873">
        <ele>341</ele>
        <time>2026-05-21T13:31:29.999Z</time>
      </trkpt>
      <trkpt lat="43.77267" lon="3.83874">
        <ele>341.3</ele>
        <time>2026-05-21T13:31:30.999Z</time>
      </trkpt>
      <trkpt lat="43.77267" lon="3.83876">
        <ele>341.5</ele>
        <time>2026-05-21T13:31:31.999Z</time>
      </trkpt>
      <trkpt lat="43.77267" lon="3.83878">
        <ele>341.4</ele>
        <time>2026-05-21T13:31:32.999Z</time>
      </trkpt>
      <trkpt lat="43.77267" lon="3.8388">
        <ele>341</ele>
        <time>2026-05-21T13:31:33.999Z</time>
      </trkpt>
      <trkpt lat="43.77266" lon="3.83881">
        <ele>340.6</ele>
        <time>2026-05-21T13:31:34.999Z</time>
      </trkpt>
      <trkpt lat="43.77266" lon="3.83882">
        <ele>340.4</ele>
        <time>2026-05-21T13:31:35.999Z</time>
      </trkpt>
      <trkpt lat="43.77265" lon="3.83883">
        <ele>340.1</ele>
        <time>2026-05-21T13:31:36.999Z</time>
      </trkpt>
      <trkpt lat="43.77265" lon="3.83883">
        <ele>339.9</ele>
        <time>2026-05-21T13:31:37.999Z</time>
      </trkpt>
      <trkpt lat="43.77264" lon="3.83884">
        <ele>339.6</ele>
        <time>2026-05-21T13:31:38.999Z</time>
      </trkpt>
      <trkpt lat="43.77264" lon="3.83885">
        <ele>339.2</ele>
        <time>2026-05-21T13:31:39.999Z</time>
      </trkpt>
      <trkpt lat="43.77264" lon="3.83887">
        <ele>338.6</ele>
        <time>2026-05-21T13:31:40.999Z</time>
      </trkpt>
      <trkpt lat="43.77264" lon="3.83888">
        <ele>338.2</ele>
        <time>2026-05-21T13:31:41.999Z</time>
      </trkpt>
      <trkpt lat="43.77263" lon="3.83889">
        <ele>338.1</ele>
        <time>2026-05-21T13:31:42.999Z</time>
      </trkpt>
      <trkpt lat="43.77262" lon="3.8389">
        <ele>338.1</ele>
        <time>2026-05-21T13:31:43.999Z</time>
      </trkpt>
      <trkpt lat="43.77262" lon="3.83891">
        <ele>338.7</ele>
        <time>2026-05-21T13:31:44.999Z</time>
      </trkpt>
      <trkpt lat="43.77262" lon="3.83892">
        <ele>339.1</ele>
        <time>2026-05-21T13:31:45.999Z</time>
      </trkpt>
      <trkpt lat="43.77261" lon="3.83893">
        <ele>339.2</ele>
        <time>2026-05-21T13:31:46.999Z</time>
      </trkpt>
      <trkpt lat="43.77261" lon="3.83894">
        <ele>339.5</ele>
        <time>2026-05-21T13:31:47.999Z</time>
      </trkpt>
      <trkpt lat="43.7726" lon="3.83895">
        <ele>339.3</ele>
        <time>2026-05-21T13:31:48.999Z</time>
      </trkpt>
      <trkpt lat="43.7726" lon="3.83896">
        <ele>339.1</ele>
        <time>2026-05-21T13:31:49.999Z</time>
      </trkpt>
      <trkpt lat="43.7726" lon="3.83896">
        <ele>339.2</ele>
        <time>2026-05-21T13:31:50.999Z</time>
      </trkpt>
      <trkpt lat="43.77259" lon="3.83896">
        <ele>339.3</ele>
        <time>2026-05-21T13:31:51.999Z</time>
      </trkpt>
      <trkpt lat="43.77259" lon="3.83897">
        <ele>339.4</ele>
        <time>2026-05-21T13:31:52.999Z</time>
      </trkpt>
      <trkpt lat="43.77259" lon="3.83897">
        <ele>339.3</ele>
        <time>2026-05-21T13:31:53.999Z</time>
      </trkpt>
      <trkpt lat="43.77259" lon="3.83899">
        <ele>339</ele>
        <time>2026-05-21T13:31:54.999Z</time>
      </trkpt>
      <trkpt lat="43.77258" lon="3.83901">
        <ele>338.8</ele>
        <time>2026-05-21T13:31:55.999Z</time>
      </trkpt>
      <trkpt lat="43.77257" lon="3.83902">
        <ele>338.5</ele>
        <time>2026-05-21T13:31:56.999Z</time>
      </trkpt>
      <trkpt lat="43.77256" lon="3.83903">
        <ele>338.4</ele>
        <time>2026-05-21T13:31:57.999Z</time>
      </trkpt>
      <trkpt lat="43.77256" lon="3.83904">
        <ele>338.4</ele>
        <time>2026-05-21T13:31:58.999Z</time>
      </trkpt>
      <trkpt lat="43.77255" lon="3.83906">
        <ele>337.7</ele>
        <time>2026-05-21T13:31:59.999Z</time>
      </trkpt>
      <trkpt lat="43.77255" lon="3.83908">
        <ele>337.1</ele>
        <time>2026-05-21T13:32:00.999Z</time>
      </trkpt>
      <trkpt lat="43.77255" lon="3.83909">
        <ele>336.6</ele>
        <time>2026-05-21T13:32:01.999Z</time>
      </trkpt>
      <trkpt lat="43.77254" lon="3.8391">
        <ele>336.2</ele>
        <time>2026-05-21T13:32:02.999Z</time>
      </trkpt>
      <trkpt lat="43.77254" lon="3.83911">
        <ele>336.1</ele>
        <time>2026-05-21T13:32:03.999Z</time>
      </trkpt>
      <trkpt lat="43.77253" lon="3.83912">
        <ele>336.2</ele>
        <time>2026-05-21T13:32:04.999Z</time>
      </trkpt>
      <trkpt lat="43.77253" lon="3.83913">
        <ele>336.2</ele>
        <time>2026-05-21T13:32:05.999Z</time>
      </trkpt>
      <trkpt lat="43.77253" lon="3.83914">
        <ele>336.3</ele>
        <time>2026-05-21T13:32:06.999Z</time>
      </trkpt>
      <trkpt lat="43.77253" lon="3.83916">
        <ele>336.2</ele>
        <time>2026-05-21T13:32:07.999Z</time>
      </trkpt>
      <trkpt lat="43.77253" lon="3.83917">
        <ele>336.2</ele>
        <time>2026-05-21T13:32:08.999Z</time>
      </trkpt>
      <trkpt lat="43.77253" lon="3.83918">
        <ele>336.3</ele>
        <time>2026-05-21T13:32:09.999Z</time>
      </trkpt>
      <trkpt lat="43.77253" lon="3.83919">
        <ele>336.3</ele>
        <time>2026-05-21T13:32:10.999Z</time>
      </trkpt>
      <trkpt lat="43.77252" lon="3.8392">
        <ele>336.1</ele>
        <time>2026-05-21T13:32:11.999Z</time>
      </trkpt>
      <trkpt lat="43.77252" lon="3.83923">
        <ele>336</ele>
        <time>2026-05-21T13:32:12.999Z</time>
      </trkpt>
      <trkpt lat="43.77251" lon="3.83924">
        <ele>336.1</ele>
        <time>2026-05-21T13:32:13.999Z</time>
      </trkpt>
      <trkpt lat="43.77251" lon="3.83925">
        <ele>335.9</ele>
        <time>2026-05-21T13:32:14.999Z</time>
      </trkpt>
      <trkpt lat="43.77251" lon="3.83926">
        <ele>335.6</ele>
        <time>2026-05-21T13:32:15.999Z</time>
      </trkpt>
      <trkpt lat="43.7725" lon="3.83928">
        <ele>335.1</ele>
        <time>2026-05-21T13:32:16.999Z</time>
      </trkpt>
      <trkpt lat="43.7725" lon="3.83929">
        <ele>334.6</ele>
        <time>2026-05-21T13:32:17.999Z</time>
      </trkpt>
      <trkpt lat="43.7725" lon="3.8393">
        <ele>334.5</ele>
        <time>2026-05-21T13:32:18.999Z</time>
      </trkpt>
      <trkpt lat="43.77249" lon="3.83931">
        <ele>334.7</ele>
        <time>2026-05-21T13:32:19.999Z</time>
      </trkpt>
      <trkpt lat="43.77249" lon="3.83932">
        <ele>334.7</ele>
        <time>2026-05-21T13:32:20.999Z</time>
      </trkpt>
      <trkpt lat="43.77249" lon="3.83933">
        <ele>334.5</ele>
        <time>2026-05-21T13:32:21.999Z</time>
      </trkpt>
      <trkpt lat="43.77248" lon="3.83934">
        <ele>334.2</ele>
        <time>2026-05-21T13:32:22.999Z</time>
      </trkpt>
      <trkpt lat="43.77248" lon="3.83936">
        <ele>334.3</ele>
        <time>2026-05-21T13:32:23.999Z</time>
      </trkpt>
      <trkpt lat="43.77247" lon="3.83938">
        <ele>334.2</ele>
        <time>2026-05-21T13:32:24.999Z</time>
      </trkpt>
      <trkpt lat="43.77247" lon="3.83939">
        <ele>334.3</ele>
        <time>2026-05-21T13:32:25.999Z</time>
      </trkpt>
      <trkpt lat="43.77247" lon="3.83939">
        <ele>334.6</ele>
        <time>2026-05-21T13:32:26.999Z</time>
      </trkpt>
      <trkpt lat="43.77247" lon="3.8394">
        <ele>334.5</ele>
        <time>2026-05-21T13:32:27.999Z</time>
      </trkpt>
      <trkpt lat="43.77247" lon="3.83942">
        <ele>334.6</ele>
        <time>2026-05-21T13:32:28.999Z</time>
      </trkpt>
      <trkpt lat="43.77247" lon="3.83943">
        <ele>334.7</ele>
        <time>2026-05-21T13:32:29.999Z</time>
      </trkpt>
      <trkpt lat="43.77247" lon="3.83945">
        <ele>334.8</ele>
        <time>2026-05-21T13:32:30.999Z</time>
      </trkpt>
      <trkpt lat="43.77247" lon="3.83946">
        <ele>335.2</ele>
        <time>2026-05-21T13:32:31.999Z</time>
      </trkpt>
      <trkpt lat="43.77247" lon="3.83948">
        <ele>335.5</ele>
        <time>2026-05-21T13:32:32.999Z</time>
      </trkpt>
      <trkpt lat="43.77246" lon="3.83949">
        <ele>334.9</ele>
        <time>2026-05-21T13:32:33.999Z</time>
      </trkpt>
      <trkpt lat="43.77247" lon="3.83951">
        <ele>334.9</ele>
        <time>2026-05-21T13:32:34.999Z</time>
      </trkpt>
      <trkpt lat="43.77246" lon="3.83953">
        <ele>334.8</ele>
        <time>2026-05-21T13:32:35.999Z</time>
      </trkpt>
      <trkpt lat="43.77246" lon="3.83955">
        <ele>334.5</ele>
        <time>2026-05-21T13:32:36.999Z</time>
      </trkpt>
      <trkpt lat="43.77245" lon="3.83956">
        <ele>334.2</ele>
        <time>2026-05-21T13:32:37.999Z</time>
      </trkpt>
      <trkpt lat="43.77245" lon="3.83957">
        <ele>333.9</ele>
        <time>2026-05-21T13:32:38.999Z</time>
      </trkpt>
      <trkpt lat="43.77244" lon="3.83958">
        <ele>333.8</ele>
        <time>2026-05-21T13:32:39.999Z</time>
      </trkpt>
      <trkpt lat="43.77244" lon="3.83959">
        <ele>333.8</ele>
        <time>2026-05-21T13:32:40.999Z</time>
      </trkpt>
      <trkpt lat="43.77244" lon="3.8396">
        <ele>333.6</ele>
        <time>2026-05-21T13:32:41.999Z</time>
      </trkpt>
      <trkpt lat="43.77243" lon="3.83961">
        <ele>333.7</ele>
        <time>2026-05-21T13:32:42.999Z</time>
      </trkpt>
      <trkpt lat="43.77243" lon="3.83962">
        <ele>333</ele>
        <time>2026-05-21T13:32:43.999Z</time>
      </trkpt>
      <trkpt lat="43.77244" lon="3.83963">
        <ele>333</ele>
        <time>2026-05-21T13:32:44.999Z</time>
      </trkpt>
      <trkpt lat="43.77244" lon="3.83964">
        <ele>333</ele>
        <time>2026-05-21T13:32:45.999Z</time>
      </trkpt>
      <trkpt lat="43.77243" lon="3.83965">
        <ele>332.7</ele>
        <time>2026-05-21T13:32:46.999Z</time>
      </trkpt>
      <trkpt lat="43.77243" lon="3.83966">
        <ele>333.3</ele>
        <time>2026-05-21T13:32:47.999Z</time>
      </trkpt>
      <trkpt lat="43.77243" lon="3.83967">
        <ele>333.5</ele>
        <time>2026-05-21T13:32:48.999Z</time>
      </trkpt>
      <trkpt lat="43.77244" lon="3.83968">
        <ele>333.3</ele>
        <time>2026-05-21T13:32:49.999Z</time>
      </trkpt>
      <trkpt lat="43.77244" lon="3.8397">
        <ele>333.2</ele>
        <time>2026-05-21T13:32:50.999Z</time>
      </trkpt>
      <trkpt lat="43.77244" lon="3.83972">
        <ele>333.1</ele>
        <time>2026-05-21T13:32:51.999Z</time>
      </trkpt>
      <trkpt lat="43.77244" lon="3.83974">
        <ele>332.8</ele>
        <time>2026-05-21T13:32:52.999Z</time>
      </trkpt>
      <trkpt lat="43.77243" lon="3.83975">
        <ele>332.8</ele>
        <time>2026-05-21T13:32:53.999Z</time>
      </trkpt>
      <trkpt lat="43.77243" lon="3.83975">
        <ele>332.9</ele>
        <time>2026-05-21T13:32:54.999Z</time>
      </trkpt>
      <trkpt lat="43.77242" lon="3.83976">
        <ele>332.9</ele>
        <time>2026-05-21T13:32:55.999Z</time>
      </trkpt>
      <trkpt lat="43.77242" lon="3.83977">
        <ele>333</ele>
        <time>2026-05-21T13:32:56.999Z</time>
      </trkpt>
      <trkpt lat="43.77242" lon="3.83979">
        <ele>332.8</ele>
        <time>2026-05-21T13:32:57.999Z</time>
      </trkpt>
      <trkpt lat="43.77242" lon="3.83979">
        <ele>333</ele>
        <time>2026-05-21T13:32:58.999Z</time>
      </trkpt>
      <trkpt lat="43.77242" lon="3.8398">
        <ele>333.3</ele>
        <time>2026-05-21T13:32:59.999Z</time>
      </trkpt>
      <trkpt lat="43.77242" lon="3.8398">
        <ele>333.6</ele>
        <time>2026-05-21T13:33:00.999Z</time>
      </trkpt>
      <trkpt lat="43.77241" lon="3.83981">
        <ele>333.5</ele>
        <time>2026-05-21T13:33:01.999Z</time>
      </trkpt>
      <trkpt lat="43.77241" lon="3.83982">
        <ele>333.6</ele>
        <time>2026-05-21T13:33:03.000Z</time>
      </trkpt>
      <trkpt lat="43.77241" lon="3.83982">
        <ele>333.6</ele>
        <time>2026-05-21T13:33:04.000Z</time>
      </trkpt>
      <trkpt lat="43.7724" lon="3.83984">
        <ele>333.7</ele>
        <time>2026-05-21T13:33:05.000Z</time>
      </trkpt>
      <trkpt lat="43.7724" lon="3.83985">
        <ele>333.4</ele>
        <time>2026-05-21T13:33:06.000Z</time>
      </trkpt>
      <trkpt lat="43.7724" lon="3.83986">
        <ele>333.7</ele>
        <time>2026-05-21T13:33:07.000Z</time>
      </trkpt>
      <trkpt lat="43.7724" lon="3.83987">
        <ele>333.7</ele>
        <time>2026-05-21T13:33:08.000Z</time>
      </trkpt>
      <trkpt lat="43.7724" lon="3.83988">
        <ele>333.4</ele>
        <time>2026-05-21T13:33:09.000Z</time>
      </trkpt>
      <trkpt lat="43.7724" lon="3.83989">
        <ele>333</ele>
        <time>2026-05-21T13:33:10.000Z</time>
      </trkpt>
      <trkpt lat="43.7724" lon="3.83991">
        <ele>332.7</ele>
        <time>2026-05-21T13:33:11.000Z</time>
      </trkpt>
      <trkpt lat="43.77241" lon="3.83993">
        <ele>332</ele>
        <time>2026-05-21T13:33:12.000Z</time>
      </trkpt>
      <trkpt lat="43.77241" lon="3.83994">
        <ele>331.7</ele>
        <time>2026-05-21T13:33:13.000Z</time>
      </trkpt>
      <trkpt lat="43.77241" lon="3.83995">
        <ele>331.6</ele>
        <time>2026-05-21T13:33:14.000Z</time>
      </trkpt>
      <trkpt lat="43.7724" lon="3.83997">
        <ele>331.3</ele>
        <time>2026-05-21T13:33:15.000Z</time>
      </trkpt>
      <trkpt lat="43.7724" lon="3.83999">
        <ele>331.3</ele>
        <time>2026-05-21T13:33:16.000Z</time>
      </trkpt>
      <trkpt lat="43.7724" lon="3.83999">
        <ele>331.3</ele>
        <time>2026-05-21T13:33:17.000Z</time>
      </trkpt>
      <trkpt lat="43.7724" lon="3.84">
        <ele>331.2</ele>
        <time>2026-05-21T13:33:18.000Z</time>
      </trkpt>
      <trkpt lat="43.7724" lon="3.84">
        <ele>330.9</ele>
        <time>2026-05-21T13:33:19.000Z</time>
      </trkpt>
      <trkpt lat="43.7724" lon="3.84002">
        <ele>330.6</ele>
        <time>2026-05-21T13:33:20.000Z</time>
      </trkpt>
      <trkpt lat="43.77239" lon="3.84004">
        <ele>330.1</ele>
        <time>2026-05-21T13:33:21.000Z</time>
      </trkpt>
      <trkpt lat="43.77239" lon="3.84005">
        <ele>329.8</ele>
        <time>2026-05-21T13:33:22.000Z</time>
      </trkpt>
      <trkpt lat="43.77239" lon="3.84006">
        <ele>329.4</ele>
        <time>2026-05-21T13:33:23.000Z</time>
      </trkpt>
      <trkpt lat="43.77239" lon="3.84007">
        <ele>329.1</ele>
        <time>2026-05-21T13:33:24.000Z</time>
      </trkpt>
      <trkpt lat="43.77239" lon="3.84007">
        <ele>329</ele>
        <time>2026-05-21T13:33:25.000Z</time>
      </trkpt>
      <trkpt lat="43.77239" lon="3.84008">
        <ele>329.1</ele>
        <time>2026-05-21T13:33:26.000Z</time>
      </trkpt>
      <trkpt lat="43.77238" lon="3.84009">
        <ele>328.8</ele>
        <time>2026-05-21T13:33:27.000Z</time>
      </trkpt>
      <trkpt lat="43.77238" lon="3.8401">
        <ele>328.8</ele>
        <time>2026-05-21T13:33:28.000Z</time>
      </trkpt>
      <trkpt lat="43.77238" lon="3.84011">
        <ele>328.9</ele>
        <time>2026-05-21T13:33:29.000Z</time>
      </trkpt>
      <trkpt lat="43.77238" lon="3.84013">
        <ele>328.8</ele>
        <time>2026-05-21T13:33:30.000Z</time>
      </trkpt>
      <trkpt lat="43.77238" lon="3.84015">
        <ele>328.6</ele>
        <time>2026-05-21T13:33:31.000Z</time>
      </trkpt>
      <trkpt lat="43.77238" lon="3.84016">
        <ele>328.3</ele>
        <time>2026-05-21T13:33:32.000Z</time>
      </trkpt>
      <trkpt lat="43.77238" lon="3.84018">
        <ele>328.2</ele>
        <time>2026-05-21T13:33:33.000Z</time>
      </trkpt>
      <trkpt lat="43.77238" lon="3.84019">
        <ele>328</ele>
        <time>2026-05-21T13:33:34.000Z</time>
      </trkpt>
      <trkpt lat="43.77238" lon="3.8402">
        <ele>327.5</ele>
        <time>2026-05-21T13:33:35.000Z</time>
      </trkpt>
      <trkpt lat="43.77238" lon="3.84021">
        <ele>327.1</ele>
        <time>2026-05-21T13:33:36.000Z</time>
      </trkpt>
      <trkpt lat="43.77238" lon="3.84023">
        <ele>327.4</ele>
        <time>2026-05-21T13:33:37.000Z</time>
      </trkpt>
      <trkpt lat="43.77238" lon="3.84024">
        <ele>327.4</ele>
        <time>2026-05-21T13:33:38.000Z</time>
      </trkpt>
      <trkpt lat="43.77238" lon="3.84026">
        <ele>327.2</ele>
        <time>2026-05-21T13:33:39.000Z</time>
      </trkpt>
      <trkpt lat="43.77238" lon="3.84027">
        <ele>326.9</ele>
        <time>2026-05-21T13:33:40.000Z</time>
      </trkpt>
      <trkpt lat="43.77239" lon="3.84027">
        <ele>326.6</ele>
        <time>2026-05-21T13:33:41.000Z</time>
      </trkpt>
      <trkpt lat="43.77239" lon="3.84028">
        <ele>326.5</ele>
        <time>2026-05-21T13:33:42.000Z</time>
      </trkpt>
      <trkpt lat="43.77239" lon="3.8403">
        <ele>326.4</ele>
        <time>2026-05-21T13:33:43.000Z</time>
      </trkpt>
      <trkpt lat="43.77239" lon="3.84031">
        <ele>326</ele>
        <time>2026-05-21T13:33:44.000Z</time>
      </trkpt>
      <trkpt lat="43.77239" lon="3.84033">
        <ele>325.9</ele>
        <time>2026-05-21T13:33:45.000Z</time>
      </trkpt>
      <trkpt lat="43.77238" lon="3.84034">
        <ele>326</ele>
        <time>2026-05-21T13:33:46.000Z</time>
      </trkpt>
      <trkpt lat="43.77238" lon="3.84035">
        <ele>326.5</ele>
        <time>2026-05-21T13:33:47.000Z</time>
      </trkpt>
      <trkpt lat="43.77238" lon="3.84035">
        <ele>326.5</ele>
        <time>2026-05-21T13:33:48.000Z</time>
      </trkpt>
      <trkpt lat="43.77238" lon="3.84036">
        <ele>326.3</ele>
        <time>2026-05-21T13:33:49.000Z</time>
      </trkpt>
      <trkpt lat="43.77238" lon="3.84036">
        <ele>326.2</ele>
        <time>2026-05-21T13:33:50.000Z</time>
      </trkpt>
      <trkpt lat="43.77238" lon="3.84036">
        <ele>326.2</ele>
        <time>2026-05-21T13:33:51.000Z</time>
      </trkpt>
      <trkpt lat="43.77238" lon="3.84037">
        <ele>326.1</ele>
        <time>2026-05-21T13:33:52.000Z</time>
      </trkpt>
      <trkpt lat="43.77238" lon="3.84037">
        <ele>326.2</ele>
        <time>2026-05-21T13:33:53.000Z</time>
      </trkpt>
      <trkpt lat="43.77238" lon="3.84037">
        <ele>326.2</ele>
        <time>2026-05-21T13:33:54.000Z</time>
      </trkpt>
      <trkpt lat="43.77238" lon="3.84039">
        <ele>326.2</ele>
        <time>2026-05-21T13:33:55.000Z</time>
      </trkpt>
      <trkpt lat="43.77238" lon="3.84042">
        <ele>326.2</ele>
        <time>2026-05-21T13:33:56.000Z</time>
      </trkpt>
      <trkpt lat="43.77238" lon="3.84044">
        <ele>326.2</ele>
        <time>2026-05-21T13:33:57.000Z</time>
      </trkpt>
      <trkpt lat="43.77238" lon="3.84045">
        <ele>326.4</ele>
        <time>2026-05-21T13:33:58.000Z</time>
      </trkpt>
      <trkpt lat="43.77238" lon="3.84046">
        <ele>326.4</ele>
        <time>2026-05-21T13:33:59.000Z</time>
      </trkpt>
      <trkpt lat="43.77238" lon="3.84048">
        <ele>326.5</ele>
        <time>2026-05-21T13:34:00.000Z</time>
      </trkpt>
      <trkpt lat="43.77238" lon="3.8405">
        <ele>326.3</ele>
        <time>2026-05-21T13:34:01.000Z</time>
      </trkpt>
      <trkpt lat="43.77238" lon="3.84053">
        <ele>326.1</ele>
        <time>2026-05-21T13:34:02.000Z</time>
      </trkpt>
      <trkpt lat="43.77239" lon="3.84055">
        <ele>325.8</ele>
        <time>2026-05-21T13:34:03.000Z</time>
      </trkpt>
      <trkpt lat="43.77239" lon="3.84056">
        <ele>325.4</ele>
        <time>2026-05-21T13:34:04.000Z</time>
      </trkpt>
      <trkpt lat="43.77239" lon="3.84058">
        <ele>325.2</ele>
        <time>2026-05-21T13:34:05.000Z</time>
      </trkpt>
      <trkpt lat="43.77239" lon="3.84059">
        <ele>325.2</ele>
        <time>2026-05-21T13:34:06.000Z</time>
      </trkpt>
      <trkpt lat="43.77239" lon="3.84061">
        <ele>324.9</ele>
        <time>2026-05-21T13:34:07.000Z</time>
      </trkpt>
      <trkpt lat="43.7724" lon="3.84062">
        <ele>325.3</ele>
        <time>2026-05-21T13:34:08.000Z</time>
      </trkpt>
      <trkpt lat="43.7724" lon="3.84063">
        <ele>325.2</ele>
        <time>2026-05-21T13:34:09.000Z</time>
      </trkpt>
      <trkpt lat="43.7724" lon="3.84064">
        <ele>325</ele>
        <time>2026-05-21T13:34:10.000Z</time>
      </trkpt>
      <trkpt lat="43.7724" lon="3.84065">
        <ele>324.9</ele>
        <time>2026-05-21T13:34:11.000Z</time>
      </trkpt>
      <trkpt lat="43.77241" lon="3.84066">
        <ele>324.8</ele>
        <time>2026-05-21T13:34:12.000Z</time>
      </trkpt>
      <trkpt lat="43.77241" lon="3.84068">
        <ele>324.6</ele>
        <time>2026-05-21T13:34:13.000Z</time>
      </trkpt>
      <trkpt lat="43.77241" lon="3.84069">
        <ele>324.6</ele>
        <time>2026-05-21T13:34:14.000Z</time>
      </trkpt>
      <trkpt lat="43.77241" lon="3.84071">
        <ele>324.4</ele>
        <time>2026-05-21T13:34:15.000Z</time>
      </trkpt>
      <trkpt lat="43.77241" lon="3.84071">
        <ele>324.2</ele>
        <time>2026-05-21T13:34:16.000Z</time>
      </trkpt>
      <trkpt lat="43.77241" lon="3.84072">
        <ele>324</ele>
        <time>2026-05-21T13:34:17.000Z</time>
      </trkpt>
      <trkpt lat="43.77241" lon="3.84073">
        <ele>324.1</ele>
        <time>2026-05-21T13:34:18.000Z</time>
      </trkpt>
      <trkpt lat="43.77242" lon="3.84073">
        <ele>323.9</ele>
        <time>2026-05-21T13:34:19.000Z</time>
      </trkpt>
      <trkpt lat="43.77242" lon="3.84074">
        <ele>323.6</ele>
        <time>2026-05-21T13:34:20.000Z</time>
      </trkpt>
      <trkpt lat="43.77242" lon="3.84075">
        <ele>323.3</ele>
        <time>2026-05-21T13:34:21.000Z</time>
      </trkpt>
      <trkpt lat="43.77243" lon="3.84076">
        <ele>323.2</ele>
        <time>2026-05-21T13:34:22.000Z</time>
      </trkpt>
      <trkpt lat="43.77243" lon="3.84078">
        <ele>323.4</ele>
        <time>2026-05-21T13:34:23.000Z</time>
      </trkpt>
      <trkpt lat="43.77244" lon="3.8408">
        <ele>323.4</ele>
        <time>2026-05-21T13:34:24.000Z</time>
      </trkpt>
      <trkpt lat="43.77243" lon="3.84082">
        <ele>323.8</ele>
        <time>2026-05-21T13:34:25.000Z</time>
      </trkpt>
      <trkpt lat="43.77244" lon="3.84083">
        <ele>324.2</ele>
        <time>2026-05-21T13:34:26.000Z</time>
      </trkpt>
      <trkpt lat="43.77244" lon="3.84085">
        <ele>324.6</ele>
        <time>2026-05-21T13:34:27.000Z</time>
      </trkpt>
      <trkpt lat="43.77243" lon="3.84087">
        <ele>324.9</ele>
        <time>2026-05-21T13:34:28.000Z</time>
      </trkpt>
      <trkpt lat="43.77243" lon="3.84089">
        <ele>324.9</ele>
        <time>2026-05-21T13:34:29.000Z</time>
      </trkpt>
      <trkpt lat="43.77244" lon="3.8409">
        <ele>324.6</ele>
        <time>2026-05-21T13:34:30.000Z</time>
      </trkpt>
      <trkpt lat="43.77245" lon="3.84091">
        <ele>324</ele>
        <time>2026-05-21T13:34:31.000Z</time>
      </trkpt>
      <trkpt lat="43.77245" lon="3.84091">
        <ele>324</ele>
        <time>2026-05-21T13:34:32.000Z</time>
      </trkpt>
      <trkpt lat="43.77246" lon="3.84092">
        <ele>324.3</ele>
        <time>2026-05-21T13:34:33.000Z</time>
      </trkpt>
      <trkpt lat="43.77246" lon="3.84093">
        <ele>324.1</ele>
        <time>2026-05-21T13:34:34.000Z</time>
      </trkpt>
      <trkpt lat="43.77246" lon="3.84094">
        <ele>323.8</ele>
        <time>2026-05-21T13:34:35.000Z</time>
      </trkpt>
      <trkpt lat="43.77246" lon="3.84094">
        <ele>323.5</ele>
        <time>2026-05-21T13:34:36.000Z</time>
      </trkpt>
      <trkpt lat="43.77246" lon="3.84095">
        <ele>323.9</ele>
        <time>2026-05-21T13:34:37.000Z</time>
      </trkpt>
      <trkpt lat="43.77247" lon="3.84096">
        <ele>323.7</ele>
        <time>2026-05-21T13:34:38.000Z</time>
      </trkpt>
      <trkpt lat="43.77247" lon="3.84097">
        <ele>323.7</ele>
        <time>2026-05-21T13:34:39.000Z</time>
      </trkpt>
      <trkpt lat="43.77247" lon="3.84099">
        <ele>323.5</ele>
        <time>2026-05-21T13:34:40.000Z</time>
      </trkpt>
      <trkpt lat="43.77248" lon="3.841">
        <ele>323.6</ele>
        <time>2026-05-21T13:34:41.000Z</time>
      </trkpt>
      <trkpt lat="43.77248" lon="3.84102">
        <ele>323.6</ele>
        <time>2026-05-21T13:34:42.000Z</time>
      </trkpt>
      <trkpt lat="43.77249" lon="3.84103">
        <ele>323.5</ele>
        <time>2026-05-21T13:34:43.000Z</time>
      </trkpt>
      <trkpt lat="43.77249" lon="3.84104">
        <ele>324</ele>
        <time>2026-05-21T13:34:44.000Z</time>
      </trkpt>
      <trkpt lat="43.7725" lon="3.84105">
        <ele>324.1</ele>
        <time>2026-05-21T13:34:45.000Z</time>
      </trkpt>
      <trkpt lat="43.7725" lon="3.84106">
        <ele>324.1</ele>
        <time>2026-05-21T13:34:46.000Z</time>
      </trkpt>
      <trkpt lat="43.77251" lon="3.84108">
        <ele>324.2</ele>
        <time>2026-05-21T13:34:47.000Z</time>
      </trkpt>
      <trkpt lat="43.7725" lon="3.84109">
        <ele>324.4</ele>
        <time>2026-05-21T13:34:48.000Z</time>
      </trkpt>
      <trkpt lat="43.7725" lon="3.84111">
        <ele>324.2</ele>
        <time>2026-05-21T13:34:49.000Z</time>
      </trkpt>
      <trkpt lat="43.7725" lon="3.84113">
        <ele>324</ele>
        <time>2026-05-21T13:34:50.000Z</time>
      </trkpt>
      <trkpt lat="43.77251" lon="3.84115">
        <ele>324.1</ele>
        <time>2026-05-21T13:34:51.000Z</time>
      </trkpt>
      <trkpt lat="43.77252" lon="3.84117">
        <ele>323.8</ele>
        <time>2026-05-21T13:34:52.000Z</time>
      </trkpt>
      <trkpt lat="43.77252" lon="3.84118">
        <ele>324</ele>
        <time>2026-05-21T13:34:53.000Z</time>
      </trkpt>
      <trkpt lat="43.77253" lon="3.84118">
        <ele>324</ele>
        <time>2026-05-21T13:34:54.000Z</time>
      </trkpt>
      <trkpt lat="43.77253" lon="3.84119">
        <ele>324</ele>
        <time>2026-05-21T13:34:55.000Z</time>
      </trkpt>
      <trkpt lat="43.77254" lon="3.84121">
        <ele>324</ele>
        <time>2026-05-21T13:34:56.000Z</time>
      </trkpt>
      <trkpt lat="43.77254" lon="3.84122">
        <ele>324.3</ele>
        <time>2026-05-21T13:34:57.000Z</time>
      </trkpt>
      <trkpt lat="43.77254" lon="3.84122">
        <ele>324.6</ele>
        <time>2026-05-21T13:34:58.000Z</time>
      </trkpt>
      <trkpt lat="43.77254" lon="3.84123">
        <ele>324.6</ele>
        <time>2026-05-21T13:34:59.000Z</time>
      </trkpt>
      <trkpt lat="43.77255" lon="3.84124">
        <ele>323.9</ele>
        <time>2026-05-21T13:35:00.000Z</time>
      </trkpt>
      <trkpt lat="43.77255" lon="3.84126">
        <ele>323.3</ele>
        <time>2026-05-21T13:35:01.000Z</time>
      </trkpt>
      <trkpt lat="43.77256" lon="3.84126">
        <ele>322.8</ele>
        <time>2026-05-21T13:35:02.000Z</time>
      </trkpt>
      <trkpt lat="43.77256" lon="3.84128">
        <ele>322.2</ele>
        <time>2026-05-21T13:35:03.000Z</time>
      </trkpt>
      <trkpt lat="43.77257" lon="3.84129">
        <ele>321.7</ele>
        <time>2026-05-21T13:35:04.000Z</time>
      </trkpt>
      <trkpt lat="43.77257" lon="3.84131">
        <ele>321</ele>
        <time>2026-05-21T13:35:05.000Z</time>
      </trkpt>
      <trkpt lat="43.77257" lon="3.84131">
        <ele>320.6</ele>
        <time>2026-05-21T13:35:06.000Z</time>
      </trkpt>
      <trkpt lat="43.77258" lon="3.84132">
        <ele>320.1</ele>
        <time>2026-05-21T13:35:07.000Z</time>
      </trkpt>
      <trkpt lat="43.77258" lon="3.84133">
        <ele>319.6</ele>
        <time>2026-05-21T13:35:08.000Z</time>
      </trkpt>
      <trkpt lat="43.77259" lon="3.84135">
        <ele>319.3</ele>
        <time>2026-05-21T13:35:09.000Z</time>
      </trkpt>
      <trkpt lat="43.77259" lon="3.84136">
        <ele>319.5</ele>
        <time>2026-05-21T13:35:10.000Z</time>
      </trkpt>
      <trkpt lat="43.7726" lon="3.84137">
        <ele>319.6</ele>
        <time>2026-05-21T13:35:11.000Z</time>
      </trkpt>
      <trkpt lat="43.7726" lon="3.84139">
        <ele>319.5</ele>
        <time>2026-05-21T13:35:12.000Z</time>
      </trkpt>
      <trkpt lat="43.7726" lon="3.8414">
        <ele>319.6</ele>
        <time>2026-05-21T13:35:13.000Z</time>
      </trkpt>
      <trkpt lat="43.77261" lon="3.84142">
        <ele>319.4</ele>
        <time>2026-05-21T13:35:14.000Z</time>
      </trkpt>
      <trkpt lat="43.77261" lon="3.84143">
        <ele>319.9</ele>
        <time>2026-05-21T13:35:15.000Z</time>
      </trkpt>
      <trkpt lat="43.77262" lon="3.84144">
        <ele>319.9</ele>
        <time>2026-05-21T13:35:16.000Z</time>
      </trkpt>
      <trkpt lat="43.77263" lon="3.84146">
        <ele>319.7</ele>
        <time>2026-05-21T13:35:17.000Z</time>
      </trkpt>
      <trkpt lat="43.77264" lon="3.84146">
        <ele>319.4</ele>
        <time>2026-05-21T13:35:18.000Z</time>
      </trkpt>
      <trkpt lat="43.77264" lon="3.84148">
        <ele>319.5</ele>
        <time>2026-05-21T13:35:19.000Z</time>
      </trkpt>
      <trkpt lat="43.77264" lon="3.84149">
        <ele>319.4</ele>
        <time>2026-05-21T13:35:20.000Z</time>
      </trkpt>
      <trkpt lat="43.77264" lon="3.84151">
        <ele>319.4</ele>
        <time>2026-05-21T13:35:21.000Z</time>
      </trkpt>
      <trkpt lat="43.77265" lon="3.84153">
        <ele>319.3</ele>
        <time>2026-05-21T13:35:22.000Z</time>
      </trkpt>
      <trkpt lat="43.77265" lon="3.84154">
        <ele>318.9</ele>
        <time>2026-05-21T13:35:23.000Z</time>
      </trkpt>
      <trkpt lat="43.77265" lon="3.84154">
        <ele>318.8</ele>
        <time>2026-05-21T13:35:24.000Z</time>
      </trkpt>
      <trkpt lat="43.77265" lon="3.84154">
        <ele>318.8</ele>
        <time>2026-05-21T13:35:25.000Z</time>
      </trkpt>
      <trkpt lat="43.77266" lon="3.84155">
        <ele>318.2</ele>
        <time>2026-05-21T13:35:26.000Z</time>
      </trkpt>
      <trkpt lat="43.77266" lon="3.84155">
        <ele>317.8</ele>
        <time>2026-05-21T13:35:27.000Z</time>
      </trkpt>
      <trkpt lat="43.77267" lon="3.84156">
        <ele>317.4</ele>
        <time>2026-05-21T13:35:28.000Z</time>
      </trkpt>
      <trkpt lat="43.77267" lon="3.84158">
        <ele>317.2</ele>
        <time>2026-05-21T13:35:29.000Z</time>
      </trkpt>
      <trkpt lat="43.77267" lon="3.84158">
        <ele>316.9</ele>
        <time>2026-05-21T13:35:30.000Z</time>
      </trkpt>
      <trkpt lat="43.77268" lon="3.84159">
        <ele>317</ele>
        <time>2026-05-21T13:35:31.000Z</time>
      </trkpt>
      <trkpt lat="43.77267" lon="3.84159">
        <ele>317.3</ele>
        <time>2026-05-21T13:35:32.000Z</time>
      </trkpt>
      <trkpt lat="43.77267" lon="3.8416">
        <ele>317.6</ele>
        <time>2026-05-21T13:35:33.000Z</time>
      </trkpt>
      <trkpt lat="43.77267" lon="3.84162">
        <ele>317.8</ele>
        <time>2026-05-21T13:35:34.000Z</time>
      </trkpt>
      <trkpt lat="43.77266" lon="3.84164">
        <ele>317.8</ele>
        <time>2026-05-21T13:35:35.000Z</time>
      </trkpt>
      <trkpt lat="43.77264" lon="3.84165">
        <ele>317.9</ele>
        <time>2026-05-21T13:35:36.000Z</time>
      </trkpt>
      <trkpt lat="43.77262" lon="3.84166">
        <ele>318.3</ele>
        <time>2026-05-21T13:35:37.000Z</time>
      </trkpt>
      <trkpt lat="43.77261" lon="3.84167">
        <ele>318.4</ele>
        <time>2026-05-21T13:35:38.000Z</time>
      </trkpt>
      <trkpt lat="43.7726" lon="3.84167">
        <ele>318.6</ele>
        <time>2026-05-21T13:35:39.000Z</time>
      </trkpt>
      <trkpt lat="43.77258" lon="3.84166">
        <ele>318.6</ele>
        <time>2026-05-21T13:35:40.000Z</time>
      </trkpt>
      <trkpt lat="43.77257" lon="3.84165">
        <ele>318.7</ele>
        <time>2026-05-21T13:35:41.000Z</time>
      </trkpt>
      <trkpt lat="43.77255" lon="3.84163">
        <ele>318.4</ele>
        <time>2026-05-21T13:35:42.000Z</time>
      </trkpt>
      <trkpt lat="43.77254" lon="3.84162">
        <ele>318.2</ele>
        <time>2026-05-21T13:35:43.000Z</time>
      </trkpt>
      <trkpt lat="43.77254" lon="3.84161">
        <ele>318.3</ele>
        <time>2026-05-21T13:35:44.000Z</time>
      </trkpt>
      <trkpt lat="43.77253" lon="3.84161">
        <ele>318</ele>
        <time>2026-05-21T13:35:45.000Z</time>
      </trkpt>
      <trkpt lat="43.77253" lon="3.8416">
        <ele>318.1</ele>
        <time>2026-05-21T13:35:46.000Z</time>
      </trkpt>
      <trkpt lat="43.77253" lon="3.8416">
        <ele>318.4</ele>
        <time>2026-05-21T13:35:47.000Z</time>
      </trkpt>
      <trkpt lat="43.77252" lon="3.84159">
        <ele>319</ele>
        <time>2026-05-21T13:35:48.000Z</time>
      </trkpt>
      <trkpt lat="43.77251" lon="3.84158">
        <ele>318.8</ele>
        <time>2026-05-21T13:35:49.000Z</time>
      </trkpt>
      <trkpt lat="43.7725" lon="3.84156">
        <ele>318.9</ele>
        <time>2026-05-21T13:35:50.000Z</time>
      </trkpt>
      <trkpt lat="43.77249" lon="3.84156">
        <ele>319.3</ele>
        <time>2026-05-21T13:35:51.000Z</time>
      </trkpt>
      <trkpt lat="43.77247" lon="3.84155">
        <ele>320.1</ele>
        <time>2026-05-21T13:35:52.000Z</time>
      </trkpt>
      <trkpt lat="43.77246" lon="3.84155">
        <ele>320.2</ele>
        <time>2026-05-21T13:35:53.000Z</time>
      </trkpt>
      <trkpt lat="43.77245" lon="3.84154">
        <ele>320.4</ele>
        <time>2026-05-21T13:35:54.000Z</time>
      </trkpt>
      <trkpt lat="43.77244" lon="3.84153">
        <ele>320.4</ele>
        <time>2026-05-21T13:35:55.000Z</time>
      </trkpt>
      <trkpt lat="43.77242" lon="3.84152">
        <ele>320.6</ele>
        <time>2026-05-21T13:35:56.000Z</time>
      </trkpt>
      <trkpt lat="43.77242" lon="3.84152">
        <ele>320.5</ele>
        <time>2026-05-21T13:35:57.000Z</time>
      </trkpt>
      <trkpt lat="43.77241" lon="3.84152">
        <ele>320.6</ele>
        <time>2026-05-21T13:35:58.000Z</time>
      </trkpt>
      <trkpt lat="43.7724" lon="3.84151">
        <ele>321</ele>
        <time>2026-05-21T13:35:59.000Z</time>
      </trkpt>
      <trkpt lat="43.7724" lon="3.84151">
        <ele>320.8</ele>
        <time>2026-05-21T13:36:00.000Z</time>
      </trkpt>
      <trkpt lat="43.77239" lon="3.84151">
        <ele>320.6</ele>
        <time>2026-05-21T13:36:01.000Z</time>
      </trkpt>
      <trkpt lat="43.77238" lon="3.84151">
        <ele>320.6</ele>
        <time>2026-05-21T13:36:02.000Z</time>
      </trkpt>
      <trkpt lat="43.77237" lon="3.8415">
        <ele>320.5</ele>
        <time>2026-05-21T13:36:03.000Z</time>
      </trkpt>
      <trkpt lat="43.77236" lon="3.84149">
        <ele>320.3</ele>
        <time>2026-05-21T13:36:04.000Z</time>
      </trkpt>
      <trkpt lat="43.77236" lon="3.84147">
        <ele>320.3</ele>
        <time>2026-05-21T13:36:05.000Z</time>
      </trkpt>
      <trkpt lat="43.77235" lon="3.84146">
        <ele>319.9</ele>
        <time>2026-05-21T13:36:06.000Z</time>
      </trkpt>
      <trkpt lat="43.77234" lon="3.84147">
        <ele>320</ele>
        <time>2026-05-21T13:36:07.000Z</time>
      </trkpt>
      <trkpt lat="43.77232" lon="3.84148">
        <ele>320.2</ele>
        <time>2026-05-21T13:36:08.000Z</time>
      </trkpt>
      <trkpt lat="43.77232" lon="3.84147">
        <ele>319.8</ele>
        <time>2026-05-21T13:36:09.000Z</time>
      </trkpt>
      <trkpt lat="43.77231" lon="3.84147">
        <ele>319</ele>
        <time>2026-05-21T13:36:10.000Z</time>
      </trkpt>
      <trkpt lat="43.7723" lon="3.84147">
        <ele>318.8</ele>
        <time>2026-05-21T13:36:11.000Z</time>
      </trkpt>
      <trkpt lat="43.77229" lon="3.84146">
        <ele>318.5</ele>
        <time>2026-05-21T13:36:12.000Z</time>
      </trkpt>
      <trkpt lat="43.77229" lon="3.84145">
        <ele>318.4</ele>
        <time>2026-05-21T13:36:13.000Z</time>
      </trkpt>
      <trkpt lat="43.77228" lon="3.84143">
        <ele>318.1</ele>
        <time>2026-05-21T13:36:14.000Z</time>
      </trkpt>
      <trkpt lat="43.77226" lon="3.84143">
        <ele>318</ele>
        <time>2026-05-21T13:36:15.000Z</time>
      </trkpt>
      <trkpt lat="43.77226" lon="3.84142">
        <ele>318.1</ele>
        <time>2026-05-21T13:36:16.000Z</time>
      </trkpt>
      <trkpt lat="43.77224" lon="3.8414">
        <ele>318</ele>
        <time>2026-05-21T13:36:17.000Z</time>
      </trkpt>
      <trkpt lat="43.77223" lon="3.84139">
        <ele>317.9</ele>
        <time>2026-05-21T13:36:18.000Z</time>
      </trkpt>
      <trkpt lat="43.77223" lon="3.84138">
        <ele>317.9</ele>
        <time>2026-05-21T13:36:19.000Z</time>
      </trkpt>
      <trkpt lat="43.77222" lon="3.84137">
        <ele>318.2</ele>
        <time>2026-05-21T13:36:20.000Z</time>
      </trkpt>
      <trkpt lat="43.77221" lon="3.84135">
        <ele>318.6</ele>
        <time>2026-05-21T13:36:21.000Z</time>
      </trkpt>
      <trkpt lat="43.7722" lon="3.84134">
        <ele>319.2</ele>
        <time>2026-05-21T13:36:22.000Z</time>
      </trkpt>
      <trkpt lat="43.77218" lon="3.84133">
        <ele>319.8</ele>
        <time>2026-05-21T13:36:23.000Z</time>
      </trkpt>
      <trkpt lat="43.77218" lon="3.84132">
        <ele>319.8</ele>
        <time>2026-05-21T13:36:24.000Z</time>
      </trkpt>
      <trkpt lat="43.77217" lon="3.84132">
        <ele>319.4</ele>
        <time>2026-05-21T13:36:25.000Z</time>
      </trkpt>
      <trkpt lat="43.77217" lon="3.84132">
        <ele>319.3</ele>
        <time>2026-05-21T13:36:26.000Z</time>
      </trkpt>
      <trkpt lat="43.77216" lon="3.84132">
        <ele>319.4</ele>
        <time>2026-05-21T13:36:27.000Z</time>
      </trkpt>
      <trkpt lat="43.77214" lon="3.84131">
        <ele>318.8</ele>
        <time>2026-05-21T13:36:28.000Z</time>
      </trkpt>
      <trkpt lat="43.77213" lon="3.8413">
        <ele>318.4</ele>
        <time>2026-05-21T13:36:29.000Z</time>
      </trkpt>
      <trkpt lat="43.77211" lon="3.8413">
        <ele>318.4</ele>
        <time>2026-05-21T13:36:30.000Z</time>
      </trkpt>
      <trkpt lat="43.7721" lon="3.84129">
        <ele>318.4</ele>
        <time>2026-05-21T13:36:31.000Z</time>
      </trkpt>
      <trkpt lat="43.77208" lon="3.84129">
        <ele>318.4</ele>
        <time>2026-05-21T13:36:32.000Z</time>
      </trkpt>
      <trkpt lat="43.77207" lon="3.84129">
        <ele>318.6</ele>
        <time>2026-05-21T13:36:33.000Z</time>
      </trkpt>
      <trkpt lat="43.77206" lon="3.84128">
        <ele>319</ele>
        <time>2026-05-21T13:36:34.000Z</time>
      </trkpt>
      <trkpt lat="43.77204" lon="3.84128">
        <ele>319</ele>
        <time>2026-05-21T13:36:35.000Z</time>
      </trkpt>
      <trkpt lat="43.77203" lon="3.84128">
        <ele>319.2</ele>
        <time>2026-05-21T13:36:36.000Z</time>
      </trkpt>
      <trkpt lat="43.77202" lon="3.84127">
        <ele>318.7</ele>
        <time>2026-05-21T13:36:37.000Z</time>
      </trkpt>
      <trkpt lat="43.77201" lon="3.84127">
        <ele>318.6</ele>
        <time>2026-05-21T13:36:38.000Z</time>
      </trkpt>
      <trkpt lat="43.77201" lon="3.84126">
        <ele>318.7</ele>
        <time>2026-05-21T13:36:39.000Z</time>
      </trkpt>
      <trkpt lat="43.772" lon="3.84125">
        <ele>318.7</ele>
        <time>2026-05-21T13:36:40.000Z</time>
      </trkpt>
      <trkpt lat="43.77199" lon="3.84123">
        <ele>318.6</ele>
        <time>2026-05-21T13:36:41.000Z</time>
      </trkpt>
      <trkpt lat="43.77199" lon="3.84122">
        <ele>318.9</ele>
        <time>2026-05-21T13:36:42.000Z</time>
      </trkpt>
      <trkpt lat="43.77198" lon="3.84121">
        <ele>318.8</ele>
        <time>2026-05-21T13:36:43.000Z</time>
      </trkpt>
      <trkpt lat="43.77197" lon="3.84121">
        <ele>319</ele>
        <time>2026-05-21T13:36:44.000Z</time>
      </trkpt>
      <trkpt lat="43.77196" lon="3.84121">
        <ele>319.2</ele>
        <time>2026-05-21T13:36:45.000Z</time>
      </trkpt>
      <trkpt lat="43.77196" lon="3.8412">
        <ele>319</ele>
        <time>2026-05-21T13:36:46.000Z</time>
      </trkpt>
      <trkpt lat="43.77195" lon="3.84119">
        <ele>318.7</ele>
        <time>2026-05-21T13:36:47.000Z</time>
      </trkpt>
      <trkpt lat="43.77194" lon="3.84117">
        <ele>318.6</ele>
        <time>2026-05-21T13:36:48.000Z</time>
      </trkpt>
      <trkpt lat="43.77194" lon="3.84115">
        <ele>318.4</ele>
        <time>2026-05-21T13:36:49.000Z</time>
      </trkpt>
      <trkpt lat="43.77193" lon="3.84114">
        <ele>318.4</ele>
        <time>2026-05-21T13:36:50.000Z</time>
      </trkpt>
      <trkpt lat="43.77192" lon="3.84113">
        <ele>318.8</ele>
        <time>2026-05-21T13:36:51.000Z</time>
      </trkpt>
      <trkpt lat="43.77191" lon="3.84113">
        <ele>319</ele>
        <time>2026-05-21T13:36:52.000Z</time>
      </trkpt>
      <trkpt lat="43.7719" lon="3.84112">
        <ele>319.1</ele>
        <time>2026-05-21T13:36:53.000Z</time>
      </trkpt>
      <trkpt lat="43.77189" lon="3.84112">
        <ele>319.1</ele>
        <time>2026-05-21T13:36:54.000Z</time>
      </trkpt>
      <trkpt lat="43.77188" lon="3.84112">
        <ele>319</ele>
        <time>2026-05-21T13:36:55.000Z</time>
      </trkpt>
      <trkpt lat="43.77187" lon="3.84111">
        <ele>318.8</ele>
        <time>2026-05-21T13:36:56.000Z</time>
      </trkpt>
      <trkpt lat="43.77187" lon="3.8411">
        <ele>318.8</ele>
        <time>2026-05-21T13:36:57.000Z</time>
      </trkpt>
      <trkpt lat="43.77187" lon="3.84108">
        <ele>318.8</ele>
        <time>2026-05-21T13:36:58.000Z</time>
      </trkpt>
      <trkpt lat="43.77187" lon="3.84106">
        <ele>319.2</ele>
        <time>2026-05-21T13:36:59.000Z</time>
      </trkpt>
      <trkpt lat="43.77186" lon="3.84104">
        <ele>318.8</ele>
        <time>2026-05-21T13:37:00.000Z</time>
      </trkpt>
      <trkpt lat="43.77186" lon="3.84102">
        <ele>318.1</ele>
        <time>2026-05-21T13:37:01.000Z</time>
      </trkpt>
      <trkpt lat="43.77186" lon="3.84101">
        <ele>318</ele>
        <time>2026-05-21T13:37:02.000Z</time>
      </trkpt>
      <trkpt lat="43.77185" lon="3.841">
        <ele>317.4</ele>
        <time>2026-05-21T13:37:03.000Z</time>
      </trkpt>
      <trkpt lat="43.77184" lon="3.841">
        <ele>317.2</ele>
        <time>2026-05-21T13:37:04.000Z</time>
      </trkpt>
      <trkpt lat="43.77183" lon="3.84099">
        <ele>316.6</ele>
        <time>2026-05-21T13:37:05.000Z</time>
      </trkpt>
      <trkpt lat="43.77182" lon="3.84098">
        <ele>316.4</ele>
        <time>2026-05-21T13:37:06.000Z</time>
      </trkpt>
      <trkpt lat="43.77181" lon="3.84097">
        <ele>316.4</ele>
        <time>2026-05-21T13:37:07.000Z</time>
      </trkpt>
      <trkpt lat="43.7718" lon="3.84096">
        <ele>315.9</ele>
        <time>2026-05-21T13:37:08.000Z</time>
      </trkpt>
      <trkpt lat="43.77179" lon="3.84096">
        <ele>315.4</ele>
        <time>2026-05-21T13:37:09.000Z</time>
      </trkpt>
      <trkpt lat="43.77178" lon="3.84095">
        <ele>315.6</ele>
        <time>2026-05-21T13:37:10.000Z</time>
      </trkpt>
      <trkpt lat="43.77177" lon="3.84094">
        <ele>315.6</ele>
        <time>2026-05-21T13:37:11.000Z</time>
      </trkpt>
      <trkpt lat="43.77177" lon="3.84092">
        <ele>315.9</ele>
        <time>2026-05-21T13:37:12.000Z</time>
      </trkpt>
      <trkpt lat="43.77177" lon="3.84091">
        <ele>315.8</ele>
        <time>2026-05-21T13:37:13.000Z</time>
      </trkpt>
      <trkpt lat="43.77176" lon="3.8409">
        <ele>315.8</ele>
        <time>2026-05-21T13:37:14.000Z</time>
      </trkpt>
      <trkpt lat="43.77175" lon="3.84089">
        <ele>315.8</ele>
        <time>2026-05-21T13:37:15.000Z</time>
      </trkpt>
      <trkpt lat="43.77174" lon="3.84088">
        <ele>315.7</ele>
        <time>2026-05-21T13:37:16.000Z</time>
      </trkpt>
      <trkpt lat="43.77173" lon="3.84087">
        <ele>316.2</ele>
        <time>2026-05-21T13:37:17.000Z</time>
      </trkpt>
      <trkpt lat="43.77172" lon="3.84086">
        <ele>316.5</ele>
        <time>2026-05-21T13:37:18.000Z</time>
      </trkpt>
      <trkpt lat="43.77171" lon="3.84086">
        <ele>316.5</ele>
        <time>2026-05-21T13:37:19.000Z</time>
      </trkpt>
      <trkpt lat="43.7717" lon="3.84085">
        <ele>316.2</ele>
        <time>2026-05-21T13:37:20.000Z</time>
      </trkpt>
      <trkpt lat="43.77169" lon="3.84084">
        <ele>316</ele>
        <time>2026-05-21T13:37:21.000Z</time>
      </trkpt>
      <trkpt lat="43.77168" lon="3.84084">
        <ele>316.3</ele>
        <time>2026-05-21T13:37:22.000Z</time>
      </trkpt>
      <trkpt lat="43.77167" lon="3.84082">
        <ele>316.8</ele>
        <time>2026-05-21T13:37:23.000Z</time>
      </trkpt>
      <trkpt lat="43.77166" lon="3.8408">
        <ele>317</ele>
        <time>2026-05-21T13:37:24.000Z</time>
      </trkpt>
      <trkpt lat="43.77164" lon="3.84079">
        <ele>316.9</ele>
        <time>2026-05-21T13:37:25.000Z</time>
      </trkpt>
      <trkpt lat="43.77164" lon="3.84078">
        <ele>316.4</ele>
        <time>2026-05-21T13:37:26.000Z</time>
      </trkpt>
      <trkpt lat="43.77163" lon="3.84078">
        <ele>316.3</ele>
        <time>2026-05-21T13:37:27.000Z</time>
      </trkpt>
      <trkpt lat="43.77162" lon="3.84077">
        <ele>316.6</ele>
        <time>2026-05-21T13:37:28.000Z</time>
      </trkpt>
      <trkpt lat="43.77162" lon="3.84077">
        <ele>317.1</ele>
        <time>2026-05-21T13:37:29.000Z</time>
      </trkpt>
      <trkpt lat="43.77161" lon="3.84077">
        <ele>317.5</ele>
        <time>2026-05-21T13:37:30.000Z</time>
      </trkpt>
      <trkpt lat="43.7716" lon="3.84076">
        <ele>318.3</ele>
        <time>2026-05-21T13:37:31.000Z</time>
      </trkpt>
      <trkpt lat="43.77159" lon="3.84076">
        <ele>318.6</ele>
        <time>2026-05-21T13:37:32.000Z</time>
      </trkpt>
      <trkpt lat="43.77158" lon="3.84075">
        <ele>318.4</ele>
        <time>2026-05-21T13:37:33.000Z</time>
      </trkpt>
      <trkpt lat="43.77157" lon="3.84074">
        <ele>318.1</ele>
        <time>2026-05-21T13:37:34.000Z</time>
      </trkpt>
      <trkpt lat="43.77157" lon="3.84073">
        <ele>317.8</ele>
        <time>2026-05-21T13:37:35.000Z</time>
      </trkpt>
      <trkpt lat="43.77157" lon="3.84071">
        <ele>317.6</ele>
        <time>2026-05-21T13:37:36.000Z</time>
      </trkpt>
      <trkpt lat="43.77156" lon="3.8407">
        <ele>317.5</ele>
        <time>2026-05-21T13:37:37.000Z</time>
      </trkpt>
      <trkpt lat="43.77155" lon="3.84068">
        <ele>317.3</ele>
        <time>2026-05-21T13:37:38.000Z</time>
      </trkpt>
      <trkpt lat="43.77155" lon="3.84067">
        <ele>317.3</ele>
        <time>2026-05-21T13:37:39.000Z</time>
      </trkpt>
      <trkpt lat="43.77154" lon="3.84067">
        <ele>317.2</ele>
        <time>2026-05-21T13:37:40.000Z</time>
      </trkpt>
      <trkpt lat="43.77153" lon="3.84067">
        <ele>317.2</ele>
        <time>2026-05-21T13:37:41.000Z</time>
      </trkpt>
      <trkpt lat="43.77152" lon="3.84067">
        <ele>317.2</ele>
        <time>2026-05-21T13:37:42.000Z</time>
      </trkpt>
      <trkpt lat="43.77151" lon="3.84066">
        <ele>317.2</ele>
        <time>2026-05-21T13:37:43.000Z</time>
      </trkpt>
      <trkpt lat="43.7715" lon="3.84064">
        <ele>316.7</ele>
        <time>2026-05-21T13:37:44.000Z</time>
      </trkpt>
      <trkpt lat="43.7715" lon="3.84063">
        <ele>316.6</ele>
        <time>2026-05-21T13:37:45.000Z</time>
      </trkpt>
      <trkpt lat="43.77149" lon="3.84062">
        <ele>316.4</ele>
        <time>2026-05-21T13:37:46.000Z</time>
      </trkpt>
      <trkpt lat="43.77148" lon="3.84061">
        <ele>316.1</ele>
        <time>2026-05-21T13:37:47.000Z</time>
      </trkpt>
      <trkpt lat="43.77147" lon="3.8406">
        <ele>315.8</ele>
        <time>2026-05-21T13:37:48.000Z</time>
      </trkpt>
      <trkpt lat="43.77147" lon="3.8406">
        <ele>315.3</ele>
        <time>2026-05-21T13:37:49.000Z</time>
      </trkpt>
      <trkpt lat="43.77146" lon="3.84058">
        <ele>314.8</ele>
        <time>2026-05-21T13:37:50.000Z</time>
      </trkpt>
      <trkpt lat="43.77145" lon="3.84057">
        <ele>314.3</ele>
        <time>2026-05-21T13:37:51.000Z</time>
      </trkpt>
      <trkpt lat="43.77145" lon="3.84056">
        <ele>314.2</ele>
        <time>2026-05-21T13:37:52.000Z</time>
      </trkpt>
      <trkpt lat="43.77144" lon="3.84054">
        <ele>314</ele>
        <time>2026-05-21T13:37:53.000Z</time>
      </trkpt>
      <trkpt lat="43.77144" lon="3.84053">
        <ele>314</ele>
        <time>2026-05-21T13:37:54.000Z</time>
      </trkpt>
      <trkpt lat="43.77143" lon="3.84052">
        <ele>313.9</ele>
        <time>2026-05-21T13:37:55.000Z</time>
      </trkpt>
      <trkpt lat="43.77142" lon="3.84053">
        <ele>313.9</ele>
        <time>2026-05-21T13:37:56.000Z</time>
      </trkpt>
      <trkpt lat="43.77142" lon="3.84052">
        <ele>313.8</ele>
        <time>2026-05-21T13:37:57.000Z</time>
      </trkpt>
      <trkpt lat="43.77141" lon="3.84051">
        <ele>313.8</ele>
        <time>2026-05-21T13:37:58.000Z</time>
      </trkpt>
      <trkpt lat="43.7714" lon="3.8405">
        <ele>314.1</ele>
        <time>2026-05-21T13:37:59.000Z</time>
      </trkpt>
      <trkpt lat="43.77139" lon="3.84049">
        <ele>314.5</ele>
        <time>2026-05-21T13:38:00.000Z</time>
      </trkpt>
      <trkpt lat="43.77139" lon="3.84048">
        <ele>314.7</ele>
        <time>2026-05-21T13:38:01.000Z</time>
      </trkpt>
      <trkpt lat="43.77138" lon="3.84047">
        <ele>314.6</ele>
        <time>2026-05-21T13:38:02.000Z</time>
      </trkpt>
      <trkpt lat="43.77137" lon="3.84047">
        <ele>314.4</ele>
        <time>2026-05-21T13:38:03.000Z</time>
      </trkpt>
      <trkpt lat="43.77136" lon="3.84046">
        <ele>314.1</ele>
        <time>2026-05-21T13:38:04.000Z</time>
      </trkpt>
      <trkpt lat="43.77135" lon="3.84046">
        <ele>313.8</ele>
        <time>2026-05-21T13:38:05.000Z</time>
      </trkpt>
      <trkpt lat="43.77135" lon="3.84045">
        <ele>314</ele>
        <time>2026-05-21T13:38:06.000Z</time>
      </trkpt>
      <trkpt lat="43.77134" lon="3.84045">
        <ele>314.3</ele>
        <time>2026-05-21T13:38:07.000Z</time>
      </trkpt>
      <trkpt lat="43.77133" lon="3.84044">
        <ele>314.4</ele>
        <time>2026-05-21T13:38:08.000Z</time>
      </trkpt>
      <trkpt lat="43.77132" lon="3.84044">
        <ele>314.2</ele>
        <time>2026-05-21T13:38:09.000Z</time>
      </trkpt>
      <trkpt lat="43.77131" lon="3.84043">
        <ele>314</ele>
        <time>2026-05-21T13:38:10.000Z</time>
      </trkpt>
      <trkpt lat="43.7713" lon="3.84042">
        <ele>313.6</ele>
        <time>2026-05-21T13:38:11.000Z</time>
      </trkpt>
      <trkpt lat="43.77129" lon="3.84041">
        <ele>312.8</ele>
        <time>2026-05-21T13:38:12.000Z</time>
      </trkpt>
      <trkpt lat="43.77128" lon="3.8404">
        <ele>312.4</ele>
        <time>2026-05-21T13:38:13.000Z</time>
      </trkpt>
      <trkpt lat="43.77126" lon="3.8404">
        <ele>312.3</ele>
        <time>2026-05-21T13:38:14.000Z</time>
      </trkpt>
      <trkpt lat="43.77125" lon="3.8404">
        <ele>312</ele>
        <time>2026-05-21T13:38:15.000Z</time>
      </trkpt>
      <trkpt lat="43.77124" lon="3.8404">
        <ele>312.2</ele>
        <time>2026-05-21T13:38:16.000Z</time>
      </trkpt>
      <trkpt lat="43.77123" lon="3.84041">
        <ele>312.4</ele>
        <time>2026-05-21T13:38:17.000Z</time>
      </trkpt>
      <trkpt lat="43.77122" lon="3.84042">
        <ele>312.6</ele>
        <time>2026-05-21T13:38:18.000Z</time>
      </trkpt>
      <trkpt lat="43.77121" lon="3.84042">
        <ele>312.8</ele>
        <time>2026-05-21T13:38:19.000Z</time>
      </trkpt>
      <trkpt lat="43.77121" lon="3.84044">
        <ele>313.1</ele>
        <time>2026-05-21T13:38:20.000Z</time>
      </trkpt>
      <trkpt lat="43.77121" lon="3.84045">
        <ele>313.2</ele>
        <time>2026-05-21T13:38:21.000Z</time>
      </trkpt>
      <trkpt lat="43.7712" lon="3.84046">
        <ele>312.9</ele>
        <time>2026-05-21T13:38:22.000Z</time>
      </trkpt>
      <trkpt lat="43.7712" lon="3.84047">
        <ele>312.6</ele>
        <time>2026-05-21T13:38:23.000Z</time>
      </trkpt>
      <trkpt lat="43.77119" lon="3.84048">
        <ele>312.6</ele>
        <time>2026-05-21T13:38:24.000Z</time>
      </trkpt>
      <trkpt lat="43.77119" lon="3.84049">
        <ele>312.3</ele>
        <time>2026-05-21T13:38:25.000Z</time>
      </trkpt>
      <trkpt lat="43.77119" lon="3.84051">
        <ele>312.1</ele>
        <time>2026-05-21T13:38:26.000Z</time>
      </trkpt>
      <trkpt lat="43.77119" lon="3.84052">
        <ele>312.3</ele>
        <time>2026-05-21T13:38:27.000Z</time>
      </trkpt>
      <trkpt lat="43.77118" lon="3.84053">
        <ele>312.3</ele>
        <time>2026-05-21T13:38:28.000Z</time>
      </trkpt>
      <trkpt lat="43.77118" lon="3.84055">
        <ele>311.8</ele>
        <time>2026-05-21T13:38:29.000Z</time>
      </trkpt>
      <trkpt lat="43.77118" lon="3.84057">
        <ele>311.3</ele>
        <time>2026-05-21T13:38:30.000Z</time>
      </trkpt>
      <trkpt lat="43.77117" lon="3.84059">
        <ele>311</ele>
        <time>2026-05-21T13:38:31.000Z</time>
      </trkpt>
      <trkpt lat="43.77117" lon="3.8406">
        <ele>310.8</ele>
        <time>2026-05-21T13:38:32.000Z</time>
      </trkpt>
      <trkpt lat="43.77117" lon="3.84061">
        <ele>310.5</ele>
        <time>2026-05-21T13:38:33.000Z</time>
      </trkpt>
      <trkpt lat="43.77118" lon="3.84061">
        <ele>310.2</ele>
        <time>2026-05-21T13:38:34.000Z</time>
      </trkpt>
      <trkpt lat="43.77118" lon="3.84062">
        <ele>310.3</ele>
        <time>2026-05-21T13:38:35.000Z</time>
      </trkpt>
      <trkpt lat="43.77117" lon="3.84063">
        <ele>310.1</ele>
        <time>2026-05-21T13:38:36.000Z</time>
      </trkpt>
      <trkpt lat="43.77117" lon="3.84066">
        <ele>309.9</ele>
        <time>2026-05-21T13:38:37.000Z</time>
      </trkpt>
      <trkpt lat="43.77116" lon="3.84067">
        <ele>309.7</ele>
        <time>2026-05-21T13:38:38.000Z</time>
      </trkpt>
      <trkpt lat="43.77116" lon="3.84067">
        <ele>309.5</ele>
        <time>2026-05-21T13:38:39.000Z</time>
      </trkpt>
      <trkpt lat="43.77116" lon="3.84068">
        <ele>309.1</ele>
        <time>2026-05-21T13:38:40.000Z</time>
      </trkpt>
      <trkpt lat="43.77116" lon="3.84069">
        <ele>308.7</ele>
        <time>2026-05-21T13:38:41.000Z</time>
      </trkpt>
      <trkpt lat="43.77116" lon="3.84069">
        <ele>308.6</ele>
        <time>2026-05-21T13:38:42.000Z</time>
      </trkpt>
      <trkpt lat="43.77116" lon="3.84069">
        <ele>308.2</ele>
        <time>2026-05-21T13:38:43.000Z</time>
      </trkpt>
      <trkpt lat="43.77116" lon="3.84069">
        <ele>308</ele>
        <time>2026-05-21T13:38:44.000Z</time>
      </trkpt>
      <trkpt lat="43.77116" lon="3.84069">
        <ele>308</ele>
        <time>2026-05-21T13:38:45.000Z</time>
      </trkpt>
      <trkpt lat="43.77116" lon="3.8407">
        <ele>307.7</ele>
        <time>2026-05-21T13:38:46.000Z</time>
      </trkpt>
      <trkpt lat="43.77116" lon="3.8407">
        <ele>307.3</ele>
        <time>2026-05-21T13:38:47.000Z</time>
      </trkpt>
      <trkpt lat="43.77115" lon="3.84071">
        <ele>307.2</ele>
        <time>2026-05-21T13:38:48.000Z</time>
      </trkpt>
      <trkpt lat="43.77114" lon="3.84073">
        <ele>307</ele>
        <time>2026-05-21T13:38:49.000Z</time>
      </trkpt>
      <trkpt lat="43.77113" lon="3.84075">
        <ele>307</ele>
        <time>2026-05-21T13:38:50.000Z</time>
      </trkpt>
      <trkpt lat="43.77112" lon="3.84076">
        <ele>306.9</ele>
        <time>2026-05-21T13:38:51.000Z</time>
      </trkpt>
      <trkpt lat="43.77112" lon="3.84078">
        <ele>306.8</ele>
        <time>2026-05-21T13:38:52.000Z</time>
      </trkpt>
      <trkpt lat="43.77111" lon="3.8408">
        <ele>306.9</ele>
        <time>2026-05-21T13:38:53.000Z</time>
      </trkpt>
      <trkpt lat="43.7711" lon="3.84083">
        <ele>307</ele>
        <time>2026-05-21T13:38:54.000Z</time>
      </trkpt>
      <trkpt lat="43.77109" lon="3.84085">
        <ele>306.9</ele>
        <time>2026-05-21T13:38:55.000Z</time>
      </trkpt>
      <trkpt lat="43.77108" lon="3.84088">
        <ele>307</ele>
        <time>2026-05-21T13:38:56.000Z</time>
      </trkpt>
      <trkpt lat="43.77107" lon="3.84089">
        <ele>307.3</ele>
        <time>2026-05-21T13:38:57.000Z</time>
      </trkpt>
      <trkpt lat="43.77106" lon="3.8409">
        <ele>306.9</ele>
        <time>2026-05-21T13:38:58.000Z</time>
      </trkpt>
      <trkpt lat="43.77105" lon="3.84091">
        <ele>306.9</ele>
        <time>2026-05-21T13:38:59.000Z</time>
      </trkpt>
      <trkpt lat="43.77104" lon="3.84092">
        <ele>306.6</ele>
        <time>2026-05-21T13:39:00.000Z</time>
      </trkpt>
      <trkpt lat="43.77104" lon="3.84093">
        <ele>306.3</ele>
        <time>2026-05-21T13:39:01.000Z</time>
      </trkpt>
      <trkpt lat="43.77103" lon="3.84094">
        <ele>306.4</ele>
        <time>2026-05-21T13:39:02.000Z</time>
      </trkpt>
      <trkpt lat="43.77102" lon="3.84094">
        <ele>306.4</ele>
        <time>2026-05-21T13:39:03.000Z</time>
      </trkpt>
      <trkpt lat="43.77102" lon="3.84094">
        <ele>306.4</ele>
        <time>2026-05-21T13:39:04.000Z</time>
      </trkpt>
      <trkpt lat="43.77101" lon="3.84095">
        <ele>306.4</ele>
        <time>2026-05-21T13:39:05.000Z</time>
      </trkpt>
      <trkpt lat="43.771" lon="3.84096">
        <ele>306.6</ele>
        <time>2026-05-21T13:39:06.000Z</time>
      </trkpt>
      <trkpt lat="43.771" lon="3.84098">
        <ele>306.6</ele>
        <time>2026-05-21T13:39:07.000Z</time>
      </trkpt>
      <trkpt lat="43.77099" lon="3.84098">
        <ele>306.3</ele>
        <time>2026-05-21T13:39:08.000Z</time>
      </trkpt>
      <trkpt lat="43.77099" lon="3.84098">
        <ele>306.1</ele>
        <time>2026-05-21T13:39:09.000Z</time>
      </trkpt>
      <trkpt lat="43.77098" lon="3.84099">
        <ele>305.9</ele>
        <time>2026-05-21T13:39:10.000Z</time>
      </trkpt>
      <trkpt lat="43.77097" lon="3.841">
        <ele>306.2</ele>
        <time>2026-05-21T13:39:11.000Z</time>
      </trkpt>
      <trkpt lat="43.77096" lon="3.84101">
        <ele>306.8</ele>
        <time>2026-05-21T13:39:12.000Z</time>
      </trkpt>
      <trkpt lat="43.77096" lon="3.84102">
        <ele>306.8</ele>
        <time>2026-05-21T13:39:13.000Z</time>
      </trkpt>
      <trkpt lat="43.77096" lon="3.84103">
        <ele>306.9</ele>
        <time>2026-05-21T13:39:14.000Z</time>
      </trkpt>
      <trkpt lat="43.77095" lon="3.84104">
        <ele>307</ele>
        <time>2026-05-21T13:39:15.000Z</time>
      </trkpt>
      <trkpt lat="43.77094" lon="3.84105">
        <ele>306.9</ele>
        <time>2026-05-21T13:39:16.000Z</time>
      </trkpt>
      <trkpt lat="43.77093" lon="3.84105">
        <ele>306.6</ele>
        <time>2026-05-21T13:39:17.000Z</time>
      </trkpt>
      <trkpt lat="43.77093" lon="3.84105">
        <ele>306.6</ele>
        <time>2026-05-21T13:39:18.000Z</time>
      </trkpt>
      <trkpt lat="43.77092" lon="3.84106">
        <ele>306.7</ele>
        <time>2026-05-21T13:39:19.000Z</time>
      </trkpt>
      <trkpt lat="43.77091" lon="3.84107">
        <ele>306.4</ele>
        <time>2026-05-21T13:39:20.000Z</time>
      </trkpt>
      <trkpt lat="43.77091" lon="3.84108">
        <ele>306.1</ele>
        <time>2026-05-21T13:39:21.000Z</time>
      </trkpt>
      <trkpt lat="43.7709" lon="3.84109">
        <ele>305.9</ele>
        <time>2026-05-21T13:39:22.000Z</time>
      </trkpt>
      <trkpt lat="43.7709" lon="3.84111">
        <ele>305.8</ele>
        <time>2026-05-21T13:39:23.000Z</time>
      </trkpt>
      <trkpt lat="43.77089" lon="3.84112">
        <ele>306</ele>
        <time>2026-05-21T13:39:24.000Z</time>
      </trkpt>
      <trkpt lat="43.77088" lon="3.84112">
        <ele>305.8</ele>
        <time>2026-05-21T13:39:25.000Z</time>
      </trkpt>
      <trkpt lat="43.77087" lon="3.84113">
        <ele>305.5</ele>
        <time>2026-05-21T13:39:26.000Z</time>
      </trkpt>
      <trkpt lat="43.77086" lon="3.84115">
        <ele>305.2</ele>
        <time>2026-05-21T13:39:27.000Z</time>
      </trkpt>
      <trkpt lat="43.77085" lon="3.84116">
        <ele>304.6</ele>
        <time>2026-05-21T13:39:28.000Z</time>
      </trkpt>
      <trkpt lat="43.77084" lon="3.84116">
        <ele>304.1</ele>
        <time>2026-05-21T13:39:29.000Z</time>
      </trkpt>
      <trkpt lat="43.77083" lon="3.84117">
        <ele>303.8</ele>
        <time>2026-05-21T13:39:30.000Z</time>
      </trkpt>
      <trkpt lat="43.77083" lon="3.84117">
        <ele>303.7</ele>
        <time>2026-05-21T13:39:31.000Z</time>
      </trkpt>
      <trkpt lat="43.77082" lon="3.84118">
        <ele>303.5</ele>
        <time>2026-05-21T13:39:32.000Z</time>
      </trkpt>
      <trkpt lat="43.77081" lon="3.84119">
        <ele>303.3</ele>
        <time>2026-05-21T13:39:33.000Z</time>
      </trkpt>
      <trkpt lat="43.7708" lon="3.8412">
        <ele>303.2</ele>
        <time>2026-05-21T13:39:34.000Z</time>
      </trkpt>
      <trkpt lat="43.7708" lon="3.8412">
        <ele>303.5</ele>
        <time>2026-05-21T13:39:35.000Z</time>
      </trkpt>
      <trkpt lat="43.77079" lon="3.8412">
        <ele>303.5</ele>
        <time>2026-05-21T13:39:36.000Z</time>
      </trkpt>
      <trkpt lat="43.77078" lon="3.84121">
        <ele>303.6</ele>
        <time>2026-05-21T13:39:37.000Z</time>
      </trkpt>
      <trkpt lat="43.77078" lon="3.84123">
        <ele>303.6</ele>
        <time>2026-05-21T13:39:38.000Z</time>
      </trkpt>
      <trkpt lat="43.77077" lon="3.84124">
        <ele>303.7</ele>
        <time>2026-05-21T13:39:39.000Z</time>
      </trkpt>
      <trkpt lat="43.77076" lon="3.84125">
        <ele>303.4</ele>
        <time>2026-05-21T13:39:40.000Z</time>
      </trkpt>
      <trkpt lat="43.77075" lon="3.84126">
        <ele>303.7</ele>
        <time>2026-05-21T13:39:41.000Z</time>
      </trkpt>
      <trkpt lat="43.77074" lon="3.84126">
        <ele>304.2</ele>
        <time>2026-05-21T13:39:42.000Z</time>
      </trkpt>
      <trkpt lat="43.77074" lon="3.84127">
        <ele>304.6</ele>
        <time>2026-05-21T13:39:43.000Z</time>
      </trkpt>
      <trkpt lat="43.77073" lon="3.84128">
        <ele>304.9</ele>
        <time>2026-05-21T13:39:44.000Z</time>
      </trkpt>
      <trkpt lat="43.77073" lon="3.84129">
        <ele>305</ele>
        <time>2026-05-21T13:39:45.000Z</time>
      </trkpt>
      <trkpt lat="43.77072" lon="3.8413">
        <ele>304.9</ele>
        <time>2026-05-21T13:39:46.000Z</time>
      </trkpt>
      <trkpt lat="43.77071" lon="3.84132">
        <ele>305.1</ele>
        <time>2026-05-21T13:39:47.000Z</time>
      </trkpt>
      <trkpt lat="43.7707" lon="3.84132">
        <ele>305.1</ele>
        <time>2026-05-21T13:39:48.000Z</time>
      </trkpt>
      <trkpt lat="43.7707" lon="3.84132">
        <ele>305.3</ele>
        <time>2026-05-21T13:39:49.000Z</time>
      </trkpt>
      <trkpt lat="43.77069" lon="3.84133">
        <ele>305.4</ele>
        <time>2026-05-21T13:39:50.000Z</time>
      </trkpt>
      <trkpt lat="43.77068" lon="3.84134">
        <ele>305.2</ele>
        <time>2026-05-21T13:39:51.000Z</time>
      </trkpt>
      <trkpt lat="43.77068" lon="3.84135">
        <ele>305.1</ele>
        <time>2026-05-21T13:39:52.000Z</time>
      </trkpt>
      <trkpt lat="43.77067" lon="3.84136">
        <ele>304.7</ele>
        <time>2026-05-21T13:39:53.000Z</time>
      </trkpt>
      <trkpt lat="43.77067" lon="3.84137">
        <ele>305.1</ele>
        <time>2026-05-21T13:39:54.000Z</time>
      </trkpt>
      <trkpt lat="43.77066" lon="3.84138">
        <ele>305.2</ele>
        <time>2026-05-21T13:39:55.000Z</time>
      </trkpt>
      <trkpt lat="43.77065" lon="3.84138">
        <ele>305.3</ele>
        <time>2026-05-21T13:39:56.000Z</time>
      </trkpt>
      <trkpt lat="43.77064" lon="3.84139">
        <ele>305.2</ele>
        <time>2026-05-21T13:39:57.000Z</time>
      </trkpt>
      <trkpt lat="43.77062" lon="3.8414">
        <ele>305.4</ele>
        <time>2026-05-21T13:39:58.000Z</time>
      </trkpt>
      <trkpt lat="43.77062" lon="3.8414">
        <ele>304.9</ele>
        <time>2026-05-21T13:39:59.000Z</time>
      </trkpt>
      <trkpt lat="43.77061" lon="3.84142">
        <ele>304.5</ele>
        <time>2026-05-21T13:40:00.000Z</time>
      </trkpt>
      <trkpt lat="43.7706" lon="3.84142">
        <ele>304.5</ele>
        <time>2026-05-21T13:40:01.000Z</time>
      </trkpt>
      <trkpt lat="43.7706" lon="3.84143">
        <ele>304.6</ele>
        <time>2026-05-21T13:40:02.000Z</time>
      </trkpt>
      <trkpt lat="43.77059" lon="3.84143">
        <ele>304.5</ele>
        <time>2026-05-21T13:40:03.000Z</time>
      </trkpt>
      <trkpt lat="43.77059" lon="3.84144">
        <ele>304.4</ele>
        <time>2026-05-21T13:40:04.000Z</time>
      </trkpt>
      <trkpt lat="43.77058" lon="3.84144">
        <ele>304.5</ele>
        <time>2026-05-21T13:40:05.000Z</time>
      </trkpt>
      <trkpt lat="43.77058" lon="3.84145">
        <ele>304.4</ele>
        <time>2026-05-21T13:40:06.000Z</time>
      </trkpt>
      <trkpt lat="43.77057" lon="3.84147">
        <ele>304.5</ele>
        <time>2026-05-21T13:40:07.000Z</time>
      </trkpt>
      <trkpt lat="43.77056" lon="3.84148">
        <ele>304.8</ele>
        <time>2026-05-21T13:40:08.000Z</time>
      </trkpt>
      <trkpt lat="43.77055" lon="3.84148">
        <ele>304.7</ele>
        <time>2026-05-21T13:40:09.000Z</time>
      </trkpt>
      <trkpt lat="43.77055" lon="3.84148">
        <ele>305</ele>
        <time>2026-05-21T13:40:10.000Z</time>
      </trkpt>
      <trkpt lat="43.77053" lon="3.84149">
        <ele>305.2</ele>
        <time>2026-05-21T13:40:11.000Z</time>
      </trkpt>
      <trkpt lat="43.77052" lon="3.8415">
        <ele>305.3</ele>
        <time>2026-05-21T13:40:12.000Z</time>
      </trkpt>
      <trkpt lat="43.77051" lon="3.8415">
        <ele>304.9</ele>
        <time>2026-05-21T13:40:13.000Z</time>
      </trkpt>
      <trkpt lat="43.77051" lon="3.8415">
        <ele>304.8</ele>
        <time>2026-05-21T13:40:14.000Z</time>
      </trkpt>
      <trkpt lat="43.7705" lon="3.84151">
        <ele>305</ele>
        <time>2026-05-21T13:40:15.000Z</time>
      </trkpt>
      <trkpt lat="43.77049" lon="3.84152">
        <ele>305</ele>
        <time>2026-05-21T13:40:16.000Z</time>
      </trkpt>
      <trkpt lat="43.77048" lon="3.84152">
        <ele>305.3</ele>
        <time>2026-05-21T13:40:17.000Z</time>
      </trkpt>
      <trkpt lat="43.77047" lon="3.84153">
        <ele>305.6</ele>
        <time>2026-05-21T13:40:18.000Z</time>
      </trkpt>
      <trkpt lat="43.77047" lon="3.84153">
        <ele>305.3</ele>
        <time>2026-05-21T13:40:19.000Z</time>
      </trkpt>
      <trkpt lat="43.77046" lon="3.84154">
        <ele>305</ele>
        <time>2026-05-21T13:40:20.000Z</time>
      </trkpt>
      <trkpt lat="43.77045" lon="3.84156">
        <ele>304.6</ele>
        <time>2026-05-21T13:40:21.000Z</time>
      </trkpt>
      <trkpt lat="43.77044" lon="3.84156">
        <ele>304.7</ele>
        <time>2026-05-21T13:40:22.000Z</time>
      </trkpt>
      <trkpt lat="43.77043" lon="3.84157">
        <ele>305.1</ele>
        <time>2026-05-21T13:40:23.000Z</time>
      </trkpt>
      <trkpt lat="43.77043" lon="3.84159">
        <ele>305.3</ele>
        <time>2026-05-21T13:40:24.000Z</time>
      </trkpt>
      <trkpt lat="43.77043" lon="3.8416">
        <ele>305.4</ele>
        <time>2026-05-21T13:40:25.000Z</time>
      </trkpt>
      <trkpt lat="43.77042" lon="3.84161">
        <ele>305.2</ele>
        <time>2026-05-21T13:40:26.000Z</time>
      </trkpt>
      <trkpt lat="43.77041" lon="3.84162">
        <ele>305</ele>
        <time>2026-05-21T13:40:27.000Z</time>
      </trkpt>
      <trkpt lat="43.7704" lon="3.84163">
        <ele>305</ele>
        <time>2026-05-21T13:40:28.000Z</time>
      </trkpt>
      <trkpt lat="43.7704" lon="3.84164">
        <ele>304.8</ele>
        <time>2026-05-21T13:40:29.000Z</time>
      </trkpt>
      <trkpt lat="43.7704" lon="3.84164">
        <ele>304.6</ele>
        <time>2026-05-21T13:40:30.000Z</time>
      </trkpt>
      <trkpt lat="43.7704" lon="3.84164">
        <ele>304.3</ele>
        <time>2026-05-21T13:40:31.000Z</time>
      </trkpt>
      <trkpt lat="43.77039" lon="3.84165">
        <ele>304.5</ele>
        <time>2026-05-21T13:40:32.000Z</time>
      </trkpt>
      <trkpt lat="43.77039" lon="3.84165">
        <ele>304.8</ele>
        <time>2026-05-21T13:40:33.000Z</time>
      </trkpt>
      <trkpt lat="43.77038" lon="3.84166">
        <ele>304.5</ele>
        <time>2026-05-21T13:40:34.000Z</time>
      </trkpt>
      <trkpt lat="43.77037" lon="3.84168">
        <ele>304.3</ele>
        <time>2026-05-21T13:40:35.000Z</time>
      </trkpt>
      <trkpt lat="43.77037" lon="3.8417">
        <ele>303.6</ele>
        <time>2026-05-21T13:40:36.000Z</time>
      </trkpt>
      <trkpt lat="43.77036" lon="3.8417">
        <ele>303.8</ele>
        <time>2026-05-21T13:40:37.000Z</time>
      </trkpt>
      <trkpt lat="43.77036" lon="3.84171">
        <ele>303.7</ele>
        <time>2026-05-21T13:40:38.000Z</time>
      </trkpt>
      <trkpt lat="43.77035" lon="3.84172">
        <ele>303.6</ele>
        <time>2026-05-21T13:40:39.000Z</time>
      </trkpt>
      <trkpt lat="43.77034" lon="3.84173">
        <ele>304.2</ele>
        <time>2026-05-21T13:40:40.000Z</time>
      </trkpt>
      <trkpt lat="43.77034" lon="3.84174">
        <ele>304.4</ele>
        <time>2026-05-21T13:40:41.000Z</time>
      </trkpt>
      <trkpt lat="43.77033" lon="3.84174">
        <ele>304.6</ele>
        <time>2026-05-21T13:40:42.000Z</time>
      </trkpt>
      <trkpt lat="43.77032" lon="3.84174">
        <ele>304.9</ele>
        <time>2026-05-21T13:40:43.000Z</time>
      </trkpt>
      <trkpt lat="43.77031" lon="3.84174">
        <ele>304.9</ele>
        <time>2026-05-21T13:40:44.000Z</time>
      </trkpt>
      <trkpt lat="43.7703" lon="3.84174">
        <ele>304.7</ele>
        <time>2026-05-21T13:40:45.000Z</time>
      </trkpt>
      <trkpt lat="43.77029" lon="3.84175">
        <ele>304.8</ele>
        <time>2026-05-21T13:40:46.000Z</time>
      </trkpt>
      <trkpt lat="43.77029" lon="3.84176">
        <ele>304.7</ele>
        <time>2026-05-21T13:40:47.000Z</time>
      </trkpt>
      <trkpt lat="43.77028" lon="3.84176">
        <ele>304.5</ele>
        <time>2026-05-21T13:40:48.000Z</time>
      </trkpt>
      <trkpt lat="43.77028" lon="3.84177">
        <ele>304.4</ele>
        <time>2026-05-21T13:40:49.000Z</time>
      </trkpt>
      <trkpt lat="43.77027" lon="3.84177">
        <ele>304.1</ele>
        <time>2026-05-21T13:40:50.000Z</time>
      </trkpt>
      <trkpt lat="43.77025" lon="3.84178">
        <ele>304.3</ele>
        <time>2026-05-21T13:40:51.000Z</time>
      </trkpt>
      <trkpt lat="43.77024" lon="3.84178">
        <ele>304.1</ele>
        <time>2026-05-21T13:40:52.000Z</time>
      </trkpt>
      <trkpt lat="43.77023" lon="3.84179">
        <ele>304</ele>
        <time>2026-05-21T13:40:53.000Z</time>
      </trkpt>
      <trkpt lat="43.77022" lon="3.84179">
        <ele>304.2</ele>
        <time>2026-05-21T13:40:54.000Z</time>
      </trkpt>
      <trkpt lat="43.77021" lon="3.8418">
        <ele>304.2</ele>
        <time>2026-05-21T13:40:55.000Z</time>
      </trkpt>
      <trkpt lat="43.77021" lon="3.84181">
        <ele>304.3</ele>
        <time>2026-05-21T13:40:56.000Z</time>
      </trkpt>
      <trkpt lat="43.77021" lon="3.84182">
        <ele>303.7</ele>
        <time>2026-05-21T13:40:57.000Z</time>
      </trkpt>
      <trkpt lat="43.7702" lon="3.84182">
        <ele>303.1</ele>
        <time>2026-05-21T13:40:58.000Z</time>
      </trkpt>
      <trkpt lat="43.7702" lon="3.84183">
        <ele>302.9</ele>
        <time>2026-05-21T13:40:59.000Z</time>
      </trkpt>
      <trkpt lat="43.77019" lon="3.84184">
        <ele>302.9</ele>
        <time>2026-05-21T13:41:00.000Z</time>
      </trkpt>
      <trkpt lat="43.77019" lon="3.84185">
        <ele>302.6</ele>
        <time>2026-05-21T13:41:01.000Z</time>
      </trkpt>
      <trkpt lat="43.77018" lon="3.84186">
        <ele>302.3</ele>
        <time>2026-05-21T13:41:02.000Z</time>
      </trkpt>
      <trkpt lat="43.77017" lon="3.84188">
        <ele>302.6</ele>
        <time>2026-05-21T13:41:03.000Z</time>
      </trkpt>
      <trkpt lat="43.77017" lon="3.84188">
        <ele>302.4</ele>
        <time>2026-05-21T13:41:04.000Z</time>
      </trkpt>
      <trkpt lat="43.77016" lon="3.84189">
        <ele>302.3</ele>
        <time>2026-05-21T13:41:05.000Z</time>
      </trkpt>
      <trkpt lat="43.77016" lon="3.8419">
        <ele>302.3</ele>
        <time>2026-05-21T13:41:06.000Z</time>
      </trkpt>
      <trkpt lat="43.77015" lon="3.84191">
        <ele>302.2</ele>
        <time>2026-05-21T13:41:07.000Z</time>
      </trkpt>
      <trkpt lat="43.77014" lon="3.84192">
        <ele>301.8</ele>
        <time>2026-05-21T13:41:08.000Z</time>
      </trkpt>
      <trkpt lat="43.77014" lon="3.84193">
        <ele>301.4</ele>
        <time>2026-05-21T13:41:09.000Z</time>
      </trkpt>
      <trkpt lat="43.77013" lon="3.84194">
        <ele>301.1</ele>
        <time>2026-05-21T13:41:10.000Z</time>
      </trkpt>
      <trkpt lat="43.77012" lon="3.84195">
        <ele>301.4</ele>
        <time>2026-05-21T13:41:11.000Z</time>
      </trkpt>
      <trkpt lat="43.77012" lon="3.84196">
        <ele>301.1</ele>
        <time>2026-05-21T13:41:12.000Z</time>
      </trkpt>
      <trkpt lat="43.77011" lon="3.84197">
        <ele>300.8</ele>
        <time>2026-05-21T13:41:13.000Z</time>
      </trkpt>
      <trkpt lat="43.7701" lon="3.84198">
        <ele>301</ele>
        <time>2026-05-21T13:41:14.000Z</time>
      </trkpt>
      <trkpt lat="43.77009" lon="3.84199">
        <ele>301.2</ele>
        <time>2026-05-21T13:41:15.000Z</time>
      </trkpt>
      <trkpt lat="43.77008" lon="3.842">
        <ele>301.3</ele>
        <time>2026-05-21T13:41:16.000Z</time>
      </trkpt>
      <trkpt lat="43.77007" lon="3.842">
        <ele>301.6</ele>
        <time>2026-05-21T13:41:17.000Z</time>
      </trkpt>
      <trkpt lat="43.77006" lon="3.84201">
        <ele>301.3</ele>
        <time>2026-05-21T13:41:18.000Z</time>
      </trkpt>
      <trkpt lat="43.77006" lon="3.84202">
        <ele>301.6</ele>
        <time>2026-05-21T13:41:19.000Z</time>
      </trkpt>
      <trkpt lat="43.77004" lon="3.84202">
        <ele>301.9</ele>
        <time>2026-05-21T13:41:20.000Z</time>
      </trkpt>
      <trkpt lat="43.77004" lon="3.84203">
        <ele>301.8</ele>
        <time>2026-05-21T13:41:21.000Z</time>
      </trkpt>
      <trkpt lat="43.77003" lon="3.84204">
        <ele>301.3</ele>
        <time>2026-05-21T13:41:22.000Z</time>
      </trkpt>
      <trkpt lat="43.77002" lon="3.84205">
        <ele>300.8</ele>
        <time>2026-05-21T13:41:23.000Z</time>
      </trkpt>
      <trkpt lat="43.77002" lon="3.84205">
        <ele>300.1</ele>
        <time>2026-05-21T13:41:24.000Z</time>
      </trkpt>
      <trkpt lat="43.77001" lon="3.84205">
        <ele>299.5</ele>
        <time>2026-05-21T13:41:25.000Z</time>
      </trkpt>
      <trkpt lat="43.77" lon="3.84206">
        <ele>299.5</ele>
        <time>2026-05-21T13:41:26.000Z</time>
      </trkpt>
      <trkpt lat="43.77" lon="3.84207">
        <ele>299.5</ele>
        <time>2026-05-21T13:41:27.000Z</time>
      </trkpt>
      <trkpt lat="43.76999" lon="3.84208">
        <ele>299.4</ele>
        <time>2026-05-21T13:41:28.000Z</time>
      </trkpt>
      <trkpt lat="43.76999" lon="3.84209">
        <ele>299.1</ele>
        <time>2026-05-21T13:41:29.000Z</time>
      </trkpt>
      <trkpt lat="43.76998" lon="3.84209">
        <ele>298.9</ele>
        <time>2026-05-21T13:41:30.000Z</time>
      </trkpt>
      <trkpt lat="43.76997" lon="3.8421">
        <ele>299.2</ele>
        <time>2026-05-21T13:41:31.000Z</time>
      </trkpt>
      <trkpt lat="43.76996" lon="3.84211">
        <ele>299.1</ele>
        <time>2026-05-21T13:41:32.000Z</time>
      </trkpt>
      <trkpt lat="43.76995" lon="3.84211">
        <ele>299.1</ele>
        <time>2026-05-21T13:41:33.000Z</time>
      </trkpt>
      <trkpt lat="43.76995" lon="3.84211">
        <ele>299.2</ele>
        <time>2026-05-21T13:41:34.000Z</time>
      </trkpt>
      <trkpt lat="43.76995" lon="3.84211">
        <ele>299.2</ele>
        <time>2026-05-21T13:41:35.000Z</time>
      </trkpt>
      <trkpt lat="43.76994" lon="3.84212">
        <ele>299.1</ele>
        <time>2026-05-21T13:41:36.000Z</time>
      </trkpt>
      <trkpt lat="43.76994" lon="3.84211">
        <ele>298.9</ele>
        <time>2026-05-21T13:41:37.000Z</time>
      </trkpt>
      <trkpt lat="43.76993" lon="3.84212">
        <ele>299.2</ele>
        <time>2026-05-21T13:41:38.000Z</time>
      </trkpt>
      <trkpt lat="43.76993" lon="3.84212">
        <ele>298.9</ele>
        <time>2026-05-21T13:41:39.000Z</time>
      </trkpt>
      <trkpt lat="43.76992" lon="3.84212">
        <ele>298.7</ele>
        <time>2026-05-21T13:41:40.000Z</time>
      </trkpt>
      <trkpt lat="43.7699" lon="3.84213">
        <ele>298.8</ele>
        <time>2026-05-21T13:41:41.000Z</time>
      </trkpt>
      <trkpt lat="43.76989" lon="3.84214">
        <ele>298.7</ele>
        <time>2026-05-21T13:41:42.000Z</time>
      </trkpt>
      <trkpt lat="43.76988" lon="3.84215">
        <ele>298.8</ele>
        <time>2026-05-21T13:41:43.000Z</time>
      </trkpt>
      <trkpt lat="43.76987" lon="3.84216">
        <ele>298.9</ele>
        <time>2026-05-21T13:41:44.000Z</time>
      </trkpt>
      <trkpt lat="43.76986" lon="3.84216">
        <ele>298.8</ele>
        <time>2026-05-21T13:41:45.000Z</time>
      </trkpt>
      <trkpt lat="43.76985" lon="3.84217">
        <ele>298.5</ele>
        <time>2026-05-21T13:41:46.000Z</time>
      </trkpt>
      <trkpt lat="43.76984" lon="3.84218">
        <ele>298</ele>
        <time>2026-05-21T13:41:47.000Z</time>
      </trkpt>
      <trkpt lat="43.76983" lon="3.84219">
        <ele>297.9</ele>
        <time>2026-05-21T13:41:48.000Z</time>
      </trkpt>
      <trkpt lat="43.76982" lon="3.8422">
        <ele>297.8</ele>
        <time>2026-05-21T13:41:49.000Z</time>
      </trkpt>
      <trkpt lat="43.76982" lon="3.8422">
        <ele>298.1</ele>
        <time>2026-05-21T13:41:50.000Z</time>
      </trkpt>
      <trkpt lat="43.76981" lon="3.84221">
        <ele>298.1</ele>
        <time>2026-05-21T13:41:51.000Z</time>
      </trkpt>
      <trkpt lat="43.7698" lon="3.84221">
        <ele>298.2</ele>
        <time>2026-05-21T13:41:52.000Z</time>
      </trkpt>
      <trkpt lat="43.76979" lon="3.84221">
        <ele>297.9</ele>
        <time>2026-05-21T13:41:53.000Z</time>
      </trkpt>
      <trkpt lat="43.76978" lon="3.84222">
        <ele>297.6</ele>
        <time>2026-05-21T13:41:54.000Z</time>
      </trkpt>
      <trkpt lat="43.76976" lon="3.84222">
        <ele>297.3</ele>
        <time>2026-05-21T13:41:55.000Z</time>
      </trkpt>
      <trkpt lat="43.76975" lon="3.84223">
        <ele>297.5</ele>
        <time>2026-05-21T13:41:56.000Z</time>
      </trkpt>
      <trkpt lat="43.76974" lon="3.84223">
        <ele>297.5</ele>
        <time>2026-05-21T13:41:57.000Z</time>
      </trkpt>
      <trkpt lat="43.76973" lon="3.84223">
        <ele>296.9</ele>
        <time>2026-05-21T13:41:58.000Z</time>
      </trkpt>
      <trkpt lat="43.76973" lon="3.84224">
        <ele>296.4</ele>
        <time>2026-05-21T13:41:59.000Z</time>
      </trkpt>
      <trkpt lat="43.76973" lon="3.84225">
        <ele>295.6</ele>
        <time>2026-05-21T13:42:00.000Z</time>
      </trkpt>
      <trkpt lat="43.76972" lon="3.84226">
        <ele>295.3</ele>
        <time>2026-05-21T13:42:01.000Z</time>
      </trkpt>
      <trkpt lat="43.76971" lon="3.84227">
        <ele>295</ele>
        <time>2026-05-21T13:42:02.000Z</time>
      </trkpt>
      <trkpt lat="43.7697" lon="3.84228">
        <ele>294.1</ele>
        <time>2026-05-21T13:42:03.000Z</time>
      </trkpt>
      <trkpt lat="43.7697" lon="3.84227">
        <ele>293.4</ele>
        <time>2026-05-21T13:42:04.000Z</time>
      </trkpt>
      <trkpt lat="43.76969" lon="3.84228">
        <ele>293.1</ele>
        <time>2026-05-21T13:42:05.000Z</time>
      </trkpt>
      <trkpt lat="43.76968" lon="3.84229">
        <ele>293.2</ele>
        <time>2026-05-21T13:42:06.000Z</time>
      </trkpt>
      <trkpt lat="43.76967" lon="3.84229">
        <ele>293.4</ele>
        <time>2026-05-21T13:42:07.000Z</time>
      </trkpt>
      <trkpt lat="43.76966" lon="3.84229">
        <ele>293.4</ele>
        <time>2026-05-21T13:42:08.000Z</time>
      </trkpt>
      <trkpt lat="43.76966" lon="3.84229">
        <ele>293.7</ele>
        <time>2026-05-21T13:42:09.000Z</time>
      </trkpt>
      <trkpt lat="43.76965" lon="3.84229">
        <ele>293.9</ele>
        <time>2026-05-21T13:42:10.000Z</time>
      </trkpt>
      <trkpt lat="43.76965" lon="3.8423">
        <ele>293.9</ele>
        <time>2026-05-21T13:42:11.000Z</time>
      </trkpt>
      <trkpt lat="43.76965" lon="3.84231">
        <ele>293.9</ele>
        <time>2026-05-21T13:42:12.000Z</time>
      </trkpt>
      <trkpt lat="43.76964" lon="3.84231">
        <ele>293.9</ele>
        <time>2026-05-21T13:42:13.000Z</time>
      </trkpt>
      <trkpt lat="43.76963" lon="3.84232">
        <ele>293.9</ele>
        <time>2026-05-21T13:42:14.000Z</time>
      </trkpt>
      <trkpt lat="43.76962" lon="3.84233">
        <ele>294.2</ele>
        <time>2026-05-21T13:42:15.000Z</time>
      </trkpt>
      <trkpt lat="43.76961" lon="3.84234">
        <ele>294.1</ele>
        <time>2026-05-21T13:42:16.000Z</time>
      </trkpt>
      <trkpt lat="43.76959" lon="3.84235">
        <ele>294.1</ele>
        <time>2026-05-21T13:42:17.000Z</time>
      </trkpt>
      <trkpt lat="43.76958" lon="3.84235">
        <ele>294.5</ele>
        <time>2026-05-21T13:42:18.000Z</time>
      </trkpt>
      <trkpt lat="43.76957" lon="3.84236">
        <ele>294.7</ele>
        <time>2026-05-21T13:42:19.000Z</time>
      </trkpt>
      <trkpt lat="43.76956" lon="3.84236">
        <ele>294.8</ele>
        <time>2026-05-21T13:42:20.000Z</time>
      </trkpt>
      <trkpt lat="43.76956" lon="3.84236">
        <ele>295.1</ele>
        <time>2026-05-21T13:42:21.000Z</time>
      </trkpt>
      <trkpt lat="43.76955" lon="3.84236">
        <ele>295.2</ele>
        <time>2026-05-21T13:42:22.000Z</time>
      </trkpt>
      <trkpt lat="43.76955" lon="3.84236">
        <ele>295.2</ele>
        <time>2026-05-21T13:42:23.000Z</time>
      </trkpt>
      <trkpt lat="43.76954" lon="3.84237">
        <ele>295.1</ele>
        <time>2026-05-21T13:42:24.000Z</time>
      </trkpt>
      <trkpt lat="43.76953" lon="3.84238">
        <ele>295.1</ele>
        <time>2026-05-21T13:42:25.000Z</time>
      </trkpt>
      <trkpt lat="43.76952" lon="3.84239">
        <ele>294.9</ele>
        <time>2026-05-21T13:42:26.000Z</time>
      </trkpt>
      <trkpt lat="43.76951" lon="3.84239">
        <ele>294.9</ele>
        <time>2026-05-21T13:42:27.000Z</time>
      </trkpt>
      <trkpt lat="43.7695" lon="3.84239">
        <ele>295</ele>
        <time>2026-05-21T13:42:28.000Z</time>
      </trkpt>
      <trkpt lat="43.76949" lon="3.84239">
        <ele>294.8</ele>
        <time>2026-05-21T13:42:29.000Z</time>
      </trkpt>
      <trkpt lat="43.76948" lon="3.84241">
        <ele>295</ele>
        <time>2026-05-21T13:42:30.000Z</time>
      </trkpt>
      <trkpt lat="43.76947" lon="3.84242">
        <ele>295.3</ele>
        <time>2026-05-21T13:42:31.000Z</time>
      </trkpt>
      <trkpt lat="43.76947" lon="3.84242">
        <ele>295.4</ele>
        <time>2026-05-21T13:42:32.000Z</time>
      </trkpt>
      <trkpt lat="43.76946" lon="3.84243">
        <ele>295</ele>
        <time>2026-05-21T13:42:33.000Z</time>
      </trkpt>
      <trkpt lat="43.76946" lon="3.84243">
        <ele>294.5</ele>
        <time>2026-05-21T13:42:34.000Z</time>
      </trkpt>
      <trkpt lat="43.76945" lon="3.84244">
        <ele>294.2</ele>
        <time>2026-05-21T13:42:35.000Z</time>
      </trkpt>
      <trkpt lat="43.76944" lon="3.84244">
        <ele>294</ele>
        <time>2026-05-21T13:42:36.000Z</time>
      </trkpt>
      <trkpt lat="43.76942" lon="3.84245">
        <ele>293.8</ele>
        <time>2026-05-21T13:42:37.000Z</time>
      </trkpt>
      <trkpt lat="43.76941" lon="3.84245">
        <ele>293.9</ele>
        <time>2026-05-21T13:42:38.000Z</time>
      </trkpt>
      <trkpt lat="43.76941" lon="3.84245">
        <ele>293.9</ele>
        <time>2026-05-21T13:42:39.000Z</time>
      </trkpt>
      <trkpt lat="43.76941" lon="3.84245">
        <ele>294.1</ele>
        <time>2026-05-21T13:42:40.000Z</time>
      </trkpt>
      <trkpt lat="43.7694" lon="3.84245">
        <ele>294.1</ele>
        <time>2026-05-21T13:42:41.000Z</time>
      </trkpt>
      <trkpt lat="43.76939" lon="3.84245">
        <ele>294.1</ele>
        <time>2026-05-21T13:42:42.000Z</time>
      </trkpt>
      <trkpt lat="43.76938" lon="3.84246">
        <ele>294</ele>
        <time>2026-05-21T13:42:43.000Z</time>
      </trkpt>
      <trkpt lat="43.76937" lon="3.84247">
        <ele>294.3</ele>
        <time>2026-05-21T13:42:44.000Z</time>
      </trkpt>
      <trkpt lat="43.76936" lon="3.84248">
        <ele>294.3</ele>
        <time>2026-05-21T13:42:45.000Z</time>
      </trkpt>
      <trkpt lat="43.76935" lon="3.84248">
        <ele>294.2</ele>
        <time>2026-05-21T13:42:46.000Z</time>
      </trkpt>
      <trkpt lat="43.76935" lon="3.84248">
        <ele>294.1</ele>
        <time>2026-05-21T13:42:47.000Z</time>
      </trkpt>
      <trkpt lat="43.76935" lon="3.84247">
        <ele>294.4</ele>
        <time>2026-05-21T13:42:48.000Z</time>
      </trkpt>
      <trkpt lat="43.76935" lon="3.84247">
        <ele>294.3</ele>
        <time>2026-05-21T13:42:49.000Z</time>
      </trkpt>
      <trkpt lat="43.76934" lon="3.84246">
        <ele>294.4</ele>
        <time>2026-05-21T13:42:50.000Z</time>
      </trkpt>
      <trkpt lat="43.76934" lon="3.84246">
        <ele>294.8</ele>
        <time>2026-05-21T13:42:51.000Z</time>
      </trkpt>
      <trkpt lat="43.76934" lon="3.84246">
        <ele>294.4</ele>
        <time>2026-05-21T13:42:52.000Z</time>
      </trkpt>
      <trkpt lat="43.76934" lon="3.84247">
        <ele>294.3</ele>
        <time>2026-05-21T13:42:53.000Z</time>
      </trkpt>
      <trkpt lat="43.76934" lon="3.84248">
        <ele>294.2</ele>
        <time>2026-05-21T13:42:54.000Z</time>
      </trkpt>
      <trkpt lat="43.76933" lon="3.8425">
        <ele>294.5</ele>
        <time>2026-05-21T13:42:55.000Z</time>
      </trkpt>
      <trkpt lat="43.76933" lon="3.8425">
        <ele>294.6</ele>
        <time>2026-05-21T13:42:56.000Z</time>
      </trkpt>
      <trkpt lat="43.76932" lon="3.84251">
        <ele>294.6</ele>
        <time>2026-05-21T13:42:57.000Z</time>
      </trkpt>
      <trkpt lat="43.76932" lon="3.84252">
        <ele>294.6</ele>
        <time>2026-05-21T13:42:58.000Z</time>
      </trkpt>
      <trkpt lat="43.76931" lon="3.84253">
        <ele>294.6</ele>
        <time>2026-05-21T13:42:59.000Z</time>
      </trkpt>
      <trkpt lat="43.7693" lon="3.84254">
        <ele>294.4</ele>
        <time>2026-05-21T13:43:00.000Z</time>
      </trkpt>
      <trkpt lat="43.7693" lon="3.84254">
        <ele>294.1</ele>
        <time>2026-05-21T13:43:01.000Z</time>
      </trkpt>
      <trkpt lat="43.76929" lon="3.84254">
        <ele>294.1</ele>
        <time>2026-05-21T13:43:02.000Z</time>
      </trkpt>
      <trkpt lat="43.76928" lon="3.84254">
        <ele>294</ele>
        <time>2026-05-21T13:43:03.000Z</time>
      </trkpt>
      <trkpt lat="43.76928" lon="3.84254">
        <ele>293.6</ele>
        <time>2026-05-21T13:43:04.000Z</time>
      </trkpt>
      <trkpt lat="43.76927" lon="3.84254">
        <ele>293.4</ele>
        <time>2026-05-21T13:43:05.000Z</time>
      </trkpt>
      <trkpt lat="43.76926" lon="3.84255">
        <ele>293.7</ele>
        <time>2026-05-21T13:43:06.000Z</time>
      </trkpt>
      <trkpt lat="43.76925" lon="3.84255">
        <ele>293.9</ele>
        <time>2026-05-21T13:43:07.000Z</time>
      </trkpt>
      <trkpt lat="43.76924" lon="3.84255">
        <ele>293.8</ele>
        <time>2026-05-21T13:43:08.000Z</time>
      </trkpt>
      <trkpt lat="43.76923" lon="3.84256">
        <ele>293.6</ele>
        <time>2026-05-21T13:43:09.000Z</time>
      </trkpt>
      <trkpt lat="43.76922" lon="3.84256">
        <ele>293.7</ele>
        <time>2026-05-21T13:43:10.000Z</time>
      </trkpt>
      <trkpt lat="43.76922" lon="3.84257">
        <ele>293.8</ele>
        <time>2026-05-21T13:43:11.000Z</time>
      </trkpt>
      <trkpt lat="43.76921" lon="3.84257">
        <ele>294</ele>
        <time>2026-05-21T13:43:12.000Z</time>
      </trkpt>
      <trkpt lat="43.76919" lon="3.84258">
        <ele>294.4</ele>
        <time>2026-05-21T13:43:13.000Z</time>
      </trkpt>
      <trkpt lat="43.76918" lon="3.84258">
        <ele>294.4</ele>
        <time>2026-05-21T13:43:14.000Z</time>
      </trkpt>
      <trkpt lat="43.76917" lon="3.84259">
        <ele>294.6</ele>
        <time>2026-05-21T13:43:15.000Z</time>
      </trkpt>
      <trkpt lat="43.76916" lon="3.84259">
        <ele>294.5</ele>
        <time>2026-05-21T13:43:16.000Z</time>
      </trkpt>
      <trkpt lat="43.76915" lon="3.84259">
        <ele>294.9</ele>
        <time>2026-05-21T13:43:17.000Z</time>
      </trkpt>
      <trkpt lat="43.76914" lon="3.84259">
        <ele>295</ele>
        <time>2026-05-21T13:43:18.000Z</time>
      </trkpt>
      <trkpt lat="43.76913" lon="3.8426">
        <ele>295.2</ele>
        <time>2026-05-21T13:43:19.000Z</time>
      </trkpt>
      <trkpt lat="43.76912" lon="3.84261">
        <ele>295.3</ele>
        <time>2026-05-21T13:43:20.000Z</time>
      </trkpt>
      <trkpt lat="43.76912" lon="3.84261">
        <ele>295</ele>
        <time>2026-05-21T13:43:21.000Z</time>
      </trkpt>
      <trkpt lat="43.76912" lon="3.84261">
        <ele>294.9</ele>
        <time>2026-05-21T13:43:22.000Z</time>
      </trkpt>
      <trkpt lat="43.76911" lon="3.84262">
        <ele>294.7</ele>
        <time>2026-05-21T13:43:23.000Z</time>
      </trkpt>
      <trkpt lat="43.7691" lon="3.84262">
        <ele>294.9</ele>
        <time>2026-05-21T13:43:24.000Z</time>
      </trkpt>
      <trkpt lat="43.7691" lon="3.84263">
        <ele>294.8</ele>
        <time>2026-05-21T13:43:25.000Z</time>
      </trkpt>
      <trkpt lat="43.76909" lon="3.84263">
        <ele>294.7</ele>
        <time>2026-05-21T13:43:26.000Z</time>
      </trkpt>
      <trkpt lat="43.76908" lon="3.84264">
        <ele>294.8</ele>
        <time>2026-05-21T13:43:27.000Z</time>
      </trkpt>
      <trkpt lat="43.76907" lon="3.84265">
        <ele>294.7</ele>
        <time>2026-05-21T13:43:28.000Z</time>
      </trkpt>
      <trkpt lat="43.76906" lon="3.84266">
        <ele>294.5</ele>
        <time>2026-05-21T13:43:29.000Z</time>
      </trkpt>
      <trkpt lat="43.76906" lon="3.84266">
        <ele>294.4</ele>
        <time>2026-05-21T13:43:30.000Z</time>
      </trkpt>
      <trkpt lat="43.76905" lon="3.84267">
        <ele>294.4</ele>
        <time>2026-05-21T13:43:31.000Z</time>
      </trkpt>
      <trkpt lat="43.76905" lon="3.84268">
        <ele>294</ele>
        <time>2026-05-21T13:43:32.000Z</time>
      </trkpt>
      <trkpt lat="43.76904" lon="3.84268">
        <ele>293.7</ele>
        <time>2026-05-21T13:43:33.000Z</time>
      </trkpt>
      <trkpt lat="43.76904" lon="3.84269">
        <ele>293.3</ele>
        <time>2026-05-21T13:43:34.000Z</time>
      </trkpt>
      <trkpt lat="43.76904" lon="3.8427">
        <ele>292.9</ele>
        <time>2026-05-21T13:43:35.000Z</time>
      </trkpt>
      <trkpt lat="43.76903" lon="3.8427">
        <ele>292.8</ele>
        <time>2026-05-21T13:43:36.000Z</time>
      </trkpt>
      <trkpt lat="43.76902" lon="3.84271">
        <ele>292.9</ele>
        <time>2026-05-21T13:43:37.000Z</time>
      </trkpt>
      <trkpt lat="43.76901" lon="3.84271">
        <ele>292.8</ele>
        <time>2026-05-21T13:43:38.000Z</time>
      </trkpt>
      <trkpt lat="43.76901" lon="3.84272">
        <ele>292.7</ele>
        <time>2026-05-21T13:43:39.000Z</time>
      </trkpt>
      <trkpt lat="43.769" lon="3.84273">
        <ele>292.8</ele>
        <time>2026-05-21T13:43:40.000Z</time>
      </trkpt>
      <trkpt lat="43.76899" lon="3.84274">
        <ele>292.9</ele>
        <time>2026-05-21T13:43:41.000Z</time>
      </trkpt>
      <trkpt lat="43.76899" lon="3.84274">
        <ele>292.5</ele>
        <time>2026-05-21T13:43:42.000Z</time>
      </trkpt>
      <trkpt lat="43.76898" lon="3.84275">
        <ele>292.3</ele>
        <time>2026-05-21T13:43:43.000Z</time>
      </trkpt>
      <trkpt lat="43.76897" lon="3.84276">
        <ele>292.5</ele>
        <time>2026-05-21T13:43:44.000Z</time>
      </trkpt>
      <trkpt lat="43.76897" lon="3.84276">
        <ele>292.6</ele>
        <time>2026-05-21T13:43:45.000Z</time>
      </trkpt>
      <trkpt lat="43.76896" lon="3.84277">
        <ele>292.8</ele>
        <time>2026-05-21T13:43:46.000Z</time>
      </trkpt>
      <trkpt lat="43.76895" lon="3.84278">
        <ele>292.6</ele>
        <time>2026-05-21T13:43:47.000Z</time>
      </trkpt>
      <trkpt lat="43.76894" lon="3.84278">
        <ele>292.1</ele>
        <time>2026-05-21T13:43:48.000Z</time>
      </trkpt>
      <trkpt lat="43.76893" lon="3.84279">
        <ele>292.4</ele>
        <time>2026-05-21T13:43:49.000Z</time>
      </trkpt>
      <trkpt lat="43.76893" lon="3.8428">
        <ele>292.1</ele>
        <time>2026-05-21T13:43:50.000Z</time>
      </trkpt>
      <trkpt lat="43.76893" lon="3.84281">
        <ele>292.1</ele>
        <time>2026-05-21T13:43:51.000Z</time>
      </trkpt>
      <trkpt lat="43.76892" lon="3.84281">
        <ele>292.1</ele>
        <time>2026-05-21T13:43:52.000Z</time>
      </trkpt>
      <trkpt lat="43.76891" lon="3.84282">
        <ele>292</ele>
        <time>2026-05-21T13:43:53.000Z</time>
      </trkpt>
      <trkpt lat="43.76891" lon="3.84283">
        <ele>291.6</ele>
        <time>2026-05-21T13:43:54.000Z</time>
      </trkpt>
      <trkpt lat="43.7689" lon="3.84284">
        <ele>291.5</ele>
        <time>2026-05-21T13:43:55.000Z</time>
      </trkpt>
      <trkpt lat="43.7689" lon="3.84285">
        <ele>291.4</ele>
        <time>2026-05-21T13:43:56.000Z</time>
      </trkpt>
      <trkpt lat="43.76889" lon="3.84286">
        <ele>291.5</ele>
        <time>2026-05-21T13:43:57.000Z</time>
      </trkpt>
      <trkpt lat="43.76888" lon="3.84287">
        <ele>291.4</ele>
        <time>2026-05-21T13:43:58.000Z</time>
      </trkpt>
      <trkpt lat="43.76887" lon="3.84288">
        <ele>291.1</ele>
        <time>2026-05-21T13:43:59.000Z</time>
      </trkpt>
      <trkpt lat="43.76887" lon="3.84289">
        <ele>291.1</ele>
        <time>2026-05-21T13:44:00.000Z</time>
      </trkpt>
      <trkpt lat="43.76886" lon="3.8429">
        <ele>290.9</ele>
        <time>2026-05-21T13:44:01.000Z</time>
      </trkpt>
      <trkpt lat="43.76885" lon="3.8429">
        <ele>290.5</ele>
        <time>2026-05-21T13:44:02.000Z</time>
      </trkpt>
      <trkpt lat="43.76885" lon="3.84291">
        <ele>290</ele>
        <time>2026-05-21T13:44:03.000Z</time>
      </trkpt>
      <trkpt lat="43.76884" lon="3.84292">
        <ele>289.8</ele>
        <time>2026-05-21T13:44:04.000Z</time>
      </trkpt>
      <trkpt lat="43.76884" lon="3.84293">
        <ele>289.6</ele>
        <time>2026-05-21T13:44:05.000Z</time>
      </trkpt>
      <trkpt lat="43.76883" lon="3.84294">
        <ele>289.5</ele>
        <time>2026-05-21T13:44:06.000Z</time>
      </trkpt>
      <trkpt lat="43.76882" lon="3.84295">
        <ele>289.2</ele>
        <time>2026-05-21T13:44:07.000Z</time>
      </trkpt>
      <trkpt lat="43.76881" lon="3.84297">
        <ele>289.1</ele>
        <time>2026-05-21T13:44:08.000Z</time>
      </trkpt>
      <trkpt lat="43.76881" lon="3.84298">
        <ele>288.8</ele>
        <time>2026-05-21T13:44:09.000Z</time>
      </trkpt>
      <trkpt lat="43.7688" lon="3.84299">
        <ele>288.5</ele>
        <time>2026-05-21T13:44:10.000Z</time>
      </trkpt>
      <trkpt lat="43.7688" lon="3.843">
        <ele>288.5</ele>
        <time>2026-05-21T13:44:11.000Z</time>
      </trkpt>
      <trkpt lat="43.7688" lon="3.84301">
        <ele>288.4</ele>
        <time>2026-05-21T13:44:12.000Z</time>
      </trkpt>
      <trkpt lat="43.76879" lon="3.84302">
        <ele>288.2</ele>
        <time>2026-05-21T13:44:13.000Z</time>
      </trkpt>
      <trkpt lat="43.76879" lon="3.84303">
        <ele>288</ele>
        <time>2026-05-21T13:44:14.000Z</time>
      </trkpt>
      <trkpt lat="43.76879" lon="3.84304">
        <ele>288</ele>
        <time>2026-05-21T13:44:15.000Z</time>
      </trkpt>
      <trkpt lat="43.76878" lon="3.84306">
        <ele>287.8</ele>
        <time>2026-05-21T13:44:16.000Z</time>
      </trkpt>
      <trkpt lat="43.76878" lon="3.84306">
        <ele>288</ele>
        <time>2026-05-21T13:44:17.000Z</time>
      </trkpt>
      <trkpt lat="43.76878" lon="3.84306">
        <ele>287.7</ele>
        <time>2026-05-21T13:44:18.000Z</time>
      </trkpt>
      <trkpt lat="43.76878" lon="3.84306">
        <ele>287.1</ele>
        <time>2026-05-21T13:44:19.000Z</time>
      </trkpt>
      <trkpt lat="43.76878" lon="3.84306">
        <ele>287.3</ele>
        <time>2026-05-21T13:44:20.000Z</time>
      </trkpt>
      <trkpt lat="43.76878" lon="3.84306">
        <ele>287.4</ele>
        <time>2026-05-21T13:44:21.000Z</time>
      </trkpt>
      <trkpt lat="43.76878" lon="3.84306">
        <ele>287.6</ele>
        <time>2026-05-21T13:44:22.000Z</time>
      </trkpt>
      <trkpt lat="43.76878" lon="3.84306">
        <ele>287.6</ele>
        <time>2026-05-21T13:44:23.000Z</time>
      </trkpt>
      <trkpt lat="43.76878" lon="3.84306">
        <ele>287.7</ele>
        <time>2026-05-21T13:44:24.000Z</time>
      </trkpt>
      <trkpt lat="43.76878" lon="3.84306">
        <ele>287.8</ele>
        <time>2026-05-21T13:44:25.000Z</time>
      </trkpt>
      <trkpt lat="43.76878" lon="3.84306">
        <ele>287.6</ele>
        <time>2026-05-21T13:44:26.000Z</time>
      </trkpt>
      <trkpt lat="43.76878" lon="3.84306">
        <ele>287.4</ele>
        <time>2026-05-21T13:44:27.000Z</time>
      </trkpt>
      <trkpt lat="43.76878" lon="3.84306">
        <ele>287.3</ele>
        <time>2026-05-21T13:44:28.000Z</time>
      </trkpt>
      <trkpt lat="43.76878" lon="3.84306">
        <ele>287.2</ele>
        <time>2026-05-21T13:44:29.000Z</time>
      </trkpt>
      <trkpt lat="43.76878" lon="3.84306">
        <ele>287</ele>
        <time>2026-05-21T13:44:30.000Z</time>
      </trkpt>
      <trkpt lat="43.76878" lon="3.84306">
        <ele>286.6</ele>
        <time>2026-05-21T13:44:31.000Z</time>
      </trkpt>
      <trkpt lat="43.76878" lon="3.84306">
        <ele>286.4</ele>
        <time>2026-05-21T13:44:32.000Z</time>
      </trkpt>
      <trkpt lat="43.76879" lon="3.84306">
        <ele>286.2</ele>
        <time>2026-05-21T13:44:33.000Z</time>
      </trkpt>
      <trkpt lat="43.76879" lon="3.84306">
        <ele>285.8</ele>
        <time>2026-05-21T13:44:34.000Z</time>
      </trkpt>
      <trkpt lat="43.76879" lon="3.84306">
        <ele>285.5</ele>
        <time>2026-05-21T13:44:35.000Z</time>
      </trkpt>
      <trkpt lat="43.76879" lon="3.84306">
        <ele>285.4</ele>
        <time>2026-05-21T13:44:36.000Z</time>
      </trkpt>
      <trkpt lat="43.76879" lon="3.84306">
        <ele>285.4</ele>
        <time>2026-05-21T13:44:37.000Z</time>
      </trkpt>
      <trkpt lat="43.76879" lon="3.84306">
        <ele>284.9</ele>
        <time>2026-05-21T13:44:38.000Z</time>
      </trkpt>
      <trkpt lat="43.76879" lon="3.84306">
        <ele>284.9</ele>
        <time>2026-05-21T13:44:39.000Z</time>
      </trkpt>
      <trkpt lat="43.76879" lon="3.84306">
        <ele>284.8</ele>
        <time>2026-05-21T13:44:40.000Z</time>
      </trkpt>
      <trkpt lat="43.76879" lon="3.84306">
        <ele>284.8</ele>
        <time>2026-05-21T13:44:41.000Z</time>
      </trkpt>
      <trkpt lat="43.76879" lon="3.84306">
        <ele>284.7</ele>
        <time>2026-05-21T13:44:42.000Z</time>
      </trkpt>
      <trkpt lat="43.76879" lon="3.84306">
        <ele>284.7</ele>
        <time>2026-05-21T13:44:43.000Z</time>
      </trkpt>
      <trkpt lat="43.76879" lon="3.84306">
        <ele>284.8</ele>
        <time>2026-05-21T13:44:44.000Z</time>
      </trkpt>
      <trkpt lat="43.76879" lon="3.84306">
        <ele>284.7</ele>
        <time>2026-05-21T13:44:45.000Z</time>
      </trkpt>
      <trkpt lat="43.76879" lon="3.84306">
        <ele>284.8</ele>
        <time>2026-05-21T13:44:46.000Z</time>
      </trkpt>
      <trkpt lat="43.76879" lon="3.84306">
        <ele>284.9</ele>
        <time>2026-05-21T13:44:47.999Z</time>
      </trkpt>
      <trkpt lat="43.76879" lon="3.84306">
        <ele>285</ele>
        <time>2026-05-21T13:44:48.999Z</time>
      </trkpt>
      <trkpt lat="43.76879" lon="3.84306">
        <ele>285</ele>
        <time>2026-05-21T13:44:49.999Z</time>
      </trkpt>
      <trkpt lat="43.76879" lon="3.84306">
        <ele>285</ele>
        <time>2026-05-21T13:44:50.999Z</time>
      </trkpt>
      <trkpt lat="43.76879" lon="3.84306">
        <ele>284.9</ele>
        <time>2026-05-21T13:44:51.999Z</time>
      </trkpt>
      <trkpt lat="43.76879" lon="3.84306">
        <ele>285</ele>
        <time>2026-05-21T13:44:52.999Z</time>
      </trkpt>
      <trkpt lat="43.76879" lon="3.84306">
        <ele>285.1</ele>
        <time>2026-05-21T13:44:53.999Z</time>
      </trkpt>
      <trkpt lat="43.76879" lon="3.84306">
        <ele>285.2</ele>
        <time>2026-05-21T13:44:54.999Z</time>
      </trkpt>
      <trkpt lat="43.76879" lon="3.84306">
        <ele>285.1</ele>
        <time>2026-05-21T13:44:55.999Z</time>
      </trkpt>
      <trkpt lat="43.76879" lon="3.84306">
        <ele>285.1</ele>
        <time>2026-05-21T13:44:56.999Z</time>
      </trkpt>
      <trkpt lat="43.76879" lon="3.84306">
        <ele>284.5</ele>
        <time>2026-05-21T13:44:57.999Z</time>
      </trkpt>
      <trkpt lat="43.76879" lon="3.84306">
        <ele>284.4</ele>
        <time>2026-05-21T13:44:58.999Z</time>
      </trkpt>
      <trkpt lat="43.76879" lon="3.84306">
        <ele>284.4</ele>
        <time>2026-05-21T13:44:59.999Z</time>
      </trkpt>
      <trkpt lat="43.76879" lon="3.84306">
        <ele>284.2</ele>
        <time>2026-05-21T13:45:00.999Z</time>
      </trkpt>
      <trkpt lat="43.76879" lon="3.84306">
        <ele>284.2</ele>
        <time>2026-05-21T13:45:01.999Z</time>
      </trkpt>
      <trkpt lat="43.76879" lon="3.84306">
        <ele>284.4</ele>
        <time>2026-05-21T13:45:02.999Z</time>
      </trkpt>
      <trkpt lat="43.76879" lon="3.84306">
        <ele>284.5</ele>
        <time>2026-05-21T13:45:03.999Z</time>
      </trkpt>
      <trkpt lat="43.76879" lon="3.84306">
        <ele>284.5</ele>
        <time>2026-05-21T13:45:04.999Z</time>
      </trkpt>
      <trkpt lat="43.76879" lon="3.84306">
        <ele>284.5</ele>
        <time>2026-05-21T13:45:05.999Z</time>
      </trkpt>
      <trkpt lat="43.76879" lon="3.84306">
        <ele>284.6</ele>
        <time>2026-05-21T13:45:06.999Z</time>
      </trkpt>
      <trkpt lat="43.76879" lon="3.84306">
        <ele>284.6</ele>
        <time>2026-05-21T13:45:07.999Z</time>
      </trkpt>
      <trkpt lat="43.76879" lon="3.84306">
        <ele>284.6</ele>
        <time>2026-05-21T13:45:08.999Z</time>
      </trkpt>
      <trkpt lat="43.76879" lon="3.84306">
        <ele>284.8</ele>
        <time>2026-05-21T13:45:09.999Z</time>
      </trkpt>
      <trkpt lat="43.76879" lon="3.84306">
        <ele>285.1</ele>
        <time>2026-05-21T13:45:10.999Z</time>
      </trkpt>
      <trkpt lat="43.76879" lon="3.84306">
        <ele>285.2</ele>
        <time>2026-05-21T13:45:11.999Z</time>
      </trkpt>
      <trkpt lat="43.76879" lon="3.84306">
        <ele>285.5</ele>
        <time>2026-05-21T13:45:12.999Z</time>
      </trkpt>
      <trkpt lat="43.76879" lon="3.84306">
        <ele>286</ele>
        <time>2026-05-21T13:45:13.999Z</time>
      </trkpt>
      <trkpt lat="43.76879" lon="3.84306">
        <ele>286.3</ele>
        <time>2026-05-21T13:45:14.999Z</time>
      </trkpt>
      <trkpt lat="43.76879" lon="3.84306">
        <ele>286.8</ele>
        <time>2026-05-21T13:45:15.999Z</time>
      </trkpt>
      <trkpt lat="43.76879" lon="3.84306">
        <ele>287.1</ele>
        <time>2026-05-21T13:45:16.999Z</time>
      </trkpt>
      <trkpt lat="43.76879" lon="3.84306">
        <ele>287.3</ele>
        <time>2026-05-21T13:45:17.999Z</time>
      </trkpt>
      <trkpt lat="43.76879" lon="3.84306">
        <ele>287.5</ele>
        <time>2026-05-21T13:45:18.999Z</time>
      </trkpt>
      <trkpt lat="43.76879" lon="3.84306">
        <ele>287.7</ele>
        <time>2026-05-21T13:45:19.999Z</time>
      </trkpt>
      <trkpt lat="43.76879" lon="3.84306">
        <ele>287.9</ele>
        <time>2026-05-21T13:45:20.999Z</time>
      </trkpt>
      <trkpt lat="43.76879" lon="3.84306">
        <ele>288.2</ele>
        <time>2026-05-21T13:45:21.999Z</time>
      </trkpt>
      <trkpt lat="43.76879" lon="3.84306">
        <ele>288.4</ele>
        <time>2026-05-21T13:45:22.999Z</time>
      </trkpt>
      <trkpt lat="43.7688" lon="3.84305">
        <ele>289</ele>
        <time>2026-05-21T13:45:24.999Z</time>
      </trkpt>
      <trkpt lat="43.76881" lon="3.84304">
        <ele>289.3</ele>
        <time>2026-05-21T13:45:25.999Z</time>
      </trkpt>
      <trkpt lat="43.76881" lon="3.84304">
        <ele>289.6</ele>
        <time>2026-05-21T13:45:26.999Z</time>
      </trkpt>
      <trkpt lat="43.76881" lon="3.84304">
        <ele>289.6</ele>
        <time>2026-05-21T13:45:27.999Z</time>
      </trkpt>
      <trkpt lat="43.76882" lon="3.84305">
        <ele>289.1</ele>
        <time>2026-05-21T13:45:28.999Z</time>
      </trkpt>
      <trkpt lat="43.76882" lon="3.84305">
        <ele>288.7</ele>
        <time>2026-05-21T13:45:29.999Z</time>
      </trkpt>
      <trkpt lat="43.76882" lon="3.84306">
        <ele>288.4</ele>
        <time>2026-05-21T13:45:30.999Z</time>
      </trkpt>
      <trkpt lat="43.76882" lon="3.84306">
        <ele>288.1</ele>
        <time>2026-05-21T13:45:31.999Z</time>
      </trkpt>
      <trkpt lat="43.76882" lon="3.84306">
        <ele>287.9</ele>
        <time>2026-05-21T13:45:32.999Z</time>
      </trkpt>
      <trkpt lat="43.76882" lon="3.84306">
        <ele>287.8</ele>
        <time>2026-05-21T13:45:33.999Z</time>
      </trkpt>
      <trkpt lat="43.76882" lon="3.84306">
        <ele>287.8</ele>
        <time>2026-05-21T13:45:34.999Z</time>
      </trkpt>
      <trkpt lat="43.76882" lon="3.84306">
        <ele>287.6</ele>
        <time>2026-05-21T13:45:35.999Z</time>
      </trkpt>
      <trkpt lat="43.76882" lon="3.84306">
        <ele>287.6</ele>
        <time>2026-05-21T13:45:36.999Z</time>
      </trkpt>
      <trkpt lat="43.76882" lon="3.84306">
        <ele>287.6</ele>
        <time>2026-05-21T13:45:37.999Z</time>
      </trkpt>
      <trkpt lat="43.76882" lon="3.84306">
        <ele>287.6</ele>
        <time>2026-05-21T13:45:38.999Z</time>
      </trkpt>
      <trkpt lat="43.76882" lon="3.84306">
        <ele>287.8</ele>
        <time>2026-05-21T13:45:39.999Z</time>
      </trkpt>
      <trkpt lat="43.76882" lon="3.84306">
        <ele>287.9</ele>
        <time>2026-05-21T13:45:40.999Z</time>
      </trkpt>
      <trkpt lat="43.76882" lon="3.84306">
        <ele>288.1</ele>
        <time>2026-05-21T13:45:41.999Z</time>
      </trkpt>
      <trkpt lat="43.76882" lon="3.84306">
        <ele>288.3</ele>
        <time>2026-05-21T13:45:42.999Z</time>
      </trkpt>
      <trkpt lat="43.76882" lon="3.84306">
        <ele>288.2</ele>
        <time>2026-05-21T13:45:43.999Z</time>
      </trkpt>
      <trkpt lat="43.76882" lon="3.84306">
        <ele>288.3</ele>
        <time>2026-05-21T13:45:44.999Z</time>
      </trkpt>
      <trkpt lat="43.76882" lon="3.84306">
        <ele>288.2</ele>
        <time>2026-05-21T13:45:45.999Z</time>
      </trkpt>
      <trkpt lat="43.76882" lon="3.84306">
        <ele>287.9</ele>
        <time>2026-05-21T13:45:46.999Z</time>
      </trkpt>
      <trkpt lat="43.76882" lon="3.84306">
        <ele>288</ele>
        <time>2026-05-21T13:45:47.999Z</time>
      </trkpt>
      <trkpt lat="43.76881" lon="3.84306">
        <ele>287.8</ele>
        <time>2026-05-21T13:45:48.999Z</time>
      </trkpt>
      <trkpt lat="43.76881" lon="3.84306">
        <ele>287.7</ele>
        <time>2026-05-21T13:45:49.999Z</time>
      </trkpt>
      <trkpt lat="43.76881" lon="3.84306">
        <ele>287.8</ele>
        <time>2026-05-21T13:45:50.999Z</time>
      </trkpt>
      <trkpt lat="43.76881" lon="3.84306">
        <ele>287.8</ele>
        <time>2026-05-21T13:45:51.999Z</time>
      </trkpt>
      <trkpt lat="43.76881" lon="3.84306">
        <ele>287.6</ele>
        <time>2026-05-21T13:45:52.999Z</time>
      </trkpt>
      <trkpt lat="43.76881" lon="3.84306">
        <ele>287.6</ele>
        <time>2026-05-21T13:45:53.999Z</time>
      </trkpt>
      <trkpt lat="43.76881" lon="3.84306">
        <ele>287.6</ele>
        <time>2026-05-21T13:45:54.999Z</time>
      </trkpt>
      <trkpt lat="43.76881" lon="3.84306">
        <ele>287.7</ele>
        <time>2026-05-21T13:45:55.999Z</time>
      </trkpt>
      <trkpt lat="43.76881" lon="3.84305">
        <ele>287.3</ele>
        <time>2026-05-21T13:45:56.999Z</time>
      </trkpt>
      <trkpt lat="43.76882" lon="3.84305">
        <ele>287.1</ele>
        <time>2026-05-21T13:45:57.999Z</time>
      </trkpt>
      <trkpt lat="43.76882" lon="3.84305">
        <ele>287</ele>
        <time>2026-05-21T13:45:58.999Z</time>
      </trkpt>
      <trkpt lat="43.76882" lon="3.84306">
        <ele>287.2</ele>
        <time>2026-05-21T13:45:59.999Z</time>
      </trkpt>
      <trkpt lat="43.76881" lon="3.84306">
        <ele>287.1</ele>
        <time>2026-05-21T13:46:00.999Z</time>
      </trkpt>
      <trkpt lat="43.76881" lon="3.84306">
        <ele>287.3</ele>
        <time>2026-05-21T13:46:01.999Z</time>
      </trkpt>
      <trkpt lat="43.76881" lon="3.84305">
        <ele>287.3</ele>
        <time>2026-05-21T13:46:02.999Z</time>
      </trkpt>
      <trkpt lat="43.76881" lon="3.84305">
        <ele>287.2</ele>
        <time>2026-05-21T13:46:03.999Z</time>
      </trkpt>
      <trkpt lat="43.76881" lon="3.84305">
        <ele>287.2</ele>
        <time>2026-05-21T13:46:04.999Z</time>
      </trkpt>
      <trkpt lat="43.76881" lon="3.84305">
        <ele>287.4</ele>
        <time>2026-05-21T13:46:05.999Z</time>
      </trkpt>
      <trkpt lat="43.76881" lon="3.84305">
        <ele>287.5</ele>
        <time>2026-05-21T13:46:06.999Z</time>
      </trkpt>
      <trkpt lat="43.76881" lon="3.84306">
        <ele>287.5</ele>
        <time>2026-05-21T13:46:07.999Z</time>
      </trkpt>
      <trkpt lat="43.76881" lon="3.84306">
        <ele>287.4</ele>
        <time>2026-05-21T13:46:08.999Z</time>
      </trkpt>
      <trkpt lat="43.76881" lon="3.84306">
        <ele>287.3</ele>
        <time>2026-05-21T13:46:09.999Z</time>
      </trkpt>
      <trkpt lat="43.76881" lon="3.84306">
        <ele>287.1</ele>
        <time>2026-05-21T13:46:10.999Z</time>
      </trkpt>
      <trkpt lat="43.76881" lon="3.84306">
        <ele>287.3</ele>
        <time>2026-05-21T13:46:11.999Z</time>
      </trkpt>
      <trkpt lat="43.76882" lon="3.84306">
        <ele>287.5</ele>
        <time>2026-05-21T13:46:12.999Z</time>
      </trkpt>
      <trkpt lat="43.76882" lon="3.84306">
        <ele>287.5</ele>
        <time>2026-05-21T13:46:13.999Z</time>
      </trkpt>
      <trkpt lat="43.76882" lon="3.84306">
        <ele>287.5</ele>
        <time>2026-05-21T13:46:14.999Z</time>
      </trkpt>
      <trkpt lat="43.76882" lon="3.84306">
        <ele>287.5</ele>
        <time>2026-05-21T13:46:15.999Z</time>
      </trkpt>
      <trkpt lat="43.76882" lon="3.84306">
        <ele>287.3</ele>
        <time>2026-05-21T13:46:16.999Z</time>
      </trkpt>
      <trkpt lat="43.76882" lon="3.84306">
        <ele>287.3</ele>
        <time>2026-05-21T13:46:17.999Z</time>
      </trkpt>
      <trkpt lat="43.76882" lon="3.84306">
        <ele>287.3</ele>
        <time>2026-05-21T13:46:18.999Z</time>
      </trkpt>
      <trkpt lat="43.76882" lon="3.84306">
        <ele>287.2</ele>
        <time>2026-05-21T13:46:19.999Z</time>
      </trkpt>
      <trkpt lat="43.76882" lon="3.84306">
        <ele>286.9</ele>
        <time>2026-05-21T13:46:20.999Z</time>
      </trkpt>
      <trkpt lat="43.76882" lon="3.84306">
        <ele>287</ele>
        <time>2026-05-21T13:46:21.999Z</time>
      </trkpt>
      <trkpt lat="43.76882" lon="3.84306">
        <ele>286.9</ele>
        <time>2026-05-21T13:46:22.999Z</time>
      </trkpt>
      <trkpt lat="43.76882" lon="3.84306">
        <ele>286.6</ele>
        <time>2026-05-21T13:46:23.999Z</time>
      </trkpt>
      <trkpt lat="43.76881" lon="3.84306">
        <ele>286.5</ele>
        <time>2026-05-21T13:46:24.999Z</time>
      </trkpt>
      <trkpt lat="43.76881" lon="3.84306">
        <ele>286.4</ele>
        <time>2026-05-21T13:46:25.999Z</time>
      </trkpt>
      <trkpt lat="43.76881" lon="3.84306">
        <ele>286.5</ele>
        <time>2026-05-21T13:46:26.999Z</time>
      </trkpt>
      <trkpt lat="43.76881" lon="3.84306">
        <ele>286.5</ele>
        <time>2026-05-21T13:46:27.999Z</time>
      </trkpt>
      <trkpt lat="43.76881" lon="3.84306">
        <ele>286.4</ele>
        <time>2026-05-21T13:46:28.999Z</time>
      </trkpt>
      <trkpt lat="43.76881" lon="3.84306">
        <ele>286.1</ele>
        <time>2026-05-21T13:46:29.999Z</time>
      </trkpt>
      <trkpt lat="43.76881" lon="3.84306">
        <ele>285.7</ele>
        <time>2026-05-21T13:46:30.999Z</time>
      </trkpt>
      <trkpt lat="43.76881" lon="3.84306">
        <ele>285</ele>
        <time>2026-05-21T13:46:31.999Z</time>
      </trkpt>
      <trkpt lat="43.76881" lon="3.84306">
        <ele>284.8</ele>
        <time>2026-05-21T13:46:32.999Z</time>
      </trkpt>
      <trkpt lat="43.76881" lon="3.84306">
        <ele>284.4</ele>
        <time>2026-05-21T13:46:33.999Z</time>
      </trkpt>
      <trkpt lat="43.76881" lon="3.84306">
        <ele>284.1</ele>
        <time>2026-05-21T13:46:34.999Z</time>
      </trkpt>
      <trkpt lat="43.76881" lon="3.84306">
        <ele>284.1</ele>
        <time>2026-05-21T13:46:35.999Z</time>
      </trkpt>
      <trkpt lat="43.76881" lon="3.84306">
        <ele>284</ele>
        <time>2026-05-21T13:46:36.999Z</time>
      </trkpt>
      <trkpt lat="43.76881" lon="3.84306">
        <ele>283.5</ele>
        <time>2026-05-21T13:46:37.999Z</time>
      </trkpt>
      <trkpt lat="43.76882" lon="3.84306">
        <ele>283.1</ele>
        <time>2026-05-21T13:46:38.999Z</time>
      </trkpt>
      <trkpt lat="43.76882" lon="3.84306">
        <ele>282.6</ele>
        <time>2026-05-21T13:46:39.999Z</time>
      </trkpt>
      <trkpt lat="43.76882" lon="3.84306">
        <ele>282.3</ele>
        <time>2026-05-21T13:46:40.999Z</time>
      </trkpt>
      <trkpt lat="43.76882" lon="3.84306">
        <ele>282</ele>
        <time>2026-05-21T13:46:41.999Z</time>
      </trkpt>
      <trkpt lat="43.76882" lon="3.84306">
        <ele>281.9</ele>
        <time>2026-05-21T13:46:42.999Z</time>
      </trkpt>
      <trkpt lat="43.76882" lon="3.84306">
        <ele>282.1</ele>
        <time>2026-05-21T13:46:43.999Z</time>
      </trkpt>
      <trkpt lat="43.76882" lon="3.84306">
        <ele>282.3</ele>
        <time>2026-05-21T13:46:44.999Z</time>
      </trkpt>
      <trkpt lat="43.76882" lon="3.84306">
        <ele>282.3</ele>
        <time>2026-05-21T13:46:45.999Z</time>
      </trkpt>
      <trkpt lat="43.76882" lon="3.84306">
        <ele>282</ele>
        <time>2026-05-21T13:46:46.999Z</time>
      </trkpt>
      <trkpt lat="43.76882" lon="3.84306">
        <ele>281.9</ele>
        <time>2026-05-21T13:46:47.999Z</time>
      </trkpt>
      <trkpt lat="43.76882" lon="3.84306">
        <ele>281.9</ele>
        <time>2026-05-21T13:46:48.999Z</time>
      </trkpt>
      <trkpt lat="43.76882" lon="3.84306">
        <ele>282</ele>
        <time>2026-05-21T13:46:49.999Z</time>
      </trkpt>
      <trkpt lat="43.76882" lon="3.84306">
        <ele>282.1</ele>
        <time>2026-05-21T13:46:50.999Z</time>
      </trkpt>
      <trkpt lat="43.76882" lon="3.84306">
        <ele>282.1</ele>
        <time>2026-05-21T13:46:51.999Z</time>
      </trkpt>
      <trkpt lat="43.76882" lon="3.84306">
        <ele>282.1</ele>
        <time>2026-05-21T13:46:52.999Z</time>
      </trkpt>
      <trkpt lat="43.76882" lon="3.84306">
        <ele>282.2</ele>
        <time>2026-05-21T13:46:53.999Z</time>
      </trkpt>
      <trkpt lat="43.76882" lon="3.84306">
        <ele>282.2</ele>
        <time>2026-05-21T13:46:54.999Z</time>
      </trkpt>
      <trkpt lat="43.76882" lon="3.84306">
        <ele>282.1</ele>
        <time>2026-05-21T13:46:55.999Z</time>
      </trkpt>
      <trkpt lat="43.76882" lon="3.84306">
        <ele>282.1</ele>
        <time>2026-05-21T13:46:56.999Z</time>
      </trkpt>
      <trkpt lat="43.76882" lon="3.84306">
        <ele>282</ele>
        <time>2026-05-21T13:46:57.999Z</time>
      </trkpt>
      <trkpt lat="43.76882" lon="3.84306">
        <ele>281.9</ele>
        <time>2026-05-21T13:46:58.999Z</time>
      </trkpt>
      <trkpt lat="43.76882" lon="3.84306">
        <ele>282.1</ele>
        <time>2026-05-21T13:46:59.999Z</time>
      </trkpt>
      <trkpt lat="43.76882" lon="3.84306">
        <ele>282.2</ele>
        <time>2026-05-21T13:47:00.999Z</time>
      </trkpt>
      <trkpt lat="43.76882" lon="3.84306">
        <ele>282.5</ele>
        <time>2026-05-21T13:47:01.999Z</time>
      </trkpt>
      <trkpt lat="43.76882" lon="3.84306">
        <ele>282.6</ele>
        <time>2026-05-21T13:47:02.999Z</time>
      </trkpt>
      <trkpt lat="43.76882" lon="3.84306">
        <ele>282.5</ele>
        <time>2026-05-21T13:47:03.999Z</time>
      </trkpt>
      <trkpt lat="43.76882" lon="3.84306">
        <ele>282.5</ele>
        <time>2026-05-21T13:47:04.999Z</time>
      </trkpt>
      <trkpt lat="43.76882" lon="3.84306">
        <ele>282.7</ele>
        <time>2026-05-21T13:47:05.999Z</time>
      </trkpt>
      <trkpt lat="43.76882" lon="3.84306">
        <ele>282.7</ele>
        <time>2026-05-21T13:47:06.999Z</time>
      </trkpt>
      <trkpt lat="43.76882" lon="3.84306">
        <ele>282.5</ele>
        <time>2026-05-21T13:47:07.999Z</time>
      </trkpt>
      <trkpt lat="43.76882" lon="3.84306">
        <ele>282.4</ele>
        <time>2026-05-21T13:47:08.999Z</time>
      </trkpt>
      <trkpt lat="43.76882" lon="3.84306">
        <ele>282.1</ele>
        <time>2026-05-21T13:47:09.999Z</time>
      </trkpt>
      <trkpt lat="43.76882" lon="3.84306">
        <ele>281.8</ele>
        <time>2026-05-21T13:47:10.999Z</time>
      </trkpt>
      <trkpt lat="43.76882" lon="3.84306">
        <ele>281.6</ele>
        <time>2026-05-21T13:47:11.999Z</time>
      </trkpt>
      <trkpt lat="43.76882" lon="3.84306">
        <ele>281.3</ele>
        <time>2026-05-21T13:47:12.999Z</time>
      </trkpt>
      <trkpt lat="43.76882" lon="3.84306">
        <ele>281.3</ele>
        <time>2026-05-21T13:47:13.999Z</time>
      </trkpt>
      <trkpt lat="43.76882" lon="3.84306">
        <ele>281</ele>
        <time>2026-05-21T13:47:14.999Z</time>
      </trkpt>
      <trkpt lat="43.76882" lon="3.84306">
        <ele>280.8</ele>
        <time>2026-05-21T13:47:15.999Z</time>
      </trkpt>
      <trkpt lat="43.76882" lon="3.84306">
        <ele>280.6</ele>
        <time>2026-05-21T13:47:16.999Z</time>
      </trkpt>
      <trkpt lat="43.76882" lon="3.84306">
        <ele>280.6</ele>
        <time>2026-05-21T13:47:17.999Z</time>
      </trkpt>
      <trkpt lat="43.76882" lon="3.84306">
        <ele>281</ele>
        <time>2026-05-21T13:47:18.999Z</time>
      </trkpt>
      <trkpt lat="43.76882" lon="3.84306">
        <ele>281.3</ele>
        <time>2026-05-21T13:47:19.999Z</time>
      </trkpt>
      <trkpt lat="43.76881" lon="3.84306">
        <ele>281.6</ele>
        <time>2026-05-21T13:47:20.999Z</time>
      </trkpt>
      <trkpt lat="43.76881" lon="3.84306">
        <ele>282</ele>
        <time>2026-05-21T13:47:21.999Z</time>
      </trkpt>
      <trkpt lat="43.76881" lon="3.84306">
        <ele>282</ele>
        <time>2026-05-21T13:47:22.999Z</time>
      </trkpt>
      <trkpt lat="43.76881" lon="3.84306">
        <ele>281.9</ele>
        <time>2026-05-21T13:47:23.999Z</time>
      </trkpt>
      <trkpt lat="43.76882" lon="3.84306">
        <ele>281.9</ele>
        <time>2026-05-21T13:47:24.999Z</time>
      </trkpt>
      <trkpt lat="43.76882" lon="3.84306">
        <ele>281.9</ele>
        <time>2026-05-21T13:47:25.999Z</time>
      </trkpt>
      <trkpt lat="43.76882" lon="3.84306">
        <ele>281.8</ele>
        <time>2026-05-21T13:47:26.999Z</time>
      </trkpt>
      <trkpt lat="43.76881" lon="3.84306">
        <ele>281.9</ele>
        <time>2026-05-21T13:47:27.999Z</time>
      </trkpt>
      <trkpt lat="43.76881" lon="3.84306">
        <ele>282.1</ele>
        <time>2026-05-21T13:47:28.999Z</time>
      </trkpt>
      <trkpt lat="43.76881" lon="3.84306">
        <ele>282.2</ele>
        <time>2026-05-21T13:47:29.999Z</time>
      </trkpt>
      <trkpt lat="43.76881" lon="3.84306">
        <ele>282.5</ele>
        <time>2026-05-21T13:47:30.999Z</time>
      </trkpt>
      <trkpt lat="43.76881" lon="3.84306">
        <ele>282.3</ele>
        <time>2026-05-21T13:47:31.999Z</time>
      </trkpt>
      <trkpt lat="43.76881" lon="3.84306">
        <ele>282.2</ele>
        <time>2026-05-21T13:47:32.999Z</time>
      </trkpt>
      <trkpt lat="43.76881" lon="3.84306">
        <ele>282.1</ele>
        <time>2026-05-21T13:47:33.999Z</time>
      </trkpt>
      <trkpt lat="43.76881" lon="3.84306">
        <ele>282.2</ele>
        <time>2026-05-21T13:47:34.999Z</time>
      </trkpt>
      <trkpt lat="43.76881" lon="3.84306">
        <ele>282.1</ele>
        <time>2026-05-21T13:47:35.999Z</time>
      </trkpt>
      <trkpt lat="43.76881" lon="3.84306">
        <ele>282.3</ele>
        <time>2026-05-21T13:47:36.999Z</time>
      </trkpt>
      <trkpt lat="43.76881" lon="3.84306">
        <ele>282.6</ele>
        <time>2026-05-21T13:47:37.999Z</time>
      </trkpt>
      <trkpt lat="43.76881" lon="3.84306">
        <ele>282.6</ele>
        <time>2026-05-21T13:47:38.999Z</time>
      </trkpt>
      <trkpt lat="43.76881" lon="3.84306">
        <ele>283</ele>
        <time>2026-05-21T13:47:39.999Z</time>
      </trkpt>
      <trkpt lat="43.76881" lon="3.84306">
        <ele>283.4</ele>
        <time>2026-05-21T13:47:40.999Z</time>
      </trkpt>
      <trkpt lat="43.76881" lon="3.84306">
        <ele>283.4</ele>
        <time>2026-05-21T13:47:41.999Z</time>
      </trkpt>
      <trkpt lat="43.76881" lon="3.84306">
        <ele>283.5</ele>
        <time>2026-05-21T13:47:42.999Z</time>
      </trkpt>
      <trkpt lat="43.76881" lon="3.84306">
        <ele>283.5</ele>
        <time>2026-05-21T13:47:43.999Z</time>
      </trkpt>
      <trkpt lat="43.76881" lon="3.84306">
        <ele>283.3</ele>
        <time>2026-05-21T13:47:44.999Z</time>
      </trkpt>
      <trkpt lat="43.7688" lon="3.84306">
        <ele>283.3</ele>
        <time>2026-05-21T13:47:45.999Z</time>
      </trkpt>
      <trkpt lat="43.7688" lon="3.84306">
        <ele>283.6</ele>
        <time>2026-05-21T13:47:46.999Z</time>
      </trkpt>
      <trkpt lat="43.7688" lon="3.84306">
        <ele>283.6</ele>
        <time>2026-05-21T13:47:47.999Z</time>
      </trkpt>
      <trkpt lat="43.7688" lon="3.84307">
        <ele>283.6</ele>
        <time>2026-05-21T13:47:48.999Z</time>
      </trkpt>
      <trkpt lat="43.7688" lon="3.84307">
        <ele>283.5</ele>
        <time>2026-05-21T13:47:49.999Z</time>
      </trkpt>
      <trkpt lat="43.7688" lon="3.84307">
        <ele>283.5</ele>
        <time>2026-05-21T13:47:50.999Z</time>
      </trkpt>
      <trkpt lat="43.7688" lon="3.84307">
        <ele>283.5</ele>
        <time>2026-05-21T13:47:51.999Z</time>
      </trkpt>
      <trkpt lat="43.76879" lon="3.84307">
        <ele>283.5</ele>
        <time>2026-05-21T13:47:52.999Z</time>
      </trkpt>
      <trkpt lat="43.76879" lon="3.84308">
        <ele>283.4</ele>
        <time>2026-05-21T13:47:53.999Z</time>
      </trkpt>
      <trkpt lat="43.76879" lon="3.84308">
        <ele>283.4</ele>
        <time>2026-05-21T13:47:54.999Z</time>
      </trkpt>
      <trkpt lat="43.76879" lon="3.84309">
        <ele>283.2</ele>
        <time>2026-05-21T13:47:55.999Z</time>
      </trkpt>
      <trkpt lat="43.76878" lon="3.84309">
        <ele>283</ele>
        <time>2026-05-21T13:47:56.999Z</time>
      </trkpt>
      <trkpt lat="43.76878" lon="3.84309">
        <ele>283.1</ele>
        <time>2026-05-21T13:47:57.999Z</time>
      </trkpt>
      <trkpt lat="43.76878" lon="3.8431">
        <ele>283</ele>
        <time>2026-05-21T13:47:58.999Z</time>
      </trkpt>
      <trkpt lat="43.76878" lon="3.8431">
        <ele>283</ele>
        <time>2026-05-21T13:47:59.999Z</time>
      </trkpt>
      <trkpt lat="43.76878" lon="3.84311">
        <ele>283.1</ele>
        <time>2026-05-21T13:48:00.999Z</time>
      </trkpt>
      <trkpt lat="43.76877" lon="3.84311">
        <ele>283</ele>
        <time>2026-05-21T13:48:01.999Z</time>
      </trkpt>
      <trkpt lat="43.76877" lon="3.84312">
        <ele>282.8</ele>
        <time>2026-05-21T13:48:02.999Z</time>
      </trkpt>
      <trkpt lat="43.76877" lon="3.84313">
        <ele>282.7</ele>
        <time>2026-05-21T13:48:03.999Z</time>
      </trkpt>
      <trkpt lat="43.76877" lon="3.84313">
        <ele>282.4</ele>
        <time>2026-05-21T13:48:04.999Z</time>
      </trkpt>
      <trkpt lat="43.76877" lon="3.84313">
        <ele>282.1</ele>
        <time>2026-05-21T13:48:05.999Z</time>
      </trkpt>
      <trkpt lat="43.76877" lon="3.84314">
        <ele>282</ele>
        <time>2026-05-21T13:48:06.999Z</time>
      </trkpt>
      <trkpt lat="43.76876" lon="3.84314">
        <ele>281.6</ele>
        <time>2026-05-21T13:48:07.999Z</time>
      </trkpt>
      <trkpt lat="43.76876" lon="3.84315">
        <ele>281.4</ele>
        <time>2026-05-21T13:48:08.999Z</time>
      </trkpt>
      <trkpt lat="43.76876" lon="3.84315">
        <ele>281.4</ele>
        <time>2026-05-21T13:48:09.999Z</time>
      </trkpt>
      <trkpt lat="43.76876" lon="3.84317">
        <ele>281.2</ele>
        <time>2026-05-21T13:48:10.999Z</time>
      </trkpt>
      <trkpt lat="43.76876" lon="3.84317">
        <ele>281</ele>
        <time>2026-05-21T13:48:11.999Z</time>
      </trkpt>
      <trkpt lat="43.76876" lon="3.84318">
        <ele>280.8</ele>
        <time>2026-05-21T13:48:12.999Z</time>
      </trkpt>
      <trkpt lat="43.76875" lon="3.84318">
        <ele>280.5</ele>
        <time>2026-05-21T13:48:13.999Z</time>
      </trkpt>
      <trkpt lat="43.76875" lon="3.84319">
        <ele>280.2</ele>
        <time>2026-05-21T13:48:14.999Z</time>
      </trkpt>
      <trkpt lat="43.76875" lon="3.8432">
        <ele>280.3</ele>
        <time>2026-05-21T13:48:15.999Z</time>
      </trkpt>
      <trkpt lat="43.76875" lon="3.8432">
        <ele>280.3</ele>
        <time>2026-05-21T13:48:16.999Z</time>
      </trkpt>
      <trkpt lat="43.76875" lon="3.84322">
        <ele>280.3</ele>
        <time>2026-05-21T13:48:17.999Z</time>
      </trkpt>
      <trkpt lat="43.76873" lon="3.84326">
        <ele>280.3</ele>
        <time>2026-05-21T13:48:18.999Z</time>
      </trkpt>
      <trkpt lat="43.76873" lon="3.84328">
        <ele>280.6</ele>
        <time>2026-05-21T13:48:19.999Z</time>
      </trkpt>
      <trkpt lat="43.76872" lon="3.84329">
        <ele>280.8</ele>
        <time>2026-05-21T13:48:20.999Z</time>
      </trkpt>
      <trkpt lat="43.76872" lon="3.84331">
        <ele>280.6</ele>
        <time>2026-05-21T13:48:21.999Z</time>
      </trkpt>
      <trkpt lat="43.76872" lon="3.84332">
        <ele>280.3</ele>
        <time>2026-05-21T13:48:22.999Z</time>
      </trkpt>
      <trkpt lat="43.76872" lon="3.84333">
        <ele>279.8</ele>
        <time>2026-05-21T13:48:23.999Z</time>
      </trkpt>
      <trkpt lat="43.76872" lon="3.84333">
        <ele>279.6</ele>
        <time>2026-05-21T13:48:24.999Z</time>
      </trkpt>
      <trkpt lat="43.76872" lon="3.84334">
        <ele>279.6</ele>
        <time>2026-05-21T13:48:25.999Z</time>
      </trkpt>
      <trkpt lat="43.76871" lon="3.84336">
        <ele>279.5</ele>
        <time>2026-05-21T13:48:26.999Z</time>
      </trkpt>
      <trkpt lat="43.76872" lon="3.84338">
        <ele>279.6</ele>
        <time>2026-05-21T13:48:27.999Z</time>
      </trkpt>
      <trkpt lat="43.76872" lon="3.84339">
        <ele>279.7</ele>
        <time>2026-05-21T13:48:28.999Z</time>
      </trkpt>
      <trkpt lat="43.76872" lon="3.8434">
        <ele>279.7</ele>
        <time>2026-05-21T13:48:29.999Z</time>
      </trkpt>
      <trkpt lat="43.76872" lon="3.84341">
        <ele>279.8</ele>
        <time>2026-05-21T13:48:30.999Z</time>
      </trkpt>
      <trkpt lat="43.76872" lon="3.84343">
        <ele>279.3</ele>
        <time>2026-05-21T13:48:31.999Z</time>
      </trkpt>
      <trkpt lat="43.76872" lon="3.84345">
        <ele>279.1</ele>
        <time>2026-05-21T13:48:32.999Z</time>
      </trkpt>
      <trkpt lat="43.76871" lon="3.84347">
        <ele>278.8</ele>
        <time>2026-05-21T13:48:33.999Z</time>
      </trkpt>
      <trkpt lat="43.76871" lon="3.84348">
        <ele>278.5</ele>
        <time>2026-05-21T13:48:34.999Z</time>
      </trkpt>
      <trkpt lat="43.76871" lon="3.84349">
        <ele>278.4</ele>
        <time>2026-05-21T13:48:35.999Z</time>
      </trkpt>
      <trkpt lat="43.76871" lon="3.84352">
        <ele>278.1</ele>
        <time>2026-05-21T13:48:36.999Z</time>
      </trkpt>
      <trkpt lat="43.76871" lon="3.84353">
        <ele>278.1</ele>
        <time>2026-05-21T13:48:37.999Z</time>
      </trkpt>
      <trkpt lat="43.76872" lon="3.84355">
        <ele>278.1</ele>
        <time>2026-05-21T13:48:38.999Z</time>
      </trkpt>
      <trkpt lat="43.76872" lon="3.84356">
        <ele>278.2</ele>
        <time>2026-05-21T13:48:39.999Z</time>
      </trkpt>
      <trkpt lat="43.76871" lon="3.84357">
        <ele>278.2</ele>
        <time>2026-05-21T13:48:40.999Z</time>
      </trkpt>
      <trkpt lat="43.76871" lon="3.84358">
        <ele>278.2</ele>
        <time>2026-05-21T13:48:41.999Z</time>
      </trkpt>
      <trkpt lat="43.76871" lon="3.8436">
        <ele>278.2</ele>
        <time>2026-05-21T13:48:42.999Z</time>
      </trkpt>
      <trkpt lat="43.76872" lon="3.84362">
        <ele>278.1</ele>
        <time>2026-05-21T13:48:43.999Z</time>
      </trkpt>
      <trkpt lat="43.76872" lon="3.84364">
        <ele>278.4</ele>
        <time>2026-05-21T13:48:44.999Z</time>
      </trkpt>
      <trkpt lat="43.76871" lon="3.84366">
        <ele>278.3</ele>
        <time>2026-05-21T13:48:45.999Z</time>
      </trkpt>
      <trkpt lat="43.76871" lon="3.84368">
        <ele>278.6</ele>
        <time>2026-05-21T13:48:46.999Z</time>
      </trkpt>
      <trkpt lat="43.7687" lon="3.84369">
        <ele>278.4</ele>
        <time>2026-05-21T13:48:47.999Z</time>
      </trkpt>
      <trkpt lat="43.7687" lon="3.84369">
        <ele>278.2</ele>
        <time>2026-05-21T13:48:48.999Z</time>
      </trkpt>
      <trkpt lat="43.7687" lon="3.8437">
        <ele>278.1</ele>
        <time>2026-05-21T13:48:49.999Z</time>
      </trkpt>
      <trkpt lat="43.7687" lon="3.8437">
        <ele>278.2</ele>
        <time>2026-05-21T13:48:50.999Z</time>
      </trkpt>
      <trkpt lat="43.7687" lon="3.84372">
        <ele>277.8</ele>
        <time>2026-05-21T13:48:51.999Z</time>
      </trkpt>
      <trkpt lat="43.7687" lon="3.84373">
        <ele>277.9</ele>
        <time>2026-05-21T13:48:52.999Z</time>
      </trkpt>
      <trkpt lat="43.7687" lon="3.84374">
        <ele>277.6</ele>
        <time>2026-05-21T13:48:53.999Z</time>
      </trkpt>
      <trkpt lat="43.76871" lon="3.84374">
        <ele>277.4</ele>
        <time>2026-05-21T13:48:54.999Z</time>
      </trkpt>
      <trkpt lat="43.76871" lon="3.84376">
        <ele>277</ele>
        <time>2026-05-21T13:48:55.999Z</time>
      </trkpt>
      <trkpt lat="43.76871" lon="3.84378">
        <ele>277</ele>
        <time>2026-05-21T13:48:56.999Z</time>
      </trkpt>
      <trkpt lat="43.76871" lon="3.8438">
        <ele>277.1</ele>
        <time>2026-05-21T13:48:57.999Z</time>
      </trkpt>
      <trkpt lat="43.76871" lon="3.84381">
        <ele>277.1</ele>
        <time>2026-05-21T13:48:58.999Z</time>
      </trkpt>
      <trkpt lat="43.76871" lon="3.84382">
        <ele>277</ele>
        <time>2026-05-21T13:48:59.999Z</time>
      </trkpt>
      <trkpt lat="43.76871" lon="3.84383">
        <ele>276.7</ele>
        <time>2026-05-21T13:49:00.999Z</time>
      </trkpt>
      <trkpt lat="43.76871" lon="3.84384">
        <ele>276.9</ele>
        <time>2026-05-21T13:49:01.999Z</time>
      </trkpt>
      <trkpt lat="43.76871" lon="3.84385">
        <ele>276.5</ele>
        <time>2026-05-21T13:49:02.999Z</time>
      </trkpt>
      <trkpt lat="43.7687" lon="3.84386">
        <ele>276.3</ele>
        <time>2026-05-21T13:49:03.999Z</time>
      </trkpt>
      <trkpt lat="43.76869" lon="3.84388">
        <ele>276.4</ele>
        <time>2026-05-21T13:49:04.999Z</time>
      </trkpt>
      <trkpt lat="43.76869" lon="3.8439">
        <ele>276.2</ele>
        <time>2026-05-21T13:49:05.999Z</time>
      </trkpt>
      <trkpt lat="43.7687" lon="3.84391">
        <ele>276</ele>
        <time>2026-05-21T13:49:06.999Z</time>
      </trkpt>
      <trkpt lat="43.7687" lon="3.84392">
        <ele>275.8</ele>
        <time>2026-05-21T13:49:07.999Z</time>
      </trkpt>
      <trkpt lat="43.76871" lon="3.84394">
        <ele>276.2</ele>
        <time>2026-05-21T13:49:08.999Z</time>
      </trkpt>
      <trkpt lat="43.76871" lon="3.84395">
        <ele>276.5</ele>
        <time>2026-05-21T13:49:09.999Z</time>
      </trkpt>
      <trkpt lat="43.76871" lon="3.84396">
        <ele>276.4</ele>
        <time>2026-05-21T13:49:10.999Z</time>
      </trkpt>
      <trkpt lat="43.76872" lon="3.84395">
        <ele>276.4</ele>
        <time>2026-05-21T13:49:11.999Z</time>
      </trkpt>
      <trkpt lat="43.76872" lon="3.84395">
        <ele>276.4</ele>
        <time>2026-05-21T13:49:12.999Z</time>
      </trkpt>
      <trkpt lat="43.76873" lon="3.84396">
        <ele>276.1</ele>
        <time>2026-05-21T13:49:13.999Z</time>
      </trkpt>
      <trkpt lat="43.76873" lon="3.84398">
        <ele>275.8</ele>
        <time>2026-05-21T13:49:14.999Z</time>
      </trkpt>
      <trkpt lat="43.76873" lon="3.84399">
        <ele>275.7</ele>
        <time>2026-05-21T13:49:15.999Z</time>
      </trkpt>
      <trkpt lat="43.76874" lon="3.844">
        <ele>275.6</ele>
        <time>2026-05-21T13:49:16.999Z</time>
      </trkpt>
      <trkpt lat="43.76875" lon="3.84401">
        <ele>275.3</ele>
        <time>2026-05-21T13:49:17.999Z</time>
      </trkpt>
      <trkpt lat="43.76875" lon="3.84402">
        <ele>275.3</ele>
        <time>2026-05-21T13:49:18.999Z</time>
      </trkpt>
      <trkpt lat="43.76875" lon="3.84403">
        <ele>275.3</ele>
        <time>2026-05-21T13:49:19.999Z</time>
      </trkpt>
      <trkpt lat="43.76875" lon="3.84404">
        <ele>275.3</ele>
        <time>2026-05-21T13:49:20.999Z</time>
      </trkpt>
      <trkpt lat="43.76875" lon="3.84406">
        <ele>274.8</ele>
        <time>2026-05-21T13:49:21.999Z</time>
      </trkpt>
      <trkpt lat="43.76875" lon="3.84407">
        <ele>274.8</ele>
        <time>2026-05-21T13:49:22.999Z</time>
      </trkpt>
      <trkpt lat="43.76875" lon="3.84408">
        <ele>274.7</ele>
        <time>2026-05-21T13:49:23.999Z</time>
      </trkpt>
      <trkpt lat="43.76875" lon="3.84409">
        <ele>274.5</ele>
        <time>2026-05-21T13:49:24.999Z</time>
      </trkpt>
      <trkpt lat="43.76876" lon="3.8441">
        <ele>274.2</ele>
        <time>2026-05-21T13:49:25.999Z</time>
      </trkpt>
      <trkpt lat="43.76876" lon="3.8441">
        <ele>274.2</ele>
        <time>2026-05-21T13:49:26.999Z</time>
      </trkpt>
      <trkpt lat="43.76877" lon="3.84411">
        <ele>274.3</ele>
        <time>2026-05-21T13:49:27.999Z</time>
      </trkpt>
      <trkpt lat="43.76877" lon="3.84412">
        <ele>274.5</ele>
        <time>2026-05-21T13:49:28.999Z</time>
      </trkpt>
      <trkpt lat="43.76878" lon="3.84413">
        <ele>274.3</ele>
        <time>2026-05-21T13:49:29.999Z</time>
      </trkpt>
      <trkpt lat="43.76878" lon="3.84415">
        <ele>274.5</ele>
        <time>2026-05-21T13:49:30.999Z</time>
      </trkpt>
      <trkpt lat="43.76878" lon="3.84416">
        <ele>274.4</ele>
        <time>2026-05-21T13:49:31.999Z</time>
      </trkpt>
      <trkpt lat="43.76878" lon="3.84417">
        <ele>274.6</ele>
        <time>2026-05-21T13:49:32.999Z</time>
      </trkpt>
      <trkpt lat="43.76878" lon="3.84418">
        <ele>274.7</ele>
        <time>2026-05-21T13:49:33.999Z</time>
      </trkpt>
      <trkpt lat="43.76878" lon="3.84419">
        <ele>274.5</ele>
        <time>2026-05-21T13:49:34.999Z</time>
      </trkpt>
      <trkpt lat="43.76878" lon="3.84421">
        <ele>274.5</ele>
        <time>2026-05-21T13:49:35.999Z</time>
      </trkpt>
      <trkpt lat="43.76878" lon="3.84421">
        <ele>274.2</ele>
        <time>2026-05-21T13:49:36.999Z</time>
      </trkpt>
      <trkpt lat="43.76879" lon="3.84422">
        <ele>273.8</ele>
        <time>2026-05-21T13:49:37.999Z</time>
      </trkpt>
      <trkpt lat="43.76879" lon="3.84422">
        <ele>273.9</ele>
        <time>2026-05-21T13:49:38.999Z</time>
      </trkpt>
      <trkpt lat="43.7688" lon="3.84423">
        <ele>273.8</ele>
        <time>2026-05-21T13:49:39.999Z</time>
      </trkpt>
      <trkpt lat="43.76881" lon="3.84424">
        <ele>273.4</ele>
        <time>2026-05-21T13:49:40.999Z</time>
      </trkpt>
      <trkpt lat="43.76881" lon="3.84425">
        <ele>273.2</ele>
        <time>2026-05-21T13:49:41.999Z</time>
      </trkpt>
      <trkpt lat="43.76881" lon="3.84425">
        <ele>273</ele>
        <time>2026-05-21T13:49:42.999Z</time>
      </trkpt>
      <trkpt lat="43.76881" lon="3.84427">
        <ele>273.2</ele>
        <time>2026-05-21T13:49:43.999Z</time>
      </trkpt>
      <trkpt lat="43.76881" lon="3.84429">
        <ele>273.5</ele>
        <time>2026-05-21T13:49:44.999Z</time>
      </trkpt>
      <trkpt lat="43.76881" lon="3.84431">
        <ele>273.6</ele>
        <time>2026-05-21T13:49:45.999Z</time>
      </trkpt>
      <trkpt lat="43.76881" lon="3.84432">
        <ele>273.6</ele>
        <time>2026-05-21T13:49:46.999Z</time>
      </trkpt>
      <trkpt lat="43.76882" lon="3.84433">
        <ele>273.3</ele>
        <time>2026-05-21T13:49:47.999Z</time>
      </trkpt>
      <trkpt lat="43.76882" lon="3.84435">
        <ele>273</ele>
        <time>2026-05-21T13:49:48.999Z</time>
      </trkpt>
      <trkpt lat="43.76882" lon="3.84437">
        <ele>272.9</ele>
        <time>2026-05-21T13:49:49.999Z</time>
      </trkpt>
      <trkpt lat="43.76883" lon="3.84438">
        <ele>272.6</ele>
        <time>2026-05-21T13:49:50.999Z</time>
      </trkpt>
      <trkpt lat="43.76883" lon="3.8444">
        <ele>272.5</ele>
        <time>2026-05-21T13:49:51.999Z</time>
      </trkpt>
      <trkpt lat="43.76883" lon="3.84441">
        <ele>272.5</ele>
        <time>2026-05-21T13:49:52.999Z</time>
      </trkpt>
      <trkpt lat="43.76884" lon="3.84442">
        <ele>272.4</ele>
        <time>2026-05-21T13:49:53.999Z</time>
      </trkpt>
      <trkpt lat="43.76884" lon="3.84443">
        <ele>272.5</ele>
        <time>2026-05-21T13:49:54.999Z</time>
      </trkpt>
      <trkpt lat="43.76884" lon="3.84444">
        <ele>272.5</ele>
        <time>2026-05-21T13:49:55.999Z</time>
      </trkpt>
      <trkpt lat="43.76884" lon="3.84445">
        <ele>272.4</ele>
        <time>2026-05-21T13:49:56.999Z</time>
      </trkpt>
      <trkpt lat="43.76885" lon="3.84446">
        <ele>272.2</ele>
        <time>2026-05-21T13:49:57.999Z</time>
      </trkpt>
      <trkpt lat="43.76885" lon="3.84448">
        <ele>272.1</ele>
        <time>2026-05-21T13:49:58.999Z</time>
      </trkpt>
      <trkpt lat="43.76885" lon="3.84449">
        <ele>272.1</ele>
        <time>2026-05-21T13:49:59.999Z</time>
      </trkpt>
      <trkpt lat="43.76886" lon="3.8445">
        <ele>272.1</ele>
        <time>2026-05-21T13:50:00.999Z</time>
      </trkpt>
      <trkpt lat="43.76886" lon="3.84451">
        <ele>271.9</ele>
        <time>2026-05-21T13:50:01.999Z</time>
      </trkpt>
      <trkpt lat="43.76887" lon="3.84451">
        <ele>271.8</ele>
        <time>2026-05-21T13:50:02.999Z</time>
      </trkpt>
      <trkpt lat="43.76887" lon="3.84453">
        <ele>271.9</ele>
        <time>2026-05-21T13:50:03.999Z</time>
      </trkpt>
      <trkpt lat="43.76888" lon="3.84454">
        <ele>271.9</ele>
        <time>2026-05-21T13:50:04.999Z</time>
      </trkpt>
      <trkpt lat="43.76888" lon="3.84455">
        <ele>271.7</ele>
        <time>2026-05-21T13:50:05.999Z</time>
      </trkpt>
      <trkpt lat="43.76889" lon="3.84456">
        <ele>271.4</ele>
        <time>2026-05-21T13:50:06.999Z</time>
      </trkpt>
      <trkpt lat="43.76889" lon="3.84457">
        <ele>271.4</ele>
        <time>2026-05-21T13:50:07.999Z</time>
      </trkpt>
      <trkpt lat="43.7689" lon="3.84459">
        <ele>271.4</ele>
        <time>2026-05-21T13:50:08.999Z</time>
      </trkpt>
      <trkpt lat="43.7689" lon="3.84459">
        <ele>271.3</ele>
        <time>2026-05-21T13:50:09.999Z</time>
      </trkpt>
      <trkpt lat="43.76891" lon="3.8446">
        <ele>271.2</ele>
        <time>2026-05-21T13:50:10.999Z</time>
      </trkpt>
      <trkpt lat="43.76892" lon="3.8446">
        <ele>270.8</ele>
        <time>2026-05-21T13:50:11.999Z</time>
      </trkpt>
      <trkpt lat="43.76892" lon="3.84461">
        <ele>270.2</ele>
        <time>2026-05-21T13:50:12.999Z</time>
      </trkpt>
      <trkpt lat="43.76893" lon="3.84462">
        <ele>269.9</ele>
        <time>2026-05-21T13:50:13.999Z</time>
      </trkpt>
      <trkpt lat="43.76893" lon="3.84463">
        <ele>269.7</ele>
        <time>2026-05-21T13:50:14.999Z</time>
      </trkpt>
      <trkpt lat="43.76894" lon="3.84464">
        <ele>269.5</ele>
        <time>2026-05-21T13:50:15.999Z</time>
      </trkpt>
      <trkpt lat="43.76895" lon="3.84465">
        <ele>269.4</ele>
        <time>2026-05-21T13:50:16.999Z</time>
      </trkpt>
      <trkpt lat="43.76896" lon="3.84466">
        <ele>269.4</ele>
        <time>2026-05-21T13:50:17.999Z</time>
      </trkpt>
      <trkpt lat="43.76896" lon="3.84466">
        <ele>269.5</ele>
        <time>2026-05-21T13:50:18.999Z</time>
      </trkpt>
      <trkpt lat="43.76897" lon="3.84467">
        <ele>269.4</ele>
        <time>2026-05-21T13:50:19.999Z</time>
      </trkpt>
      <trkpt lat="43.76898" lon="3.84467">
        <ele>269.3</ele>
        <time>2026-05-21T13:50:20.999Z</time>
      </trkpt>
      <trkpt lat="43.76899" lon="3.84467">
        <ele>269.4</ele>
        <time>2026-05-21T13:50:21.999Z</time>
      </trkpt>
      <trkpt lat="43.76899" lon="3.84467">
        <ele>269.3</ele>
        <time>2026-05-21T13:50:22.999Z</time>
      </trkpt>
      <trkpt lat="43.769" lon="3.84468">
        <ele>269.3</ele>
        <time>2026-05-21T13:50:23.999Z</time>
      </trkpt>
      <trkpt lat="43.769" lon="3.84469">
        <ele>268.9</ele>
        <time>2026-05-21T13:50:24.999Z</time>
      </trkpt>
      <trkpt lat="43.769" lon="3.8447">
        <ele>268.9</ele>
        <time>2026-05-21T13:50:25.999Z</time>
      </trkpt>
      <trkpt lat="43.76901" lon="3.84471">
        <ele>268.7</ele>
        <time>2026-05-21T13:50:26.999Z</time>
      </trkpt>
      <trkpt lat="43.76901" lon="3.84473">
        <ele>268.4</ele>
        <time>2026-05-21T13:50:27.999Z</time>
      </trkpt>
      <trkpt lat="43.76901" lon="3.84474">
        <ele>268.4</ele>
        <time>2026-05-21T13:50:28.999Z</time>
      </trkpt>
      <trkpt lat="43.76902" lon="3.84475">
        <ele>268.3</ele>
        <time>2026-05-21T13:50:29.999Z</time>
      </trkpt>
      <trkpt lat="43.76902" lon="3.84475">
        <ele>268</ele>
        <time>2026-05-21T13:50:30.999Z</time>
      </trkpt>
      <trkpt lat="43.76903" lon="3.84475">
        <ele>267.7</ele>
        <time>2026-05-21T13:50:31.999Z</time>
      </trkpt>
      <trkpt lat="43.76904" lon="3.84476">
        <ele>267.6</ele>
        <time>2026-05-21T13:50:32.999Z</time>
      </trkpt>
      <trkpt lat="43.76905" lon="3.84476">
        <ele>267.3</ele>
        <time>2026-05-21T13:50:33.999Z</time>
      </trkpt>
      <trkpt lat="43.76906" lon="3.84477">
        <ele>267.2</ele>
        <time>2026-05-21T13:50:34.999Z</time>
      </trkpt>
      <trkpt lat="43.76906" lon="3.84478">
        <ele>267.3</ele>
        <time>2026-05-21T13:50:35.999Z</time>
      </trkpt>
      <trkpt lat="43.76907" lon="3.84478">
        <ele>267.3</ele>
        <time>2026-05-21T13:50:36.999Z</time>
      </trkpt>
      <trkpt lat="43.76908" lon="3.84479">
        <ele>267.5</ele>
        <time>2026-05-21T13:50:37.999Z</time>
      </trkpt>
      <trkpt lat="43.76909" lon="3.8448">
        <ele>267.8</ele>
        <time>2026-05-21T13:50:38.999Z</time>
      </trkpt>
      <trkpt lat="43.76909" lon="3.84481">
        <ele>268.4</ele>
        <time>2026-05-21T13:50:39.999Z</time>
      </trkpt>
      <trkpt lat="43.76909" lon="3.84482">
        <ele>268.5</ele>
        <time>2026-05-21T13:50:40.999Z</time>
      </trkpt>
      <trkpt lat="43.76909" lon="3.84483">
        <ele>268.6</ele>
        <time>2026-05-21T13:50:41.999Z</time>
      </trkpt>
      <trkpt lat="43.76909" lon="3.84484">
        <ele>268.6</ele>
        <time>2026-05-21T13:50:42.999Z</time>
      </trkpt>
      <trkpt lat="43.7691" lon="3.84484">
        <ele>268.9</ele>
        <time>2026-05-21T13:50:43.999Z</time>
      </trkpt>
      <trkpt lat="43.76911" lon="3.84485">
        <ele>269</ele>
        <time>2026-05-21T13:50:44.999Z</time>
      </trkpt>
      <trkpt lat="43.76912" lon="3.84485">
        <ele>269.1</ele>
        <time>2026-05-21T13:50:45.999Z</time>
      </trkpt>
      <trkpt lat="43.76912" lon="3.84485">
        <ele>268.7</ele>
        <time>2026-05-21T13:50:46.999Z</time>
      </trkpt>
      <trkpt lat="43.76913" lon="3.84485">
        <ele>268.3</ele>
        <time>2026-05-21T13:50:47.999Z</time>
      </trkpt>
      <trkpt lat="43.76914" lon="3.84486">
        <ele>268.1</ele>
        <time>2026-05-21T13:50:48.999Z</time>
      </trkpt>
      <trkpt lat="43.76914" lon="3.84486">
        <ele>267.9</ele>
        <time>2026-05-21T13:50:49.999Z</time>
      </trkpt>
      <trkpt lat="43.76914" lon="3.84487">
        <ele>268.2</ele>
        <time>2026-05-21T13:50:50.999Z</time>
      </trkpt>
      <trkpt lat="43.76914" lon="3.84488">
        <ele>268.2</ele>
        <time>2026-05-21T13:50:51.999Z</time>
      </trkpt>
      <trkpt lat="43.76915" lon="3.84489">
        <ele>268</ele>
        <time>2026-05-21T13:50:52.999Z</time>
      </trkpt>
      <trkpt lat="43.76916" lon="3.8449">
        <ele>268</ele>
        <time>2026-05-21T13:50:53.999Z</time>
      </trkpt>
      <trkpt lat="43.76917" lon="3.8449">
        <ele>268.1</ele>
        <time>2026-05-21T13:50:54.999Z</time>
      </trkpt>
      <trkpt lat="43.76918" lon="3.84491">
        <ele>268.1</ele>
        <time>2026-05-21T13:50:55.999Z</time>
      </trkpt>
      <trkpt lat="43.76918" lon="3.84493">
        <ele>268.3</ele>
        <time>2026-05-21T13:50:56.999Z</time>
      </trkpt>
      <trkpt lat="43.76919" lon="3.84494">
        <ele>268.4</ele>
        <time>2026-05-21T13:50:57.999Z</time>
      </trkpt>
      <trkpt lat="43.7692" lon="3.84496">
        <ele>268.6</ele>
        <time>2026-05-21T13:50:58.999Z</time>
      </trkpt>
      <trkpt lat="43.76921" lon="3.84497">
        <ele>268.8</ele>
        <time>2026-05-21T13:50:59.999Z</time>
      </trkpt>
      <trkpt lat="43.76921" lon="3.84497">
        <ele>268.8</ele>
        <time>2026-05-21T13:51:00.999Z</time>
      </trkpt>
      <trkpt lat="43.76922" lon="3.84498">
        <ele>268.6</ele>
        <time>2026-05-21T13:51:01.999Z</time>
      </trkpt>
      <trkpt lat="43.76922" lon="3.84499">
        <ele>268.7</ele>
        <time>2026-05-21T13:51:02.999Z</time>
      </trkpt>
      <trkpt lat="43.76923" lon="3.845">
        <ele>268.7</ele>
        <time>2026-05-21T13:51:03.999Z</time>
      </trkpt>
      <trkpt lat="43.76923" lon="3.84501">
        <ele>268.7</ele>
        <time>2026-05-21T13:51:04.999Z</time>
      </trkpt>
      <trkpt lat="43.76924" lon="3.84502">
        <ele>268.7</ele>
        <time>2026-05-21T13:51:05.999Z</time>
      </trkpt>
      <trkpt lat="43.76925" lon="3.84502">
        <ele>268.6</ele>
        <time>2026-05-21T13:51:06.999Z</time>
      </trkpt>
      <trkpt lat="43.76927" lon="3.84502">
        <ele>268.8</ele>
        <time>2026-05-21T13:51:07.999Z</time>
      </trkpt>
      <trkpt lat="43.76928" lon="3.84503">
        <ele>268.8</ele>
        <time>2026-05-21T13:51:08.999Z</time>
      </trkpt>
      <trkpt lat="43.76929" lon="3.84504">
        <ele>268.8</ele>
        <time>2026-05-21T13:51:09.999Z</time>
      </trkpt>
      <trkpt lat="43.76931" lon="3.84504">
        <ele>268.9</ele>
        <time>2026-05-21T13:51:10.999Z</time>
      </trkpt>
      <trkpt lat="43.76932" lon="3.84505">
        <ele>268.9</ele>
        <time>2026-05-21T13:51:11.999Z</time>
      </trkpt>
      <trkpt lat="43.76932" lon="3.84506">
        <ele>268.7</ele>
        <time>2026-05-21T13:51:12.999Z</time>
      </trkpt>
      <trkpt lat="43.76933" lon="3.84506">
        <ele>268.9</ele>
        <time>2026-05-21T13:51:13.999Z</time>
      </trkpt>
      <trkpt lat="43.76934" lon="3.84507">
        <ele>268.7</ele>
        <time>2026-05-21T13:51:14.999Z</time>
      </trkpt>
      <trkpt lat="43.76935" lon="3.84508">
        <ele>268.4</ele>
        <time>2026-05-21T13:51:15.999Z</time>
      </trkpt>
      <trkpt lat="43.76936" lon="3.84508">
        <ele>267.9</ele>
        <time>2026-05-21T13:51:16.999Z</time>
      </trkpt>
      <trkpt lat="43.76936" lon="3.84508">
        <ele>268</ele>
        <time>2026-05-21T13:51:17.999Z</time>
      </trkpt>
      <trkpt lat="43.76937" lon="3.84509">
        <ele>268.4</ele>
        <time>2026-05-21T13:51:18.999Z</time>
      </trkpt>
      <trkpt lat="43.76938" lon="3.84509">
        <ele>268.8</ele>
        <time>2026-05-21T13:51:19.999Z</time>
      </trkpt>
      <trkpt lat="43.76939" lon="3.84509">
        <ele>269.1</ele>
        <time>2026-05-21T13:51:20.999Z</time>
      </trkpt>
      <trkpt lat="43.76939" lon="3.8451">
        <ele>269.2</ele>
        <time>2026-05-21T13:51:21.999Z</time>
      </trkpt>
      <trkpt lat="43.7694" lon="3.84511">
        <ele>269.5</ele>
        <time>2026-05-21T13:51:22.999Z</time>
      </trkpt>
      <trkpt lat="43.76942" lon="3.84511">
        <ele>269.2</ele>
        <time>2026-05-21T13:51:23.999Z</time>
      </trkpt>
      <trkpt lat="43.76943" lon="3.84512">
        <ele>268.7</ele>
        <time>2026-05-21T13:51:24.999Z</time>
      </trkpt>
      <trkpt lat="43.76944" lon="3.84513">
        <ele>268.5</ele>
        <time>2026-05-21T13:51:25.999Z</time>
      </trkpt>
      <trkpt lat="43.76944" lon="3.84513">
        <ele>268.7</ele>
        <time>2026-05-21T13:51:26.999Z</time>
      </trkpt>
      <trkpt lat="43.76946" lon="3.84513">
        <ele>268.7</ele>
        <time>2026-05-21T13:51:27.999Z</time>
      </trkpt>
      <trkpt lat="43.76946" lon="3.84514">
        <ele>268.7</ele>
        <time>2026-05-21T13:51:28.999Z</time>
      </trkpt>
      <trkpt lat="43.76947" lon="3.84514">
        <ele>268.8</ele>
        <time>2026-05-21T13:51:29.999Z</time>
      </trkpt>
      <trkpt lat="43.76948" lon="3.84514">
        <ele>268.5</ele>
        <time>2026-05-21T13:51:30.999Z</time>
      </trkpt>
      <trkpt lat="43.76948" lon="3.84515">
        <ele>268</ele>
        <time>2026-05-21T13:51:31.999Z</time>
      </trkpt>
      <trkpt lat="43.76949" lon="3.84515">
        <ele>267.7</ele>
        <time>2026-05-21T13:51:32.999Z</time>
      </trkpt>
      <trkpt lat="43.76949" lon="3.84516">
        <ele>267.3</ele>
        <time>2026-05-21T13:51:33.999Z</time>
      </trkpt>
      <trkpt lat="43.7695" lon="3.84517">
        <ele>267.1</ele>
        <time>2026-05-21T13:51:34.999Z</time>
      </trkpt>
      <trkpt lat="43.7695" lon="3.84518">
        <ele>266.7</ele>
        <time>2026-05-21T13:51:35.999Z</time>
      </trkpt>
      <trkpt lat="43.7695" lon="3.84518">
        <ele>267</ele>
        <time>2026-05-21T13:51:36.999Z</time>
      </trkpt>
      <trkpt lat="43.7695" lon="3.84519">
        <ele>266.9</ele>
        <time>2026-05-21T13:51:37.999Z</time>
      </trkpt>
      <trkpt lat="43.7695" lon="3.84519">
        <ele>266.5</ele>
        <time>2026-05-21T13:51:38.999Z</time>
      </trkpt>
      <trkpt lat="43.76951" lon="3.84519">
        <ele>265.9</ele>
        <time>2026-05-21T13:51:39.999Z</time>
      </trkpt>
      <trkpt lat="43.76951" lon="3.8452">
        <ele>266.2</ele>
        <time>2026-05-21T13:51:40.999Z</time>
      </trkpt>
      <trkpt lat="43.76951" lon="3.8452">
        <ele>266.1</ele>
        <time>2026-05-21T13:51:41.999Z</time>
      </trkpt>
      <trkpt lat="43.76952" lon="3.84519">
        <ele>266.1</ele>
        <time>2026-05-21T13:51:42.999Z</time>
      </trkpt>
      <trkpt lat="43.76952" lon="3.84519">
        <ele>266.1</ele>
        <time>2026-05-21T13:51:43.999Z</time>
      </trkpt>
      <trkpt lat="43.76953" lon="3.84519">
        <ele>266.5</ele>
        <time>2026-05-21T13:51:44.999Z</time>
      </trkpt>
      <trkpt lat="43.76953" lon="3.8452">
        <ele>266.9</ele>
        <time>2026-05-21T13:51:45.999Z</time>
      </trkpt>
      <trkpt lat="43.76954" lon="3.8452">
        <ele>266.9</ele>
        <time>2026-05-21T13:51:46.999Z</time>
      </trkpt>
      <trkpt lat="43.76955" lon="3.84521">
        <ele>266.7</ele>
        <time>2026-05-21T13:51:47.999Z</time>
      </trkpt>
      <trkpt lat="43.76956" lon="3.84521">
        <ele>266.2</ele>
        <time>2026-05-21T13:51:48.999Z</time>
      </trkpt>
      <trkpt lat="43.76957" lon="3.84521">
        <ele>266.1</ele>
        <time>2026-05-21T13:51:49.999Z</time>
      </trkpt>
      <trkpt lat="43.76958" lon="3.84521">
        <ele>266.2</ele>
        <time>2026-05-21T13:51:50.999Z</time>
      </trkpt>
      <trkpt lat="43.76958" lon="3.84521">
        <ele>266</ele>
        <time>2026-05-21T13:51:51.999Z</time>
      </trkpt>
      <trkpt lat="43.76958" lon="3.84521">
        <ele>265.9</ele>
        <time>2026-05-21T13:51:52.999Z</time>
      </trkpt>
      <trkpt lat="43.76958" lon="3.84522">
        <ele>265.8</ele>
        <time>2026-05-21T13:51:53.999Z</time>
      </trkpt>
      <trkpt lat="43.76958" lon="3.84522">
        <ele>266.1</ele>
        <time>2026-05-21T13:51:54.999Z</time>
      </trkpt>
      <trkpt lat="43.76958" lon="3.84522">
        <ele>265.9</ele>
        <time>2026-05-21T13:51:55.999Z</time>
      </trkpt>
      <trkpt lat="43.76959" lon="3.84522">
        <ele>265.7</ele>
        <time>2026-05-21T13:51:56.999Z</time>
      </trkpt>
      <trkpt lat="43.76959" lon="3.84523">
        <ele>265.4</ele>
        <time>2026-05-21T13:51:57.999Z</time>
      </trkpt>
      <trkpt lat="43.76959" lon="3.84523">
        <ele>265.4</ele>
        <time>2026-05-21T13:51:58.999Z</time>
      </trkpt>
      <trkpt lat="43.7696" lon="3.84523">
        <ele>265.5</ele>
        <time>2026-05-21T13:51:59.999Z</time>
      </trkpt>
      <trkpt lat="43.7696" lon="3.84523">
        <ele>265.6</ele>
        <time>2026-05-21T13:52:00.999Z</time>
      </trkpt>
      <trkpt lat="43.7696" lon="3.84523">
        <ele>265.5</ele>
        <time>2026-05-21T13:52:01.999Z</time>
      </trkpt>
      <trkpt lat="43.7696" lon="3.84523">
        <ele>265.5</ele>
        <time>2026-05-21T13:52:02.999Z</time>
      </trkpt>
      <trkpt lat="43.7696" lon="3.84524">
        <ele>265.2</ele>
        <time>2026-05-21T13:52:03.999Z</time>
      </trkpt>
      <trkpt lat="43.76961" lon="3.84524">
        <ele>265</ele>
        <time>2026-05-21T13:52:04.999Z</time>
      </trkpt>
      <trkpt lat="43.76961" lon="3.84524">
        <ele>264.9</ele>
        <time>2026-05-21T13:52:05.999Z</time>
      </trkpt>
      <trkpt lat="43.76961" lon="3.84524">
        <ele>264.8</ele>
        <time>2026-05-21T13:52:06.999Z</time>
      </trkpt>
      <trkpt lat="43.76962" lon="3.84524">
        <ele>264.3</ele>
        <time>2026-05-21T13:52:07.999Z</time>
      </trkpt>
      <trkpt lat="43.76962" lon="3.84524">
        <ele>264</ele>
        <time>2026-05-21T13:52:08.999Z</time>
      </trkpt>
      <trkpt lat="43.76963" lon="3.84524">
        <ele>264</ele>
        <time>2026-05-21T13:52:09.999Z</time>
      </trkpt>
      <trkpt lat="43.76963" lon="3.84524">
        <ele>264.2</ele>
        <time>2026-05-21T13:52:10.999Z</time>
      </trkpt>
      <trkpt lat="43.76963" lon="3.84524">
        <ele>264.3</ele>
        <time>2026-05-21T13:52:11.999Z</time>
      </trkpt>
      <trkpt lat="43.76963" lon="3.84524">
        <ele>264.5</ele>
        <time>2026-05-21T13:52:12.999Z</time>
      </trkpt>
      <trkpt lat="43.76963" lon="3.84524">
        <ele>265</ele>
        <time>2026-05-21T13:52:13.999Z</time>
      </trkpt>
      <trkpt lat="43.76964" lon="3.84524">
        <ele>265.1</ele>
        <time>2026-05-21T13:52:14.999Z</time>
      </trkpt>
      <trkpt lat="43.76964" lon="3.84524">
        <ele>265.3</ele>
        <time>2026-05-21T13:52:15.999Z</time>
      </trkpt>
      <trkpt lat="43.76964" lon="3.84523">
        <ele>265.6</ele>
        <time>2026-05-21T13:52:16.999Z</time>
      </trkpt>
      <trkpt lat="43.76964" lon="3.84523">
        <ele>265.5</ele>
        <time>2026-05-21T13:52:17.999Z</time>
      </trkpt>
      <trkpt lat="43.76964" lon="3.84523">
        <ele>265.7</ele>
        <time>2026-05-21T13:52:18.999Z</time>
      </trkpt>
      <trkpt lat="43.76964" lon="3.84523">
        <ele>265.7</ele>
        <time>2026-05-21T13:52:19.999Z</time>
      </trkpt>
      <trkpt lat="43.76964" lon="3.84523">
        <ele>265.5</ele>
        <time>2026-05-21T13:52:20.999Z</time>
      </trkpt>
      <trkpt lat="43.76965" lon="3.84523">
        <ele>265.6</ele>
        <time>2026-05-21T13:52:21.999Z</time>
      </trkpt>
      <trkpt lat="43.76965" lon="3.84523">
        <ele>265.6</ele>
        <time>2026-05-21T13:52:22.999Z</time>
      </trkpt>
      <trkpt lat="43.76965" lon="3.84523">
        <ele>265.5</ele>
        <time>2026-05-21T13:52:23.999Z</time>
      </trkpt>
      <trkpt lat="43.76965" lon="3.84523">
        <ele>265.6</ele>
        <time>2026-05-21T13:52:24.999Z</time>
      </trkpt>
      <trkpt lat="43.76965" lon="3.84523">
        <ele>265.8</ele>
        <time>2026-05-21T13:52:25.999Z</time>
      </trkpt>
      <trkpt lat="43.76965" lon="3.84523">
        <ele>265.9</ele>
        <time>2026-05-21T13:52:26.999Z</time>
      </trkpt>
      <trkpt lat="43.76966" lon="3.84524">
        <ele>266</ele>
        <time>2026-05-21T13:52:27.999Z</time>
      </trkpt>
      <trkpt lat="43.76966" lon="3.84524">
        <ele>266.1</ele>
        <time>2026-05-21T13:52:28.999Z</time>
      </trkpt>
      <trkpt lat="43.76966" lon="3.84523">
        <ele>266.1</ele>
        <time>2026-05-21T13:52:29.999Z</time>
      </trkpt>
      <trkpt lat="43.76966" lon="3.84523">
        <ele>266.1</ele>
        <time>2026-05-21T13:52:30.999Z</time>
      </trkpt>
      <trkpt lat="43.76966" lon="3.84523">
        <ele>266.3</ele>
        <time>2026-05-21T13:52:31.999Z</time>
      </trkpt>
      <trkpt lat="43.76966" lon="3.84523">
        <ele>266.5</ele>
        <time>2026-05-21T13:52:32.999Z</time>
      </trkpt>
      <trkpt lat="43.76967" lon="3.84523">
        <ele>266.6</ele>
        <time>2026-05-21T13:52:33.999Z</time>
      </trkpt>
      <trkpt lat="43.76967" lon="3.84523">
        <ele>266.6</ele>
        <time>2026-05-21T13:52:34.999Z</time>
      </trkpt>
      <trkpt lat="43.76967" lon="3.84523">
        <ele>266.4</ele>
        <time>2026-05-21T13:52:35.999Z</time>
      </trkpt>
      <trkpt lat="43.76967" lon="3.84523">
        <ele>266.4</ele>
        <time>2026-05-21T13:52:36.999Z</time>
      </trkpt>
      <trkpt lat="43.76967" lon="3.84523">
        <ele>266.4</ele>
        <time>2026-05-21T13:52:37.999Z</time>
      </trkpt>
      <trkpt lat="43.76967" lon="3.84523">
        <ele>266.9</ele>
        <time>2026-05-21T13:52:38.999Z</time>
      </trkpt>
      <trkpt lat="43.76967" lon="3.84523">
        <ele>267.6</ele>
        <time>2026-05-21T13:52:39.999Z</time>
      </trkpt>
      <trkpt lat="43.76968" lon="3.84522">
        <ele>267.6</ele>
        <time>2026-05-21T13:52:40.999Z</time>
      </trkpt>
      <trkpt lat="43.76968" lon="3.84522">
        <ele>267.9</ele>
        <time>2026-05-21T13:52:41.999Z</time>
      </trkpt>
      <trkpt lat="43.76967" lon="3.84522">
        <ele>268.1</ele>
        <time>2026-05-21T13:52:42.999Z</time>
      </trkpt>
      <trkpt lat="43.76967" lon="3.84522">
        <ele>268.4</ele>
        <time>2026-05-21T13:52:43.999Z</time>
      </trkpt>
      <trkpt lat="43.76968" lon="3.84522">
        <ele>268.3</ele>
        <time>2026-05-21T13:52:44.999Z</time>
      </trkpt>
      <trkpt lat="43.76968" lon="3.84522">
        <ele>268.4</ele>
        <time>2026-05-21T13:52:45.999Z</time>
      </trkpt>
      <trkpt lat="43.76968" lon="3.84522">
        <ele>268.6</ele>
        <time>2026-05-21T13:52:46.999Z</time>
      </trkpt>
      <trkpt lat="43.76968" lon="3.84522">
        <ele>268.6</ele>
        <time>2026-05-21T13:52:47.999Z</time>
      </trkpt>
      <trkpt lat="43.76968" lon="3.84522">
        <ele>268.7</ele>
        <time>2026-05-21T13:52:48.999Z</time>
      </trkpt>
      <trkpt lat="43.76968" lon="3.84522">
        <ele>268.7</ele>
        <time>2026-05-21T13:52:49.999Z</time>
      </trkpt>
      <trkpt lat="43.76968" lon="3.84522">
        <ele>269.1</ele>
        <time>2026-05-21T13:52:50.999Z</time>
      </trkpt>
      <trkpt lat="43.76968" lon="3.84522">
        <ele>269.2</ele>
        <time>2026-05-21T13:52:51.999Z</time>
      </trkpt>
      <trkpt lat="43.76968" lon="3.84522">
        <ele>269.3</ele>
        <time>2026-05-21T13:52:52.999Z</time>
      </trkpt>
      <trkpt lat="43.76968" lon="3.84522">
        <ele>269.4</ele>
        <time>2026-05-21T13:52:53.999Z</time>
      </trkpt>
      <trkpt lat="43.76968" lon="3.84522">
        <ele>269.5</ele>
        <time>2026-05-21T13:52:54.999Z</time>
      </trkpt>
      <trkpt lat="43.76968" lon="3.84522">
        <ele>269.5</ele>
        <time>2026-05-21T13:52:55.999Z</time>
      </trkpt>
      <trkpt lat="43.76968" lon="3.84522">
        <ele>269.6</ele>
        <time>2026-05-21T13:52:56.999Z</time>
      </trkpt>
      <trkpt lat="43.76968" lon="3.84522">
        <ele>269.7</ele>
        <time>2026-05-21T13:52:57.999Z</time>
      </trkpt>
      <trkpt lat="43.76968" lon="3.84522">
        <ele>269.6</ele>
        <time>2026-05-21T13:52:58.999Z</time>
      </trkpt>
      <trkpt lat="43.76968" lon="3.84522">
        <ele>269.7</ele>
        <time>2026-05-21T13:52:59.999Z</time>
      </trkpt>
      <trkpt lat="43.76968" lon="3.84522">
        <ele>269.5</ele>
        <time>2026-05-21T13:53:00.999Z</time>
      </trkpt>
      <trkpt lat="43.76968" lon="3.84522">
        <ele>269.4</ele>
        <time>2026-05-21T13:53:01.999Z</time>
      </trkpt>
      <trkpt lat="43.76968" lon="3.84522">
        <ele>269.2</ele>
        <time>2026-05-21T13:53:02.999Z</time>
      </trkpt>
      <trkpt lat="43.76968" lon="3.84522">
        <ele>269</ele>
        <time>2026-05-21T13:53:03.999Z</time>
      </trkpt>
      <trkpt lat="43.76968" lon="3.84522">
        <ele>268.6</ele>
        <time>2026-05-21T13:53:04.999Z</time>
      </trkpt>
      <trkpt lat="43.76969" lon="3.84523">
        <ele>268.1</ele>
        <time>2026-05-21T13:53:05.999Z</time>
      </trkpt>
      <trkpt lat="43.76969" lon="3.84523">
        <ele>267.6</ele>
        <time>2026-05-21T13:53:06.999Z</time>
      </trkpt>
      <trkpt lat="43.76969" lon="3.84523">
        <ele>267.1</ele>
        <time>2026-05-21T13:53:07.999Z</time>
      </trkpt>
      <trkpt lat="43.76969" lon="3.84523">
        <ele>266.3</ele>
        <time>2026-05-21T13:53:08.999Z</time>
      </trkpt>
      <trkpt lat="43.76969" lon="3.84523">
        <ele>265.8</ele>
        <time>2026-05-21T13:53:09.999Z</time>
      </trkpt>
      <trkpt lat="43.76969" lon="3.84523">
        <ele>265.5</ele>
        <time>2026-05-21T13:53:10.999Z</time>
      </trkpt>
      <trkpt lat="43.76969" lon="3.84523">
        <ele>265.3</ele>
        <time>2026-05-21T13:53:11.999Z</time>
      </trkpt>
      <trkpt lat="43.76969" lon="3.84523">
        <ele>265.3</ele>
        <time>2026-05-21T13:53:12.999Z</time>
      </trkpt>
      <trkpt lat="43.76969" lon="3.84523">
        <ele>265.2</ele>
        <time>2026-05-21T13:53:13.999Z</time>
      </trkpt>
      <trkpt lat="43.76969" lon="3.84523">
        <ele>264.7</ele>
        <time>2026-05-21T13:53:14.999Z</time>
      </trkpt>
      <trkpt lat="43.76969" lon="3.84523">
        <ele>264.3</ele>
        <time>2026-05-21T13:53:15.999Z</time>
      </trkpt>
      <trkpt lat="43.76969" lon="3.84523">
        <ele>264.2</ele>
        <time>2026-05-21T13:53:16.999Z</time>
      </trkpt>
      <trkpt lat="43.76969" lon="3.84523">
        <ele>264.3</ele>
        <time>2026-05-21T13:53:17.999Z</time>
      </trkpt>
      <trkpt lat="43.76969" lon="3.84523">
        <ele>264.4</ele>
        <time>2026-05-21T13:53:18.999Z</time>
      </trkpt>
      <trkpt lat="43.76969" lon="3.84523">
        <ele>264.5</ele>
        <time>2026-05-21T13:53:19.999Z</time>
      </trkpt>
      <trkpt lat="43.76969" lon="3.84523">
        <ele>264.5</ele>
        <time>2026-05-21T13:53:20.999Z</time>
      </trkpt>
      <trkpt lat="43.76969" lon="3.84523">
        <ele>264.3</ele>
        <time>2026-05-21T13:53:21.999Z</time>
      </trkpt>
      <trkpt lat="43.76969" lon="3.84523">
        <ele>263.9</ele>
        <time>2026-05-21T13:53:22.999Z</time>
      </trkpt>
      <trkpt lat="43.76969" lon="3.84523">
        <ele>263.9</ele>
        <time>2026-05-21T13:53:23.999Z</time>
      </trkpt>
      <trkpt lat="43.76969" lon="3.84523">
        <ele>263.7</ele>
        <time>2026-05-21T13:53:24.999Z</time>
      </trkpt>
      <trkpt lat="43.76969" lon="3.84523">
        <ele>263.7</ele>
        <time>2026-05-21T13:53:25.999Z</time>
      </trkpt>
      <trkpt lat="43.7697" lon="3.84523">
        <ele>263.8</ele>
        <time>2026-05-21T13:53:26.999Z</time>
      </trkpt>
      <trkpt lat="43.7697" lon="3.84523">
        <ele>263.7</ele>
        <time>2026-05-21T13:53:27.999Z</time>
      </trkpt>
      <trkpt lat="43.76969" lon="3.84523">
        <ele>263.7</ele>
        <time>2026-05-21T13:53:28.999Z</time>
      </trkpt>
      <trkpt lat="43.76969" lon="3.84523">
        <ele>263.8</ele>
        <time>2026-05-21T13:53:29.999Z</time>
      </trkpt>
      <trkpt lat="43.7697" lon="3.84523">
        <ele>263.8</ele>
        <time>2026-05-21T13:53:30.999Z</time>
      </trkpt>
      <trkpt lat="43.7697" lon="3.84523">
        <ele>264</ele>
        <time>2026-05-21T13:53:31.999Z</time>
      </trkpt>
      <trkpt lat="43.7697" lon="3.84523">
        <ele>264.3</ele>
        <time>2026-05-21T13:53:32.999Z</time>
      </trkpt>
      <trkpt lat="43.7697" lon="3.84523">
        <ele>264.5</ele>
        <time>2026-05-21T13:53:33.999Z</time>
      </trkpt>
      <trkpt lat="43.7697" lon="3.84525">
        <ele>264.8</ele>
        <time>2026-05-21T13:53:34.999Z</time>
      </trkpt>
      <trkpt lat="43.76971" lon="3.84526">
        <ele>265.2</ele>
        <time>2026-05-21T13:53:35.999Z</time>
      </trkpt>
      <trkpt lat="43.76971" lon="3.84527">
        <ele>265.3</ele>
        <time>2026-05-21T13:53:36.999Z</time>
      </trkpt>
      <trkpt lat="43.76972" lon="3.84528">
        <ele>265.2</ele>
        <time>2026-05-21T13:53:37.999Z</time>
      </trkpt>
      <trkpt lat="43.76973" lon="3.84528">
        <ele>264.8</ele>
        <time>2026-05-21T13:53:38.999Z</time>
      </trkpt>
      <trkpt lat="43.76973" lon="3.84528">
        <ele>264.7</ele>
        <time>2026-05-21T13:53:39.999Z</time>
      </trkpt>
      <trkpt lat="43.76973" lon="3.84528">
        <ele>264.4</ele>
        <time>2026-05-21T13:53:40.999Z</time>
      </trkpt>
      <trkpt lat="43.76973" lon="3.84527">
        <ele>264.3</ele>
        <time>2026-05-21T13:53:41.999Z</time>
      </trkpt>
      <trkpt lat="43.76973" lon="3.84527">
        <ele>264.2</ele>
        <time>2026-05-21T13:53:42.999Z</time>
      </trkpt>
      <trkpt lat="43.76973" lon="3.84527">
        <ele>264.2</ele>
        <time>2026-05-21T13:53:43.999Z</time>
      </trkpt>
      <trkpt lat="43.76973" lon="3.84527">
        <ele>264.2</ele>
        <time>2026-05-21T13:53:44.999Z</time>
      </trkpt>
      <trkpt lat="43.76973" lon="3.84526">
        <ele>264.3</ele>
        <time>2026-05-21T13:53:45.999Z</time>
      </trkpt>
      <trkpt lat="43.76973" lon="3.84526">
        <ele>264.5</ele>
        <time>2026-05-21T13:53:46.999Z</time>
      </trkpt>
      <trkpt lat="43.76973" lon="3.84526">
        <ele>264.8</ele>
        <time>2026-05-21T13:53:47.999Z</time>
      </trkpt>
      <trkpt lat="43.76974" lon="3.84526">
        <ele>264.8</ele>
        <time>2026-05-21T13:53:48.999Z</time>
      </trkpt>
      <trkpt lat="43.76974" lon="3.84526">
        <ele>264.6</ele>
        <time>2026-05-21T13:53:49.999Z</time>
      </trkpt>
      <trkpt lat="43.76974" lon="3.84526">
        <ele>264.4</ele>
        <time>2026-05-21T13:53:50.999Z</time>
      </trkpt>
      <trkpt lat="43.76974" lon="3.84526">
        <ele>264.3</ele>
        <time>2026-05-21T13:53:51.999Z</time>
      </trkpt>
      <trkpt lat="43.76975" lon="3.84526">
        <ele>264</ele>
        <time>2026-05-21T13:53:52.999Z</time>
      </trkpt>
      <trkpt lat="43.76975" lon="3.84526">
        <ele>264</ele>
        <time>2026-05-21T13:53:53.999Z</time>
      </trkpt>
      <trkpt lat="43.76976" lon="3.84526">
        <ele>263.9</ele>
        <time>2026-05-21T13:53:54.999Z</time>
      </trkpt>
      <trkpt lat="43.76976" lon="3.84527">
        <ele>263.3</ele>
        <time>2026-05-21T13:53:55.999Z</time>
      </trkpt>
      <trkpt lat="43.76976" lon="3.84526">
        <ele>262.8</ele>
        <time>2026-05-21T13:53:56.999Z</time>
      </trkpt>
      <trkpt lat="43.76977" lon="3.84526">
        <ele>262.7</ele>
        <time>2026-05-21T13:53:57.999Z</time>
      </trkpt>
      <trkpt lat="43.76977" lon="3.84526">
        <ele>262.6</ele>
        <time>2026-05-21T13:53:58.999Z</time>
      </trkpt>
      <trkpt lat="43.76977" lon="3.84526">
        <ele>262.5</ele>
        <time>2026-05-21T13:53:59.999Z</time>
      </trkpt>
      <trkpt lat="43.76977" lon="3.84526">
        <ele>262.1</ele>
        <time>2026-05-21T13:54:00.999Z</time>
      </trkpt>
      <trkpt lat="43.76979" lon="3.84526">
        <ele>261.7</ele>
        <time>2026-05-21T13:54:01.999Z</time>
      </trkpt>
      <trkpt lat="43.76981" lon="3.84526">
        <ele>261.4</ele>
        <time>2026-05-21T13:54:02.999Z</time>
      </trkpt>
      <trkpt lat="43.76983" lon="3.84526">
        <ele>261.2</ele>
        <time>2026-05-21T13:54:03.999Z</time>
      </trkpt>
      <trkpt lat="43.76985" lon="3.84525">
        <ele>261.5</ele>
        <time>2026-05-21T13:54:04.999Z</time>
      </trkpt>
      <trkpt lat="43.76986" lon="3.84525">
        <ele>261.6</ele>
        <time>2026-05-21T13:54:05.999Z</time>
      </trkpt>
      <trkpt lat="43.76988" lon="3.84525">
        <ele>261.8</ele>
        <time>2026-05-21T13:54:06.999Z</time>
      </trkpt>
      <trkpt lat="43.76991" lon="3.84524">
        <ele>262.3</ele>
        <time>2026-05-21T13:54:07.999Z</time>
      </trkpt>
      <trkpt lat="43.76994" lon="3.84523">
        <ele>262.6</ele>
        <time>2026-05-21T13:54:08.999Z</time>
      </trkpt>
      <trkpt lat="43.76995" lon="3.84523">
        <ele>262.7</ele>
        <time>2026-05-21T13:54:09.999Z</time>
      </trkpt>
      <trkpt lat="43.76997" lon="3.84523">
        <ele>262.6</ele>
        <time>2026-05-21T13:54:10.999Z</time>
      </trkpt>
      <trkpt lat="43.76998" lon="3.84523">
        <ele>262.3</ele>
        <time>2026-05-21T13:54:11.999Z</time>
      </trkpt>
      <trkpt lat="43.76999" lon="3.84523">
        <ele>262.5</ele>
        <time>2026-05-21T13:54:12.999Z</time>
      </trkpt>
      <trkpt lat="43.77" lon="3.84523">
        <ele>262.5</ele>
        <time>2026-05-21T13:54:13.999Z</time>
      </trkpt>
      <trkpt lat="43.77" lon="3.84524">
        <ele>262.5</ele>
        <time>2026-05-21T13:54:14.999Z</time>
      </trkpt>
      <trkpt lat="43.76999" lon="3.84525">
        <ele>262.7</ele>
        <time>2026-05-21T13:54:15.999Z</time>
      </trkpt>
      <trkpt lat="43.76999" lon="3.84525">
        <ele>262.6</ele>
        <time>2026-05-21T13:54:16.999Z</time>
      </trkpt>
      <trkpt lat="43.76998" lon="3.84526">
        <ele>262.6</ele>
        <time>2026-05-21T13:54:17.999Z</time>
      </trkpt>
      <trkpt lat="43.76997" lon="3.84526">
        <ele>262.6</ele>
        <time>2026-05-21T13:54:18.999Z</time>
      </trkpt>
      <trkpt lat="43.76997" lon="3.84526">
        <ele>262.1</ele>
        <time>2026-05-21T13:54:19.999Z</time>
      </trkpt>
      <trkpt lat="43.76997" lon="3.84526">
        <ele>262.1</ele>
        <time>2026-05-21T13:54:20.999Z</time>
      </trkpt>
      <trkpt lat="43.76997" lon="3.84526">
        <ele>262.2</ele>
        <time>2026-05-21T13:54:21.999Z</time>
      </trkpt>
      <trkpt lat="43.76996" lon="3.84526">
        <ele>262.1</ele>
        <time>2026-05-21T13:54:22.999Z</time>
      </trkpt>
      <trkpt lat="43.76995" lon="3.84526">
        <ele>262.3</ele>
        <time>2026-05-21T13:54:23.999Z</time>
      </trkpt>
      <trkpt lat="43.76994" lon="3.84526">
        <ele>262.4</ele>
        <time>2026-05-21T13:54:24.999Z</time>
      </trkpt>
      <trkpt lat="43.76994" lon="3.84526">
        <ele>263.1</ele>
        <time>2026-05-21T13:54:25.999Z</time>
      </trkpt>
      <trkpt lat="43.76992" lon="3.84525">
        <ele>263.6</ele>
        <time>2026-05-21T13:54:26.999Z</time>
      </trkpt>
      <trkpt lat="43.7699" lon="3.84526">
        <ele>263.9</ele>
        <time>2026-05-21T13:54:27.999Z</time>
      </trkpt>
      <trkpt lat="43.76989" lon="3.84526">
        <ele>264</ele>
        <time>2026-05-21T13:54:28.999Z</time>
      </trkpt>
      <trkpt lat="43.76988" lon="3.84527">
        <ele>264.5</ele>
        <time>2026-05-21T13:54:29.999Z</time>
      </trkpt>
      <trkpt lat="43.76987" lon="3.84528">
        <ele>265</ele>
        <time>2026-05-21T13:54:30.999Z</time>
      </trkpt>
      <trkpt lat="43.76986" lon="3.84528">
        <ele>265.5</ele>
        <time>2026-05-21T13:54:31.999Z</time>
      </trkpt>
      <trkpt lat="43.76985" lon="3.84529">
        <ele>265.6</ele>
        <time>2026-05-21T13:54:32.999Z</time>
      </trkpt>
      <trkpt lat="43.76984" lon="3.84529">
        <ele>265.7</ele>
        <time>2026-05-21T13:54:33.999Z</time>
      </trkpt>
      <trkpt lat="43.76982" lon="3.8453">
        <ele>265.7</ele>
        <time>2026-05-21T13:54:34.999Z</time>
      </trkpt>
      <trkpt lat="43.76981" lon="3.8453">
        <ele>265.8</ele>
        <time>2026-05-21T13:54:35.999Z</time>
      </trkpt>
      <trkpt lat="43.7698" lon="3.84531">
        <ele>266.4</ele>
        <time>2026-05-21T13:54:36.999Z</time>
      </trkpt>
      <trkpt lat="43.76979" lon="3.84531">
        <ele>266.9</ele>
        <time>2026-05-21T13:54:37.999Z</time>
      </trkpt>
      <trkpt lat="43.76978" lon="3.84532">
        <ele>267</ele>
        <time>2026-05-21T13:54:38.999Z</time>
      </trkpt>
      <trkpt lat="43.76978" lon="3.84532">
        <ele>267</ele>
        <time>2026-05-21T13:54:39.999Z</time>
      </trkpt>
      <trkpt lat="43.76977" lon="3.84533">
        <ele>267.2</ele>
        <time>2026-05-21T13:54:40.999Z</time>
      </trkpt>
      <trkpt lat="43.76977" lon="3.84533">
        <ele>267.7</ele>
        <time>2026-05-21T13:54:41.999Z</time>
      </trkpt>
      <trkpt lat="43.76976" lon="3.84533">
        <ele>267.8</ele>
        <time>2026-05-21T13:54:42.999Z</time>
      </trkpt>
      <trkpt lat="43.76975" lon="3.84533">
        <ele>267.6</ele>
        <time>2026-05-21T13:54:43.999Z</time>
      </trkpt>
      <trkpt lat="43.76974" lon="3.84533">
        <ele>267.4</ele>
        <time>2026-05-21T13:54:44.999Z</time>
      </trkpt>
      <trkpt lat="43.76974" lon="3.84534">
        <ele>267.3</ele>
        <time>2026-05-21T13:54:45.999Z</time>
      </trkpt>
      <trkpt lat="43.76973" lon="3.84535">
        <ele>267.3</ele>
        <time>2026-05-21T13:54:46.999Z</time>
      </trkpt>
      <trkpt lat="43.76972" lon="3.84535">
        <ele>267.2</ele>
        <time>2026-05-21T13:54:47.999Z</time>
      </trkpt>
      <trkpt lat="43.76971" lon="3.84535">
        <ele>266.9</ele>
        <time>2026-05-21T13:54:48.999Z</time>
      </trkpt>
      <trkpt lat="43.76971" lon="3.84536">
        <ele>267.5</ele>
        <time>2026-05-21T13:54:49.999Z</time>
      </trkpt>
      <trkpt lat="43.76971" lon="3.84536">
        <ele>268</ele>
        <time>2026-05-21T13:54:50.999Z</time>
      </trkpt>
      <trkpt lat="43.7697" lon="3.84537">
        <ele>268.5</ele>
        <time>2026-05-21T13:54:51.999Z</time>
      </trkpt>
      <trkpt lat="43.76969" lon="3.84537">
        <ele>268.7</ele>
        <time>2026-05-21T13:54:52.999Z</time>
      </trkpt>
      <trkpt lat="43.76968" lon="3.84538">
        <ele>268.7</ele>
        <time>2026-05-21T13:54:53.999Z</time>
      </trkpt>
      <trkpt lat="43.76966" lon="3.84538">
        <ele>269.1</ele>
        <time>2026-05-21T13:54:54.999Z</time>
      </trkpt>
      <trkpt lat="43.76965" lon="3.84538">
        <ele>269</ele>
        <time>2026-05-21T13:54:55.999Z</time>
      </trkpt>
      <trkpt lat="43.76964" lon="3.84538">
        <ele>269</ele>
        <time>2026-05-21T13:54:56.999Z</time>
      </trkpt>
      <trkpt lat="43.76963" lon="3.84537">
        <ele>268.6</ele>
        <time>2026-05-21T13:54:57.999Z</time>
      </trkpt>
      <trkpt lat="43.76962" lon="3.84538">
        <ele>268.3</ele>
        <time>2026-05-21T13:54:58.999Z</time>
      </trkpt>
      <trkpt lat="43.76961" lon="3.84539">
        <ele>268.3</ele>
        <time>2026-05-21T13:54:59.999Z</time>
      </trkpt>
      <trkpt lat="43.76959" lon="3.84539">
        <ele>268.1</ele>
        <time>2026-05-21T13:55:00.999Z</time>
      </trkpt>
      <trkpt lat="43.76958" lon="3.84539">
        <ele>267.7</ele>
        <time>2026-05-21T13:55:01.999Z</time>
      </trkpt>
      <trkpt lat="43.76957" lon="3.8454">
        <ele>267.4</ele>
        <time>2026-05-21T13:55:02.999Z</time>
      </trkpt>
      <trkpt lat="43.76956" lon="3.84541">
        <ele>267.3</ele>
        <time>2026-05-21T13:55:03.999Z</time>
      </trkpt>
      <trkpt lat="43.76955" lon="3.84541">
        <ele>267.6</ele>
        <time>2026-05-21T13:55:04.999Z</time>
      </trkpt>
      <trkpt lat="43.76955" lon="3.84541">
        <ele>267.4</ele>
        <time>2026-05-21T13:55:05.999Z</time>
      </trkpt>
      <trkpt lat="43.76955" lon="3.84541">
        <ele>267.7</ele>
        <time>2026-05-21T13:55:06.999Z</time>
      </trkpt>
      <trkpt lat="43.76955" lon="3.84541">
        <ele>267.8</ele>
        <time>2026-05-21T13:55:07.999Z</time>
      </trkpt>
      <trkpt lat="43.76953" lon="3.84542">
        <ele>267.6</ele>
        <time>2026-05-21T13:55:08.999Z</time>
      </trkpt>
      <trkpt lat="43.76952" lon="3.84542">
        <ele>267.4</ele>
        <time>2026-05-21T13:55:09.999Z</time>
      </trkpt>
      <trkpt lat="43.76951" lon="3.84541">
        <ele>267</ele>
        <time>2026-05-21T13:55:10.999Z</time>
      </trkpt>
      <trkpt lat="43.76951" lon="3.84541">
        <ele>267</ele>
        <time>2026-05-21T13:55:11.999Z</time>
      </trkpt>
      <trkpt lat="43.7695" lon="3.84541">
        <ele>266.7</ele>
        <time>2026-05-21T13:55:12.999Z</time>
      </trkpt>
      <trkpt lat="43.7695" lon="3.84541">
        <ele>266.4</ele>
        <time>2026-05-21T13:55:13.999Z</time>
      </trkpt>
      <trkpt lat="43.7695" lon="3.84541">
        <ele>266.1</ele>
        <time>2026-05-21T13:55:14.999Z</time>
      </trkpt>
      <trkpt lat="43.76949" lon="3.8454">
        <ele>265.5</ele>
        <time>2026-05-21T13:55:15.999Z</time>
      </trkpt>
      <trkpt lat="43.76949" lon="3.8454">
        <ele>265.2</ele>
        <time>2026-05-21T13:55:16.999Z</time>
      </trkpt>
      <trkpt lat="43.76949" lon="3.8454">
        <ele>264.7</ele>
        <time>2026-05-21T13:55:17.999Z</time>
      </trkpt>
      <trkpt lat="43.76949" lon="3.8454">
        <ele>264.8</ele>
        <time>2026-05-21T13:55:18.999Z</time>
      </trkpt>
      <trkpt lat="43.76948" lon="3.8454">
        <ele>264.8</ele>
        <time>2026-05-21T13:55:19.999Z</time>
      </trkpt>
      <trkpt lat="43.76948" lon="3.8454">
        <ele>264.7</ele>
        <time>2026-05-21T13:55:20.999Z</time>
      </trkpt>
      <trkpt lat="43.76947" lon="3.8454">
        <ele>264.6</ele>
        <time>2026-05-21T13:55:21.999Z</time>
      </trkpt>
      <trkpt lat="43.76945" lon="3.84541">
        <ele>264.5</ele>
        <time>2026-05-21T13:55:22.999Z</time>
      </trkpt>
      <trkpt lat="43.76942" lon="3.84542">
        <ele>265.1</ele>
        <time>2026-05-21T13:55:23.999Z</time>
      </trkpt>
      <trkpt lat="43.76941" lon="3.84542">
        <ele>265.9</ele>
        <time>2026-05-21T13:55:24.999Z</time>
      </trkpt>
      <trkpt lat="43.7694" lon="3.84542">
        <ele>266.2</ele>
        <time>2026-05-21T13:55:25.999Z</time>
      </trkpt>
      <trkpt lat="43.7694" lon="3.84543">
        <ele>266.2</ele>
        <time>2026-05-21T13:55:26.999Z</time>
      </trkpt>
      <trkpt lat="43.76939" lon="3.84543">
        <ele>265.7</ele>
        <time>2026-05-21T13:55:27.999Z</time>
      </trkpt>
      <trkpt lat="43.76938" lon="3.84543">
        <ele>265.1</ele>
        <time>2026-05-21T13:55:28.999Z</time>
      </trkpt>
      <trkpt lat="43.76938" lon="3.84543">
        <ele>264.7</ele>
        <time>2026-05-21T13:55:29.999Z</time>
      </trkpt>
      <trkpt lat="43.76937" lon="3.84543">
        <ele>264.2</ele>
        <time>2026-05-21T13:55:30.999Z</time>
      </trkpt>
      <trkpt lat="43.76937" lon="3.84543">
        <ele>263.9</ele>
        <time>2026-05-21T13:55:31.999Z</time>
      </trkpt>
      <trkpt lat="43.76937" lon="3.84543">
        <ele>263.8</ele>
        <time>2026-05-21T13:55:32.999Z</time>
      </trkpt>
      <trkpt lat="43.76936" lon="3.84543">
        <ele>263.3</ele>
        <time>2026-05-21T13:55:33.999Z</time>
      </trkpt>
      <trkpt lat="43.76936" lon="3.84543">
        <ele>262.8</ele>
        <time>2026-05-21T13:55:34.999Z</time>
      </trkpt>
      <trkpt lat="43.76935" lon="3.84543">
        <ele>262.4</ele>
        <time>2026-05-21T13:55:35.999Z</time>
      </trkpt>
      <trkpt lat="43.76933" lon="3.84544">
        <ele>262.3</ele>
        <time>2026-05-21T13:55:36.999Z</time>
      </trkpt>
      <trkpt lat="43.76931" lon="3.84544">
        <ele>262.1</ele>
        <time>2026-05-21T13:55:37.999Z</time>
      </trkpt>
      <trkpt lat="43.76928" lon="3.84543">
        <ele>262</ele>
        <time>2026-05-21T13:55:38.999Z</time>
      </trkpt>
      <trkpt lat="43.76927" lon="3.84543">
        <ele>261.6</ele>
        <time>2026-05-21T13:55:39.999Z</time>
      </trkpt>
      <trkpt lat="43.76927" lon="3.84543">
        <ele>261.4</ele>
        <time>2026-05-21T13:55:40.999Z</time>
      </trkpt>
      <trkpt lat="43.76926" lon="3.84543">
        <ele>261.1</ele>
        <time>2026-05-21T13:55:41.999Z</time>
      </trkpt>
      <trkpt lat="43.76926" lon="3.84543">
        <ele>260.9</ele>
        <time>2026-05-21T13:55:42.999Z</time>
      </trkpt>
      <trkpt lat="43.76926" lon="3.84543">
        <ele>260.8</ele>
        <time>2026-05-21T13:55:43.999Z</time>
      </trkpt>
      <trkpt lat="43.76924" lon="3.84544">
        <ele>260.5</ele>
        <time>2026-05-21T13:55:44.999Z</time>
      </trkpt>
      <trkpt lat="43.76921" lon="3.84544">
        <ele>260.1</ele>
        <time>2026-05-21T13:55:45.999Z</time>
      </trkpt>
      <trkpt lat="43.76919" lon="3.84543">
        <ele>259.5</ele>
        <time>2026-05-21T13:55:46.999Z</time>
      </trkpt>
      <trkpt lat="43.76917" lon="3.84544">
        <ele>259.4</ele>
        <time>2026-05-21T13:55:47.999Z</time>
      </trkpt>
      <trkpt lat="43.76916" lon="3.84544">
        <ele>259.6</ele>
        <time>2026-05-21T13:55:48.999Z</time>
      </trkpt>
      <trkpt lat="43.76914" lon="3.84545">
        <ele>259.6</ele>
        <time>2026-05-21T13:55:49.999Z</time>
      </trkpt>
      <trkpt lat="43.76912" lon="3.84544">
        <ele>259.8</ele>
        <time>2026-05-21T13:55:50.999Z</time>
      </trkpt>
      <trkpt lat="43.7691" lon="3.84545">
        <ele>259.7</ele>
        <time>2026-05-21T13:55:51.999Z</time>
      </trkpt>
      <trkpt lat="43.76909" lon="3.84545">
        <ele>260.1</ele>
        <time>2026-05-21T13:55:52.999Z</time>
      </trkpt>
      <trkpt lat="43.76908" lon="3.84545">
        <ele>260.6</ele>
        <time>2026-05-21T13:55:53.999Z</time>
      </trkpt>
      <trkpt lat="43.76907" lon="3.84545">
        <ele>260.5</ele>
        <time>2026-05-21T13:55:54.999Z</time>
      </trkpt>
      <trkpt lat="43.76906" lon="3.84544">
        <ele>260.9</ele>
        <time>2026-05-21T13:55:55.999Z</time>
      </trkpt>
      <trkpt lat="43.76905" lon="3.84544">
        <ele>261.2</ele>
        <time>2026-05-21T13:55:56.999Z</time>
      </trkpt>
      <trkpt lat="43.76903" lon="3.84544">
        <ele>261.8</ele>
        <time>2026-05-21T13:55:57.999Z</time>
      </trkpt>
      <trkpt lat="43.76902" lon="3.84544">
        <ele>262.2</ele>
        <time>2026-05-21T13:55:58.999Z</time>
      </trkpt>
      <trkpt lat="43.769" lon="3.84544">
        <ele>262.6</ele>
        <time>2026-05-21T13:55:59.999Z</time>
      </trkpt>
      <trkpt lat="43.76899" lon="3.84543">
        <ele>262.5</ele>
        <time>2026-05-21T13:56:00.999Z</time>
      </trkpt>
      <trkpt lat="43.76899" lon="3.84543">
        <ele>262.7</ele>
        <time>2026-05-21T13:56:01.999Z</time>
      </trkpt>
      <trkpt lat="43.76898" lon="3.84543">
        <ele>262.9</ele>
        <time>2026-05-21T13:56:02.999Z</time>
      </trkpt>
      <trkpt lat="43.76897" lon="3.84543">
        <ele>262.7</ele>
        <time>2026-05-21T13:56:03.999Z</time>
      </trkpt>
      <trkpt lat="43.76895" lon="3.84543">
        <ele>262.7</ele>
        <time>2026-05-21T13:56:04.999Z</time>
      </trkpt>
      <trkpt lat="43.76894" lon="3.84544">
        <ele>263.2</ele>
        <time>2026-05-21T13:56:05.999Z</time>
      </trkpt>
      <trkpt lat="43.76893" lon="3.84544">
        <ele>263.5</ele>
        <time>2026-05-21T13:56:06.999Z</time>
      </trkpt>
      <trkpt lat="43.76892" lon="3.84544">
        <ele>263.7</ele>
        <time>2026-05-21T13:56:07.999Z</time>
      </trkpt>
      <trkpt lat="43.76891" lon="3.84544">
        <ele>263.8</ele>
        <time>2026-05-21T13:56:08.999Z</time>
      </trkpt>
      <trkpt lat="43.76891" lon="3.84545">
        <ele>263.7</ele>
        <time>2026-05-21T13:56:09.999Z</time>
      </trkpt>
      <trkpt lat="43.7689" lon="3.84545">
        <ele>263.5</ele>
        <time>2026-05-21T13:56:10.999Z</time>
      </trkpt>
      <trkpt lat="43.7689" lon="3.84545">
        <ele>263.6</ele>
        <time>2026-05-21T13:56:11.999Z</time>
      </trkpt>
      <trkpt lat="43.76889" lon="3.84545">
        <ele>263.5</ele>
        <time>2026-05-21T13:56:12.999Z</time>
      </trkpt>
      <trkpt lat="43.76889" lon="3.84545">
        <ele>263.4</ele>
        <time>2026-05-21T13:56:13.999Z</time>
      </trkpt>
      <trkpt lat="43.76888" lon="3.84545">
        <ele>263.8</ele>
        <time>2026-05-21T13:56:14.999Z</time>
      </trkpt>
      <trkpt lat="43.76886" lon="3.84545">
        <ele>263.5</ele>
        <time>2026-05-21T13:56:15.999Z</time>
      </trkpt>
      <trkpt lat="43.76886" lon="3.84545">
        <ele>263.4</ele>
        <time>2026-05-21T13:56:16.999Z</time>
      </trkpt>
      <trkpt lat="43.76885" lon="3.84545">
        <ele>263.5</ele>
        <time>2026-05-21T13:56:17.999Z</time>
      </trkpt>
      <trkpt lat="43.76883" lon="3.84544">
        <ele>263.3</ele>
        <time>2026-05-21T13:56:18.999Z</time>
      </trkpt>
      <trkpt lat="43.76882" lon="3.84543">
        <ele>263.2</ele>
        <time>2026-05-21T13:56:19.999Z</time>
      </trkpt>
      <trkpt lat="43.76881" lon="3.84543">
        <ele>262.8</ele>
        <time>2026-05-21T13:56:20.999Z</time>
      </trkpt>
      <trkpt lat="43.7688" lon="3.84542">
        <ele>262.1</ele>
        <time>2026-05-21T13:56:22.000Z</time>
      </trkpt>
      <trkpt lat="43.76879" lon="3.84543">
        <ele>261.9</ele>
        <time>2026-05-21T13:56:23.000Z</time>
      </trkpt>
      <trkpt lat="43.76878" lon="3.84544">
        <ele>261.9</ele>
        <time>2026-05-21T13:56:24.000Z</time>
      </trkpt>
      <trkpt lat="43.76878" lon="3.84544">
        <ele>262.2</ele>
        <time>2026-05-21T13:56:25.000Z</time>
      </trkpt>
      <trkpt lat="43.76878" lon="3.84544">
        <ele>261.8</ele>
        <time>2026-05-21T13:56:26.000Z</time>
      </trkpt>
      <trkpt lat="43.76877" lon="3.84544">
        <ele>261.3</ele>
        <time>2026-05-21T13:56:27.000Z</time>
      </trkpt>
      <trkpt lat="43.76876" lon="3.84545">
        <ele>261.1</ele>
        <time>2026-05-21T13:56:28.000Z</time>
      </trkpt>
      <trkpt lat="43.76875" lon="3.84545">
        <ele>260.7</ele>
        <time>2026-05-21T13:56:29.000Z</time>
      </trkpt>
      <trkpt lat="43.76875" lon="3.84545">
        <ele>260.5</ele>
        <time>2026-05-21T13:56:30.000Z</time>
      </trkpt>
      <trkpt lat="43.76874" lon="3.84546">
        <ele>260.2</ele>
        <time>2026-05-21T13:56:31.000Z</time>
      </trkpt>
      <trkpt lat="43.76873" lon="3.84547">
        <ele>259.9</ele>
        <time>2026-05-21T13:56:32.000Z</time>
      </trkpt>
      <trkpt lat="43.76871" lon="3.84547">
        <ele>259.5</ele>
        <time>2026-05-21T13:56:33.000Z</time>
      </trkpt>
      <trkpt lat="43.7687" lon="3.84547">
        <ele>259.3</ele>
        <time>2026-05-21T13:56:34.000Z</time>
      </trkpt>
      <trkpt lat="43.76869" lon="3.84547">
        <ele>258.5</ele>
        <time>2026-05-21T13:56:35.000Z</time>
      </trkpt>
      <trkpt lat="43.76868" lon="3.84548">
        <ele>258.1</ele>
        <time>2026-05-21T13:56:36.000Z</time>
      </trkpt>
      <trkpt lat="43.76868" lon="3.84549">
        <ele>257.8</ele>
        <time>2026-05-21T13:56:37.000Z</time>
      </trkpt>
      <trkpt lat="43.76867" lon="3.84549">
        <ele>257.6</ele>
        <time>2026-05-21T13:56:38.000Z</time>
      </trkpt>
      <trkpt lat="43.76866" lon="3.8455">
        <ele>257.1</ele>
        <time>2026-05-21T13:56:39.000Z</time>
      </trkpt>
      <trkpt lat="43.76866" lon="3.84551">
        <ele>256.3</ele>
        <time>2026-05-21T13:56:40.000Z</time>
      </trkpt>
      <trkpt lat="43.76865" lon="3.84551">
        <ele>256</ele>
        <time>2026-05-21T13:56:41.000Z</time>
      </trkpt>
      <trkpt lat="43.76865" lon="3.8455">
        <ele>255.8</ele>
        <time>2026-05-21T13:56:42.000Z</time>
      </trkpt>
      <trkpt lat="43.76865" lon="3.84551">
        <ele>255.3</ele>
        <time>2026-05-21T13:56:43.000Z</time>
      </trkpt>
      <trkpt lat="43.76864" lon="3.84551">
        <ele>255.1</ele>
        <time>2026-05-21T13:56:44.000Z</time>
      </trkpt>
      <trkpt lat="43.76863" lon="3.84551">
        <ele>255</ele>
        <time>2026-05-21T13:56:45.000Z</time>
      </trkpt>
      <trkpt lat="43.76862" lon="3.84552">
        <ele>255.2</ele>
        <time>2026-05-21T13:56:46.000Z</time>
      </trkpt>
      <trkpt lat="43.76861" lon="3.84553">
        <ele>255.7</ele>
        <time>2026-05-21T13:56:47.000Z</time>
      </trkpt>
      <trkpt lat="43.7686" lon="3.84553">
        <ele>255.5</ele>
        <time>2026-05-21T13:56:48.000Z</time>
      </trkpt>
      <trkpt lat="43.7686" lon="3.84553">
        <ele>255.3</ele>
        <time>2026-05-21T13:56:49.000Z</time>
      </trkpt>
      <trkpt lat="43.76859" lon="3.84554">
        <ele>254.8</ele>
        <time>2026-05-21T13:56:50.000Z</time>
      </trkpt>
      <trkpt lat="43.76859" lon="3.84555">
        <ele>254.8</ele>
        <time>2026-05-21T13:56:51.000Z</time>
      </trkpt>
      <trkpt lat="43.76858" lon="3.84555">
        <ele>254.3</ele>
        <time>2026-05-21T13:56:52.000Z</time>
      </trkpt>
      <trkpt lat="43.76857" lon="3.84555">
        <ele>254.2</ele>
        <time>2026-05-21T13:56:53.000Z</time>
      </trkpt>
      <trkpt lat="43.76857" lon="3.84556">
        <ele>253.5</ele>
        <time>2026-05-21T13:56:54.000Z</time>
      </trkpt>
      <trkpt lat="43.76855" lon="3.84556">
        <ele>252.8</ele>
        <time>2026-05-21T13:56:55.000Z</time>
      </trkpt>
      <trkpt lat="43.76855" lon="3.84556">
        <ele>252</ele>
        <time>2026-05-21T13:56:56.000Z</time>
      </trkpt>
      <trkpt lat="43.76853" lon="3.84557">
        <ele>251.9</ele>
        <time>2026-05-21T13:56:57.000Z</time>
      </trkpt>
      <trkpt lat="43.76853" lon="3.84557">
        <ele>251.7</ele>
        <time>2026-05-21T13:56:58.000Z</time>
      </trkpt>
      <trkpt lat="43.76852" lon="3.84558">
        <ele>251.6</ele>
        <time>2026-05-21T13:56:59.000Z</time>
      </trkpt>
      <trkpt lat="43.76851" lon="3.84558">
        <ele>251.4</ele>
        <time>2026-05-21T13:57:00.000Z</time>
      </trkpt>
      <trkpt lat="43.7685" lon="3.84558">
        <ele>251</ele>
        <time>2026-05-21T13:57:01.000Z</time>
      </trkpt>
      <trkpt lat="43.76848" lon="3.84558">
        <ele>250.6</ele>
        <time>2026-05-21T13:57:02.000Z</time>
      </trkpt>
      <trkpt lat="43.76847" lon="3.84558">
        <ele>250.8</ele>
        <time>2026-05-21T13:57:03.000Z</time>
      </trkpt>
      <trkpt lat="43.76846" lon="3.84558">
        <ele>251.1</ele>
        <time>2026-05-21T13:57:04.000Z</time>
      </trkpt>
      <trkpt lat="43.76845" lon="3.84559">
        <ele>251.2</ele>
        <time>2026-05-21T13:57:05.000Z</time>
      </trkpt>
      <trkpt lat="43.76843" lon="3.84557">
        <ele>251.5</ele>
        <time>2026-05-21T13:57:07.000Z</time>
      </trkpt>
      <trkpt lat="43.76843" lon="3.84555">
        <ele>251.7</ele>
        <time>2026-05-21T13:57:08.000Z</time>
      </trkpt>
      <trkpt lat="43.76842" lon="3.84555">
        <ele>251.8</ele>
        <time>2026-05-21T13:57:09.000Z</time>
      </trkpt>
      <trkpt lat="43.7684" lon="3.84554">
        <ele>251.9</ele>
        <time>2026-05-21T13:57:10.000Z</time>
      </trkpt>
      <trkpt lat="43.76839" lon="3.84553">
        <ele>252.1</ele>
        <time>2026-05-21T13:57:11.000Z</time>
      </trkpt>
      <trkpt lat="43.76838" lon="3.84553">
        <ele>251.8</ele>
        <time>2026-05-21T13:57:12.000Z</time>
      </trkpt>
      <trkpt lat="43.76837" lon="3.84552">
        <ele>251.7</ele>
        <time>2026-05-21T13:57:13.000Z</time>
      </trkpt>
      <trkpt lat="43.76836" lon="3.84553">
        <ele>250.7</ele>
        <time>2026-05-21T13:57:14.000Z</time>
      </trkpt>
      <trkpt lat="43.76835" lon="3.84553">
        <ele>249.9</ele>
        <time>2026-05-21T13:57:15.000Z</time>
      </trkpt>
      <trkpt lat="43.76834" lon="3.84553">
        <ele>249.7</ele>
        <time>2026-05-21T13:57:16.000Z</time>
      </trkpt>
      <trkpt lat="43.76834" lon="3.84554">
        <ele>249.9</ele>
        <time>2026-05-21T13:57:17.000Z</time>
      </trkpt>
      <trkpt lat="43.76833" lon="3.84554">
        <ele>250.3</ele>
        <time>2026-05-21T13:57:18.000Z</time>
      </trkpt>
      <trkpt lat="43.76832" lon="3.84554">
        <ele>250.4</ele>
        <time>2026-05-21T13:57:19.000Z</time>
      </trkpt>
      <trkpt lat="43.76832" lon="3.84555">
        <ele>250.5</ele>
        <time>2026-05-21T13:57:20.000Z</time>
      </trkpt>
      <trkpt lat="43.76831" lon="3.84555">
        <ele>250.6</ele>
        <time>2026-05-21T13:57:21.000Z</time>
      </trkpt>
      <trkpt lat="43.7683" lon="3.84556">
        <ele>250.4</ele>
        <time>2026-05-21T13:57:22.000Z</time>
      </trkpt>
      <trkpt lat="43.76829" lon="3.84557">
        <ele>250.3</ele>
        <time>2026-05-21T13:57:23.000Z</time>
      </trkpt>
      <trkpt lat="43.76828" lon="3.84557">
        <ele>250.2</ele>
        <time>2026-05-21T13:57:24.000Z</time>
      </trkpt>
      <trkpt lat="43.76827" lon="3.84557">
        <ele>250.3</ele>
        <time>2026-05-21T13:57:25.000Z</time>
      </trkpt>
      <trkpt lat="43.76827" lon="3.84557">
        <ele>250.3</ele>
        <time>2026-05-21T13:57:26.000Z</time>
      </trkpt>
      <trkpt lat="43.76826" lon="3.84558">
        <ele>250.7</ele>
        <time>2026-05-21T13:57:27.000Z</time>
      </trkpt>
      <trkpt lat="43.76825" lon="3.84559">
        <ele>250.5</ele>
        <time>2026-05-21T13:57:28.000Z</time>
      </trkpt>
      <trkpt lat="43.76824" lon="3.8456">
        <ele>250.5</ele>
        <time>2026-05-21T13:57:29.000Z</time>
      </trkpt>
      <trkpt lat="43.76823" lon="3.84561">
        <ele>250.6</ele>
        <time>2026-05-21T13:57:30.000Z</time>
      </trkpt>
      <trkpt lat="43.76822" lon="3.84562">
        <ele>250.6</ele>
        <time>2026-05-21T13:57:31.000Z</time>
      </trkpt>
      <trkpt lat="43.76822" lon="3.84562">
        <ele>250.9</ele>
        <time>2026-05-21T13:57:32.000Z</time>
      </trkpt>
      <trkpt lat="43.76821" lon="3.84562">
        <ele>251.1</ele>
        <time>2026-05-21T13:57:33.000Z</time>
      </trkpt>
      <trkpt lat="43.7682" lon="3.84561">
        <ele>251.3</ele>
        <time>2026-05-21T13:57:34.000Z</time>
      </trkpt>
      <trkpt lat="43.76819" lon="3.84561">
        <ele>251.1</ele>
        <time>2026-05-21T13:57:35.000Z</time>
      </trkpt>
      <trkpt lat="43.76818" lon="3.8456">
        <ele>251.1</ele>
        <time>2026-05-21T13:57:36.000Z</time>
      </trkpt>
      <trkpt lat="43.76817" lon="3.8456">
        <ele>251.1</ele>
        <time>2026-05-21T13:57:37.000Z</time>
      </trkpt>
      <trkpt lat="43.76816" lon="3.84559">
        <ele>251.2</ele>
        <time>2026-05-21T13:57:38.000Z</time>
      </trkpt>
      <trkpt lat="43.76815" lon="3.84559">
        <ele>250.7</ele>
        <time>2026-05-21T13:57:39.000Z</time>
      </trkpt>
      <trkpt lat="43.76814" lon="3.84558">
        <ele>250.6</ele>
        <time>2026-05-21T13:57:40.000Z</time>
      </trkpt>
      <trkpt lat="43.76813" lon="3.84557">
        <ele>250.3</ele>
        <time>2026-05-21T13:57:41.000Z</time>
      </trkpt>
      <trkpt lat="43.76813" lon="3.84557">
        <ele>250.2</ele>
        <time>2026-05-21T13:57:42.000Z</time>
      </trkpt>
      <trkpt lat="43.76812" lon="3.84557">
        <ele>250.5</ele>
        <time>2026-05-21T13:57:43.000Z</time>
      </trkpt>
      <trkpt lat="43.76811" lon="3.84558">
        <ele>250.6</ele>
        <time>2026-05-21T13:57:44.000Z</time>
      </trkpt>
      <trkpt lat="43.7681" lon="3.84558">
        <ele>250.7</ele>
        <time>2026-05-21T13:57:45.000Z</time>
      </trkpt>
      <trkpt lat="43.7681" lon="3.84559">
        <ele>250.8</ele>
        <time>2026-05-21T13:57:46.000Z</time>
      </trkpt>
      <trkpt lat="43.76809" lon="3.84559">
        <ele>250.7</ele>
        <time>2026-05-21T13:57:47.000Z</time>
      </trkpt>
      <trkpt lat="43.76808" lon="3.84559">
        <ele>250.3</ele>
        <time>2026-05-21T13:57:48.000Z</time>
      </trkpt>
      <trkpt lat="43.76807" lon="3.84558">
        <ele>249.6</ele>
        <time>2026-05-21T13:57:49.000Z</time>
      </trkpt>
      <trkpt lat="43.76806" lon="3.84559">
        <ele>249</ele>
        <time>2026-05-21T13:57:50.000Z</time>
      </trkpt>
      <trkpt lat="43.76805" lon="3.84559">
        <ele>248.9</ele>
        <time>2026-05-21T13:57:51.000Z</time>
      </trkpt>
      <trkpt lat="43.76804" lon="3.8456">
        <ele>248.9</ele>
        <time>2026-05-21T13:57:52.000Z</time>
      </trkpt>
      <trkpt lat="43.76804" lon="3.8456">
        <ele>249</ele>
        <time>2026-05-21T13:57:53.000Z</time>
      </trkpt>
      <trkpt lat="43.76803" lon="3.8456">
        <ele>249.2</ele>
        <time>2026-05-21T13:57:54.000Z</time>
      </trkpt>
      <trkpt lat="43.76802" lon="3.8456">
        <ele>249.2</ele>
        <time>2026-05-21T13:57:55.000Z</time>
      </trkpt>
      <trkpt lat="43.76801" lon="3.84559">
        <ele>249.1</ele>
        <time>2026-05-21T13:57:56.000Z</time>
      </trkpt>
      <trkpt lat="43.768" lon="3.84559">
        <ele>248.8</ele>
        <time>2026-05-21T13:57:57.000Z</time>
      </trkpt>
      <trkpt lat="43.76799" lon="3.84558">
        <ele>248.1</ele>
        <time>2026-05-21T13:57:58.000Z</time>
      </trkpt>
      <trkpt lat="43.76798" lon="3.84557">
        <ele>247.5</ele>
        <time>2026-05-21T13:57:59.000Z</time>
      </trkpt>
      <trkpt lat="43.76798" lon="3.84557">
        <ele>247.1</ele>
        <time>2026-05-21T13:58:00.000Z</time>
      </trkpt>
      <trkpt lat="43.76797" lon="3.84556">
        <ele>246.7</ele>
        <time>2026-05-21T13:58:01.000Z</time>
      </trkpt>
      <trkpt lat="43.76796" lon="3.84556">
        <ele>246.2</ele>
        <time>2026-05-21T13:58:02.000Z</time>
      </trkpt>
      <trkpt lat="43.76796" lon="3.84556">
        <ele>245.9</ele>
        <time>2026-05-21T13:58:03.000Z</time>
      </trkpt>
      <trkpt lat="43.76796" lon="3.84557">
        <ele>245.7</ele>
        <time>2026-05-21T13:58:04.000Z</time>
      </trkpt>
      <trkpt lat="43.76795" lon="3.84557">
        <ele>245.5</ele>
        <time>2026-05-21T13:58:05.000Z</time>
      </trkpt>
      <trkpt lat="43.76794" lon="3.84556">
        <ele>245</ele>
        <time>2026-05-21T13:58:06.000Z</time>
      </trkpt>
      <trkpt lat="43.76793" lon="3.84556">
        <ele>244.5</ele>
        <time>2026-05-21T13:58:07.000Z</time>
      </trkpt>
      <trkpt lat="43.76793" lon="3.84556">
        <ele>244.1</ele>
        <time>2026-05-21T13:58:08.000Z</time>
      </trkpt>
      <trkpt lat="43.76793" lon="3.84556">
        <ele>243.7</ele>
        <time>2026-05-21T13:58:09.000Z</time>
      </trkpt>
      <trkpt lat="43.76792" lon="3.84557">
        <ele>243.1</ele>
        <time>2026-05-21T13:58:10.000Z</time>
      </trkpt>
      <trkpt lat="43.76791" lon="3.84557">
        <ele>242.6</ele>
        <time>2026-05-21T13:58:11.000Z</time>
      </trkpt>
      <trkpt lat="43.76791" lon="3.84558">
        <ele>242.1</ele>
        <time>2026-05-21T13:58:12.000Z</time>
      </trkpt>
      <trkpt lat="43.7679" lon="3.84558">
        <ele>241.8</ele>
        <time>2026-05-21T13:58:13.000Z</time>
      </trkpt>
      <trkpt lat="43.76789" lon="3.84557">
        <ele>241.5</ele>
        <time>2026-05-21T13:58:14.000Z</time>
      </trkpt>
      <trkpt lat="43.76788" lon="3.84557">
        <ele>241.2</ele>
        <time>2026-05-21T13:58:15.000Z</time>
      </trkpt>
      <trkpt lat="43.76787" lon="3.84557">
        <ele>241</ele>
        <time>2026-05-21T13:58:16.000Z</time>
      </trkpt>
      <trkpt lat="43.76786" lon="3.84558">
        <ele>240.8</ele>
        <time>2026-05-21T13:58:17.000Z</time>
      </trkpt>
      <trkpt lat="43.76784" lon="3.84558">
        <ele>240.7</ele>
        <time>2026-05-21T13:58:18.000Z</time>
      </trkpt>
      <trkpt lat="43.76783" lon="3.84558">
        <ele>240.4</ele>
        <time>2026-05-21T13:58:19.000Z</time>
      </trkpt>
      <trkpt lat="43.76783" lon="3.84558">
        <ele>240</ele>
        <time>2026-05-21T13:58:20.000Z</time>
      </trkpt>
      <trkpt lat="43.76782" lon="3.84558">
        <ele>240</ele>
        <time>2026-05-21T13:58:21.000Z</time>
      </trkpt>
      <trkpt lat="43.76781" lon="3.84559">
        <ele>240</ele>
        <time>2026-05-21T13:58:22.000Z</time>
      </trkpt>
      <trkpt lat="43.76781" lon="3.84559">
        <ele>239.9</ele>
        <time>2026-05-21T13:58:23.000Z</time>
      </trkpt>
      <trkpt lat="43.7678" lon="3.84559">
        <ele>239.9</ele>
        <time>2026-05-21T13:58:24.000Z</time>
      </trkpt>
      <trkpt lat="43.76779" lon="3.84558">
        <ele>239.5</ele>
        <time>2026-05-21T13:58:25.000Z</time>
      </trkpt>
      <trkpt lat="43.76779" lon="3.84559">
        <ele>239.3</ele>
        <time>2026-05-21T13:58:26.000Z</time>
      </trkpt>
      <trkpt lat="43.76778" lon="3.84559">
        <ele>239.2</ele>
        <time>2026-05-21T13:58:27.000Z</time>
      </trkpt>
      <trkpt lat="43.76777" lon="3.84559">
        <ele>239.1</ele>
        <time>2026-05-21T13:58:28.000Z</time>
      </trkpt>
      <trkpt lat="43.76776" lon="3.84559">
        <ele>238.9</ele>
        <time>2026-05-21T13:58:29.000Z</time>
      </trkpt>
      <trkpt lat="43.76776" lon="3.84559">
        <ele>238.9</ele>
        <time>2026-05-21T13:58:30.000Z</time>
      </trkpt>
      <trkpt lat="43.76775" lon="3.84559">
        <ele>239.1</ele>
        <time>2026-05-21T13:58:31.000Z</time>
      </trkpt>
      <trkpt lat="43.76775" lon="3.84558">
        <ele>238.9</ele>
        <time>2026-05-21T13:58:32.000Z</time>
      </trkpt>
      <trkpt lat="43.76774" lon="3.84559">
        <ele>239</ele>
        <time>2026-05-21T13:58:33.000Z</time>
      </trkpt>
      <trkpt lat="43.76773" lon="3.8456">
        <ele>239</ele>
        <time>2026-05-21T13:58:34.000Z</time>
      </trkpt>
      <trkpt lat="43.76772" lon="3.8456">
        <ele>239.2</ele>
        <time>2026-05-21T13:58:35.000Z</time>
      </trkpt>
      <trkpt lat="43.76772" lon="3.84561">
        <ele>238.9</ele>
        <time>2026-05-21T13:58:36.000Z</time>
      </trkpt>
      <trkpt lat="43.76771" lon="3.84561">
        <ele>238.5</ele>
        <time>2026-05-21T13:58:37.000Z</time>
      </trkpt>
      <trkpt lat="43.7677" lon="3.84562">
        <ele>238.3</ele>
        <time>2026-05-21T13:58:38.000Z</time>
      </trkpt>
      <trkpt lat="43.76769" lon="3.84562">
        <ele>237.9</ele>
        <time>2026-05-21T13:58:39.000Z</time>
      </trkpt>
      <trkpt lat="43.76769" lon="3.84562">
        <ele>237.6</ele>
        <time>2026-05-21T13:58:40.000Z</time>
      </trkpt>
      <trkpt lat="43.76768" lon="3.84563">
        <ele>237.1</ele>
        <time>2026-05-21T13:58:41.000Z</time>
      </trkpt>
      <trkpt lat="43.76767" lon="3.84562">
        <ele>236.6</ele>
        <time>2026-05-21T13:58:42.000Z</time>
      </trkpt>
      <trkpt lat="43.76767" lon="3.84561">
        <ele>236</ele>
        <time>2026-05-21T13:58:43.000Z</time>
      </trkpt>
      <trkpt lat="43.76766" lon="3.84561">
        <ele>236.1</ele>
        <time>2026-05-21T13:58:44.000Z</time>
      </trkpt>
      <trkpt lat="43.76766" lon="3.84561">
        <ele>236.4</ele>
        <time>2026-05-21T13:58:45.000Z</time>
      </trkpt>
      <trkpt lat="43.76765" lon="3.8456">
        <ele>236.5</ele>
        <time>2026-05-21T13:58:46.000Z</time>
      </trkpt>
      <trkpt lat="43.76764" lon="3.84561">
        <ele>236.3</ele>
        <time>2026-05-21T13:58:47.000Z</time>
      </trkpt>
      <trkpt lat="43.76763" lon="3.8456">
        <ele>236.1</ele>
        <time>2026-05-21T13:58:48.000Z</time>
      </trkpt>
      <trkpt lat="43.76762" lon="3.8456">
        <ele>235.8</ele>
        <time>2026-05-21T13:58:49.000Z</time>
      </trkpt>
      <trkpt lat="43.76761" lon="3.8456">
        <ele>235.6</ele>
        <time>2026-05-21T13:58:50.000Z</time>
      </trkpt>
      <trkpt lat="43.76761" lon="3.8456">
        <ele>235.4</ele>
        <time>2026-05-21T13:58:51.000Z</time>
      </trkpt>
      <trkpt lat="43.7676" lon="3.84559">
        <ele>234.9</ele>
        <time>2026-05-21T13:58:52.000Z</time>
      </trkpt>
      <trkpt lat="43.7676" lon="3.84559">
        <ele>234.6</ele>
        <time>2026-05-21T13:58:53.000Z</time>
      </trkpt>
      <trkpt lat="43.7676" lon="3.84559">
        <ele>234.2</ele>
        <time>2026-05-21T13:58:54.000Z</time>
      </trkpt>
      <trkpt lat="43.76759" lon="3.84558">
        <ele>234.3</ele>
        <time>2026-05-21T13:58:55.000Z</time>
      </trkpt>
      <trkpt lat="43.76758" lon="3.84558">
        <ele>234.5</ele>
        <time>2026-05-21T13:58:56.000Z</time>
      </trkpt>
      <trkpt lat="43.76757" lon="3.84558">
        <ele>234.2</ele>
        <time>2026-05-21T13:58:57.000Z</time>
      </trkpt>
      <trkpt lat="43.76757" lon="3.84558">
        <ele>233.8</ele>
        <time>2026-05-21T13:58:58.000Z</time>
      </trkpt>
      <trkpt lat="43.76756" lon="3.84557">
        <ele>233.3</ele>
        <time>2026-05-21T13:58:59.000Z</time>
      </trkpt>
      <trkpt lat="43.76755" lon="3.84558">
        <ele>232.7</ele>
        <time>2026-05-21T13:59:00.000Z</time>
      </trkpt>
      <trkpt lat="43.76754" lon="3.84559">
        <ele>232.4</ele>
        <time>2026-05-21T13:59:01.000Z</time>
      </trkpt>
      <trkpt lat="43.76753" lon="3.8456">
        <ele>232.5</ele>
        <time>2026-05-21T13:59:02.000Z</time>
      </trkpt>
      <trkpt lat="43.76752" lon="3.8456">
        <ele>232.7</ele>
        <time>2026-05-21T13:59:03.000Z</time>
      </trkpt>
      <trkpt lat="43.76751" lon="3.8456">
        <ele>232.6</ele>
        <time>2026-05-21T13:59:04.000Z</time>
      </trkpt>
      <trkpt lat="43.7675" lon="3.8456">
        <ele>232.6</ele>
        <time>2026-05-21T13:59:05.000Z</time>
      </trkpt>
      <trkpt lat="43.7675" lon="3.84559">
        <ele>233</ele>
        <time>2026-05-21T13:59:06.000Z</time>
      </trkpt>
      <trkpt lat="43.76749" lon="3.84559">
        <ele>233.1</ele>
        <time>2026-05-21T13:59:07.000Z</time>
      </trkpt>
      <trkpt lat="43.76748" lon="3.84558">
        <ele>233.1</ele>
        <time>2026-05-21T13:59:08.000Z</time>
      </trkpt>
      <trkpt lat="43.76747" lon="3.84559">
        <ele>232.9</ele>
        <time>2026-05-21T13:59:09.000Z</time>
      </trkpt>
      <trkpt lat="43.76746" lon="3.84561">
        <ele>232.9</ele>
        <time>2026-05-21T13:59:10.000Z</time>
      </trkpt>
      <trkpt lat="43.76746" lon="3.84561">
        <ele>233</ele>
        <time>2026-05-21T13:59:11.000Z</time>
      </trkpt>
      <trkpt lat="43.76745" lon="3.84562">
        <ele>232.8</ele>
        <time>2026-05-21T13:59:12.000Z</time>
      </trkpt>
      <trkpt lat="43.76744" lon="3.84563">
        <ele>232.9</ele>
        <time>2026-05-21T13:59:13.000Z</time>
      </trkpt>
      <trkpt lat="43.76744" lon="3.84565">
        <ele>233.1</ele>
        <time>2026-05-21T13:59:14.000Z</time>
      </trkpt>
      <trkpt lat="43.76744" lon="3.84567">
        <ele>232.5</ele>
        <time>2026-05-21T13:59:15.000Z</time>
      </trkpt>
      <trkpt lat="43.76743" lon="3.84569">
        <ele>232.2</ele>
        <time>2026-05-21T13:59:16.000Z</time>
      </trkpt>
      <trkpt lat="43.76743" lon="3.8457">
        <ele>231.5</ele>
        <time>2026-05-21T13:59:17.000Z</time>
      </trkpt>
      <trkpt lat="43.76743" lon="3.8457">
        <ele>231</ele>
        <time>2026-05-21T13:59:18.000Z</time>
      </trkpt>
      <trkpt lat="43.76742" lon="3.8457">
        <ele>230.8</ele>
        <time>2026-05-21T13:59:19.000Z</time>
      </trkpt>
      <trkpt lat="43.76742" lon="3.8457">
        <ele>230.9</ele>
        <time>2026-05-21T13:59:20.000Z</time>
      </trkpt>
      <trkpt lat="43.76741" lon="3.84571">
        <ele>230.8</ele>
        <time>2026-05-21T13:59:21.000Z</time>
      </trkpt>
      <trkpt lat="43.76741" lon="3.84571">
        <ele>230.6</ele>
        <time>2026-05-21T13:59:22.000Z</time>
      </trkpt>
      <trkpt lat="43.7674" lon="3.84573">
        <ele>230.6</ele>
        <time>2026-05-21T13:59:23.000Z</time>
      </trkpt>
      <trkpt lat="43.7674" lon="3.84573">
        <ele>230.5</ele>
        <time>2026-05-21T13:59:24.000Z</time>
      </trkpt>
      <trkpt lat="43.76739" lon="3.84574">
        <ele>230.4</ele>
        <time>2026-05-21T13:59:25.000Z</time>
      </trkpt>
      <trkpt lat="43.76739" lon="3.84575">
        <ele>230.4</ele>
        <time>2026-05-21T13:59:26.000Z</time>
      </trkpt>
      <trkpt lat="43.76739" lon="3.84576">
        <ele>230.5</ele>
        <time>2026-05-21T13:59:27.000Z</time>
      </trkpt>
      <trkpt lat="43.76738" lon="3.84577">
        <ele>230.3</ele>
        <time>2026-05-21T13:59:28.000Z</time>
      </trkpt>
      <trkpt lat="43.76737" lon="3.84578">
        <ele>230.2</ele>
        <time>2026-05-21T13:59:29.000Z</time>
      </trkpt>
      <trkpt lat="43.76737" lon="3.84579">
        <ele>230.1</ele>
        <time>2026-05-21T13:59:30.000Z</time>
      </trkpt>
      <trkpt lat="43.76737" lon="3.8458">
        <ele>229.9</ele>
        <time>2026-05-21T13:59:31.000Z</time>
      </trkpt>
      <trkpt lat="43.76736" lon="3.84581">
        <ele>229.7</ele>
        <time>2026-05-21T13:59:32.000Z</time>
      </trkpt>
      <trkpt lat="43.76736" lon="3.84583">
        <ele>229.5</ele>
        <time>2026-05-21T13:59:33.000Z</time>
      </trkpt>
      <trkpt lat="43.76735" lon="3.84584">
        <ele>229.1</ele>
        <time>2026-05-21T13:59:34.000Z</time>
      </trkpt>
      <trkpt lat="43.76735" lon="3.84585">
        <ele>228.5</ele>
        <time>2026-05-21T13:59:35.000Z</time>
      </trkpt>
      <trkpt lat="43.76734" lon="3.84586">
        <ele>228.4</ele>
        <time>2026-05-21T13:59:36.000Z</time>
      </trkpt>
      <trkpt lat="43.76733" lon="3.84586">
        <ele>228.1</ele>
        <time>2026-05-21T13:59:37.000Z</time>
      </trkpt>
      <trkpt lat="43.76733" lon="3.84586">
        <ele>228.1</ele>
        <time>2026-05-21T13:59:38.000Z</time>
      </trkpt>
      <trkpt lat="43.76732" lon="3.84587">
        <ele>227.9</ele>
        <time>2026-05-21T13:59:39.000Z</time>
      </trkpt>
      <trkpt lat="43.76732" lon="3.84589">
        <ele>227.5</ele>
        <time>2026-05-21T13:59:40.000Z</time>
      </trkpt>
      <trkpt lat="43.76732" lon="3.8459">
        <ele>227</ele>
        <time>2026-05-21T13:59:41.000Z</time>
      </trkpt>
      <trkpt lat="43.76732" lon="3.84591">
        <ele>227</ele>
        <time>2026-05-21T13:59:42.000Z</time>
      </trkpt>
      <trkpt lat="43.76733" lon="3.84593">
        <ele>227.1</ele>
        <time>2026-05-21T13:59:43.000Z</time>
      </trkpt>
      <trkpt lat="43.76733" lon="3.84595">
        <ele>227</ele>
        <time>2026-05-21T13:59:44.000Z</time>
      </trkpt>
      <trkpt lat="43.76734" lon="3.84597">
        <ele>227</ele>
        <time>2026-05-21T13:59:45.000Z</time>
      </trkpt>
      <trkpt lat="43.76735" lon="3.84598">
        <ele>226.9</ele>
        <time>2026-05-21T13:59:46.000Z</time>
      </trkpt>
      <trkpt lat="43.76736" lon="3.84599">
        <ele>227</ele>
        <time>2026-05-21T13:59:47.000Z</time>
      </trkpt>
      <trkpt lat="43.76737" lon="3.84599">
        <ele>227</ele>
        <time>2026-05-21T13:59:48.000Z</time>
      </trkpt>
      <trkpt lat="43.76737" lon="3.846">
        <ele>226.9</ele>
        <time>2026-05-21T13:59:49.000Z</time>
      </trkpt>
      <trkpt lat="43.76738" lon="3.84601">
        <ele>226.8</ele>
        <time>2026-05-21T13:59:50.000Z</time>
      </trkpt>
      <trkpt lat="43.76739" lon="3.84602">
        <ele>226.8</ele>
        <time>2026-05-21T13:59:51.000Z</time>
      </trkpt>
      <trkpt lat="43.7674" lon="3.84603">
        <ele>226.9</ele>
        <time>2026-05-21T13:59:52.000Z</time>
      </trkpt>
      <trkpt lat="43.7674" lon="3.84604">
        <ele>226.9</ele>
        <time>2026-05-21T13:59:53.000Z</time>
      </trkpt>
      <trkpt lat="43.76741" lon="3.84605">
        <ele>227</ele>
        <time>2026-05-21T13:59:54.000Z</time>
      </trkpt>
      <trkpt lat="43.76742" lon="3.84606">
        <ele>226.9</ele>
        <time>2026-05-21T13:59:55.000Z</time>
      </trkpt>
      <trkpt lat="43.76743" lon="3.84607">
        <ele>227.2</ele>
        <time>2026-05-21T13:59:56.000Z</time>
      </trkpt>
      <trkpt lat="43.76743" lon="3.84608">
        <ele>227.4</ele>
        <time>2026-05-21T13:59:57.000Z</time>
      </trkpt>
      <trkpt lat="43.76744" lon="3.8461">
        <ele>227.5</ele>
        <time>2026-05-21T13:59:58.000Z</time>
      </trkpt>
      <trkpt lat="43.76744" lon="3.84611">
        <ele>227.1</ele>
        <time>2026-05-21T13:59:59.000Z</time>
      </trkpt>
      <trkpt lat="43.76744" lon="3.84613">
        <ele>226.7</ele>
        <time>2026-05-21T14:00:00.000Z</time>
      </trkpt>
      <trkpt lat="43.76745" lon="3.84614">
        <ele>226.3</ele>
        <time>2026-05-21T14:00:01.000Z</time>
      </trkpt>
      <trkpt lat="43.76745" lon="3.84616">
        <ele>225.9</ele>
        <time>2026-05-21T14:00:02.000Z</time>
      </trkpt>
      <trkpt lat="43.76745" lon="3.84617">
        <ele>225.7</ele>
        <time>2026-05-21T14:00:03.000Z</time>
      </trkpt>
      <trkpt lat="43.76745" lon="3.84619">
        <ele>225.1</ele>
        <time>2026-05-21T14:00:04.000Z</time>
      </trkpt>
      <trkpt lat="43.76746" lon="3.8462">
        <ele>225</ele>
        <time>2026-05-21T14:00:05.000Z</time>
      </trkpt>
      <trkpt lat="43.76747" lon="3.8462">
        <ele>225.2</ele>
        <time>2026-05-21T14:00:06.000Z</time>
      </trkpt>
      <trkpt lat="43.76747" lon="3.84621">
        <ele>225.3</ele>
        <time>2026-05-21T14:00:07.000Z</time>
      </trkpt>
      <trkpt lat="43.76748" lon="3.84622">
        <ele>225.3</ele>
        <time>2026-05-21T14:00:08.000Z</time>
      </trkpt>
      <trkpt lat="43.76748" lon="3.84622">
        <ele>224.9</ele>
        <time>2026-05-21T14:00:09.000Z</time>
      </trkpt>
      <trkpt lat="43.76749" lon="3.84623">
        <ele>224.8</ele>
        <time>2026-05-21T14:00:10.000Z</time>
      </trkpt>
      <trkpt lat="43.76749" lon="3.84624">
        <ele>224.3</ele>
        <time>2026-05-21T14:00:11.000Z</time>
      </trkpt>
      <trkpt lat="43.76749" lon="3.84625">
        <ele>224.1</ele>
        <time>2026-05-21T14:00:12.000Z</time>
      </trkpt>
      <trkpt lat="43.7675" lon="3.84626">
        <ele>223.9</ele>
        <time>2026-05-21T14:00:13.000Z</time>
      </trkpt>
      <trkpt lat="43.7675" lon="3.84627">
        <ele>223.9</ele>
        <time>2026-05-21T14:00:14.000Z</time>
      </trkpt>
      <trkpt lat="43.76751" lon="3.84627">
        <ele>223.7</ele>
        <time>2026-05-21T14:00:15.000Z</time>
      </trkpt>
      <trkpt lat="43.76752" lon="3.84628">
        <ele>223.5</ele>
        <time>2026-05-21T14:00:16.000Z</time>
      </trkpt>
      <trkpt lat="43.76753" lon="3.84629">
        <ele>223.4</ele>
        <time>2026-05-21T14:00:17.000Z</time>
      </trkpt>
      <trkpt lat="43.76753" lon="3.8463">
        <ele>223.2</ele>
        <time>2026-05-21T14:00:18.000Z</time>
      </trkpt>
      <trkpt lat="43.76754" lon="3.84631">
        <ele>223.2</ele>
        <time>2026-05-21T14:00:19.000Z</time>
      </trkpt>
      <trkpt lat="43.76754" lon="3.84631">
        <ele>223</ele>
        <time>2026-05-21T14:00:20.000Z</time>
      </trkpt>
      <trkpt lat="43.76755" lon="3.84632">
        <ele>222.9</ele>
        <time>2026-05-21T14:00:21.000Z</time>
      </trkpt>
      <trkpt lat="43.76755" lon="3.84634">
        <ele>223.2</ele>
        <time>2026-05-21T14:00:22.000Z</time>
      </trkpt>
      <trkpt lat="43.76756" lon="3.84636">
        <ele>222.7</ele>
        <time>2026-05-21T14:00:23.000Z</time>
      </trkpt>
      <trkpt lat="43.76757" lon="3.84637">
        <ele>222.7</ele>
        <time>2026-05-21T14:00:24.000Z</time>
      </trkpt>
      <trkpt lat="43.76757" lon="3.84637">
        <ele>222.5</ele>
        <time>2026-05-21T14:00:25.000Z</time>
      </trkpt>
      <trkpt lat="43.76758" lon="3.84637">
        <ele>222.2</ele>
        <time>2026-05-21T14:00:26.000Z</time>
      </trkpt>
      <trkpt lat="43.76758" lon="3.84638">
        <ele>221.9</ele>
        <time>2026-05-21T14:00:27.000Z</time>
      </trkpt>
      <trkpt lat="43.76759" lon="3.84638">
        <ele>221.5</ele>
        <time>2026-05-21T14:00:28.000Z</time>
      </trkpt>
      <trkpt lat="43.76759" lon="3.84639">
        <ele>221.2</ele>
        <time>2026-05-21T14:00:29.000Z</time>
      </trkpt>
      <trkpt lat="43.7676" lon="3.8464">
        <ele>221.1</ele>
        <time>2026-05-21T14:00:30.000Z</time>
      </trkpt>
      <trkpt lat="43.7676" lon="3.84641">
        <ele>221.1</ele>
        <time>2026-05-21T14:00:31.000Z</time>
      </trkpt>
      <trkpt lat="43.7676" lon="3.84642">
        <ele>221.3</ele>
        <time>2026-05-21T14:00:32.000Z</time>
      </trkpt>
      <trkpt lat="43.7676" lon="3.84643">
        <ele>221.2</ele>
        <time>2026-05-21T14:00:33.000Z</time>
      </trkpt>
      <trkpt lat="43.76761" lon="3.84644">
        <ele>221.1</ele>
        <time>2026-05-21T14:00:34.000Z</time>
      </trkpt>
      <trkpt lat="43.76762" lon="3.84645">
        <ele>221.2</ele>
        <time>2026-05-21T14:00:35.000Z</time>
      </trkpt>
      <trkpt lat="43.76762" lon="3.84646">
        <ele>221.2</ele>
        <time>2026-05-21T14:00:36.000Z</time>
      </trkpt>
      <trkpt lat="43.76763" lon="3.84647">
        <ele>221.4</ele>
        <time>2026-05-21T14:00:37.000Z</time>
      </trkpt>
      <trkpt lat="43.76764" lon="3.84648">
        <ele>221.7</ele>
        <time>2026-05-21T14:00:38.000Z</time>
      </trkpt>
      <trkpt lat="43.76764" lon="3.8465">
        <ele>221.8</ele>
        <time>2026-05-21T14:00:39.000Z</time>
      </trkpt>
      <trkpt lat="43.76765" lon="3.84651">
        <ele>222.1</ele>
        <time>2026-05-21T14:00:40.000Z</time>
      </trkpt>
      <trkpt lat="43.76765" lon="3.84651">
        <ele>222.3</ele>
        <time>2026-05-21T14:00:41.000Z</time>
      </trkpt>
      <trkpt lat="43.76766" lon="3.84652">
        <ele>222.4</ele>
        <time>2026-05-21T14:00:42.000Z</time>
      </trkpt>
      <trkpt lat="43.76767" lon="3.84653">
        <ele>222.6</ele>
        <time>2026-05-21T14:00:43.000Z</time>
      </trkpt>
      <trkpt lat="43.76768" lon="3.84654">
        <ele>222.5</ele>
        <time>2026-05-21T14:00:44.000Z</time>
      </trkpt>
      <trkpt lat="43.76768" lon="3.84655">
        <ele>222.3</ele>
        <time>2026-05-21T14:00:45.000Z</time>
      </trkpt>
      <trkpt lat="43.76768" lon="3.84655">
        <ele>222.3</ele>
        <time>2026-05-21T14:00:46.000Z</time>
      </trkpt>
      <trkpt lat="43.76768" lon="3.84657">
        <ele>222.1</ele>
        <time>2026-05-21T14:00:47.000Z</time>
      </trkpt>
      <trkpt lat="43.76769" lon="3.84659">
        <ele>222.1</ele>
        <time>2026-05-21T14:00:48.000Z</time>
      </trkpt>
      <trkpt lat="43.76769" lon="3.8466">
        <ele>221.9</ele>
        <time>2026-05-21T14:00:49.000Z</time>
      </trkpt>
      <trkpt lat="43.7677" lon="3.84661">
        <ele>221.6</ele>
        <time>2026-05-21T14:00:50.000Z</time>
      </trkpt>
      <trkpt lat="43.7677" lon="3.84661">
        <ele>221.6</ele>
        <time>2026-05-21T14:00:51.000Z</time>
      </trkpt>
      <trkpt lat="43.76771" lon="3.84662">
        <ele>221.9</ele>
        <time>2026-05-21T14:00:52.000Z</time>
      </trkpt>
      <trkpt lat="43.76771" lon="3.84664">
        <ele>221.9</ele>
        <time>2026-05-21T14:00:53.000Z</time>
      </trkpt>
      <trkpt lat="43.76771" lon="3.84665">
        <ele>221.9</ele>
        <time>2026-05-21T14:00:54.000Z</time>
      </trkpt>
      <trkpt lat="43.76771" lon="3.84667">
        <ele>221.9</ele>
        <time>2026-05-21T14:00:55.000Z</time>
      </trkpt>
      <trkpt lat="43.76772" lon="3.84668">
        <ele>221.3</ele>
        <time>2026-05-21T14:00:56.000Z</time>
      </trkpt>
      <trkpt lat="43.76772" lon="3.8467">
        <ele>220.8</ele>
        <time>2026-05-21T14:00:57.000Z</time>
      </trkpt>
      <trkpt lat="43.76772" lon="3.84671">
        <ele>220.5</ele>
        <time>2026-05-21T14:00:58.000Z</time>
      </trkpt>
      <trkpt lat="43.76773" lon="3.84672">
        <ele>220.3</ele>
        <time>2026-05-21T14:00:59.000Z</time>
      </trkpt>
      <trkpt lat="43.76774" lon="3.84673">
        <ele>220.2</ele>
        <time>2026-05-21T14:01:00.000Z</time>
      </trkpt>
      <trkpt lat="43.76775" lon="3.84674">
        <ele>220.1</ele>
        <time>2026-05-21T14:01:01.000Z</time>
      </trkpt>
      <trkpt lat="43.76775" lon="3.84675">
        <ele>219.9</ele>
        <time>2026-05-21T14:01:02.000Z</time>
      </trkpt>
      <trkpt lat="43.76776" lon="3.84675">
        <ele>219.7</ele>
        <time>2026-05-21T14:01:03.000Z</time>
      </trkpt>
      <trkpt lat="43.76777" lon="3.84676">
        <ele>219.2</ele>
        <time>2026-05-21T14:01:04.000Z</time>
      </trkpt>
      <trkpt lat="43.76778" lon="3.84676">
        <ele>218.8</ele>
        <time>2026-05-21T14:01:05.000Z</time>
      </trkpt>
      <trkpt lat="43.76778" lon="3.84677">
        <ele>218.6</ele>
        <time>2026-05-21T14:01:06.000Z</time>
      </trkpt>
      <trkpt lat="43.76778" lon="3.84679">
        <ele>218.5</ele>
        <time>2026-05-21T14:01:07.000Z</time>
      </trkpt>
      <trkpt lat="43.76779" lon="3.8468">
        <ele>218.4</ele>
        <time>2026-05-21T14:01:08.000Z</time>
      </trkpt>
      <trkpt lat="43.76779" lon="3.84682">
        <ele>218.2</ele>
        <time>2026-05-21T14:01:09.000Z</time>
      </trkpt>
      <trkpt lat="43.76779" lon="3.84683">
        <ele>217.9</ele>
        <time>2026-05-21T14:01:10.000Z</time>
      </trkpt>
      <trkpt lat="43.76779" lon="3.84684">
        <ele>217.8</ele>
        <time>2026-05-21T14:01:11.000Z</time>
      </trkpt>
      <trkpt lat="43.7678" lon="3.84685">
        <ele>217.9</ele>
        <time>2026-05-21T14:01:12.000Z</time>
      </trkpt>
      <trkpt lat="43.76781" lon="3.84687">
        <ele>218</ele>
        <time>2026-05-21T14:01:13.000Z</time>
      </trkpt>
      <trkpt lat="43.76782" lon="3.84689">
        <ele>218.2</ele>
        <time>2026-05-21T14:01:14.000Z</time>
      </trkpt>
      <trkpt lat="43.76783" lon="3.84691">
        <ele>218.4</ele>
        <time>2026-05-21T14:01:15.000Z</time>
      </trkpt>
      <trkpt lat="43.76783" lon="3.84692">
        <ele>218.2</ele>
        <time>2026-05-21T14:01:16.000Z</time>
      </trkpt>
      <trkpt lat="43.76783" lon="3.84693">
        <ele>218</ele>
        <time>2026-05-21T14:01:17.000Z</time>
      </trkpt>
      <trkpt lat="43.76784" lon="3.84694">
        <ele>217.9</ele>
        <time>2026-05-21T14:01:18.000Z</time>
      </trkpt>
      <trkpt lat="43.76784" lon="3.84695">
        <ele>217.7</ele>
        <time>2026-05-21T14:01:19.000Z</time>
      </trkpt>
      <trkpt lat="43.76784" lon="3.84696">
        <ele>217.8</ele>
        <time>2026-05-21T14:01:20.000Z</time>
      </trkpt>
      <trkpt lat="43.76785" lon="3.84697">
        <ele>217.8</ele>
        <time>2026-05-21T14:01:21.000Z</time>
      </trkpt>
      <trkpt lat="43.76785" lon="3.84697">
        <ele>217.6</ele>
        <time>2026-05-21T14:01:22.000Z</time>
      </trkpt>
      <trkpt lat="43.76786" lon="3.84698">
        <ele>217.3</ele>
        <time>2026-05-21T14:01:23.000Z</time>
      </trkpt>
      <trkpt lat="43.76787" lon="3.84699">
        <ele>217</ele>
        <time>2026-05-21T14:01:24.000Z</time>
      </trkpt>
      <trkpt lat="43.76788" lon="3.84701">
        <ele>217</ele>
        <time>2026-05-21T14:01:25.000Z</time>
      </trkpt>
      <trkpt lat="43.76788" lon="3.84703">
        <ele>217</ele>
        <time>2026-05-21T14:01:26.000Z</time>
      </trkpt>
      <trkpt lat="43.76788" lon="3.84704">
        <ele>216.8</ele>
        <time>2026-05-21T14:01:27.000Z</time>
      </trkpt>
      <trkpt lat="43.76788" lon="3.84706">
        <ele>216.7</ele>
        <time>2026-05-21T14:01:28.000Z</time>
      </trkpt>
      <trkpt lat="43.76788" lon="3.84706">
        <ele>216.6</ele>
        <time>2026-05-21T14:01:29.000Z</time>
      </trkpt>
      <trkpt lat="43.76788" lon="3.84707">
        <ele>216.4</ele>
        <time>2026-05-21T14:01:30.000Z</time>
      </trkpt>
      <trkpt lat="43.76789" lon="3.84708">
        <ele>216.1</ele>
        <time>2026-05-21T14:01:31.000Z</time>
      </trkpt>
      <trkpt lat="43.7679" lon="3.84708">
        <ele>216</ele>
        <time>2026-05-21T14:01:32.000Z</time>
      </trkpt>
      <trkpt lat="43.76791" lon="3.84709">
        <ele>215.9</ele>
        <time>2026-05-21T14:01:33.000Z</time>
      </trkpt>
      <trkpt lat="43.76791" lon="3.8471">
        <ele>216</ele>
        <time>2026-05-21T14:01:34.000Z</time>
      </trkpt>
      <trkpt lat="43.76792" lon="3.84711">
        <ele>215.9</ele>
        <time>2026-05-21T14:01:35.000Z</time>
      </trkpt>
      <trkpt lat="43.76792" lon="3.84712">
        <ele>215.9</ele>
        <time>2026-05-21T14:01:36.000Z</time>
      </trkpt>
      <trkpt lat="43.76793" lon="3.84713">
        <ele>216</ele>
        <time>2026-05-21T14:01:37.000Z</time>
      </trkpt>
      <trkpt lat="43.76793" lon="3.84714">
        <ele>215.6</ele>
        <time>2026-05-21T14:01:38.000Z</time>
      </trkpt>
      <trkpt lat="43.76793" lon="3.84715">
        <ele>215.5</ele>
        <time>2026-05-21T14:01:39.000Z</time>
      </trkpt>
      <trkpt lat="43.76793" lon="3.84715">
        <ele>215.6</ele>
        <time>2026-05-21T14:01:40.000Z</time>
      </trkpt>
      <trkpt lat="43.76795" lon="3.84716">
        <ele>215.5</ele>
        <time>2026-05-21T14:01:41.000Z</time>
      </trkpt>
      <trkpt lat="43.76796" lon="3.84717">
        <ele>215.6</ele>
        <time>2026-05-21T14:01:42.000Z</time>
      </trkpt>
      <trkpt lat="43.76796" lon="3.84718">
        <ele>215.6</ele>
        <time>2026-05-21T14:01:43.000Z</time>
      </trkpt>
      <trkpt lat="43.76796" lon="3.84719">
        <ele>215.5</ele>
        <time>2026-05-21T14:01:44.000Z</time>
      </trkpt>
      <trkpt lat="43.76796" lon="3.84721">
        <ele>215.7</ele>
        <time>2026-05-21T14:01:45.000Z</time>
      </trkpt>
      <trkpt lat="43.76796" lon="3.84723">
        <ele>215.9</ele>
        <time>2026-05-21T14:01:46.000Z</time>
      </trkpt>
      <trkpt lat="43.76796" lon="3.84724">
        <ele>216.1</ele>
        <time>2026-05-21T14:01:47.000Z</time>
      </trkpt>
      <trkpt lat="43.76796" lon="3.84725">
        <ele>216.3</ele>
        <time>2026-05-21T14:01:48.000Z</time>
      </trkpt>
      <trkpt lat="43.76796" lon="3.84726">
        <ele>216.5</ele>
        <time>2026-05-21T14:01:49.000Z</time>
      </trkpt>
      <trkpt lat="43.76797" lon="3.84726">
        <ele>216.6</ele>
        <time>2026-05-21T14:01:50.000Z</time>
      </trkpt>
      <trkpt lat="43.76797" lon="3.84727">
        <ele>216.3</ele>
        <time>2026-05-21T14:01:51.000Z</time>
      </trkpt>
      <trkpt lat="43.76798" lon="3.84727">
        <ele>215.9</ele>
        <time>2026-05-21T14:01:52.000Z</time>
      </trkpt>
      <trkpt lat="43.76799" lon="3.84727">
        <ele>215.5</ele>
        <time>2026-05-21T14:01:53.000Z</time>
      </trkpt>
      <trkpt lat="43.76799" lon="3.84728">
        <ele>215.3</ele>
        <time>2026-05-21T14:01:54.000Z</time>
      </trkpt>
      <trkpt lat="43.768" lon="3.84728">
        <ele>215.4</ele>
        <time>2026-05-21T14:01:55.000Z</time>
      </trkpt>
      <trkpt lat="43.76801" lon="3.84728">
        <ele>215.1</ele>
        <time>2026-05-21T14:01:56.000Z</time>
      </trkpt>
      <trkpt lat="43.76801" lon="3.84728">
        <ele>214.7</ele>
        <time>2026-05-21T14:01:57.000Z</time>
      </trkpt>
      <trkpt lat="43.76801" lon="3.84729">
        <ele>214.5</ele>
        <time>2026-05-21T14:01:58.000Z</time>
      </trkpt>
      <trkpt lat="43.76802" lon="3.84729">
        <ele>213.9</ele>
        <time>2026-05-21T14:01:59.000Z</time>
      </trkpt>
      <trkpt lat="43.76801" lon="3.8473">
        <ele>213.5</ele>
        <time>2026-05-21T14:02:00.000Z</time>
      </trkpt>
      <trkpt lat="43.76801" lon="3.84731">
        <ele>213.5</ele>
        <time>2026-05-21T14:02:01.000Z</time>
      </trkpt>
      <trkpt lat="43.76801" lon="3.84732">
        <ele>213.7</ele>
        <time>2026-05-21T14:02:02.000Z</time>
      </trkpt>
      <trkpt lat="43.76802" lon="3.84733">
        <ele>214.2</ele>
        <time>2026-05-21T14:02:03.000Z</time>
      </trkpt>
      <trkpt lat="43.76802" lon="3.84734">
        <ele>214.5</ele>
        <time>2026-05-21T14:02:04.000Z</time>
      </trkpt>
      <trkpt lat="43.76802" lon="3.84735">
        <ele>214.7</ele>
        <time>2026-05-21T14:02:05.000Z</time>
      </trkpt>
      <trkpt lat="43.76802" lon="3.84737">
        <ele>214.7</ele>
        <time>2026-05-21T14:02:06.000Z</time>
      </trkpt>
      <trkpt lat="43.76803" lon="3.84737">
        <ele>214.9</ele>
        <time>2026-05-21T14:02:07.000Z</time>
      </trkpt>
      <trkpt lat="43.76804" lon="3.84738">
        <ele>215.2</ele>
        <time>2026-05-21T14:02:08.000Z</time>
      </trkpt>
      <trkpt lat="43.76804" lon="3.8474">
        <ele>215.3</ele>
        <time>2026-05-21T14:02:09.000Z</time>
      </trkpt>
      <trkpt lat="43.76805" lon="3.84741">
        <ele>215.2</ele>
        <time>2026-05-21T14:02:10.000Z</time>
      </trkpt>
      <trkpt lat="43.76805" lon="3.84742">
        <ele>214.9</ele>
        <time>2026-05-21T14:02:11.000Z</time>
      </trkpt>
      <trkpt lat="43.76806" lon="3.84743">
        <ele>214.4</ele>
        <time>2026-05-21T14:02:12.000Z</time>
      </trkpt>
      <trkpt lat="43.76807" lon="3.84744">
        <ele>214.1</ele>
        <time>2026-05-21T14:02:13.000Z</time>
      </trkpt>
      <trkpt lat="43.76807" lon="3.84746">
        <ele>214</ele>
        <time>2026-05-21T14:02:14.000Z</time>
      </trkpt>
      <trkpt lat="43.76808" lon="3.84748">
        <ele>214.2</ele>
        <time>2026-05-21T14:02:15.000Z</time>
      </trkpt>
      <trkpt lat="43.76809" lon="3.84749">
        <ele>214.1</ele>
        <time>2026-05-21T14:02:16.000Z</time>
      </trkpt>
      <trkpt lat="43.7681" lon="3.8475">
        <ele>214.1</ele>
        <time>2026-05-21T14:02:17.000Z</time>
      </trkpt>
      <trkpt lat="43.76811" lon="3.84751">
        <ele>213.9</ele>
        <time>2026-05-21T14:02:18.000Z</time>
      </trkpt>
      <trkpt lat="43.76812" lon="3.84752">
        <ele>213.7</ele>
        <time>2026-05-21T14:02:19.000Z</time>
      </trkpt>
      <trkpt lat="43.76812" lon="3.84754">
        <ele>213.6</ele>
        <time>2026-05-21T14:02:20.000Z</time>
      </trkpt>
      <trkpt lat="43.76812" lon="3.84754">
        <ele>213.4</ele>
        <time>2026-05-21T14:02:21.000Z</time>
      </trkpt>
      <trkpt lat="43.76813" lon="3.84755">
        <ele>213.4</ele>
        <time>2026-05-21T14:02:22.000Z</time>
      </trkpt>
      <trkpt lat="43.76814" lon="3.84756">
        <ele>213.2</ele>
        <time>2026-05-21T14:02:23.000Z</time>
      </trkpt>
      <trkpt lat="43.76815" lon="3.84757">
        <ele>213</ele>
        <time>2026-05-21T14:02:24.000Z</time>
      </trkpt>
      <trkpt lat="43.76817" lon="3.84759">
        <ele>213</ele>
        <time>2026-05-21T14:02:25.000Z</time>
      </trkpt>
      <trkpt lat="43.76818" lon="3.8476">
        <ele>212.6</ele>
        <time>2026-05-21T14:02:26.000Z</time>
      </trkpt>
      <trkpt lat="43.76819" lon="3.8476">
        <ele>212</ele>
        <time>2026-05-21T14:02:27.000Z</time>
      </trkpt>
      <trkpt lat="43.76819" lon="3.8476">
        <ele>211.1</ele>
        <time>2026-05-21T14:02:28.000Z</time>
      </trkpt>
      <trkpt lat="43.76819" lon="3.84761">
        <ele>210.2</ele>
        <time>2026-05-21T14:02:29.000Z</time>
      </trkpt>
      <trkpt lat="43.7682" lon="3.84763">
        <ele>209.6</ele>
        <time>2026-05-21T14:02:30.000Z</time>
      </trkpt>
      <trkpt lat="43.7682" lon="3.84764">
        <ele>209.7</ele>
        <time>2026-05-21T14:02:31.000Z</time>
      </trkpt>
      <trkpt lat="43.76821" lon="3.84765">
        <ele>209.6</ele>
        <time>2026-05-21T14:02:32.000Z</time>
      </trkpt>
      <trkpt lat="43.76821" lon="3.84766">
        <ele>209.4</ele>
        <time>2026-05-21T14:02:33.000Z</time>
      </trkpt>
      <trkpt lat="43.76821" lon="3.84767">
        <ele>209.4</ele>
        <time>2026-05-21T14:02:34.000Z</time>
      </trkpt>
      <trkpt lat="43.76821" lon="3.84767">
        <ele>209.1</ele>
        <time>2026-05-21T14:02:35.000Z</time>
      </trkpt>
      <trkpt lat="43.76821" lon="3.84768">
        <ele>208.8</ele>
        <time>2026-05-21T14:02:36.000Z</time>
      </trkpt>
      <trkpt lat="43.76821" lon="3.8477">
        <ele>208.7</ele>
        <time>2026-05-21T14:02:37.000Z</time>
      </trkpt>
      <trkpt lat="43.76821" lon="3.84772">
        <ele>208.7</ele>
        <time>2026-05-21T14:02:38.000Z</time>
      </trkpt>
      <trkpt lat="43.76822" lon="3.84774">
        <ele>208.8</ele>
        <time>2026-05-21T14:02:39.000Z</time>
      </trkpt>
      <trkpt lat="43.76823" lon="3.84775">
        <ele>208.7</ele>
        <time>2026-05-21T14:02:40.000Z</time>
      </trkpt>
      <trkpt lat="43.76824" lon="3.84776">
        <ele>208.7</ele>
        <time>2026-05-21T14:02:41.000Z</time>
      </trkpt>
      <trkpt lat="43.76824" lon="3.84777">
        <ele>208.8</ele>
        <time>2026-05-21T14:02:42.000Z</time>
      </trkpt>
      <trkpt lat="43.76824" lon="3.84779">
        <ele>208.9</ele>
        <time>2026-05-21T14:02:43.000Z</time>
      </trkpt>
      <trkpt lat="43.76825" lon="3.8478">
        <ele>209.1</ele>
        <time>2026-05-21T14:02:44.000Z</time>
      </trkpt>
      <trkpt lat="43.76825" lon="3.84781">
        <ele>209.2</ele>
        <time>2026-05-21T14:02:45.000Z</time>
      </trkpt>
      <trkpt lat="43.76826" lon="3.84782">
        <ele>209.5</ele>
        <time>2026-05-21T14:02:46.000Z</time>
      </trkpt>
      <trkpt lat="43.76827" lon="3.84783">
        <ele>209.2</ele>
        <time>2026-05-21T14:02:47.000Z</time>
      </trkpt>
      <trkpt lat="43.76827" lon="3.84784">
        <ele>209</ele>
        <time>2026-05-21T14:02:48.000Z</time>
      </trkpt>
      <trkpt lat="43.76828" lon="3.84785">
        <ele>209</ele>
        <time>2026-05-21T14:02:49.000Z</time>
      </trkpt>
      <trkpt lat="43.76829" lon="3.84786">
        <ele>208.9</ele>
        <time>2026-05-21T14:02:50.000Z</time>
      </trkpt>
      <trkpt lat="43.7683" lon="3.84787">
        <ele>209</ele>
        <time>2026-05-21T14:02:51.000Z</time>
      </trkpt>
      <trkpt lat="43.76831" lon="3.84788">
        <ele>208.9</ele>
        <time>2026-05-21T14:02:52.000Z</time>
      </trkpt>
      <trkpt lat="43.76832" lon="3.84788">
        <ele>208.4</ele>
        <time>2026-05-21T14:02:53.000Z</time>
      </trkpt>
      <trkpt lat="43.76833" lon="3.84789">
        <ele>207.9</ele>
        <time>2026-05-21T14:02:54.000Z</time>
      </trkpt>
      <trkpt lat="43.76833" lon="3.8479">
        <ele>207.4</ele>
        <time>2026-05-21T14:02:55.000Z</time>
      </trkpt>
      <trkpt lat="43.76834" lon="3.8479">
        <ele>207.2</ele>
        <time>2026-05-21T14:02:56.000Z</time>
      </trkpt>
      <trkpt lat="43.76835" lon="3.84791">
        <ele>207.2</ele>
        <time>2026-05-21T14:02:57.000Z</time>
      </trkpt>
      <trkpt lat="43.76835" lon="3.84792">
        <ele>207.3</ele>
        <time>2026-05-21T14:02:58.000Z</time>
      </trkpt>
      <trkpt lat="43.76836" lon="3.84794">
        <ele>207.1</ele>
        <time>2026-05-21T14:02:59.000Z</time>
      </trkpt>
      <trkpt lat="43.76836" lon="3.84795">
        <ele>206.9</ele>
        <time>2026-05-21T14:03:00.000Z</time>
      </trkpt>
      <trkpt lat="43.76836" lon="3.84797">
        <ele>206.7</ele>
        <time>2026-05-21T14:03:01.000Z</time>
      </trkpt>
      <trkpt lat="43.76836" lon="3.84799">
        <ele>206.2</ele>
        <time>2026-05-21T14:03:02.000Z</time>
      </trkpt>
      <trkpt lat="43.76837" lon="3.848">
        <ele>205.6</ele>
        <time>2026-05-21T14:03:03.000Z</time>
      </trkpt>
      <trkpt lat="43.76837" lon="3.84802">
        <ele>205.5</ele>
        <time>2026-05-21T14:03:04.000Z</time>
      </trkpt>
      <trkpt lat="43.76838" lon="3.84802">
        <ele>205.5</ele>
        <time>2026-05-21T14:03:05.000Z</time>
      </trkpt>
      <trkpt lat="43.76839" lon="3.84804">
        <ele>205.2</ele>
        <time>2026-05-21T14:03:06.000Z</time>
      </trkpt>
      <trkpt lat="43.7684" lon="3.84805">
        <ele>205</ele>
        <time>2026-05-21T14:03:07.000Z</time>
      </trkpt>
      <trkpt lat="43.76841" lon="3.84806">
        <ele>204.9</ele>
        <time>2026-05-21T14:03:08.000Z</time>
      </trkpt>
      <trkpt lat="43.76841" lon="3.84806">
        <ele>204.6</ele>
        <time>2026-05-21T14:03:09.000Z</time>
      </trkpt>
      <trkpt lat="43.76841" lon="3.84807">
        <ele>204.1</ele>
        <time>2026-05-21T14:03:10.000Z</time>
      </trkpt>
      <trkpt lat="43.76842" lon="3.84809">
        <ele>203.8</ele>
        <time>2026-05-21T14:03:11.000Z</time>
      </trkpt>
      <trkpt lat="43.76843" lon="3.8481">
        <ele>203.5</ele>
        <time>2026-05-21T14:03:12.000Z</time>
      </trkpt>
      <trkpt lat="43.76843" lon="3.84811">
        <ele>203.1</ele>
        <time>2026-05-21T14:03:13.000Z</time>
      </trkpt>
      <trkpt lat="43.76844" lon="3.84813">
        <ele>202.9</ele>
        <time>2026-05-21T14:03:14.000Z</time>
      </trkpt>
      <trkpt lat="43.76844" lon="3.84814">
        <ele>202.8</ele>
        <time>2026-05-21T14:03:15.000Z</time>
      </trkpt>
      <trkpt lat="43.76845" lon="3.84815">
        <ele>202.8</ele>
        <time>2026-05-21T14:03:16.000Z</time>
      </trkpt>
      <trkpt lat="43.76846" lon="3.84817">
        <ele>202.9</ele>
        <time>2026-05-21T14:03:17.000Z</time>
      </trkpt>
      <trkpt lat="43.76848" lon="3.84817">
        <ele>203.2</ele>
        <time>2026-05-21T14:03:18.000Z</time>
      </trkpt>
      <trkpt lat="43.76849" lon="3.84818">
        <ele>203.3</ele>
        <time>2026-05-21T14:03:19.000Z</time>
      </trkpt>
      <trkpt lat="43.7685" lon="3.84819">
        <ele>203.7</ele>
        <time>2026-05-21T14:03:20.000Z</time>
      </trkpt>
      <trkpt lat="43.76851" lon="3.8482">
        <ele>203.5</ele>
        <time>2026-05-21T14:03:21.000Z</time>
      </trkpt>
      <trkpt lat="43.76852" lon="3.84821">
        <ele>203.8</ele>
        <time>2026-05-21T14:03:22.000Z</time>
      </trkpt>
      <trkpt lat="43.76853" lon="3.84822">
        <ele>203.6</ele>
        <time>2026-05-21T14:03:23.000Z</time>
      </trkpt>
      <trkpt lat="43.76854" lon="3.84823">
        <ele>203.7</ele>
        <time>2026-05-21T14:03:24.000Z</time>
      </trkpt>
      <trkpt lat="43.76855" lon="3.84824">
        <ele>203.5</ele>
        <time>2026-05-21T14:03:25.000Z</time>
      </trkpt>
      <trkpt lat="43.76856" lon="3.84825">
        <ele>203.5</ele>
        <time>2026-05-21T14:03:26.000Z</time>
      </trkpt>
      <trkpt lat="43.76857" lon="3.84826">
        <ele>203.9</ele>
        <time>2026-05-21T14:03:27.000Z</time>
      </trkpt>
      <trkpt lat="43.76857" lon="3.84827">
        <ele>204</ele>
        <time>2026-05-21T14:03:28.000Z</time>
      </trkpt>
      <trkpt lat="43.76858" lon="3.84828">
        <ele>204</ele>
        <time>2026-05-21T14:03:29.000Z</time>
      </trkpt>
      <trkpt lat="43.76858" lon="3.84828">
        <ele>203.8</ele>
        <time>2026-05-21T14:03:30.000Z</time>
      </trkpt>
      <trkpt lat="43.76859" lon="3.84829">
        <ele>203.9</ele>
        <time>2026-05-21T14:03:31.000Z</time>
      </trkpt>
      <trkpt lat="43.7686" lon="3.84829">
        <ele>203.7</ele>
        <time>2026-05-21T14:03:32.000Z</time>
      </trkpt>
      <trkpt lat="43.76862" lon="3.8483">
        <ele>203.8</ele>
        <time>2026-05-21T14:03:33.000Z</time>
      </trkpt>
      <trkpt lat="43.76863" lon="3.8483">
        <ele>203.6</ele>
        <time>2026-05-21T14:03:34.000Z</time>
      </trkpt>
      <trkpt lat="43.76864" lon="3.84831">
        <ele>203.4</ele>
        <time>2026-05-21T14:03:35.000Z</time>
      </trkpt>
      <trkpt lat="43.76865" lon="3.84831">
        <ele>203.1</ele>
        <time>2026-05-21T14:03:36.000Z</time>
      </trkpt>
      <trkpt lat="43.76866" lon="3.8483">
        <ele>202.6</ele>
        <time>2026-05-21T14:03:37.000Z</time>
      </trkpt>
      <trkpt lat="43.76868" lon="3.84829">
        <ele>202</ele>
        <time>2026-05-21T14:03:38.000Z</time>
      </trkpt>
      <trkpt lat="43.76869" lon="3.84829">
        <ele>201.8</ele>
        <time>2026-05-21T14:03:39.000Z</time>
      </trkpt>
      <trkpt lat="43.7687" lon="3.84828">
        <ele>202</ele>
        <time>2026-05-21T14:03:40.000Z</time>
      </trkpt>
      <trkpt lat="43.76871" lon="3.84827">
        <ele>201.8</ele>
        <time>2026-05-21T14:03:41.000Z</time>
      </trkpt>
      <trkpt lat="43.76872" lon="3.84826">
        <ele>201.5</ele>
        <time>2026-05-21T14:03:42.000Z</time>
      </trkpt>
      <trkpt lat="43.76873" lon="3.84825">
        <ele>201.2</ele>
        <time>2026-05-21T14:03:43.000Z</time>
      </trkpt>
      <trkpt lat="43.76875" lon="3.84826">
        <ele>200.7</ele>
        <time>2026-05-21T14:03:44.000Z</time>
      </trkpt>
      <trkpt lat="43.76876" lon="3.84827">
        <ele>200.4</ele>
        <time>2026-05-21T14:03:45.000Z</time>
      </trkpt>
      <trkpt lat="43.76877" lon="3.84827">
        <ele>200</ele>
        <time>2026-05-21T14:03:46.000Z</time>
      </trkpt>
      <trkpt lat="43.76877" lon="3.84828">
        <ele>199.6</ele>
        <time>2026-05-21T14:03:47.000Z</time>
      </trkpt>
      <trkpt lat="43.76878" lon="3.84829">
        <ele>199.7</ele>
        <time>2026-05-21T14:03:48.000Z</time>
      </trkpt>
      <trkpt lat="43.76878" lon="3.84828">
        <ele>199.9</ele>
        <time>2026-05-21T14:03:49.000Z</time>
      </trkpt>
      <trkpt lat="43.76879" lon="3.84828">
        <ele>199.9</ele>
        <time>2026-05-21T14:03:50.000Z</time>
      </trkpt>
      <trkpt lat="43.7688" lon="3.84827">
        <ele>200</ele>
        <time>2026-05-21T14:03:51.000Z</time>
      </trkpt>
      <trkpt lat="43.7688" lon="3.84825">
        <ele>199.7</ele>
        <time>2026-05-21T14:03:52.000Z</time>
      </trkpt>
      <trkpt lat="43.7688" lon="3.84824">
        <ele>199.4</ele>
        <time>2026-05-21T14:03:53.000Z</time>
      </trkpt>
      <trkpt lat="43.76879" lon="3.84823">
        <ele>199.3</ele>
        <time>2026-05-21T14:03:54.000Z</time>
      </trkpt>
      <trkpt lat="43.76879" lon="3.84823">
        <ele>199.3</ele>
        <time>2026-05-21T14:03:55.000Z</time>
      </trkpt>
      <trkpt lat="43.7688" lon="3.84824">
        <ele>199.4</ele>
        <time>2026-05-21T14:03:56.000Z</time>
      </trkpt>
      <trkpt lat="43.76881" lon="3.84825">
        <ele>199.3</ele>
        <time>2026-05-21T14:03:57.000Z</time>
      </trkpt>
      <trkpt lat="43.76882" lon="3.84827">
        <ele>199.3</ele>
        <time>2026-05-21T14:03:58.000Z</time>
      </trkpt>
      <trkpt lat="43.76883" lon="3.84828">
        <ele>199.4</ele>
        <time>2026-05-21T14:03:59.000Z</time>
      </trkpt>
      <trkpt lat="43.76884" lon="3.84829">
        <ele>199.8</ele>
        <time>2026-05-21T14:04:00.000Z</time>
      </trkpt>
      <trkpt lat="43.76883" lon="3.8483">
        <ele>200.1</ele>
        <time>2026-05-21T14:04:01.000Z</time>
      </trkpt>
      <trkpt lat="43.76883" lon="3.8483">
        <ele>200.3</ele>
        <time>2026-05-21T14:04:02.000Z</time>
      </trkpt>
      <trkpt lat="43.76883" lon="3.8483">
        <ele>200.5</ele>
        <time>2026-05-21T14:04:03.000Z</time>
      </trkpt>
      <trkpt lat="43.76883" lon="3.8483">
        <ele>201</ele>
        <time>2026-05-21T14:04:04.000Z</time>
      </trkpt>
      <trkpt lat="43.76883" lon="3.8483">
        <ele>201.1</ele>
        <time>2026-05-21T14:04:05.000Z</time>
      </trkpt>
      <trkpt lat="43.76883" lon="3.8483">
        <ele>201.1</ele>
        <time>2026-05-21T14:04:06.000Z</time>
      </trkpt>
      <trkpt lat="43.76883" lon="3.8483">
        <ele>201.2</ele>
        <time>2026-05-21T14:04:07.000Z</time>
      </trkpt>
      <trkpt lat="43.76883" lon="3.84831">
        <ele>201.4</ele>
        <time>2026-05-21T14:04:08.000Z</time>
      </trkpt>
      <trkpt lat="43.76883" lon="3.84831">
        <ele>201.7</ele>
        <time>2026-05-21T14:04:09.000Z</time>
      </trkpt>
      <trkpt lat="43.76883" lon="3.84831">
        <ele>201.9</ele>
        <time>2026-05-21T14:04:10.000Z</time>
      </trkpt>
      <trkpt lat="43.76883" lon="3.84831">
        <ele>202</ele>
        <time>2026-05-21T14:04:11.000Z</time>
      </trkpt>
      <trkpt lat="43.76883" lon="3.84831">
        <ele>202</ele>
        <time>2026-05-21T14:04:12.000Z</time>
      </trkpt>
      <trkpt lat="43.76883" lon="3.84831">
        <ele>202.3</ele>
        <time>2026-05-21T14:04:13.000Z</time>
      </trkpt>
      <trkpt lat="43.76884" lon="3.84831">
        <ele>202.8</ele>
        <time>2026-05-21T14:04:14.000Z</time>
      </trkpt>
      <trkpt lat="43.76884" lon="3.84831">
        <ele>203.2</ele>
        <time>2026-05-21T14:04:15.000Z</time>
      </trkpt>
    </trkseg>
  </trk>
</gpx>